<?xml version='1.0' encoding='UTF-8'?>
<gpx version="1.1" creator="https://www.komoot.de" xmlns="http://www.topografix.com/GPX/1/1" xmlns:xsi="http://www.w3.org/2001/XMLSchema-instance" xsi:schemaLocation="http://www.topografix.com/GPX/1/1 http://www.topografix.com/GPX/1/1/gpx.xsd">
  <metadata>
    <name>RR 23/01 - openingsrit</name>
    <author>
      <link href="https://www.komoot.de">
        <text>komoot</text>
        <type>text/html</type>
      </link>
    </author>
  </metadata>
  <trk>
    <name>RR 23/01 - openingsrit</name>
    <trkseg>
      <trkpt lat="51.144546" lon="5.741408">
        <ele>32.060617</ele>
        <time>2023-03-05T07:53:27.000Z</time>
      </trkpt>
      <trkpt lat="51.144528" lon="5.741436">
        <ele>32.060617</ele>
        <time>2023-03-05T07:53:28.000Z</time>
      </trkpt>
      <trkpt lat="51.144499" lon="5.741478">
        <ele>32.060617</ele>
        <time>2023-03-05T07:53:29.000Z</time>
      </trkpt>
      <trkpt lat="51.144465" lon="5.741530">
        <ele>32.060617</ele>
        <time>2023-03-05T07:53:30.000Z</time>
      </trkpt>
      <trkpt lat="51.144432" lon="5.741582">
        <ele>32.060617</ele>
        <time>2023-03-05T07:53:31.000Z</time>
      </trkpt>
      <trkpt lat="51.144399" lon="5.741640">
        <ele>32.060617</ele>
        <time>2023-03-05T07:53:32.000Z</time>
      </trkpt>
      <trkpt lat="51.144371" lon="5.741700">
        <ele>32.060617</ele>
        <time>2023-03-05T07:53:33.000Z</time>
      </trkpt>
      <trkpt lat="51.144339" lon="5.741753">
        <ele>32.060617</ele>
        <time>2023-03-05T07:53:34.000Z</time>
      </trkpt>
      <trkpt lat="51.144303" lon="5.741790">
        <ele>32.060617</ele>
        <time>2023-03-05T07:53:35.000Z</time>
      </trkpt>
      <trkpt lat="51.144262" lon="5.741810">
        <ele>32.060617</ele>
        <time>2023-03-05T07:53:36.000Z</time>
      </trkpt>
      <trkpt lat="51.144218" lon="5.741821">
        <ele>32.060617</ele>
        <time>2023-03-05T07:53:37.000Z</time>
      </trkpt>
      <trkpt lat="51.144170" lon="5.741830">
        <ele>32.060617</ele>
        <time>2023-03-05T07:53:38.000Z</time>
      </trkpt>
      <trkpt lat="51.144123" lon="5.741831">
        <ele>32.060617</ele>
        <time>2023-03-05T07:53:39.000Z</time>
      </trkpt>
      <trkpt lat="51.144076" lon="5.741828">
        <ele>32.060617</ele>
        <time>2023-03-05T07:53:40.000Z</time>
      </trkpt>
      <trkpt lat="51.144028" lon="5.741817">
        <ele>32.060617</ele>
        <time>2023-03-05T07:53:41.000Z</time>
      </trkpt>
      <trkpt lat="51.143981" lon="5.741804">
        <ele>32.060617</ele>
        <time>2023-03-05T07:53:42.000Z</time>
      </trkpt>
      <trkpt lat="51.143930" lon="5.741798">
        <ele>32.060617</ele>
        <time>2023-03-05T07:53:43.000Z</time>
      </trkpt>
      <trkpt lat="51.143876" lon="5.741798">
        <ele>32.060617</ele>
        <time>2023-03-05T07:53:44.000Z</time>
      </trkpt>
      <trkpt lat="51.143822" lon="5.741800">
        <ele>32.060617</ele>
        <time>2023-03-05T07:53:45.000Z</time>
      </trkpt>
      <trkpt lat="51.143769" lon="5.741804">
        <ele>32.060617</ele>
        <time>2023-03-05T07:53:46.000Z</time>
      </trkpt>
      <trkpt lat="51.143716" lon="5.741808">
        <ele>32.050383</ele>
        <time>2023-03-05T07:53:47.000Z</time>
      </trkpt>
      <trkpt lat="51.143662" lon="5.741815">
        <ele>32.034453</ele>
        <time>2023-03-05T07:53:48.000Z</time>
      </trkpt>
      <trkpt lat="51.143607" lon="5.741825">
        <ele>32.018177</ele>
        <time>2023-03-05T07:53:49.000Z</time>
      </trkpt>
      <trkpt lat="51.143550" lon="5.741829">
        <ele>32.001402</ele>
        <time>2023-03-05T07:53:50.000Z</time>
      </trkpt>
      <trkpt lat="51.143492" lon="5.741830">
        <ele>31.984348</ele>
        <time>2023-03-05T07:53:51.000Z</time>
      </trkpt>
      <trkpt lat="51.143435" lon="5.741828">
        <ele>31.967584</ele>
        <time>2023-03-05T07:53:52.000Z</time>
      </trkpt>
      <trkpt lat="51.143376" lon="5.741822">
        <ele>31.950202</ele>
        <time>2023-03-05T07:53:53.000Z</time>
      </trkpt>
      <trkpt lat="51.143315" lon="5.741812">
        <ele>31.932172</ele>
        <time>2023-03-05T07:53:54.000Z</time>
      </trkpt>
      <trkpt lat="51.143252" lon="5.741802">
        <ele>31.913557</ele>
        <time>2023-03-05T07:53:55.000Z</time>
      </trkpt>
      <trkpt lat="51.143189" lon="5.741792">
        <ele>31.894942</ele>
        <time>2023-03-05T07:53:56.000Z</time>
      </trkpt>
      <trkpt lat="51.143130" lon="5.741783">
        <ele>31.877516</ele>
        <time>2023-03-05T07:53:57.000Z</time>
      </trkpt>
      <trkpt lat="51.143071" lon="5.741771">
        <ele>31.860028</ele>
        <time>2023-03-05T07:53:58.000Z</time>
      </trkpt>
      <trkpt lat="51.143012" lon="5.741757">
        <ele>31.842489</ele>
        <time>2023-03-05T07:53:59.000Z</time>
      </trkpt>
      <trkpt lat="51.142956" lon="5.741742">
        <ele>31.825793</ele>
        <time>2023-03-05T07:54:00.000Z</time>
      </trkpt>
      <trkpt lat="51.142900" lon="5.741726">
        <ele>31.809066</ele>
        <time>2023-03-05T07:54:01.000Z</time>
      </trkpt>
      <trkpt lat="51.142844" lon="5.741709">
        <ele>31.792305</ele>
        <time>2023-03-05T07:54:02.000Z</time>
      </trkpt>
      <trkpt lat="51.142789" lon="5.741690">
        <ele>31.775758</ele>
        <time>2023-03-05T07:54:03.000Z</time>
      </trkpt>
      <trkpt lat="51.142735" lon="5.741672">
        <ele>31.759538</ele>
        <time>2023-03-05T07:54:04.000Z</time>
      </trkpt>
      <trkpt lat="51.142682" lon="5.741652">
        <ele>31.743524</ele>
        <time>2023-03-05T07:54:05.000Z</time>
      </trkpt>
      <trkpt lat="51.142627" lon="5.741631">
        <ele>31.726895</ele>
        <time>2023-03-05T07:54:06.000Z</time>
      </trkpt>
      <trkpt lat="51.142572" lon="5.741610">
        <ele>31.710266</ele>
        <time>2023-03-05T07:54:07.000Z</time>
      </trkpt>
      <trkpt lat="51.142518" lon="5.741588">
        <ele>31.693879</ele>
        <time>2023-03-05T07:54:08.000Z</time>
      </trkpt>
      <trkpt lat="51.142462" lon="5.741565">
        <ele>31.676876</ele>
        <time>2023-03-05T07:54:09.000Z</time>
      </trkpt>
      <trkpt lat="51.142408" lon="5.741540">
        <ele>31.660343</ele>
        <time>2023-03-05T07:54:10.000Z</time>
      </trkpt>
      <trkpt lat="51.142354" lon="5.741513">
        <ele>31.643703</ele>
        <time>2023-03-05T07:54:11.000Z</time>
      </trkpt>
      <trkpt lat="51.142298" lon="5.741485">
        <ele>31.626446</ele>
        <time>2023-03-05T07:54:12.000Z</time>
      </trkpt>
      <trkpt lat="51.142244" lon="5.741456">
        <ele>31.609692</ele>
        <time>2023-03-05T07:54:13.000Z</time>
      </trkpt>
      <trkpt lat="51.142190" lon="5.741425">
        <ele>31.592817</ele>
        <time>2023-03-05T07:54:14.000Z</time>
      </trkpt>
      <trkpt lat="51.142134" lon="5.741394">
        <ele>31.575387</ele>
        <time>2023-03-05T07:54:15.000Z</time>
      </trkpt>
      <trkpt lat="51.142079" lon="5.741362">
        <ele>31.558172</ele>
        <time>2023-03-05T07:54:16.000Z</time>
      </trkpt>
      <trkpt lat="51.142023" lon="5.741330">
        <ele>31.540681</ele>
        <time>2023-03-05T07:54:17.000Z</time>
      </trkpt>
      <trkpt lat="51.141966" lon="5.741298">
        <ele>31.532500</ele>
        <time>2023-03-05T07:54:18.000Z</time>
      </trkpt>
      <trkpt lat="51.141912" lon="5.741266">
        <ele>31.533879</ele>
        <time>2023-03-05T07:54:19.000Z</time>
      </trkpt>
      <trkpt lat="51.141856" lon="5.741232">
        <ele>31.535312</ele>
        <time>2023-03-05T07:54:20.000Z</time>
      </trkpt>
      <trkpt lat="51.141798" lon="5.741196">
        <ele>31.536802</ele>
        <time>2023-03-05T07:54:21.000Z</time>
      </trkpt>
      <trkpt lat="51.141741" lon="5.741161">
        <ele>31.538263</ele>
        <time>2023-03-05T07:54:22.000Z</time>
      </trkpt>
      <trkpt lat="51.141686" lon="5.741125">
        <ele>31.539686</ele>
        <time>2023-03-05T07:54:23.000Z</time>
      </trkpt>
      <trkpt lat="51.141631" lon="5.741089">
        <ele>31.541108</ele>
        <time>2023-03-05T07:54:24.000Z</time>
      </trkpt>
      <trkpt lat="51.141573" lon="5.741052">
        <ele>31.542603</ele>
        <time>2023-03-05T07:54:25.000Z</time>
      </trkpt>
      <trkpt lat="51.141517" lon="5.741018">
        <ele>31.544037</ele>
        <time>2023-03-05T07:54:26.000Z</time>
      </trkpt>
      <trkpt lat="51.141462" lon="5.740987">
        <ele>31.545433</ele>
        <time>2023-03-05T07:54:27.000Z</time>
      </trkpt>
      <trkpt lat="51.141408" lon="5.740954">
        <ele>31.546816</ele>
        <time>2023-03-05T07:54:28.000Z</time>
      </trkpt>
      <trkpt lat="51.141352" lon="5.740922">
        <ele>31.548240</ele>
        <time>2023-03-05T07:54:29.000Z</time>
      </trkpt>
      <trkpt lat="51.141297" lon="5.740890">
        <ele>31.549640</ele>
        <time>2023-03-05T07:54:30.000Z</time>
      </trkpt>
      <trkpt lat="51.141244" lon="5.740858">
        <ele>31.550996</ele>
        <time>2023-03-05T07:54:31.000Z</time>
      </trkpt>
      <trkpt lat="51.141191" lon="5.740825">
        <ele>31.552358</ele>
        <time>2023-03-05T07:54:32.000Z</time>
      </trkpt>
      <trkpt lat="51.141135" lon="5.740791">
        <ele>31.553792</ele>
        <time>2023-03-05T07:54:33.000Z</time>
      </trkpt>
      <trkpt lat="51.141080" lon="5.740753">
        <ele>31.555226</ele>
        <time>2023-03-05T07:54:34.000Z</time>
      </trkpt>
      <trkpt lat="51.141025" lon="5.740718">
        <ele>31.556643</ele>
        <time>2023-03-05T07:54:35.000Z</time>
      </trkpt>
      <trkpt lat="51.140970" lon="5.740684">
        <ele>31.558054</ele>
        <time>2023-03-05T07:54:36.000Z</time>
      </trkpt>
      <trkpt lat="51.140913" lon="5.740650">
        <ele>31.559510</ele>
        <time>2023-03-05T07:54:37.000Z</time>
      </trkpt>
      <trkpt lat="51.140859" lon="5.740616">
        <ele>31.560900</ele>
        <time>2023-03-05T07:54:38.000Z</time>
      </trkpt>
      <trkpt lat="51.140805" lon="5.740583">
        <ele>31.562283</ele>
        <time>2023-03-05T07:54:39.000Z</time>
      </trkpt>
      <trkpt lat="51.140752" lon="5.740552">
        <ele>31.563634</ele>
        <time>2023-03-05T07:54:40.000Z</time>
      </trkpt>
      <trkpt lat="51.140698" lon="5.740519">
        <ele>31.565018</ele>
        <time>2023-03-05T07:54:41.000Z</time>
      </trkpt>
      <trkpt lat="51.140643" lon="5.740486">
        <ele>31.566424</ele>
        <time>2023-03-05T07:54:42.000Z</time>
      </trkpt>
      <trkpt lat="51.140586" lon="5.740450">
        <ele>31.567891</ele>
        <time>2023-03-05T07:54:43.000Z</time>
      </trkpt>
      <trkpt lat="51.140528" lon="5.740415">
        <ele>31.569375</ele>
        <time>2023-03-05T07:54:44.000Z</time>
      </trkpt>
      <trkpt lat="51.140474" lon="5.740380">
        <ele>31.570769</ele>
        <time>2023-03-05T07:54:45.000Z</time>
      </trkpt>
      <trkpt lat="51.140420" lon="5.740345">
        <ele>31.572164</ele>
        <time>2023-03-05T07:54:46.000Z</time>
      </trkpt>
      <trkpt lat="51.140364" lon="5.740312">
        <ele>31.573593</ele>
        <time>2023-03-05T07:54:47.000Z</time>
      </trkpt>
      <trkpt lat="51.140307" lon="5.740282">
        <ele>31.577395</ele>
        <time>2023-03-05T07:54:48.000Z</time>
      </trkpt>
      <trkpt lat="51.140250" lon="5.740248">
        <ele>31.594816</ele>
        <time>2023-03-05T07:54:49.000Z</time>
      </trkpt>
      <trkpt lat="51.140194" lon="5.740213">
        <ele>31.612033</ele>
        <time>2023-03-05T07:54:50.000Z</time>
      </trkpt>
      <trkpt lat="51.140139" lon="5.740178">
        <ele>31.628985</ele>
        <time>2023-03-05T07:54:51.000Z</time>
      </trkpt>
      <trkpt lat="51.140082" lon="5.740143">
        <ele>31.646469</ele>
        <time>2023-03-05T07:54:52.000Z</time>
      </trkpt>
      <trkpt lat="51.140025" lon="5.740109">
        <ele>31.663890</ele>
        <time>2023-03-05T07:54:53.000Z</time>
      </trkpt>
      <trkpt lat="51.139968" lon="5.740075">
        <ele>31.681311</ele>
        <time>2023-03-05T07:54:54.000Z</time>
      </trkpt>
      <trkpt lat="51.139911" lon="5.740040">
        <ele>31.698795</ele>
        <time>2023-03-05T07:54:55.000Z</time>
      </trkpt>
      <trkpt lat="51.139853" lon="5.740005">
        <ele>31.716547</ele>
        <time>2023-03-05T07:54:56.000Z</time>
      </trkpt>
      <trkpt lat="51.139798" lon="5.739971">
        <ele>31.733433</ele>
        <time>2023-03-05T07:54:57.000Z</time>
      </trkpt>
      <trkpt lat="51.139743" lon="5.739939">
        <ele>31.750192</ele>
        <time>2023-03-05T07:54:58.000Z</time>
      </trkpt>
      <trkpt lat="51.139688" lon="5.739908">
        <ele>31.766890</ele>
        <time>2023-03-05T07:54:59.000Z</time>
      </trkpt>
      <trkpt lat="51.139633" lon="5.739876">
        <ele>31.783649</ele>
        <time>2023-03-05T07:55:00.000Z</time>
      </trkpt>
      <trkpt lat="51.139577" lon="5.739842">
        <ele>31.800802</ele>
        <time>2023-03-05T07:55:01.000Z</time>
      </trkpt>
      <trkpt lat="51.139522" lon="5.739807">
        <ele>31.817754</ele>
        <time>2023-03-05T07:55:02.000Z</time>
      </trkpt>
      <trkpt lat="51.139468" lon="5.739772">
        <ele>31.834440</ele>
        <time>2023-03-05T07:55:03.000Z</time>
      </trkpt>
      <trkpt lat="51.139414" lon="5.739738">
        <ele>31.851059</ele>
        <time>2023-03-05T07:55:04.000Z</time>
      </trkpt>
      <trkpt lat="51.139358" lon="5.739705">
        <ele>31.868149</ele>
        <time>2023-03-05T07:55:05.000Z</time>
      </trkpt>
      <trkpt lat="51.139303" lon="5.739671">
        <ele>31.885034</ele>
        <time>2023-03-05T07:55:06.000Z</time>
      </trkpt>
      <trkpt lat="51.139247" lon="5.739638">
        <ele>31.902124</ele>
        <time>2023-03-05T07:55:07.000Z</time>
      </trkpt>
      <trkpt lat="51.139193" lon="5.739605">
        <ele>31.918678</ele>
        <time>2023-03-05T07:55:08.000Z</time>
      </trkpt>
      <trkpt lat="51.139139" lon="5.739571">
        <ele>31.935298</ele>
        <time>2023-03-05T07:55:09.000Z</time>
      </trkpt>
      <trkpt lat="51.139083" lon="5.739537">
        <ele>31.952450</ele>
        <time>2023-03-05T07:55:10.000Z</time>
      </trkpt>
      <trkpt lat="51.139026" lon="5.739502">
        <ele>31.969935</ele>
        <time>2023-03-05T07:55:11.000Z</time>
      </trkpt>
      <trkpt lat="51.138969" lon="5.739467">
        <ele>31.987419</ele>
        <time>2023-03-05T07:55:12.000Z</time>
      </trkpt>
      <trkpt lat="51.138912" lon="5.739432">
        <ele>32.004904</ele>
        <time>2023-03-05T07:55:13.000Z</time>
      </trkpt>
      <trkpt lat="51.138852" lon="5.739397">
        <ele>32.023192</ele>
        <time>2023-03-05T07:55:14.000Z</time>
      </trkpt>
      <trkpt lat="51.138793" lon="5.739362">
        <ele>32.041212</ele>
        <time>2023-03-05T07:55:15.000Z</time>
      </trkpt>
      <trkpt lat="51.138736" lon="5.739327">
        <ele>32.058697</ele>
        <time>2023-03-05T07:55:16.000Z</time>
      </trkpt>
      <trkpt lat="51.138678" lon="5.739293">
        <ele>32.076386</ele>
        <time>2023-03-05T07:55:17.000Z</time>
      </trkpt>
      <trkpt lat="51.138619" lon="5.739258">
        <ele>32.088071</ele>
        <time>2023-03-05T07:55:18.000Z</time>
      </trkpt>
      <trkpt lat="51.138560" lon="5.739222">
        <ele>32.082059</ele>
        <time>2023-03-05T07:55:19.000Z</time>
      </trkpt>
      <trkpt lat="51.138503" lon="5.739186">
        <ele>32.076226</ele>
        <time>2023-03-05T07:55:20.000Z</time>
      </trkpt>
      <trkpt lat="51.138443" lon="5.739151">
        <ele>32.070146</ele>
        <time>2023-03-05T07:55:21.000Z</time>
      </trkpt>
      <trkpt lat="51.138384" lon="5.739116">
        <ele>32.064156</ele>
        <time>2023-03-05T07:55:22.000Z</time>
      </trkpt>
      <trkpt lat="51.138330" lon="5.739082">
        <ele>32.058632</ele>
        <time>2023-03-05T07:55:23.000Z</time>
      </trkpt>
      <trkpt lat="51.138275" lon="5.739047">
        <ele>32.052997</ele>
        <time>2023-03-05T07:55:24.000Z</time>
      </trkpt>
      <trkpt lat="51.138217" lon="5.739012">
        <ele>32.047096</ele>
        <time>2023-03-05T07:55:25.000Z</time>
      </trkpt>
      <trkpt lat="51.138161" lon="5.738980">
        <ele>32.041435</ele>
        <time>2023-03-05T07:55:26.000Z</time>
      </trkpt>
      <trkpt lat="51.138106" lon="5.738947">
        <ele>32.035843</ele>
        <time>2023-03-05T07:55:27.000Z</time>
      </trkpt>
      <trkpt lat="51.138049" lon="5.738911">
        <ele>32.030010</ele>
        <time>2023-03-05T07:55:28.000Z</time>
      </trkpt>
      <trkpt lat="51.137992" lon="5.738874">
        <ele>32.024153</ele>
        <time>2023-03-05T07:55:29.000Z</time>
      </trkpt>
      <trkpt lat="51.137932" lon="5.738837">
        <ele>32.018032</ele>
        <time>2023-03-05T07:55:30.000Z</time>
      </trkpt>
      <trkpt lat="51.137875" lon="5.738801">
        <ele>32.012198</ele>
        <time>2023-03-05T07:55:31.000Z</time>
      </trkpt>
      <trkpt lat="51.137817" lon="5.738764">
        <ele>32.006254</ele>
        <time>2023-03-05T07:55:32.000Z</time>
      </trkpt>
      <trkpt lat="51.137760" lon="5.738727">
        <ele>32.000398</ele>
        <time>2023-03-05T07:55:33.000Z</time>
      </trkpt>
      <trkpt lat="51.137702" lon="5.738688">
        <ele>31.994408</ele>
        <time>2023-03-05T07:55:34.000Z</time>
      </trkpt>
      <trkpt lat="51.137644" lon="5.738648">
        <ele>31.988395</ele>
        <time>2023-03-05T07:55:35.000Z</time>
      </trkpt>
      <trkpt lat="51.137587" lon="5.738607">
        <ele>31.982444</ele>
        <time>2023-03-05T07:55:36.000Z</time>
      </trkpt>
      <trkpt lat="51.137530" lon="5.738567">
        <ele>31.976518</ele>
        <time>2023-03-05T07:55:37.000Z</time>
      </trkpt>
      <trkpt lat="51.137475" lon="5.738526">
        <ele>31.970741</ele>
        <time>2023-03-05T07:55:38.000Z</time>
      </trkpt>
      <trkpt lat="51.137417" lon="5.738483">
        <ele>31.964655</ele>
        <time>2023-03-05T07:55:39.000Z</time>
      </trkpt>
      <trkpt lat="51.137358" lon="5.738440">
        <ele>31.958482</ele>
        <time>2023-03-05T07:55:40.000Z</time>
      </trkpt>
      <trkpt lat="51.137304" lon="5.738398">
        <ele>31.952764</ele>
        <time>2023-03-05T07:55:41.000Z</time>
      </trkpt>
      <trkpt lat="51.137248" lon="5.738356">
        <ele>31.946875</ele>
        <time>2023-03-05T07:55:42.000Z</time>
      </trkpt>
      <trkpt lat="51.137190" lon="5.738316">
        <ele>31.940862</ele>
        <time>2023-03-05T07:55:43.000Z</time>
      </trkpt>
      <trkpt lat="51.137135" lon="5.738276">
        <ele>31.935110</ele>
        <time>2023-03-05T07:55:44.000Z</time>
      </trkpt>
      <trkpt lat="51.137082" lon="5.738238">
        <ele>31.929580</ele>
        <time>2023-03-05T07:55:45.000Z</time>
      </trkpt>
      <trkpt lat="51.137028" lon="5.738198">
        <ele>31.923914</ele>
        <time>2023-03-05T07:55:46.000Z</time>
      </trkpt>
      <trkpt lat="51.136973" lon="5.738157">
        <ele>31.919568</ele>
        <time>2023-03-05T07:55:47.000Z</time>
      </trkpt>
      <trkpt lat="51.136921" lon="5.738118">
        <ele>31.935006</ele>
        <time>2023-03-05T07:55:48.000Z</time>
      </trkpt>
      <trkpt lat="51.136866" lon="5.738079">
        <ele>31.951177</ele>
        <time>2023-03-05T07:55:49.000Z</time>
      </trkpt>
      <trkpt lat="51.136814" lon="5.738042">
        <ele>31.966474</ele>
        <time>2023-03-05T07:55:50.000Z</time>
      </trkpt>
      <trkpt lat="51.136762" lon="5.738005">
        <ele>31.981771</ele>
        <time>2023-03-05T07:55:51.000Z</time>
      </trkpt>
      <trkpt lat="51.136711" lon="5.737966">
        <ele>31.996967</ele>
        <time>2023-03-05T07:55:52.000Z</time>
      </trkpt>
      <trkpt lat="51.136661" lon="5.737928">
        <ele>32.011847</ele>
        <time>2023-03-05T07:55:53.000Z</time>
      </trkpt>
      <trkpt lat="51.136609" lon="5.737888">
        <ele>32.027357</ele>
        <time>2023-03-05T07:55:54.000Z</time>
      </trkpt>
      <trkpt lat="51.136556" lon="5.737849">
        <ele>32.043039</ele>
        <time>2023-03-05T07:55:55.000Z</time>
      </trkpt>
      <trkpt lat="51.136500" lon="5.737810">
        <ele>32.059455</ele>
        <time>2023-03-05T07:55:56.000Z</time>
      </trkpt>
      <trkpt lat="51.136445" lon="5.737769">
        <ele>32.075766</ele>
        <time>2023-03-05T07:55:57.000Z</time>
      </trkpt>
      <trkpt lat="51.136392" lon="5.737728">
        <ele>32.091591</ele>
        <time>2023-03-05T07:55:58.000Z</time>
      </trkpt>
      <trkpt lat="51.136336" lon="5.737689">
        <ele>32.108008</ele>
        <time>2023-03-05T07:55:59.000Z</time>
      </trkpt>
      <trkpt lat="51.136279" lon="5.737650">
        <ele>32.124671</ele>
        <time>2023-03-05T07:56:00.000Z</time>
      </trkpt>
      <trkpt lat="51.136221" lon="5.737611">
        <ele>32.141581</ele>
        <time>2023-03-05T07:56:01.000Z</time>
      </trkpt>
      <trkpt lat="51.136167" lon="5.737571">
        <ele>32.157577</ele>
        <time>2023-03-05T07:56:02.000Z</time>
      </trkpt>
      <trkpt lat="51.136112" lon="5.737530">
        <ele>32.173888</ele>
        <time>2023-03-05T07:56:03.000Z</time>
      </trkpt>
      <trkpt lat="51.136056" lon="5.737487">
        <ele>32.190586</ele>
        <time>2023-03-05T07:56:04.000Z</time>
      </trkpt>
      <trkpt lat="51.136000" lon="5.737446">
        <ele>32.207140</ele>
        <time>2023-03-05T07:56:05.000Z</time>
      </trkpt>
      <trkpt lat="51.135943" lon="5.737407">
        <ele>32.223803</ele>
        <time>2023-03-05T07:56:06.000Z</time>
      </trkpt>
      <trkpt lat="51.135886" lon="5.737366">
        <ele>32.240602</ele>
        <time>2023-03-05T07:56:07.000Z</time>
      </trkpt>
      <trkpt lat="51.135831" lon="5.737325">
        <ele>32.256913</ele>
        <time>2023-03-05T07:56:08.000Z</time>
      </trkpt>
      <trkpt lat="51.135775" lon="5.737286">
        <ele>32.273329</ele>
        <time>2023-03-05T07:56:09.000Z</time>
      </trkpt>
      <trkpt lat="51.135720" lon="5.737247">
        <ele>32.289500</ele>
        <time>2023-03-05T07:56:10.000Z</time>
      </trkpt>
      <trkpt lat="51.135667" lon="5.737208">
        <ele>32.305182</ele>
        <time>2023-03-05T07:56:11.000Z</time>
      </trkpt>
      <trkpt lat="51.135611" lon="5.737168">
        <ele>32.321666</ele>
        <time>2023-03-05T07:56:12.000Z</time>
      </trkpt>
      <trkpt lat="51.135559" lon="5.737129">
        <ele>32.337104</ele>
        <time>2023-03-05T07:56:13.000Z</time>
      </trkpt>
      <trkpt lat="51.135507" lon="5.737091">
        <ele>32.352471</ele>
        <time>2023-03-05T07:56:14.000Z</time>
      </trkpt>
      <trkpt lat="51.135454" lon="5.737056">
        <ele>32.367882</ele>
        <time>2023-03-05T07:56:15.000Z</time>
      </trkpt>
      <trkpt lat="51.135403" lon="5.737019">
        <ele>32.382935</ele>
        <time>2023-03-05T07:56:16.000Z</time>
      </trkpt>
      <trkpt lat="51.135353" lon="5.736982">
        <ele>32.397743</ele>
        <time>2023-03-05T07:56:17.000Z</time>
      </trkpt>
      <trkpt lat="51.135304" lon="5.736946">
        <ele>32.405160</ele>
        <time>2023-03-05T07:56:18.000Z</time>
      </trkpt>
      <trkpt lat="51.135254" lon="5.736910">
        <ele>32.410027</ele>
        <time>2023-03-05T07:56:19.000Z</time>
      </trkpt>
      <trkpt lat="51.135204" lon="5.736873">
        <ele>32.414917</ele>
        <time>2023-03-05T07:56:20.000Z</time>
      </trkpt>
      <trkpt lat="51.135154" lon="5.736838">
        <ele>32.419762</ele>
        <time>2023-03-05T07:56:21.000Z</time>
      </trkpt>
      <trkpt lat="51.135102" lon="5.736803">
        <ele>32.424770</ele>
        <time>2023-03-05T07:56:22.000Z</time>
      </trkpt>
      <trkpt lat="51.135051" lon="5.736770">
        <ele>32.429653</ele>
        <time>2023-03-05T07:56:23.000Z</time>
      </trkpt>
      <trkpt lat="51.135002" lon="5.736740">
        <ele>32.434310</ele>
        <time>2023-03-05T07:56:24.000Z</time>
      </trkpt>
      <trkpt lat="51.134952" lon="5.736711">
        <ele>32.439030</ele>
        <time>2023-03-05T07:56:25.000Z</time>
      </trkpt>
      <trkpt lat="51.134900" lon="5.736681">
        <ele>32.443936</ele>
        <time>2023-03-05T07:56:26.000Z</time>
      </trkpt>
      <trkpt lat="51.134849" lon="5.736649">
        <ele>32.448798</ele>
        <time>2023-03-05T07:56:27.000Z</time>
      </trkpt>
      <trkpt lat="51.134799" lon="5.736614">
        <ele>32.453643</ele>
        <time>2023-03-05T07:56:28.000Z</time>
      </trkpt>
      <trkpt lat="51.134750" lon="5.736582">
        <ele>32.458341</ele>
        <time>2023-03-05T07:56:29.000Z</time>
      </trkpt>
      <trkpt lat="51.134701" lon="5.736568">
        <ele>32.462757</ele>
        <time>2023-03-05T07:56:30.000Z</time>
      </trkpt>
      <trkpt lat="51.134658" lon="5.736583">
        <ele>32.466662</ele>
        <time>2023-03-05T07:56:31.000Z</time>
      </trkpt>
      <trkpt lat="51.134623" lon="5.736629">
        <ele>32.470687</ele>
        <time>2023-03-05T07:56:32.000Z</time>
      </trkpt>
      <trkpt lat="51.134593" lon="5.736699">
        <ele>32.475405</ele>
        <time>2023-03-05T07:56:33.000Z</time>
      </trkpt>
      <trkpt lat="51.134571" lon="5.736783">
        <ele>32.480472</ele>
        <time>2023-03-05T07:56:34.000Z</time>
      </trkpt>
      <trkpt lat="51.134549" lon="5.736872">
        <ele>32.485797</ele>
        <time>2023-03-05T07:56:35.000Z</time>
      </trkpt>
      <trkpt lat="51.134529" lon="5.736966">
        <ele>32.491323</ele>
        <time>2023-03-05T07:56:36.000Z</time>
      </trkpt>
      <trkpt lat="51.134509" lon="5.737064">
        <ele>32.497059</ele>
        <time>2023-03-05T07:56:37.000Z</time>
      </trkpt>
      <trkpt lat="51.134493" lon="5.737163">
        <ele>32.502750</ele>
        <time>2023-03-05T07:56:38.000Z</time>
      </trkpt>
      <trkpt lat="51.134478" lon="5.737263">
        <ele>32.508474</ele>
        <time>2023-03-05T07:56:39.000Z</time>
      </trkpt>
      <trkpt lat="51.134460" lon="5.737364">
        <ele>32.514318</ele>
        <time>2023-03-05T07:56:40.000Z</time>
      </trkpt>
      <trkpt lat="51.134446" lon="5.737464">
        <ele>32.520022</ele>
        <time>2023-03-05T07:56:41.000Z</time>
      </trkpt>
      <trkpt lat="51.134434" lon="5.737565">
        <ele>32.525744</ele>
        <time>2023-03-05T07:56:42.000Z</time>
      </trkpt>
      <trkpt lat="51.134423" lon="5.737667">
        <ele>32.531505</ele>
        <time>2023-03-05T07:56:43.000Z</time>
      </trkpt>
      <trkpt lat="51.134416" lon="5.737769">
        <ele>32.537217</ele>
        <time>2023-03-05T07:56:44.000Z</time>
      </trkpt>
      <trkpt lat="51.134410" lon="5.737873">
        <ele>32.543031</ele>
        <time>2023-03-05T07:56:45.000Z</time>
      </trkpt>
      <trkpt lat="51.134402" lon="5.737978">
        <ele>32.548919</ele>
        <time>2023-03-05T07:56:46.000Z</time>
      </trkpt>
      <trkpt lat="51.134397" lon="5.738084">
        <ele>32.554836</ele>
        <time>2023-03-05T07:56:47.000Z</time>
      </trkpt>
      <trkpt lat="51.134393" lon="5.738190">
        <ele>32.560748</ele>
        <time>2023-03-05T07:56:48.000Z</time>
      </trkpt>
      <trkpt lat="51.134392" lon="5.738293">
        <ele>32.541694</ele>
        <time>2023-03-05T07:56:49.000Z</time>
      </trkpt>
      <trkpt lat="51.134389" lon="5.738398">
        <ele>32.519917</ele>
        <time>2023-03-05T07:56:50.000Z</time>
      </trkpt>
      <trkpt lat="51.134386" lon="5.738501">
        <ele>32.498553</ele>
        <time>2023-03-05T07:56:51.000Z</time>
      </trkpt>
      <trkpt lat="51.134382" lon="5.738605">
        <ele>32.476964</ele>
        <time>2023-03-05T07:56:52.000Z</time>
      </trkpt>
      <trkpt lat="51.134378" lon="5.738708">
        <ele>32.455583</ele>
        <time>2023-03-05T07:56:53.000Z</time>
      </trkpt>
      <trkpt lat="51.134377" lon="5.738810">
        <ele>32.434447</ele>
        <time>2023-03-05T07:56:54.000Z</time>
      </trkpt>
      <trkpt lat="51.134374" lon="5.738916">
        <ele>32.412462</ele>
        <time>2023-03-05T07:56:55.000Z</time>
      </trkpt>
      <trkpt lat="51.134370" lon="5.739020">
        <ele>32.390873</ele>
        <time>2023-03-05T07:56:56.000Z</time>
      </trkpt>
      <trkpt lat="51.134369" lon="5.739123">
        <ele>32.369530</ele>
        <time>2023-03-05T07:56:57.000Z</time>
      </trkpt>
      <trkpt lat="51.134367" lon="5.739226">
        <ele>32.348179</ele>
        <time>2023-03-05T07:56:58.000Z</time>
      </trkpt>
      <trkpt lat="51.134365" lon="5.739333">
        <ele>32.326000</ele>
        <time>2023-03-05T07:56:59.000Z</time>
      </trkpt>
      <trkpt lat="51.134363" lon="5.739438">
        <ele>32.304234</ele>
        <time>2023-03-05T07:57:00.000Z</time>
      </trkpt>
      <trkpt lat="51.134361" lon="5.739540">
        <ele>32.283091</ele>
        <time>2023-03-05T07:57:01.000Z</time>
      </trkpt>
      <trkpt lat="51.134359" lon="5.739645">
        <ele>32.261325</ele>
        <time>2023-03-05T07:57:02.000Z</time>
      </trkpt>
      <trkpt lat="51.134353" lon="5.739750">
        <ele>32.239480</ele>
        <time>2023-03-05T07:57:03.000Z</time>
      </trkpt>
      <trkpt lat="51.134347" lon="5.739854">
        <ele>32.217841</ele>
        <time>2023-03-05T07:57:04.000Z</time>
      </trkpt>
      <trkpt lat="51.134344" lon="5.739956">
        <ele>32.196684</ele>
        <time>2023-03-05T07:57:05.000Z</time>
      </trkpt>
      <trkpt lat="51.134340" lon="5.740059">
        <ele>32.175303</ele>
        <time>2023-03-05T07:57:06.000Z</time>
      </trkpt>
      <trkpt lat="51.134336" lon="5.740164">
        <ele>32.153507</ele>
        <time>2023-03-05T07:57:07.000Z</time>
      </trkpt>
      <trkpt lat="51.134332" lon="5.740268">
        <ele>32.131919</ele>
        <time>2023-03-05T07:57:08.000Z</time>
      </trkpt>
      <trkpt lat="51.134328" lon="5.740371">
        <ele>32.110537</ele>
        <time>2023-03-05T07:57:09.000Z</time>
      </trkpt>
      <trkpt lat="51.134325" lon="5.740474">
        <ele>32.089174</ele>
        <time>2023-03-05T07:57:10.000Z</time>
      </trkpt>
      <trkpt lat="51.134321" lon="5.740574">
        <ele>32.068412</ele>
        <time>2023-03-05T07:57:11.000Z</time>
      </trkpt>
      <trkpt lat="51.134317" lon="5.740675">
        <ele>32.047444</ele>
        <time>2023-03-05T07:57:12.000Z</time>
      </trkpt>
      <trkpt lat="51.134313" lon="5.740776">
        <ele>32.026476</ele>
        <time>2023-03-05T07:57:13.000Z</time>
      </trkpt>
      <trkpt lat="51.134312" lon="5.740877">
        <ele>32.005547</ele>
        <time>2023-03-05T07:57:14.000Z</time>
      </trkpt>
      <trkpt lat="51.134312" lon="5.740977">
        <ele>31.984828</ele>
        <time>2023-03-05T07:57:15.000Z</time>
      </trkpt>
      <trkpt lat="51.134312" lon="5.741076">
        <ele>31.964467</ele>
        <time>2023-03-05T07:57:16.000Z</time>
      </trkpt>
      <trkpt lat="51.134316" lon="5.741174">
        <ele>31.945140</ele>
        <time>2023-03-05T07:57:17.000Z</time>
      </trkpt>
      <trkpt lat="51.134324" lon="5.741274">
        <ele>31.925300</ele>
        <time>2023-03-05T07:57:18.000Z</time>
      </trkpt>
      <trkpt lat="51.134336" lon="5.741373">
        <ele>31.905456</ele>
        <time>2023-03-05T07:57:19.000Z</time>
      </trkpt>
      <trkpt lat="51.134354" lon="5.741468">
        <ele>31.885926</ele>
        <time>2023-03-05T07:57:20.000Z</time>
      </trkpt>
      <trkpt lat="51.134373" lon="5.741561">
        <ele>31.866678</ele>
        <time>2023-03-05T07:57:21.000Z</time>
      </trkpt>
      <trkpt lat="51.134397" lon="5.741654">
        <ele>31.846888</ele>
        <time>2023-03-05T07:57:22.000Z</time>
      </trkpt>
      <trkpt lat="51.134426" lon="5.741746">
        <ele>31.826626</ele>
        <time>2023-03-05T07:57:23.000Z</time>
      </trkpt>
      <trkpt lat="51.134454" lon="5.741838">
        <ele>31.806503</ele>
        <time>2023-03-05T07:57:24.000Z</time>
      </trkpt>
      <trkpt lat="51.134483" lon="5.741929">
        <ele>31.786416</ele>
        <time>2023-03-05T07:57:25.000Z</time>
      </trkpt>
      <trkpt lat="51.134513" lon="5.742018">
        <ele>31.766534</ele>
        <time>2023-03-05T07:57:26.000Z</time>
      </trkpt>
      <trkpt lat="51.134544" lon="5.742112">
        <ele>31.745635</ele>
        <time>2023-03-05T07:57:27.000Z</time>
      </trkpt>
      <trkpt lat="51.134575" lon="5.742205">
        <ele>31.724910</ele>
        <time>2023-03-05T07:57:28.000Z</time>
      </trkpt>
      <trkpt lat="51.134605" lon="5.742295">
        <ele>31.704854</ele>
        <time>2023-03-05T07:57:29.000Z</time>
      </trkpt>
      <trkpt lat="51.134634" lon="5.742384">
        <ele>31.685118</ele>
        <time>2023-03-05T07:57:30.000Z</time>
      </trkpt>
      <trkpt lat="51.134665" lon="5.742470">
        <ele>31.665599</ele>
        <time>2023-03-05T07:57:31.000Z</time>
      </trkpt>
      <trkpt lat="51.134697" lon="5.742556">
        <ele>31.645922</ele>
        <time>2023-03-05T07:57:32.000Z</time>
      </trkpt>
      <trkpt lat="51.134730" lon="5.742644">
        <ele>31.625746</ele>
        <time>2023-03-05T07:57:33.000Z</time>
      </trkpt>
      <trkpt lat="51.134764" lon="5.742731">
        <ele>31.605575</ele>
        <time>2023-03-05T07:57:34.000Z</time>
      </trkpt>
      <trkpt lat="51.134801" lon="5.742817">
        <ele>31.585054</ele>
        <time>2023-03-05T07:57:35.000Z</time>
      </trkpt>
      <trkpt lat="51.134839" lon="5.742900">
        <ele>31.564834</ele>
        <time>2023-03-05T07:57:36.000Z</time>
      </trkpt>
      <trkpt lat="51.134880" lon="5.742984">
        <ele>31.543890</ele>
        <time>2023-03-05T07:57:37.000Z</time>
      </trkpt>
      <trkpt lat="51.134922" lon="5.743064">
        <ele>31.523362</ele>
        <time>2023-03-05T07:57:38.000Z</time>
      </trkpt>
      <trkpt lat="51.134963" lon="5.743142">
        <ele>31.503338</ele>
        <time>2023-03-05T07:57:39.000Z</time>
      </trkpt>
      <trkpt lat="51.135005" lon="5.743221">
        <ele>31.482960</ele>
        <time>2023-03-05T07:57:40.000Z</time>
      </trkpt>
      <trkpt lat="51.135048" lon="5.743301">
        <ele>31.462230</ele>
        <time>2023-03-05T07:57:41.000Z</time>
      </trkpt>
      <trkpt lat="51.135089" lon="5.743377">
        <ele>31.442505</ele>
        <time>2023-03-05T07:57:42.000Z</time>
      </trkpt>
      <trkpt lat="51.135131" lon="5.743453">
        <ele>31.422575</ele>
        <time>2023-03-05T07:57:43.000Z</time>
      </trkpt>
      <trkpt lat="51.135174" lon="5.743527">
        <ele>31.403289</ele>
        <time>2023-03-05T07:57:44.000Z</time>
      </trkpt>
      <trkpt lat="51.135217" lon="5.743597">
        <ele>31.405688</ele>
        <time>2023-03-05T07:57:45.000Z</time>
      </trkpt>
      <trkpt lat="51.135258" lon="5.743671">
        <ele>31.408105</ele>
        <time>2023-03-05T07:57:46.000Z</time>
      </trkpt>
      <trkpt lat="51.135294" lon="5.743749">
        <ele>31.410477</ele>
        <time>2023-03-05T07:57:47.000Z</time>
      </trkpt>
      <trkpt lat="51.135326" lon="5.743833">
        <ele>31.412883</ele>
        <time>2023-03-05T07:57:48.000Z</time>
      </trkpt>
      <trkpt lat="51.135354" lon="5.743924">
        <ele>31.415366</ele>
        <time>2023-03-05T07:57:49.000Z</time>
      </trkpt>
      <trkpt lat="51.135376" lon="5.744018">
        <ele>31.417823</ele>
        <time>2023-03-05T07:57:50.000Z</time>
      </trkpt>
      <trkpt lat="51.135393" lon="5.744117">
        <ele>31.420336</ele>
        <time>2023-03-05T07:57:51.000Z</time>
      </trkpt>
      <trkpt lat="51.135408" lon="5.744217">
        <ele>31.422854</ele>
        <time>2023-03-05T07:57:52.000Z</time>
      </trkpt>
      <trkpt lat="51.135416" lon="5.744320">
        <ele>31.425396</ele>
        <time>2023-03-05T07:57:53.000Z</time>
      </trkpt>
      <trkpt lat="51.135420" lon="5.744421">
        <ele>31.427875</ele>
        <time>2023-03-05T07:57:54.000Z</time>
      </trkpt>
      <trkpt lat="51.135419" lon="5.744522">
        <ele>31.430349</ele>
        <time>2023-03-05T07:57:55.000Z</time>
      </trkpt>
      <trkpt lat="51.135413" lon="5.744624">
        <ele>31.432858</ele>
        <time>2023-03-05T07:57:56.000Z</time>
      </trkpt>
      <trkpt lat="51.135408" lon="5.744730">
        <ele>31.435461</ele>
        <time>2023-03-05T07:57:57.000Z</time>
      </trkpt>
      <trkpt lat="51.135402" lon="5.744840">
        <ele>31.438165</ele>
        <time>2023-03-05T07:57:58.000Z</time>
      </trkpt>
      <trkpt lat="51.135396" lon="5.744948">
        <ele>31.440820</ele>
        <time>2023-03-05T07:57:59.000Z</time>
      </trkpt>
      <trkpt lat="51.135390" lon="5.745054">
        <ele>31.443427</ele>
        <time>2023-03-05T07:58:00.000Z</time>
      </trkpt>
      <trkpt lat="51.135383" lon="5.745163">
        <ele>31.446110</ele>
        <time>2023-03-05T07:58:01.000Z</time>
      </trkpt>
      <trkpt lat="51.135375" lon="5.745272">
        <ele>31.448798</ele>
        <time>2023-03-05T07:58:02.000Z</time>
      </trkpt>
      <trkpt lat="51.135370" lon="5.745376">
        <ele>31.451352</ele>
        <time>2023-03-05T07:58:03.000Z</time>
      </trkpt>
      <trkpt lat="51.135361" lon="5.745481">
        <ele>31.453948</ele>
        <time>2023-03-05T07:58:04.000Z</time>
      </trkpt>
      <trkpt lat="51.135355" lon="5.745586">
        <ele>31.456530</ele>
        <time>2023-03-05T07:58:05.000Z</time>
      </trkpt>
      <trkpt lat="51.135348" lon="5.745689">
        <ele>31.459067</ele>
        <time>2023-03-05T07:58:06.000Z</time>
      </trkpt>
      <trkpt lat="51.135343" lon="5.745793">
        <ele>31.461622</ele>
        <time>2023-03-05T07:58:07.000Z</time>
      </trkpt>
      <trkpt lat="51.135337" lon="5.745899">
        <ele>31.464228</ele>
        <time>2023-03-05T07:58:08.000Z</time>
      </trkpt>
      <trkpt lat="51.135329" lon="5.746003">
        <ele>31.466795</ele>
        <time>2023-03-05T07:58:09.000Z</time>
      </trkpt>
      <trkpt lat="51.135324" lon="5.746107">
        <ele>31.469349</ele>
        <time>2023-03-05T07:58:10.000Z</time>
      </trkpt>
      <trkpt lat="51.135318" lon="5.746208">
        <ele>31.471834</ele>
        <time>2023-03-05T07:58:11.000Z</time>
      </trkpt>
      <trkpt lat="51.135313" lon="5.746306">
        <ele>31.479121</ele>
        <time>2023-03-05T07:58:12.000Z</time>
      </trkpt>
      <trkpt lat="51.135311" lon="5.746405">
        <ele>31.496083</ele>
        <time>2023-03-05T07:58:13.000Z</time>
      </trkpt>
      <trkpt lat="51.135311" lon="5.746505">
        <ele>31.513208</ele>
        <time>2023-03-05T07:58:14.000Z</time>
      </trkpt>
      <trkpt lat="51.135311" lon="5.746603">
        <ele>31.529990</ele>
        <time>2023-03-05T07:58:15.000Z</time>
      </trkpt>
      <trkpt lat="51.135313" lon="5.746704">
        <ele>31.547295</ele>
        <time>2023-03-05T07:58:16.000Z</time>
      </trkpt>
      <trkpt lat="51.135315" lon="5.746805">
        <ele>31.564599</ele>
        <time>2023-03-05T07:58:17.000Z</time>
      </trkpt>
      <trkpt lat="51.135320" lon="5.746904">
        <ele>31.581608</ele>
        <time>2023-03-05T07:58:18.000Z</time>
      </trkpt>
      <trkpt lat="51.135327" lon="5.747004">
        <ele>31.598839</ele>
        <time>2023-03-05T07:58:19.000Z</time>
      </trkpt>
      <trkpt lat="51.135337" lon="5.747101">
        <ele>31.615673</ele>
        <time>2023-03-05T07:58:20.000Z</time>
      </trkpt>
      <trkpt lat="51.135349" lon="5.747195">
        <ele>31.632100</ele>
        <time>2023-03-05T07:58:21.000Z</time>
      </trkpt>
      <trkpt lat="51.135362" lon="5.747286">
        <ele>31.648082</ele>
        <time>2023-03-05T07:58:22.000Z</time>
      </trkpt>
      <trkpt lat="51.135375" lon="5.747379">
        <ele>31.664399</ele>
        <time>2023-03-05T07:58:23.000Z</time>
      </trkpt>
      <trkpt lat="51.135389" lon="5.747473">
        <ele>31.680943</ele>
        <time>2023-03-05T07:58:24.000Z</time>
      </trkpt>
      <trkpt lat="51.135404" lon="5.747565">
        <ele>31.697221</ele>
        <time>2023-03-05T07:58:25.000Z</time>
      </trkpt>
      <trkpt lat="51.135420" lon="5.747659">
        <ele>31.713900</ele>
        <time>2023-03-05T07:58:26.000Z</time>
      </trkpt>
      <trkpt lat="51.135433" lon="5.747752">
        <ele>31.730217</ele>
        <time>2023-03-05T07:58:27.000Z</time>
      </trkpt>
      <trkpt lat="51.135446" lon="5.747844">
        <ele>31.746366</ele>
        <time>2023-03-05T07:58:28.000Z</time>
      </trkpt>
      <trkpt lat="51.135462" lon="5.747935">
        <ele>31.762550</ele>
        <time>2023-03-05T07:58:29.000Z</time>
      </trkpt>
      <trkpt lat="51.135477" lon="5.748023">
        <ele>31.778166</ele>
        <time>2023-03-05T07:58:30.000Z</time>
      </trkpt>
      <trkpt lat="51.135490" lon="5.748108">
        <ele>31.793148</ele>
        <time>2023-03-05T07:58:31.000Z</time>
      </trkpt>
      <trkpt lat="51.135492" lon="5.748189">
        <ele>31.807030</ele>
        <time>2023-03-05T07:58:32.000Z</time>
      </trkpt>
      <trkpt lat="51.135481" lon="5.748267">
        <ele>31.820720</ele>
        <time>2023-03-05T07:58:33.000Z</time>
      </trkpt>
      <trkpt lat="51.135454" lon="5.748335">
        <ele>31.834501</ele>
        <time>2023-03-05T07:58:34.000Z</time>
      </trkpt>
      <trkpt lat="51.135413" lon="5.748387">
        <ele>31.848801</ele>
        <time>2023-03-05T07:58:35.000Z</time>
      </trkpt>
      <trkpt lat="51.135362" lon="5.748423">
        <ele>31.864024</ele>
        <time>2023-03-05T07:58:36.000Z</time>
      </trkpt>
      <trkpt lat="51.135304" lon="5.748450">
        <ele>31.880514</ele>
        <time>2023-03-05T07:58:37.000Z</time>
      </trkpt>
      <trkpt lat="51.135243" lon="5.748477">
        <ele>31.897792</ele>
        <time>2023-03-05T07:58:38.000Z</time>
      </trkpt>
      <trkpt lat="51.135179" lon="5.748506">
        <ele>31.915951</ele>
        <time>2023-03-05T07:58:39.000Z</time>
      </trkpt>
      <trkpt lat="51.135117" lon="5.748533">
        <ele>31.933492</ele>
        <time>2023-03-05T07:58:40.000Z</time>
      </trkpt>
      <trkpt lat="51.135058" lon="5.748561">
        <ele>31.950293</ele>
        <time>2023-03-05T07:58:41.000Z</time>
      </trkpt>
      <trkpt lat="51.135004" lon="5.748588">
        <ele>31.963919</ele>
        <time>2023-03-05T07:58:42.000Z</time>
      </trkpt>
      <trkpt lat="51.134953" lon="5.748618">
        <ele>31.959978</ele>
        <time>2023-03-05T07:58:43.000Z</time>
      </trkpt>
      <trkpt lat="51.134907" lon="5.748661">
        <ele>31.956112</ele>
        <time>2023-03-05T07:58:44.000Z</time>
      </trkpt>
      <trkpt lat="51.134878" lon="5.748724">
        <ele>31.952558</ele>
        <time>2023-03-05T07:58:45.000Z</time>
      </trkpt>
      <trkpt lat="51.134866" lon="5.748804">
        <ele>31.948816</ele>
        <time>2023-03-05T07:58:46.000Z</time>
      </trkpt>
      <trkpt lat="51.134867" lon="5.748893">
        <ele>31.944767</ele>
        <time>2023-03-05T07:58:47.000Z</time>
      </trkpt>
      <trkpt lat="51.134876" lon="5.748986">
        <ele>31.940487</ele>
        <time>2023-03-05T07:58:48.000Z</time>
      </trkpt>
      <trkpt lat="51.134890" lon="5.749081">
        <ele>31.936048</ele>
        <time>2023-03-05T07:58:49.000Z</time>
      </trkpt>
      <trkpt lat="51.134905" lon="5.749177">
        <ele>31.931548</ele>
        <time>2023-03-05T07:58:50.000Z</time>
      </trkpt>
      <trkpt lat="51.134920" lon="5.749273">
        <ele>31.927047</ele>
        <time>2023-03-05T07:58:51.000Z</time>
      </trkpt>
      <trkpt lat="51.134935" lon="5.749368">
        <ele>31.922591</ele>
        <time>2023-03-05T07:58:52.000Z</time>
      </trkpt>
      <trkpt lat="51.134950" lon="5.749463">
        <ele>31.918135</ele>
        <time>2023-03-05T07:58:53.000Z</time>
      </trkpt>
      <trkpt lat="51.134966" lon="5.749561">
        <ele>31.913529</ele>
        <time>2023-03-05T07:58:54.000Z</time>
      </trkpt>
      <trkpt lat="51.134979" lon="5.749661">
        <ele>31.908884</ele>
        <time>2023-03-05T07:58:55.000Z</time>
      </trkpt>
      <trkpt lat="51.134988" lon="5.749762">
        <ele>31.904243</ele>
        <time>2023-03-05T07:58:56.000Z</time>
      </trkpt>
      <trkpt lat="51.135000" lon="5.749862">
        <ele>31.899612</ele>
        <time>2023-03-05T07:58:57.000Z</time>
      </trkpt>
      <trkpt lat="51.135015" lon="5.749961">
        <ele>31.894979</ele>
        <time>2023-03-05T07:58:58.000Z</time>
      </trkpt>
      <trkpt lat="51.135031" lon="5.750060">
        <ele>31.890329</ele>
        <time>2023-03-05T07:58:59.000Z</time>
      </trkpt>
      <trkpt lat="51.135044" lon="5.750161">
        <ele>31.885639</ele>
        <time>2023-03-05T07:59:00.000Z</time>
      </trkpt>
      <trkpt lat="51.135057" lon="5.750260">
        <ele>31.881038</ele>
        <time>2023-03-05T07:59:01.000Z</time>
      </trkpt>
      <trkpt lat="51.135072" lon="5.750358">
        <ele>31.876450</ele>
        <time>2023-03-05T07:59:02.000Z</time>
      </trkpt>
      <trkpt lat="51.135088" lon="5.750457">
        <ele>31.871799</ele>
        <time>2023-03-05T07:59:03.000Z</time>
      </trkpt>
      <trkpt lat="51.135103" lon="5.750556">
        <ele>31.867167</ele>
        <time>2023-03-05T07:59:04.000Z</time>
      </trkpt>
      <trkpt lat="51.135116" lon="5.750652">
        <ele>31.862699</ele>
        <time>2023-03-05T07:59:05.000Z</time>
      </trkpt>
      <trkpt lat="51.135130" lon="5.750747">
        <ele>31.858260</ele>
        <time>2023-03-05T07:59:06.000Z</time>
      </trkpt>
      <trkpt lat="51.135145" lon="5.750843">
        <ele>31.853760</ele>
        <time>2023-03-05T07:59:07.000Z</time>
      </trkpt>
      <trkpt lat="51.135160" lon="5.750939">
        <ele>31.849260</ele>
        <time>2023-03-05T07:59:08.000Z</time>
      </trkpt>
      <trkpt lat="51.135176" lon="5.751035">
        <ele>31.844742</ele>
        <time>2023-03-05T07:59:09.000Z</time>
      </trkpt>
      <trkpt lat="51.135191" lon="5.751132">
        <ele>31.840197</ele>
        <time>2023-03-05T07:59:10.000Z</time>
      </trkpt>
      <trkpt lat="51.135206" lon="5.751229">
        <ele>31.835653</ele>
        <time>2023-03-05T07:59:11.000Z</time>
      </trkpt>
      <trkpt lat="51.135221" lon="5.751327">
        <ele>31.810599</ele>
        <time>2023-03-05T07:59:12.000Z</time>
      </trkpt>
      <trkpt lat="51.135237" lon="5.751426">
        <ele>31.772536</ele>
        <time>2023-03-05T07:59:13.000Z</time>
      </trkpt>
      <trkpt lat="51.135252" lon="5.751525">
        <ele>31.734617</ele>
        <time>2023-03-05T07:59:14.000Z</time>
      </trkpt>
      <trkpt lat="51.135267" lon="5.751624">
        <ele>31.696698</ele>
        <time>2023-03-05T07:59:15.000Z</time>
      </trkpt>
      <trkpt lat="51.135282" lon="5.751723">
        <ele>31.658779</ele>
        <time>2023-03-05T07:59:16.000Z</time>
      </trkpt>
      <trkpt lat="51.135297" lon="5.751824">
        <ele>31.620136</ele>
        <time>2023-03-05T07:59:17.000Z</time>
      </trkpt>
      <trkpt lat="51.135313" lon="5.751923">
        <ele>31.582074</ele>
        <time>2023-03-05T07:59:18.000Z</time>
      </trkpt>
      <trkpt lat="51.135328" lon="5.752022">
        <ele>31.544155</ele>
        <time>2023-03-05T07:59:19.000Z</time>
      </trkpt>
      <trkpt lat="51.135343" lon="5.752119">
        <ele>31.506960</ele>
        <time>2023-03-05T07:59:20.000Z</time>
      </trkpt>
      <trkpt lat="51.135356" lon="5.752215">
        <ele>31.470394</ele>
        <time>2023-03-05T07:59:21.000Z</time>
      </trkpt>
      <trkpt lat="51.135370" lon="5.752310">
        <ele>31.434062</ele>
        <time>2023-03-05T07:59:22.000Z</time>
      </trkpt>
      <trkpt lat="51.135388" lon="5.752403">
        <ele>31.397826</ele>
        <time>2023-03-05T07:59:23.000Z</time>
      </trkpt>
      <trkpt lat="51.135402" lon="5.752494">
        <ele>31.362942</ele>
        <time>2023-03-05T07:59:24.000Z</time>
      </trkpt>
      <trkpt lat="51.135416" lon="5.752584">
        <ele>31.328419</ele>
        <time>2023-03-05T07:59:25.000Z</time>
      </trkpt>
      <trkpt lat="51.135431" lon="5.752674">
        <ele>31.293748</ele>
        <time>2023-03-05T07:59:26.000Z</time>
      </trkpt>
      <trkpt lat="51.135447" lon="5.752765">
        <ele>31.258563</ele>
        <time>2023-03-05T07:59:27.000Z</time>
      </trkpt>
      <trkpt lat="51.135462" lon="5.752857">
        <ele>31.223172</ele>
        <time>2023-03-05T07:59:28.000Z</time>
      </trkpt>
      <trkpt lat="51.135477" lon="5.752950">
        <ele>31.187421</ele>
        <time>2023-03-05T07:59:29.000Z</time>
      </trkpt>
      <trkpt lat="51.135492" lon="5.753045">
        <ele>31.150948</ele>
        <time>2023-03-05T07:59:30.000Z</time>
      </trkpt>
      <trkpt lat="51.135505" lon="5.753143">
        <ele>31.113655</ele>
        <time>2023-03-05T07:59:31.000Z</time>
      </trkpt>
      <trkpt lat="51.135521" lon="5.753240">
        <ele>31.076313</ele>
        <time>2023-03-05T07:59:32.000Z</time>
      </trkpt>
      <trkpt lat="51.135536" lon="5.753337">
        <ele>31.039118</ele>
        <time>2023-03-05T07:59:33.000Z</time>
      </trkpt>
      <trkpt lat="51.135550" lon="5.753433">
        <ele>31.002423</ele>
        <time>2023-03-05T07:59:34.000Z</time>
      </trkpt>
      <trkpt lat="51.135565" lon="5.753525">
        <ele>30.967032</ele>
        <time>2023-03-05T07:59:35.000Z</time>
      </trkpt>
      <trkpt lat="51.135580" lon="5.753610">
        <ele>30.934158</ele>
        <time>2023-03-05T07:59:36.000Z</time>
      </trkpt>
      <trkpt lat="51.135600" lon="5.753689">
        <ele>30.902441</ele>
        <time>2023-03-05T07:59:37.000Z</time>
      </trkpt>
      <trkpt lat="51.135627" lon="5.753758">
        <ele>30.872165</ele>
        <time>2023-03-05T07:59:38.000Z</time>
      </trkpt>
      <trkpt lat="51.135662" lon="5.753804">
        <ele>30.845247</ele>
        <time>2023-03-05T07:59:39.000Z</time>
      </trkpt>
      <trkpt lat="51.135708" lon="5.753817">
        <ele>30.817527</ele>
        <time>2023-03-05T07:59:40.000Z</time>
      </trkpt>
      <trkpt lat="51.135763" lon="5.753806">
        <ele>30.784636</ele>
        <time>2023-03-05T07:59:41.000Z</time>
      </trkpt>
      <trkpt lat="51.135820" lon="5.753781">
        <ele>30.774365</ele>
        <time>2023-03-05T07:59:42.000Z</time>
      </trkpt>
      <trkpt lat="51.135877" lon="5.753748">
        <ele>30.790501</ele>
        <time>2023-03-05T07:59:43.000Z</time>
      </trkpt>
      <trkpt lat="51.135932" lon="5.753711">
        <ele>30.806386</ele>
        <time>2023-03-05T07:59:44.000Z</time>
      </trkpt>
      <trkpt lat="51.135983" lon="5.753673">
        <ele>30.821365</ele>
        <time>2023-03-05T07:59:45.000Z</time>
      </trkpt>
      <trkpt lat="51.136035" lon="5.753638">
        <ele>30.836385</ele>
        <time>2023-03-05T07:59:46.000Z</time>
      </trkpt>
      <trkpt lat="51.136086" lon="5.753615">
        <ele>30.850488</ele>
        <time>2023-03-05T07:59:47.000Z</time>
      </trkpt>
      <trkpt lat="51.136131" lon="5.753614">
        <ele>30.862462</ele>
        <time>2023-03-05T07:59:48.000Z</time>
      </trkpt>
      <trkpt lat="51.136170" lon="5.753641">
        <ele>30.873776</ele>
        <time>2023-03-05T07:59:49.000Z</time>
      </trkpt>
      <trkpt lat="51.136196" lon="5.753702">
        <ele>30.886088</ele>
        <time>2023-03-05T07:59:50.000Z</time>
      </trkpt>
      <trkpt lat="51.136213" lon="5.753786">
        <ele>30.900824</ele>
        <time>2023-03-05T07:59:51.000Z</time>
      </trkpt>
      <trkpt lat="51.136226" lon="5.753878">
        <ele>30.916569</ele>
        <time>2023-03-05T07:59:52.000Z</time>
      </trkpt>
      <trkpt lat="51.136237" lon="5.753975">
        <ele>30.933026</ele>
        <time>2023-03-05T07:59:53.000Z</time>
      </trkpt>
      <trkpt lat="51.136247" lon="5.754079">
        <ele>30.950592</ele>
        <time>2023-03-05T07:59:54.000Z</time>
      </trkpt>
      <trkpt lat="51.136254" lon="5.754183">
        <ele>30.968055</ele>
        <time>2023-03-05T07:59:55.000Z</time>
      </trkpt>
      <trkpt lat="51.136262" lon="5.754282">
        <ele>30.984720</ele>
        <time>2023-03-05T07:59:56.000Z</time>
      </trkpt>
      <trkpt lat="51.136274" lon="5.754379">
        <ele>31.001227</ele>
        <time>2023-03-05T07:59:57.000Z</time>
      </trkpt>
      <trkpt lat="51.136285" lon="5.754477">
        <ele>31.017848</ele>
        <time>2023-03-05T07:59:58.000Z</time>
      </trkpt>
      <trkpt lat="51.136295" lon="5.754575">
        <ele>31.034425</ele>
        <time>2023-03-05T07:59:59.000Z</time>
      </trkpt>
      <trkpt lat="51.136306" lon="5.754670">
        <ele>31.050553</ele>
        <time>2023-03-05T08:00:00.000Z</time>
      </trkpt>
      <trkpt lat="51.136315" lon="5.754766">
        <ele>31.066759</ele>
        <time>2023-03-05T08:00:01.000Z</time>
      </trkpt>
      <trkpt lat="51.136325" lon="5.754858">
        <ele>31.082348</ele>
        <time>2023-03-05T08:00:02.000Z</time>
      </trkpt>
      <trkpt lat="51.136334" lon="5.754949">
        <ele>31.097728</ele>
        <time>2023-03-05T08:00:03.000Z</time>
      </trkpt>
      <trkpt lat="51.136344" lon="5.755037">
        <ele>31.112659</ele>
        <time>2023-03-05T08:00:04.000Z</time>
      </trkpt>
      <trkpt lat="51.136356" lon="5.755127">
        <ele>31.128021</ele>
        <time>2023-03-05T08:00:05.000Z</time>
      </trkpt>
      <trkpt lat="51.136365" lon="5.755222">
        <ele>31.144062</ele>
        <time>2023-03-05T08:00:06.000Z</time>
      </trkpt>
      <trkpt lat="51.136375" lon="5.755316">
        <ele>31.159979</ele>
        <time>2023-03-05T08:00:07.000Z</time>
      </trkpt>
      <trkpt lat="51.136386" lon="5.755404">
        <ele>31.174960</ele>
        <time>2023-03-05T08:00:08.000Z</time>
      </trkpt>
      <trkpt lat="51.136391" lon="5.755485">
        <ele>31.188549</ele>
        <time>2023-03-05T08:00:09.000Z</time>
      </trkpt>
      <trkpt lat="51.136379" lon="5.755559">
        <ele>31.201310</ele>
        <time>2023-03-05T08:00:10.000Z</time>
      </trkpt>
      <trkpt lat="51.136351" lon="5.755627">
        <ele>31.214889</ele>
        <time>2023-03-05T08:00:11.000Z</time>
      </trkpt>
      <trkpt lat="51.136312" lon="5.755691">
        <ele>31.229784</ele>
        <time>2023-03-05T08:00:12.000Z</time>
      </trkpt>
      <trkpt lat="51.136268" lon="5.755755">
        <ele>31.244974</ele>
        <time>2023-03-05T08:00:13.000Z</time>
      </trkpt>
      <trkpt lat="51.136219" lon="5.755826">
        <ele>31.231089</ele>
        <time>2023-03-05T08:00:14.000Z</time>
      </trkpt>
      <trkpt lat="51.136169" lon="5.755898">
        <ele>31.216961</ele>
        <time>2023-03-05T08:00:15.000Z</time>
      </trkpt>
      <trkpt lat="51.136122" lon="5.755970">
        <ele>31.203293</ele>
        <time>2023-03-05T08:00:16.000Z</time>
      </trkpt>
      <trkpt lat="51.136074" lon="5.756040">
        <ele>31.189652</ele>
        <time>2023-03-05T08:00:17.000Z</time>
      </trkpt>
      <trkpt lat="51.136027" lon="5.756110">
        <ele>31.176165</ele>
        <time>2023-03-05T08:00:18.000Z</time>
      </trkpt>
      <trkpt lat="51.135981" lon="5.756181">
        <ele>31.162739</ele>
        <time>2023-03-05T08:00:19.000Z</time>
      </trkpt>
      <trkpt lat="51.135935" lon="5.756253">
        <ele>31.149221</ele>
        <time>2023-03-05T08:00:20.000Z</time>
      </trkpt>
      <trkpt lat="51.135890" lon="5.756322">
        <ele>31.136129</ele>
        <time>2023-03-05T08:00:21.000Z</time>
      </trkpt>
      <trkpt lat="51.135842" lon="5.756390">
        <ele>31.122664</ele>
        <time>2023-03-05T08:00:22.000Z</time>
      </trkpt>
      <trkpt lat="51.135792" lon="5.756461">
        <ele>31.108624</ele>
        <time>2023-03-05T08:00:23.000Z</time>
      </trkpt>
      <trkpt lat="51.135743" lon="5.756531">
        <ele>31.094827</ele>
        <time>2023-03-05T08:00:24.000Z</time>
      </trkpt>
      <trkpt lat="51.135695" lon="5.756601">
        <ele>31.081186</ele>
        <time>2023-03-05T08:00:25.000Z</time>
      </trkpt>
      <trkpt lat="51.135647" lon="5.756671">
        <ele>31.067545</ele>
        <time>2023-03-05T08:00:26.000Z</time>
      </trkpt>
      <trkpt lat="51.135600" lon="5.756743">
        <ele>31.053877</ele>
        <time>2023-03-05T08:00:27.000Z</time>
      </trkpt>
      <trkpt lat="51.135551" lon="5.756816">
        <ele>31.039814</ele>
        <time>2023-03-05T08:00:28.000Z</time>
      </trkpt>
      <trkpt lat="51.135504" lon="5.756887">
        <ele>31.026237</ele>
        <time>2023-03-05T08:00:29.000Z</time>
      </trkpt>
      <trkpt lat="51.135458" lon="5.756957">
        <ele>31.012902</ele>
        <time>2023-03-05T08:00:30.000Z</time>
      </trkpt>
      <trkpt lat="51.135410" lon="5.757026">
        <ele>30.999349</ele>
        <time>2023-03-05T08:00:31.000Z</time>
      </trkpt>
      <trkpt lat="51.135362" lon="5.757095">
        <ele>30.985797</ele>
        <time>2023-03-05T08:00:32.000Z</time>
      </trkpt>
      <trkpt lat="51.135314" lon="5.757167">
        <ele>30.971976</ele>
        <time>2023-03-05T08:00:33.000Z</time>
      </trkpt>
      <trkpt lat="51.135265" lon="5.757239">
        <ele>30.958003</ele>
        <time>2023-03-05T08:00:34.000Z</time>
      </trkpt>
      <trkpt lat="51.135218" lon="5.757311">
        <ele>30.944335</ele>
        <time>2023-03-05T08:00:35.000Z</time>
      </trkpt>
      <trkpt lat="51.135172" lon="5.757383">
        <ele>30.930817</ele>
        <time>2023-03-05T08:00:36.000Z</time>
      </trkpt>
      <trkpt lat="51.135124" lon="5.757452">
        <ele>30.917264</ele>
        <time>2023-03-05T08:00:37.000Z</time>
      </trkpt>
      <trkpt lat="51.135074" lon="5.757520">
        <ele>30.903483</ele>
        <time>2023-03-05T08:00:38.000Z</time>
      </trkpt>
      <trkpt lat="51.135025" lon="5.757584">
        <ele>30.890200</ele>
        <time>2023-03-05T08:00:39.000Z</time>
      </trkpt>
      <trkpt lat="51.134974" lon="5.757647">
        <ele>30.876672</ele>
        <time>2023-03-05T08:00:40.000Z</time>
      </trkpt>
      <trkpt lat="51.134921" lon="5.757707">
        <ele>30.866349</ele>
        <time>2023-03-05T08:00:41.000Z</time>
      </trkpt>
      <trkpt lat="51.134867" lon="5.757767">
        <ele>30.861456</ele>
        <time>2023-03-05T08:00:42.000Z</time>
      </trkpt>
      <trkpt lat="51.134811" lon="5.757825">
        <ele>30.856491</ele>
        <time>2023-03-05T08:00:43.000Z</time>
      </trkpt>
      <trkpt lat="51.134753" lon="5.757878">
        <ele>30.851521</ele>
        <time>2023-03-05T08:00:44.000Z</time>
      </trkpt>
      <trkpt lat="51.134696" lon="5.757928">
        <ele>30.846684</ele>
        <time>2023-03-05T08:00:45.000Z</time>
      </trkpt>
      <trkpt lat="51.134639" lon="5.757975">
        <ele>30.841913</ele>
        <time>2023-03-05T08:00:46.000Z</time>
      </trkpt>
      <trkpt lat="51.134579" lon="5.758021">
        <ele>30.836964</ele>
        <time>2023-03-05T08:00:47.000Z</time>
      </trkpt>
      <trkpt lat="51.134518" lon="5.758066">
        <ele>30.831967</ele>
        <time>2023-03-05T08:00:48.000Z</time>
      </trkpt>
      <trkpt lat="51.134460" lon="5.758107">
        <ele>30.827251</ele>
        <time>2023-03-05T08:00:49.000Z</time>
      </trkpt>
      <trkpt lat="51.134399" lon="5.758149">
        <ele>30.822311</ele>
        <time>2023-03-05T08:00:50.000Z</time>
      </trkpt>
      <trkpt lat="51.134340" lon="5.758191">
        <ele>30.817507</ele>
        <time>2023-03-05T08:00:51.000Z</time>
      </trkpt>
      <trkpt lat="51.134283" lon="5.758230">
        <ele>30.812896</ele>
        <time>2023-03-05T08:00:52.000Z</time>
      </trkpt>
      <trkpt lat="51.134225" lon="5.758267">
        <ele>30.808252</ele>
        <time>2023-03-05T08:00:53.000Z</time>
      </trkpt>
      <trkpt lat="51.134171" lon="5.758303">
        <ele>30.803901</ele>
        <time>2023-03-05T08:00:54.000Z</time>
      </trkpt>
      <trkpt lat="51.134120" lon="5.758339">
        <ele>30.799754</ele>
        <time>2023-03-05T08:00:55.000Z</time>
      </trkpt>
      <trkpt lat="51.134068" lon="5.758374">
        <ele>30.795558</ele>
        <time>2023-03-05T08:00:56.000Z</time>
      </trkpt>
      <trkpt lat="51.134017" lon="5.758409">
        <ele>30.791431</ele>
        <time>2023-03-05T08:00:57.000Z</time>
      </trkpt>
      <trkpt lat="51.133969" lon="5.758441">
        <ele>30.787563</ele>
        <time>2023-03-05T08:00:58.000Z</time>
      </trkpt>
      <trkpt lat="51.133924" lon="5.758462">
        <ele>30.784077</ele>
        <time>2023-03-05T08:00:59.000Z</time>
      </trkpt>
      <trkpt lat="51.133881" lon="5.758456">
        <ele>30.780869</ele>
        <time>2023-03-05T08:01:00.000Z</time>
      </trkpt>
      <trkpt lat="51.133841" lon="5.758416">
        <ele>30.777358</ele>
        <time>2023-03-05T08:01:01.000Z</time>
      </trkpt>
      <trkpt lat="51.133799" lon="5.758356">
        <ele>30.773165</ele>
        <time>2023-03-05T08:01:02.000Z</time>
      </trkpt>
      <trkpt lat="51.133753" lon="5.758291">
        <ele>30.768595</ele>
        <time>2023-03-05T08:01:03.000Z</time>
      </trkpt>
      <trkpt lat="51.133705" lon="5.758227">
        <ele>30.763943</ele>
        <time>2023-03-05T08:01:04.000Z</time>
      </trkpt>
      <trkpt lat="51.133655" lon="5.758166">
        <ele>30.759262</ele>
        <time>2023-03-05T08:01:05.000Z</time>
      </trkpt>
      <trkpt lat="51.133606" lon="5.758105">
        <ele>30.754640</ele>
        <time>2023-03-05T08:01:06.000Z</time>
      </trkpt>
      <trkpt lat="51.133554" lon="5.758043">
        <ele>30.749812</ele>
        <time>2023-03-05T08:01:07.000Z</time>
      </trkpt>
      <trkpt lat="51.133501" lon="5.757982">
        <ele>30.744952</ele>
        <time>2023-03-05T08:01:08.000Z</time>
      </trkpt>
      <trkpt lat="51.133450" lon="5.757921">
        <ele>30.740212</ele>
        <time>2023-03-05T08:01:09.000Z</time>
      </trkpt>
      <trkpt lat="51.133397" lon="5.757858">
        <ele>30.735297</ele>
        <time>2023-03-05T08:01:10.000Z</time>
      </trkpt>
      <trkpt lat="51.133346" lon="5.757795">
        <ele>30.732783</ele>
        <time>2023-03-05T08:01:11.000Z</time>
      </trkpt>
      <trkpt lat="51.133294" lon="5.757734">
        <ele>30.730749</ele>
        <time>2023-03-05T08:01:12.000Z</time>
      </trkpt>
      <trkpt lat="51.133243" lon="5.757674">
        <ele>30.728753</ele>
        <time>2023-03-05T08:01:13.000Z</time>
      </trkpt>
      <trkpt lat="51.133191" lon="5.757615">
        <ele>30.726742</ele>
        <time>2023-03-05T08:01:14.000Z</time>
      </trkpt>
      <trkpt lat="51.133139" lon="5.757555">
        <ele>30.724721</ele>
        <time>2023-03-05T08:01:15.000Z</time>
      </trkpt>
      <trkpt lat="51.133087" lon="5.757492">
        <ele>30.722663</ele>
        <time>2023-03-05T08:01:16.000Z</time>
      </trkpt>
      <trkpt lat="51.133037" lon="5.757431">
        <ele>30.720680</ele>
        <time>2023-03-05T08:01:17.000Z</time>
      </trkpt>
      <trkpt lat="51.132985" lon="5.757371">
        <ele>30.718658</ele>
        <time>2023-03-05T08:01:18.000Z</time>
      </trkpt>
      <trkpt lat="51.132934" lon="5.757313">
        <ele>30.716685</ele>
        <time>2023-03-05T08:01:19.000Z</time>
      </trkpt>
      <trkpt lat="51.132884" lon="5.757255">
        <ele>30.714737</ele>
        <time>2023-03-05T08:01:20.000Z</time>
      </trkpt>
      <trkpt lat="51.132835" lon="5.757196">
        <ele>30.712803</ele>
        <time>2023-03-05T08:01:21.000Z</time>
      </trkpt>
      <trkpt lat="51.132785" lon="5.757136">
        <ele>30.710831</ele>
        <time>2023-03-05T08:01:22.000Z</time>
      </trkpt>
      <trkpt lat="51.132736" lon="5.757076">
        <ele>30.708885</ele>
        <time>2023-03-05T08:01:23.000Z</time>
      </trkpt>
      <trkpt lat="51.132686" lon="5.757017">
        <ele>30.706926</ele>
        <time>2023-03-05T08:01:24.000Z</time>
      </trkpt>
      <trkpt lat="51.132637" lon="5.756959">
        <ele>30.705003</ele>
        <time>2023-03-05T08:01:25.000Z</time>
      </trkpt>
      <trkpt lat="51.132585" lon="5.756902">
        <ele>30.703016</ele>
        <time>2023-03-05T08:01:26.000Z</time>
      </trkpt>
      <trkpt lat="51.132534" lon="5.756852">
        <ele>30.701130</ele>
        <time>2023-03-05T08:01:27.000Z</time>
      </trkpt>
      <trkpt lat="51.132483" lon="5.756808">
        <ele>30.699303</ele>
        <time>2023-03-05T08:01:28.000Z</time>
      </trkpt>
      <trkpt lat="51.132431" lon="5.756764">
        <ele>30.697449</ele>
        <time>2023-03-05T08:01:29.000Z</time>
      </trkpt>
      <trkpt lat="51.132379" lon="5.756720">
        <ele>30.695595</ele>
        <time>2023-03-05T08:01:30.000Z</time>
      </trkpt>
      <trkpt lat="51.132322" lon="5.756678">
        <ele>30.693617</ele>
        <time>2023-03-05T08:01:31.000Z</time>
      </trkpt>
      <trkpt lat="51.132265" lon="5.756639">
        <ele>30.691663</ele>
        <time>2023-03-05T08:01:32.000Z</time>
      </trkpt>
      <trkpt lat="51.132208" lon="5.756605">
        <ele>30.689746</ele>
        <time>2023-03-05T08:01:33.000Z</time>
      </trkpt>
      <trkpt lat="51.132151" lon="5.756577">
        <ele>30.687868</ele>
        <time>2023-03-05T08:01:34.000Z</time>
      </trkpt>
      <trkpt lat="51.132092" lon="5.756551">
        <ele>30.685940</ele>
        <time>2023-03-05T08:01:35.000Z</time>
      </trkpt>
      <trkpt lat="51.132031" lon="5.756525">
        <ele>30.683951</ele>
        <time>2023-03-05T08:01:36.000Z</time>
      </trkpt>
      <trkpt lat="51.131968" lon="5.756500">
        <ele>30.681906</ele>
        <time>2023-03-05T08:01:37.000Z</time>
      </trkpt>
      <trkpt lat="51.131905" lon="5.756477">
        <ele>30.679871</ele>
        <time>2023-03-05T08:01:38.000Z</time>
      </trkpt>
      <trkpt lat="51.131841" lon="5.756455">
        <ele>30.677813</ele>
        <time>2023-03-05T08:01:39.000Z</time>
      </trkpt>
      <trkpt lat="51.131778" lon="5.756434">
        <ele>30.677652</ele>
        <time>2023-03-05T08:01:40.000Z</time>
      </trkpt>
      <trkpt lat="51.131717" lon="5.756415">
        <ele>30.677497</ele>
        <time>2023-03-05T08:01:41.000Z</time>
      </trkpt>
      <trkpt lat="51.131657" lon="5.756398">
        <ele>30.677344</ele>
        <time>2023-03-05T08:01:42.000Z</time>
      </trkpt>
      <trkpt lat="51.131594" lon="5.756380">
        <ele>30.677184</ele>
        <time>2023-03-05T08:01:43.000Z</time>
      </trkpt>
      <trkpt lat="51.131531" lon="5.756361">
        <ele>30.677024</ele>
        <time>2023-03-05T08:01:44.000Z</time>
      </trkpt>
      <trkpt lat="51.131469" lon="5.756341">
        <ele>30.676866</ele>
        <time>2023-03-05T08:01:45.000Z</time>
      </trkpt>
      <trkpt lat="51.131406" lon="5.756322">
        <ele>30.676705</ele>
        <time>2023-03-05T08:01:46.000Z</time>
      </trkpt>
      <trkpt lat="51.131344" lon="5.756304">
        <ele>30.676548</ele>
        <time>2023-03-05T08:01:47.000Z</time>
      </trkpt>
      <trkpt lat="51.131281" lon="5.756286">
        <ele>30.676388</ele>
        <time>2023-03-05T08:01:48.000Z</time>
      </trkpt>
      <trkpt lat="51.131218" lon="5.756269">
        <ele>30.676228</ele>
        <time>2023-03-05T08:01:49.000Z</time>
      </trkpt>
      <trkpt lat="51.131155" lon="5.756252">
        <ele>30.676068</ele>
        <time>2023-03-05T08:01:50.000Z</time>
      </trkpt>
      <trkpt lat="51.131091" lon="5.756235">
        <ele>30.675906</ele>
        <time>2023-03-05T08:01:51.000Z</time>
      </trkpt>
      <trkpt lat="51.131028" lon="5.756219">
        <ele>30.675746</ele>
        <time>2023-03-05T08:01:52.000Z</time>
      </trkpt>
      <trkpt lat="51.130965" lon="5.756204">
        <ele>30.675587</ele>
        <time>2023-03-05T08:01:53.000Z</time>
      </trkpt>
      <trkpt lat="51.130903" lon="5.756188">
        <ele>30.675430</ele>
        <time>2023-03-05T08:01:54.000Z</time>
      </trkpt>
      <trkpt lat="51.130839" lon="5.756173">
        <ele>30.675268</ele>
        <time>2023-03-05T08:01:55.000Z</time>
      </trkpt>
      <trkpt lat="51.130776" lon="5.756156">
        <ele>30.675109</ele>
        <time>2023-03-05T08:01:56.000Z</time>
      </trkpt>
      <trkpt lat="51.130714" lon="5.756140">
        <ele>30.674952</ele>
        <time>2023-03-05T08:01:57.000Z</time>
      </trkpt>
      <trkpt lat="51.130651" lon="5.756126">
        <ele>30.674792</ele>
        <time>2023-03-05T08:01:58.000Z</time>
      </trkpt>
      <trkpt lat="51.130588" lon="5.756110">
        <ele>30.674633</ele>
        <time>2023-03-05T08:01:59.000Z</time>
      </trkpt>
      <trkpt lat="51.130525" lon="5.756091">
        <ele>30.674473</ele>
        <time>2023-03-05T08:02:00.000Z</time>
      </trkpt>
      <trkpt lat="51.130462" lon="5.756072">
        <ele>30.674312</ele>
        <time>2023-03-05T08:02:01.000Z</time>
      </trkpt>
      <trkpt lat="51.130399" lon="5.756055">
        <ele>30.674152</ele>
        <time>2023-03-05T08:02:02.000Z</time>
      </trkpt>
      <trkpt lat="51.130333" lon="5.756037">
        <ele>30.673985</ele>
        <time>2023-03-05T08:02:03.000Z</time>
      </trkpt>
      <trkpt lat="51.130268" lon="5.756018">
        <ele>30.673820</ele>
        <time>2023-03-05T08:02:04.000Z</time>
      </trkpt>
      <trkpt lat="51.130204" lon="5.755998">
        <ele>30.673657</ele>
        <time>2023-03-05T08:02:05.000Z</time>
      </trkpt>
      <trkpt lat="51.130142" lon="5.755980">
        <ele>30.673499</ele>
        <time>2023-03-05T08:02:06.000Z</time>
      </trkpt>
      <trkpt lat="51.130081" lon="5.755961">
        <ele>30.673344</ele>
        <time>2023-03-05T08:02:07.000Z</time>
      </trkpt>
      <trkpt lat="51.130020" lon="5.755940">
        <ele>30.673803</ele>
        <time>2023-03-05T08:02:08.000Z</time>
      </trkpt>
      <trkpt lat="51.129959" lon="5.755918">
        <ele>30.674398</ele>
        <time>2023-03-05T08:02:09.000Z</time>
      </trkpt>
      <trkpt lat="51.129899" lon="5.755897">
        <ele>30.674982</ele>
        <time>2023-03-05T08:02:10.000Z</time>
      </trkpt>
      <trkpt lat="51.129840" lon="5.755876">
        <ele>30.675557</ele>
        <time>2023-03-05T08:02:11.000Z</time>
      </trkpt>
      <trkpt lat="51.129780" lon="5.755855">
        <ele>30.676142</ele>
        <time>2023-03-05T08:02:12.000Z</time>
      </trkpt>
      <trkpt lat="51.129722" lon="5.755832">
        <ele>30.676710</ele>
        <time>2023-03-05T08:02:13.000Z</time>
      </trkpt>
      <trkpt lat="51.129662" lon="5.755808">
        <ele>30.677299</ele>
        <time>2023-03-05T08:02:14.000Z</time>
      </trkpt>
      <trkpt lat="51.129601" lon="5.755783">
        <ele>30.677898</ele>
        <time>2023-03-05T08:02:15.000Z</time>
      </trkpt>
      <trkpt lat="51.129542" lon="5.755757">
        <ele>30.678480</ele>
        <time>2023-03-05T08:02:16.000Z</time>
      </trkpt>
      <trkpt lat="51.129485" lon="5.755732">
        <ele>30.679042</ele>
        <time>2023-03-05T08:02:17.000Z</time>
      </trkpt>
      <trkpt lat="51.129425" lon="5.755708">
        <ele>30.679631</ele>
        <time>2023-03-05T08:02:18.000Z</time>
      </trkpt>
      <trkpt lat="51.129364" lon="5.755682">
        <ele>30.680231</ele>
        <time>2023-03-05T08:02:19.000Z</time>
      </trkpt>
      <trkpt lat="51.129303" lon="5.755654">
        <ele>30.680835</ele>
        <time>2023-03-05T08:02:20.000Z</time>
      </trkpt>
      <trkpt lat="51.129242" lon="5.755627">
        <ele>30.681437</ele>
        <time>2023-03-05T08:02:21.000Z</time>
      </trkpt>
      <trkpt lat="51.129179" lon="5.755599">
        <ele>30.682060</ele>
        <time>2023-03-05T08:02:22.000Z</time>
      </trkpt>
      <trkpt lat="51.129116" lon="5.755572">
        <ele>30.682680</ele>
        <time>2023-03-05T08:02:23.000Z</time>
      </trkpt>
      <trkpt lat="51.129053" lon="5.755544">
        <ele>30.683302</ele>
        <time>2023-03-05T08:02:24.000Z</time>
      </trkpt>
      <trkpt lat="51.128990" lon="5.755515">
        <ele>30.683926</ele>
        <time>2023-03-05T08:02:25.000Z</time>
      </trkpt>
      <trkpt lat="51.128930" lon="5.755487">
        <ele>30.684521</ele>
        <time>2023-03-05T08:02:26.000Z</time>
      </trkpt>
      <trkpt lat="51.128868" lon="5.755460">
        <ele>30.685132</ele>
        <time>2023-03-05T08:02:27.000Z</time>
      </trkpt>
      <trkpt lat="51.128807" lon="5.755432">
        <ele>30.685736</ele>
        <time>2023-03-05T08:02:28.000Z</time>
      </trkpt>
      <trkpt lat="51.128744" lon="5.755403">
        <ele>30.686360</ele>
        <time>2023-03-05T08:02:29.000Z</time>
      </trkpt>
      <trkpt lat="51.128681" lon="5.755374">
        <ele>30.686983</ele>
        <time>2023-03-05T08:02:30.000Z</time>
      </trkpt>
      <trkpt lat="51.128621" lon="5.755347">
        <ele>30.687576</ele>
        <time>2023-03-05T08:02:31.000Z</time>
      </trkpt>
      <trkpt lat="51.128560" lon="5.755320">
        <ele>30.688179</ele>
        <time>2023-03-05T08:02:32.000Z</time>
      </trkpt>
      <trkpt lat="51.128499" lon="5.755294">
        <ele>30.688779</ele>
        <time>2023-03-05T08:02:33.000Z</time>
      </trkpt>
      <trkpt lat="51.128438" lon="5.755268">
        <ele>30.689380</ele>
        <time>2023-03-05T08:02:34.000Z</time>
      </trkpt>
      <trkpt lat="51.128379" lon="5.755244">
        <ele>30.689959</ele>
        <time>2023-03-05T08:02:35.000Z</time>
      </trkpt>
      <trkpt lat="51.128319" lon="5.755221">
        <ele>30.688265</ele>
        <time>2023-03-05T08:02:36.000Z</time>
      </trkpt>
      <trkpt lat="51.128258" lon="5.755196">
        <ele>30.677645</ele>
        <time>2023-03-05T08:02:37.000Z</time>
      </trkpt>
      <trkpt lat="51.128198" lon="5.755172">
        <ele>30.667215</ele>
        <time>2023-03-05T08:02:38.000Z</time>
      </trkpt>
      <trkpt lat="51.128137" lon="5.755144">
        <ele>30.656513</ele>
        <time>2023-03-05T08:02:39.000Z</time>
      </trkpt>
      <trkpt lat="51.128072" lon="5.755115">
        <ele>30.645132</ele>
        <time>2023-03-05T08:02:40.000Z</time>
      </trkpt>
      <trkpt lat="51.128009" lon="5.755087">
        <ele>30.634105</ele>
        <time>2023-03-05T08:02:41.000Z</time>
      </trkpt>
      <trkpt lat="51.127946" lon="5.755056">
        <ele>30.622988</ele>
        <time>2023-03-05T08:02:42.000Z</time>
      </trkpt>
      <trkpt lat="51.127884" lon="5.755024">
        <ele>30.612000</ele>
        <time>2023-03-05T08:02:43.000Z</time>
      </trkpt>
      <trkpt lat="51.127823" lon="5.754992">
        <ele>30.601172</ele>
        <time>2023-03-05T08:02:44.000Z</time>
      </trkpt>
      <trkpt lat="51.127759" lon="5.754960">
        <ele>30.589863</ele>
        <time>2023-03-05T08:02:45.000Z</time>
      </trkpt>
      <trkpt lat="51.127697" lon="5.754927">
        <ele>30.578842</ele>
        <time>2023-03-05T08:02:46.000Z</time>
      </trkpt>
      <trkpt lat="51.127636" lon="5.754895">
        <ele>30.568014</ele>
        <time>2023-03-05T08:02:47.000Z</time>
      </trkpt>
      <trkpt lat="51.127575" lon="5.754864">
        <ele>30.557219</ele>
        <time>2023-03-05T08:02:48.000Z</time>
      </trkpt>
      <trkpt lat="51.127516" lon="5.754832">
        <ele>30.546711</ele>
        <time>2023-03-05T08:02:49.000Z</time>
      </trkpt>
      <trkpt lat="51.127455" lon="5.754799">
        <ele>30.535850</ele>
        <time>2023-03-05T08:02:50.000Z</time>
      </trkpt>
      <trkpt lat="51.127395" lon="5.754767">
        <ele>30.525182</ele>
        <time>2023-03-05T08:02:51.000Z</time>
      </trkpt>
      <trkpt lat="51.127335" lon="5.754734">
        <ele>30.514481</ele>
        <time>2023-03-05T08:02:52.000Z</time>
      </trkpt>
      <trkpt lat="51.127273" lon="5.754702">
        <ele>30.503493</ele>
        <time>2023-03-05T08:02:53.000Z</time>
      </trkpt>
      <trkpt lat="51.127215" lon="5.754671">
        <ele>30.493178</ele>
        <time>2023-03-05T08:02:54.000Z</time>
      </trkpt>
      <trkpt lat="51.127156" lon="5.754640">
        <ele>30.482704</ele>
        <time>2023-03-05T08:02:55.000Z</time>
      </trkpt>
      <trkpt lat="51.127095" lon="5.754608">
        <ele>30.471876</ele>
        <time>2023-03-05T08:02:56.000Z</time>
      </trkpt>
      <trkpt lat="51.127034" lon="5.754575">
        <ele>30.461015</ele>
        <time>2023-03-05T08:02:57.000Z</time>
      </trkpt>
      <trkpt lat="51.126977" lon="5.754546">
        <ele>30.450927</ele>
        <time>2023-03-05T08:02:58.000Z</time>
      </trkpt>
      <trkpt lat="51.126921" lon="5.754515">
        <ele>30.440931</ele>
        <time>2023-03-05T08:02:59.000Z</time>
      </trkpt>
      <trkpt lat="51.126861" lon="5.754483">
        <ele>30.430264</ele>
        <time>2023-03-05T08:03:00.000Z</time>
      </trkpt>
      <trkpt lat="51.126803" lon="5.754451">
        <ele>30.419915</ele>
        <time>2023-03-05T08:03:01.000Z</time>
      </trkpt>
      <trkpt lat="51.126749" lon="5.754419">
        <ele>30.410202</ele>
        <time>2023-03-05T08:03:02.000Z</time>
      </trkpt>
      <trkpt lat="51.126690" lon="5.754386">
        <ele>30.399659</ele>
        <time>2023-03-05T08:03:03.000Z</time>
      </trkpt>
      <trkpt lat="51.126631" lon="5.754353">
        <ele>30.389116</ele>
        <time>2023-03-05T08:03:04.000Z</time>
      </trkpt>
      <trkpt lat="51.126574" lon="5.754319">
        <ele>30.399575</ele>
        <time>2023-03-05T08:03:05.000Z</time>
      </trkpt>
      <trkpt lat="51.126514" lon="5.754285">
        <ele>30.415589</ele>
        <time>2023-03-05T08:03:06.000Z</time>
      </trkpt>
      <trkpt lat="51.126459" lon="5.754253">
        <ele>30.430313</ele>
        <time>2023-03-05T08:03:07.000Z</time>
      </trkpt>
      <trkpt lat="51.126403" lon="5.754222">
        <ele>30.445221</ele>
        <time>2023-03-05T08:03:08.000Z</time>
      </trkpt>
      <trkpt lat="51.126343" lon="5.754189">
        <ele>30.461183</ele>
        <time>2023-03-05T08:03:09.000Z</time>
      </trkpt>
      <trkpt lat="51.126281" lon="5.754155">
        <ele>30.477672</ele>
        <time>2023-03-05T08:03:10.000Z</time>
      </trkpt>
      <trkpt lat="51.126224" lon="5.754120">
        <ele>30.493034</ele>
        <time>2023-03-05T08:03:11.000Z</time>
      </trkpt>
      <trkpt lat="51.126167" lon="5.754082">
        <ele>30.508572</ele>
        <time>2023-03-05T08:03:12.000Z</time>
      </trkpt>
      <trkpt lat="51.126107" lon="5.754043">
        <ele>30.524867</ele>
        <time>2023-03-05T08:03:13.000Z</time>
      </trkpt>
      <trkpt lat="51.126050" lon="5.754004">
        <ele>30.540467</ele>
        <time>2023-03-05T08:03:14.000Z</time>
      </trkpt>
      <trkpt lat="51.125995" lon="5.753965">
        <ele>30.555606</ele>
        <time>2023-03-05T08:03:15.000Z</time>
      </trkpt>
      <trkpt lat="51.125940" lon="5.753926">
        <ele>30.570744</ele>
        <time>2023-03-05T08:03:16.000Z</time>
      </trkpt>
      <trkpt lat="51.125884" lon="5.753885">
        <ele>30.586242</ele>
        <time>2023-03-05T08:03:17.000Z</time>
      </trkpt>
      <trkpt lat="51.125829" lon="5.753845">
        <ele>30.601446</ele>
        <time>2023-03-05T08:03:18.000Z</time>
      </trkpt>
      <trkpt lat="51.125776" lon="5.753804">
        <ele>30.616262</ele>
        <time>2023-03-05T08:03:19.000Z</time>
      </trkpt>
      <trkpt lat="51.125722" lon="5.753764">
        <ele>30.631237</ele>
        <time>2023-03-05T08:03:20.000Z</time>
      </trkpt>
      <trkpt lat="51.125668" lon="5.753723">
        <ele>30.646279</ele>
        <time>2023-03-05T08:03:21.000Z</time>
      </trkpt>
      <trkpt lat="51.125615" lon="5.753687">
        <ele>30.660768</ele>
        <time>2023-03-05T08:03:22.000Z</time>
      </trkpt>
      <trkpt lat="51.125563" lon="5.753662">
        <ele>30.674427</ele>
        <time>2023-03-05T08:03:23.000Z</time>
      </trkpt>
      <trkpt lat="51.125509" lon="5.753658">
        <ele>30.688021</ele>
        <time>2023-03-05T08:03:24.000Z</time>
      </trkpt>
      <trkpt lat="51.125453" lon="5.753675">
        <ele>30.702357</ele>
        <time>2023-03-05T08:03:25.000Z</time>
      </trkpt>
      <trkpt lat="51.125393" lon="5.753701">
        <ele>30.717993</ele>
        <time>2023-03-05T08:03:26.000Z</time>
      </trkpt>
      <trkpt lat="51.125334" lon="5.753733">
        <ele>30.733666</ele>
        <time>2023-03-05T08:03:27.000Z</time>
      </trkpt>
      <trkpt lat="51.125275" lon="5.753766">
        <ele>30.749390</ele>
        <time>2023-03-05T08:03:28.000Z</time>
      </trkpt>
      <trkpt lat="51.125214" lon="5.753798">
        <ele>30.765540</ele>
        <time>2023-03-05T08:03:29.000Z</time>
      </trkpt>
      <trkpt lat="51.125152" lon="5.753830">
        <ele>30.781929</ele>
        <time>2023-03-05T08:03:30.000Z</time>
      </trkpt>
      <trkpt lat="51.125091" lon="5.753863">
        <ele>30.798129</ele>
        <time>2023-03-05T08:03:31.000Z</time>
      </trkpt>
      <trkpt lat="51.125033" lon="5.753895">
        <ele>30.813564</ele>
        <time>2023-03-05T08:03:32.000Z</time>
      </trkpt>
      <trkpt lat="51.124973" lon="5.753926">
        <ele>30.829426</ele>
        <time>2023-03-05T08:03:33.000Z</time>
      </trkpt>
      <trkpt lat="51.124917" lon="5.753961">
        <ele>30.845858</ele>
        <time>2023-03-05T08:03:34.000Z</time>
      </trkpt>
      <trkpt lat="51.124861" lon="5.753995">
        <ele>30.864805</ele>
        <time>2023-03-05T08:03:35.000Z</time>
      </trkpt>
      <trkpt lat="51.124807" lon="5.754024">
        <ele>30.882821</ele>
        <time>2023-03-05T08:03:36.000Z</time>
      </trkpt>
      <trkpt lat="51.124751" lon="5.754032">
        <ele>30.900597</ele>
        <time>2023-03-05T08:03:37.000Z</time>
      </trkpt>
      <trkpt lat="51.124693" lon="5.754012">
        <ele>30.919359</ele>
        <time>2023-03-05T08:03:38.000Z</time>
      </trkpt>
      <trkpt lat="51.124641" lon="5.753969">
        <ele>30.937881</ele>
        <time>2023-03-05T08:03:39.000Z</time>
      </trkpt>
      <trkpt lat="51.124592" lon="5.753916">
        <ele>30.956605</ele>
        <time>2023-03-05T08:03:40.000Z</time>
      </trkpt>
      <trkpt lat="51.124542" lon="5.753860">
        <ele>30.975928</ele>
        <time>2023-03-05T08:03:41.000Z</time>
      </trkpt>
      <trkpt lat="51.124490" lon="5.753802">
        <ele>30.995996</ele>
        <time>2023-03-05T08:03:42.000Z</time>
      </trkpt>
      <trkpt lat="51.124437" lon="5.753746">
        <ele>31.016103</ele>
        <time>2023-03-05T08:03:43.000Z</time>
      </trkpt>
      <trkpt lat="51.124379" lon="5.753694">
        <ele>31.037143</ele>
        <time>2023-03-05T08:03:44.000Z</time>
      </trkpt>
      <trkpt lat="51.124320" lon="5.753645">
        <ele>31.058179</ele>
        <time>2023-03-05T08:03:45.000Z</time>
      </trkpt>
      <trkpt lat="51.124260" lon="5.753600">
        <ele>31.079145</ele>
        <time>2023-03-05T08:03:46.000Z</time>
      </trkpt>
      <trkpt lat="51.124202" lon="5.753557">
        <ele>31.099370</ele>
        <time>2023-03-05T08:03:47.000Z</time>
      </trkpt>
      <trkpt lat="51.124144" lon="5.753515">
        <ele>31.119512</ele>
        <time>2023-03-05T08:03:48.000Z</time>
      </trkpt>
      <trkpt lat="51.124089" lon="5.753472">
        <ele>31.138882</ele>
        <time>2023-03-05T08:03:49.000Z</time>
      </trkpt>
      <trkpt lat="51.124036" lon="5.753430">
        <ele>31.157596</ele>
        <time>2023-03-05T08:03:50.000Z</time>
      </trkpt>
      <trkpt lat="51.123985" lon="5.753386">
        <ele>31.175932</ele>
        <time>2023-03-05T08:03:51.000Z</time>
      </trkpt>
      <trkpt lat="51.123940" lon="5.753343">
        <ele>31.192522</ele>
        <time>2023-03-05T08:03:52.000Z</time>
      </trkpt>
      <trkpt lat="51.123899" lon="5.753301">
        <ele>31.207933</ele>
        <time>2023-03-05T08:03:53.000Z</time>
      </trkpt>
      <trkpt lat="51.123861" lon="5.753256">
        <ele>31.222902</ele>
        <time>2023-03-05T08:03:54.000Z</time>
      </trkpt>
      <trkpt lat="51.123824" lon="5.753212">
        <ele>31.237499</ele>
        <time>2023-03-05T08:03:55.000Z</time>
      </trkpt>
      <trkpt lat="51.123784" lon="5.753180">
        <ele>31.251650</ele>
        <time>2023-03-05T08:03:56.000Z</time>
      </trkpt>
      <trkpt lat="51.123744" lon="5.753171">
        <ele>31.264421</ele>
        <time>2023-03-05T08:03:57.000Z</time>
      </trkpt>
      <trkpt lat="51.123706" lon="5.753199">
        <ele>31.277658</ele>
        <time>2023-03-05T08:03:58.000Z</time>
      </trkpt>
      <trkpt lat="51.123677" lon="5.753263">
        <ele>31.293322</ele>
        <time>2023-03-05T08:03:59.000Z</time>
      </trkpt>
      <trkpt lat="51.123657" lon="5.753346">
        <ele>31.310964</ele>
        <time>2023-03-05T08:04:00.000Z</time>
      </trkpt>
      <trkpt lat="51.123638" lon="5.753437">
        <ele>31.329994</ele>
        <time>2023-03-05T08:04:01.000Z</time>
      </trkpt>
      <trkpt lat="51.123619" lon="5.753532">
        <ele>31.349779</ele>
        <time>2023-03-05T08:04:02.000Z</time>
      </trkpt>
      <trkpt lat="51.123597" lon="5.753627">
        <ele>31.369873</ele>
        <time>2023-03-05T08:04:03.000Z</time>
      </trkpt>
      <trkpt lat="51.123575" lon="5.753720">
        <ele>31.389595</ele>
        <time>2023-03-05T08:04:04.000Z</time>
      </trkpt>
      <trkpt lat="51.123555" lon="5.753819">
        <ele>31.411035</ele>
        <time>2023-03-05T08:04:05.000Z</time>
      </trkpt>
      <trkpt lat="51.123533" lon="5.753921">
        <ele>31.440636</ele>
        <time>2023-03-05T08:04:06.000Z</time>
      </trkpt>
      <trkpt lat="51.123510" lon="5.754023">
        <ele>31.470382</ele>
        <time>2023-03-05T08:04:07.000Z</time>
      </trkpt>
      <trkpt lat="51.123489" lon="5.754123">
        <ele>31.499322</ele>
        <time>2023-03-05T08:04:08.000Z</time>
      </trkpt>
      <trkpt lat="51.123465" lon="5.754224">
        <ele>31.528962</ele>
        <time>2023-03-05T08:04:09.000Z</time>
      </trkpt>
      <trkpt lat="51.123441" lon="5.754325">
        <ele>31.558601</ele>
        <time>2023-03-05T08:04:10.000Z</time>
      </trkpt>
      <trkpt lat="51.123418" lon="5.754427">
        <ele>31.588347</ele>
        <time>2023-03-05T08:04:11.000Z</time>
      </trkpt>
      <trkpt lat="51.123395" lon="5.754529">
        <ele>31.618093</ele>
        <time>2023-03-05T08:04:12.000Z</time>
      </trkpt>
      <trkpt lat="51.123372" lon="5.754630">
        <ele>31.647581</ele>
        <time>2023-03-05T08:04:13.000Z</time>
      </trkpt>
      <trkpt lat="51.123352" lon="5.754730">
        <ele>31.676385</ele>
        <time>2023-03-05T08:04:14.000Z</time>
      </trkpt>
      <trkpt lat="51.123330" lon="5.754829">
        <ele>31.705209</ele>
        <time>2023-03-05T08:04:15.000Z</time>
      </trkpt>
      <trkpt lat="51.123308" lon="5.754925">
        <ele>31.733257</ele>
        <time>2023-03-05T08:04:16.000Z</time>
      </trkpt>
      <trkpt lat="51.123285" lon="5.755023">
        <ele>31.761972</ele>
        <time>2023-03-05T08:04:17.000Z</time>
      </trkpt>
      <trkpt lat="51.123264" lon="5.755119">
        <ele>31.789874</ele>
        <time>2023-03-05T08:04:18.000Z</time>
      </trkpt>
      <trkpt lat="51.123240" lon="5.755214">
        <ele>31.817980</ele>
        <time>2023-03-05T08:04:19.000Z</time>
      </trkpt>
      <trkpt lat="51.123211" lon="5.755306">
        <ele>31.846235</ele>
        <time>2023-03-05T08:04:20.000Z</time>
      </trkpt>
      <trkpt lat="51.123179" lon="5.755393">
        <ele>31.873910</ele>
        <time>2023-03-05T08:04:21.000Z</time>
      </trkpt>
      <trkpt lat="51.123142" lon="5.755475">
        <ele>31.901627</ele>
        <time>2023-03-05T08:04:22.000Z</time>
      </trkpt>
      <trkpt lat="51.123104" lon="5.755551">
        <ele>31.928295</ele>
        <time>2023-03-05T08:04:23.000Z</time>
      </trkpt>
      <trkpt lat="51.123060" lon="5.755620">
        <ele>31.955291</ele>
        <time>2023-03-05T08:04:24.000Z</time>
      </trkpt>
      <trkpt lat="51.123012" lon="5.755679">
        <ele>31.981801</ele>
        <time>2023-03-05T08:04:25.000Z</time>
      </trkpt>
      <trkpt lat="51.122955" lon="5.755726">
        <ele>32.009865</ele>
        <time>2023-03-05T08:04:26.000Z</time>
      </trkpt>
      <trkpt lat="51.122894" lon="5.755760">
        <ele>32.038124</ele>
        <time>2023-03-05T08:04:27.000Z</time>
      </trkpt>
      <trkpt lat="51.122833" lon="5.755784">
        <ele>32.065599</ele>
        <time>2023-03-05T08:04:28.000Z</time>
      </trkpt>
      <trkpt lat="51.122769" lon="5.755801">
        <ele>32.093970</ele>
        <time>2023-03-05T08:04:29.000Z</time>
      </trkpt>
      <trkpt lat="51.122710" lon="5.755814">
        <ele>32.120015</ele>
        <time>2023-03-05T08:04:30.000Z</time>
      </trkpt>
      <trkpt lat="51.122648" lon="5.755827">
        <ele>32.147359</ele>
        <time>2023-03-05T08:04:31.000Z</time>
      </trkpt>
      <trkpt lat="51.122583" lon="5.755842">
        <ele>32.176078</ele>
        <time>2023-03-05T08:04:32.000Z</time>
      </trkpt>
      <trkpt lat="51.122521" lon="5.755863">
        <ele>32.190751</ele>
        <time>2023-03-05T08:04:33.000Z</time>
      </trkpt>
      <trkpt lat="51.122460" lon="5.755892">
        <ele>32.178975</ele>
        <time>2023-03-05T08:04:34.000Z</time>
      </trkpt>
      <trkpt lat="51.122401" lon="5.755933">
        <ele>32.167067</ele>
        <time>2023-03-05T08:04:35.000Z</time>
      </trkpt>
      <trkpt lat="51.122343" lon="5.755982">
        <ele>32.154922</ele>
        <time>2023-03-05T08:04:36.000Z</time>
      </trkpt>
      <trkpt lat="51.122291" lon="5.756038">
        <ele>32.143310</ele>
        <time>2023-03-05T08:04:37.000Z</time>
      </trkpt>
      <trkpt lat="51.122242" lon="5.756098">
        <ele>32.131877</ele>
        <time>2023-03-05T08:04:38.000Z</time>
      </trkpt>
      <trkpt lat="51.122195" lon="5.756166">
        <ele>32.120132</ele>
        <time>2023-03-05T08:04:39.000Z</time>
      </trkpt>
      <trkpt lat="51.122148" lon="5.756236">
        <ele>32.108230</ele>
        <time>2023-03-05T08:04:40.000Z</time>
      </trkpt>
      <trkpt lat="51.122102" lon="5.756305">
        <ele>32.096542</ele>
        <time>2023-03-05T08:04:41.000Z</time>
      </trkpt>
      <trkpt lat="51.122057" lon="5.756374">
        <ele>32.084988</ele>
        <time>2023-03-05T08:04:42.000Z</time>
      </trkpt>
      <trkpt lat="51.122009" lon="5.756446">
        <ele>32.072791</ele>
        <time>2023-03-05T08:04:43.000Z</time>
      </trkpt>
      <trkpt lat="51.121960" lon="5.756517">
        <ele>32.060538</ele>
        <time>2023-03-05T08:04:44.000Z</time>
      </trkpt>
      <trkpt lat="51.121911" lon="5.756587">
        <ele>32.048363</ele>
        <time>2023-03-05T08:04:45.000Z</time>
      </trkpt>
      <trkpt lat="51.121861" lon="5.756658">
        <ele>32.035972</ele>
        <time>2023-03-05T08:04:46.000Z</time>
      </trkpt>
      <trkpt lat="51.121808" lon="5.756727">
        <ele>32.023310</ele>
        <time>2023-03-05T08:04:47.000Z</time>
      </trkpt>
      <trkpt lat="51.121755" lon="5.756794">
        <ele>32.010793</ele>
        <time>2023-03-05T08:04:48.000Z</time>
      </trkpt>
      <trkpt lat="51.121702" lon="5.756858">
        <ele>31.998490</ele>
        <time>2023-03-05T08:04:49.000Z</time>
      </trkpt>
      <trkpt lat="51.121648" lon="5.756920">
        <ele>31.986177</ele>
        <time>2023-03-05T08:04:50.000Z</time>
      </trkpt>
      <trkpt lat="51.121594" lon="5.756982">
        <ele>31.973863</ele>
        <time>2023-03-05T08:04:51.000Z</time>
      </trkpt>
      <trkpt lat="51.121541" lon="5.757042">
        <ele>31.961835</ele>
        <time>2023-03-05T08:04:52.000Z</time>
      </trkpt>
      <trkpt lat="51.121489" lon="5.757101">
        <ele>31.950025</ele>
        <time>2023-03-05T08:04:53.000Z</time>
      </trkpt>
      <trkpt lat="51.121432" lon="5.757163">
        <ele>31.937256</ele>
        <time>2023-03-05T08:04:54.000Z</time>
      </trkpt>
      <trkpt lat="51.121378" lon="5.757223">
        <ele>31.925077</ele>
        <time>2023-03-05T08:04:55.000Z</time>
      </trkpt>
      <trkpt lat="51.121324" lon="5.757285">
        <ele>31.912763</ele>
        <time>2023-03-05T08:04:56.000Z</time>
      </trkpt>
      <trkpt lat="51.121268" lon="5.757347">
        <ele>31.900147</ele>
        <time>2023-03-05T08:04:57.000Z</time>
      </trkpt>
      <trkpt lat="51.121215" lon="5.757410">
        <ele>31.887914</ele>
        <time>2023-03-05T08:04:58.000Z</time>
      </trkpt>
      <trkpt lat="51.121161" lon="5.757472">
        <ele>31.875600</ele>
        <time>2023-03-05T08:04:59.000Z</time>
      </trkpt>
      <trkpt lat="51.121106" lon="5.757533">
        <ele>31.863203</ele>
        <time>2023-03-05T08:05:00.000Z</time>
      </trkpt>
      <trkpt lat="51.121052" lon="5.757596">
        <ele>31.797563</ele>
        <time>2023-03-05T08:05:01.000Z</time>
      </trkpt>
      <trkpt lat="51.120999" lon="5.757659">
        <ele>31.726435</ele>
        <time>2023-03-05T08:05:02.000Z</time>
      </trkpt>
      <trkpt lat="51.120946" lon="5.757721">
        <ele>31.655709</ele>
        <time>2023-03-05T08:05:03.000Z</time>
      </trkpt>
      <trkpt lat="51.120892" lon="5.757785">
        <ele>31.583315</ele>
        <time>2023-03-05T08:05:04.000Z</time>
      </trkpt>
      <trkpt lat="51.120842" lon="5.757850">
        <ele>31.513901</ele>
        <time>2023-03-05T08:05:05.000Z</time>
      </trkpt>
      <trkpt lat="51.120792" lon="5.757917">
        <ele>31.443625</ele>
        <time>2023-03-05T08:05:06.000Z</time>
      </trkpt>
      <trkpt lat="51.120747" lon="5.757989">
        <ele>31.375025</ele>
        <time>2023-03-05T08:05:07.000Z</time>
      </trkpt>
      <trkpt lat="51.120708" lon="5.758067">
        <ele>31.307697</ele>
        <time>2023-03-05T08:05:08.000Z</time>
      </trkpt>
      <trkpt lat="51.120667" lon="5.758152">
        <ele>31.235320</ele>
        <time>2023-03-05T08:05:09.000Z</time>
      </trkpt>
      <trkpt lat="51.120620" lon="5.758234">
        <ele>31.160348</ele>
        <time>2023-03-05T08:05:10.000Z</time>
      </trkpt>
      <trkpt lat="51.120571" lon="5.758306">
        <ele>31.088647</ele>
        <time>2023-03-05T08:05:11.000Z</time>
      </trkpt>
      <trkpt lat="51.120519" lon="5.758373">
        <ele>31.016711</ele>
        <time>2023-03-05T08:05:12.000Z</time>
      </trkpt>
      <trkpt lat="51.120465" lon="5.758435">
        <ele>30.945115</ele>
        <time>2023-03-05T08:05:13.000Z</time>
      </trkpt>
      <trkpt lat="51.120412" lon="5.758495">
        <ele>30.875179</ele>
        <time>2023-03-05T08:05:14.000Z</time>
      </trkpt>
      <trkpt lat="51.120359" lon="5.758557">
        <ele>30.804453</ele>
        <time>2023-03-05T08:05:15.000Z</time>
      </trkpt>
      <trkpt lat="51.120305" lon="5.758619">
        <ele>30.732856</ele>
        <time>2023-03-05T08:05:16.000Z</time>
      </trkpt>
      <trkpt lat="51.120254" lon="5.758679">
        <ele>30.664663</ele>
        <time>2023-03-05T08:05:17.000Z</time>
      </trkpt>
      <trkpt lat="51.120202" lon="5.758742">
        <ele>30.594394</ele>
        <time>2023-03-05T08:05:18.000Z</time>
      </trkpt>
      <trkpt lat="51.120151" lon="5.758808">
        <ele>30.523718</ele>
        <time>2023-03-05T08:05:19.000Z</time>
      </trkpt>
      <trkpt lat="51.120102" lon="5.758876">
        <ele>30.453820</ele>
        <time>2023-03-05T08:05:20.000Z</time>
      </trkpt>
      <trkpt lat="51.120052" lon="5.758945">
        <ele>30.382667</ele>
        <time>2023-03-05T08:05:21.000Z</time>
      </trkpt>
      <trkpt lat="51.119999" lon="5.759013">
        <ele>30.309470</ele>
        <time>2023-03-05T08:05:22.000Z</time>
      </trkpt>
      <trkpt lat="51.119944" lon="5.759071">
        <ele>30.238523</ele>
        <time>2023-03-05T08:05:23.000Z</time>
      </trkpt>
      <trkpt lat="51.119885" lon="5.759115">
        <ele>30.168452</ele>
        <time>2023-03-05T08:05:24.000Z</time>
      </trkpt>
      <trkpt lat="51.119825" lon="5.759142">
        <ele>30.101389</ele>
        <time>2023-03-05T08:05:25.000Z</time>
      </trkpt>
      <trkpt lat="51.119761" lon="5.759149">
        <ele>30.032386</ele>
        <time>2023-03-05T08:05:26.000Z</time>
      </trkpt>
      <trkpt lat="51.119697" lon="5.759138">
        <ele>29.963146</ele>
        <time>2023-03-05T08:05:27.000Z</time>
      </trkpt>
      <trkpt lat="51.119634" lon="5.759116">
        <ele>29.920798</ele>
        <time>2023-03-05T08:05:28.000Z</time>
      </trkpt>
      <trkpt lat="51.119572" lon="5.759086">
        <ele>29.907449</ele>
        <time>2023-03-05T08:05:29.000Z</time>
      </trkpt>
      <trkpt lat="51.119511" lon="5.759054">
        <ele>29.894218</ele>
        <time>2023-03-05T08:05:30.000Z</time>
      </trkpt>
      <trkpt lat="51.119447" lon="5.759021">
        <ele>29.880360</ele>
        <time>2023-03-05T08:05:31.000Z</time>
      </trkpt>
      <trkpt lat="51.119385" lon="5.758986">
        <ele>29.866809</ele>
        <time>2023-03-05T08:05:32.000Z</time>
      </trkpt>
      <trkpt lat="51.119324" lon="5.758951">
        <ele>29.853452</ele>
        <time>2023-03-05T08:05:33.000Z</time>
      </trkpt>
      <trkpt lat="51.119263" lon="5.758912">
        <ele>29.839911</ele>
        <time>2023-03-05T08:05:34.000Z</time>
      </trkpt>
      <trkpt lat="51.119204" lon="5.758870">
        <ele>29.826597</ele>
        <time>2023-03-05T08:05:35.000Z</time>
      </trkpt>
      <trkpt lat="51.119144" lon="5.758829">
        <ele>29.813148</ele>
        <time>2023-03-05T08:05:36.000Z</time>
      </trkpt>
      <trkpt lat="51.119086" lon="5.758783">
        <ele>29.799800</ele>
        <time>2023-03-05T08:05:37.000Z</time>
      </trkpt>
      <trkpt lat="51.119028" lon="5.758733">
        <ele>29.786214</ele>
        <time>2023-03-05T08:05:38.000Z</time>
      </trkpt>
      <trkpt lat="51.118974" lon="5.758682">
        <ele>29.773281</ele>
        <time>2023-03-05T08:05:39.000Z</time>
      </trkpt>
      <trkpt lat="51.118918" lon="5.758632">
        <ele>29.760056</ele>
        <time>2023-03-05T08:05:40.000Z</time>
      </trkpt>
      <trkpt lat="51.118863" lon="5.758583">
        <ele>29.747074</ele>
        <time>2023-03-05T08:05:41.000Z</time>
      </trkpt>
      <trkpt lat="51.118810" lon="5.758534">
        <ele>29.734450</ele>
        <time>2023-03-05T08:05:42.000Z</time>
      </trkpt>
      <trkpt lat="51.118754" lon="5.758486">
        <ele>29.721349</ele>
        <time>2023-03-05T08:05:43.000Z</time>
      </trkpt>
      <trkpt lat="51.118699" lon="5.758437">
        <ele>29.708367</ele>
        <time>2023-03-05T08:05:44.000Z</time>
      </trkpt>
      <trkpt lat="51.118643" lon="5.758384">
        <ele>29.694948</ele>
        <time>2023-03-05T08:05:45.000Z</time>
      </trkpt>
      <trkpt lat="51.118588" lon="5.758329">
        <ele>29.681570</ele>
        <time>2023-03-05T08:05:46.000Z</time>
      </trkpt>
      <trkpt lat="51.118532" lon="5.758278">
        <ele>29.668281</ele>
        <time>2023-03-05T08:05:47.000Z</time>
      </trkpt>
      <trkpt lat="51.118473" lon="5.758234">
        <ele>29.654860</ele>
        <time>2023-03-05T08:05:48.000Z</time>
      </trkpt>
      <trkpt lat="51.118412" lon="5.758193">
        <ele>29.641221</ele>
        <time>2023-03-05T08:05:49.000Z</time>
      </trkpt>
      <trkpt lat="51.118351" lon="5.758155">
        <ele>29.627727</ele>
        <time>2023-03-05T08:05:50.000Z</time>
      </trkpt>
      <trkpt lat="51.118290" lon="5.758121">
        <ele>29.614413</ele>
        <time>2023-03-05T08:05:51.000Z</time>
      </trkpt>
      <trkpt lat="51.118228" lon="5.758089">
        <ele>29.600987</ele>
        <time>2023-03-05T08:05:52.000Z</time>
      </trkpt>
      <trkpt lat="51.118169" lon="5.758060">
        <ele>29.588267</ele>
        <time>2023-03-05T08:05:53.000Z</time>
      </trkpt>
      <trkpt lat="51.118105" lon="5.758029">
        <ele>29.574486</ele>
        <time>2023-03-05T08:05:54.000Z</time>
      </trkpt>
      <trkpt lat="51.118042" lon="5.757997">
        <ele>29.560863</ele>
        <time>2023-03-05T08:05:55.000Z</time>
      </trkpt>
      <trkpt lat="51.117981" lon="5.757967">
        <ele>29.569493</ele>
        <time>2023-03-05T08:05:56.000Z</time>
      </trkpt>
      <trkpt lat="51.117918" lon="5.757938">
        <ele>29.588886</ele>
        <time>2023-03-05T08:05:57.000Z</time>
      </trkpt>
      <trkpt lat="51.117855" lon="5.757907">
        <ele>29.608386</ele>
        <time>2023-03-05T08:05:58.000Z</time>
      </trkpt>
      <trkpt lat="51.117794" lon="5.757873">
        <ele>29.627497</ele>
        <time>2023-03-05T08:05:59.000Z</time>
      </trkpt>
      <trkpt lat="51.117735" lon="5.757834">
        <ele>29.646388</ele>
        <time>2023-03-05T08:06:00.000Z</time>
      </trkpt>
      <trkpt lat="51.117679" lon="5.757789">
        <ele>29.664937</ele>
        <time>2023-03-05T08:06:01.000Z</time>
      </trkpt>
      <trkpt lat="51.117621" lon="5.757734">
        <ele>29.684898</ele>
        <time>2023-03-05T08:06:02.000Z</time>
      </trkpt>
      <trkpt lat="51.117569" lon="5.757671">
        <ele>29.704218</ele>
        <time>2023-03-05T08:06:03.000Z</time>
      </trkpt>
      <trkpt lat="51.117521" lon="5.757601">
        <ele>29.723462</ele>
        <time>2023-03-05T08:06:04.000Z</time>
      </trkpt>
      <trkpt lat="51.117478" lon="5.757525">
        <ele>29.742456</ele>
        <time>2023-03-05T08:06:05.000Z</time>
      </trkpt>
      <trkpt lat="51.117438" lon="5.757446">
        <ele>29.761298</ele>
        <time>2023-03-05T08:06:06.000Z</time>
      </trkpt>
      <trkpt lat="51.117398" lon="5.757367">
        <ele>29.780139</ele>
        <time>2023-03-05T08:06:07.000Z</time>
      </trkpt>
      <trkpt lat="51.117356" lon="5.757289">
        <ele>29.799216</ele>
        <time>2023-03-05T08:06:08.000Z</time>
      </trkpt>
      <trkpt lat="51.117314" lon="5.757213">
        <ele>29.818013</ele>
        <time>2023-03-05T08:06:09.000Z</time>
      </trkpt>
      <trkpt lat="51.117272" lon="5.757138">
        <ele>29.836671</ele>
        <time>2023-03-05T08:06:10.000Z</time>
      </trkpt>
      <trkpt lat="51.117228" lon="5.757064">
        <ele>29.855593</ele>
        <time>2023-03-05T08:06:11.000Z</time>
      </trkpt>
      <trkpt lat="51.117184" lon="5.756990">
        <ele>29.874515</ele>
        <time>2023-03-05T08:06:12.000Z</time>
      </trkpt>
      <trkpt lat="51.117140" lon="5.756919">
        <ele>29.893036</ele>
        <time>2023-03-05T08:06:13.000Z</time>
      </trkpt>
      <trkpt lat="51.117097" lon="5.756847">
        <ele>29.911485</ele>
        <time>2023-03-05T08:06:14.000Z</time>
      </trkpt>
      <trkpt lat="51.117053" lon="5.756778">
        <ele>29.929744</ele>
        <time>2023-03-05T08:06:15.000Z</time>
      </trkpt>
      <trkpt lat="51.117012" lon="5.756707">
        <ele>29.947653</ele>
        <time>2023-03-05T08:06:16.000Z</time>
      </trkpt>
      <trkpt lat="51.116971" lon="5.756634">
        <ele>29.965837</ele>
        <time>2023-03-05T08:06:17.000Z</time>
      </trkpt>
      <trkpt lat="51.116929" lon="5.756564">
        <ele>29.983813</ele>
        <time>2023-03-05T08:06:18.000Z</time>
      </trkpt>
      <trkpt lat="51.116885" lon="5.756497">
        <ele>30.001814</ele>
        <time>2023-03-05T08:06:19.000Z</time>
      </trkpt>
      <trkpt lat="51.116841" lon="5.756432">
        <ele>30.019560</ele>
        <time>2023-03-05T08:06:20.000Z</time>
      </trkpt>
      <trkpt lat="51.116794" lon="5.756370">
        <ele>30.037606</ele>
        <time>2023-03-05T08:06:21.000Z</time>
      </trkpt>
      <trkpt lat="51.116745" lon="5.756314">
        <ele>30.055440</ele>
        <time>2023-03-05T08:06:22.000Z</time>
      </trkpt>
      <trkpt lat="51.116691" lon="5.756263">
        <ele>30.074005</ele>
        <time>2023-03-05T08:06:23.000Z</time>
      </trkpt>
      <trkpt lat="51.116633" lon="5.756223">
        <ele>30.094356</ele>
        <time>2023-03-05T08:06:24.000Z</time>
      </trkpt>
      <trkpt lat="51.116571" lon="5.756192">
        <ele>30.121301</ele>
        <time>2023-03-05T08:06:25.000Z</time>
      </trkpt>
      <trkpt lat="51.116511" lon="5.756166">
        <ele>30.147085</ele>
        <time>2023-03-05T08:06:26.000Z</time>
      </trkpt>
      <trkpt lat="51.116451" lon="5.756144">
        <ele>30.172615</ele>
        <time>2023-03-05T08:06:27.000Z</time>
      </trkpt>
      <trkpt lat="51.116390" lon="5.756125">
        <ele>30.198388</ele>
        <time>2023-03-05T08:06:28.000Z</time>
      </trkpt>
      <trkpt lat="51.116329" lon="5.756110">
        <ele>30.223982</ele>
        <time>2023-03-05T08:06:29.000Z</time>
      </trkpt>
      <trkpt lat="51.116271" lon="5.756100">
        <ele>30.248173</ele>
        <time>2023-03-05T08:06:30.000Z</time>
      </trkpt>
      <trkpt lat="51.116216" lon="5.756102">
        <ele>30.270986</ele>
        <time>2023-03-05T08:06:31.000Z</time>
      </trkpt>
      <trkpt lat="51.116165" lon="5.756122">
        <ele>30.292765</ele>
        <time>2023-03-05T08:06:32.000Z</time>
      </trkpt>
      <trkpt lat="51.116122" lon="5.756164">
        <ele>30.313680</ele>
        <time>2023-03-05T08:06:33.000Z</time>
      </trkpt>
      <trkpt lat="51.116094" lon="5.756228">
        <ele>30.333986</ele>
        <time>2023-03-05T08:06:34.000Z</time>
      </trkpt>
      <trkpt lat="51.116078" lon="5.756307">
        <ele>30.355594</ele>
        <time>2023-03-05T08:06:35.000Z</time>
      </trkpt>
      <trkpt lat="51.116069" lon="5.756393">
        <ele>30.378288</ele>
        <time>2023-03-05T08:06:36.000Z</time>
      </trkpt>
      <trkpt lat="51.116061" lon="5.756483">
        <ele>30.401949</ele>
        <time>2023-03-05T08:06:37.000Z</time>
      </trkpt>
      <trkpt lat="51.116056" lon="5.756575">
        <ele>30.425987</ele>
        <time>2023-03-05T08:06:38.000Z</time>
      </trkpt>
      <trkpt lat="51.116047" lon="5.756671">
        <ele>30.451253</ele>
        <time>2023-03-05T08:06:39.000Z</time>
      </trkpt>
      <trkpt lat="51.116034" lon="5.756771">
        <ele>30.477835</ele>
        <time>2023-03-05T08:06:40.000Z</time>
      </trkpt>
      <trkpt lat="51.116016" lon="5.756870">
        <ele>30.504664</ele>
        <time>2023-03-05T08:06:41.000Z</time>
      </trkpt>
      <trkpt lat="51.115999" lon="5.756969">
        <ele>30.531381</ele>
        <time>2023-03-05T08:06:42.000Z</time>
      </trkpt>
      <trkpt lat="51.115982" lon="5.757070">
        <ele>30.558600</ele>
        <time>2023-03-05T08:06:43.000Z</time>
      </trkpt>
      <trkpt lat="51.115967" lon="5.757173">
        <ele>30.586123</ele>
        <time>2023-03-05T08:06:44.000Z</time>
      </trkpt>
      <trkpt lat="51.115958" lon="5.757278">
        <ele>30.613708</ele>
        <time>2023-03-05T08:06:45.000Z</time>
      </trkpt>
      <trkpt lat="51.115953" lon="5.757384">
        <ele>30.641378</ele>
        <time>2023-03-05T08:06:46.000Z</time>
      </trkpt>
      <trkpt lat="51.115949" lon="5.757488">
        <ele>30.668500</ele>
        <time>2023-03-05T08:06:47.000Z</time>
      </trkpt>
      <trkpt lat="51.115945" lon="5.757589">
        <ele>30.694843</ele>
        <time>2023-03-05T08:06:48.000Z</time>
      </trkpt>
      <trkpt lat="51.115941" lon="5.757686">
        <ele>30.720147</ele>
        <time>2023-03-05T08:06:49.000Z</time>
      </trkpt>
      <trkpt lat="51.115940" lon="5.757782">
        <ele>30.745139</ele>
        <time>2023-03-05T08:06:50.000Z</time>
      </trkpt>
      <trkpt lat="51.115940" lon="5.757879">
        <ele>30.770389</ele>
        <time>2023-03-05T08:06:51.000Z</time>
      </trkpt>
      <trkpt lat="51.115940" lon="5.757977">
        <ele>30.795898</ele>
        <time>2023-03-05T08:06:52.000Z</time>
      </trkpt>
      <trkpt lat="51.115940" lon="5.758073">
        <ele>30.820887</ele>
        <time>2023-03-05T08:06:53.000Z</time>
      </trkpt>
      <trkpt lat="51.115938" lon="5.758167">
        <ele>30.837182</ele>
        <time>2023-03-05T08:06:54.000Z</time>
      </trkpt>
      <trkpt lat="51.115939" lon="5.758260">
        <ele>30.843326</ele>
        <time>2023-03-05T08:06:55.000Z</time>
      </trkpt>
      <trkpt lat="51.115940" lon="5.758350">
        <ele>30.849272</ele>
        <time>2023-03-05T08:06:56.000Z</time>
      </trkpt>
      <trkpt lat="51.115940" lon="5.758444">
        <ele>30.855481</ele>
        <time>2023-03-05T08:06:57.000Z</time>
      </trkpt>
      <trkpt lat="51.115940" lon="5.758546">
        <ele>30.862219</ele>
        <time>2023-03-05T08:06:58.000Z</time>
      </trkpt>
      <trkpt lat="51.115942" lon="5.758645">
        <ele>30.868762</ele>
        <time>2023-03-05T08:06:59.000Z</time>
      </trkpt>
      <trkpt lat="51.115944" lon="5.758742">
        <ele>30.875173</ele>
        <time>2023-03-05T08:07:00.000Z</time>
      </trkpt>
      <trkpt lat="51.115944" lon="5.758837">
        <ele>30.881448</ele>
        <time>2023-03-05T08:07:01.000Z</time>
      </trkpt>
      <trkpt lat="51.115944" lon="5.758931">
        <ele>30.887657</ele>
        <time>2023-03-05T08:07:02.000Z</time>
      </trkpt>
      <trkpt lat="51.115941" lon="5.759025">
        <ele>30.893875</ele>
        <time>2023-03-05T08:07:03.000Z</time>
      </trkpt>
      <trkpt lat="51.115940" lon="5.759115">
        <ele>30.899821</ele>
        <time>2023-03-05T08:07:04.000Z</time>
      </trkpt>
      <trkpt lat="51.115940" lon="5.759202">
        <ele>30.905568</ele>
        <time>2023-03-05T08:07:05.000Z</time>
      </trkpt>
      <trkpt lat="51.115942" lon="5.759294">
        <ele>30.911648</ele>
        <time>2023-03-05T08:07:06.000Z</time>
      </trkpt>
      <trkpt lat="51.115946" lon="5.759386">
        <ele>30.917740</ele>
        <time>2023-03-05T08:07:07.000Z</time>
      </trkpt>
      <trkpt lat="51.115948" lon="5.759478">
        <ele>30.923821</ele>
        <time>2023-03-05T08:07:08.000Z</time>
      </trkpt>
      <trkpt lat="51.115950" lon="5.759578">
        <ele>30.930430</ele>
        <time>2023-03-05T08:07:09.000Z</time>
      </trkpt>
      <trkpt lat="51.115952" lon="5.759682">
        <ele>30.937303</ele>
        <time>2023-03-05T08:07:10.000Z</time>
      </trkpt>
      <trkpt lat="51.115949" lon="5.759786">
        <ele>30.944180</ele>
        <time>2023-03-05T08:07:11.000Z</time>
      </trkpt>
      <trkpt lat="51.115945" lon="5.759891">
        <ele>30.951129</ele>
        <time>2023-03-05T08:07:12.000Z</time>
      </trkpt>
      <trkpt lat="51.115944" lon="5.759992">
        <ele>30.957801</ele>
        <time>2023-03-05T08:07:13.000Z</time>
      </trkpt>
      <trkpt lat="51.115942" lon="5.760096">
        <ele>30.964674</ele>
        <time>2023-03-05T08:07:14.000Z</time>
      </trkpt>
      <trkpt lat="51.115938" lon="5.760201">
        <ele>30.971623</ele>
        <time>2023-03-05T08:07:15.000Z</time>
      </trkpt>
      <trkpt lat="51.115932" lon="5.760303">
        <ele>30.978390</ele>
        <time>2023-03-05T08:07:16.000Z</time>
      </trkpt>
      <trkpt lat="51.115924" lon="5.760406">
        <ele>30.985246</ele>
        <time>2023-03-05T08:07:17.000Z</time>
      </trkpt>
      <trkpt lat="51.115916" lon="5.760507">
        <ele>30.991971</ele>
        <time>2023-03-05T08:07:18.000Z</time>
      </trkpt>
      <trkpt lat="51.115906" lon="5.760610">
        <ele>30.998855</ele>
        <time>2023-03-05T08:07:19.000Z</time>
      </trkpt>
      <trkpt lat="51.115895" lon="5.760710">
        <ele>31.005562</ele>
        <time>2023-03-05T08:07:20.000Z</time>
      </trkpt>
      <trkpt lat="51.115888" lon="5.760805">
        <ele>31.011880</ele>
        <time>2023-03-05T08:07:21.000Z</time>
      </trkpt>
      <trkpt lat="51.115880" lon="5.760900">
        <ele>31.018212</ele>
        <time>2023-03-05T08:07:22.000Z</time>
      </trkpt>
      <trkpt lat="51.115868" lon="5.760998">
        <ele>31.026000</ele>
        <time>2023-03-05T08:07:23.000Z</time>
      </trkpt>
      <trkpt lat="51.115852" lon="5.761098">
        <ele>31.039931</ele>
        <time>2023-03-05T08:07:24.000Z</time>
      </trkpt>
      <trkpt lat="51.115833" lon="5.761196">
        <ele>31.053777</ele>
        <time>2023-03-05T08:07:25.000Z</time>
      </trkpt>
      <trkpt lat="51.115821" lon="5.761283">
        <ele>31.065802</ele>
        <time>2023-03-05T08:07:26.000Z</time>
      </trkpt>
      <trkpt lat="51.115813" lon="5.761372">
        <ele>31.077939</ele>
        <time>2023-03-05T08:07:27.000Z</time>
      </trkpt>
      <trkpt lat="51.115806" lon="5.761463">
        <ele>31.090316</ele>
        <time>2023-03-05T08:07:28.000Z</time>
      </trkpt>
      <trkpt lat="51.115798" lon="5.761549">
        <ele>31.102052</ele>
        <time>2023-03-05T08:07:29.000Z</time>
      </trkpt>
      <trkpt lat="51.115788" lon="5.761632">
        <ele>31.113462</ele>
        <time>2023-03-05T08:07:30.000Z</time>
      </trkpt>
      <trkpt lat="51.115777" lon="5.761717">
        <ele>31.125177</ele>
        <time>2023-03-05T08:07:31.000Z</time>
      </trkpt>
      <trkpt lat="51.115765" lon="5.761807">
        <ele>31.137598</ele>
        <time>2023-03-05T08:07:32.000Z</time>
      </trkpt>
      <trkpt lat="51.115756" lon="5.761896">
        <ele>31.149768</ele>
        <time>2023-03-05T08:07:33.000Z</time>
      </trkpt>
      <trkpt lat="51.115744" lon="5.761988">
        <ele>31.162453</ele>
        <time>2023-03-05T08:07:34.000Z</time>
      </trkpt>
      <trkpt lat="51.115731" lon="5.762076">
        <ele>31.174657</ele>
        <time>2023-03-05T08:07:35.000Z</time>
      </trkpt>
      <trkpt lat="51.115722" lon="5.762161">
        <ele>31.186294</ele>
        <time>2023-03-05T08:07:36.000Z</time>
      </trkpt>
      <trkpt lat="51.115712" lon="5.762250">
        <ele>31.198499</ele>
        <time>2023-03-05T08:07:37.000Z</time>
      </trkpt>
      <trkpt lat="51.115700" lon="5.762341">
        <ele>31.211052</ele>
        <time>2023-03-05T08:07:38.000Z</time>
      </trkpt>
      <trkpt lat="51.115691" lon="5.762429">
        <ele>31.223088</ele>
        <time>2023-03-05T08:07:39.000Z</time>
      </trkpt>
      <trkpt lat="51.115681" lon="5.762525">
        <ele>31.236225</ele>
        <time>2023-03-05T08:07:40.000Z</time>
      </trkpt>
      <trkpt lat="51.115667" lon="5.762634">
        <ele>31.251245</ele>
        <time>2023-03-05T08:07:41.000Z</time>
      </trkpt>
      <trkpt lat="51.115654" lon="5.762732">
        <ele>31.264767</ele>
        <time>2023-03-05T08:07:42.000Z</time>
      </trkpt>
      <trkpt lat="51.115643" lon="5.762832">
        <ele>31.278472</ele>
        <time>2023-03-05T08:07:43.000Z</time>
      </trkpt>
      <trkpt lat="51.115629" lon="5.762939">
        <ele>31.293227</ele>
        <time>2023-03-05T08:07:44.000Z</time>
      </trkpt>
      <trkpt lat="51.115614" lon="5.763045">
        <ele>31.307896</ele>
        <time>2023-03-05T08:07:45.000Z</time>
      </trkpt>
      <trkpt lat="51.115601" lon="5.763148">
        <ele>31.322079</ele>
        <time>2023-03-05T08:07:46.000Z</time>
      </trkpt>
      <trkpt lat="51.115587" lon="5.763251">
        <ele>31.336306</ele>
        <time>2023-03-05T08:07:47.000Z</time>
      </trkpt>
      <trkpt lat="51.115575" lon="5.763349">
        <ele>31.349785</ele>
        <time>2023-03-05T08:07:48.000Z</time>
      </trkpt>
      <trkpt lat="51.115561" lon="5.763450">
        <ele>31.363748</ele>
        <time>2023-03-05T08:07:49.000Z</time>
      </trkpt>
      <trkpt lat="51.115548" lon="5.763553">
        <ele>31.377931</ele>
        <time>2023-03-05T08:07:50.000Z</time>
      </trkpt>
      <trkpt lat="51.115534" lon="5.763656">
        <ele>31.392158</ele>
        <time>2023-03-05T08:07:51.000Z</time>
      </trkpt>
      <trkpt lat="51.115521" lon="5.763769">
        <ele>31.407666</ele>
        <time>2023-03-05T08:07:52.000Z</time>
      </trkpt>
      <trkpt lat="51.115510" lon="5.763890">
        <ele>31.431233</ele>
        <time>2023-03-05T08:07:53.000Z</time>
      </trkpt>
      <trkpt lat="51.115493" lon="5.764003">
        <ele>31.454998</ele>
        <time>2023-03-05T08:07:54.000Z</time>
      </trkpt>
      <trkpt lat="51.115477" lon="5.764110">
        <ele>31.477493</ele>
        <time>2023-03-05T08:07:55.000Z</time>
      </trkpt>
      <trkpt lat="51.115459" lon="5.764215">
        <ele>31.499754</ele>
        <time>2023-03-05T08:07:56.000Z</time>
      </trkpt>
      <trkpt lat="51.115445" lon="5.764318">
        <ele>31.521307</ele>
        <time>2023-03-05T08:07:57.000Z</time>
      </trkpt>
      <trkpt lat="51.115433" lon="5.764421">
        <ele>31.542733</ele>
        <time>2023-03-05T08:07:58.000Z</time>
      </trkpt>
      <trkpt lat="51.115419" lon="5.764530">
        <ele>31.565487</ele>
        <time>2023-03-05T08:07:59.000Z</time>
      </trkpt>
      <trkpt lat="51.115407" lon="5.764632">
        <ele>31.586711</ele>
        <time>2023-03-05T08:08:00.000Z</time>
      </trkpt>
      <trkpt lat="51.115395" lon="5.764730">
        <ele>31.607131</ele>
        <time>2023-03-05T08:08:01.000Z</time>
      </trkpt>
      <trkpt lat="51.115381" lon="5.764826">
        <ele>31.627288</ele>
        <time>2023-03-05T08:08:02.000Z</time>
      </trkpt>
      <trkpt lat="51.115366" lon="5.764924">
        <ele>31.647918</ele>
        <time>2023-03-05T08:08:03.000Z</time>
      </trkpt>
      <trkpt lat="51.115351" lon="5.765023">
        <ele>31.668747</ele>
        <time>2023-03-05T08:08:04.000Z</time>
      </trkpt>
      <trkpt lat="51.115338" lon="5.765125">
        <ele>31.690033</ele>
        <time>2023-03-05T08:08:05.000Z</time>
      </trkpt>
      <trkpt lat="51.115329" lon="5.765225">
        <ele>31.710694</ele>
        <time>2023-03-05T08:08:06.000Z</time>
      </trkpt>
      <trkpt lat="51.115316" lon="5.765327">
        <ele>31.731981</ele>
        <time>2023-03-05T08:08:07.000Z</time>
      </trkpt>
      <trkpt lat="51.115304" lon="5.765430">
        <ele>31.753406</ele>
        <time>2023-03-05T08:08:08.000Z</time>
      </trkpt>
      <trkpt lat="51.115290" lon="5.765532">
        <ele>31.774759</ele>
        <time>2023-03-05T08:08:09.000Z</time>
      </trkpt>
      <trkpt lat="51.115277" lon="5.765627">
        <ele>31.794645</ele>
        <time>2023-03-05T08:08:10.000Z</time>
      </trkpt>
      <trkpt lat="51.115265" lon="5.765719">
        <ele>31.813863</ele>
        <time>2023-03-05T08:08:11.000Z</time>
      </trkpt>
      <trkpt lat="51.115251" lon="5.765813">
        <ele>31.833621</ele>
        <time>2023-03-05T08:08:12.000Z</time>
      </trkpt>
      <trkpt lat="51.115239" lon="5.765905">
        <ele>31.852839</ele>
        <time>2023-03-05T08:08:13.000Z</time>
      </trkpt>
      <trkpt lat="51.115227" lon="5.766001">
        <ele>31.872858</ele>
        <time>2023-03-05T08:08:14.000Z</time>
      </trkpt>
      <trkpt lat="51.115218" lon="5.766094">
        <ele>31.892103</ele>
        <time>2023-03-05T08:08:15.000Z</time>
      </trkpt>
      <trkpt lat="51.115213" lon="5.766184">
        <ele>31.910581</ele>
        <time>2023-03-05T08:08:16.000Z</time>
      </trkpt>
      <trkpt lat="51.115209" lon="5.766268">
        <ele>31.927810</ele>
        <time>2023-03-05T08:08:17.000Z</time>
      </trkpt>
      <trkpt lat="51.115203" lon="5.766349">
        <ele>31.944491</ele>
        <time>2023-03-05T08:08:18.000Z</time>
      </trkpt>
      <trkpt lat="51.115195" lon="5.766429">
        <ele>31.961059</ele>
        <time>2023-03-05T08:08:19.000Z</time>
      </trkpt>
      <trkpt lat="51.115192" lon="5.766515">
        <ele>31.978675</ele>
        <time>2023-03-05T08:08:20.000Z</time>
      </trkpt>
      <trkpt lat="51.115192" lon="5.766605">
        <ele>31.996280</ele>
        <time>2023-03-05T08:08:21.000Z</time>
      </trkpt>
      <trkpt lat="51.115190" lon="5.766689">
        <ele>31.991803</ele>
        <time>2023-03-05T08:08:22.000Z</time>
      </trkpt>
      <trkpt lat="51.115186" lon="5.766773">
        <ele>31.987315</ele>
        <time>2023-03-05T08:08:23.000Z</time>
      </trkpt>
      <trkpt lat="51.115178" lon="5.766870">
        <ele>31.982104</ele>
        <time>2023-03-05T08:08:24.000Z</time>
      </trkpt>
      <trkpt lat="51.115171" lon="5.766980">
        <ele>31.976215</ele>
        <time>2023-03-05T08:08:25.000Z</time>
      </trkpt>
      <trkpt lat="51.115165" lon="5.767087">
        <ele>31.970492</ele>
        <time>2023-03-05T08:08:26.000Z</time>
      </trkpt>
      <trkpt lat="51.115150" lon="5.767206">
        <ele>31.964027</ele>
        <time>2023-03-05T08:08:27.000Z</time>
      </trkpt>
      <trkpt lat="51.115126" lon="5.767325">
        <ele>31.957369</ele>
        <time>2023-03-05T08:08:28.000Z</time>
      </trkpt>
      <trkpt lat="51.115100" lon="5.767433">
        <ele>31.951208</ele>
        <time>2023-03-05T08:08:29.000Z</time>
      </trkpt>
      <trkpt lat="51.115065" lon="5.767528">
        <ele>31.945340</ele>
        <time>2023-03-05T08:08:30.000Z</time>
      </trkpt>
      <trkpt lat="51.115022" lon="5.767614">
        <ele>31.939484</ele>
        <time>2023-03-05T08:08:31.000Z</time>
      </trkpt>
      <trkpt lat="51.114979" lon="5.767699">
        <ele>31.933669</ele>
        <time>2023-03-05T08:08:32.000Z</time>
      </trkpt>
      <trkpt lat="51.114928" lon="5.767780">
        <ele>31.927558</ele>
        <time>2023-03-05T08:08:33.000Z</time>
      </trkpt>
      <trkpt lat="51.114870" lon="5.767860">
        <ele>31.921048</ele>
        <time>2023-03-05T08:08:34.000Z</time>
      </trkpt>
      <trkpt lat="51.114818" lon="5.767935">
        <ele>31.915095</ele>
        <time>2023-03-05T08:08:35.000Z</time>
      </trkpt>
      <trkpt lat="51.114774" lon="5.768000">
        <ele>31.910003</ele>
        <time>2023-03-05T08:08:36.000Z</time>
      </trkpt>
      <trkpt lat="51.114729" lon="5.768069">
        <ele>31.904704</ele>
        <time>2023-03-05T08:08:37.000Z</time>
      </trkpt>
      <trkpt lat="51.114685" lon="5.768145">
        <ele>31.899196</ele>
        <time>2023-03-05T08:08:38.000Z</time>
      </trkpt>
      <trkpt lat="51.114639" lon="5.768217">
        <ele>31.893724</ele>
        <time>2023-03-05T08:08:39.000Z</time>
      </trkpt>
      <trkpt lat="51.114594" lon="5.768283">
        <ele>31.888534</ele>
        <time>2023-03-05T08:08:40.000Z</time>
      </trkpt>
      <trkpt lat="51.114552" lon="5.768349">
        <ele>31.883528</ele>
        <time>2023-03-05T08:08:41.000Z</time>
      </trkpt>
      <trkpt lat="51.114508" lon="5.768417">
        <ele>31.878326</ele>
        <time>2023-03-05T08:08:42.000Z</time>
      </trkpt>
      <trkpt lat="51.114464" lon="5.768480">
        <ele>31.873306</ele>
        <time>2023-03-05T08:08:43.000Z</time>
      </trkpt>
      <trkpt lat="51.114422" lon="5.768537">
        <ele>31.868624</ele>
        <time>2023-03-05T08:08:44.000Z</time>
      </trkpt>
      <trkpt lat="51.114383" lon="5.768589">
        <ele>31.864308</ele>
        <time>2023-03-05T08:08:45.000Z</time>
      </trkpt>
      <trkpt lat="51.114342" lon="5.768642">
        <ele>31.859828</ele>
        <time>2023-03-05T08:08:46.000Z</time>
      </trkpt>
      <trkpt lat="51.114303" lon="5.768695">
        <ele>31.855478</ele>
        <time>2023-03-05T08:08:47.000Z</time>
      </trkpt>
      <trkpt lat="51.114265" lon="5.768747">
        <ele>31.851227</ele>
        <time>2023-03-05T08:08:48.000Z</time>
      </trkpt>
      <trkpt lat="51.114224" lon="5.768799">
        <ele>31.846780</ele>
        <time>2023-03-05T08:08:49.000Z</time>
      </trkpt>
      <trkpt lat="51.114189" lon="5.768850">
        <ele>31.838939</ele>
        <time>2023-03-05T08:08:50.000Z</time>
      </trkpt>
      <trkpt lat="51.114156" lon="5.768896">
        <ele>31.821944</ele>
        <time>2023-03-05T08:08:51.000Z</time>
      </trkpt>
      <trkpt lat="51.114117" lon="5.768943">
        <ele>31.802990</ele>
        <time>2023-03-05T08:08:52.000Z</time>
      </trkpt>
      <trkpt lat="51.114073" lon="5.768998">
        <ele>31.781314</ele>
        <time>2023-03-05T08:08:53.000Z</time>
      </trkpt>
      <trkpt lat="51.114022" lon="5.769062">
        <ele>31.756152</ele>
        <time>2023-03-05T08:08:54.000Z</time>
      </trkpt>
      <trkpt lat="51.113972" lon="5.769129">
        <ele>31.730829</ele>
        <time>2023-03-05T08:08:55.000Z</time>
      </trkpt>
      <trkpt lat="51.113922" lon="5.769195">
        <ele>31.705663</ele>
        <time>2023-03-05T08:08:56.000Z</time>
      </trkpt>
      <trkpt lat="51.113867" lon="5.769259">
        <ele>31.679265</ele>
        <time>2023-03-05T08:08:57.000Z</time>
      </trkpt>
      <trkpt lat="51.113812" lon="5.769325">
        <ele>31.652577</ele>
        <time>2023-03-05T08:08:58.000Z</time>
      </trkpt>
      <trkpt lat="51.113762" lon="5.769392">
        <ele>31.627255</ele>
        <time>2023-03-05T08:08:59.000Z</time>
      </trkpt>
      <trkpt lat="51.113712" lon="5.769460">
        <ele>31.601775</ele>
        <time>2023-03-05T08:09:00.000Z</time>
      </trkpt>
      <trkpt lat="51.113660" lon="5.769526">
        <ele>31.576006</ele>
        <time>2023-03-05T08:09:01.000Z</time>
      </trkpt>
      <trkpt lat="51.113609" lon="5.769594">
        <ele>31.550230</ele>
        <time>2023-03-05T08:09:02.000Z</time>
      </trkpt>
      <trkpt lat="51.113561" lon="5.769662">
        <ele>31.525335</ele>
        <time>2023-03-05T08:09:03.000Z</time>
      </trkpt>
      <trkpt lat="51.113516" lon="5.769726">
        <ele>31.501955</ele>
        <time>2023-03-05T08:09:04.000Z</time>
      </trkpt>
      <trkpt lat="51.113469" lon="5.769784">
        <ele>31.478913</ele>
        <time>2023-03-05T08:09:05.000Z</time>
      </trkpt>
      <trkpt lat="51.113419" lon="5.769845">
        <ele>31.454504</ele>
        <time>2023-03-05T08:09:06.000Z</time>
      </trkpt>
      <trkpt lat="51.113368" lon="5.769906">
        <ele>31.429786</ele>
        <time>2023-03-05T08:09:07.000Z</time>
      </trkpt>
      <trkpt lat="51.113317" lon="5.769971">
        <ele>31.404473</ele>
        <time>2023-03-05T08:09:08.000Z</time>
      </trkpt>
      <trkpt lat="51.113266" lon="5.770040">
        <ele>31.378540</ele>
        <time>2023-03-05T08:09:09.000Z</time>
      </trkpt>
      <trkpt lat="51.113214" lon="5.770109">
        <ele>31.352310</ele>
        <time>2023-03-05T08:09:10.000Z</time>
      </trkpt>
      <trkpt lat="51.113163" lon="5.770177">
        <ele>31.326534</ele>
        <time>2023-03-05T08:09:11.000Z</time>
      </trkpt>
      <trkpt lat="51.113110" lon="5.770247">
        <ele>31.299851</ele>
        <time>2023-03-05T08:09:12.000Z</time>
      </trkpt>
      <trkpt lat="51.113062" lon="5.770319">
        <ele>31.274298</ele>
        <time>2023-03-05T08:09:13.000Z</time>
      </trkpt>
      <trkpt lat="51.113014" lon="5.770388">
        <ele>31.249240</ele>
        <time>2023-03-05T08:09:14.000Z</time>
      </trkpt>
      <trkpt lat="51.112969" lon="5.770457">
        <ele>31.225032</ele>
        <time>2023-03-05T08:09:15.000Z</time>
      </trkpt>
      <trkpt lat="51.112925" lon="5.770526">
        <ele>31.201103</ele>
        <time>2023-03-05T08:09:16.000Z</time>
      </trkpt>
      <trkpt lat="51.112879" lon="5.770589">
        <ele>31.177591</ele>
        <time>2023-03-05T08:09:17.000Z</time>
      </trkpt>
      <trkpt lat="51.112836" lon="5.770647">
        <ele>31.155754</ele>
        <time>2023-03-05T08:09:18.000Z</time>
      </trkpt>
      <trkpt lat="51.112794" lon="5.770707">
        <ele>31.157506</ele>
        <time>2023-03-05T08:09:19.000Z</time>
      </trkpt>
      <trkpt lat="51.112747" lon="5.770773">
        <ele>31.177848</ele>
        <time>2023-03-05T08:09:20.000Z</time>
      </trkpt>
      <trkpt lat="51.112699" lon="5.770839">
        <ele>31.198435</ele>
        <time>2023-03-05T08:09:21.000Z</time>
      </trkpt>
      <trkpt lat="51.112653" lon="5.770905">
        <ele>31.218535</ele>
        <time>2023-03-05T08:09:22.000Z</time>
      </trkpt>
      <trkpt lat="51.112603" lon="5.770973">
        <ele>31.239880</ele>
        <time>2023-03-05T08:09:23.000Z</time>
      </trkpt>
      <trkpt lat="51.112552" lon="5.771044">
        <ele>31.261870</ele>
        <time>2023-03-05T08:09:24.000Z</time>
      </trkpt>
      <trkpt lat="51.112503" lon="5.771116">
        <ele>31.283514</ele>
        <time>2023-03-05T08:09:25.000Z</time>
      </trkpt>
      <trkpt lat="51.112453" lon="5.771187">
        <ele>31.305261</ele>
        <time>2023-03-05T08:09:26.000Z</time>
      </trkpt>
      <trkpt lat="51.112404" lon="5.771251">
        <ele>31.325834</ele>
        <time>2023-03-05T08:09:27.000Z</time>
      </trkpt>
      <trkpt lat="51.112354" lon="5.771309">
        <ele>31.345916</ele>
        <time>2023-03-05T08:09:28.000Z</time>
      </trkpt>
      <trkpt lat="51.112310" lon="5.771366">
        <ele>31.364329</ele>
        <time>2023-03-05T08:09:29.000Z</time>
      </trkpt>
      <trkpt lat="51.112265" lon="5.771426">
        <ele>31.383381</ele>
        <time>2023-03-05T08:09:30.000Z</time>
      </trkpt>
      <trkpt lat="51.112219" lon="5.771488">
        <ele>31.402945</ele>
        <time>2023-03-05T08:09:31.000Z</time>
      </trkpt>
      <trkpt lat="51.112173" lon="5.771548">
        <ele>31.422248</ele>
        <time>2023-03-05T08:09:32.000Z</time>
      </trkpt>
      <trkpt lat="51.112125" lon="5.771610">
        <ele>31.442312</ele>
        <time>2023-03-05T08:09:33.000Z</time>
      </trkpt>
      <trkpt lat="51.112075" lon="5.771674">
        <ele>31.463137</ele>
        <time>2023-03-05T08:09:34.000Z</time>
      </trkpt>
      <trkpt lat="51.112028" lon="5.771736">
        <ele>31.482949</ele>
        <time>2023-03-05T08:09:35.000Z</time>
      </trkpt>
      <trkpt lat="51.111980" lon="5.771798">
        <ele>31.503013</ele>
        <time>2023-03-05T08:09:36.000Z</time>
      </trkpt>
      <trkpt lat="51.111930" lon="5.771865">
        <ele>31.524227</ele>
        <time>2023-03-05T08:09:37.000Z</time>
      </trkpt>
      <trkpt lat="51.111878" lon="5.771931">
        <ele>31.545813</ele>
        <time>2023-03-05T08:09:38.000Z</time>
      </trkpt>
      <trkpt lat="51.111825" lon="5.771993">
        <ele>31.567163</ele>
        <time>2023-03-05T08:09:39.000Z</time>
      </trkpt>
      <trkpt lat="51.111770" lon="5.772057">
        <ele>31.589276</ele>
        <time>2023-03-05T08:09:40.000Z</time>
      </trkpt>
      <trkpt lat="51.111712" lon="5.772125">
        <ele>31.612658</ele>
        <time>2023-03-05T08:09:41.000Z</time>
      </trkpt>
      <trkpt lat="51.111652" lon="5.772191">
        <ele>31.636331</ele>
        <time>2023-03-05T08:09:42.000Z</time>
      </trkpt>
      <trkpt lat="51.111592" lon="5.772249">
        <ele>31.659118</ele>
        <time>2023-03-05T08:09:43.000Z</time>
      </trkpt>
      <trkpt lat="51.111533" lon="5.772299">
        <ele>31.680815</ele>
        <time>2023-03-05T08:09:44.000Z</time>
      </trkpt>
      <trkpt lat="51.111469" lon="5.772339">
        <ele>31.703136</ele>
        <time>2023-03-05T08:09:45.000Z</time>
      </trkpt>
      <trkpt lat="51.111400" lon="5.772370">
        <ele>31.726412</ele>
        <time>2023-03-05T08:09:46.000Z</time>
      </trkpt>
      <trkpt lat="51.111332" lon="5.772394">
        <ele>31.735896</ele>
        <time>2023-03-05T08:09:47.000Z</time>
      </trkpt>
      <trkpt lat="51.111263" lon="5.772416">
        <ele>31.742378</ele>
        <time>2023-03-05T08:09:48.000Z</time>
      </trkpt>
      <trkpt lat="51.111194" lon="5.772436">
        <ele>31.748839</ele>
        <time>2023-03-05T08:09:49.000Z</time>
      </trkpt>
      <trkpt lat="51.111125" lon="5.772455">
        <ele>31.755289</ele>
        <time>2023-03-05T08:09:50.000Z</time>
      </trkpt>
      <trkpt lat="51.111059" lon="5.772472">
        <ele>31.761448</ele>
        <time>2023-03-05T08:09:51.000Z</time>
      </trkpt>
      <trkpt lat="51.110994" lon="5.772489">
        <ele>31.767515</ele>
        <time>2023-03-05T08:09:52.000Z</time>
      </trkpt>
      <trkpt lat="51.110928" lon="5.772508">
        <ele>31.773693</ele>
        <time>2023-03-05T08:09:53.000Z</time>
      </trkpt>
      <trkpt lat="51.110862" lon="5.772529">
        <ele>31.779893</ele>
        <time>2023-03-05T08:09:54.000Z</time>
      </trkpt>
      <trkpt lat="51.110796" lon="5.772551">
        <ele>31.786104</ele>
        <time>2023-03-05T08:09:55.000Z</time>
      </trkpt>
      <trkpt lat="51.110733" lon="5.772573">
        <ele>31.792046</ele>
        <time>2023-03-05T08:09:56.000Z</time>
      </trkpt>
      <trkpt lat="51.110667" lon="5.772592">
        <ele>31.798224</ele>
        <time>2023-03-05T08:09:57.000Z</time>
      </trkpt>
      <trkpt lat="51.110604" lon="5.772612">
        <ele>31.804141</ele>
        <time>2023-03-05T08:09:58.000Z</time>
      </trkpt>
      <trkpt lat="51.110547" lon="5.772636">
        <ele>31.809572</ele>
        <time>2023-03-05T08:09:59.000Z</time>
      </trkpt>
      <trkpt lat="51.110494" lon="5.772658">
        <ele>31.814617</ele>
        <time>2023-03-05T08:10:00.000Z</time>
      </trkpt>
      <trkpt lat="51.110438" lon="5.772678">
        <ele>31.819904</ele>
        <time>2023-03-05T08:10:01.000Z</time>
      </trkpt>
      <trkpt lat="51.110378" lon="5.772699">
        <ele>31.825563</ele>
        <time>2023-03-05T08:10:02.000Z</time>
      </trkpt>
      <trkpt lat="51.110315" lon="5.772714">
        <ele>31.831430</ele>
        <time>2023-03-05T08:10:03.000Z</time>
      </trkpt>
      <trkpt lat="51.110247" lon="5.772723">
        <ele>31.837716</ele>
        <time>2023-03-05T08:10:04.000Z</time>
      </trkpt>
      <trkpt lat="51.110181" lon="5.772726">
        <ele>31.843798</ele>
        <time>2023-03-05T08:10:05.000Z</time>
      </trkpt>
      <trkpt lat="51.110115" lon="5.772725">
        <ele>31.849878</ele>
        <time>2023-03-05T08:10:06.000Z</time>
      </trkpt>
      <trkpt lat="51.110048" lon="5.772721">
        <ele>31.856054</ele>
        <time>2023-03-05T08:10:07.000Z</time>
      </trkpt>
      <trkpt lat="51.109980" lon="5.772715">
        <ele>31.862327</ele>
        <time>2023-03-05T08:10:08.000Z</time>
      </trkpt>
      <trkpt lat="51.109912" lon="5.772703">
        <ele>31.868630</ele>
        <time>2023-03-05T08:10:09.000Z</time>
      </trkpt>
      <trkpt lat="51.109846" lon="5.772692">
        <ele>31.874742</ele>
        <time>2023-03-05T08:10:10.000Z</time>
      </trkpt>
      <trkpt lat="51.109780" lon="5.772681">
        <ele>31.880855</ele>
        <time>2023-03-05T08:10:11.000Z</time>
      </trkpt>
      <trkpt lat="51.109716" lon="5.772668">
        <ele>31.886798</ele>
        <time>2023-03-05T08:10:12.000Z</time>
      </trkpt>
      <trkpt lat="51.109652" lon="5.772654">
        <ele>31.892749</ele>
        <time>2023-03-05T08:10:13.000Z</time>
      </trkpt>
      <trkpt lat="51.109586" lon="5.772639">
        <ele>31.891756</ele>
        <time>2023-03-05T08:10:14.000Z</time>
      </trkpt>
      <trkpt lat="51.109521" lon="5.772625">
        <ele>31.880634</ele>
        <time>2023-03-05T08:10:15.000Z</time>
      </trkpt>
      <trkpt lat="51.109459" lon="5.772614">
        <ele>31.870056</ele>
        <time>2023-03-05T08:10:16.000Z</time>
      </trkpt>
      <trkpt lat="51.109397" lon="5.772604">
        <ele>31.859489</ele>
        <time>2023-03-05T08:10:17.000Z</time>
      </trkpt>
      <trkpt lat="51.109334" lon="5.772595">
        <ele>31.848763</ele>
        <time>2023-03-05T08:10:18.000Z</time>
      </trkpt>
      <trkpt lat="51.109272" lon="5.772586">
        <ele>31.838206</ele>
        <time>2023-03-05T08:10:19.000Z</time>
      </trkpt>
      <trkpt lat="51.109211" lon="5.772579">
        <ele>31.827836</ele>
        <time>2023-03-05T08:10:20.000Z</time>
      </trkpt>
      <trkpt lat="51.109150" lon="5.772576">
        <ele>31.817488</ele>
        <time>2023-03-05T08:10:21.000Z</time>
      </trkpt>
      <trkpt lat="51.109086" lon="5.772574">
        <ele>31.806633</ele>
        <time>2023-03-05T08:10:22.000Z</time>
      </trkpt>
      <trkpt lat="51.109027" lon="5.772573">
        <ele>31.796628</ele>
        <time>2023-03-05T08:10:23.000Z</time>
      </trkpt>
      <trkpt lat="51.108970" lon="5.772573">
        <ele>31.786963</ele>
        <time>2023-03-05T08:10:24.000Z</time>
      </trkpt>
      <trkpt lat="51.108910" lon="5.772572">
        <ele>31.776788</ele>
        <time>2023-03-05T08:10:25.000Z</time>
      </trkpt>
      <trkpt lat="51.108846" lon="5.772571">
        <ele>31.765935</ele>
        <time>2023-03-05T08:10:26.000Z</time>
      </trkpt>
      <trkpt lat="51.108783" lon="5.772571">
        <ele>31.755253</ele>
        <time>2023-03-05T08:10:27.000Z</time>
      </trkpt>
      <trkpt lat="51.108720" lon="5.772575">
        <ele>31.744561</ele>
        <time>2023-03-05T08:10:28.000Z</time>
      </trkpt>
      <trkpt lat="51.108655" lon="5.772586">
        <ele>31.733477</ele>
        <time>2023-03-05T08:10:29.000Z</time>
      </trkpt>
      <trkpt lat="51.108593" lon="5.772606">
        <ele>31.722751</ele>
        <time>2023-03-05T08:10:30.000Z</time>
      </trkpt>
      <trkpt lat="51.108532" lon="5.772635">
        <ele>31.711956</ele>
        <time>2023-03-05T08:10:31.000Z</time>
      </trkpt>
      <trkpt lat="51.108474" lon="5.772667">
        <ele>31.701548</ele>
        <time>2023-03-05T08:10:32.000Z</time>
      </trkpt>
      <trkpt lat="51.108414" lon="5.772702">
        <ele>31.690713</ele>
        <time>2023-03-05T08:10:33.000Z</time>
      </trkpt>
      <trkpt lat="51.108352" lon="5.772737">
        <ele>31.679559</ele>
        <time>2023-03-05T08:10:34.000Z</time>
      </trkpt>
      <trkpt lat="51.108294" lon="5.772772">
        <ele>31.669042</ele>
        <time>2023-03-05T08:10:35.000Z</time>
      </trkpt>
      <trkpt lat="51.108234" lon="5.772807">
        <ele>31.658207</ele>
        <time>2023-03-05T08:10:36.000Z</time>
      </trkpt>
      <trkpt lat="51.108176" lon="5.772842">
        <ele>31.647690</ele>
        <time>2023-03-05T08:10:37.000Z</time>
      </trkpt>
      <trkpt lat="51.108116" lon="5.772876">
        <ele>31.636891</ele>
        <time>2023-03-05T08:10:38.000Z</time>
      </trkpt>
      <trkpt lat="51.108056" lon="5.772911">
        <ele>31.626056</ele>
        <time>2023-03-05T08:10:39.000Z</time>
      </trkpt>
      <trkpt lat="51.107994" lon="5.772946">
        <ele>31.614902</ele>
        <time>2023-03-05T08:10:40.000Z</time>
      </trkpt>
      <trkpt lat="51.107933" lon="5.772977">
        <ele>31.604045</ele>
        <time>2023-03-05T08:10:41.000Z</time>
      </trkpt>
      <trkpt lat="51.107869" lon="5.773002">
        <ele>31.592871</ele>
        <time>2023-03-05T08:10:42.000Z</time>
      </trkpt>
      <trkpt lat="51.107807" lon="5.773017">
        <ele>31.582357</ele>
        <time>2023-03-05T08:10:43.000Z</time>
      </trkpt>
      <trkpt lat="51.107744" lon="5.773026">
        <ele>31.571772</ele>
        <time>2023-03-05T08:10:44.000Z</time>
      </trkpt>
      <trkpt lat="51.107677" lon="5.773032">
        <ele>31.560543</ele>
        <time>2023-03-05T08:10:45.000Z</time>
      </trkpt>
      <trkpt lat="51.107612" lon="5.773039">
        <ele>31.549640</ele>
        <time>2023-03-05T08:10:46.000Z</time>
      </trkpt>
      <trkpt lat="51.107549" lon="5.773046">
        <ele>31.539072</ele>
        <time>2023-03-05T08:10:47.000Z</time>
      </trkpt>
      <trkpt lat="51.107484" lon="5.773050">
        <ele>31.528187</ele>
        <time>2023-03-05T08:10:48.000Z</time>
      </trkpt>
      <trkpt lat="51.107419" lon="5.773055">
        <ele>31.517297</ele>
        <time>2023-03-05T08:10:49.000Z</time>
      </trkpt>
      <trkpt lat="51.107357" lon="5.773060">
        <ele>31.506908</ele>
        <time>2023-03-05T08:10:50.000Z</time>
      </trkpt>
      <trkpt lat="51.107296" lon="5.773065">
        <ele>31.496687</ele>
        <time>2023-03-05T08:10:51.000Z</time>
      </trkpt>
      <trkpt lat="51.107235" lon="5.773068">
        <ele>31.486474</ele>
        <time>2023-03-05T08:10:52.000Z</time>
      </trkpt>
      <trkpt lat="51.107175" lon="5.773069">
        <ele>31.476433</ele>
        <time>2023-03-05T08:10:53.000Z</time>
      </trkpt>
      <trkpt lat="51.107113" lon="5.773072">
        <ele>31.466052</ele>
        <time>2023-03-05T08:10:54.000Z</time>
      </trkpt>
      <trkpt lat="51.107050" lon="5.773074">
        <ele>31.455508</ele>
        <time>2023-03-05T08:10:55.000Z</time>
      </trkpt>
      <trkpt lat="51.106988" lon="5.773077">
        <ele>31.445128</ele>
        <time>2023-03-05T08:10:56.000Z</time>
      </trkpt>
      <trkpt lat="51.106926" lon="5.773079">
        <ele>31.434750</ele>
        <time>2023-03-05T08:10:57.000Z</time>
      </trkpt>
      <trkpt lat="51.106863" lon="5.773081">
        <ele>31.424205</ele>
        <time>2023-03-05T08:10:58.000Z</time>
      </trkpt>
      <trkpt lat="51.106800" lon="5.773083">
        <ele>31.413661</ele>
        <time>2023-03-05T08:10:59.000Z</time>
      </trkpt>
      <trkpt lat="51.106739" lon="5.773085">
        <ele>31.403451</ele>
        <time>2023-03-05T08:11:00.000Z</time>
      </trkpt>
      <trkpt lat="51.106678" lon="5.773088">
        <ele>31.393238</ele>
        <time>2023-03-05T08:11:01.000Z</time>
      </trkpt>
      <trkpt lat="51.106615" lon="5.773089">
        <ele>31.382695</ele>
        <time>2023-03-05T08:11:02.000Z</time>
      </trkpt>
      <trkpt lat="51.106555" lon="5.773093">
        <ele>31.372645</ele>
        <time>2023-03-05T08:11:03.000Z</time>
      </trkpt>
      <trkpt lat="51.106492" lon="5.773098">
        <ele>31.362089</ele>
        <time>2023-03-05T08:11:04.000Z</time>
      </trkpt>
      <trkpt lat="51.106430" lon="5.773102">
        <ele>31.351706</ele>
        <time>2023-03-05T08:11:05.000Z</time>
      </trkpt>
      <trkpt lat="51.106369" lon="5.773107">
        <ele>31.341484</ele>
        <time>2023-03-05T08:11:06.000Z</time>
      </trkpt>
      <trkpt lat="51.106309" lon="5.773113">
        <ele>31.331424</ele>
        <time>2023-03-05T08:11:07.000Z</time>
      </trkpt>
      <trkpt lat="51.106249" lon="5.773121">
        <ele>31.321348</ele>
        <time>2023-03-05T08:11:08.000Z</time>
      </trkpt>
      <trkpt lat="51.106189" lon="5.773132">
        <ele>31.311241</ele>
        <time>2023-03-05T08:11:09.000Z</time>
      </trkpt>
      <trkpt lat="51.106128" lon="5.773144">
        <ele>31.300955</ele>
        <time>2023-03-05T08:11:10.000Z</time>
      </trkpt>
      <trkpt lat="51.106068" lon="5.773155">
        <ele>31.290849</ele>
        <time>2023-03-05T08:11:11.000Z</time>
      </trkpt>
      <trkpt lat="51.106005" lon="5.773165">
        <ele>31.310508</ele>
        <time>2023-03-05T08:11:12.000Z</time>
      </trkpt>
      <trkpt lat="51.105942" lon="5.773174">
        <ele>31.331497</ele>
        <time>2023-03-05T08:11:13.000Z</time>
      </trkpt>
      <trkpt lat="51.105881" lon="5.773185">
        <ele>31.351868</ele>
        <time>2023-03-05T08:11:14.000Z</time>
      </trkpt>
      <trkpt lat="51.105820" lon="5.773197">
        <ele>31.372263</ele>
        <time>2023-03-05T08:11:15.000Z</time>
      </trkpt>
      <trkpt lat="51.105757" lon="5.773210">
        <ele>31.393343</ele>
        <time>2023-03-05T08:11:16.000Z</time>
      </trkpt>
      <trkpt lat="51.105695" lon="5.773222">
        <ele>31.414067</ele>
        <time>2023-03-05T08:11:17.000Z</time>
      </trkpt>
      <trkpt lat="51.105634" lon="5.773234">
        <ele>31.434463</ele>
        <time>2023-03-05T08:11:18.000Z</time>
      </trkpt>
      <trkpt lat="51.105574" lon="5.773248">
        <ele>31.454585</ele>
        <time>2023-03-05T08:11:19.000Z</time>
      </trkpt>
      <trkpt lat="51.105517" lon="5.773265">
        <ele>31.473827</ele>
        <time>2023-03-05T08:11:20.000Z</time>
      </trkpt>
      <trkpt lat="51.105463" lon="5.773286">
        <ele>31.492272</ele>
        <time>2023-03-05T08:11:21.000Z</time>
      </trkpt>
      <trkpt lat="51.105409" lon="5.773314">
        <ele>31.511117</ele>
        <time>2023-03-05T08:11:22.000Z</time>
      </trkpt>
      <trkpt lat="51.105360" lon="5.773350">
        <ele>31.529023</ele>
        <time>2023-03-05T08:11:23.000Z</time>
      </trkpt>
      <trkpt lat="51.105314" lon="5.773391">
        <ele>31.546515</ele>
        <time>2023-03-05T08:11:24.000Z</time>
      </trkpt>
      <trkpt lat="51.105273" lon="5.773429">
        <ele>31.562256</ele>
        <time>2023-03-05T08:11:25.000Z</time>
      </trkpt>
      <trkpt lat="51.105238" lon="5.773454">
        <ele>31.574984</ele>
        <time>2023-03-05T08:11:26.000Z</time>
      </trkpt>
      <trkpt lat="51.105203" lon="5.773456">
        <ele>31.586605</ele>
        <time>2023-03-05T08:11:27.000Z</time>
      </trkpt>
      <trkpt lat="51.105176" lon="5.773430">
        <ele>31.597075</ele>
        <time>2023-03-05T08:11:28.000Z</time>
      </trkpt>
      <trkpt lat="51.105160" lon="5.773382">
        <ele>31.608398</ele>
        <time>2023-03-05T08:11:29.000Z</time>
      </trkpt>
      <trkpt lat="51.105149" lon="5.773321">
        <ele>31.621621</ele>
        <time>2023-03-05T08:11:30.000Z</time>
      </trkpt>
      <trkpt lat="51.105140" lon="5.773251">
        <ele>31.636508</ele>
        <time>2023-03-05T08:11:31.000Z</time>
      </trkpt>
      <trkpt lat="51.105127" lon="5.773175">
        <ele>31.652920</ele>
        <time>2023-03-05T08:11:32.000Z</time>
      </trkpt>
      <trkpt lat="51.105112" lon="5.773094">
        <ele>31.670515</ele>
        <time>2023-03-05T08:11:33.000Z</time>
      </trkpt>
      <trkpt lat="51.105099" lon="5.773008">
        <ele>31.688945</ele>
        <time>2023-03-05T08:11:34.000Z</time>
      </trkpt>
      <trkpt lat="51.105088" lon="5.772918">
        <ele>31.708049</ele>
        <time>2023-03-05T08:11:35.000Z</time>
      </trkpt>
      <trkpt lat="51.105074" lon="5.772827">
        <ele>31.727569</ele>
        <time>2023-03-05T08:11:36.000Z</time>
      </trkpt>
      <trkpt lat="51.105059" lon="5.772736">
        <ele>31.747172</ele>
        <time>2023-03-05T08:11:37.000Z</time>
      </trkpt>
      <trkpt lat="51.105041" lon="5.772645">
        <ele>31.767050</ele>
        <time>2023-03-05T08:11:38.000Z</time>
      </trkpt>
      <trkpt lat="51.105022" lon="5.772553">
        <ele>31.787229</ele>
        <time>2023-03-05T08:11:39.000Z</time>
      </trkpt>
      <trkpt lat="51.105005" lon="5.772463">
        <ele>31.806811</ele>
        <time>2023-03-05T08:11:40.000Z</time>
      </trkpt>
      <trkpt lat="51.104985" lon="5.772375">
        <ele>31.826310</ele>
        <time>2023-03-05T08:11:41.000Z</time>
      </trkpt>
      <trkpt lat="51.104962" lon="5.772293">
        <ele>31.845022</ele>
        <time>2023-03-05T08:11:42.000Z</time>
      </trkpt>
      <trkpt lat="51.104937" lon="5.772213">
        <ele>31.863640</ele>
        <time>2023-03-05T08:11:43.000Z</time>
      </trkpt>
      <trkpt lat="51.104910" lon="5.772131">
        <ele>31.882932</ele>
        <time>2023-03-05T08:11:44.000Z</time>
      </trkpt>
      <trkpt lat="51.104884" lon="5.772050">
        <ele>31.899098</ele>
        <time>2023-03-05T08:11:45.000Z</time>
      </trkpt>
      <trkpt lat="51.104860" lon="5.771970">
        <ele>31.914057</ele>
        <time>2023-03-05T08:11:46.000Z</time>
      </trkpt>
      <trkpt lat="51.104835" lon="5.771883">
        <ele>31.930199</ele>
        <time>2023-03-05T08:11:47.000Z</time>
      </trkpt>
      <trkpt lat="51.104807" lon="5.771798">
        <ele>31.946394</ele>
        <time>2023-03-05T08:11:48.000Z</time>
      </trkpt>
      <trkpt lat="51.104783" lon="5.771714">
        <ele>31.961965</ele>
        <time>2023-03-05T08:11:49.000Z</time>
      </trkpt>
      <trkpt lat="51.104758" lon="5.771630">
        <ele>31.977648</ele>
        <time>2023-03-05T08:11:50.000Z</time>
      </trkpt>
      <trkpt lat="51.104733" lon="5.771545">
        <ele>31.993485</ele>
        <time>2023-03-05T08:11:51.000Z</time>
      </trkpt>
      <trkpt lat="51.104708" lon="5.771460">
        <ele>32.009321</ele>
        <time>2023-03-05T08:11:52.000Z</time>
      </trkpt>
      <trkpt lat="51.104682" lon="5.771376">
        <ele>32.025122</ele>
        <time>2023-03-05T08:11:53.000Z</time>
      </trkpt>
      <trkpt lat="51.104657" lon="5.771289">
        <ele>32.041264</ele>
        <time>2023-03-05T08:11:54.000Z</time>
      </trkpt>
      <trkpt lat="51.104634" lon="5.771203">
        <ele>32.057035</ele>
        <time>2023-03-05T08:11:55.000Z</time>
      </trkpt>
      <trkpt lat="51.104609" lon="5.771117">
        <ele>32.073025</ele>
        <time>2023-03-05T08:11:56.000Z</time>
      </trkpt>
      <trkpt lat="51.104585" lon="5.771034">
        <ele>32.088442</ele>
        <time>2023-03-05T08:11:57.000Z</time>
      </trkpt>
      <trkpt lat="51.104559" lon="5.770950">
        <ele>32.104242</ele>
        <time>2023-03-05T08:11:58.000Z</time>
      </trkpt>
      <trkpt lat="51.104533" lon="5.770861">
        <ele>32.120804</ele>
        <time>2023-03-05T08:11:59.000Z</time>
      </trkpt>
      <trkpt lat="51.104509" lon="5.770775">
        <ele>32.136682</ele>
        <time>2023-03-05T08:12:00.000Z</time>
      </trkpt>
      <trkpt lat="51.104483" lon="5.770692">
        <ele>32.152332</ele>
        <time>2023-03-05T08:12:01.000Z</time>
      </trkpt>
      <trkpt lat="51.104457" lon="5.770609">
        <ele>32.167981</ele>
        <time>2023-03-05T08:12:02.000Z</time>
      </trkpt>
      <trkpt lat="51.104432" lon="5.770525">
        <ele>32.183665</ele>
        <time>2023-03-05T08:12:03.000Z</time>
      </trkpt>
      <trkpt lat="51.104407" lon="5.770443">
        <ele>32.199045</ele>
        <time>2023-03-05T08:12:04.000Z</time>
      </trkpt>
      <trkpt lat="51.104380" lon="5.770361">
        <ele>32.214667</ele>
        <time>2023-03-05T08:12:05.000Z</time>
      </trkpt>
      <trkpt lat="51.104353" lon="5.770280">
        <ele>32.230139</ele>
        <time>2023-03-05T08:12:06.000Z</time>
      </trkpt>
      <trkpt lat="51.104329" lon="5.770198">
        <ele>32.245403</ele>
        <time>2023-03-05T08:12:07.000Z</time>
      </trkpt>
      <trkpt lat="51.104306" lon="5.770117">
        <ele>32.260402</ele>
        <time>2023-03-05T08:12:08.000Z</time>
      </trkpt>
      <trkpt lat="51.104281" lon="5.770039">
        <ele>32.275177</ele>
        <time>2023-03-05T08:12:09.000Z</time>
      </trkpt>
      <trkpt lat="51.104257" lon="5.769963">
        <ele>32.289530</ele>
        <time>2023-03-05T08:12:10.000Z</time>
      </trkpt>
      <trkpt lat="51.104231" lon="5.769885">
        <ele>32.304430</ele>
        <time>2023-03-05T08:12:11.000Z</time>
      </trkpt>
      <trkpt lat="51.104205" lon="5.769812">
        <ele>32.318590</ele>
        <time>2023-03-05T08:12:12.000Z</time>
      </trkpt>
      <trkpt lat="51.104171" lon="5.769747">
        <ele>32.332863</ele>
        <time>2023-03-05T08:12:13.000Z</time>
      </trkpt>
      <trkpt lat="51.104130" lon="5.769700">
        <ele>32.346437</ele>
        <time>2023-03-05T08:12:14.000Z</time>
      </trkpt>
      <trkpt lat="51.104082" lon="5.769679">
        <ele>32.359813</ele>
        <time>2023-03-05T08:12:15.000Z</time>
      </trkpt>
      <trkpt lat="51.104029" lon="5.769683">
        <ele>32.367977</ele>
        <time>2023-03-05T08:12:16.000Z</time>
      </trkpt>
      <trkpt lat="51.103975" lon="5.769709">
        <ele>32.357038</ele>
        <time>2023-03-05T08:12:17.000Z</time>
      </trkpt>
      <trkpt lat="51.103919" lon="5.769751">
        <ele>32.345036</ele>
        <time>2023-03-05T08:12:18.000Z</time>
      </trkpt>
      <trkpt lat="51.103864" lon="5.769797">
        <ele>32.332990</ele>
        <time>2023-03-05T08:12:19.000Z</time>
      </trkpt>
      <trkpt lat="51.103808" lon="5.769846">
        <ele>32.320601</ele>
        <time>2023-03-05T08:12:20.000Z</time>
      </trkpt>
      <trkpt lat="51.103754" lon="5.769895">
        <ele>32.308550</ele>
        <time>2023-03-05T08:12:21.000Z</time>
      </trkpt>
      <trkpt lat="51.103700" lon="5.769942">
        <ele>32.296618</ele>
        <time>2023-03-05T08:12:22.000Z</time>
      </trkpt>
      <trkpt lat="51.103644" lon="5.769990">
        <ele>32.284286</ele>
        <time>2023-03-05T08:12:23.000Z</time>
      </trkpt>
      <trkpt lat="51.103589" lon="5.770039">
        <ele>32.272067</ele>
        <time>2023-03-05T08:12:24.000Z</time>
      </trkpt>
      <trkpt lat="51.103536" lon="5.770088">
        <ele>32.260184</ele>
        <time>2023-03-05T08:12:25.000Z</time>
      </trkpt>
      <trkpt lat="51.103480" lon="5.770136">
        <ele>32.247852</ele>
        <time>2023-03-05T08:12:26.000Z</time>
      </trkpt>
      <trkpt lat="51.103425" lon="5.770182">
        <ele>32.235807</ele>
        <time>2023-03-05T08:12:27.000Z</time>
      </trkpt>
      <trkpt lat="51.103369" lon="5.770230">
        <ele>32.223476</ele>
        <time>2023-03-05T08:12:28.000Z</time>
      </trkpt>
      <trkpt lat="51.103312" lon="5.770278">
        <ele>32.210973</ele>
        <time>2023-03-05T08:12:29.000Z</time>
      </trkpt>
      <trkpt lat="51.103255" lon="5.770325">
        <ele>32.198527</ele>
        <time>2023-03-05T08:12:30.000Z</time>
      </trkpt>
      <trkpt lat="51.103200" lon="5.770373">
        <ele>32.186366</ele>
        <time>2023-03-05T08:12:31.000Z</time>
      </trkpt>
      <trkpt lat="51.103146" lon="5.770422">
        <ele>32.174315</ele>
        <time>2023-03-05T08:12:32.000Z</time>
      </trkpt>
      <trkpt lat="51.103091" lon="5.770471">
        <ele>32.162096</ele>
        <time>2023-03-05T08:12:33.000Z</time>
      </trkpt>
      <trkpt lat="51.103033" lon="5.770520">
        <ele>32.149365</ele>
        <time>2023-03-05T08:12:34.000Z</time>
      </trkpt>
      <trkpt lat="51.102976" lon="5.770568">
        <ele>32.136863</ele>
        <time>2023-03-05T08:12:35.000Z</time>
      </trkpt>
      <trkpt lat="51.102919" lon="5.770616">
        <ele>32.124360</ele>
        <time>2023-03-05T08:12:36.000Z</time>
      </trkpt>
      <trkpt lat="51.102862" lon="5.770662">
        <ele>32.111970</ele>
        <time>2023-03-05T08:12:37.000Z</time>
      </trkpt>
      <trkpt lat="51.102804" lon="5.770708">
        <ele>32.099406</ele>
        <time>2023-03-05T08:12:38.000Z</time>
      </trkpt>
      <trkpt lat="51.102745" lon="5.770753">
        <ele>32.086722</ele>
        <time>2023-03-05T08:12:39.000Z</time>
      </trkpt>
      <trkpt lat="51.102687" lon="5.770798">
        <ele>32.074212</ele>
        <time>2023-03-05T08:12:40.000Z</time>
      </trkpt>
      <trkpt lat="51.102627" lon="5.770842">
        <ele>32.061404</ele>
        <time>2023-03-05T08:12:41.000Z</time>
      </trkpt>
      <trkpt lat="51.102566" lon="5.770886">
        <ele>32.048419</ele>
        <time>2023-03-05T08:12:42.000Z</time>
      </trkpt>
      <trkpt lat="51.102509" lon="5.770929">
        <ele>32.036189</ele>
        <time>2023-03-05T08:12:43.000Z</time>
      </trkpt>
      <trkpt lat="51.102448" lon="5.770972">
        <ele>32.023255</ele>
        <time>2023-03-05T08:12:44.000Z</time>
      </trkpt>
      <trkpt lat="51.102386" lon="5.771016">
        <ele>32.025019</ele>
        <time>2023-03-05T08:12:45.000Z</time>
      </trkpt>
      <trkpt lat="51.102328" lon="5.771059">
        <ele>32.028466</ele>
        <time>2023-03-05T08:12:46.000Z</time>
      </trkpt>
      <trkpt lat="51.102271" lon="5.771102">
        <ele>32.031864</ele>
        <time>2023-03-05T08:12:47.000Z</time>
      </trkpt>
      <trkpt lat="51.102211" lon="5.771146">
        <ele>32.035422</ele>
        <time>2023-03-05T08:12:48.000Z</time>
      </trkpt>
      <trkpt lat="51.102152" lon="5.771193">
        <ele>32.038977</ele>
        <time>2023-03-05T08:12:49.000Z</time>
      </trkpt>
      <trkpt lat="51.102095" lon="5.771239">
        <ele>32.042419</ele>
        <time>2023-03-05T08:12:50.000Z</time>
      </trkpt>
      <trkpt lat="51.102038" lon="5.771286">
        <ele>32.045877</ele>
        <time>2023-03-05T08:12:51.000Z</time>
      </trkpt>
      <trkpt lat="51.101981" lon="5.771333">
        <ele>32.049336</ele>
        <time>2023-03-05T08:12:52.000Z</time>
      </trkpt>
      <trkpt lat="51.101924" lon="5.771381">
        <ele>32.052809</ele>
        <time>2023-03-05T08:12:53.000Z</time>
      </trkpt>
      <trkpt lat="51.101866" lon="5.771431">
        <ele>32.056363</ele>
        <time>2023-03-05T08:12:54.000Z</time>
      </trkpt>
      <trkpt lat="51.101807" lon="5.771480">
        <ele>32.059948</ele>
        <time>2023-03-05T08:12:55.000Z</time>
      </trkpt>
      <trkpt lat="51.101748" lon="5.771529">
        <ele>32.063533</ele>
        <time>2023-03-05T08:12:56.000Z</time>
      </trkpt>
      <trkpt lat="51.101691" lon="5.771577">
        <ele>32.067007</ele>
        <time>2023-03-05T08:12:57.000Z</time>
      </trkpt>
      <trkpt lat="51.101634" lon="5.771624">
        <ele>32.070465</ele>
        <time>2023-03-05T08:12:58.000Z</time>
      </trkpt>
      <trkpt lat="51.101576" lon="5.771672">
        <ele>32.073986</ele>
        <time>2023-03-05T08:12:59.000Z</time>
      </trkpt>
      <trkpt lat="51.101521" lon="5.771719">
        <ele>32.077349</ele>
        <time>2023-03-05T08:13:00.000Z</time>
      </trkpt>
      <trkpt lat="51.101466" lon="5.771766">
        <ele>32.080712</ele>
        <time>2023-03-05T08:13:01.000Z</time>
      </trkpt>
      <trkpt lat="51.101409" lon="5.771813">
        <ele>32.084170</ele>
        <time>2023-03-05T08:13:02.000Z</time>
      </trkpt>
      <trkpt lat="51.101354" lon="5.771862">
        <ele>32.087566</ele>
        <time>2023-03-05T08:13:03.000Z</time>
      </trkpt>
      <trkpt lat="51.101300" lon="5.771909">
        <ele>32.090881</ele>
        <time>2023-03-05T08:13:04.000Z</time>
      </trkpt>
      <trkpt lat="51.101247" lon="5.771957">
        <ele>32.094166</ele>
        <time>2023-03-05T08:13:05.000Z</time>
      </trkpt>
      <trkpt lat="51.101193" lon="5.772007">
        <ele>32.097531</ele>
        <time>2023-03-05T08:13:06.000Z</time>
      </trkpt>
      <trkpt lat="51.101141" lon="5.772057">
        <ele>32.100804</ele>
        <time>2023-03-05T08:13:07.000Z</time>
      </trkpt>
      <trkpt lat="51.101087" lon="5.772112">
        <ele>32.104257</ele>
        <time>2023-03-05T08:13:08.000Z</time>
      </trkpt>
      <trkpt lat="51.101036" lon="5.772168">
        <ele>32.107595</ele>
        <time>2023-03-05T08:13:09.000Z</time>
      </trkpt>
      <trkpt lat="51.100984" lon="5.772226">
        <ele>32.111015</ele>
        <time>2023-03-05T08:13:10.000Z</time>
      </trkpt>
      <trkpt lat="51.100934" lon="5.772283">
        <ele>32.114328</ele>
        <time>2023-03-05T08:13:11.000Z</time>
      </trkpt>
      <trkpt lat="51.100884" lon="5.772343">
        <ele>32.117701</ele>
        <time>2023-03-05T08:13:12.000Z</time>
      </trkpt>
      <trkpt lat="51.100834" lon="5.772401">
        <ele>32.134754</ele>
        <time>2023-03-05T08:13:13.000Z</time>
      </trkpt>
      <trkpt lat="51.100782" lon="5.772458">
        <ele>32.157954</ele>
        <time>2023-03-05T08:13:14.000Z</time>
      </trkpt>
      <trkpt lat="51.100728" lon="5.772516">
        <ele>32.181892</ele>
        <time>2023-03-05T08:13:15.000Z</time>
      </trkpt>
      <trkpt lat="51.100677" lon="5.772574">
        <ele>32.204924</ele>
        <time>2023-03-05T08:13:16.000Z</time>
      </trkpt>
      <trkpt lat="51.100625" lon="5.772629">
        <ele>32.227867</ele>
        <time>2023-03-05T08:13:17.000Z</time>
      </trkpt>
      <trkpt lat="51.100574" lon="5.772684">
        <ele>32.250504</ele>
        <time>2023-03-05T08:13:18.000Z</time>
      </trkpt>
      <trkpt lat="51.100527" lon="5.772740">
        <ele>32.272077</ele>
        <time>2023-03-05T08:13:19.000Z</time>
      </trkpt>
      <trkpt lat="51.100479" lon="5.772795">
        <ele>32.293809</ele>
        <time>2023-03-05T08:13:20.000Z</time>
      </trkpt>
      <trkpt lat="51.100434" lon="5.772853">
        <ele>32.315086</ele>
        <time>2023-03-05T08:13:21.000Z</time>
      </trkpt>
      <trkpt lat="51.100389" lon="5.772913">
        <ele>32.336656</ele>
        <time>2023-03-05T08:13:22.000Z</time>
      </trkpt>
      <trkpt lat="51.100346" lon="5.772974">
        <ele>32.357820</ele>
        <time>2023-03-05T08:13:23.000Z</time>
      </trkpt>
      <trkpt lat="51.100304" lon="5.773028">
        <ele>32.377659</ele>
        <time>2023-03-05T08:13:24.000Z</time>
      </trkpt>
      <trkpt lat="51.100260" lon="5.773061">
        <ele>32.395533</ele>
        <time>2023-03-05T08:13:25.000Z</time>
      </trkpt>
      <trkpt lat="51.100216" lon="5.773067">
        <ele>32.411763</ele>
        <time>2023-03-05T08:13:26.000Z</time>
      </trkpt>
      <trkpt lat="51.100179" lon="5.773047">
        <ele>32.426123</ele>
        <time>2023-03-05T08:13:27.000Z</time>
      </trkpt>
      <trkpt lat="51.100152" lon="5.773006">
        <ele>32.439835</ele>
        <time>2023-03-05T08:13:28.000Z</time>
      </trkpt>
      <trkpt lat="51.100134" lon="5.772942">
        <ele>32.456019</ele>
        <time>2023-03-05T08:13:29.000Z</time>
      </trkpt>
      <trkpt lat="51.100121" lon="5.772860">
        <ele>32.475537</ele>
        <time>2023-03-05T08:13:30.000Z</time>
      </trkpt>
      <trkpt lat="51.100107" lon="5.772772">
        <ele>32.496488</ele>
        <time>2023-03-05T08:13:31.000Z</time>
      </trkpt>
      <trkpt lat="51.100094" lon="5.772685">
        <ele>32.517127</ele>
        <time>2023-03-05T08:13:32.000Z</time>
      </trkpt>
      <trkpt lat="51.100079" lon="5.772599">
        <ele>32.537726</ele>
        <time>2023-03-05T08:13:33.000Z</time>
      </trkpt>
      <trkpt lat="51.100057" lon="5.772507">
        <ele>32.560446</ele>
        <time>2023-03-05T08:13:34.000Z</time>
      </trkpt>
      <trkpt lat="51.100034" lon="5.772416">
        <ele>32.583085</ele>
        <time>2023-03-05T08:13:35.000Z</time>
      </trkpt>
      <trkpt lat="51.100011" lon="5.772326">
        <ele>32.605510</ele>
        <time>2023-03-05T08:13:36.000Z</time>
      </trkpt>
      <trkpt lat="51.099988" lon="5.772238">
        <ele>32.627508</ele>
        <time>2023-03-05T08:13:37.000Z</time>
      </trkpt>
      <trkpt lat="51.099965" lon="5.772150">
        <ele>32.649506</ele>
        <time>2023-03-05T08:13:38.000Z</time>
      </trkpt>
      <trkpt lat="51.099940" lon="5.772062">
        <ele>32.671797</ele>
        <time>2023-03-05T08:13:39.000Z</time>
      </trkpt>
      <trkpt lat="51.099916" lon="5.771975">
        <ele>32.693727</ele>
        <time>2023-03-05T08:13:40.000Z</time>
      </trkpt>
      <trkpt lat="51.099893" lon="5.771887">
        <ele>32.715725</ele>
        <time>2023-03-05T08:13:41.000Z</time>
      </trkpt>
      <trkpt lat="51.099872" lon="5.771800">
        <ele>32.737236</ele>
        <time>2023-03-05T08:13:42.000Z</time>
      </trkpt>
      <trkpt lat="51.099851" lon="5.771713">
        <ele>32.758747</ele>
        <time>2023-03-05T08:13:43.000Z</time>
      </trkpt>
      <trkpt lat="51.099830" lon="5.771627">
        <ele>32.779595</ele>
        <time>2023-03-05T08:13:44.000Z</time>
      </trkpt>
      <trkpt lat="51.099806" lon="5.771540">
        <ele>32.772047</ele>
        <time>2023-03-05T08:13:45.000Z</time>
      </trkpt>
      <trkpt lat="51.099782" lon="5.771454">
        <ele>32.764571</ele>
        <time>2023-03-05T08:13:46.000Z</time>
      </trkpt>
      <trkpt lat="51.099759" lon="5.771370">
        <ele>32.757292</ele>
        <time>2023-03-05T08:13:47.000Z</time>
      </trkpt>
      <trkpt lat="51.099736" lon="5.771287">
        <ele>32.750086</ele>
        <time>2023-03-05T08:13:48.000Z</time>
      </trkpt>
      <trkpt lat="51.099713" lon="5.771206">
        <ele>32.743024</ele>
        <time>2023-03-05T08:13:49.000Z</time>
      </trkpt>
      <trkpt lat="51.099688" lon="5.771130">
        <ele>32.736209</ele>
        <time>2023-03-05T08:13:50.000Z</time>
      </trkpt>
      <trkpt lat="51.099659" lon="5.771060">
        <ele>32.729548</ele>
        <time>2023-03-05T08:13:51.000Z</time>
      </trkpt>
      <trkpt lat="51.099626" lon="5.770996">
        <ele>32.722970</ele>
        <time>2023-03-05T08:13:52.000Z</time>
      </trkpt>
      <trkpt lat="51.099590" lon="5.770939">
        <ele>32.716548</ele>
        <time>2023-03-05T08:13:53.000Z</time>
      </trkpt>
      <trkpt lat="51.099551" lon="5.770891">
        <ele>32.710313</ele>
        <time>2023-03-05T08:13:54.000Z</time>
      </trkpt>
      <trkpt lat="51.099518" lon="5.770847">
        <ele>32.704869</ele>
        <time>2023-03-05T08:13:55.000Z</time>
      </trkpt>
      <trkpt lat="51.099487" lon="5.770808">
        <ele>32.699871</ele>
        <time>2023-03-05T08:13:56.000Z</time>
      </trkpt>
      <trkpt lat="51.099461" lon="5.770767">
        <ele>32.695243</ele>
        <time>2023-03-05T08:13:57.000Z</time>
      </trkpt>
      <trkpt lat="51.099443" lon="5.770726">
        <ele>32.691269</ele>
        <time>2023-03-05T08:13:58.000Z</time>
      </trkpt>
      <trkpt lat="51.099433" lon="5.770681">
        <ele>32.687477</ele>
        <time>2023-03-05T08:13:59.000Z</time>
      </trkpt>
      <trkpt lat="51.099420" lon="5.770625">
        <ele>32.682735</ele>
        <time>2023-03-05T08:14:00.000Z</time>
      </trkpt>
      <trkpt lat="51.099405" lon="5.770564">
        <ele>32.677531</ele>
        <time>2023-03-05T08:14:01.000Z</time>
      </trkpt>
      <trkpt lat="51.099383" lon="5.770501">
        <ele>32.671805</ele>
        <time>2023-03-05T08:14:02.000Z</time>
      </trkpt>
      <trkpt lat="51.099356" lon="5.770440">
        <ele>32.665876</ele>
        <time>2023-03-05T08:14:03.000Z</time>
      </trkpt>
      <trkpt lat="51.099327" lon="5.770384">
        <ele>32.660111</ele>
        <time>2023-03-05T08:14:04.000Z</time>
      </trkpt>
      <trkpt lat="51.099296" lon="5.770330">
        <ele>32.654299</ele>
        <time>2023-03-05T08:14:05.000Z</time>
      </trkpt>
      <trkpt lat="51.099266" lon="5.770275">
        <ele>32.648512</ele>
        <time>2023-03-05T08:14:06.000Z</time>
      </trkpt>
      <trkpt lat="51.099240" lon="5.770218">
        <ele>32.642916</ele>
        <time>2023-03-05T08:14:07.000Z</time>
      </trkpt>
      <trkpt lat="51.099217" lon="5.770156">
        <ele>32.637196</ele>
        <time>2023-03-05T08:14:08.000Z</time>
      </trkpt>
      <trkpt lat="51.099197" lon="5.770092">
        <ele>32.631517</ele>
        <time>2023-03-05T08:14:09.000Z</time>
      </trkpt>
      <trkpt lat="51.099175" lon="5.770027">
        <ele>32.625652</ele>
        <time>2023-03-05T08:14:10.000Z</time>
      </trkpt>
      <trkpt lat="51.099155" lon="5.769958">
        <ele>32.619615</ele>
        <time>2023-03-05T08:14:11.000Z</time>
      </trkpt>
      <trkpt lat="51.099133" lon="5.769889">
        <ele>32.613468</ele>
        <time>2023-03-05T08:14:12.000Z</time>
      </trkpt>
      <trkpt lat="51.099113" lon="5.769824">
        <ele>32.607718</ele>
        <time>2023-03-05T08:14:13.000Z</time>
      </trkpt>
      <trkpt lat="51.099094" lon="5.769762">
        <ele>32.602238</ele>
        <time>2023-03-05T08:14:14.000Z</time>
      </trkpt>
      <trkpt lat="51.099075" lon="5.769701">
        <ele>32.596829</ele>
        <time>2023-03-05T08:14:15.000Z</time>
      </trkpt>
      <trkpt lat="51.099058" lon="5.769642">
        <ele>32.591673</ele>
        <time>2023-03-05T08:14:16.000Z</time>
      </trkpt>
      <trkpt lat="51.099043" lon="5.769583">
        <ele>32.586616</ele>
        <time>2023-03-05T08:14:17.000Z</time>
      </trkpt>
      <trkpt lat="51.099030" lon="5.769526">
        <ele>32.581799</ele>
        <time>2023-03-05T08:14:18.000Z</time>
      </trkpt>
      <trkpt lat="51.099019" lon="5.769466">
        <ele>32.576834</ele>
        <time>2023-03-05T08:14:19.000Z</time>
      </trkpt>
      <trkpt lat="51.099003" lon="5.769405">
        <ele>32.571583</ele>
        <time>2023-03-05T08:14:20.000Z</time>
      </trkpt>
      <trkpt lat="51.098983" lon="5.769343">
        <ele>32.566046</ele>
        <time>2023-03-05T08:14:21.000Z</time>
      </trkpt>
      <trkpt lat="51.098962" lon="5.769280">
        <ele>32.560380</ele>
        <time>2023-03-05T08:14:22.000Z</time>
      </trkpt>
      <trkpt lat="51.098939" lon="5.769219">
        <ele>32.554728</ele>
        <time>2023-03-05T08:14:23.000Z</time>
      </trkpt>
      <trkpt lat="51.098916" lon="5.769155">
        <ele>32.563889</ele>
        <time>2023-03-05T08:14:24.000Z</time>
      </trkpt>
      <trkpt lat="51.098896" lon="5.769087">
        <ele>32.584902</ele>
        <time>2023-03-05T08:14:25.000Z</time>
      </trkpt>
      <trkpt lat="51.098872" lon="5.769019">
        <ele>32.606732</ele>
        <time>2023-03-05T08:14:26.000Z</time>
      </trkpt>
      <trkpt lat="51.098850" lon="5.768950">
        <ele>32.628388</ele>
        <time>2023-03-05T08:14:27.000Z</time>
      </trkpt>
      <trkpt lat="51.098831" lon="5.768880">
        <ele>32.649729</ele>
        <time>2023-03-05T08:14:28.000Z</time>
      </trkpt>
      <trkpt lat="51.098811" lon="5.768811">
        <ele>32.670996</ele>
        <time>2023-03-05T08:14:29.000Z</time>
      </trkpt>
      <trkpt lat="51.098790" lon="5.768747">
        <ele>32.691204</ele>
        <time>2023-03-05T08:14:30.000Z</time>
      </trkpt>
      <trkpt lat="51.098770" lon="5.768689">
        <ele>32.709721</ele>
        <time>2023-03-05T08:14:31.000Z</time>
      </trkpt>
      <trkpt lat="51.098751" lon="5.768633">
        <ele>32.727534</ele>
        <time>2023-03-05T08:14:32.000Z</time>
      </trkpt>
      <trkpt lat="51.098734" lon="5.768577">
        <ele>32.744940</ele>
        <time>2023-03-05T08:14:33.000Z</time>
      </trkpt>
      <trkpt lat="51.098719" lon="5.768524">
        <ele>32.761209</ele>
        <time>2023-03-05T08:14:34.000Z</time>
      </trkpt>
      <trkpt lat="51.098699" lon="5.768476">
        <ele>32.777330</ele>
        <time>2023-03-05T08:14:35.000Z</time>
      </trkpt>
      <trkpt lat="51.098681" lon="5.768425">
        <ele>32.793702</ele>
        <time>2023-03-05T08:14:36.000Z</time>
      </trkpt>
      <trkpt lat="51.098663" lon="5.768372">
        <ele>32.810564</ele>
        <time>2023-03-05T08:14:37.000Z</time>
      </trkpt>
      <trkpt lat="51.098644" lon="5.768315">
        <ele>32.828623</ele>
        <time>2023-03-05T08:14:38.000Z</time>
      </trkpt>
      <trkpt lat="51.098627" lon="5.768258">
        <ele>32.846282</ele>
        <time>2023-03-05T08:14:39.000Z</time>
      </trkpt>
      <trkpt lat="51.098610" lon="5.768203">
        <ele>32.863438</ele>
        <time>2023-03-05T08:14:40.000Z</time>
      </trkpt>
      <trkpt lat="51.098593" lon="5.768145">
        <ele>32.881350</ele>
        <time>2023-03-05T08:14:41.000Z</time>
      </trkpt>
      <trkpt lat="51.098577" lon="5.768089">
        <ele>32.898567</ele>
        <time>2023-03-05T08:14:42.000Z</time>
      </trkpt>
      <trkpt lat="51.098562" lon="5.768034">
        <ele>32.915348</ele>
        <time>2023-03-05T08:14:43.000Z</time>
      </trkpt>
      <trkpt lat="51.098547" lon="5.767979">
        <ele>32.932129</ele>
        <time>2023-03-05T08:14:44.000Z</time>
      </trkpt>
      <trkpt lat="51.098532" lon="5.767924">
        <ele>32.948909</ele>
        <time>2023-03-05T08:14:45.000Z</time>
      </trkpt>
      <trkpt lat="51.098514" lon="5.767865">
        <ele>32.967266</ele>
        <time>2023-03-05T08:14:46.000Z</time>
      </trkpt>
      <trkpt lat="51.098497" lon="5.767801">
        <ele>32.986713</ele>
        <time>2023-03-05T08:14:47.000Z</time>
      </trkpt>
      <trkpt lat="51.098477" lon="5.767728">
        <ele>33.009001</ele>
        <time>2023-03-05T08:14:48.000Z</time>
      </trkpt>
      <trkpt lat="51.098454" lon="5.767646">
        <ele>33.034134</ele>
        <time>2023-03-05T08:14:49.000Z</time>
      </trkpt>
      <trkpt lat="51.098434" lon="5.767560">
        <ele>33.059799</ele>
        <time>2023-03-05T08:14:50.000Z</time>
      </trkpt>
      <trkpt lat="51.098410" lon="5.767474">
        <ele>33.086135</ele>
        <time>2023-03-05T08:14:51.000Z</time>
      </trkpt>
      <trkpt lat="51.098386" lon="5.767387">
        <ele>33.112728</ele>
        <time>2023-03-05T08:14:52.000Z</time>
      </trkpt>
      <trkpt lat="51.098363" lon="5.767305">
        <ele>33.137861</ele>
        <time>2023-03-05T08:14:53.000Z</time>
      </trkpt>
      <trkpt lat="51.098340" lon="5.767222">
        <ele>33.163250</ele>
        <time>2023-03-05T08:14:54.000Z</time>
      </trkpt>
      <trkpt lat="51.098317" lon="5.767143">
        <ele>33.187618</ele>
        <time>2023-03-05T08:14:55.000Z</time>
      </trkpt>
      <trkpt lat="51.098297" lon="5.767069">
        <ele>33.210164</ele>
        <time>2023-03-05T08:14:56.000Z</time>
      </trkpt>
      <trkpt lat="51.098278" lon="5.767000">
        <ele>33.231249</ele>
        <time>2023-03-05T08:14:57.000Z</time>
      </trkpt>
      <trkpt lat="51.098259" lon="5.766928">
        <ele>33.253105</ele>
        <time>2023-03-05T08:14:58.000Z</time>
      </trkpt>
      <trkpt lat="51.098239" lon="5.766856">
        <ele>33.275137</ele>
        <time>2023-03-05T08:14:59.000Z</time>
      </trkpt>
      <trkpt lat="51.098220" lon="5.766784">
        <ele>33.296993</ele>
        <time>2023-03-05T08:15:00.000Z</time>
      </trkpt>
      <trkpt lat="51.098201" lon="5.766709">
        <ele>33.319626</ele>
        <time>2023-03-05T08:15:01.000Z</time>
      </trkpt>
      <trkpt lat="51.098182" lon="5.766633">
        <ele>33.342518</ele>
        <time>2023-03-05T08:15:02.000Z</time>
      </trkpt>
      <trkpt lat="51.098161" lon="5.766553">
        <ele>33.374484</ele>
        <time>2023-03-05T08:15:03.000Z</time>
      </trkpt>
      <trkpt lat="51.098140" lon="5.766471">
        <ele>33.413888</ele>
        <time>2023-03-05T08:15:04.000Z</time>
      </trkpt>
      <trkpt lat="51.098121" lon="5.766389">
        <ele>33.452778</ele>
        <time>2023-03-05T08:15:05.000Z</time>
      </trkpt>
      <trkpt lat="51.098104" lon="5.766309">
        <ele>33.490357</ele>
        <time>2023-03-05T08:15:06.000Z</time>
      </trkpt>
      <trkpt lat="51.098089" lon="5.766231">
        <ele>33.526654</ele>
        <time>2023-03-05T08:15:07.000Z</time>
      </trkpt>
      <trkpt lat="51.098072" lon="5.766154">
        <ele>33.562971</ele>
        <time>2023-03-05T08:15:08.000Z</time>
      </trkpt>
      <trkpt lat="51.098053" lon="5.766078">
        <ele>33.599368</ele>
        <time>2023-03-05T08:15:09.000Z</time>
      </trkpt>
      <trkpt lat="51.098034" lon="5.766003">
        <ele>33.635353</ele>
        <time>2023-03-05T08:15:10.000Z</time>
      </trkpt>
      <trkpt lat="51.098015" lon="5.765921">
        <ele>33.674243</ele>
        <time>2023-03-05T08:15:11.000Z</time>
      </trkpt>
      <trkpt lat="51.097995" lon="5.765832">
        <ele>33.716303</ele>
        <time>2023-03-05T08:15:12.000Z</time>
      </trkpt>
      <trkpt lat="51.097979" lon="5.765744">
        <ele>33.757067</ele>
        <time>2023-03-05T08:15:13.000Z</time>
      </trkpt>
      <trkpt lat="51.097961" lon="5.765655">
        <ele>33.798670</ele>
        <time>2023-03-05T08:15:14.000Z</time>
      </trkpt>
      <trkpt lat="51.097942" lon="5.765565">
        <ele>33.840918</ele>
        <time>2023-03-05T08:15:15.000Z</time>
      </trkpt>
      <trkpt lat="51.097920" lon="5.765473">
        <ele>33.884721</ele>
        <time>2023-03-05T08:15:16.000Z</time>
      </trkpt>
      <trkpt lat="51.097900" lon="5.765384">
        <ele>33.926781</ele>
        <time>2023-03-05T08:15:17.000Z</time>
      </trkpt>
      <trkpt lat="51.097878" lon="5.765296">
        <ele>33.968926</ele>
        <time>2023-03-05T08:15:18.000Z</time>
      </trkpt>
      <trkpt lat="51.097856" lon="5.765209">
        <ele>34.010657</ele>
        <time>2023-03-05T08:15:19.000Z</time>
      </trkpt>
      <trkpt lat="51.097835" lon="5.765125">
        <ele>34.050886</ele>
        <time>2023-03-05T08:15:20.000Z</time>
      </trkpt>
      <trkpt lat="51.097814" lon="5.765041">
        <ele>34.091115</ele>
        <time>2023-03-05T08:15:21.000Z</time>
      </trkpt>
      <trkpt lat="51.097793" lon="5.764956">
        <ele>34.131758</ele>
        <time>2023-03-05T08:15:22.000Z</time>
      </trkpt>
      <trkpt lat="51.097774" lon="5.764874">
        <ele>34.170648</ele>
        <time>2023-03-05T08:15:23.000Z</time>
      </trkpt>
      <trkpt lat="51.097750" lon="5.764789">
        <ele>34.212116</ele>
        <time>2023-03-05T08:15:24.000Z</time>
      </trkpt>
      <trkpt lat="51.097726" lon="5.764704">
        <ele>34.253585</ele>
        <time>2023-03-05T08:15:25.000Z</time>
      </trkpt>
      <trkpt lat="51.097704" lon="5.764620">
        <ele>34.294081</ele>
        <time>2023-03-05T08:15:26.000Z</time>
      </trkpt>
      <trkpt lat="51.097680" lon="5.764531">
        <ele>34.337179</ele>
        <time>2023-03-05T08:15:27.000Z</time>
      </trkpt>
      <trkpt lat="51.097657" lon="5.764441">
        <ele>34.380413</ele>
        <time>2023-03-05T08:15:28.000Z</time>
      </trkpt>
      <trkpt lat="51.097634" lon="5.764353">
        <ele>34.422825</ele>
        <time>2023-03-05T08:15:29.000Z</time>
      </trkpt>
      <trkpt lat="51.097614" lon="5.764265">
        <ele>34.464467</ele>
        <time>2023-03-05T08:15:30.000Z</time>
      </trkpt>
      <trkpt lat="51.097590" lon="5.764177">
        <ele>34.507156</ele>
        <time>2023-03-05T08:15:31.000Z</time>
      </trkpt>
      <trkpt lat="51.097565" lon="5.764089">
        <ele>34.550132</ele>
        <time>2023-03-05T08:15:32.000Z</time>
      </trkpt>
      <trkpt lat="51.097543" lon="5.764000">
        <ele>34.592691</ele>
        <time>2023-03-05T08:15:33.000Z</time>
      </trkpt>
      <trkpt lat="51.097522" lon="5.763909">
        <ele>34.625732</ele>
        <time>2023-03-05T08:15:34.000Z</time>
      </trkpt>
      <trkpt lat="51.097501" lon="5.763818">
        <ele>34.612303</ele>
        <time>2023-03-05T08:15:35.000Z</time>
      </trkpt>
      <trkpt lat="51.097480" lon="5.763726">
        <ele>34.598744</ele>
        <time>2023-03-05T08:15:36.000Z</time>
      </trkpt>
      <trkpt lat="51.097464" lon="5.763636">
        <ele>34.585788</ele>
        <time>2023-03-05T08:15:37.000Z</time>
      </trkpt>
      <trkpt lat="51.097446" lon="5.763542">
        <ele>34.572175</ele>
        <time>2023-03-05T08:15:38.000Z</time>
      </trkpt>
      <trkpt lat="51.097430" lon="5.763446">
        <ele>34.558418</ele>
        <time>2023-03-05T08:15:39.000Z</time>
      </trkpt>
      <trkpt lat="51.097414" lon="5.763348">
        <ele>34.544392</ele>
        <time>2023-03-05T08:15:40.000Z</time>
      </trkpt>
      <trkpt lat="51.097399" lon="5.763251">
        <ele>34.530555</ele>
        <time>2023-03-05T08:15:41.000Z</time>
      </trkpt>
      <trkpt lat="51.097383" lon="5.763159">
        <ele>34.517332</ele>
        <time>2023-03-05T08:15:42.000Z</time>
      </trkpt>
      <trkpt lat="51.097369" lon="5.763069">
        <ele>34.504489</ele>
        <time>2023-03-05T08:15:43.000Z</time>
      </trkpt>
      <trkpt lat="51.097353" lon="5.762973">
        <ele>34.490731</ele>
        <time>2023-03-05T08:15:44.000Z</time>
      </trkpt>
      <trkpt lat="51.097340" lon="5.762875">
        <ele>34.476857</ele>
        <time>2023-03-05T08:15:45.000Z</time>
      </trkpt>
      <trkpt lat="51.097326" lon="5.762777">
        <ele>34.462936</ele>
        <time>2023-03-05T08:15:46.000Z</time>
      </trkpt>
      <trkpt lat="51.097313" lon="5.762685">
        <ele>34.449874</ele>
        <time>2023-03-05T08:15:47.000Z</time>
      </trkpt>
      <trkpt lat="51.097304" lon="5.762591">
        <ele>34.436703</ele>
        <time>2023-03-05T08:15:48.000Z</time>
      </trkpt>
      <trkpt lat="51.097292" lon="5.762496">
        <ele>34.423280</ele>
        <time>2023-03-05T08:15:49.000Z</time>
      </trkpt>
      <trkpt lat="51.097279" lon="5.762402">
        <ele>34.409948</ele>
        <time>2023-03-05T08:15:50.000Z</time>
      </trkpt>
      <trkpt lat="51.097268" lon="5.762309">
        <ele>34.396839</ele>
        <time>2023-03-05T08:15:51.000Z</time>
      </trkpt>
      <trkpt lat="51.097258" lon="5.762218">
        <ele>34.384043</ele>
        <time>2023-03-05T08:15:52.000Z</time>
      </trkpt>
      <trkpt lat="51.097249" lon="5.762129">
        <ele>34.371556</ele>
        <time>2023-03-05T08:15:53.000Z</time>
      </trkpt>
      <trkpt lat="51.097237" lon="5.762035">
        <ele>34.358269</ele>
        <time>2023-03-05T08:15:54.000Z</time>
      </trkpt>
      <trkpt lat="51.097226" lon="5.761941">
        <ele>34.345025</ele>
        <time>2023-03-05T08:15:55.000Z</time>
      </trkpt>
      <trkpt lat="51.097214" lon="5.761847">
        <ele>34.331738</ele>
        <time>2023-03-05T08:15:56.000Z</time>
      </trkpt>
      <trkpt lat="51.097203" lon="5.761752">
        <ele>34.318357</ele>
        <time>2023-03-05T08:15:57.000Z</time>
      </trkpt>
      <trkpt lat="51.097191" lon="5.761656">
        <ele>34.304799</ele>
        <time>2023-03-05T08:15:58.000Z</time>
      </trkpt>
      <trkpt lat="51.097180" lon="5.761561">
        <ele>34.291418</ele>
        <time>2023-03-05T08:15:59.000Z</time>
      </trkpt>
      <trkpt lat="51.097169" lon="5.761473">
        <ele>34.278990</ele>
        <time>2023-03-05T08:16:00.000Z</time>
      </trkpt>
      <trkpt lat="51.097158" lon="5.761376">
        <ele>34.265336</ele>
        <time>2023-03-05T08:16:01.000Z</time>
      </trkpt>
      <trkpt lat="51.097148" lon="5.761274">
        <ele>34.251037</ele>
        <time>2023-03-05T08:16:02.000Z</time>
      </trkpt>
      <trkpt lat="51.097136" lon="5.761179">
        <ele>34.237614</ele>
        <time>2023-03-05T08:16:03.000Z</time>
      </trkpt>
      <trkpt lat="51.097123" lon="5.761088">
        <ele>34.210329</ele>
        <time>2023-03-05T08:16:04.000Z</time>
      </trkpt>
      <trkpt lat="51.097111" lon="5.760997">
        <ele>34.169941</ele>
        <time>2023-03-05T08:16:05.000Z</time>
      </trkpt>
      <trkpt lat="51.097100" lon="5.760906">
        <ele>34.129689</ele>
        <time>2023-03-05T08:16:06.000Z</time>
      </trkpt>
      <trkpt lat="51.097088" lon="5.760812">
        <ele>34.088025</ele>
        <time>2023-03-05T08:16:07.000Z</time>
      </trkpt>
      <trkpt lat="51.097077" lon="5.760718">
        <ele>34.046493</ele>
        <time>2023-03-05T08:16:08.000Z</time>
      </trkpt>
      <trkpt lat="51.097063" lon="5.760625">
        <ele>34.004953</ele>
        <time>2023-03-05T08:16:09.000Z</time>
      </trkpt>
      <trkpt lat="51.097050" lon="5.760534">
        <ele>33.964417</ele>
        <time>2023-03-05T08:16:10.000Z</time>
      </trkpt>
      <trkpt lat="51.097039" lon="5.760438">
        <ele>33.922031</ele>
        <time>2023-03-05T08:16:11.000Z</time>
      </trkpt>
      <trkpt lat="51.097030" lon="5.760343">
        <ele>33.880300</ele>
        <time>2023-03-05T08:16:12.000Z</time>
      </trkpt>
      <trkpt lat="51.097022" lon="5.760249">
        <ele>33.839097</ele>
        <time>2023-03-05T08:16:13.000Z</time>
      </trkpt>
      <trkpt lat="51.097014" lon="5.760157">
        <ele>33.798755</ele>
        <time>2023-03-05T08:16:14.000Z</time>
      </trkpt>
      <trkpt lat="51.097007" lon="5.760064">
        <ele>33.758071</ele>
        <time>2023-03-05T08:16:15.000Z</time>
      </trkpt>
      <trkpt lat="51.096999" lon="5.759967">
        <ele>33.715577</ele>
        <time>2023-03-05T08:16:16.000Z</time>
      </trkpt>
      <trkpt lat="51.096989" lon="5.759870">
        <ele>33.672880</ele>
        <time>2023-03-05T08:16:17.000Z</time>
      </trkpt>
      <trkpt lat="51.096978" lon="5.759773">
        <ele>33.630067</ele>
        <time>2023-03-05T08:16:18.000Z</time>
      </trkpt>
      <trkpt lat="51.096966" lon="5.759676">
        <ele>33.587124</ele>
        <time>2023-03-05T08:16:19.000Z</time>
      </trkpt>
      <trkpt lat="51.096957" lon="5.759581">
        <ele>33.545394</ele>
        <time>2023-03-05T08:16:20.000Z</time>
      </trkpt>
      <trkpt lat="51.096947" lon="5.759492">
        <ele>33.506122</ele>
        <time>2023-03-05T08:16:21.000Z</time>
      </trkpt>
      <trkpt lat="51.096938" lon="5.759406">
        <ele>33.468252</ele>
        <time>2023-03-05T08:16:22.000Z</time>
      </trkpt>
      <trkpt lat="51.096930" lon="5.759324">
        <ele>33.432208</ele>
        <time>2023-03-05T08:16:23.000Z</time>
      </trkpt>
      <trkpt lat="51.096920" lon="5.759247">
        <ele>33.398055</ele>
        <time>2023-03-05T08:16:24.000Z</time>
      </trkpt>
      <trkpt lat="51.096902" lon="5.759180">
        <ele>33.366402</ele>
        <time>2023-03-05T08:16:25.000Z</time>
      </trkpt>
      <trkpt lat="51.096876" lon="5.759123">
        <ele>33.335802</ele>
        <time>2023-03-05T08:16:26.000Z</time>
      </trkpt>
      <trkpt lat="51.096838" lon="5.759080">
        <ele>33.303559</ele>
        <time>2023-03-05T08:16:27.000Z</time>
      </trkpt>
      <trkpt lat="51.096790" lon="5.759052">
        <ele>33.268202</ele>
        <time>2023-03-05T08:16:28.000Z</time>
      </trkpt>
      <trkpt lat="51.096740" lon="5.759036">
        <ele>33.232928</ele>
        <time>2023-03-05T08:16:29.000Z</time>
      </trkpt>
      <trkpt lat="51.096688" lon="5.759024">
        <ele>33.196587</ele>
        <time>2023-03-05T08:16:30.000Z</time>
      </trkpt>
      <trkpt lat="51.096633" lon="5.759009">
        <ele>33.157993</ele>
        <time>2023-03-05T08:16:31.000Z</time>
      </trkpt>
      <trkpt lat="51.096575" lon="5.758990">
        <ele>33.117037</ele>
        <time>2023-03-05T08:16:32.000Z</time>
      </trkpt>
      <trkpt lat="51.096517" lon="5.758973">
        <ele>33.076248</ele>
        <time>2023-03-05T08:16:33.000Z</time>
      </trkpt>
      <trkpt lat="51.096455" lon="5.758959">
        <ele>33.032937</ele>
        <time>2023-03-05T08:16:34.000Z</time>
      </trkpt>
      <trkpt lat="51.096396" lon="5.758945">
        <ele>32.991679</ele>
        <time>2023-03-05T08:16:35.000Z</time>
      </trkpt>
      <trkpt lat="51.096336" lon="5.758936">
        <ele>32.961045</ele>
        <time>2023-03-05T08:16:36.000Z</time>
      </trkpt>
      <trkpt lat="51.096275" lon="5.758929">
        <ele>32.931245</ele>
        <time>2023-03-05T08:16:37.000Z</time>
      </trkpt>
      <trkpt lat="51.096216" lon="5.758918">
        <ele>32.902300</ele>
        <time>2023-03-05T08:16:38.000Z</time>
      </trkpt>
      <trkpt lat="51.096161" lon="5.758907">
        <ele>32.875290</ele>
        <time>2023-03-05T08:16:39.000Z</time>
      </trkpt>
      <trkpt lat="51.096108" lon="5.758896">
        <ele>32.849246</ele>
        <time>2023-03-05T08:16:40.000Z</time>
      </trkpt>
      <trkpt lat="51.096052" lon="5.758887">
        <ele>32.821821</ele>
        <time>2023-03-05T08:16:41.000Z</time>
      </trkpt>
      <trkpt lat="51.095998" lon="5.758881">
        <ele>32.795445</ele>
        <time>2023-03-05T08:16:42.000Z</time>
      </trkpt>
      <trkpt lat="51.095947" lon="5.758877">
        <ele>32.770564</ele>
        <time>2023-03-05T08:16:43.000Z</time>
      </trkpt>
      <trkpt lat="51.095888" lon="5.758876">
        <ele>32.741814</ele>
        <time>2023-03-05T08:16:44.000Z</time>
      </trkpt>
      <trkpt lat="51.095822" lon="5.758873">
        <ele>32.709641</ele>
        <time>2023-03-05T08:16:45.000Z</time>
      </trkpt>
      <trkpt lat="51.095761" lon="5.758872">
        <ele>32.679916</ele>
        <time>2023-03-05T08:16:46.000Z</time>
      </trkpt>
      <trkpt lat="51.095697" lon="5.758869">
        <ele>32.648718</ele>
        <time>2023-03-05T08:16:47.000Z</time>
      </trkpt>
      <trkpt lat="51.095632" lon="5.758870">
        <ele>32.617044</ele>
        <time>2023-03-05T08:16:48.000Z</time>
      </trkpt>
      <trkpt lat="51.095569" lon="5.758878">
        <ele>32.586249</ele>
        <time>2023-03-05T08:16:49.000Z</time>
      </trkpt>
      <trkpt lat="51.095506" lon="5.758889">
        <ele>32.555367</ele>
        <time>2023-03-05T08:16:50.000Z</time>
      </trkpt>
      <trkpt lat="51.095441" lon="5.758900">
        <ele>32.523517</ele>
        <time>2023-03-05T08:16:51.000Z</time>
      </trkpt>
      <trkpt lat="51.095376" lon="5.758907">
        <ele>32.491772</ele>
        <time>2023-03-05T08:16:52.000Z</time>
      </trkpt>
      <trkpt lat="51.095312" lon="5.758909">
        <ele>32.460581</ele>
        <time>2023-03-05T08:16:53.000Z</time>
      </trkpt>
      <trkpt lat="51.095247" lon="5.758909">
        <ele>32.428909</ele>
        <time>2023-03-05T08:16:54.000Z</time>
      </trkpt>
      <trkpt lat="51.095182" lon="5.758904">
        <ele>32.397200</ele>
        <time>2023-03-05T08:16:55.000Z</time>
      </trkpt>
      <trkpt lat="51.095115" lon="5.758897">
        <ele>32.364483</ele>
        <time>2023-03-05T08:16:56.000Z</time>
      </trkpt>
      <trkpt lat="51.095046" lon="5.758891">
        <ele>32.330811</ele>
        <time>2023-03-05T08:16:57.000Z</time>
      </trkpt>
      <trkpt lat="51.094978" lon="5.758884">
        <ele>32.297608</ele>
        <time>2023-03-05T08:16:58.000Z</time>
      </trkpt>
      <trkpt lat="51.094913" lon="5.758879">
        <ele>32.265899</ele>
        <time>2023-03-05T08:16:59.000Z</time>
      </trkpt>
      <trkpt lat="51.094856" lon="5.758877">
        <ele>32.238118</ele>
        <time>2023-03-05T08:17:00.000Z</time>
      </trkpt>
      <trkpt lat="51.094792" lon="5.758875">
        <ele>32.206927</ele>
        <time>2023-03-05T08:17:01.000Z</time>
      </trkpt>
      <trkpt lat="51.094724" lon="5.758870">
        <ele>32.173758</ele>
        <time>2023-03-05T08:17:02.000Z</time>
      </trkpt>
      <trkpt lat="51.094659" lon="5.758862">
        <ele>32.141991</ele>
        <time>2023-03-05T08:17:03.000Z</time>
      </trkpt>
      <trkpt lat="51.094599" lon="5.758852">
        <ele>32.112595</ele>
        <time>2023-03-05T08:17:04.000Z</time>
      </trkpt>
      <trkpt lat="51.094542" lon="5.758848">
        <ele>32.112676</ele>
        <time>2023-03-05T08:17:05.000Z</time>
      </trkpt>
      <trkpt lat="51.094487" lon="5.758849">
        <ele>32.114422</ele>
        <time>2023-03-05T08:17:06.000Z</time>
      </trkpt>
      <trkpt lat="51.094431" lon="5.758848">
        <ele>32.116200</ele>
        <time>2023-03-05T08:17:07.000Z</time>
      </trkpt>
      <trkpt lat="51.094376" lon="5.758841">
        <ele>32.117951</ele>
        <time>2023-03-05T08:17:08.000Z</time>
      </trkpt>
      <trkpt lat="51.094323" lon="5.758832">
        <ele>32.119643</ele>
        <time>2023-03-05T08:17:09.000Z</time>
      </trkpt>
      <trkpt lat="51.094265" lon="5.758822">
        <ele>32.121495</ele>
        <time>2023-03-05T08:17:10.000Z</time>
      </trkpt>
      <trkpt lat="51.094202" lon="5.758811">
        <ele>32.123507</ele>
        <time>2023-03-05T08:17:11.000Z</time>
      </trkpt>
      <trkpt lat="51.094135" lon="5.758798">
        <ele>32.125650</ele>
        <time>2023-03-05T08:17:12.000Z</time>
      </trkpt>
      <trkpt lat="51.094069" lon="5.758788">
        <ele>32.127755</ele>
        <time>2023-03-05T08:17:13.000Z</time>
      </trkpt>
      <trkpt lat="51.094004" lon="5.758779">
        <ele>32.129826</ele>
        <time>2023-03-05T08:17:14.000Z</time>
      </trkpt>
      <trkpt lat="51.093936" lon="5.758769">
        <ele>32.131994</ele>
        <time>2023-03-05T08:17:15.000Z</time>
      </trkpt>
      <trkpt lat="51.093870" lon="5.758761">
        <ele>32.134095</ele>
        <time>2023-03-05T08:17:16.000Z</time>
      </trkpt>
      <trkpt lat="51.093805" lon="5.758753">
        <ele>32.136165</ele>
        <time>2023-03-05T08:17:17.000Z</time>
      </trkpt>
      <trkpt lat="51.093738" lon="5.758746">
        <ele>32.138296</ele>
        <time>2023-03-05T08:17:18.000Z</time>
      </trkpt>
      <trkpt lat="51.093674" lon="5.758739">
        <ele>32.140333</ele>
        <time>2023-03-05T08:17:19.000Z</time>
      </trkpt>
      <trkpt lat="51.093610" lon="5.758735">
        <ele>32.142366</ele>
        <time>2023-03-05T08:17:20.000Z</time>
      </trkpt>
      <trkpt lat="51.093548" lon="5.758732">
        <ele>32.144335</ele>
        <time>2023-03-05T08:17:21.000Z</time>
      </trkpt>
      <trkpt lat="51.093484" lon="5.758733">
        <ele>32.146367</ele>
        <time>2023-03-05T08:17:22.000Z</time>
      </trkpt>
      <trkpt lat="51.093419" lon="5.758737">
        <ele>32.148432</ele>
        <time>2023-03-05T08:17:23.000Z</time>
      </trkpt>
      <trkpt lat="51.093357" lon="5.758744">
        <ele>32.150405</ele>
        <time>2023-03-05T08:17:24.000Z</time>
      </trkpt>
      <trkpt lat="51.093296" lon="5.758753">
        <ele>32.152350</ele>
        <time>2023-03-05T08:17:25.000Z</time>
      </trkpt>
      <trkpt lat="51.093235" lon="5.758765">
        <ele>32.154301</ele>
        <time>2023-03-05T08:17:26.000Z</time>
      </trkpt>
      <trkpt lat="51.093173" lon="5.758778">
        <ele>32.156286</ele>
        <time>2023-03-05T08:17:27.000Z</time>
      </trkpt>
      <trkpt lat="51.093113" lon="5.758793">
        <ele>32.158214</ele>
        <time>2023-03-05T08:17:28.000Z</time>
      </trkpt>
      <trkpt lat="51.093052" lon="5.758809">
        <ele>32.160177</ele>
        <time>2023-03-05T08:17:29.000Z</time>
      </trkpt>
      <trkpt lat="51.092992" lon="5.758824">
        <ele>32.162105</ele>
        <time>2023-03-05T08:17:30.000Z</time>
      </trkpt>
      <trkpt lat="51.092931" lon="5.758840">
        <ele>32.164067</ele>
        <time>2023-03-05T08:17:31.000Z</time>
      </trkpt>
      <trkpt lat="51.092871" lon="5.758857">
        <ele>32.166002</ele>
        <time>2023-03-05T08:17:32.000Z</time>
      </trkpt>
      <trkpt lat="51.092814" lon="5.758874">
        <ele>32.167843</ele>
        <time>2023-03-05T08:17:33.000Z</time>
      </trkpt>
      <trkpt lat="51.092760" lon="5.758890">
        <ele>32.181627</ele>
        <time>2023-03-05T08:17:34.000Z</time>
      </trkpt>
      <trkpt lat="51.092708" lon="5.758911">
        <ele>32.196841</ele>
        <time>2023-03-05T08:17:35.000Z</time>
      </trkpt>
      <trkpt lat="51.092663" lon="5.758947">
        <ele>32.211123</ele>
        <time>2023-03-05T08:17:36.000Z</time>
      </trkpt>
      <trkpt lat="51.092626" lon="5.759008">
        <ele>32.226228</ele>
        <time>2023-03-05T08:17:37.000Z</time>
      </trkpt>
      <trkpt lat="51.092599" lon="5.759093">
        <ele>32.243195</ele>
        <time>2023-03-05T08:17:38.000Z</time>
      </trkpt>
      <trkpt lat="51.092583" lon="5.759190">
        <ele>32.261058</ele>
        <time>2023-03-05T08:17:39.000Z</time>
      </trkpt>
      <trkpt lat="51.092574" lon="5.759290">
        <ele>32.279052</ele>
        <time>2023-03-05T08:17:40.000Z</time>
      </trkpt>
      <trkpt lat="51.092569" lon="5.759392">
        <ele>32.297275</ele>
        <time>2023-03-05T08:17:41.000Z</time>
      </trkpt>
      <trkpt lat="51.092565" lon="5.759495">
        <ele>32.315657</ele>
        <time>2023-03-05T08:17:42.000Z</time>
      </trkpt>
      <trkpt lat="51.092566" lon="5.759597">
        <ele>32.333827</ele>
        <time>2023-03-05T08:17:43.000Z</time>
      </trkpt>
      <trkpt lat="51.092567" lon="5.759697">
        <ele>32.351641</ele>
        <time>2023-03-05T08:17:44.000Z</time>
      </trkpt>
      <trkpt lat="51.092570" lon="5.759798">
        <ele>32.369651</ele>
        <time>2023-03-05T08:17:45.000Z</time>
      </trkpt>
      <trkpt lat="51.092574" lon="5.759902">
        <ele>32.388210</ele>
        <time>2023-03-05T08:17:46.000Z</time>
      </trkpt>
      <trkpt lat="51.092580" lon="5.760004">
        <ele>32.406458</ele>
        <time>2023-03-05T08:17:47.000Z</time>
      </trkpt>
      <trkpt lat="51.092587" lon="5.760104">
        <ele>32.424380</ele>
        <time>2023-03-05T08:17:48.000Z</time>
      </trkpt>
      <trkpt lat="51.092597" lon="5.760202">
        <ele>32.442065</ele>
        <time>2023-03-05T08:17:49.000Z</time>
      </trkpt>
      <trkpt lat="51.092609" lon="5.760298">
        <ele>32.459499</ele>
        <time>2023-03-05T08:17:50.000Z</time>
      </trkpt>
      <trkpt lat="51.092620" lon="5.760393">
        <ele>32.476706</ele>
        <time>2023-03-05T08:17:51.000Z</time>
      </trkpt>
      <trkpt lat="51.092627" lon="5.760488">
        <ele>32.493743</ele>
        <time>2023-03-05T08:17:52.000Z</time>
      </trkpt>
      <trkpt lat="51.092631" lon="5.760588">
        <ele>32.511591</ele>
        <time>2023-03-05T08:17:53.000Z</time>
      </trkpt>
      <trkpt lat="51.092625" lon="5.760684">
        <ele>32.528775</ele>
        <time>2023-03-05T08:17:54.000Z</time>
      </trkpt>
      <trkpt lat="51.092604" lon="5.760778">
        <ele>32.546546</ele>
        <time>2023-03-05T08:17:55.000Z</time>
      </trkpt>
      <trkpt lat="51.092573" lon="5.760868">
        <ele>32.564829</ele>
        <time>2023-03-05T08:17:56.000Z</time>
      </trkpt>
      <trkpt lat="51.092541" lon="5.760957">
        <ele>32.583096</ele>
        <time>2023-03-05T08:17:57.000Z</time>
      </trkpt>
      <trkpt lat="51.092508" lon="5.761040">
        <ele>32.600593</ele>
        <time>2023-03-05T08:17:58.000Z</time>
      </trkpt>
      <trkpt lat="51.092473" lon="5.761120">
        <ele>32.617959</ele>
        <time>2023-03-05T08:17:59.000Z</time>
      </trkpt>
      <trkpt lat="51.092439" lon="5.761200">
        <ele>32.635164</ele>
        <time>2023-03-05T08:18:00.000Z</time>
      </trkpt>
      <trkpt lat="51.092402" lon="5.761278">
        <ele>32.652575</ele>
        <time>2023-03-05T08:18:01.000Z</time>
      </trkpt>
      <trkpt lat="51.092364" lon="5.761357">
        <ele>32.670299</ele>
        <time>2023-03-05T08:18:02.000Z</time>
      </trkpt>
      <trkpt lat="51.092327" lon="5.761433">
        <ele>32.676785</ele>
        <time>2023-03-05T08:18:03.000Z</time>
      </trkpt>
      <trkpt lat="51.092284" lon="5.761503">
        <ele>32.674187</ele>
        <time>2023-03-05T08:18:04.000Z</time>
      </trkpt>
      <trkpt lat="51.092233" lon="5.761560">
        <ele>32.671555</ele>
        <time>2023-03-05T08:18:05.000Z</time>
      </trkpt>
      <trkpt lat="51.092177" lon="5.761599">
        <ele>32.668973</ele>
        <time>2023-03-05T08:18:06.000Z</time>
      </trkpt>
      <trkpt lat="51.092120" lon="5.761621">
        <ele>32.666496</ele>
        <time>2023-03-05T08:18:07.000Z</time>
      </trkpt>
      <trkpt lat="51.092063" lon="5.761628">
        <ele>32.664081</ele>
        <time>2023-03-05T08:18:08.000Z</time>
      </trkpt>
      <trkpt lat="51.092005" lon="5.761630">
        <ele>32.661631</ele>
        <time>2023-03-05T08:18:09.000Z</time>
      </trkpt>
      <trkpt lat="51.091948" lon="5.761642">
        <ele>32.659202</ele>
        <time>2023-03-05T08:18:10.000Z</time>
      </trkpt>
      <trkpt lat="51.091893" lon="5.761670">
        <ele>32.656763</ele>
        <time>2023-03-05T08:18:11.000Z</time>
      </trkpt>
      <trkpt lat="51.091839" lon="5.761719">
        <ele>32.654138</ele>
        <time>2023-03-05T08:18:12.000Z</time>
      </trkpt>
      <trkpt lat="51.091791" lon="5.761786">
        <ele>32.651442</ele>
        <time>2023-03-05T08:18:13.000Z</time>
      </trkpt>
      <trkpt lat="51.091750" lon="5.761867">
        <ele>32.648682</ele>
        <time>2023-03-05T08:18:14.000Z</time>
      </trkpt>
      <trkpt lat="51.091717" lon="5.761959">
        <ele>32.645871</ele>
        <time>2023-03-05T08:18:15.000Z</time>
      </trkpt>
      <trkpt lat="51.091691" lon="5.762053">
        <ele>32.643146</ele>
        <time>2023-03-05T08:18:16.000Z</time>
      </trkpt>
      <trkpt lat="51.091670" lon="5.762150">
        <ele>32.640424</ele>
        <time>2023-03-05T08:18:17.000Z</time>
      </trkpt>
      <trkpt lat="51.091651" lon="5.762247">
        <ele>32.637729</ele>
        <time>2023-03-05T08:18:18.000Z</time>
      </trkpt>
      <trkpt lat="51.091635" lon="5.762345">
        <ele>32.635043</ele>
        <time>2023-03-05T08:18:19.000Z</time>
      </trkpt>
      <trkpt lat="51.091624" lon="5.762446">
        <ele>32.632323</ele>
        <time>2023-03-05T08:18:20.000Z</time>
      </trkpt>
      <trkpt lat="51.091614" lon="5.762547">
        <ele>32.629611</ele>
        <time>2023-03-05T08:18:21.000Z</time>
      </trkpt>
      <trkpt lat="51.091600" lon="5.762644">
        <ele>32.626970</ele>
        <time>2023-03-05T08:18:22.000Z</time>
      </trkpt>
      <trkpt lat="51.091583" lon="5.762740">
        <ele>32.624324</ele>
        <time>2023-03-05T08:18:23.000Z</time>
      </trkpt>
      <trkpt lat="51.091564" lon="5.762837">
        <ele>32.621629</ele>
        <time>2023-03-05T08:18:24.000Z</time>
      </trkpt>
      <trkpt lat="51.091547" lon="5.762932">
        <ele>32.619008</ele>
        <time>2023-03-05T08:18:25.000Z</time>
      </trkpt>
      <trkpt lat="51.091527" lon="5.763025">
        <ele>32.616400</ele>
        <time>2023-03-05T08:18:26.000Z</time>
      </trkpt>
      <trkpt lat="51.091504" lon="5.763117">
        <ele>32.613773</ele>
        <time>2023-03-05T08:18:27.000Z</time>
      </trkpt>
      <trkpt lat="51.091481" lon="5.763209">
        <ele>32.611146</ele>
        <time>2023-03-05T08:18:28.000Z</time>
      </trkpt>
      <trkpt lat="51.091461" lon="5.763304">
        <ele>32.608488</ele>
        <time>2023-03-05T08:18:29.000Z</time>
      </trkpt>
      <trkpt lat="51.091439" lon="5.763399">
        <ele>32.605802</ele>
        <time>2023-03-05T08:18:30.000Z</time>
      </trkpt>
      <trkpt lat="51.091419" lon="5.763493">
        <ele>32.603169</ele>
        <time>2023-03-05T08:18:31.000Z</time>
      </trkpt>
      <trkpt lat="51.091397" lon="5.763588">
        <ele>32.597446</ele>
        <time>2023-03-05T08:18:32.000Z</time>
      </trkpt>
      <trkpt lat="51.091377" lon="5.763682">
        <ele>32.590134</ele>
        <time>2023-03-05T08:18:33.000Z</time>
      </trkpt>
      <trkpt lat="51.091355" lon="5.763778">
        <ele>32.582604</ele>
        <time>2023-03-05T08:18:34.000Z</time>
      </trkpt>
      <trkpt lat="51.091337" lon="5.763875">
        <ele>32.575152</ele>
        <time>2023-03-05T08:18:35.000Z</time>
      </trkpt>
      <trkpt lat="51.091320" lon="5.763972">
        <ele>32.567732</ele>
        <time>2023-03-05T08:18:36.000Z</time>
      </trkpt>
      <trkpt lat="51.091300" lon="5.764070">
        <ele>32.560139</ele>
        <time>2023-03-05T08:18:37.000Z</time>
      </trkpt>
      <trkpt lat="51.091279" lon="5.764165">
        <ele>32.552719</ele>
        <time>2023-03-05T08:18:38.000Z</time>
      </trkpt>
      <trkpt lat="51.091259" lon="5.764260">
        <ele>32.545336</ele>
        <time>2023-03-05T08:18:39.000Z</time>
      </trkpt>
      <trkpt lat="51.091237" lon="5.764357">
        <ele>32.537737</ele>
        <time>2023-03-05T08:18:40.000Z</time>
      </trkpt>
      <trkpt lat="51.091214" lon="5.764452">
        <ele>32.530236</ele>
        <time>2023-03-05T08:18:41.000Z</time>
      </trkpt>
      <trkpt lat="51.091194" lon="5.764546">
        <ele>32.522923</ele>
        <time>2023-03-05T08:18:42.000Z</time>
      </trkpt>
      <trkpt lat="51.091172" lon="5.764640">
        <ele>32.515532</ele>
        <time>2023-03-05T08:18:43.000Z</time>
      </trkpt>
      <trkpt lat="51.091152" lon="5.764732">
        <ele>32.508358</ele>
        <time>2023-03-05T08:18:44.000Z</time>
      </trkpt>
      <trkpt lat="51.091131" lon="5.764824">
        <ele>32.501146</ele>
        <time>2023-03-05T08:18:45.000Z</time>
      </trkpt>
      <trkpt lat="51.091105" lon="5.764918">
        <ele>32.493578</ele>
        <time>2023-03-05T08:18:46.000Z</time>
      </trkpt>
      <trkpt lat="51.091081" lon="5.765012">
        <ele>32.486102</ele>
        <time>2023-03-05T08:18:47.000Z</time>
      </trkpt>
      <trkpt lat="51.091058" lon="5.765107">
        <ele>32.478600</ele>
        <time>2023-03-05T08:18:48.000Z</time>
      </trkpt>
      <trkpt lat="51.091037" lon="5.765204">
        <ele>32.471040</ele>
        <time>2023-03-05T08:18:49.000Z</time>
      </trkpt>
      <trkpt lat="51.091013" lon="5.765302">
        <ele>32.463290</ele>
        <time>2023-03-05T08:18:50.000Z</time>
      </trkpt>
      <trkpt lat="51.090989" lon="5.765400">
        <ele>32.455540</ele>
        <time>2023-03-05T08:18:51.000Z</time>
      </trkpt>
      <trkpt lat="51.090964" lon="5.765497">
        <ele>32.447814</ele>
        <time>2023-03-05T08:18:52.000Z</time>
      </trkpt>
      <trkpt lat="51.090937" lon="5.765594">
        <ele>32.439997</ele>
        <time>2023-03-05T08:18:53.000Z</time>
      </trkpt>
      <trkpt lat="51.090913" lon="5.765689">
        <ele>32.432452</ele>
        <time>2023-03-05T08:18:54.000Z</time>
      </trkpt>
      <trkpt lat="51.090890" lon="5.765786">
        <ele>32.424812</ele>
        <time>2023-03-05T08:18:55.000Z</time>
      </trkpt>
      <trkpt lat="51.090865" lon="5.765882">
        <ele>32.417155</ele>
        <time>2023-03-05T08:18:56.000Z</time>
      </trkpt>
      <trkpt lat="51.090840" lon="5.765976">
        <ele>32.409633</ele>
        <time>2023-03-05T08:18:57.000Z</time>
      </trkpt>
      <trkpt lat="51.090815" lon="5.766071">
        <ele>32.402044</ele>
        <time>2023-03-05T08:18:58.000Z</time>
      </trkpt>
      <trkpt lat="51.090788" lon="5.766166">
        <ele>32.394361</ele>
        <time>2023-03-05T08:18:59.000Z</time>
      </trkpt>
      <trkpt lat="51.090762" lon="5.766260">
        <ele>32.397827</ele>
        <time>2023-03-05T08:19:00.000Z</time>
      </trkpt>
      <trkpt lat="51.090735" lon="5.766352">
        <ele>32.409119</ele>
        <time>2023-03-05T08:19:01.000Z</time>
      </trkpt>
      <trkpt lat="51.090706" lon="5.766443">
        <ele>32.420467</ele>
        <time>2023-03-05T08:19:02.000Z</time>
      </trkpt>
      <trkpt lat="51.090673" lon="5.766532">
        <ele>32.431960</ele>
        <time>2023-03-05T08:19:03.000Z</time>
      </trkpt>
      <trkpt lat="51.090641" lon="5.766621">
        <ele>32.443363</ele>
        <time>2023-03-05T08:19:04.000Z</time>
      </trkpt>
      <trkpt lat="51.090611" lon="5.766709">
        <ele>32.454498</ele>
        <time>2023-03-05T08:19:05.000Z</time>
      </trkpt>
      <trkpt lat="51.090578" lon="5.766795">
        <ele>32.465705</ele>
        <time>2023-03-05T08:19:06.000Z</time>
      </trkpt>
      <trkpt lat="51.090543" lon="5.766880">
        <ele>32.477007</ele>
        <time>2023-03-05T08:19:07.000Z</time>
      </trkpt>
      <trkpt lat="51.090509" lon="5.766964">
        <ele>32.488120</ele>
        <time>2023-03-05T08:19:08.000Z</time>
      </trkpt>
      <trkpt lat="51.090472" lon="5.767046">
        <ele>32.499348</ele>
        <time>2023-03-05T08:19:09.000Z</time>
      </trkpt>
      <trkpt lat="51.090434" lon="5.767126">
        <ele>32.510501</ele>
        <time>2023-03-05T08:19:10.000Z</time>
      </trkpt>
      <trkpt lat="51.090391" lon="5.767208">
        <ele>32.522380</ele>
        <time>2023-03-05T08:19:11.000Z</time>
      </trkpt>
      <trkpt lat="51.090348" lon="5.767290">
        <ele>32.534259</ele>
        <time>2023-03-05T08:19:12.000Z</time>
      </trkpt>
      <trkpt lat="51.090306" lon="5.767371">
        <ele>32.545939</ele>
        <time>2023-03-05T08:19:13.000Z</time>
      </trkpt>
      <trkpt lat="51.090264" lon="5.767451">
        <ele>32.557534</ele>
        <time>2023-03-05T08:19:14.000Z</time>
      </trkpt>
      <trkpt lat="51.090224" lon="5.767528">
        <ele>32.568646</ele>
        <time>2023-03-05T08:19:15.000Z</time>
      </trkpt>
      <trkpt lat="51.090181" lon="5.767602">
        <ele>32.579857</ele>
        <time>2023-03-05T08:19:16.000Z</time>
      </trkpt>
      <trkpt lat="51.090140" lon="5.767672">
        <ele>32.590500</ele>
        <time>2023-03-05T08:19:17.000Z</time>
      </trkpt>
      <trkpt lat="51.090100" lon="5.767740">
        <ele>32.600861</ele>
        <time>2023-03-05T08:19:18.000Z</time>
      </trkpt>
      <trkpt lat="51.090060" lon="5.767805">
        <ele>32.610980</ele>
        <time>2023-03-05T08:19:19.000Z</time>
      </trkpt>
      <trkpt lat="51.090024" lon="5.767865">
        <ele>32.620207</ele>
        <time>2023-03-05T08:19:20.000Z</time>
      </trkpt>
      <trkpt lat="51.089990" lon="5.767920">
        <ele>32.628789</ele>
        <time>2023-03-05T08:19:21.000Z</time>
      </trkpt>
      <trkpt lat="51.089958" lon="5.767970">
        <ele>32.636727</ele>
        <time>2023-03-05T08:19:22.000Z</time>
      </trkpt>
      <trkpt lat="51.089930" lon="5.768011">
        <ele>32.643462</ele>
        <time>2023-03-05T08:19:23.000Z</time>
      </trkpt>
      <trkpt lat="51.089906" lon="5.768042">
        <ele>32.648934</ele>
        <time>2023-03-05T08:19:24.000Z</time>
      </trkpt>
      <trkpt lat="51.089885" lon="5.768067">
        <ele>32.653576</ele>
        <time>2023-03-05T08:19:25.000Z</time>
      </trkpt>
      <trkpt lat="51.089866" lon="5.768084">
        <ele>32.657435</ele>
        <time>2023-03-05T08:19:26.000Z</time>
      </trkpt>
      <trkpt lat="51.089852" lon="5.768096">
        <ele>32.660250</ele>
        <time>2023-03-05T08:19:27.000Z</time>
      </trkpt>
      <trkpt lat="51.089843" lon="5.768104">
        <ele>32.662075</ele>
        <time>2023-03-05T08:19:28.000Z</time>
      </trkpt>
      <trkpt lat="51.089835" lon="5.768112">
        <ele>32.663748</ele>
        <time>2023-03-05T08:19:29.000Z</time>
      </trkpt>
      <trkpt lat="51.089828" lon="5.768122">
        <ele>32.665413</ele>
        <time>2023-03-05T08:19:30.000Z</time>
      </trkpt>
      <trkpt lat="51.089818" lon="5.768138">
        <ele>32.667923</ele>
        <time>2023-03-05T08:19:31.000Z</time>
      </trkpt>
      <trkpt lat="51.089806" lon="5.768161">
        <ele>32.671248</ele>
        <time>2023-03-05T08:19:32.000Z</time>
      </trkpt>
      <trkpt lat="51.089797" lon="5.768195">
        <ele>32.675351</ele>
        <time>2023-03-05T08:19:33.000Z</time>
      </trkpt>
      <trkpt lat="51.089792" lon="5.768240">
        <ele>32.680433</ele>
        <time>2023-03-05T08:19:34.000Z</time>
      </trkpt>
      <trkpt lat="51.089790" lon="5.768291">
        <ele>32.686115</ele>
        <time>2023-03-05T08:19:35.000Z</time>
      </trkpt>
      <trkpt lat="51.089790" lon="5.768349">
        <ele>32.692565</ele>
        <time>2023-03-05T08:19:36.000Z</time>
      </trkpt>
      <trkpt lat="51.089798" lon="5.768410">
        <ele>32.699495</ele>
        <time>2023-03-05T08:19:37.000Z</time>
      </trkpt>
      <trkpt lat="51.089816" lon="5.768469">
        <ele>32.706789</ele>
        <time>2023-03-05T08:19:38.000Z</time>
      </trkpt>
      <trkpt lat="51.089844" lon="5.768529">
        <ele>32.694990</ele>
        <time>2023-03-05T08:19:39.000Z</time>
      </trkpt>
      <trkpt lat="51.089874" lon="5.768591">
        <ele>32.671658</ele>
        <time>2023-03-05T08:19:40.000Z</time>
      </trkpt>
      <trkpt lat="51.089905" lon="5.768658">
        <ele>32.646850</ele>
        <time>2023-03-05T08:19:41.000Z</time>
      </trkpt>
      <trkpt lat="51.089938" lon="5.768729">
        <ele>32.620519</ele>
        <time>2023-03-05T08:19:42.000Z</time>
      </trkpt>
      <trkpt lat="51.089972" lon="5.768804">
        <ele>32.592945</ele>
        <time>2023-03-05T08:19:43.000Z</time>
      </trkpt>
      <trkpt lat="51.090004" lon="5.768882">
        <ele>32.565171</ele>
        <time>2023-03-05T08:19:44.000Z</time>
      </trkpt>
      <trkpt lat="51.090037" lon="5.768959">
        <ele>32.537381</ele>
        <time>2023-03-05T08:19:45.000Z</time>
      </trkpt>
      <trkpt lat="51.090071" lon="5.769035">
        <ele>32.509565</ele>
        <time>2023-03-05T08:19:46.000Z</time>
      </trkpt>
      <trkpt lat="51.090106" lon="5.769113">
        <ele>32.480987</ele>
        <time>2023-03-05T08:19:47.000Z</time>
      </trkpt>
      <trkpt lat="51.090142" lon="5.769192">
        <ele>32.451891</ele>
        <time>2023-03-05T08:19:48.000Z</time>
      </trkpt>
      <trkpt lat="51.090178" lon="5.769272">
        <ele>32.422552</ele>
        <time>2023-03-05T08:19:49.000Z</time>
      </trkpt>
      <trkpt lat="51.090212" lon="5.769349">
        <ele>32.394493</ele>
        <time>2023-03-05T08:19:50.000Z</time>
      </trkpt>
      <trkpt lat="51.090246" lon="5.769428">
        <ele>32.365943</ele>
        <time>2023-03-05T08:19:51.000Z</time>
      </trkpt>
      <trkpt lat="51.090281" lon="5.769506">
        <ele>32.337366</ele>
        <time>2023-03-05T08:19:52.000Z</time>
      </trkpt>
      <trkpt lat="51.090316" lon="5.769579">
        <ele>32.309987</ele>
        <time>2023-03-05T08:19:53.000Z</time>
      </trkpt>
      <trkpt lat="51.090347" lon="5.769647">
        <ele>32.284939</ele>
        <time>2023-03-05T08:19:54.000Z</time>
      </trkpt>
      <trkpt lat="51.090375" lon="5.769713">
        <ele>32.261196</ele>
        <time>2023-03-05T08:19:55.000Z</time>
      </trkpt>
      <trkpt lat="51.090402" lon="5.769772">
        <ele>32.239433</ele>
        <time>2023-03-05T08:19:56.000Z</time>
      </trkpt>
      <trkpt lat="51.090424" lon="5.769832">
        <ele>32.218722</ele>
        <time>2023-03-05T08:19:57.000Z</time>
      </trkpt>
      <trkpt lat="51.090434" lon="5.769896">
        <ele>32.199061</ele>
        <time>2023-03-05T08:19:58.000Z</time>
      </trkpt>
      <trkpt lat="51.090423" lon="5.769964">
        <ele>32.178128</ele>
        <time>2023-03-05T08:19:59.000Z</time>
      </trkpt>
      <trkpt lat="51.090394" lon="5.770038">
        <ele>32.152125</ele>
        <time>2023-03-05T08:20:00.000Z</time>
      </trkpt>
      <trkpt lat="51.090362" lon="5.770124">
        <ele>32.122326</ele>
        <time>2023-03-05T08:20:01.000Z</time>
      </trkpt>
      <trkpt lat="51.090332" lon="5.770221">
        <ele>32.090094</ele>
        <time>2023-03-05T08:20:02.000Z</time>
      </trkpt>
      <trkpt lat="51.090304" lon="5.770321">
        <ele>32.057454</ele>
        <time>2023-03-05T08:20:03.000Z</time>
      </trkpt>
      <trkpt lat="51.090277" lon="5.770421">
        <ele>32.025005</ele>
        <time>2023-03-05T08:20:04.000Z</time>
      </trkpt>
      <trkpt lat="51.090248" lon="5.770519">
        <ele>31.992709</ele>
        <time>2023-03-05T08:20:05.000Z</time>
      </trkpt>
      <trkpt lat="51.090220" lon="5.770618">
        <ele>31.960342</ele>
        <time>2023-03-05T08:20:06.000Z</time>
      </trkpt>
      <trkpt lat="51.090193" lon="5.770718">
        <ele>31.927893</ele>
        <time>2023-03-05T08:20:07.000Z</time>
      </trkpt>
      <trkpt lat="51.090167" lon="5.770820">
        <ele>31.895076</ele>
        <time>2023-03-05T08:20:08.000Z</time>
      </trkpt>
      <trkpt lat="51.090142" lon="5.770924">
        <ele>31.861879</ele>
        <time>2023-03-05T08:20:09.000Z</time>
      </trkpt>
      <trkpt lat="51.090117" lon="5.771029">
        <ele>31.848589</ele>
        <time>2023-03-05T08:20:10.000Z</time>
      </trkpt>
      <trkpt lat="51.090090" lon="5.771134">
        <ele>31.839558</ele>
        <time>2023-03-05T08:20:11.000Z</time>
      </trkpt>
      <trkpt lat="51.090066" lon="5.771237">
        <ele>31.830813</ele>
        <time>2023-03-05T08:20:12.000Z</time>
      </trkpt>
      <trkpt lat="51.090038" lon="5.771342">
        <ele>31.821733</ele>
        <time>2023-03-05T08:20:13.000Z</time>
      </trkpt>
      <trkpt lat="51.090010" lon="5.771448">
        <ele>31.812580</ele>
        <time>2023-03-05T08:20:14.000Z</time>
      </trkpt>
      <trkpt lat="51.089986" lon="5.771552">
        <ele>31.803761</ele>
        <time>2023-03-05T08:20:15.000Z</time>
      </trkpt>
      <trkpt lat="51.089963" lon="5.771656">
        <ele>31.794984</ele>
        <time>2023-03-05T08:20:16.000Z</time>
      </trkpt>
      <trkpt lat="51.089940" lon="5.771759">
        <ele>31.786283</ele>
        <time>2023-03-05T08:20:17.000Z</time>
      </trkpt>
      <trkpt lat="51.089915" lon="5.771859">
        <ele>31.777716</ele>
        <time>2023-03-05T08:20:18.000Z</time>
      </trkpt>
      <trkpt lat="51.089891" lon="5.771959">
        <ele>31.769194</ele>
        <time>2023-03-05T08:20:19.000Z</time>
      </trkpt>
      <trkpt lat="51.089870" lon="5.772058">
        <ele>31.760877</ele>
        <time>2023-03-05T08:20:20.000Z</time>
      </trkpt>
      <trkpt lat="51.089848" lon="5.772156">
        <ele>31.752593</ele>
        <time>2023-03-05T08:20:21.000Z</time>
      </trkpt>
      <trkpt lat="51.089823" lon="5.772252">
        <ele>31.744321</ele>
        <time>2023-03-05T08:20:22.000Z</time>
      </trkpt>
      <trkpt lat="51.089796" lon="5.772349">
        <ele>31.735875</ele>
        <time>2023-03-05T08:20:23.000Z</time>
      </trkpt>
      <trkpt lat="51.089770" lon="5.772445">
        <ele>31.727554</ele>
        <time>2023-03-05T08:20:24.000Z</time>
      </trkpt>
      <trkpt lat="51.089743" lon="5.772544">
        <ele>31.718963</ele>
        <time>2023-03-05T08:20:25.000Z</time>
      </trkpt>
      <trkpt lat="51.089714" lon="5.772638">
        <ele>31.710627</ele>
        <time>2023-03-05T08:20:26.000Z</time>
      </trkpt>
      <trkpt lat="51.089681" lon="5.772733">
        <ele>31.701985</ele>
        <time>2023-03-05T08:20:27.000Z</time>
      </trkpt>
      <trkpt lat="51.089647" lon="5.772829">
        <ele>31.693213</ele>
        <time>2023-03-05T08:20:28.000Z</time>
      </trkpt>
      <trkpt lat="51.089612" lon="5.772922">
        <ele>31.684583</ele>
        <time>2023-03-05T08:20:29.000Z</time>
      </trkpt>
      <trkpt lat="51.089578" lon="5.773015">
        <ele>31.676017</ele>
        <time>2023-03-05T08:20:30.000Z</time>
      </trkpt>
      <trkpt lat="51.089546" lon="5.773108">
        <ele>31.667577</ele>
        <time>2023-03-05T08:20:31.000Z</time>
      </trkpt>
      <trkpt lat="51.089513" lon="5.773199">
        <ele>31.659212</ele>
        <time>2023-03-05T08:20:32.000Z</time>
      </trkpt>
      <trkpt lat="51.089477" lon="5.773291">
        <ele>31.650584</ele>
        <time>2023-03-05T08:20:33.000Z</time>
      </trkpt>
      <trkpt lat="51.089441" lon="5.773384">
        <ele>31.641889</ele>
        <time>2023-03-05T08:20:34.000Z</time>
      </trkpt>
      <trkpt lat="51.089404" lon="5.773475">
        <ele>31.633260</ele>
        <time>2023-03-05T08:20:35.000Z</time>
      </trkpt>
      <trkpt lat="51.089368" lon="5.773567">
        <ele>31.621675</ele>
        <time>2023-03-05T08:20:36.000Z</time>
      </trkpt>
      <trkpt lat="51.089334" lon="5.773658">
        <ele>31.605850</ele>
        <time>2023-03-05T08:20:37.000Z</time>
      </trkpt>
      <trkpt lat="51.089298" lon="5.773745">
        <ele>31.590278</ele>
        <time>2023-03-05T08:20:38.000Z</time>
      </trkpt>
      <trkpt lat="51.089262" lon="5.773833">
        <ele>31.574582</ele>
        <time>2023-03-05T08:20:39.000Z</time>
      </trkpt>
      <trkpt lat="51.089227" lon="5.773920">
        <ele>31.559140</ele>
        <time>2023-03-05T08:20:40.000Z</time>
      </trkpt>
      <trkpt lat="51.089190" lon="5.774005">
        <ele>31.543683</ele>
        <time>2023-03-05T08:20:41.000Z</time>
      </trkpt>
      <trkpt lat="51.089155" lon="5.774090">
        <ele>31.528492</ele>
        <time>2023-03-05T08:20:42.000Z</time>
      </trkpt>
      <trkpt lat="51.089120" lon="5.774174">
        <ele>31.513425</ele>
        <time>2023-03-05T08:20:43.000Z</time>
      </trkpt>
      <trkpt lat="51.089086" lon="5.774257">
        <ele>31.498615</ele>
        <time>2023-03-05T08:20:44.000Z</time>
      </trkpt>
      <trkpt lat="51.089049" lon="5.774343">
        <ele>31.483034</ele>
        <time>2023-03-05T08:20:45.000Z</time>
      </trkpt>
      <trkpt lat="51.089013" lon="5.774430">
        <ele>31.467463</ele>
        <time>2023-03-05T08:20:46.000Z</time>
      </trkpt>
      <trkpt lat="51.088979" lon="5.774518">
        <ele>31.452021</ele>
        <time>2023-03-05T08:20:47.000Z</time>
      </trkpt>
      <trkpt lat="51.088942" lon="5.774607">
        <ele>31.436069</ele>
        <time>2023-03-05T08:20:48.000Z</time>
      </trkpt>
      <trkpt lat="51.088906" lon="5.774697">
        <ele>31.420121</ele>
        <time>2023-03-05T08:20:49.000Z</time>
      </trkpt>
      <trkpt lat="51.088872" lon="5.774785">
        <ele>31.404679</ele>
        <time>2023-03-05T08:20:50.000Z</time>
      </trkpt>
      <trkpt lat="51.088838" lon="5.774874">
        <ele>31.389109</ele>
        <time>2023-03-05T08:20:51.000Z</time>
      </trkpt>
      <trkpt lat="51.088806" lon="5.774962">
        <ele>31.373911</ele>
        <time>2023-03-05T08:20:52.000Z</time>
      </trkpt>
      <trkpt lat="51.088771" lon="5.775050">
        <ele>31.358343</ele>
        <time>2023-03-05T08:20:53.000Z</time>
      </trkpt>
      <trkpt lat="51.088738" lon="5.775138">
        <ele>31.343024</ele>
        <time>2023-03-05T08:20:54.000Z</time>
      </trkpt>
      <trkpt lat="51.088707" lon="5.775230">
        <ele>31.327420</ele>
        <time>2023-03-05T08:20:55.000Z</time>
      </trkpt>
      <trkpt lat="51.088676" lon="5.775323">
        <ele>31.311683</ele>
        <time>2023-03-05T08:20:56.000Z</time>
      </trkpt>
      <trkpt lat="51.088646" lon="5.775415">
        <ele>31.296190</ele>
        <time>2023-03-05T08:20:57.000Z</time>
      </trkpt>
      <trkpt lat="51.088615" lon="5.775507">
        <ele>31.280585</ele>
        <time>2023-03-05T08:20:58.000Z</time>
      </trkpt>
      <trkpt lat="51.088585" lon="5.775601">
        <ele>31.264826</ele>
        <time>2023-03-05T08:20:59.000Z</time>
      </trkpt>
      <trkpt lat="51.088557" lon="5.775694">
        <ele>31.249411</ele>
        <time>2023-03-05T08:21:00.000Z</time>
      </trkpt>
      <trkpt lat="51.088530" lon="5.775794">
        <ele>31.233142</ele>
        <time>2023-03-05T08:21:01.000Z</time>
      </trkpt>
      <trkpt lat="51.088508" lon="5.775894">
        <ele>31.217305</ele>
        <time>2023-03-05T08:21:02.000Z</time>
      </trkpt>
      <trkpt lat="51.088491" lon="5.775996">
        <ele>31.201532</ele>
        <time>2023-03-05T08:21:03.000Z</time>
      </trkpt>
      <trkpt lat="51.088479" lon="5.776100">
        <ele>31.226919</ele>
        <time>2023-03-05T08:21:04.000Z</time>
      </trkpt>
      <trkpt lat="51.088472" lon="5.776206">
        <ele>31.256971</ele>
        <time>2023-03-05T08:21:05.000Z</time>
      </trkpt>
      <trkpt lat="51.088470" lon="5.776313">
        <ele>31.287153</ele>
        <time>2023-03-05T08:21:06.000Z</time>
      </trkpt>
      <trkpt lat="51.088478" lon="5.776423">
        <ele>31.318376</ele>
        <time>2023-03-05T08:21:07.000Z</time>
      </trkpt>
      <trkpt lat="51.088487" lon="5.776531">
        <ele>31.349093</ele>
        <time>2023-03-05T08:21:08.000Z</time>
      </trkpt>
      <trkpt lat="51.088499" lon="5.776641">
        <ele>31.380573</ele>
        <time>2023-03-05T08:21:09.000Z</time>
      </trkpt>
      <trkpt lat="51.088517" lon="5.776748">
        <ele>31.411805</ele>
        <time>2023-03-05T08:21:10.000Z</time>
      </trkpt>
      <trkpt lat="51.088538" lon="5.776852">
        <ele>31.442606</ele>
        <time>2023-03-05T08:21:11.000Z</time>
      </trkpt>
      <trkpt lat="51.088561" lon="5.776957">
        <ele>31.473960</ele>
        <time>2023-03-05T08:21:12.000Z</time>
      </trkpt>
      <trkpt lat="51.088584" lon="5.777059">
        <ele>31.504516</ele>
        <time>2023-03-05T08:21:13.000Z</time>
      </trkpt>
      <trkpt lat="51.088609" lon="5.777161">
        <ele>31.535387</ele>
        <time>2023-03-05T08:21:14.000Z</time>
      </trkpt>
      <trkpt lat="51.088631" lon="5.777264">
        <ele>31.566062</ele>
        <time>2023-03-05T08:21:15.000Z</time>
      </trkpt>
      <trkpt lat="51.088653" lon="5.777368">
        <ele>31.597003</ele>
        <time>2023-03-05T08:21:16.000Z</time>
      </trkpt>
      <trkpt lat="51.088675" lon="5.777470">
        <ele>31.627410</ele>
        <time>2023-03-05T08:21:17.000Z</time>
      </trkpt>
      <trkpt lat="51.088696" lon="5.777572">
        <ele>31.657675</ele>
        <time>2023-03-05T08:21:18.000Z</time>
      </trkpt>
      <trkpt lat="51.088713" lon="5.777672">
        <ele>31.686885</ele>
        <time>2023-03-05T08:21:19.000Z</time>
      </trkpt>
      <trkpt lat="51.088723" lon="5.777773">
        <ele>31.715714</ele>
        <time>2023-03-05T08:21:20.000Z</time>
      </trkpt>
      <trkpt lat="51.088721" lon="5.777872">
        <ele>31.743641</ele>
        <time>2023-03-05T08:21:21.000Z</time>
      </trkpt>
      <trkpt lat="51.088702" lon="5.777964">
        <ele>31.770947</ele>
        <time>2023-03-05T08:21:22.000Z</time>
      </trkpt>
      <trkpt lat="51.088666" lon="5.778047">
        <ele>31.799387</ele>
        <time>2023-03-05T08:21:23.000Z</time>
      </trkpt>
      <trkpt lat="51.088621" lon="5.778119">
        <ele>31.828025</ele>
        <time>2023-03-05T08:21:24.000Z</time>
      </trkpt>
      <trkpt lat="51.088573" lon="5.778186">
        <ele>31.856680</ele>
        <time>2023-03-05T08:21:25.000Z</time>
      </trkpt>
      <trkpt lat="51.088526" lon="5.778251">
        <ele>31.884626</ele>
        <time>2023-03-05T08:21:26.000Z</time>
      </trkpt>
      <trkpt lat="51.088483" lon="5.778319">
        <ele>31.911832</ele>
        <time>2023-03-05T08:21:27.000Z</time>
      </trkpt>
      <trkpt lat="51.088443" lon="5.778396">
        <ele>31.940006</ele>
        <time>2023-03-05T08:21:28.000Z</time>
      </trkpt>
      <trkpt lat="51.088412" lon="5.778481">
        <ele>31.967719</ele>
        <time>2023-03-05T08:21:29.000Z</time>
      </trkpt>
      <trkpt lat="51.088390" lon="5.778575">
        <ele>31.996002</ele>
        <time>2023-03-05T08:21:30.000Z</time>
      </trkpt>
      <trkpt lat="51.088378" lon="5.778675">
        <ele>32.022542</ele>
        <time>2023-03-05T08:21:31.000Z</time>
      </trkpt>
      <trkpt lat="51.088387" lon="5.778770">
        <ele>32.046245</ele>
        <time>2023-03-05T08:21:32.000Z</time>
      </trkpt>
      <trkpt lat="51.088415" lon="5.778857">
        <ele>32.070363</ele>
        <time>2023-03-05T08:21:33.000Z</time>
      </trkpt>
      <trkpt lat="51.088460" lon="5.778935">
        <ele>32.096492</ele>
        <time>2023-03-05T08:21:34.000Z</time>
      </trkpt>
      <trkpt lat="51.088509" lon="5.779000">
        <ele>32.121544</ele>
        <time>2023-03-05T08:21:35.000Z</time>
      </trkpt>
      <trkpt lat="51.088564" lon="5.779053">
        <ele>32.146796</ele>
        <time>2023-03-05T08:21:36.000Z</time>
      </trkpt>
      <trkpt lat="51.088621" lon="5.779100">
        <ele>32.172009</ele>
        <time>2023-03-05T08:21:37.000Z</time>
      </trkpt>
      <trkpt lat="51.088680" lon="5.779136">
        <ele>32.196826</ele>
        <time>2023-03-05T08:21:38.000Z</time>
      </trkpt>
      <trkpt lat="51.088744" lon="5.779164">
        <ele>32.222896</ele>
        <time>2023-03-05T08:21:39.000Z</time>
      </trkpt>
      <trkpt lat="51.088809" lon="5.779189">
        <ele>32.249161</ele>
        <time>2023-03-05T08:21:40.000Z</time>
      </trkpt>
      <trkpt lat="51.088874" lon="5.779214">
        <ele>32.275427</ele>
        <time>2023-03-05T08:21:41.000Z</time>
      </trkpt>
      <trkpt lat="51.088939" lon="5.779241">
        <ele>32.301812</ele>
        <time>2023-03-05T08:21:42.000Z</time>
      </trkpt>
      <trkpt lat="51.089003" lon="5.779272">
        <ele>32.328088</ele>
        <time>2023-03-05T08:21:43.000Z</time>
      </trkpt>
      <trkpt lat="51.089068" lon="5.779306">
        <ele>32.354961</ele>
        <time>2023-03-05T08:21:44.000Z</time>
      </trkpt>
      <trkpt lat="51.089131" lon="5.779346">
        <ele>32.381601</ele>
        <time>2023-03-05T08:21:45.000Z</time>
      </trkpt>
      <trkpt lat="51.089194" lon="5.779391">
        <ele>32.408723</ele>
        <time>2023-03-05T08:21:46.000Z</time>
      </trkpt>
      <trkpt lat="51.089257" lon="5.779439">
        <ele>32.436156</ele>
        <time>2023-03-05T08:21:47.000Z</time>
      </trkpt>
      <trkpt lat="51.089318" lon="5.779487">
        <ele>32.462882</ele>
        <time>2023-03-05T08:21:48.000Z</time>
      </trkpt>
      <trkpt lat="51.089376" lon="5.779537">
        <ele>32.488789</ele>
        <time>2023-03-05T08:21:49.000Z</time>
      </trkpt>
      <trkpt lat="51.089435" lon="5.779590">
        <ele>32.515397</ele>
        <time>2023-03-05T08:21:50.000Z</time>
      </trkpt>
      <trkpt lat="51.089492" lon="5.779646">
        <ele>32.541705</ele>
        <time>2023-03-05T08:21:51.000Z</time>
      </trkpt>
      <trkpt lat="51.089546" lon="5.779705">
        <ele>32.567429</ele>
        <time>2023-03-05T08:21:52.000Z</time>
      </trkpt>
      <trkpt lat="51.089598" lon="5.779766">
        <ele>32.592800</ele>
        <time>2023-03-05T08:21:53.000Z</time>
      </trkpt>
      <trkpt lat="51.089652" lon="5.779831">
        <ele>32.619389</ele>
        <time>2023-03-05T08:21:54.000Z</time>
      </trkpt>
      <trkpt lat="51.089703" lon="5.779899">
        <ele>32.645518</ele>
        <time>2023-03-05T08:21:55.000Z</time>
      </trkpt>
      <trkpt lat="51.089753" lon="5.779967">
        <ele>32.671347</ele>
        <time>2023-03-05T08:21:56.000Z</time>
      </trkpt>
      <trkpt lat="51.089802" lon="5.780036">
        <ele>32.697041</ele>
        <time>2023-03-05T08:21:57.000Z</time>
      </trkpt>
      <trkpt lat="51.089852" lon="5.780104">
        <ele>32.703563</ele>
        <time>2023-03-05T08:21:58.000Z</time>
      </trkpt>
      <trkpt lat="51.089901" lon="5.780171">
        <ele>32.674595</ele>
        <time>2023-03-05T08:21:59.000Z</time>
      </trkpt>
      <trkpt lat="51.089953" lon="5.780239">
        <ele>32.644415</ele>
        <time>2023-03-05T08:22:00.000Z</time>
      </trkpt>
      <trkpt lat="51.090002" lon="5.780306">
        <ele>32.615447</ele>
        <time>2023-03-05T08:22:01.000Z</time>
      </trkpt>
      <trkpt lat="51.090052" lon="5.780374">
        <ele>32.585955</ele>
        <time>2023-03-05T08:22:02.000Z</time>
      </trkpt>
      <trkpt lat="51.090103" lon="5.780442">
        <ele>32.556120</ele>
        <time>2023-03-05T08:22:03.000Z</time>
      </trkpt>
      <trkpt lat="51.090156" lon="5.780510">
        <ele>32.525592</ele>
        <time>2023-03-05T08:22:04.000Z</time>
      </trkpt>
      <trkpt lat="51.090206" lon="5.780578">
        <ele>32.496100</ele>
        <time>2023-03-05T08:22:05.000Z</time>
      </trkpt>
      <trkpt lat="51.090256" lon="5.780646">
        <ele>32.466608</ele>
        <time>2023-03-05T08:22:06.000Z</time>
      </trkpt>
      <trkpt lat="51.090306" lon="5.780716">
        <ele>32.436747</ele>
        <time>2023-03-05T08:22:07.000Z</time>
      </trkpt>
      <trkpt lat="51.090355" lon="5.780789">
        <ele>32.406651</ele>
        <time>2023-03-05T08:22:08.000Z</time>
      </trkpt>
      <trkpt lat="51.090403" lon="5.780864">
        <ele>32.376488</ele>
        <time>2023-03-05T08:22:09.000Z</time>
      </trkpt>
      <trkpt lat="51.090451" lon="5.780940">
        <ele>32.346127</ele>
        <time>2023-03-05T08:22:10.000Z</time>
      </trkpt>
      <trkpt lat="51.090498" lon="5.781018">
        <ele>32.315679</ele>
        <time>2023-03-05T08:22:11.000Z</time>
      </trkpt>
      <trkpt lat="51.090544" lon="5.781098">
        <ele>32.285126</ele>
        <time>2023-03-05T08:22:12.000Z</time>
      </trkpt>
      <trkpt lat="51.090587" lon="5.781181">
        <ele>32.254818</ele>
        <time>2023-03-05T08:22:13.000Z</time>
      </trkpt>
      <trkpt lat="51.090629" lon="5.781263">
        <ele>32.225013</ele>
        <time>2023-03-05T08:22:14.000Z</time>
      </trkpt>
      <trkpt lat="51.090671" lon="5.781345">
        <ele>32.195207</ele>
        <time>2023-03-05T08:22:15.000Z</time>
      </trkpt>
      <trkpt lat="51.090713" lon="5.781427">
        <ele>32.165402</ele>
        <time>2023-03-05T08:22:16.000Z</time>
      </trkpt>
      <trkpt lat="51.090753" lon="5.781509">
        <ele>32.136155</ele>
        <time>2023-03-05T08:22:17.000Z</time>
      </trkpt>
      <trkpt lat="51.090791" lon="5.781592">
        <ele>32.107222</ele>
        <time>2023-03-05T08:22:18.000Z</time>
      </trkpt>
      <trkpt lat="51.090828" lon="5.781675">
        <ele>32.078552</ele>
        <time>2023-03-05T08:22:19.000Z</time>
      </trkpt>
      <trkpt lat="51.090865" lon="5.781763">
        <ele>32.048721</ele>
        <time>2023-03-05T08:22:20.000Z</time>
      </trkpt>
      <trkpt lat="51.090899" lon="5.781853">
        <ele>32.019136</ele>
        <time>2023-03-05T08:22:21.000Z</time>
      </trkpt>
      <trkpt lat="51.090934" lon="5.781946">
        <ele>31.988596</ele>
        <time>2023-03-05T08:22:22.000Z</time>
      </trkpt>
      <trkpt lat="51.090965" lon="5.782040">
        <ele>31.958689</ele>
        <time>2023-03-05T08:22:23.000Z</time>
      </trkpt>
      <trkpt lat="51.090993" lon="5.782135">
        <ele>31.929129</ele>
        <time>2023-03-05T08:22:24.000Z</time>
      </trkpt>
      <trkpt lat="51.091020" lon="5.782232">
        <ele>31.899922</ele>
        <time>2023-03-05T08:22:25.000Z</time>
      </trkpt>
      <trkpt lat="51.091046" lon="5.782328">
        <ele>31.872995</ele>
        <time>2023-03-05T08:22:26.000Z</time>
      </trkpt>
      <trkpt lat="51.091071" lon="5.782427">
        <ele>31.845512</ele>
        <time>2023-03-05T08:22:27.000Z</time>
      </trkpt>
      <trkpt lat="51.091094" lon="5.782527">
        <ele>31.818083</ele>
        <time>2023-03-05T08:22:28.000Z</time>
      </trkpt>
      <trkpt lat="51.091119" lon="5.782624">
        <ele>31.791077</ele>
        <time>2023-03-05T08:22:29.000Z</time>
      </trkpt>
      <trkpt lat="51.091143" lon="5.782723">
        <ele>31.763745</ele>
        <time>2023-03-05T08:22:30.000Z</time>
      </trkpt>
      <trkpt lat="51.091167" lon="5.782821">
        <ele>31.736652</ele>
        <time>2023-03-05T08:22:31.000Z</time>
      </trkpt>
      <trkpt lat="51.091192" lon="5.782917">
        <ele>31.709885</ele>
        <time>2023-03-05T08:22:32.000Z</time>
      </trkpt>
      <trkpt lat="51.091218" lon="5.783010">
        <ele>31.683666</ele>
        <time>2023-03-05T08:22:33.000Z</time>
      </trkpt>
      <trkpt lat="51.091245" lon="5.783104">
        <ele>31.657043</ele>
        <time>2023-03-05T08:22:34.000Z</time>
      </trkpt>
      <trkpt lat="51.091272" lon="5.783197">
        <ele>31.630654</ele>
        <time>2023-03-05T08:22:35.000Z</time>
      </trkpt>
      <trkpt lat="51.091296" lon="5.783288">
        <ele>31.605233</ele>
        <time>2023-03-05T08:22:36.000Z</time>
      </trkpt>
      <trkpt lat="51.091321" lon="5.783377">
        <ele>31.580122</ele>
        <time>2023-03-05T08:22:37.000Z</time>
      </trkpt>
      <trkpt lat="51.091348" lon="5.783468">
        <ele>31.554200</ele>
        <time>2023-03-05T08:22:38.000Z</time>
      </trkpt>
      <trkpt lat="51.091373" lon="5.783560">
        <ele>31.528381</ele>
        <time>2023-03-05T08:22:39.000Z</time>
      </trkpt>
      <trkpt lat="51.091395" lon="5.783654">
        <ele>31.502544</ele>
        <time>2023-03-05T08:22:40.000Z</time>
      </trkpt>
      <trkpt lat="51.091418" lon="5.783751">
        <ele>31.475839</ele>
        <time>2023-03-05T08:22:41.000Z</time>
      </trkpt>
      <trkpt lat="51.091441" lon="5.783851">
        <ele>31.448410</ele>
        <time>2023-03-05T08:22:42.000Z</time>
      </trkpt>
      <trkpt lat="51.091464" lon="5.783951">
        <ele>31.420981</ele>
        <time>2023-03-05T08:22:43.000Z</time>
      </trkpt>
      <trkpt lat="51.091487" lon="5.784051">
        <ele>31.393552</ele>
        <time>2023-03-05T08:22:44.000Z</time>
      </trkpt>
      <trkpt lat="51.091510" lon="5.784152">
        <ele>31.365881</ele>
        <time>2023-03-05T08:22:45.000Z</time>
      </trkpt>
      <trkpt lat="51.091530" lon="5.784254">
        <ele>31.338359</ele>
        <time>2023-03-05T08:22:46.000Z</time>
      </trkpt>
      <trkpt lat="51.091552" lon="5.784357">
        <ele>31.310338</ele>
        <time>2023-03-05T08:22:47.000Z</time>
      </trkpt>
      <trkpt lat="51.091575" lon="5.784458">
        <ele>31.282667</ele>
        <time>2023-03-05T08:22:48.000Z</time>
      </trkpt>
      <trkpt lat="51.091595" lon="5.784557">
        <ele>31.255882</ele>
        <time>2023-03-05T08:22:49.000Z</time>
      </trkpt>
      <trkpt lat="51.091617" lon="5.784655">
        <ele>31.229077</ele>
        <time>2023-03-05T08:22:50.000Z</time>
      </trkpt>
      <trkpt lat="51.091637" lon="5.784751">
        <ele>31.203026</ele>
        <time>2023-03-05T08:22:51.000Z</time>
      </trkpt>
      <trkpt lat="51.091659" lon="5.784848">
        <ele>31.176463</ele>
        <time>2023-03-05T08:22:52.000Z</time>
      </trkpt>
      <trkpt lat="51.091681" lon="5.784942">
        <ele>31.167733</ele>
        <time>2023-03-05T08:22:53.000Z</time>
      </trkpt>
      <trkpt lat="51.091702" lon="5.785037">
        <ele>31.165192</ele>
        <time>2023-03-05T08:22:54.000Z</time>
      </trkpt>
      <trkpt lat="51.091721" lon="5.785135">
        <ele>31.162603</ele>
        <time>2023-03-05T08:22:55.000Z</time>
      </trkpt>
      <trkpt lat="51.091740" lon="5.785232">
        <ele>31.160039</ele>
        <time>2023-03-05T08:22:56.000Z</time>
      </trkpt>
      <trkpt lat="51.091759" lon="5.785329">
        <ele>31.157476</ele>
        <time>2023-03-05T08:22:57.000Z</time>
      </trkpt>
      <trkpt lat="51.091776" lon="5.785428">
        <ele>31.154886</ele>
        <time>2023-03-05T08:22:58.000Z</time>
      </trkpt>
      <trkpt lat="51.091796" lon="5.785527">
        <ele>31.152262</ele>
        <time>2023-03-05T08:22:59.000Z</time>
      </trkpt>
      <trkpt lat="51.091817" lon="5.785625">
        <ele>31.149649</ele>
        <time>2023-03-05T08:23:00.000Z</time>
      </trkpt>
      <trkpt lat="51.091835" lon="5.785724">
        <ele>31.147048</ele>
        <time>2023-03-05T08:23:01.000Z</time>
      </trkpt>
      <trkpt lat="51.091854" lon="5.785824">
        <ele>31.144412</ele>
        <time>2023-03-05T08:23:02.000Z</time>
      </trkpt>
      <trkpt lat="51.091871" lon="5.785925">
        <ele>31.141773</ele>
        <time>2023-03-05T08:23:03.000Z</time>
      </trkpt>
      <trkpt lat="51.091887" lon="5.786025">
        <ele>31.139169</ele>
        <time>2023-03-05T08:23:04.000Z</time>
      </trkpt>
      <trkpt lat="51.091904" lon="5.786125">
        <ele>31.136555</ele>
        <time>2023-03-05T08:23:05.000Z</time>
      </trkpt>
      <trkpt lat="51.091921" lon="5.786224">
        <ele>31.133965</ele>
        <time>2023-03-05T08:23:06.000Z</time>
      </trkpt>
      <trkpt lat="51.091936" lon="5.786320">
        <ele>31.131469</ele>
        <time>2023-03-05T08:23:07.000Z</time>
      </trkpt>
      <trkpt lat="51.091951" lon="5.786417">
        <ele>31.128948</ele>
        <time>2023-03-05T08:23:08.000Z</time>
      </trkpt>
      <trkpt lat="51.091967" lon="5.786520">
        <ele>31.126271</ele>
        <time>2023-03-05T08:23:09.000Z</time>
      </trkpt>
      <trkpt lat="51.091980" lon="5.786623">
        <ele>31.123620</ele>
        <time>2023-03-05T08:23:10.000Z</time>
      </trkpt>
      <trkpt lat="51.091993" lon="5.786724">
        <ele>31.121018</ele>
        <time>2023-03-05T08:23:11.000Z</time>
      </trkpt>
      <trkpt lat="51.092006" lon="5.786828">
        <ele>31.118342</ele>
        <time>2023-03-05T08:23:12.000Z</time>
      </trkpt>
      <trkpt lat="51.092015" lon="5.786932">
        <ele>31.115693</ele>
        <time>2023-03-05T08:23:13.000Z</time>
      </trkpt>
      <trkpt lat="51.092025" lon="5.787036">
        <ele>31.113038</ele>
        <time>2023-03-05T08:23:14.000Z</time>
      </trkpt>
      <trkpt lat="51.092032" lon="5.787141">
        <ele>31.110374</ele>
        <time>2023-03-05T08:23:15.000Z</time>
      </trkpt>
      <trkpt lat="51.092038" lon="5.787248">
        <ele>31.107663</ele>
        <time>2023-03-05T08:23:16.000Z</time>
      </trkpt>
      <trkpt lat="51.092043" lon="5.787352">
        <ele>31.105031</ele>
        <time>2023-03-05T08:23:17.000Z</time>
      </trkpt>
      <trkpt lat="51.092045" lon="5.787458">
        <ele>31.102355</ele>
        <time>2023-03-05T08:23:18.000Z</time>
      </trkpt>
      <trkpt lat="51.092047" lon="5.787561">
        <ele>31.099755</ele>
        <time>2023-03-05T08:23:19.000Z</time>
      </trkpt>
      <trkpt lat="51.092049" lon="5.787667">
        <ele>31.098939</ele>
        <time>2023-03-05T08:23:20.000Z</time>
      </trkpt>
      <trkpt lat="51.092051" lon="5.787774">
        <ele>31.116432</ele>
        <time>2023-03-05T08:23:21.000Z</time>
      </trkpt>
      <trkpt lat="51.092055" lon="5.787877">
        <ele>31.133295</ele>
        <time>2023-03-05T08:23:22.000Z</time>
      </trkpt>
      <trkpt lat="51.092056" lon="5.787980">
        <ele>31.150128</ele>
        <time>2023-03-05T08:23:23.000Z</time>
      </trkpt>
      <trkpt lat="51.092059" lon="5.788084">
        <ele>31.167140</ele>
        <time>2023-03-05T08:23:24.000Z</time>
      </trkpt>
      <trkpt lat="51.092060" lon="5.788189">
        <ele>31.184300</ele>
        <time>2023-03-05T08:23:25.000Z</time>
      </trkpt>
      <trkpt lat="51.092060" lon="5.788294">
        <ele>31.201458</ele>
        <time>2023-03-05T08:23:26.000Z</time>
      </trkpt>
      <trkpt lat="51.092060" lon="5.788398">
        <ele>31.218452</ele>
        <time>2023-03-05T08:23:27.000Z</time>
      </trkpt>
      <trkpt lat="51.092060" lon="5.788502">
        <ele>31.235447</ele>
        <time>2023-03-05T08:23:28.000Z</time>
      </trkpt>
      <trkpt lat="51.092060" lon="5.788605">
        <ele>31.252278</ele>
        <time>2023-03-05T08:23:29.000Z</time>
      </trkpt>
      <trkpt lat="51.092060" lon="5.788706">
        <ele>31.268782</ele>
        <time>2023-03-05T08:23:30.000Z</time>
      </trkpt>
      <trkpt lat="51.092062" lon="5.788805">
        <ele>31.284968</ele>
        <time>2023-03-05T08:23:31.000Z</time>
      </trkpt>
      <trkpt lat="51.092066" lon="5.788904">
        <ele>31.301179</ele>
        <time>2023-03-05T08:23:32.000Z</time>
      </trkpt>
      <trkpt lat="51.092070" lon="5.789000">
        <ele>31.316900</ele>
        <time>2023-03-05T08:23:33.000Z</time>
      </trkpt>
      <trkpt lat="51.092071" lon="5.789097">
        <ele>31.332753</ele>
        <time>2023-03-05T08:23:34.000Z</time>
      </trkpt>
      <trkpt lat="51.092076" lon="5.789194">
        <ele>31.348657</ele>
        <time>2023-03-05T08:23:35.000Z</time>
      </trkpt>
      <trkpt lat="51.092081" lon="5.789291">
        <ele>31.364561</ele>
        <time>2023-03-05T08:23:36.000Z</time>
      </trkpt>
      <trkpt lat="51.092088" lon="5.789390">
        <ele>31.380841</ele>
        <time>2023-03-05T08:23:37.000Z</time>
      </trkpt>
      <trkpt lat="51.092095" lon="5.789490">
        <ele>31.397282</ele>
        <time>2023-03-05T08:23:38.000Z</time>
      </trkpt>
      <trkpt lat="51.092098" lon="5.789588">
        <ele>31.413315</ele>
        <time>2023-03-05T08:23:39.000Z</time>
      </trkpt>
      <trkpt lat="51.092103" lon="5.789686">
        <ele>31.429382</ele>
        <time>2023-03-05T08:23:40.000Z</time>
      </trkpt>
      <trkpt lat="51.092108" lon="5.789785">
        <ele>31.445612</ele>
        <time>2023-03-05T08:23:41.000Z</time>
      </trkpt>
      <trkpt lat="51.092112" lon="5.789885">
        <ele>31.461986</ele>
        <time>2023-03-05T08:23:42.000Z</time>
      </trkpt>
      <trkpt lat="51.092118" lon="5.789986">
        <ele>31.478564</ele>
        <time>2023-03-05T08:23:43.000Z</time>
      </trkpt>
      <trkpt lat="51.092124" lon="5.790087">
        <ele>31.495141</ele>
        <time>2023-03-05T08:23:44.000Z</time>
      </trkpt>
      <trkpt lat="51.092130" lon="5.790185">
        <ele>31.511231</ele>
        <time>2023-03-05T08:23:45.000Z</time>
      </trkpt>
      <trkpt lat="51.092137" lon="5.790286">
        <ele>31.527836</ele>
        <time>2023-03-05T08:23:46.000Z</time>
      </trkpt>
      <trkpt lat="51.092145" lon="5.790385">
        <ele>31.544146</ele>
        <time>2023-03-05T08:23:47.000Z</time>
      </trkpt>
      <trkpt lat="51.092150" lon="5.790483">
        <ele>31.560213</ele>
        <time>2023-03-05T08:23:48.000Z</time>
      </trkpt>
      <trkpt lat="51.092156" lon="5.790578">
        <ele>31.576136</ele>
        <time>2023-03-05T08:23:49.000Z</time>
      </trkpt>
      <trkpt lat="51.092164" lon="5.790671">
        <ele>31.591943</ele>
        <time>2023-03-05T08:23:50.000Z</time>
      </trkpt>
      <trkpt lat="51.092169" lon="5.790764">
        <ele>31.607660</ele>
        <time>2023-03-05T08:23:51.000Z</time>
      </trkpt>
      <trkpt lat="51.092175" lon="5.790852">
        <ele>31.622565</ele>
        <time>2023-03-05T08:23:52.000Z</time>
      </trkpt>
      <trkpt lat="51.092181" lon="5.790938">
        <ele>31.637136</ele>
        <time>2023-03-05T08:23:53.000Z</time>
      </trkpt>
      <trkpt lat="51.092185" lon="5.791020">
        <ele>31.650986</ele>
        <time>2023-03-05T08:23:54.000Z</time>
      </trkpt>
      <trkpt lat="51.092188" lon="5.791094">
        <ele>31.663472</ele>
        <time>2023-03-05T08:23:55.000Z</time>
      </trkpt>
      <trkpt lat="51.092190" lon="5.791163">
        <ele>31.675104</ele>
        <time>2023-03-05T08:23:56.000Z</time>
      </trkpt>
      <trkpt lat="51.092183" lon="5.791222">
        <ele>31.685214</ele>
        <time>2023-03-05T08:23:57.000Z</time>
      </trkpt>
      <trkpt lat="51.092162" lon="5.791272">
        <ele>31.695343</ele>
        <time>2023-03-05T08:23:58.000Z</time>
      </trkpt>
      <trkpt lat="51.092128" lon="5.791309">
        <ele>31.706384</ele>
        <time>2023-03-05T08:23:59.000Z</time>
      </trkpt>
      <trkpt lat="51.092082" lon="5.791334">
        <ele>31.719416</ele>
        <time>2023-03-05T08:24:00.000Z</time>
      </trkpt>
      <trkpt lat="51.092030" lon="5.791354">
        <ele>31.733758</ele>
        <time>2023-03-05T08:24:01.000Z</time>
      </trkpt>
      <trkpt lat="51.091972" lon="5.791373">
        <ele>31.749634</ele>
        <time>2023-03-05T08:24:02.000Z</time>
      </trkpt>
      <trkpt lat="51.091911" lon="5.791392">
        <ele>31.766299</ele>
        <time>2023-03-05T08:24:03.000Z</time>
      </trkpt>
      <trkpt lat="51.091845" lon="5.791410">
        <ele>31.784252</ele>
        <time>2023-03-05T08:24:04.000Z</time>
      </trkpt>
      <trkpt lat="51.091779" lon="5.791430">
        <ele>31.802264</ele>
        <time>2023-03-05T08:24:05.000Z</time>
      </trkpt>
      <trkpt lat="51.091716" lon="5.791456">
        <ele>31.819713</ele>
        <time>2023-03-05T08:24:06.000Z</time>
      </trkpt>
      <trkpt lat="51.091656" lon="5.791484">
        <ele>31.836476</ele>
        <time>2023-03-05T08:24:07.000Z</time>
      </trkpt>
      <trkpt lat="51.091595" lon="5.791514">
        <ele>31.853593</ele>
        <time>2023-03-05T08:24:08.000Z</time>
      </trkpt>
      <trkpt lat="51.091533" lon="5.791545">
        <ele>31.871016</ele>
        <time>2023-03-05T08:24:09.000Z</time>
      </trkpt>
      <trkpt lat="51.091475" lon="5.791579">
        <ele>31.887587</ele>
        <time>2023-03-05T08:24:10.000Z</time>
      </trkpt>
      <trkpt lat="51.091418" lon="5.791615">
        <ele>31.904027</ele>
        <time>2023-03-05T08:24:11.000Z</time>
      </trkpt>
      <trkpt lat="51.091360" lon="5.791652">
        <ele>31.920779</ele>
        <time>2023-03-05T08:24:12.000Z</time>
      </trkpt>
      <trkpt lat="51.091303" lon="5.791693">
        <ele>31.937549</ele>
        <time>2023-03-05T08:24:13.000Z</time>
      </trkpt>
      <trkpt lat="51.091249" lon="5.791738">
        <ele>31.953890</ele>
        <time>2023-03-05T08:24:14.000Z</time>
      </trkpt>
      <trkpt lat="51.091196" lon="5.791781">
        <ele>31.969838</ele>
        <time>2023-03-05T08:24:15.000Z</time>
      </trkpt>
      <trkpt lat="51.091144" lon="5.791825">
        <ele>31.985626</ele>
        <time>2023-03-05T08:24:16.000Z</time>
      </trkpt>
      <trkpt lat="51.091092" lon="5.791870">
        <ele>32.001494</ele>
        <time>2023-03-05T08:24:17.000Z</time>
      </trkpt>
      <trkpt lat="51.091040" lon="5.791914">
        <ele>32.017282</ele>
        <time>2023-03-05T08:24:18.000Z</time>
      </trkpt>
      <trkpt lat="51.090988" lon="5.791961">
        <ele>32.033313</ele>
        <time>2023-03-05T08:24:19.000Z</time>
      </trkpt>
      <trkpt lat="51.090933" lon="5.792012">
        <ele>32.044643</ele>
        <time>2023-03-05T08:24:20.000Z</time>
      </trkpt>
      <trkpt lat="51.090879" lon="5.792062">
        <ele>32.027813</ele>
        <time>2023-03-05T08:24:21.000Z</time>
      </trkpt>
      <trkpt lat="51.090825" lon="5.792111">
        <ele>32.011067</ele>
        <time>2023-03-05T08:24:22.000Z</time>
      </trkpt>
      <trkpt lat="51.090772" lon="5.792159">
        <ele>31.994639</ele>
        <time>2023-03-05T08:24:23.000Z</time>
      </trkpt>
      <trkpt lat="51.090718" lon="5.792207">
        <ele>31.977976</ele>
        <time>2023-03-05T08:24:24.000Z</time>
      </trkpt>
      <trkpt lat="51.090664" lon="5.792256">
        <ele>31.961230</ele>
        <time>2023-03-05T08:24:25.000Z</time>
      </trkpt>
      <trkpt lat="51.090611" lon="5.792302">
        <ele>31.944967</ele>
        <time>2023-03-05T08:24:26.000Z</time>
      </trkpt>
      <trkpt lat="51.090558" lon="5.792350">
        <ele>31.928539</ele>
        <time>2023-03-05T08:24:27.000Z</time>
      </trkpt>
      <trkpt lat="51.090507" lon="5.792396">
        <ele>31.912746</ele>
        <time>2023-03-05T08:24:28.000Z</time>
      </trkpt>
      <trkpt lat="51.090457" lon="5.792437">
        <ele>31.897593</ele>
        <time>2023-03-05T08:24:29.000Z</time>
      </trkpt>
      <trkpt lat="51.090410" lon="5.792482">
        <ele>31.882817</ele>
        <time>2023-03-05T08:24:30.000Z</time>
      </trkpt>
      <trkpt lat="51.090362" lon="5.792530">
        <ele>31.867545</ele>
        <time>2023-03-05T08:24:31.000Z</time>
      </trkpt>
      <trkpt lat="51.090313" lon="5.792578">
        <ele>31.852045</ele>
        <time>2023-03-05T08:24:32.000Z</time>
      </trkpt>
      <trkpt lat="51.090263" lon="5.792623">
        <ele>31.836570</ele>
        <time>2023-03-05T08:24:33.000Z</time>
      </trkpt>
      <trkpt lat="51.090213" lon="5.792662">
        <ele>31.821569</ele>
        <time>2023-03-05T08:24:34.000Z</time>
      </trkpt>
      <trkpt lat="51.090164" lon="5.792702">
        <ele>31.806733</ele>
        <time>2023-03-05T08:24:35.000Z</time>
      </trkpt>
      <trkpt lat="51.090111" lon="5.792743">
        <ele>31.790857</ele>
        <time>2023-03-05T08:24:36.000Z</time>
      </trkpt>
      <trkpt lat="51.090058" lon="5.792782">
        <ele>31.775126</ele>
        <time>2023-03-05T08:24:37.000Z</time>
      </trkpt>
      <trkpt lat="51.090005" lon="5.792822">
        <ele>31.759324</ele>
        <time>2023-03-05T08:24:38.000Z</time>
      </trkpt>
      <trkpt lat="51.089951" lon="5.792858">
        <ele>31.743551</ele>
        <time>2023-03-05T08:24:39.000Z</time>
      </trkpt>
      <trkpt lat="51.089903" lon="5.792892">
        <ele>31.729396</ele>
        <time>2023-03-05T08:24:40.000Z</time>
      </trkpt>
      <trkpt lat="51.089857" lon="5.792928">
        <ele>31.715586</ele>
        <time>2023-03-05T08:24:41.000Z</time>
      </trkpt>
      <trkpt lat="51.089813" lon="5.792969">
        <ele>31.701851</ele>
        <time>2023-03-05T08:24:42.000Z</time>
      </trkpt>
      <trkpt lat="51.089774" lon="5.793016">
        <ele>31.688672</ele>
        <time>2023-03-05T08:24:43.000Z</time>
      </trkpt>
      <trkpt lat="51.089736" lon="5.793070">
        <ele>31.674949</ele>
        <time>2023-03-05T08:24:44.000Z</time>
      </trkpt>
      <trkpt lat="51.089705" lon="5.793131">
        <ele>31.661671</ele>
        <time>2023-03-05T08:24:45.000Z</time>
      </trkpt>
      <trkpt lat="51.089683" lon="5.793194">
        <ele>31.649472</ele>
        <time>2023-03-05T08:24:46.000Z</time>
      </trkpt>
      <trkpt lat="51.089671" lon="5.793253">
        <ele>31.638978</ele>
        <time>2023-03-05T08:24:47.000Z</time>
      </trkpt>
      <trkpt lat="51.089673" lon="5.793315">
        <ele>31.628472</ele>
        <time>2023-03-05T08:24:48.000Z</time>
      </trkpt>
      <trkpt lat="51.089688" lon="5.793385">
        <ele>31.615955</ele>
        <time>2023-03-05T08:24:49.000Z</time>
      </trkpt>
      <trkpt lat="51.089709" lon="5.793460">
        <ele>31.602059</ele>
        <time>2023-03-05T08:24:50.000Z</time>
      </trkpt>
      <trkpt lat="51.089734" lon="5.793540">
        <ele>31.586938</ele>
        <time>2023-03-05T08:24:51.000Z</time>
      </trkpt>
      <trkpt lat="51.089768" lon="5.793615">
        <ele>31.571286</ele>
        <time>2023-03-05T08:24:52.000Z</time>
      </trkpt>
      <trkpt lat="51.089811" lon="5.793676">
        <ele>31.558018</ele>
        <time>2023-03-05T08:24:53.000Z</time>
      </trkpt>
      <trkpt lat="51.089864" lon="5.793722">
        <ele>31.546872</ele>
        <time>2023-03-05T08:24:54.000Z</time>
      </trkpt>
      <trkpt lat="51.089924" lon="5.793762">
        <ele>31.534860</ele>
        <time>2023-03-05T08:24:55.000Z</time>
      </trkpt>
      <trkpt lat="51.089983" lon="5.793801">
        <ele>31.523063</ele>
        <time>2023-03-05T08:24:56.000Z</time>
      </trkpt>
      <trkpt lat="51.090042" lon="5.793840">
        <ele>31.511266</ele>
        <time>2023-03-05T08:24:57.000Z</time>
      </trkpt>
      <trkpt lat="51.090103" lon="5.793881">
        <ele>31.499039</ele>
        <time>2023-03-05T08:24:58.000Z</time>
      </trkpt>
      <trkpt lat="51.090166" lon="5.793924">
        <ele>31.486382</ele>
        <time>2023-03-05T08:24:59.000Z</time>
      </trkpt>
      <trkpt lat="51.090232" lon="5.793967">
        <ele>31.473213</ele>
        <time>2023-03-05T08:25:00.000Z</time>
      </trkpt>
      <trkpt lat="51.090299" lon="5.794007">
        <ele>31.460000</ele>
        <time>2023-03-05T08:25:01.000Z</time>
      </trkpt>
      <trkpt lat="51.090362" lon="5.794042">
        <ele>31.447678</ele>
        <time>2023-03-05T08:25:02.000Z</time>
      </trkpt>
      <trkpt lat="51.090423" lon="5.794061">
        <ele>31.436200</ele>
        <time>2023-03-05T08:25:03.000Z</time>
      </trkpt>
      <trkpt lat="51.090484" lon="5.794056">
        <ele>31.424921</ele>
        <time>2023-03-05T08:25:04.000Z</time>
      </trkpt>
      <trkpt lat="51.090545" lon="5.794047">
        <ele>31.413609</ele>
        <time>2023-03-05T08:25:05.000Z</time>
      </trkpt>
      <trkpt lat="51.090609" lon="5.794053">
        <ele>31.401770</ele>
        <time>2023-03-05T08:25:06.000Z</time>
      </trkpt>
      <trkpt lat="51.090674" lon="5.794076">
        <ele>31.389474</ele>
        <time>2023-03-05T08:25:07.000Z</time>
      </trkpt>
      <trkpt lat="51.090737" lon="5.794107">
        <ele>31.377297</ele>
        <time>2023-03-05T08:25:08.000Z</time>
      </trkpt>
      <trkpt lat="51.090800" lon="5.794145">
        <ele>31.364857</ele>
        <time>2023-03-05T08:25:09.000Z</time>
      </trkpt>
      <trkpt lat="51.090865" lon="5.794186">
        <ele>31.351946</ele>
        <time>2023-03-05T08:25:10.000Z</time>
      </trkpt>
      <trkpt lat="51.090927" lon="5.794226">
        <ele>31.339593</ele>
        <time>2023-03-05T08:25:11.000Z</time>
      </trkpt>
      <trkpt lat="51.090988" lon="5.794263">
        <ele>31.327539</ele>
        <time>2023-03-05T08:25:12.000Z</time>
      </trkpt>
      <trkpt lat="51.091050" lon="5.794299">
        <ele>31.315352</ele>
        <time>2023-03-05T08:25:13.000Z</time>
      </trkpt>
      <trkpt lat="51.091109" lon="5.794335">
        <ele>31.303685</ele>
        <time>2023-03-05T08:25:14.000Z</time>
      </trkpt>
      <trkpt lat="51.091171" lon="5.794374">
        <ele>31.291375</ele>
        <time>2023-03-05T08:25:15.000Z</time>
      </trkpt>
      <trkpt lat="51.091232" lon="5.794411">
        <ele>31.279321</ele>
        <time>2023-03-05T08:25:16.000Z</time>
      </trkpt>
      <trkpt lat="51.091295" lon="5.794448">
        <ele>31.266921</ele>
        <time>2023-03-05T08:25:17.000Z</time>
      </trkpt>
      <trkpt lat="51.091358" lon="5.794483">
        <ele>31.254599</ele>
        <time>2023-03-05T08:25:18.000Z</time>
      </trkpt>
      <trkpt lat="51.091421" lon="5.794519">
        <ele>31.242239</ele>
        <time>2023-03-05T08:25:19.000Z</time>
      </trkpt>
      <trkpt lat="51.091484" lon="5.794556">
        <ele>31.231726</ele>
        <time>2023-03-05T08:25:20.000Z</time>
      </trkpt>
      <trkpt lat="51.091548" lon="5.794594">
        <ele>31.244398</ele>
        <time>2023-03-05T08:25:21.000Z</time>
      </trkpt>
      <trkpt lat="51.091610" lon="5.794632">
        <ele>31.256724</ele>
        <time>2023-03-05T08:25:22.000Z</time>
      </trkpt>
      <trkpt lat="51.091671" lon="5.794671">
        <ele>31.268919</ele>
        <time>2023-03-05T08:25:23.000Z</time>
      </trkpt>
      <trkpt lat="51.091732" lon="5.794708">
        <ele>31.281030</ele>
        <time>2023-03-05T08:25:24.000Z</time>
      </trkpt>
      <trkpt lat="51.091795" lon="5.794744">
        <ele>31.293448</ele>
        <time>2023-03-05T08:25:25.000Z</time>
      </trkpt>
      <trkpt lat="51.091860" lon="5.794779">
        <ele>31.306178</ele>
        <time>2023-03-05T08:25:26.000Z</time>
      </trkpt>
      <trkpt lat="51.091921" lon="5.794817">
        <ele>31.318330</ele>
        <time>2023-03-05T08:25:27.000Z</time>
      </trkpt>
      <trkpt lat="51.091978" lon="5.794861">
        <ele>31.330083</ele>
        <time>2023-03-05T08:25:28.000Z</time>
      </trkpt>
      <trkpt lat="51.092033" lon="5.794916">
        <ele>31.342132</ele>
        <time>2023-03-05T08:25:29.000Z</time>
      </trkpt>
      <trkpt lat="51.092083" lon="5.794980">
        <ele>31.354035</ele>
        <time>2023-03-05T08:25:30.000Z</time>
      </trkpt>
      <trkpt lat="51.092133" lon="5.795049">
        <ele>31.366310</ele>
        <time>2023-03-05T08:25:31.000Z</time>
      </trkpt>
      <trkpt lat="51.092183" lon="5.795117">
        <ele>31.378510</ele>
        <time>2023-03-05T08:25:32.000Z</time>
      </trkpt>
      <trkpt lat="51.092234" lon="5.795177">
        <ele>31.390275</ele>
        <time>2023-03-05T08:25:33.000Z</time>
      </trkpt>
      <trkpt lat="51.092290" lon="5.795230">
        <ele>31.402361</ele>
        <time>2023-03-05T08:25:34.000Z</time>
      </trkpt>
      <trkpt lat="51.092350" lon="5.795279">
        <ele>31.414871</ele>
        <time>2023-03-05T08:25:35.000Z</time>
      </trkpt>
      <trkpt lat="51.092409" lon="5.795325">
        <ele>31.427059</ele>
        <time>2023-03-05T08:25:36.000Z</time>
      </trkpt>
      <trkpt lat="51.092468" lon="5.795369">
        <ele>31.439147</ele>
        <time>2023-03-05T08:25:37.000Z</time>
      </trkpt>
      <trkpt lat="51.092529" lon="5.795413">
        <ele>31.451571</ele>
        <time>2023-03-05T08:25:38.000Z</time>
      </trkpt>
      <trkpt lat="51.092590" lon="5.795458">
        <ele>31.464044</ele>
        <time>2023-03-05T08:25:39.000Z</time>
      </trkpt>
      <trkpt lat="51.092652" lon="5.795503">
        <ele>31.476685</ele>
        <time>2023-03-05T08:25:40.000Z</time>
      </trkpt>
      <trkpt lat="51.092710" lon="5.795550">
        <ele>31.488759</ele>
        <time>2023-03-05T08:25:41.000Z</time>
      </trkpt>
      <trkpt lat="51.092770" lon="5.795599">
        <ele>31.501270</ele>
        <time>2023-03-05T08:25:42.000Z</time>
      </trkpt>
      <trkpt lat="51.092828" lon="5.795647">
        <ele>31.513397</ele>
        <time>2023-03-05T08:25:43.000Z</time>
      </trkpt>
      <trkpt lat="51.092885" lon="5.795695">
        <ele>31.525360</ele>
        <time>2023-03-05T08:25:44.000Z</time>
      </trkpt>
      <trkpt lat="51.092943" lon="5.795743">
        <ele>31.537487</ele>
        <time>2023-03-05T08:25:45.000Z</time>
      </trkpt>
      <trkpt lat="51.093000" lon="5.795791">
        <ele>31.549450</ele>
        <time>2023-03-05T08:25:46.000Z</time>
      </trkpt>
      <trkpt lat="51.093055" lon="5.795841">
        <ele>31.561200</ele>
        <time>2023-03-05T08:25:47.000Z</time>
      </trkpt>
      <trkpt lat="51.093106" lon="5.795893">
        <ele>31.564785</ele>
        <time>2023-03-05T08:25:48.000Z</time>
      </trkpt>
      <trkpt lat="51.093155" lon="5.795946">
        <ele>31.565213</ele>
        <time>2023-03-05T08:25:49.000Z</time>
      </trkpt>
      <trkpt lat="51.093205" lon="5.795996">
        <ele>31.565639</ele>
        <time>2023-03-05T08:25:50.000Z</time>
      </trkpt>
      <trkpt lat="51.093254" lon="5.796041">
        <ele>31.566047</ele>
        <time>2023-03-05T08:25:51.000Z</time>
      </trkpt>
      <trkpt lat="51.093302" lon="5.796087">
        <ele>31.566451</ele>
        <time>2023-03-05T08:25:52.000Z</time>
      </trkpt>
      <trkpt lat="51.093347" lon="5.796132">
        <ele>31.566834</ele>
        <time>2023-03-05T08:25:53.000Z</time>
      </trkpt>
      <trkpt lat="51.093391" lon="5.796173">
        <ele>31.567202</ele>
        <time>2023-03-05T08:25:54.000Z</time>
      </trkpt>
      <trkpt lat="51.093435" lon="5.796214">
        <ele>31.567570</ele>
        <time>2023-03-05T08:25:55.000Z</time>
      </trkpt>
      <trkpt lat="51.093481" lon="5.796256">
        <ele>31.567953</ele>
        <time>2023-03-05T08:25:56.000Z</time>
      </trkpt>
      <trkpt lat="51.093524" lon="5.796298">
        <ele>31.568317</ele>
        <time>2023-03-05T08:25:57.000Z</time>
      </trkpt>
      <trkpt lat="51.093569" lon="5.796339">
        <ele>31.568691</ele>
        <time>2023-03-05T08:25:58.000Z</time>
      </trkpt>
      <trkpt lat="51.093615" lon="5.796377">
        <ele>31.569065</ele>
        <time>2023-03-05T08:25:59.000Z</time>
      </trkpt>
      <trkpt lat="51.093661" lon="5.796410">
        <ele>31.569429</ele>
        <time>2023-03-05T08:26:00.000Z</time>
      </trkpt>
      <trkpt lat="51.093706" lon="5.796437">
        <ele>31.569776</ele>
        <time>2023-03-05T08:26:01.000Z</time>
      </trkpt>
      <trkpt lat="51.093750" lon="5.796462">
        <ele>31.570113</ele>
        <time>2023-03-05T08:26:02.000Z</time>
      </trkpt>
      <trkpt lat="51.093787" lon="5.796490">
        <ele>31.570408</ele>
        <time>2023-03-05T08:26:03.000Z</time>
      </trkpt>
      <trkpt lat="51.093811" lon="5.796522">
        <ele>31.570634</ele>
        <time>2023-03-05T08:26:04.000Z</time>
      </trkpt>
      <trkpt lat="51.093821" lon="5.796561">
        <ele>31.570825</ele>
        <time>2023-03-05T08:26:05.000Z</time>
      </trkpt>
      <trkpt lat="51.093818" lon="5.796609">
        <ele>31.571044</ele>
        <time>2023-03-05T08:26:06.000Z</time>
      </trkpt>
      <trkpt lat="51.093808" lon="5.796665">
        <ele>31.571307</ele>
        <time>2023-03-05T08:26:07.000Z</time>
      </trkpt>
      <trkpt lat="51.093794" lon="5.796727">
        <ele>31.571606</ele>
        <time>2023-03-05T08:26:08.000Z</time>
      </trkpt>
      <trkpt lat="51.093779" lon="5.796791">
        <ele>31.571915</ele>
        <time>2023-03-05T08:26:09.000Z</time>
      </trkpt>
      <trkpt lat="51.093763" lon="5.796853">
        <ele>31.572219</ele>
        <time>2023-03-05T08:26:10.000Z</time>
      </trkpt>
      <trkpt lat="51.093748" lon="5.796913">
        <ele>31.572512</ele>
        <time>2023-03-05T08:26:11.000Z</time>
      </trkpt>
      <trkpt lat="51.093735" lon="5.796972">
        <ele>31.572795</ele>
        <time>2023-03-05T08:26:12.000Z</time>
      </trkpt>
      <trkpt lat="51.093724" lon="5.797028">
        <ele>31.573061</ele>
        <time>2023-03-05T08:26:13.000Z</time>
      </trkpt>
      <trkpt lat="51.093717" lon="5.797083">
        <ele>31.573315</ele>
        <time>2023-03-05T08:26:14.000Z</time>
      </trkpt>
      <trkpt lat="51.093725" lon="5.797137">
        <ele>31.573567</ele>
        <time>2023-03-05T08:26:15.000Z</time>
      </trkpt>
      <trkpt lat="51.093745" lon="5.797185">
        <ele>31.573828</ele>
        <time>2023-03-05T08:26:16.000Z</time>
      </trkpt>
      <trkpt lat="51.093777" lon="5.797225">
        <ele>31.574121</ele>
        <time>2023-03-05T08:26:17.000Z</time>
      </trkpt>
      <trkpt lat="51.093820" lon="5.797253">
        <ele>31.574457</ele>
        <time>2023-03-05T08:26:18.000Z</time>
      </trkpt>
      <trkpt lat="51.093871" lon="5.797280">
        <ele>31.574844</ele>
        <time>2023-03-05T08:26:19.000Z</time>
      </trkpt>
      <trkpt lat="51.093927" lon="5.797313">
        <ele>31.575275</ele>
        <time>2023-03-05T08:26:20.000Z</time>
      </trkpt>
      <trkpt lat="51.093982" lon="5.797358">
        <ele>31.575721</ele>
        <time>2023-03-05T08:26:21.000Z</time>
      </trkpt>
      <trkpt lat="51.094035" lon="5.797411">
        <ele>31.576173</ele>
        <time>2023-03-05T08:26:22.000Z</time>
      </trkpt>
      <trkpt lat="51.094086" lon="5.797468">
        <ele>31.576622</ele>
        <time>2023-03-05T08:26:23.000Z</time>
      </trkpt>
      <trkpt lat="51.094138" lon="5.797526">
        <ele>31.577081</ele>
        <time>2023-03-05T08:26:24.000Z</time>
      </trkpt>
      <trkpt lat="51.094194" lon="5.797584">
        <ele>31.574609</ele>
        <time>2023-03-05T08:26:25.000Z</time>
      </trkpt>
      <trkpt lat="51.094252" lon="5.797638">
        <ele>31.562013</ele>
        <time>2023-03-05T08:26:26.000Z</time>
      </trkpt>
      <trkpt lat="51.094308" lon="5.797682">
        <ele>31.550307</ele>
        <time>2023-03-05T08:26:27.000Z</time>
      </trkpt>
      <trkpt lat="51.094367" lon="5.797725">
        <ele>31.538143</ele>
        <time>2023-03-05T08:26:28.000Z</time>
      </trkpt>
      <trkpt lat="51.094429" lon="5.797769">
        <ele>31.525418</ele>
        <time>2023-03-05T08:26:29.000Z</time>
      </trkpt>
      <trkpt lat="51.094485" lon="5.797817">
        <ele>31.513495</ele>
        <time>2023-03-05T08:26:30.000Z</time>
      </trkpt>
      <trkpt lat="51.094541" lon="5.797874">
        <ele>31.501035</ele>
        <time>2023-03-05T08:26:31.000Z</time>
      </trkpt>
      <trkpt lat="51.094596" lon="5.797932">
        <ele>31.488668</ele>
        <time>2023-03-05T08:26:32.000Z</time>
      </trkpt>
      <trkpt lat="51.094651" lon="5.797991">
        <ele>31.476236</ele>
        <time>2023-03-05T08:26:33.000Z</time>
      </trkpt>
      <trkpt lat="51.094706" lon="5.798049">
        <ele>31.463869</ele>
        <time>2023-03-05T08:26:34.000Z</time>
      </trkpt>
      <trkpt lat="51.094760" lon="5.798104">
        <ele>31.451852</ele>
        <time>2023-03-05T08:26:35.000Z</time>
      </trkpt>
      <trkpt lat="51.094816" lon="5.798154">
        <ele>31.439816</ele>
        <time>2023-03-05T08:26:36.000Z</time>
      </trkpt>
      <trkpt lat="51.094873" lon="5.798200">
        <ele>31.427837</ele>
        <time>2023-03-05T08:26:37.000Z</time>
      </trkpt>
      <trkpt lat="51.094928" lon="5.798249">
        <ele>31.416022</ele>
        <time>2023-03-05T08:26:38.000Z</time>
      </trkpt>
      <trkpt lat="51.094981" lon="5.798302">
        <ele>31.404289</ele>
        <time>2023-03-05T08:26:39.000Z</time>
      </trkpt>
      <trkpt lat="51.095034" lon="5.798356">
        <ele>31.392494</ele>
        <time>2023-03-05T08:26:40.000Z</time>
      </trkpt>
      <trkpt lat="51.095085" lon="5.798410">
        <ele>31.381012</ele>
        <time>2023-03-05T08:26:41.000Z</time>
      </trkpt>
      <trkpt lat="51.095135" lon="5.798463">
        <ele>31.369752</ele>
        <time>2023-03-05T08:26:42.000Z</time>
      </trkpt>
      <trkpt lat="51.095184" lon="5.798516">
        <ele>31.358647</ele>
        <time>2023-03-05T08:26:43.000Z</time>
      </trkpt>
      <trkpt lat="51.095236" lon="5.798570">
        <ele>31.347009</ele>
        <time>2023-03-05T08:26:44.000Z</time>
      </trkpt>
      <trkpt lat="51.095290" lon="5.798626">
        <ele>31.334928</ele>
        <time>2023-03-05T08:26:45.000Z</time>
      </trkpt>
      <trkpt lat="51.095342" lon="5.798682">
        <ele>31.323159</ele>
        <time>2023-03-05T08:26:46.000Z</time>
      </trkpt>
      <trkpt lat="51.095393" lon="5.798737">
        <ele>31.311612</ele>
        <time>2023-03-05T08:26:47.000Z</time>
      </trkpt>
      <trkpt lat="51.095447" lon="5.798790">
        <ele>31.299720</ele>
        <time>2023-03-05T08:26:48.000Z</time>
      </trkpt>
      <trkpt lat="51.095500" lon="5.798842">
        <ele>31.288050</ele>
        <time>2023-03-05T08:26:49.000Z</time>
      </trkpt>
      <trkpt lat="51.095556" lon="5.798892">
        <ele>31.276014</ele>
        <time>2023-03-05T08:26:50.000Z</time>
      </trkpt>
      <trkpt lat="51.095611" lon="5.798944">
        <ele>31.264023</ele>
        <time>2023-03-05T08:26:51.000Z</time>
      </trkpt>
      <trkpt lat="51.095667" lon="5.798996">
        <ele>31.251870</ele>
        <time>2023-03-05T08:26:52.000Z</time>
      </trkpt>
      <trkpt lat="51.095721" lon="5.799047">
        <ele>31.239944</ele>
        <time>2023-03-05T08:26:53.000Z</time>
      </trkpt>
      <trkpt lat="51.095775" lon="5.799099">
        <ele>31.217151</ele>
        <time>2023-03-05T08:26:54.000Z</time>
      </trkpt>
      <trkpt lat="51.095831" lon="5.799150">
        <ele>31.193850</ele>
        <time>2023-03-05T08:26:55.000Z</time>
      </trkpt>
      <trkpt lat="51.095885" lon="5.799199">
        <ele>31.171402</ele>
        <time>2023-03-05T08:26:56.000Z</time>
      </trkpt>
      <trkpt lat="51.095938" lon="5.799245">
        <ele>31.149601</ele>
        <time>2023-03-05T08:26:57.000Z</time>
      </trkpt>
      <trkpt lat="51.095992" lon="5.799291">
        <ele>31.127482</ele>
        <time>2023-03-05T08:26:58.000Z</time>
      </trkpt>
      <trkpt lat="51.096050" lon="5.799338">
        <ele>31.103977</ele>
        <time>2023-03-05T08:26:59.000Z</time>
      </trkpt>
      <trkpt lat="51.096109" lon="5.799385">
        <ele>31.080149</ele>
        <time>2023-03-05T08:27:00.000Z</time>
      </trkpt>
      <trkpt lat="51.096166" lon="5.799431">
        <ele>31.057069</ele>
        <time>2023-03-05T08:27:01.000Z</time>
      </trkpt>
      <trkpt lat="51.096224" lon="5.799473">
        <ele>31.034056</ele>
        <time>2023-03-05T08:27:02.000Z</time>
      </trkpt>
      <trkpt lat="51.096280" lon="5.799514">
        <ele>31.011794</ele>
        <time>2023-03-05T08:27:03.000Z</time>
      </trkpt>
      <trkpt lat="51.096338" lon="5.799554">
        <ele>30.988966</ele>
        <time>2023-03-05T08:27:04.000Z</time>
      </trkpt>
      <trkpt lat="51.096395" lon="5.799591">
        <ele>30.966734</ele>
        <time>2023-03-05T08:27:05.000Z</time>
      </trkpt>
      <trkpt lat="51.096451" lon="5.799625">
        <ele>30.945087</ele>
        <time>2023-03-05T08:27:06.000Z</time>
      </trkpt>
      <trkpt lat="51.096509" lon="5.799658">
        <ele>30.922842</ele>
        <time>2023-03-05T08:27:07.000Z</time>
      </trkpt>
      <trkpt lat="51.096565" lon="5.799689">
        <ele>30.901428</ele>
        <time>2023-03-05T08:27:08.000Z</time>
      </trkpt>
      <trkpt lat="51.096618" lon="5.799719">
        <ele>30.881112</ele>
        <time>2023-03-05T08:27:09.000Z</time>
      </trkpt>
      <trkpt lat="51.096669" lon="5.799747">
        <ele>30.861628</ele>
        <time>2023-03-05T08:27:10.000Z</time>
      </trkpt>
      <trkpt lat="51.096714" lon="5.799778">
        <ele>30.843919</ele>
        <time>2023-03-05T08:27:11.000Z</time>
      </trkpt>
      <trkpt lat="51.096750" lon="5.799815">
        <ele>30.828444</ele>
        <time>2023-03-05T08:27:12.000Z</time>
      </trkpt>
      <trkpt lat="51.096782" lon="5.799862">
        <ele>30.812720</ele>
        <time>2023-03-05T08:27:13.000Z</time>
      </trkpt>
      <trkpt lat="51.096806" lon="5.799915">
        <ele>30.797899</ele>
        <time>2023-03-05T08:27:14.000Z</time>
      </trkpt>
      <trkpt lat="51.096825" lon="5.799973">
        <ele>30.783061</ele>
        <time>2023-03-05T08:27:15.000Z</time>
      </trkpt>
      <trkpt lat="51.096835" lon="5.800037">
        <ele>30.768102</ele>
        <time>2023-03-05T08:27:16.000Z</time>
      </trkpt>
      <trkpt lat="51.096829" lon="5.800105">
        <ele>30.752527</ele>
        <time>2023-03-05T08:27:17.000Z</time>
      </trkpt>
      <trkpt lat="51.096815" lon="5.800180">
        <ele>30.734779</ele>
        <time>2023-03-05T08:27:18.000Z</time>
      </trkpt>
      <trkpt lat="51.096805" lon="5.800259">
        <ele>30.716500</ele>
        <time>2023-03-05T08:27:19.000Z</time>
      </trkpt>
      <trkpt lat="51.096802" lon="5.800340">
        <ele>30.698096</ele>
        <time>2023-03-05T08:27:20.000Z</time>
      </trkpt>
      <trkpt lat="51.096811" lon="5.800418">
        <ele>30.680107</ele>
        <time>2023-03-05T08:27:21.000Z</time>
      </trkpt>
      <trkpt lat="51.096841" lon="5.800485">
        <ele>30.661443</ele>
        <time>2023-03-05T08:27:22.000Z</time>
      </trkpt>
      <trkpt lat="51.096884" lon="5.800532">
        <ele>30.642605</ele>
        <time>2023-03-05T08:27:23.000Z</time>
      </trkpt>
      <trkpt lat="51.096937" lon="5.800559">
        <ele>30.622507</ele>
        <time>2023-03-05T08:27:24.000Z</time>
      </trkpt>
      <trkpt lat="51.096994" lon="5.800575">
        <ele>30.601603</ele>
        <time>2023-03-05T08:27:25.000Z</time>
      </trkpt>
      <trkpt lat="51.097053" lon="5.800593">
        <ele>30.580389</ele>
        <time>2023-03-05T08:27:26.000Z</time>
      </trkpt>
      <trkpt lat="51.097111" lon="5.800620">
        <ele>30.559547</ele>
        <time>2023-03-05T08:27:27.000Z</time>
      </trkpt>
      <trkpt lat="51.097174" lon="5.800655">
        <ele>30.536534</ele>
        <time>2023-03-05T08:27:28.000Z</time>
      </trkpt>
      <trkpt lat="51.097237" lon="5.800695">
        <ele>30.513141</ele>
        <time>2023-03-05T08:27:29.000Z</time>
      </trkpt>
      <trkpt lat="51.097295" lon="5.800737">
        <ele>30.491165</ele>
        <time>2023-03-05T08:27:30.000Z</time>
      </trkpt>
      <trkpt lat="51.097353" lon="5.800779">
        <ele>30.469189</ele>
        <time>2023-03-05T08:27:31.000Z</time>
      </trkpt>
      <trkpt lat="51.097407" lon="5.800828">
        <ele>30.447752</ele>
        <time>2023-03-05T08:27:32.000Z</time>
      </trkpt>
      <trkpt lat="51.097466" lon="5.800886">
        <ele>30.423838</ele>
        <time>2023-03-05T08:27:33.000Z</time>
      </trkpt>
      <trkpt lat="51.097522" lon="5.800944">
        <ele>30.400797</ele>
        <time>2023-03-05T08:27:34.000Z</time>
      </trkpt>
      <trkpt lat="51.097577" lon="5.801000">
        <ele>30.378280</ele>
        <time>2023-03-05T08:27:35.000Z</time>
      </trkpt>
      <trkpt lat="51.097635" lon="5.801059">
        <ele>30.354542</ele>
        <time>2023-03-05T08:27:36.000Z</time>
      </trkpt>
      <trkpt lat="51.097692" lon="5.801118">
        <ele>30.331094</ele>
        <time>2023-03-05T08:27:37.000Z</time>
      </trkpt>
      <trkpt lat="51.097750" lon="5.801177">
        <ele>30.307356</ele>
        <time>2023-03-05T08:27:38.000Z</time>
      </trkpt>
      <trkpt lat="51.097807" lon="5.801237">
        <ele>30.283790</ele>
        <time>2023-03-05T08:27:39.000Z</time>
      </trkpt>
      <trkpt lat="51.097864" lon="5.801297">
        <ele>30.260223</ele>
        <time>2023-03-05T08:27:40.000Z</time>
      </trkpt>
      <trkpt lat="51.097920" lon="5.801353">
        <ele>30.237415</ele>
        <time>2023-03-05T08:27:41.000Z</time>
      </trkpt>
      <trkpt lat="51.097978" lon="5.801409">
        <ele>30.214021</ele>
        <time>2023-03-05T08:27:42.000Z</time>
      </trkpt>
      <trkpt lat="51.098033" lon="5.801464">
        <ele>30.191621</ele>
        <time>2023-03-05T08:27:43.000Z</time>
      </trkpt>
      <trkpt lat="51.098089" lon="5.801518">
        <ele>30.169040</ele>
        <time>2023-03-05T08:27:44.000Z</time>
      </trkpt>
      <trkpt lat="51.098148" lon="5.801570">
        <ele>30.145782</ele>
        <time>2023-03-05T08:27:45.000Z</time>
      </trkpt>
      <trkpt lat="51.098207" lon="5.801618">
        <ele>30.122931</ele>
        <time>2023-03-05T08:27:46.000Z</time>
      </trkpt>
      <trkpt lat="51.098262" lon="5.801666">
        <ele>30.101299</ele>
        <time>2023-03-05T08:27:47.000Z</time>
      </trkpt>
      <trkpt lat="51.098315" lon="5.801720">
        <ele>30.079597</ele>
        <time>2023-03-05T08:27:48.000Z</time>
      </trkpt>
      <trkpt lat="51.098368" lon="5.801779">
        <ele>30.057293</ele>
        <time>2023-03-05T08:27:49.000Z</time>
      </trkpt>
      <trkpt lat="51.098424" lon="5.801838">
        <ele>30.034133</ele>
        <time>2023-03-05T08:27:50.000Z</time>
      </trkpt>
      <trkpt lat="51.098480" lon="5.801899">
        <ele>30.010732</ele>
        <time>2023-03-05T08:27:51.000Z</time>
      </trkpt>
      <trkpt lat="51.098535" lon="5.801959">
        <ele>29.987738</ele>
        <time>2023-03-05T08:27:52.000Z</time>
      </trkpt>
      <trkpt lat="51.098589" lon="5.802020">
        <ele>29.969058</ele>
        <time>2023-03-05T08:27:53.000Z</time>
      </trkpt>
      <trkpt lat="51.098643" lon="5.802082">
        <ele>29.963853</ele>
        <time>2023-03-05T08:27:54.000Z</time>
      </trkpt>
      <trkpt lat="51.098697" lon="5.802145">
        <ele>29.958620</ele>
        <time>2023-03-05T08:27:55.000Z</time>
      </trkpt>
      <trkpt lat="51.098748" lon="5.802209">
        <ele>29.953544</ele>
        <time>2023-03-05T08:27:56.000Z</time>
      </trkpt>
      <trkpt lat="51.098796" lon="5.802274">
        <ele>29.948618</ele>
        <time>2023-03-05T08:27:57.000Z</time>
      </trkpt>
      <trkpt lat="51.098849" lon="5.802341">
        <ele>29.943328</ele>
        <time>2023-03-05T08:27:58.000Z</time>
      </trkpt>
      <trkpt lat="51.098898" lon="5.802409">
        <ele>29.938246</ele>
        <time>2023-03-05T08:27:59.000Z</time>
      </trkpt>
      <trkpt lat="51.098946" lon="5.802477">
        <ele>29.933224</ele>
        <time>2023-03-05T08:28:00.000Z</time>
      </trkpt>
      <trkpt lat="51.098993" lon="5.802547">
        <ele>29.928193</ele>
        <time>2023-03-05T08:28:01.000Z</time>
      </trkpt>
      <trkpt lat="51.099039" lon="5.802619">
        <ele>29.923150</ele>
        <time>2023-03-05T08:28:02.000Z</time>
      </trkpt>
      <trkpt lat="51.099085" lon="5.802694">
        <ele>29.918004</ele>
        <time>2023-03-05T08:28:03.000Z</time>
      </trkpt>
      <trkpt lat="51.099130" lon="5.802768">
        <ele>29.912947</ele>
        <time>2023-03-05T08:28:04.000Z</time>
      </trkpt>
      <trkpt lat="51.099174" lon="5.802844">
        <ele>29.907872</ele>
        <time>2023-03-05T08:28:05.000Z</time>
      </trkpt>
      <trkpt lat="51.099216" lon="5.802922">
        <ele>29.902828</ele>
        <time>2023-03-05T08:28:06.000Z</time>
      </trkpt>
      <trkpt lat="51.099260" lon="5.802998">
        <ele>29.897753</ele>
        <time>2023-03-05T08:28:07.000Z</time>
      </trkpt>
      <trkpt lat="51.099304" lon="5.803074">
        <ele>29.892678</ele>
        <time>2023-03-05T08:28:08.000Z</time>
      </trkpt>
      <trkpt lat="51.099345" lon="5.803150">
        <ele>29.887759</ele>
        <time>2023-03-05T08:28:09.000Z</time>
      </trkpt>
      <trkpt lat="51.099389" lon="5.803223">
        <ele>29.882792</ele>
        <time>2023-03-05T08:28:10.000Z</time>
      </trkpt>
      <trkpt lat="51.099433" lon="5.803299">
        <ele>29.877717</ele>
        <time>2023-03-05T08:28:11.000Z</time>
      </trkpt>
      <trkpt lat="51.099478" lon="5.803376">
        <ele>29.872553</ele>
        <time>2023-03-05T08:28:12.000Z</time>
      </trkpt>
      <trkpt lat="51.099523" lon="5.803449">
        <ele>29.867531</ele>
        <time>2023-03-05T08:28:13.000Z</time>
      </trkpt>
      <trkpt lat="51.099571" lon="5.803519">
        <ele>29.862443</ele>
        <time>2023-03-05T08:28:14.000Z</time>
      </trkpt>
      <trkpt lat="51.099621" lon="5.803585">
        <ele>29.857366</ele>
        <time>2023-03-05T08:28:15.000Z</time>
      </trkpt>
      <trkpt lat="51.099670" lon="5.803647">
        <ele>29.852473</ele>
        <time>2023-03-05T08:28:16.000Z</time>
      </trkpt>
      <trkpt lat="51.099720" lon="5.803704">
        <ele>29.847666</ele>
        <time>2023-03-05T08:28:17.000Z</time>
      </trkpt>
      <trkpt lat="51.099772" lon="5.803756">
        <ele>29.842865</ele>
        <time>2023-03-05T08:28:18.000Z</time>
      </trkpt>
      <trkpt lat="51.099827" lon="5.803803">
        <ele>29.837986</ele>
        <time>2023-03-05T08:28:19.000Z</time>
      </trkpt>
      <trkpt lat="51.099883" lon="5.803848">
        <ele>29.833082</ele>
        <time>2023-03-05T08:28:20.000Z</time>
      </trkpt>
      <trkpt lat="51.099939" lon="5.803893">
        <ele>29.828523</ele>
        <time>2023-03-05T08:28:21.000Z</time>
      </trkpt>
      <trkpt lat="51.099996" lon="5.803939">
        <ele>29.824688</ele>
        <time>2023-03-05T08:28:22.000Z</time>
      </trkpt>
      <trkpt lat="51.100053" lon="5.803987">
        <ele>29.820819</ele>
        <time>2023-03-05T08:28:23.000Z</time>
      </trkpt>
      <trkpt lat="51.100108" lon="5.804039">
        <ele>29.816980</ele>
        <time>2023-03-05T08:28:24.000Z</time>
      </trkpt>
      <trkpt lat="51.100162" lon="5.804092">
        <ele>29.813173</ele>
        <time>2023-03-05T08:28:25.000Z</time>
      </trkpt>
      <trkpt lat="51.100215" lon="5.804145">
        <ele>29.809418</ele>
        <time>2023-03-05T08:28:26.000Z</time>
      </trkpt>
      <trkpt lat="51.100268" lon="5.804198">
        <ele>29.805662</ele>
        <time>2023-03-05T08:28:27.000Z</time>
      </trkpt>
      <trkpt lat="51.100319" lon="5.804251">
        <ele>29.802007</ele>
        <time>2023-03-05T08:28:28.000Z</time>
      </trkpt>
      <trkpt lat="51.100369" lon="5.804305">
        <ele>29.798382</ele>
        <time>2023-03-05T08:28:29.000Z</time>
      </trkpt>
      <trkpt lat="51.100418" lon="5.804356">
        <ele>29.794869</ele>
        <time>2023-03-05T08:28:30.000Z</time>
      </trkpt>
      <trkpt lat="51.100463" lon="5.804416">
        <ele>29.791346</ele>
        <time>2023-03-05T08:28:31.000Z</time>
      </trkpt>
      <trkpt lat="51.100491" lon="5.804490">
        <ele>29.788091</ele>
        <time>2023-03-05T08:28:32.000Z</time>
      </trkpt>
      <trkpt lat="51.100498" lon="5.804573">
        <ele>29.784935</ele>
        <time>2023-03-05T08:28:33.000Z</time>
      </trkpt>
      <trkpt lat="51.100489" lon="5.804662">
        <ele>29.781538</ele>
        <time>2023-03-05T08:28:34.000Z</time>
      </trkpt>
      <trkpt lat="51.100466" lon="5.804754">
        <ele>29.777806</ele>
        <time>2023-03-05T08:28:35.000Z</time>
      </trkpt>
      <trkpt lat="51.100437" lon="5.804848">
        <ele>29.773859</ele>
        <time>2023-03-05T08:28:36.000Z</time>
      </trkpt>
      <trkpt lat="51.100407" lon="5.804942">
        <ele>29.769885</ele>
        <time>2023-03-05T08:28:37.000Z</time>
      </trkpt>
      <trkpt lat="51.100379" lon="5.805038">
        <ele>29.765896</ele>
        <time>2023-03-05T08:28:38.000Z</time>
      </trkpt>
      <trkpt lat="51.100352" lon="5.805137">
        <ele>29.761829</ele>
        <time>2023-03-05T08:28:39.000Z</time>
      </trkpt>
      <trkpt lat="51.100325" lon="5.805236">
        <ele>29.757761</ele>
        <time>2023-03-05T08:28:40.000Z</time>
      </trkpt>
      <trkpt lat="51.100301" lon="5.805336">
        <ele>29.753727</ele>
        <time>2023-03-05T08:28:41.000Z</time>
      </trkpt>
      <trkpt lat="51.100278" lon="5.805436">
        <ele>29.749714</ele>
        <time>2023-03-05T08:28:42.000Z</time>
      </trkpt>
      <trkpt lat="51.100255" lon="5.805536">
        <ele>29.745700</ele>
        <time>2023-03-05T08:28:43.000Z</time>
      </trkpt>
      <trkpt lat="51.100232" lon="5.805636">
        <ele>29.741687</ele>
        <time>2023-03-05T08:28:44.000Z</time>
      </trkpt>
      <trkpt lat="51.100207" lon="5.805734">
        <ele>29.737701</ele>
        <time>2023-03-05T08:28:45.000Z</time>
      </trkpt>
      <trkpt lat="51.100182" lon="5.805830">
        <ele>29.733784</ele>
        <time>2023-03-05T08:28:46.000Z</time>
      </trkpt>
      <trkpt lat="51.100157" lon="5.805924">
        <ele>29.729937</ele>
        <time>2023-03-05T08:28:47.000Z</time>
      </trkpt>
      <trkpt lat="51.100133" lon="5.806015">
        <ele>29.726218</ele>
        <time>2023-03-05T08:28:48.000Z</time>
      </trkpt>
      <trkpt lat="51.100110" lon="5.806103">
        <ele>29.722625</ele>
        <time>2023-03-05T08:28:49.000Z</time>
      </trkpt>
      <trkpt lat="51.100087" lon="5.806188">
        <ele>29.727296</ele>
        <time>2023-03-05T08:28:50.000Z</time>
      </trkpt>
      <trkpt lat="51.100064" lon="5.806272">
        <ele>29.734742</ele>
        <time>2023-03-05T08:28:51.000Z</time>
      </trkpt>
      <trkpt lat="51.100041" lon="5.806355">
        <ele>29.742115</ele>
        <time>2023-03-05T08:28:52.000Z</time>
      </trkpt>
      <trkpt lat="51.100023" lon="5.806439">
        <ele>29.749327</ele>
        <time>2023-03-05T08:28:53.000Z</time>
      </trkpt>
      <trkpt lat="51.100013" lon="5.806526">
        <ele>29.756515</ele>
        <time>2023-03-05T08:28:54.000Z</time>
      </trkpt>
      <trkpt lat="51.100024" lon="5.806613">
        <ele>29.763726</ele>
        <time>2023-03-05T08:28:55.000Z</time>
      </trkpt>
      <trkpt lat="51.100052" lon="5.806700">
        <ele>29.771671</ele>
        <time>2023-03-05T08:28:56.000Z</time>
      </trkpt>
      <trkpt lat="51.100085" lon="5.806782">
        <ele>29.779585</ele>
        <time>2023-03-05T08:28:57.000Z</time>
      </trkpt>
      <trkpt lat="51.100121" lon="5.806863">
        <ele>29.787649</ele>
        <time>2023-03-05T08:28:58.000Z</time>
      </trkpt>
      <trkpt lat="51.100162" lon="5.806944">
        <ele>29.796104</ele>
        <time>2023-03-05T08:28:59.000Z</time>
      </trkpt>
      <trkpt lat="51.100204" lon="5.807024">
        <ele>29.804577</ele>
        <time>2023-03-05T08:29:00.000Z</time>
      </trkpt>
      <trkpt lat="51.100246" lon="5.807106">
        <ele>29.813176</ele>
        <time>2023-03-05T08:29:01.000Z</time>
      </trkpt>
      <trkpt lat="51.100288" lon="5.807188">
        <ele>29.821775</ele>
        <time>2023-03-05T08:29:02.000Z</time>
      </trkpt>
      <trkpt lat="51.100332" lon="5.807268">
        <ele>29.830417</ele>
        <time>2023-03-05T08:29:03.000Z</time>
      </trkpt>
      <trkpt lat="51.100378" lon="5.807347">
        <ele>29.839172</ele>
        <time>2023-03-05T08:29:04.000Z</time>
      </trkpt>
      <trkpt lat="51.100422" lon="5.807426">
        <ele>29.847753</ele>
        <time>2023-03-05T08:29:05.000Z</time>
      </trkpt>
      <trkpt lat="51.100468" lon="5.807500">
        <ele>29.856215</ele>
        <time>2023-03-05T08:29:06.000Z</time>
      </trkpt>
      <trkpt lat="51.100518" lon="5.807574">
        <ele>29.865048</ele>
        <time>2023-03-05T08:29:07.000Z</time>
      </trkpt>
      <trkpt lat="51.100568" lon="5.807646">
        <ele>29.873771</ele>
        <time>2023-03-05T08:29:08.000Z</time>
      </trkpt>
      <trkpt lat="51.100617" lon="5.807715">
        <ele>29.882236</ele>
        <time>2023-03-05T08:29:09.000Z</time>
      </trkpt>
      <trkpt lat="51.100667" lon="5.807783">
        <ele>29.890744</ele>
        <time>2023-03-05T08:29:10.000Z</time>
      </trkpt>
      <trkpt lat="51.100719" lon="5.807850">
        <ele>29.899400</ele>
        <time>2023-03-05T08:29:11.000Z</time>
      </trkpt>
      <trkpt lat="51.100772" lon="5.807917">
        <ele>29.908157</ele>
        <time>2023-03-05T08:29:12.000Z</time>
      </trkpt>
      <trkpt lat="51.100825" lon="5.807980">
        <ele>29.916716</ele>
        <time>2023-03-05T08:29:13.000Z</time>
      </trkpt>
      <trkpt lat="51.100876" lon="5.808041">
        <ele>29.924970</ele>
        <time>2023-03-05T08:29:14.000Z</time>
      </trkpt>
      <trkpt lat="51.100928" lon="5.808100">
        <ele>29.933232</ele>
        <time>2023-03-05T08:29:15.000Z</time>
      </trkpt>
      <trkpt lat="51.100981" lon="5.808157">
        <ele>29.941508</ele>
        <time>2023-03-05T08:29:16.000Z</time>
      </trkpt>
      <trkpt lat="51.101034" lon="5.808216">
        <ele>29.949877</ele>
        <time>2023-03-05T08:29:17.000Z</time>
      </trkpt>
      <trkpt lat="51.101088" lon="5.808275">
        <ele>29.969322</ele>
        <time>2023-03-05T08:29:18.000Z</time>
      </trkpt>
      <trkpt lat="51.101141" lon="5.808336">
        <ele>30.001763</ele>
        <time>2023-03-05T08:29:19.000Z</time>
      </trkpt>
      <trkpt lat="51.101195" lon="5.808398">
        <ele>30.034789</ele>
        <time>2023-03-05T08:29:20.000Z</time>
      </trkpt>
      <trkpt lat="51.101249" lon="5.808460">
        <ele>30.067815</ele>
        <time>2023-03-05T08:29:21.000Z</time>
      </trkpt>
      <trkpt lat="51.101302" lon="5.808522">
        <ele>30.100439</ele>
        <time>2023-03-05T08:29:22.000Z</time>
      </trkpt>
      <trkpt lat="51.101355" lon="5.808583">
        <ele>30.132880</ele>
        <time>2023-03-05T08:29:23.000Z</time>
      </trkpt>
      <trkpt lat="51.101409" lon="5.808644">
        <ele>30.165725</ele>
        <time>2023-03-05T08:29:24.000Z</time>
      </trkpt>
      <trkpt lat="51.101462" lon="5.808704">
        <ele>30.197984</ele>
        <time>2023-03-05T08:29:25.000Z</time>
      </trkpt>
      <trkpt lat="51.101513" lon="5.808762">
        <ele>30.229074</ele>
        <time>2023-03-05T08:29:26.000Z</time>
      </trkpt>
      <trkpt lat="51.101563" lon="5.808819">
        <ele>30.259579</ele>
        <time>2023-03-05T08:29:27.000Z</time>
      </trkpt>
      <trkpt lat="51.101615" lon="5.808875">
        <ele>30.290721</ele>
        <time>2023-03-05T08:29:28.000Z</time>
      </trkpt>
      <trkpt lat="51.101666" lon="5.808929">
        <ele>30.321104</ele>
        <time>2023-03-05T08:29:29.000Z</time>
      </trkpt>
      <trkpt lat="51.101715" lon="5.808983">
        <ele>30.350665</ele>
        <time>2023-03-05T08:29:30.000Z</time>
      </trkpt>
      <trkpt lat="51.101768" lon="5.809039">
        <ele>30.382219</ele>
        <time>2023-03-05T08:29:31.000Z</time>
      </trkpt>
      <trkpt lat="51.101819" lon="5.809097">
        <ele>30.413309</ele>
        <time>2023-03-05T08:29:32.000Z</time>
      </trkpt>
      <trkpt lat="51.101868" lon="5.809157">
        <ele>30.443973</ele>
        <time>2023-03-05T08:29:33.000Z</time>
      </trkpt>
      <trkpt lat="51.101920" lon="5.809219">
        <ele>30.476199</ele>
        <time>2023-03-05T08:29:34.000Z</time>
      </trkpt>
      <trkpt lat="51.101969" lon="5.809284">
        <ele>30.507836</ele>
        <time>2023-03-05T08:29:35.000Z</time>
      </trkpt>
      <trkpt lat="51.102015" lon="5.809348">
        <ele>30.538138</ele>
        <time>2023-03-05T08:29:36.000Z</time>
      </trkpt>
      <trkpt lat="51.102060" lon="5.809415">
        <ele>30.568700</ele>
        <time>2023-03-05T08:29:37.000Z</time>
      </trkpt>
      <trkpt lat="51.102106" lon="5.809487">
        <ele>30.600697</ele>
        <time>2023-03-05T08:29:38.000Z</time>
      </trkpt>
      <trkpt lat="51.102149" lon="5.809564">
        <ele>30.632797</ele>
        <time>2023-03-05T08:29:39.000Z</time>
      </trkpt>
      <trkpt lat="51.102193" lon="5.809641">
        <ele>30.665229</ele>
        <time>2023-03-05T08:29:40.000Z</time>
      </trkpt>
      <trkpt lat="51.102237" lon="5.809717">
        <ele>30.697431</ele>
        <time>2023-03-05T08:29:41.000Z</time>
      </trkpt>
      <trkpt lat="51.102279" lon="5.809793">
        <ele>30.728969</ele>
        <time>2023-03-05T08:29:42.000Z</time>
      </trkpt>
      <trkpt lat="51.102323" lon="5.809866">
        <ele>30.760490</ele>
        <time>2023-03-05T08:29:43.000Z</time>
      </trkpt>
      <trkpt lat="51.102369" lon="5.809937">
        <ele>30.792270</ele>
        <time>2023-03-05T08:29:44.000Z</time>
      </trkpt>
      <trkpt lat="51.102413" lon="5.810009">
        <ele>30.823567</ele>
        <time>2023-03-05T08:29:45.000Z</time>
      </trkpt>
      <trkpt lat="51.102452" lon="5.810079">
        <ele>30.844438</ele>
        <time>2023-03-05T08:29:46.000Z</time>
      </trkpt>
      <trkpt lat="51.102493" lon="5.810149">
        <ele>30.832711</ele>
        <time>2023-03-05T08:29:47.000Z</time>
      </trkpt>
      <trkpt lat="51.102535" lon="5.810218">
        <ele>30.820939</ele>
        <time>2023-03-05T08:29:48.000Z</time>
      </trkpt>
      <trkpt lat="51.102577" lon="5.810285">
        <ele>30.809341</ele>
        <time>2023-03-05T08:29:49.000Z</time>
      </trkpt>
      <trkpt lat="51.102616" lon="5.810347">
        <ele>30.798591</ele>
        <time>2023-03-05T08:29:50.000Z</time>
      </trkpt>
      <trkpt lat="51.102654" lon="5.810403">
        <ele>30.788490</ele>
        <time>2023-03-05T08:29:51.000Z</time>
      </trkpt>
      <trkpt lat="51.102687" lon="5.810457">
        <ele>30.779260</ele>
        <time>2023-03-05T08:29:52.000Z</time>
      </trkpt>
      <trkpt lat="51.102718" lon="5.810511">
        <ele>30.770297</ele>
        <time>2023-03-05T08:29:53.000Z</time>
      </trkpt>
      <trkpt lat="51.102749" lon="5.810560">
        <ele>30.761776</ele>
        <time>2023-03-05T08:29:54.000Z</time>
      </trkpt>
      <trkpt lat="51.102779" lon="5.810600">
        <ele>30.754143</ele>
        <time>2023-03-05T08:29:55.000Z</time>
      </trkpt>
      <trkpt lat="51.102812" lon="5.810619">
        <ele>30.747297</ele>
        <time>2023-03-05T08:29:56.000Z</time>
      </trkpt>
      <trkpt lat="51.102849" lon="5.810618">
        <ele>30.740078</ele>
        <time>2023-03-05T08:29:57.000Z</time>
      </trkpt>
      <trkpt lat="51.102889" lon="5.810606">
        <ele>30.732137</ele>
        <time>2023-03-05T08:29:58.000Z</time>
      </trkpt>
      <trkpt lat="51.102936" lon="5.810592">
        <ele>30.722809</ele>
        <time>2023-03-05T08:29:59.000Z</time>
      </trkpt>
      <trkpt lat="51.102986" lon="5.810579">
        <ele>30.712925</ele>
        <time>2023-03-05T08:30:00.000Z</time>
      </trkpt>
      <trkpt lat="51.103033" lon="5.810570">
        <ele>30.703690</ele>
        <time>2023-03-05T08:30:01.000Z</time>
      </trkpt>
      <trkpt lat="51.103081" lon="5.810563">
        <ele>30.694287</ele>
        <time>2023-03-05T08:30:02.000Z</time>
      </trkpt>
      <trkpt lat="51.103133" lon="5.810559">
        <ele>30.684130</ele>
        <time>2023-03-05T08:30:03.000Z</time>
      </trkpt>
      <trkpt lat="51.103184" lon="5.810562">
        <ele>30.674174</ele>
        <time>2023-03-05T08:30:04.000Z</time>
      </trkpt>
      <trkpt lat="51.103236" lon="5.810573">
        <ele>30.663940</ele>
        <time>2023-03-05T08:30:05.000Z</time>
      </trkpt>
      <trkpt lat="51.103292" lon="5.810593">
        <ele>30.652744</ele>
        <time>2023-03-05T08:30:06.000Z</time>
      </trkpt>
      <trkpt lat="51.103346" lon="5.810622">
        <ele>30.641626</ele>
        <time>2023-03-05T08:30:07.000Z</time>
      </trkpt>
      <trkpt lat="51.103395" lon="5.810658">
        <ele>30.631099</ele>
        <time>2023-03-05T08:30:08.000Z</time>
      </trkpt>
      <trkpt lat="51.103441" lon="5.810699">
        <ele>30.620815</ele>
        <time>2023-03-05T08:30:09.000Z</time>
      </trkpt>
      <trkpt lat="51.103487" lon="5.810744">
        <ele>30.610283</ele>
        <time>2023-03-05T08:30:10.000Z</time>
      </trkpt>
      <trkpt lat="51.103531" lon="5.810795">
        <ele>30.599666</ele>
        <time>2023-03-05T08:30:11.000Z</time>
      </trkpt>
      <trkpt lat="51.103570" lon="5.810852">
        <ele>30.589339</ele>
        <time>2023-03-05T08:30:12.000Z</time>
      </trkpt>
      <trkpt lat="51.103605" lon="5.810908">
        <ele>30.579661</ele>
        <time>2023-03-05T08:30:13.000Z</time>
      </trkpt>
      <trkpt lat="51.103640" lon="5.810963">
        <ele>30.570068</ele>
        <time>2023-03-05T08:30:14.000Z</time>
      </trkpt>
      <trkpt lat="51.103672" lon="5.811014">
        <ele>30.561236</ele>
        <time>2023-03-05T08:30:15.000Z</time>
      </trkpt>
      <trkpt lat="51.103695" lon="5.811066">
        <ele>30.553445</ele>
        <time>2023-03-05T08:30:16.000Z</time>
      </trkpt>
      <trkpt lat="51.103717" lon="5.811117">
        <ele>30.545865</ele>
        <time>2023-03-05T08:30:17.000Z</time>
      </trkpt>
      <trkpt lat="51.103747" lon="5.811167">
        <ele>30.537393</ele>
        <time>2023-03-05T08:30:18.000Z</time>
      </trkpt>
      <trkpt lat="51.103779" lon="5.811213">
        <ele>30.528983</ele>
        <time>2023-03-05T08:30:19.000Z</time>
      </trkpt>
      <trkpt lat="51.103814" lon="5.811256">
        <ele>30.520360</ele>
        <time>2023-03-05T08:30:20.000Z</time>
      </trkpt>
      <trkpt lat="51.103852" lon="5.811297">
        <ele>30.511405</ele>
        <time>2023-03-05T08:30:21.000Z</time>
      </trkpt>
      <trkpt lat="51.103897" lon="5.811339">
        <ele>30.501230</ele>
        <time>2023-03-05T08:30:22.000Z</time>
      </trkpt>
      <trkpt lat="51.103945" lon="5.811379">
        <ele>30.494253</ele>
        <time>2023-03-05T08:30:23.000Z</time>
      </trkpt>
      <trkpt lat="51.103995" lon="5.811415">
        <ele>30.490916</ele>
        <time>2023-03-05T08:30:24.000Z</time>
      </trkpt>
      <trkpt lat="51.104051" lon="5.811449">
        <ele>30.487271</ele>
        <time>2023-03-05T08:30:25.000Z</time>
      </trkpt>
      <trkpt lat="51.104106" lon="5.811484">
        <ele>30.483669</ele>
        <time>2023-03-05T08:30:26.000Z</time>
      </trkpt>
      <trkpt lat="51.104157" lon="5.811521">
        <ele>30.480261</ele>
        <time>2023-03-05T08:30:27.000Z</time>
      </trkpt>
      <trkpt lat="51.104209" lon="5.811559">
        <ele>30.476781</ele>
        <time>2023-03-05T08:30:28.000Z</time>
      </trkpt>
      <trkpt lat="51.104260" lon="5.811598">
        <ele>30.473341</ele>
        <time>2023-03-05T08:30:29.000Z</time>
      </trkpt>
      <trkpt lat="51.104307" lon="5.811634">
        <ele>30.470169</ele>
        <time>2023-03-05T08:30:30.000Z</time>
      </trkpt>
      <trkpt lat="51.104355" lon="5.811671">
        <ele>30.466926</ele>
        <time>2023-03-05T08:30:31.000Z</time>
      </trkpt>
      <trkpt lat="51.104405" lon="5.811711">
        <ele>30.463523</ele>
        <time>2023-03-05T08:30:32.000Z</time>
      </trkpt>
      <trkpt lat="51.104454" lon="5.811755">
        <ele>30.460102</ele>
        <time>2023-03-05T08:30:33.000Z</time>
      </trkpt>
      <trkpt lat="51.104499" lon="5.811798">
        <ele>30.456910</ele>
        <time>2023-03-05T08:30:34.000Z</time>
      </trkpt>
      <trkpt lat="51.104546" lon="5.811845">
        <ele>30.453535</ele>
        <time>2023-03-05T08:30:35.000Z</time>
      </trkpt>
      <trkpt lat="51.104591" lon="5.811894">
        <ele>30.450220</ele>
        <time>2023-03-05T08:30:36.000Z</time>
      </trkpt>
      <trkpt lat="51.104638" lon="5.811941">
        <ele>30.446845</ele>
        <time>2023-03-05T08:30:37.000Z</time>
      </trkpt>
      <trkpt lat="51.104687" lon="5.811987">
        <ele>30.443385</ele>
        <time>2023-03-05T08:30:38.000Z</time>
      </trkpt>
      <trkpt lat="51.104734" lon="5.812032">
        <ele>30.440050</ele>
        <time>2023-03-05T08:30:39.000Z</time>
      </trkpt>
      <trkpt lat="51.104783" lon="5.812082">
        <ele>30.436511</ele>
        <time>2023-03-05T08:30:40.000Z</time>
      </trkpt>
      <trkpt lat="51.104830" lon="5.812134">
        <ele>30.433030</ele>
        <time>2023-03-05T08:30:41.000Z</time>
      </trkpt>
      <trkpt lat="51.104878" lon="5.812186">
        <ele>30.429500</ele>
        <time>2023-03-05T08:30:42.000Z</time>
      </trkpt>
      <trkpt lat="51.104928" lon="5.812238">
        <ele>30.425868</ele>
        <time>2023-03-05T08:30:43.000Z</time>
      </trkpt>
      <trkpt lat="51.104975" lon="5.812293">
        <ele>30.422321</ele>
        <time>2023-03-05T08:30:44.000Z</time>
      </trkpt>
      <trkpt lat="51.105023" lon="5.812350">
        <ele>30.418680</ele>
        <time>2023-03-05T08:30:45.000Z</time>
      </trkpt>
      <trkpt lat="51.105070" lon="5.812410">
        <ele>30.415016</ele>
        <time>2023-03-05T08:30:46.000Z</time>
      </trkpt>
      <trkpt lat="51.105119" lon="5.812472">
        <ele>30.411210</ele>
        <time>2023-03-05T08:30:47.000Z</time>
      </trkpt>
      <trkpt lat="51.105165" lon="5.812534">
        <ele>30.407545</ele>
        <time>2023-03-05T08:30:48.000Z</time>
      </trkpt>
      <trkpt lat="51.105211" lon="5.812598">
        <ele>30.403831</ele>
        <time>2023-03-05T08:30:49.000Z</time>
      </trkpt>
      <trkpt lat="51.105257" lon="5.812661">
        <ele>30.400141</ele>
        <time>2023-03-05T08:30:50.000Z</time>
      </trkpt>
      <trkpt lat="51.105303" lon="5.812725">
        <ele>30.396426</ele>
        <time>2023-03-05T08:30:51.000Z</time>
      </trkpt>
      <trkpt lat="51.105349" lon="5.812788">
        <ele>30.392736</ele>
        <time>2023-03-05T08:30:52.000Z</time>
      </trkpt>
      <trkpt lat="51.105394" lon="5.812852">
        <ele>30.389067</ele>
        <time>2023-03-05T08:30:53.000Z</time>
      </trkpt>
      <trkpt lat="51.105440" lon="5.812917">
        <ele>30.391578</ele>
        <time>2023-03-05T08:30:54.000Z</time>
      </trkpt>
      <trkpt lat="51.105488" lon="5.812981">
        <ele>30.408195</ele>
        <time>2023-03-05T08:30:55.000Z</time>
      </trkpt>
      <trkpt lat="51.105538" lon="5.813040">
        <ele>30.424713</ele>
        <time>2023-03-05T08:30:56.000Z</time>
      </trkpt>
      <trkpt lat="51.105590" lon="5.813088">
        <ele>30.440668</ele>
        <time>2023-03-05T08:30:57.000Z</time>
      </trkpt>
      <trkpt lat="51.105646" lon="5.813128">
        <ele>30.456959</ele>
        <time>2023-03-05T08:30:58.000Z</time>
      </trkpt>
      <trkpt lat="51.105705" lon="5.813157">
        <ele>30.473349</ele>
        <time>2023-03-05T08:30:59.000Z</time>
      </trkpt>
      <trkpt lat="51.105767" lon="5.813178">
        <ele>30.490175</ele>
        <time>2023-03-05T08:31:00.000Z</time>
      </trkpt>
      <trkpt lat="51.105828" lon="5.813192">
        <ele>30.506535</ele>
        <time>2023-03-05T08:31:01.000Z</time>
      </trkpt>
      <trkpt lat="51.105888" lon="5.813201">
        <ele>30.522532</ele>
        <time>2023-03-05T08:31:02.000Z</time>
      </trkpt>
      <trkpt lat="51.105948" lon="5.813207">
        <ele>30.538490</ele>
        <time>2023-03-05T08:31:03.000Z</time>
      </trkpt>
      <trkpt lat="51.106010" lon="5.813214">
        <ele>30.554989</ele>
        <time>2023-03-05T08:31:04.000Z</time>
      </trkpt>
      <trkpt lat="51.106072" lon="5.813223">
        <ele>30.571515</ele>
        <time>2023-03-05T08:31:05.000Z</time>
      </trkpt>
      <trkpt lat="51.106130" lon="5.813237">
        <ele>30.587087</ele>
        <time>2023-03-05T08:31:06.000Z</time>
      </trkpt>
      <trkpt lat="51.106187" lon="5.813258">
        <ele>30.602617</ele>
        <time>2023-03-05T08:31:07.000Z</time>
      </trkpt>
      <trkpt lat="51.106240" lon="5.813285">
        <ele>30.617388</ele>
        <time>2023-03-05T08:31:08.000Z</time>
      </trkpt>
      <trkpt lat="51.106292" lon="5.813322">
        <ele>30.632506</ele>
        <time>2023-03-05T08:31:09.000Z</time>
      </trkpt>
      <trkpt lat="51.106345" lon="5.813366">
        <ele>30.648372</ele>
        <time>2023-03-05T08:31:10.000Z</time>
      </trkpt>
      <trkpt lat="51.106396" lon="5.813408">
        <ele>30.663612</ele>
        <time>2023-03-05T08:31:11.000Z</time>
      </trkpt>
      <trkpt lat="51.106448" lon="5.813439">
        <ele>30.678351</ele>
        <time>2023-03-05T08:31:12.000Z</time>
      </trkpt>
      <trkpt lat="51.106499" lon="5.813445">
        <ele>30.691925</ele>
        <time>2023-03-05T08:31:13.000Z</time>
      </trkpt>
      <trkpt lat="51.106546" lon="5.813420">
        <ele>30.705079</ele>
        <time>2023-03-05T08:31:14.000Z</time>
      </trkpt>
      <trkpt lat="51.106592" lon="5.813375">
        <ele>30.719409</ele>
        <time>2023-03-05T08:31:15.000Z</time>
      </trkpt>
      <trkpt lat="51.106635" lon="5.813319">
        <ele>30.734153</ele>
        <time>2023-03-05T08:31:16.000Z</time>
      </trkpt>
      <trkpt lat="51.106680" lon="5.813258">
        <ele>30.749839</ele>
        <time>2023-03-05T08:31:17.000Z</time>
      </trkpt>
      <trkpt lat="51.106726" lon="5.813195">
        <ele>30.765943</ele>
        <time>2023-03-05T08:31:18.000Z</time>
      </trkpt>
      <trkpt lat="51.106771" lon="5.813130">
        <ele>30.782069</ele>
        <time>2023-03-05T08:31:19.000Z</time>
      </trkpt>
      <trkpt lat="51.106817" lon="5.813065">
        <ele>30.798393</ele>
        <time>2023-03-05T08:31:20.000Z</time>
      </trkpt>
      <trkpt lat="51.106860" lon="5.813002">
        <ele>30.813902</ele>
        <time>2023-03-05T08:31:21.000Z</time>
      </trkpt>
      <trkpt lat="51.106902" lon="5.812943">
        <ele>30.828768</ele>
        <time>2023-03-05T08:31:22.000Z</time>
      </trkpt>
      <trkpt lat="51.106947" lon="5.812883">
        <ele>30.844346</ele>
        <time>2023-03-05T08:31:23.000Z</time>
      </trkpt>
      <trkpt lat="51.106993" lon="5.812820">
        <ele>30.860450</ele>
        <time>2023-03-05T08:31:24.000Z</time>
      </trkpt>
      <trkpt lat="51.107038" lon="5.812752">
        <ele>30.833542</ele>
        <time>2023-03-05T08:31:25.000Z</time>
      </trkpt>
      <trkpt lat="51.107084" lon="5.812682">
        <ele>30.793992</ele>
        <time>2023-03-05T08:31:26.000Z</time>
      </trkpt>
      <trkpt lat="51.107132" lon="5.812611">
        <ele>30.753269</ele>
        <time>2023-03-05T08:31:27.000Z</time>
      </trkpt>
      <trkpt lat="51.107180" lon="5.812540">
        <ele>30.712547</ele>
        <time>2023-03-05T08:31:28.000Z</time>
      </trkpt>
      <trkpt lat="51.107228" lon="5.812468">
        <ele>30.671557</ele>
        <time>2023-03-05T08:31:29.000Z</time>
      </trkpt>
      <trkpt lat="51.107273" lon="5.812396">
        <ele>30.631905</ele>
        <time>2023-03-05T08:31:30.000Z</time>
      </trkpt>
      <trkpt lat="51.107319" lon="5.812322">
        <ele>30.591261</ele>
        <time>2023-03-05T08:31:31.000Z</time>
      </trkpt>
      <trkpt lat="51.107363" lon="5.812249">
        <ele>30.551764</ele>
        <time>2023-03-05T08:31:32.000Z</time>
      </trkpt>
      <trkpt lat="51.107408" lon="5.812173">
        <ele>30.510990</ele>
        <time>2023-03-05T08:31:33.000Z</time>
      </trkpt>
      <trkpt lat="51.107454" lon="5.812094">
        <ele>30.468937</ele>
        <time>2023-03-05T08:31:34.000Z</time>
      </trkpt>
      <trkpt lat="51.107498" lon="5.812016">
        <ele>30.428010</ele>
        <time>2023-03-05T08:31:35.000Z</time>
      </trkpt>
      <trkpt lat="51.107542" lon="5.811939">
        <ele>30.387372</ele>
        <time>2023-03-05T08:31:36.000Z</time>
      </trkpt>
      <trkpt lat="51.107586" lon="5.811860">
        <ele>30.346154</ele>
        <time>2023-03-05T08:31:37.000Z</time>
      </trkpt>
      <trkpt lat="51.107628" lon="5.811779">
        <ele>30.305152</ele>
        <time>2023-03-05T08:31:38.000Z</time>
      </trkpt>
      <trkpt lat="51.107667" lon="5.811700">
        <ele>30.265927</ele>
        <time>2023-03-05T08:31:39.000Z</time>
      </trkpt>
      <trkpt lat="51.107705" lon="5.811619">
        <ele>30.226462</ele>
        <time>2023-03-05T08:31:40.000Z</time>
      </trkpt>
      <trkpt lat="51.107743" lon="5.811537">
        <ele>30.186683</ele>
        <time>2023-03-05T08:31:41.000Z</time>
      </trkpt>
      <trkpt lat="51.107782" lon="5.811454">
        <ele>30.146219</ele>
        <time>2023-03-05T08:31:42.000Z</time>
      </trkpt>
      <trkpt lat="51.107817" lon="5.811373">
        <ele>30.107841</ele>
        <time>2023-03-05T08:31:43.000Z</time>
      </trkpt>
      <trkpt lat="51.107854" lon="5.811290">
        <ele>30.068110</ele>
        <time>2023-03-05T08:31:44.000Z</time>
      </trkpt>
      <trkpt lat="51.107892" lon="5.811206">
        <ele>30.027701</ele>
        <time>2023-03-05T08:31:45.000Z</time>
      </trkpt>
      <trkpt lat="51.107928" lon="5.811122">
        <ele>29.988005</ele>
        <time>2023-03-05T08:31:46.000Z</time>
      </trkpt>
      <trkpt lat="51.107962" lon="5.811036">
        <ele>29.948339</ele>
        <time>2023-03-05T08:31:47.000Z</time>
      </trkpt>
      <trkpt lat="51.107994" lon="5.810947">
        <ele>29.908309</ele>
        <time>2023-03-05T08:31:48.000Z</time>
      </trkpt>
      <trkpt lat="51.108024" lon="5.810857">
        <ele>29.868537</ele>
        <time>2023-03-05T08:31:49.000Z</time>
      </trkpt>
      <trkpt lat="51.108055" lon="5.810766">
        <ele>29.828128</ele>
        <time>2023-03-05T08:31:50.000Z</time>
      </trkpt>
      <trkpt lat="51.108083" lon="5.810673">
        <ele>29.787872</ele>
        <time>2023-03-05T08:31:51.000Z</time>
      </trkpt>
      <trkpt lat="51.108110" lon="5.810578">
        <ele>29.747171</ele>
        <time>2023-03-05T08:31:52.000Z</time>
      </trkpt>
      <trkpt lat="51.108132" lon="5.810481">
        <ele>29.730653</ele>
        <time>2023-03-05T08:31:53.000Z</time>
      </trkpt>
      <trkpt lat="51.108151" lon="5.810383">
        <ele>29.715051</ele>
        <time>2023-03-05T08:31:54.000Z</time>
      </trkpt>
      <trkpt lat="51.108168" lon="5.810283">
        <ele>29.699293</ele>
        <time>2023-03-05T08:31:55.000Z</time>
      </trkpt>
      <trkpt lat="51.108181" lon="5.810184">
        <ele>29.683908</ele>
        <time>2023-03-05T08:31:56.000Z</time>
      </trkpt>
      <trkpt lat="51.108194" lon="5.810087">
        <ele>29.668821</ele>
        <time>2023-03-05T08:31:57.000Z</time>
      </trkpt>
      <trkpt lat="51.108205" lon="5.809989">
        <ele>29.653678</ele>
        <time>2023-03-05T08:31:58.000Z</time>
      </trkpt>
      <trkpt lat="51.108210" lon="5.809891">
        <ele>29.638722</ele>
        <time>2023-03-05T08:31:59.000Z</time>
      </trkpt>
      <trkpt lat="51.108219" lon="5.809794">
        <ele>29.623807</ele>
        <time>2023-03-05T08:32:00.000Z</time>
      </trkpt>
      <trkpt lat="51.108225" lon="5.809697">
        <ele>29.608980</ele>
        <time>2023-03-05T08:32:01.000Z</time>
      </trkpt>
      <trkpt lat="51.108234" lon="5.809603">
        <ele>29.594517</ele>
        <time>2023-03-05T08:32:02.000Z</time>
      </trkpt>
      <trkpt lat="51.108243" lon="5.809507">
        <ele>29.579752</ele>
        <time>2023-03-05T08:32:03.000Z</time>
      </trkpt>
      <trkpt lat="51.108251" lon="5.809410">
        <ele>29.564871</ele>
        <time>2023-03-05T08:32:04.000Z</time>
      </trkpt>
      <trkpt lat="51.108258" lon="5.809315">
        <ele>29.550321</ele>
        <time>2023-03-05T08:32:05.000Z</time>
      </trkpt>
      <trkpt lat="51.108263" lon="5.809217">
        <ele>29.535365</ele>
        <time>2023-03-05T08:32:06.000Z</time>
      </trkpt>
      <trkpt lat="51.108270" lon="5.809120">
        <ele>29.520513</ele>
        <time>2023-03-05T08:32:07.000Z</time>
      </trkpt>
      <trkpt lat="51.108277" lon="5.809023">
        <ele>29.505662</ele>
        <time>2023-03-05T08:32:08.000Z</time>
      </trkpt>
      <trkpt lat="51.108283" lon="5.808926">
        <ele>29.490835</ele>
        <time>2023-03-05T08:32:09.000Z</time>
      </trkpt>
      <trkpt lat="51.108289" lon="5.808828">
        <ele>29.475858</ele>
        <time>2023-03-05T08:32:10.000Z</time>
      </trkpt>
      <trkpt lat="51.108296" lon="5.808730">
        <ele>29.460855</ele>
        <time>2023-03-05T08:32:11.000Z</time>
      </trkpt>
      <trkpt lat="51.108304" lon="5.808630">
        <ele>29.445521</ele>
        <time>2023-03-05T08:32:12.000Z</time>
      </trkpt>
      <trkpt lat="51.108312" lon="5.808529">
        <ele>29.430036</ele>
        <time>2023-03-05T08:32:13.000Z</time>
      </trkpt>
      <trkpt lat="51.108317" lon="5.808429">
        <ele>29.414777</ele>
        <time>2023-03-05T08:32:14.000Z</time>
      </trkpt>
      <trkpt lat="51.108321" lon="5.808330">
        <ele>29.399687</ele>
        <time>2023-03-05T08:32:15.000Z</time>
      </trkpt>
      <trkpt lat="51.108327" lon="5.808230">
        <ele>29.384407</ele>
        <time>2023-03-05T08:32:16.000Z</time>
      </trkpt>
      <trkpt lat="51.108337" lon="5.808130">
        <ele>29.369004</ele>
        <time>2023-03-05T08:32:17.000Z</time>
      </trkpt>
      <trkpt lat="51.108344" lon="5.808032">
        <ele>29.354001</ele>
        <time>2023-03-05T08:32:18.000Z</time>
      </trkpt>
      <trkpt lat="51.108352" lon="5.807931">
        <ele>29.338516</ele>
        <time>2023-03-05T08:32:19.000Z</time>
      </trkpt>
      <trkpt lat="51.108363" lon="5.807832">
        <ele>29.323223</ele>
        <time>2023-03-05T08:32:20.000Z</time>
      </trkpt>
      <trkpt lat="51.108375" lon="5.807734">
        <ele>29.316265</ele>
        <time>2023-03-05T08:32:21.000Z</time>
      </trkpt>
      <trkpt lat="51.108391" lon="5.807638">
        <ele>29.362864</ele>
        <time>2023-03-05T08:32:22.000Z</time>
      </trkpt>
      <trkpt lat="51.108408" lon="5.807539">
        <ele>29.411016</ele>
        <time>2023-03-05T08:32:23.000Z</time>
      </trkpt>
      <trkpt lat="51.108426" lon="5.807442">
        <ele>29.458469</ele>
        <time>2023-03-05T08:32:24.000Z</time>
      </trkpt>
      <trkpt lat="51.108445" lon="5.807348">
        <ele>29.504798</ele>
        <time>2023-03-05T08:32:25.000Z</time>
      </trkpt>
      <trkpt lat="51.108469" lon="5.807258">
        <ele>29.550673</ele>
        <time>2023-03-05T08:32:26.000Z</time>
      </trkpt>
      <trkpt lat="51.108493" lon="5.807169">
        <ele>29.596115</ele>
        <time>2023-03-05T08:32:27.000Z</time>
      </trkpt>
      <trkpt lat="51.108518" lon="5.807083">
        <ele>29.640577</ele>
        <time>2023-03-05T08:32:28.000Z</time>
      </trkpt>
      <trkpt lat="51.108545" lon="5.807002">
        <ele>29.683602</ele>
        <time>2023-03-05T08:32:29.000Z</time>
      </trkpt>
      <trkpt lat="51.108572" lon="5.806925">
        <ele>29.724978</ele>
        <time>2023-03-05T08:32:30.000Z</time>
      </trkpt>
      <trkpt lat="51.108595" lon="5.806858">
        <ele>29.760803</ele>
        <time>2023-03-05T08:32:31.000Z</time>
      </trkpt>
      <trkpt lat="51.108618" lon="5.806785">
        <ele>29.799121</ele>
        <time>2023-03-05T08:32:32.000Z</time>
      </trkpt>
      <trkpt lat="51.108642" lon="5.806709">
        <ele>29.839033</ele>
        <time>2023-03-05T08:32:33.000Z</time>
      </trkpt>
      <trkpt lat="51.108664" lon="5.806645">
        <ele>29.873264</ele>
        <time>2023-03-05T08:32:34.000Z</time>
      </trkpt>
      <trkpt lat="51.108692" lon="5.806592">
        <ele>29.905760</ele>
        <time>2023-03-05T08:32:35.000Z</time>
      </trkpt>
      <trkpt lat="51.108728" lon="5.806559">
        <ele>29.936798</ele>
        <time>2023-03-05T08:32:36.000Z</time>
      </trkpt>
      <trkpt lat="51.108766" lon="5.806556">
        <ele>29.965228</ele>
        <time>2023-03-05T08:32:37.000Z</time>
      </trkpt>
      <trkpt lat="51.108804" lon="5.806582">
        <ele>29.996132</ele>
        <time>2023-03-05T08:32:38.000Z</time>
      </trkpt>
      <trkpt lat="51.108844" lon="5.806623">
        <ele>30.031675</ele>
        <time>2023-03-05T08:32:39.000Z</time>
      </trkpt>
      <trkpt lat="51.108891" lon="5.806672">
        <ele>30.073650</ele>
        <time>2023-03-05T08:32:40.000Z</time>
      </trkpt>
      <trkpt lat="51.108943" lon="5.806724">
        <ele>30.119530</ele>
        <time>2023-03-05T08:32:41.000Z</time>
      </trkpt>
      <trkpt lat="51.108995" lon="5.806775">
        <ele>30.165162</ele>
        <time>2023-03-05T08:32:42.000Z</time>
      </trkpt>
      <trkpt lat="51.109049" lon="5.806824">
        <ele>30.211601</ele>
        <time>2023-03-05T08:32:43.000Z</time>
      </trkpt>
      <trkpt lat="51.109103" lon="5.806872">
        <ele>30.257810</ele>
        <time>2023-03-05T08:32:44.000Z</time>
      </trkpt>
      <trkpt lat="51.109157" lon="5.806923">
        <ele>30.304721</ele>
        <time>2023-03-05T08:32:45.000Z</time>
      </trkpt>
      <trkpt lat="51.109208" lon="5.806975">
        <ele>30.349970</ele>
        <time>2023-03-05T08:32:46.000Z</time>
      </trkpt>
      <trkpt lat="51.109262" lon="5.807028">
        <ele>30.397367</ele>
        <time>2023-03-05T08:32:47.000Z</time>
      </trkpt>
      <trkpt lat="51.109317" lon="5.807081">
        <ele>30.445401</ele>
        <time>2023-03-05T08:32:48.000Z</time>
      </trkpt>
      <trkpt lat="51.109368" lon="5.807134">
        <ele>30.490904</ele>
        <time>2023-03-05T08:32:49.000Z</time>
      </trkpt>
      <trkpt lat="51.109422" lon="5.807189">
        <ele>30.538799</ele>
        <time>2023-03-05T08:32:50.000Z</time>
      </trkpt>
      <trkpt lat="51.109477" lon="5.807242">
        <ele>30.586833</ele>
        <time>2023-03-05T08:32:51.000Z</time>
      </trkpt>
      <trkpt lat="51.109530" lon="5.807293">
        <ele>30.633103</ele>
        <time>2023-03-05T08:32:52.000Z</time>
      </trkpt>
      <trkpt lat="51.109586" lon="5.807345">
        <ele>30.649689</ele>
        <time>2023-03-05T08:32:53.000Z</time>
      </trkpt>
      <trkpt lat="51.109641" lon="5.807391">
        <ele>30.642306</ele>
        <time>2023-03-05T08:32:54.000Z</time>
      </trkpt>
      <trkpt lat="51.109696" lon="5.807428">
        <ele>30.635210</ele>
        <time>2023-03-05T08:32:55.000Z</time>
      </trkpt>
      <trkpt lat="51.109754" lon="5.807459">
        <ele>30.627938</ele>
        <time>2023-03-05T08:32:56.000Z</time>
      </trkpt>
      <trkpt lat="51.109813" lon="5.807478">
        <ele>30.620784</ele>
        <time>2023-03-05T08:32:57.000Z</time>
      </trkpt>
      <trkpt lat="51.109874" lon="5.807481">
        <ele>30.613530</ele>
        <time>2023-03-05T08:32:58.000Z</time>
      </trkpt>
      <trkpt lat="51.109938" lon="5.807471">
        <ele>30.605887</ele>
        <time>2023-03-05T08:32:59.000Z</time>
      </trkpt>
      <trkpt lat="51.109999" lon="5.807454">
        <ele>30.598527</ele>
        <time>2023-03-05T08:33:00.000Z</time>
      </trkpt>
      <trkpt lat="51.110063" lon="5.807436">
        <ele>30.590802</ele>
        <time>2023-03-05T08:33:01.000Z</time>
      </trkpt>
      <trkpt lat="51.110129" lon="5.807421">
        <ele>30.582879</ele>
        <time>2023-03-05T08:33:02.000Z</time>
      </trkpt>
      <trkpt lat="51.110191" lon="5.807407">
        <ele>30.575436</ele>
        <time>2023-03-05T08:33:03.000Z</time>
      </trkpt>
      <trkpt lat="51.110249" lon="5.807395">
        <ele>30.568484</ele>
        <time>2023-03-05T08:33:04.000Z</time>
      </trkpt>
      <trkpt lat="51.110311" lon="5.807384">
        <ele>30.561070</ele>
        <time>2023-03-05T08:33:05.000Z</time>
      </trkpt>
      <trkpt lat="51.110371" lon="5.807374">
        <ele>30.553900</ele>
        <time>2023-03-05T08:33:06.000Z</time>
      </trkpt>
      <trkpt lat="51.110431" lon="5.807365">
        <ele>30.546737</ele>
        <time>2023-03-05T08:33:07.000Z</time>
      </trkpt>
      <trkpt lat="51.110490" lon="5.807359">
        <ele>30.539710</ele>
        <time>2023-03-05T08:33:08.000Z</time>
      </trkpt>
      <trkpt lat="51.110548" lon="5.807357">
        <ele>30.532815</ele>
        <time>2023-03-05T08:33:09.000Z</time>
      </trkpt>
      <trkpt lat="51.110602" lon="5.807353">
        <ele>30.526390</ele>
        <time>2023-03-05T08:33:10.000Z</time>
      </trkpt>
      <trkpt lat="51.110656" lon="5.807350">
        <ele>30.519968</ele>
        <time>2023-03-05T08:33:11.000Z</time>
      </trkpt>
      <trkpt lat="51.110712" lon="5.807352">
        <ele>30.513310</ele>
        <time>2023-03-05T08:33:12.000Z</time>
      </trkpt>
      <trkpt lat="51.110769" lon="5.807354">
        <ele>30.506534</ele>
        <time>2023-03-05T08:33:13.000Z</time>
      </trkpt>
      <trkpt lat="51.110828" lon="5.807355">
        <ele>30.499521</ele>
        <time>2023-03-05T08:33:14.000Z</time>
      </trkpt>
      <trkpt lat="51.110887" lon="5.807356">
        <ele>30.492508</ele>
        <time>2023-03-05T08:33:15.000Z</time>
      </trkpt>
      <trkpt lat="51.110949" lon="5.807359">
        <ele>30.485136</ele>
        <time>2023-03-05T08:33:16.000Z</time>
      </trkpt>
      <trkpt lat="51.111014" lon="5.807361">
        <ele>30.477409</ele>
        <time>2023-03-05T08:33:17.000Z</time>
      </trkpt>
      <trkpt lat="51.111078" lon="5.807364">
        <ele>30.469799</ele>
        <time>2023-03-05T08:33:18.000Z</time>
      </trkpt>
      <trkpt lat="51.111144" lon="5.807369">
        <ele>30.461945</ele>
        <time>2023-03-05T08:33:19.000Z</time>
      </trkpt>
      <trkpt lat="51.111211" lon="5.807374">
        <ele>30.453973</ele>
        <time>2023-03-05T08:33:20.000Z</time>
      </trkpt>
      <trkpt lat="51.111280" lon="5.807378">
        <ele>30.445767</ele>
        <time>2023-03-05T08:33:21.000Z</time>
      </trkpt>
      <trkpt lat="51.111347" lon="5.807384">
        <ele>30.431984</ele>
        <time>2023-03-05T08:33:22.000Z</time>
      </trkpt>
      <trkpt lat="51.111417" lon="5.807390">
        <ele>30.404231</ele>
        <time>2023-03-05T08:33:23.000Z</time>
      </trkpt>
      <trkpt lat="51.111485" lon="5.807395">
        <ele>30.377283</ele>
        <time>2023-03-05T08:33:24.000Z</time>
      </trkpt>
      <trkpt lat="51.111552" lon="5.807401">
        <ele>30.350716</ele>
        <time>2023-03-05T08:33:25.000Z</time>
      </trkpt>
      <trkpt lat="51.111617" lon="5.807406">
        <ele>30.324954</ele>
        <time>2023-03-05T08:33:26.000Z</time>
      </trkpt>
      <trkpt lat="51.111681" lon="5.807408">
        <ele>30.299612</ele>
        <time>2023-03-05T08:33:27.000Z</time>
      </trkpt>
      <trkpt lat="51.111746" lon="5.807410">
        <ele>30.273875</ele>
        <time>2023-03-05T08:33:28.000Z</time>
      </trkpt>
      <trkpt lat="51.111811" lon="5.807413">
        <ele>30.248131</ele>
        <time>2023-03-05T08:33:29.000Z</time>
      </trkpt>
      <trkpt lat="51.111873" lon="5.807414">
        <ele>30.223585</ele>
        <time>2023-03-05T08:33:30.000Z</time>
      </trkpt>
      <trkpt lat="51.111939" lon="5.807417">
        <ele>30.197446</ele>
        <time>2023-03-05T08:33:31.000Z</time>
      </trkpt>
      <trkpt lat="51.112006" lon="5.807418">
        <ele>30.170920</ele>
        <time>2023-03-05T08:33:32.000Z</time>
      </trkpt>
      <trkpt lat="51.112069" lon="5.807416">
        <ele>30.145974</ele>
        <time>2023-03-05T08:33:33.000Z</time>
      </trkpt>
      <trkpt lat="51.112129" lon="5.807400">
        <ele>30.121891</ele>
        <time>2023-03-05T08:33:34.000Z</time>
      </trkpt>
      <trkpt lat="51.112192" lon="5.807371">
        <ele>30.095929</ele>
        <time>2023-03-05T08:33:35.000Z</time>
      </trkpt>
      <trkpt lat="51.112258" lon="5.807335">
        <ele>30.068311</ele>
        <time>2023-03-05T08:33:36.000Z</time>
      </trkpt>
      <trkpt lat="51.112322" lon="5.807301">
        <ele>30.041602</ele>
        <time>2023-03-05T08:33:37.000Z</time>
      </trkpt>
      <trkpt lat="51.112388" lon="5.807270">
        <ele>30.014362</ele>
        <time>2023-03-05T08:33:38.000Z</time>
      </trkpt>
      <trkpt lat="51.112455" lon="5.807242">
        <ele>29.986940</ele>
        <time>2023-03-05T08:33:39.000Z</time>
      </trkpt>
      <trkpt lat="51.112523" lon="5.807217">
        <ele>29.959312</ele>
        <time>2023-03-05T08:33:40.000Z</time>
      </trkpt>
      <trkpt lat="51.112589" lon="5.807194">
        <ele>29.932565</ele>
        <time>2023-03-05T08:33:41.000Z</time>
      </trkpt>
      <trkpt lat="51.112654" lon="5.807174">
        <ele>29.906357</ele>
        <time>2023-03-05T08:33:42.000Z</time>
      </trkpt>
      <trkpt lat="51.112722" lon="5.807154">
        <ele>29.878981</ele>
        <time>2023-03-05T08:33:43.000Z</time>
      </trkpt>
      <trkpt lat="51.112790" lon="5.807135">
        <ele>29.851650</ele>
        <time>2023-03-05T08:33:44.000Z</time>
      </trkpt>
      <trkpt lat="51.112856" lon="5.807118">
        <ele>29.825182</ele>
        <time>2023-03-05T08:33:45.000Z</time>
      </trkpt>
      <trkpt lat="51.112922" lon="5.807104">
        <ele>29.798823</ele>
        <time>2023-03-05T08:33:46.000Z</time>
      </trkpt>
      <trkpt lat="51.112986" lon="5.807096">
        <ele>29.773408</ele>
        <time>2023-03-05T08:33:47.000Z</time>
      </trkpt>
      <trkpt lat="51.113051" lon="5.807088">
        <ele>29.747599</ele>
        <time>2023-03-05T08:33:48.000Z</time>
      </trkpt>
      <trkpt lat="51.113116" lon="5.807081">
        <ele>29.737315</ele>
        <time>2023-03-05T08:33:49.000Z</time>
      </trkpt>
      <trkpt lat="51.113178" lon="5.807077">
        <ele>29.772118</ele>
        <time>2023-03-05T08:33:50.000Z</time>
      </trkpt>
      <trkpt lat="51.113239" lon="5.807074">
        <ele>29.806349</ele>
        <time>2023-03-05T08:33:51.000Z</time>
      </trkpt>
      <trkpt lat="51.113300" lon="5.807071">
        <ele>29.840580</ele>
        <time>2023-03-05T08:33:52.000Z</time>
      </trkpt>
      <trkpt lat="51.113364" lon="5.807074">
        <ele>29.876492</ele>
        <time>2023-03-05T08:33:53.000Z</time>
      </trkpt>
      <trkpt lat="51.113426" lon="5.807079">
        <ele>29.911312</ele>
        <time>2023-03-05T08:33:54.000Z</time>
      </trkpt>
      <trkpt lat="51.113490" lon="5.807083">
        <ele>29.947237</ele>
        <time>2023-03-05T08:33:55.000Z</time>
      </trkpt>
      <trkpt lat="51.113552" lon="5.807087">
        <ele>29.982040</ele>
        <time>2023-03-05T08:33:56.000Z</time>
      </trkpt>
      <trkpt lat="51.113616" lon="5.807093">
        <ele>30.017999</ele>
        <time>2023-03-05T08:33:57.000Z</time>
      </trkpt>
      <trkpt lat="51.113681" lon="5.807101">
        <ele>30.054566</ele>
        <time>2023-03-05T08:33:58.000Z</time>
      </trkpt>
      <trkpt lat="51.113744" lon="5.807111">
        <ele>30.090077</ele>
        <time>2023-03-05T08:33:59.000Z</time>
      </trkpt>
      <trkpt lat="51.113810" lon="5.807121">
        <ele>30.127263</ele>
        <time>2023-03-05T08:34:00.000Z</time>
      </trkpt>
      <trkpt lat="51.113877" lon="5.807131">
        <ele>30.165007</ele>
        <time>2023-03-05T08:34:01.000Z</time>
      </trkpt>
      <trkpt lat="51.113943" lon="5.807141">
        <ele>30.202193</ele>
        <time>2023-03-05T08:34:02.000Z</time>
      </trkpt>
      <trkpt lat="51.114008" lon="5.807154">
        <ele>30.238937</ele>
        <time>2023-03-05T08:34:03.000Z</time>
      </trkpt>
      <trkpt lat="51.114071" lon="5.807172">
        <ele>30.274837</ele>
        <time>2023-03-05T08:34:04.000Z</time>
      </trkpt>
      <trkpt lat="51.114135" lon="5.807191">
        <ele>30.311352</ele>
        <time>2023-03-05T08:34:05.000Z</time>
      </trkpt>
      <trkpt lat="51.114200" lon="5.807212">
        <ele>30.348552</ele>
        <time>2023-03-05T08:34:06.000Z</time>
      </trkpt>
      <trkpt lat="51.114261" lon="5.807235">
        <ele>30.383712</ele>
        <time>2023-03-05T08:34:07.000Z</time>
      </trkpt>
      <trkpt lat="51.114325" lon="5.807257">
        <ele>30.420435</ele>
        <time>2023-03-05T08:34:08.000Z</time>
      </trkpt>
      <trkpt lat="51.114387" lon="5.807279">
        <ele>30.456063</ele>
        <time>2023-03-05T08:34:09.000Z</time>
      </trkpt>
      <trkpt lat="51.114448" lon="5.807305">
        <ele>30.491481</ele>
        <time>2023-03-05T08:34:10.000Z</time>
      </trkpt>
      <trkpt lat="51.114511" lon="5.807333">
        <ele>30.528167</ele>
        <time>2023-03-05T08:34:11.000Z</time>
      </trkpt>
      <trkpt lat="51.114574" lon="5.807363">
        <ele>30.565048</ele>
        <time>2023-03-05T08:34:12.000Z</time>
      </trkpt>
      <trkpt lat="51.114635" lon="5.807393">
        <ele>30.600856</ele>
        <time>2023-03-05T08:34:13.000Z</time>
      </trkpt>
      <trkpt lat="51.114697" lon="5.807420">
        <ele>30.636907</ele>
        <time>2023-03-05T08:34:14.000Z</time>
      </trkpt>
      <trkpt lat="51.114755" lon="5.807446">
        <ele>30.670702</ele>
        <time>2023-03-05T08:34:15.000Z</time>
      </trkpt>
      <trkpt lat="51.114815" lon="5.807475">
        <ele>30.705871</ele>
        <time>2023-03-05T08:34:16.000Z</time>
      </trkpt>
      <trkpt lat="51.114876" lon="5.807505">
        <ele>30.738321</ele>
        <time>2023-03-05T08:34:17.000Z</time>
      </trkpt>
      <trkpt lat="51.114937" lon="5.807535">
        <ele>30.748068</ele>
        <time>2023-03-05T08:34:18.000Z</time>
      </trkpt>
      <trkpt lat="51.114998" lon="5.807565">
        <ele>30.757815</ele>
        <time>2023-03-05T08:34:19.000Z</time>
      </trkpt>
      <trkpt lat="51.115059" lon="5.807598">
        <ele>30.767650</ele>
        <time>2023-03-05T08:34:20.000Z</time>
      </trkpt>
      <trkpt lat="51.115120" lon="5.807630">
        <ele>30.777455</ele>
        <time>2023-03-05T08:34:21.000Z</time>
      </trkpt>
      <trkpt lat="51.115180" lon="5.807660">
        <ele>30.787056</ele>
        <time>2023-03-05T08:34:22.000Z</time>
      </trkpt>
      <trkpt lat="51.115242" lon="5.807692">
        <ele>30.797006</ele>
        <time>2023-03-05T08:34:23.000Z</time>
      </trkpt>
      <trkpt lat="51.115305" lon="5.807726">
        <ele>30.807161</ele>
        <time>2023-03-05T08:34:24.000Z</time>
      </trkpt>
      <trkpt lat="51.115368" lon="5.807758">
        <ele>30.817256</ele>
        <time>2023-03-05T08:34:25.000Z</time>
      </trkpt>
      <trkpt lat="51.115429" lon="5.807790">
        <ele>30.827061</ele>
        <time>2023-03-05T08:34:26.000Z</time>
      </trkpt>
      <trkpt lat="51.115493" lon="5.807822">
        <ele>30.837302</ele>
        <time>2023-03-05T08:34:27.000Z</time>
      </trkpt>
      <trkpt lat="51.115557" lon="5.807852">
        <ele>30.847487</ele>
        <time>2023-03-05T08:34:28.000Z</time>
      </trkpt>
      <trkpt lat="51.115620" lon="5.807884">
        <ele>30.857582</ele>
        <time>2023-03-05T08:34:29.000Z</time>
      </trkpt>
      <trkpt lat="51.115681" lon="5.807918">
        <ele>30.867449</ele>
        <time>2023-03-05T08:34:30.000Z</time>
      </trkpt>
      <trkpt lat="51.115745" lon="5.807951">
        <ele>30.877719</ele>
        <time>2023-03-05T08:34:31.000Z</time>
      </trkpt>
      <trkpt lat="51.115808" lon="5.807982">
        <ele>30.887785</ele>
        <time>2023-03-05T08:34:32.000Z</time>
      </trkpt>
      <trkpt lat="51.115871" lon="5.808015">
        <ele>30.897910</ele>
        <time>2023-03-05T08:34:33.000Z</time>
      </trkpt>
      <trkpt lat="51.115935" lon="5.808048">
        <ele>30.908180</ele>
        <time>2023-03-05T08:34:34.000Z</time>
      </trkpt>
      <trkpt lat="51.115999" lon="5.808081">
        <ele>30.918450</ele>
        <time>2023-03-05T08:34:35.000Z</time>
      </trkpt>
      <trkpt lat="51.116064" lon="5.808113">
        <ele>30.928837</ele>
        <time>2023-03-05T08:34:36.000Z</time>
      </trkpt>
      <trkpt lat="51.116129" lon="5.808142">
        <ele>30.939142</ele>
        <time>2023-03-05T08:34:37.000Z</time>
      </trkpt>
      <trkpt lat="51.116194" lon="5.808170">
        <ele>30.949422</ele>
        <time>2023-03-05T08:34:38.000Z</time>
      </trkpt>
      <trkpt lat="51.116259" lon="5.808196">
        <ele>30.959654</ele>
        <time>2023-03-05T08:34:39.000Z</time>
      </trkpt>
      <trkpt lat="51.116319" lon="5.808222">
        <ele>30.969147</ele>
        <time>2023-03-05T08:34:40.000Z</time>
      </trkpt>
      <trkpt lat="51.116379" lon="5.808249">
        <ele>30.978666</ele>
        <time>2023-03-05T08:34:41.000Z</time>
      </trkpt>
      <trkpt lat="51.116439" lon="5.808276">
        <ele>30.988184</ele>
        <time>2023-03-05T08:34:42.000Z</time>
      </trkpt>
      <trkpt lat="51.116498" lon="5.808304">
        <ele>30.997583</ele>
        <time>2023-03-05T08:34:43.000Z</time>
      </trkpt>
      <trkpt lat="51.116558" lon="5.808333">
        <ele>31.007156</ele>
        <time>2023-03-05T08:34:44.000Z</time>
      </trkpt>
      <trkpt lat="51.116616" lon="5.808361">
        <ele>31.010276</ele>
        <time>2023-03-05T08:34:45.000Z</time>
      </trkpt>
      <trkpt lat="51.116678" lon="5.808388">
        <ele>31.007404</ele>
        <time>2023-03-05T08:34:46.000Z</time>
      </trkpt>
      <trkpt lat="51.116741" lon="5.808416">
        <ele>31.004480</ele>
        <time>2023-03-05T08:34:47.000Z</time>
      </trkpt>
      <trkpt lat="51.116802" lon="5.808445">
        <ele>31.001635</ele>
        <time>2023-03-05T08:34:48.000Z</time>
      </trkpt>
      <trkpt lat="51.116863" lon="5.808476">
        <ele>30.998773</ele>
        <time>2023-03-05T08:34:49.000Z</time>
      </trkpt>
      <trkpt lat="51.116922" lon="5.808506">
        <ele>30.996005</ele>
        <time>2023-03-05T08:34:50.000Z</time>
      </trkpt>
      <trkpt lat="51.116984" lon="5.808534">
        <ele>30.993125</ele>
        <time>2023-03-05T08:34:51.000Z</time>
      </trkpt>
      <trkpt lat="51.117044" lon="5.808566">
        <ele>30.990297</ele>
        <time>2023-03-05T08:34:52.000Z</time>
      </trkpt>
      <trkpt lat="51.117101" lon="5.808597">
        <ele>30.987605</ele>
        <time>2023-03-05T08:34:53.000Z</time>
      </trkpt>
      <trkpt lat="51.117159" lon="5.808627">
        <ele>30.984879</ele>
        <time>2023-03-05T08:34:54.000Z</time>
      </trkpt>
      <trkpt lat="51.117218" lon="5.808659">
        <ele>30.982093</ele>
        <time>2023-03-05T08:34:55.000Z</time>
      </trkpt>
      <trkpt lat="51.117278" lon="5.808691">
        <ele>30.979265</ele>
        <time>2023-03-05T08:34:56.000Z</time>
      </trkpt>
      <trkpt lat="51.117342" lon="5.808725">
        <ele>30.976250</ele>
        <time>2023-03-05T08:34:57.000Z</time>
      </trkpt>
      <trkpt lat="51.117405" lon="5.808759">
        <ele>30.973277</ele>
        <time>2023-03-05T08:34:58.000Z</time>
      </trkpt>
      <trkpt lat="51.117468" lon="5.808791">
        <ele>30.970322</ele>
        <time>2023-03-05T08:34:59.000Z</time>
      </trkpt>
      <trkpt lat="51.117538" lon="5.808824">
        <ele>30.967059</ele>
        <time>2023-03-05T08:35:00.000Z</time>
      </trkpt>
      <trkpt lat="51.117605" lon="5.808857">
        <ele>30.963924</ele>
        <time>2023-03-05T08:35:01.000Z</time>
      </trkpt>
      <trkpt lat="51.117670" lon="5.808894">
        <ele>30.960839</ele>
        <time>2023-03-05T08:35:02.000Z</time>
      </trkpt>
      <trkpt lat="51.117735" lon="5.808935">
        <ele>30.957715</ele>
        <time>2023-03-05T08:35:03.000Z</time>
      </trkpt>
      <trkpt lat="51.117800" lon="5.808978">
        <ele>30.954569</ele>
        <time>2023-03-05T08:35:04.000Z</time>
      </trkpt>
      <trkpt lat="51.117868" lon="5.809021">
        <ele>30.951299</ele>
        <time>2023-03-05T08:35:05.000Z</time>
      </trkpt>
      <trkpt lat="51.117936" lon="5.809062">
        <ele>30.948049</ele>
        <time>2023-03-05T08:35:06.000Z</time>
      </trkpt>
      <trkpt lat="51.118002" lon="5.809102">
        <ele>30.944893</ele>
        <time>2023-03-05T08:35:07.000Z</time>
      </trkpt>
      <trkpt lat="51.118067" lon="5.809138">
        <ele>30.941817</ele>
        <time>2023-03-05T08:35:08.000Z</time>
      </trkpt>
      <trkpt lat="51.118132" lon="5.809173">
        <ele>30.938750</ele>
        <time>2023-03-05T08:35:09.000Z</time>
      </trkpt>
      <trkpt lat="51.118200" lon="5.809210">
        <ele>30.935539</ele>
        <time>2023-03-05T08:35:10.000Z</time>
      </trkpt>
      <trkpt lat="51.118263" lon="5.809250">
        <ele>30.932508</ele>
        <time>2023-03-05T08:35:11.000Z</time>
      </trkpt>
      <trkpt lat="51.118326" lon="5.809294">
        <ele>30.916698</ele>
        <time>2023-03-05T08:35:12.000Z</time>
      </trkpt>
      <trkpt lat="51.118391" lon="5.809338">
        <ele>30.891702</ele>
        <time>2023-03-05T08:35:13.000Z</time>
      </trkpt>
      <trkpt lat="51.118456" lon="5.809381">
        <ele>30.866792</ele>
        <time>2023-03-05T08:35:14.000Z</time>
      </trkpt>
      <trkpt lat="51.118524" lon="5.809424">
        <ele>30.840898</ele>
        <time>2023-03-05T08:35:15.000Z</time>
      </trkpt>
      <trkpt lat="51.118590" lon="5.809468">
        <ele>30.815575</ele>
        <time>2023-03-05T08:35:16.000Z</time>
      </trkpt>
      <trkpt lat="51.118654" lon="5.809513">
        <ele>30.790816</ele>
        <time>2023-03-05T08:35:17.000Z</time>
      </trkpt>
      <trkpt lat="51.118716" lon="5.809557">
        <ele>30.766793</ele>
        <time>2023-03-05T08:35:18.000Z</time>
      </trkpt>
      <trkpt lat="51.118779" lon="5.809602">
        <ele>30.742357</ele>
        <time>2023-03-05T08:35:19.000Z</time>
      </trkpt>
      <trkpt lat="51.118845" lon="5.809651">
        <ele>30.716585</ele>
        <time>2023-03-05T08:35:20.000Z</time>
      </trkpt>
      <trkpt lat="51.118910" lon="5.809702">
        <ele>30.690941</ele>
        <time>2023-03-05T08:35:21.000Z</time>
      </trkpt>
      <trkpt lat="51.118973" lon="5.809755">
        <ele>30.665725</ele>
        <time>2023-03-05T08:35:22.000Z</time>
      </trkpt>
      <trkpt lat="51.119033" lon="5.809808">
        <ele>30.641443</ele>
        <time>2023-03-05T08:35:23.000Z</time>
      </trkpt>
      <trkpt lat="51.119095" lon="5.809864">
        <ele>30.616218</ele>
        <time>2023-03-05T08:35:24.000Z</time>
      </trkpt>
      <trkpt lat="51.119156" lon="5.809921">
        <ele>30.591189</ele>
        <time>2023-03-05T08:35:25.000Z</time>
      </trkpt>
      <trkpt lat="51.119217" lon="5.809980">
        <ele>30.565931</ele>
        <time>2023-03-05T08:35:26.000Z</time>
      </trkpt>
      <trkpt lat="51.119278" lon="5.810037">
        <ele>30.540902</ele>
        <time>2023-03-05T08:35:27.000Z</time>
      </trkpt>
      <trkpt lat="51.119339" lon="5.810095">
        <ele>30.515759</ele>
        <time>2023-03-05T08:35:28.000Z</time>
      </trkpt>
      <trkpt lat="51.119397" lon="5.810152">
        <ele>30.491639</ele>
        <time>2023-03-05T08:35:29.000Z</time>
      </trkpt>
      <trkpt lat="51.119452" lon="5.810213">
        <ele>30.467920</ele>
        <time>2023-03-05T08:35:30.000Z</time>
      </trkpt>
      <trkpt lat="51.119506" lon="5.810276">
        <ele>30.444231</ele>
        <time>2023-03-05T08:35:31.000Z</time>
      </trkpt>
      <trkpt lat="51.119560" lon="5.810341">
        <ele>30.420277</ele>
        <time>2023-03-05T08:35:32.000Z</time>
      </trkpt>
      <trkpt lat="51.119613" lon="5.810407">
        <ele>30.396468</ele>
        <time>2023-03-05T08:35:33.000Z</time>
      </trkpt>
      <trkpt lat="51.119664" lon="5.810476">
        <ele>30.372787</ele>
        <time>2023-03-05T08:35:34.000Z</time>
      </trkpt>
      <trkpt lat="51.119713" lon="5.810546">
        <ele>30.349493</ele>
        <time>2023-03-05T08:35:35.000Z</time>
      </trkpt>
      <trkpt lat="51.119763" lon="5.810620">
        <ele>30.325338</ele>
        <time>2023-03-05T08:35:36.000Z</time>
      </trkpt>
      <trkpt lat="51.119810" lon="5.810697">
        <ele>30.301477</ele>
        <time>2023-03-05T08:35:37.000Z</time>
      </trkpt>
      <trkpt lat="51.119859" lon="5.810774">
        <ele>30.281861</ele>
        <time>2023-03-05T08:35:38.000Z</time>
      </trkpt>
      <trkpt lat="51.119903" lon="5.810852">
        <ele>30.264857</ele>
        <time>2023-03-05T08:35:39.000Z</time>
      </trkpt>
      <trkpt lat="51.119950" lon="5.810929">
        <ele>30.247442</ele>
        <time>2023-03-05T08:35:40.000Z</time>
      </trkpt>
      <trkpt lat="51.119994" lon="5.811005">
        <ele>30.230677</ele>
        <time>2023-03-05T08:35:41.000Z</time>
      </trkpt>
      <trkpt lat="51.120036" lon="5.811080">
        <ele>30.214380</ele>
        <time>2023-03-05T08:35:42.000Z</time>
      </trkpt>
      <trkpt lat="51.120079" lon="5.811153">
        <ele>30.198147</ele>
        <time>2023-03-05T08:35:43.000Z</time>
      </trkpt>
      <trkpt lat="51.120121" lon="5.811225">
        <ele>30.182210</ele>
        <time>2023-03-05T08:35:44.000Z</time>
      </trkpt>
      <trkpt lat="51.120162" lon="5.811295">
        <ele>30.166685</ele>
        <time>2023-03-05T08:35:45.000Z</time>
      </trkpt>
      <trkpt lat="51.120206" lon="5.811365">
        <ele>30.150622</ele>
        <time>2023-03-05T08:35:46.000Z</time>
      </trkpt>
      <trkpt lat="51.120252" lon="5.811433">
        <ele>30.134412</ele>
        <time>2023-03-05T08:35:47.000Z</time>
      </trkpt>
      <trkpt lat="51.120295" lon="5.811498">
        <ele>30.119100</ele>
        <time>2023-03-05T08:35:48.000Z</time>
      </trkpt>
      <trkpt lat="51.120340" lon="5.811567">
        <ele>30.102966</ele>
        <time>2023-03-05T08:35:49.000Z</time>
      </trkpt>
      <trkpt lat="51.120386" lon="5.811640">
        <ele>30.086194</ele>
        <time>2023-03-05T08:35:50.000Z</time>
      </trkpt>
      <trkpt lat="51.120429" lon="5.811715">
        <ele>30.069723</ele>
        <time>2023-03-05T08:35:51.000Z</time>
      </trkpt>
      <trkpt lat="51.120474" lon="5.811790">
        <ele>30.052900</ele>
        <time>2023-03-05T08:35:52.000Z</time>
      </trkpt>
      <trkpt lat="51.120520" lon="5.811865">
        <ele>30.035898</ele>
        <time>2023-03-05T08:35:53.000Z</time>
      </trkpt>
      <trkpt lat="51.120563" lon="5.811941">
        <ele>30.019307</ele>
        <time>2023-03-05T08:35:54.000Z</time>
      </trkpt>
      <trkpt lat="51.120605" lon="5.812018">
        <ele>30.002767</ele>
        <time>2023-03-05T08:35:55.000Z</time>
      </trkpt>
      <trkpt lat="51.120649" lon="5.812094">
        <ele>29.986002</ele>
        <time>2023-03-05T08:35:56.000Z</time>
      </trkpt>
      <trkpt lat="51.120694" lon="5.812173">
        <ele>29.968705</ele>
        <time>2023-03-05T08:35:57.000Z</time>
      </trkpt>
      <trkpt lat="51.120740" lon="5.812251">
        <ele>29.951351</ele>
        <time>2023-03-05T08:35:58.000Z</time>
      </trkpt>
      <trkpt lat="51.120785" lon="5.812327">
        <ele>29.934410</ele>
        <time>2023-03-05T08:35:59.000Z</time>
      </trkpt>
      <trkpt lat="51.120831" lon="5.812405">
        <ele>29.917056</ele>
        <time>2023-03-05T08:36:00.000Z</time>
      </trkpt>
      <trkpt lat="51.120877" lon="5.812482">
        <ele>29.899820</ele>
        <time>2023-03-05T08:36:01.000Z</time>
      </trkpt>
      <trkpt lat="51.120926" lon="5.812558">
        <ele>29.882155</ele>
        <time>2023-03-05T08:36:02.000Z</time>
      </trkpt>
      <trkpt lat="51.120973" lon="5.812632">
        <ele>29.865085</ele>
        <time>2023-03-05T08:36:03.000Z</time>
      </trkpt>
      <trkpt lat="51.121019" lon="5.812706">
        <ele>29.848198</ele>
        <time>2023-03-05T08:36:04.000Z</time>
      </trkpt>
      <trkpt lat="51.121065" lon="5.812782">
        <ele>29.831079</ele>
        <time>2023-03-05T08:36:05.000Z</time>
      </trkpt>
      <trkpt lat="51.121113" lon="5.812856">
        <ele>29.850807</ele>
        <time>2023-03-05T08:36:06.000Z</time>
      </trkpt>
      <trkpt lat="51.121163" lon="5.812929">
        <ele>29.873226</ele>
        <time>2023-03-05T08:36:07.000Z</time>
      </trkpt>
      <trkpt lat="51.121210" lon="5.813001">
        <ele>29.894781</ele>
        <time>2023-03-05T08:36:08.000Z</time>
      </trkpt>
      <trkpt lat="51.121258" lon="5.813072">
        <ele>29.916432</ele>
        <time>2023-03-05T08:36:09.000Z</time>
      </trkpt>
      <trkpt lat="51.121308" lon="5.813141">
        <ele>29.938299</ele>
        <time>2023-03-05T08:36:10.000Z</time>
      </trkpt>
      <trkpt lat="51.121358" lon="5.813207">
        <ele>29.959764</ele>
        <time>2023-03-05T08:36:11.000Z</time>
      </trkpt>
      <trkpt lat="51.121407" lon="5.813274">
        <ele>29.981110</ele>
        <time>2023-03-05T08:36:12.000Z</time>
      </trkpt>
      <trkpt lat="51.121457" lon="5.813342">
        <ele>30.002842</ele>
        <time>2023-03-05T08:36:13.000Z</time>
      </trkpt>
      <trkpt lat="51.121508" lon="5.813408">
        <ele>30.024562</ele>
        <time>2023-03-05T08:36:14.000Z</time>
      </trkpt>
      <trkpt lat="51.121560" lon="5.813474">
        <ele>30.046539</ele>
        <time>2023-03-05T08:36:15.000Z</time>
      </trkpt>
      <trkpt lat="51.121612" lon="5.813540">
        <ele>30.068517</ele>
        <time>2023-03-05T08:36:16.000Z</time>
      </trkpt>
      <trkpt lat="51.121663" lon="5.813606">
        <ele>30.090237</ele>
        <time>2023-03-05T08:36:17.000Z</time>
      </trkpt>
      <trkpt lat="51.121711" lon="5.813673">
        <ele>30.111333</ele>
        <time>2023-03-05T08:36:18.000Z</time>
      </trkpt>
      <trkpt lat="51.121761" lon="5.813742">
        <ele>30.133200</ele>
        <time>2023-03-05T08:36:19.000Z</time>
      </trkpt>
      <trkpt lat="51.121811" lon="5.813811">
        <ele>30.155067</ele>
        <time>2023-03-05T08:36:20.000Z</time>
      </trkpt>
      <trkpt lat="51.121863" lon="5.813880">
        <ele>30.177438</ele>
        <time>2023-03-05T08:36:21.000Z</time>
      </trkpt>
      <trkpt lat="51.121912" lon="5.813949">
        <ele>30.199056</ele>
        <time>2023-03-05T08:36:22.000Z</time>
      </trkpt>
      <trkpt lat="51.121960" lon="5.814018">
        <ele>30.220428</ele>
        <time>2023-03-05T08:36:23.000Z</time>
      </trkpt>
      <trkpt lat="51.122009" lon="5.814085">
        <ele>30.241773</ele>
        <time>2023-03-05T08:36:24.000Z</time>
      </trkpt>
      <trkpt lat="51.122061" lon="5.814150">
        <ele>30.263622</ele>
        <time>2023-03-05T08:36:25.000Z</time>
      </trkpt>
      <trkpt lat="51.122111" lon="5.814217">
        <ele>30.285220</ele>
        <time>2023-03-05T08:36:26.000Z</time>
      </trkpt>
      <trkpt lat="51.122162" lon="5.814286">
        <ele>30.307338</ele>
        <time>2023-03-05T08:36:27.000Z</time>
      </trkpt>
      <trkpt lat="51.122214" lon="5.814352">
        <ele>30.329315</ele>
        <time>2023-03-05T08:36:28.000Z</time>
      </trkpt>
      <trkpt lat="51.122265" lon="5.814417">
        <ele>30.350905</ele>
        <time>2023-03-05T08:36:29.000Z</time>
      </trkpt>
      <trkpt lat="51.122315" lon="5.814479">
        <ele>30.371850</ele>
        <time>2023-03-05T08:36:30.000Z</time>
      </trkpt>
      <trkpt lat="51.122364" lon="5.814542">
        <ele>30.392664</ele>
        <time>2023-03-05T08:36:31.000Z</time>
      </trkpt>
      <trkpt lat="51.122414" lon="5.814607">
        <ele>30.413997</ele>
        <time>2023-03-05T08:36:32.000Z</time>
      </trkpt>
      <trkpt lat="51.122464" lon="5.814672">
        <ele>30.407507</ele>
        <time>2023-03-05T08:36:33.000Z</time>
      </trkpt>
      <trkpt lat="51.122513" lon="5.814740">
        <ele>30.373142</ele>
        <time>2023-03-05T08:36:34.000Z</time>
      </trkpt>
      <trkpt lat="51.122563" lon="5.814808">
        <ele>30.338376</ele>
        <time>2023-03-05T08:36:35.000Z</time>
      </trkpt>
      <trkpt lat="51.122613" lon="5.814872">
        <ele>30.304456</ele>
        <time>2023-03-05T08:36:36.000Z</time>
      </trkpt>
      <trkpt lat="51.122659" lon="5.814933">
        <ele>30.272805</ele>
        <time>2023-03-05T08:36:37.000Z</time>
      </trkpt>
      <trkpt lat="51.122708" lon="5.814997">
        <ele>30.239297</ele>
        <time>2023-03-05T08:36:38.000Z</time>
      </trkpt>
      <trkpt lat="51.122755" lon="5.815060">
        <ele>30.206814</ele>
        <time>2023-03-05T08:36:39.000Z</time>
      </trkpt>
      <trkpt lat="51.122803" lon="5.815122">
        <ele>30.174135</ele>
        <time>2023-03-05T08:36:40.000Z</time>
      </trkpt>
      <trkpt lat="51.122853" lon="5.815188">
        <ele>30.139796</ele>
        <time>2023-03-05T08:36:41.000Z</time>
      </trkpt>
      <trkpt lat="51.122900" lon="5.815255">
        <ele>30.106443</ele>
        <time>2023-03-05T08:36:42.000Z</time>
      </trkpt>
      <trkpt lat="51.122946" lon="5.815324">
        <ele>30.073031</ele>
        <time>2023-03-05T08:36:43.000Z</time>
      </trkpt>
      <trkpt lat="51.122989" lon="5.815392">
        <ele>30.040990</ele>
        <time>2023-03-05T08:36:44.000Z</time>
      </trkpt>
      <trkpt lat="51.123033" lon="5.815461">
        <ele>30.008340</ele>
        <time>2023-03-05T08:36:45.000Z</time>
      </trkpt>
      <trkpt lat="51.123079" lon="5.815531">
        <ele>29.974699</ele>
        <time>2023-03-05T08:36:46.000Z</time>
      </trkpt>
      <trkpt lat="51.123123" lon="5.815600">
        <ele>29.942049</ele>
        <time>2023-03-05T08:36:47.000Z</time>
      </trkpt>
      <trkpt lat="51.123167" lon="5.815666">
        <ele>29.910089</ele>
        <time>2023-03-05T08:36:48.000Z</time>
      </trkpt>
      <trkpt lat="51.123212" lon="5.815733">
        <ele>29.877517</ele>
        <time>2023-03-05T08:36:49.000Z</time>
      </trkpt>
      <trkpt lat="51.123258" lon="5.815797">
        <ele>29.845220</ele>
        <time>2023-03-05T08:36:50.000Z</time>
      </trkpt>
      <trkpt lat="51.123306" lon="5.815859">
        <ele>29.812541</ele>
        <time>2023-03-05T08:36:51.000Z</time>
      </trkpt>
      <trkpt lat="51.123356" lon="5.815923">
        <ele>29.778622</ele>
        <time>2023-03-05T08:36:52.000Z</time>
      </trkpt>
      <trkpt lat="51.123405" lon="5.815986">
        <ele>29.745323</ele>
        <time>2023-03-05T08:36:53.000Z</time>
      </trkpt>
      <trkpt lat="51.123452" lon="5.816046">
        <ele>29.713473</ele>
        <time>2023-03-05T08:36:54.000Z</time>
      </trkpt>
      <trkpt lat="51.123500" lon="5.816109">
        <ele>29.680584</ele>
        <time>2023-03-05T08:36:55.000Z</time>
      </trkpt>
      <trkpt lat="51.123547" lon="5.816171">
        <ele>29.648314</ele>
        <time>2023-03-05T08:36:56.000Z</time>
      </trkpt>
      <trkpt lat="51.123594" lon="5.816235">
        <ele>29.615616</ele>
        <time>2023-03-05T08:36:57.000Z</time>
      </trkpt>
      <trkpt lat="51.123640" lon="5.816298">
        <ele>29.583537</ele>
        <time>2023-03-05T08:36:58.000Z</time>
      </trkpt>
      <trkpt lat="51.123686" lon="5.816357">
        <ele>29.552306</ele>
        <time>2023-03-05T08:36:59.000Z</time>
      </trkpt>
      <trkpt lat="51.123736" lon="5.816407">
        <ele>29.521087</ele>
        <time>2023-03-05T08:37:00.000Z</time>
      </trkpt>
      <trkpt lat="51.123787" lon="5.816448">
        <ele>29.490877</ele>
        <time>2023-03-05T08:37:01.000Z</time>
      </trkpt>
      <trkpt lat="51.123834" lon="5.816479">
        <ele>29.468014</ele>
        <time>2023-03-05T08:37:02.000Z</time>
      </trkpt>
      <trkpt lat="51.123877" lon="5.816503">
        <ele>29.454228</ele>
        <time>2023-03-05T08:37:03.000Z</time>
      </trkpt>
      <trkpt lat="51.123917" lon="5.816520">
        <ele>29.441702</ele>
        <time>2023-03-05T08:37:04.000Z</time>
      </trkpt>
      <trkpt lat="51.123953" lon="5.816526">
        <ele>29.430750</ele>
        <time>2023-03-05T08:37:05.000Z</time>
      </trkpt>
      <trkpt lat="51.123990" lon="5.816511">
        <ele>29.419198</ele>
        <time>2023-03-05T08:37:06.000Z</time>
      </trkpt>
      <trkpt lat="51.124025" lon="5.816473">
        <ele>29.406383</ele>
        <time>2023-03-05T08:37:07.000Z</time>
      </trkpt>
      <trkpt lat="51.124060" lon="5.816419">
        <ele>29.391641</ele>
        <time>2023-03-05T08:37:08.000Z</time>
      </trkpt>
      <trkpt lat="51.124092" lon="5.816357">
        <ele>29.376397</ele>
        <time>2023-03-05T08:37:09.000Z</time>
      </trkpt>
      <trkpt lat="51.124122" lon="5.816289">
        <ele>29.360613</ele>
        <time>2023-03-05T08:37:10.000Z</time>
      </trkpt>
      <trkpt lat="51.124155" lon="5.816217">
        <ele>29.343682</ele>
        <time>2023-03-05T08:37:11.000Z</time>
      </trkpt>
      <trkpt lat="51.124187" lon="5.816139">
        <ele>29.325986</ele>
        <time>2023-03-05T08:37:12.000Z</time>
      </trkpt>
      <trkpt lat="51.124220" lon="5.816060">
        <ele>29.307964</ele>
        <time>2023-03-05T08:37:13.000Z</time>
      </trkpt>
      <trkpt lat="51.124252" lon="5.815983">
        <ele>29.290427</ele>
        <time>2023-03-05T08:37:14.000Z</time>
      </trkpt>
      <trkpt lat="51.124285" lon="5.815908">
        <ele>29.273032</ele>
        <time>2023-03-05T08:37:15.000Z</time>
      </trkpt>
      <trkpt lat="51.124319" lon="5.815835">
        <ele>29.255769</ele>
        <time>2023-03-05T08:37:16.000Z</time>
      </trkpt>
      <trkpt lat="51.124351" lon="5.815759">
        <ele>29.238390</ele>
        <time>2023-03-05T08:37:17.000Z</time>
      </trkpt>
      <trkpt lat="51.124384" lon="5.815681">
        <ele>29.220526</ele>
        <time>2023-03-05T08:37:18.000Z</time>
      </trkpt>
      <trkpt lat="51.124418" lon="5.815608">
        <ele>29.203263</ele>
        <time>2023-03-05T08:37:19.000Z</time>
      </trkpt>
      <trkpt lat="51.124452" lon="5.815537">
        <ele>29.186304</ele>
        <time>2023-03-05T08:37:20.000Z</time>
      </trkpt>
      <trkpt lat="51.124486" lon="5.815466">
        <ele>29.169344</ele>
        <time>2023-03-05T08:37:21.000Z</time>
      </trkpt>
      <trkpt lat="51.124523" lon="5.815395">
        <ele>29.151819</ele>
        <time>2023-03-05T08:37:22.000Z</time>
      </trkpt>
      <trkpt lat="51.124564" lon="5.815326">
        <ele>29.133775</ele>
        <time>2023-03-05T08:37:23.000Z</time>
      </trkpt>
      <trkpt lat="51.124606" lon="5.815261">
        <ele>29.116059</ele>
        <time>2023-03-05T08:37:24.000Z</time>
      </trkpt>
      <trkpt lat="51.124646" lon="5.815199">
        <ele>29.099174</ele>
        <time>2023-03-05T08:37:25.000Z</time>
      </trkpt>
      <trkpt lat="51.124686" lon="5.815137">
        <ele>29.082288</ele>
        <time>2023-03-05T08:37:26.000Z</time>
      </trkpt>
      <trkpt lat="51.124728" lon="5.815071">
        <ele>29.064440</ele>
        <time>2023-03-05T08:37:27.000Z</time>
      </trkpt>
      <trkpt lat="51.124770" lon="5.815002">
        <ele>29.046186</ele>
        <time>2023-03-05T08:37:28.000Z</time>
      </trkpt>
      <trkpt lat="51.124812" lon="5.814932">
        <ele>29.027796</ele>
        <time>2023-03-05T08:37:29.000Z</time>
      </trkpt>
      <trkpt lat="51.124852" lon="5.814860">
        <ele>29.009536</ele>
        <time>2023-03-05T08:37:30.000Z</time>
      </trkpt>
      <trkpt lat="51.124887" lon="5.814786">
        <ele>28.991940</ele>
        <time>2023-03-05T08:37:31.000Z</time>
      </trkpt>
      <trkpt lat="51.124924" lon="5.814712">
        <ele>28.973973</ele>
        <time>2023-03-05T08:37:32.000Z</time>
      </trkpt>
      <trkpt lat="51.124960" lon="5.814638">
        <ele>28.956193</ele>
        <time>2023-03-05T08:37:33.000Z</time>
      </trkpt>
      <trkpt lat="51.124996" lon="5.814563">
        <ele>28.938262</ele>
        <time>2023-03-05T08:37:34.000Z</time>
      </trkpt>
      <trkpt lat="51.125032" lon="5.814485">
        <ele>28.946558</ele>
        <time>2023-03-05T08:37:35.000Z</time>
      </trkpt>
      <trkpt lat="51.125069" lon="5.814407">
        <ele>28.981154</ele>
        <time>2023-03-05T08:37:36.000Z</time>
      </trkpt>
      <trkpt lat="51.125105" lon="5.814328">
        <ele>29.015699</ele>
        <time>2023-03-05T08:37:37.000Z</time>
      </trkpt>
      <trkpt lat="51.125141" lon="5.814249">
        <ele>29.050244</ele>
        <time>2023-03-05T08:37:38.000Z</time>
      </trkpt>
      <trkpt lat="51.125177" lon="5.814170">
        <ele>29.084789</ele>
        <time>2023-03-05T08:37:39.000Z</time>
      </trkpt>
      <trkpt lat="51.125212" lon="5.814091">
        <ele>29.119005</ele>
        <time>2023-03-05T08:37:40.000Z</time>
      </trkpt>
      <trkpt lat="51.125244" lon="5.814011">
        <ele>29.152573</ele>
        <time>2023-03-05T08:37:41.000Z</time>
      </trkpt>
      <trkpt lat="51.125276" lon="5.813932">
        <ele>29.185843</ele>
        <time>2023-03-05T08:37:42.000Z</time>
      </trkpt>
      <trkpt lat="51.125311" lon="5.813854">
        <ele>29.219771</ele>
        <time>2023-03-05T08:37:43.000Z</time>
      </trkpt>
      <trkpt lat="51.125345" lon="5.813772">
        <ele>29.254546</ele>
        <time>2023-03-05T08:37:44.000Z</time>
      </trkpt>
      <trkpt lat="51.125377" lon="5.813690">
        <ele>29.288713</ele>
        <time>2023-03-05T08:37:45.000Z</time>
      </trkpt>
      <trkpt lat="51.125408" lon="5.813606">
        <ele>29.323194</ele>
        <time>2023-03-05T08:37:46.000Z</time>
      </trkpt>
      <trkpt lat="51.125438" lon="5.813521">
        <ele>29.357700</ele>
        <time>2023-03-05T08:37:47.000Z</time>
      </trkpt>
      <trkpt lat="51.125466" lon="5.813433">
        <ele>29.392611</ele>
        <time>2023-03-05T08:37:48.000Z</time>
      </trkpt>
      <trkpt lat="51.125491" lon="5.813345">
        <ele>29.426790</ele>
        <time>2023-03-05T08:37:49.000Z</time>
      </trkpt>
      <trkpt lat="51.125516" lon="5.813257">
        <ele>29.460970</ele>
        <time>2023-03-05T08:37:50.000Z</time>
      </trkpt>
      <trkpt lat="51.125540" lon="5.813170">
        <ele>29.494596</ele>
        <time>2023-03-05T08:37:51.000Z</time>
      </trkpt>
      <trkpt lat="51.125563" lon="5.813084">
        <ele>29.527674</ele>
        <time>2023-03-05T08:37:52.000Z</time>
      </trkpt>
      <trkpt lat="51.125588" lon="5.812999">
        <ele>29.560889</ele>
        <time>2023-03-05T08:37:53.000Z</time>
      </trkpt>
      <trkpt lat="51.125617" lon="5.812915">
        <ele>29.594812</ele>
        <time>2023-03-05T08:37:54.000Z</time>
      </trkpt>
      <trkpt lat="51.125648" lon="5.812834">
        <ele>29.628382</ele>
        <time>2023-03-05T08:37:55.000Z</time>
      </trkpt>
      <trkpt lat="51.125676" lon="5.812755">
        <ele>29.660485</ele>
        <time>2023-03-05T08:37:56.000Z</time>
      </trkpt>
      <trkpt lat="51.125707" lon="5.812676">
        <ele>29.693452</ele>
        <time>2023-03-05T08:37:57.000Z</time>
      </trkpt>
      <trkpt lat="51.125740" lon="5.812597">
        <ele>29.727031</ele>
        <time>2023-03-05T08:37:58.000Z</time>
      </trkpt>
      <trkpt lat="51.125772" lon="5.812522">
        <ele>29.759120</ele>
        <time>2023-03-05T08:37:59.000Z</time>
      </trkpt>
      <trkpt lat="51.125811" lon="5.812456">
        <ele>29.791196</ele>
        <time>2023-03-05T08:38:00.000Z</time>
      </trkpt>
      <trkpt lat="51.125858" lon="5.812400">
        <ele>29.824283</ele>
        <time>2023-03-05T08:38:01.000Z</time>
      </trkpt>
      <trkpt lat="51.125914" lon="5.812361">
        <ele>29.858739</ele>
        <time>2023-03-05T08:38:02.000Z</time>
      </trkpt>
      <trkpt lat="51.125972" lon="5.812340">
        <ele>29.892273</ele>
        <time>2023-03-05T08:38:03.000Z</time>
      </trkpt>
      <trkpt lat="51.126035" lon="5.812335">
        <ele>29.927835</ele>
        <time>2023-03-05T08:38:04.000Z</time>
      </trkpt>
      <trkpt lat="51.126098" lon="5.812339">
        <ele>29.935581</ele>
        <time>2023-03-05T08:38:05.000Z</time>
      </trkpt>
      <trkpt lat="51.126159" lon="5.812349">
        <ele>29.922423</ele>
        <time>2023-03-05T08:38:06.000Z</time>
      </trkpt>
      <trkpt lat="51.126220" lon="5.812358">
        <ele>29.909279</ele>
        <time>2023-03-05T08:38:07.000Z</time>
      </trkpt>
      <trkpt lat="51.126283" lon="5.812368">
        <ele>29.895695</ele>
        <time>2023-03-05T08:38:08.000Z</time>
      </trkpt>
      <trkpt lat="51.126346" lon="5.812380">
        <ele>29.882081</ele>
        <time>2023-03-05T08:38:09.000Z</time>
      </trkpt>
      <trkpt lat="51.126409" lon="5.812396">
        <ele>29.868393</ele>
        <time>2023-03-05T08:38:10.000Z</time>
      </trkpt>
      <trkpt lat="51.126471" lon="5.812417">
        <ele>29.854793</ele>
        <time>2023-03-05T08:38:11.000Z</time>
      </trkpt>
      <trkpt lat="51.126534" lon="5.812444">
        <ele>29.840795</ele>
        <time>2023-03-05T08:38:12.000Z</time>
      </trkpt>
      <trkpt lat="51.126597" lon="5.812472">
        <ele>29.826762</ele>
        <time>2023-03-05T08:38:13.000Z</time>
      </trkpt>
      <trkpt lat="51.126661" lon="5.812503">
        <ele>29.812409</ele>
        <time>2023-03-05T08:38:14.000Z</time>
      </trkpt>
      <trkpt lat="51.126725" lon="5.812534">
        <ele>29.798057</ele>
        <time>2023-03-05T08:38:15.000Z</time>
      </trkpt>
      <trkpt lat="51.126792" lon="5.812564">
        <ele>29.783125</ele>
        <time>2023-03-05T08:38:16.000Z</time>
      </trkpt>
      <trkpt lat="51.126861" lon="5.812589">
        <ele>29.767942</ele>
        <time>2023-03-05T08:38:17.000Z</time>
      </trkpt>
      <trkpt lat="51.126930" lon="5.812612">
        <ele>29.752817</ele>
        <time>2023-03-05T08:38:18.000Z</time>
      </trkpt>
      <trkpt lat="51.126997" lon="5.812632">
        <ele>29.738191</ele>
        <time>2023-03-05T08:38:19.000Z</time>
      </trkpt>
      <trkpt lat="51.127065" lon="5.812653">
        <ele>29.723329</ele>
        <time>2023-03-05T08:38:20.000Z</time>
      </trkpt>
      <trkpt lat="51.127133" lon="5.812676">
        <ele>29.708414</ele>
        <time>2023-03-05T08:38:21.000Z</time>
      </trkpt>
      <trkpt lat="51.127200" lon="5.812700">
        <ele>29.693679</ele>
        <time>2023-03-05T08:38:22.000Z</time>
      </trkpt>
      <trkpt lat="51.127267" lon="5.812723">
        <ele>29.678974</ele>
        <time>2023-03-05T08:38:23.000Z</time>
      </trkpt>
      <trkpt lat="51.127333" lon="5.812744">
        <ele>29.664533</ele>
        <time>2023-03-05T08:38:24.000Z</time>
      </trkpt>
      <trkpt lat="51.127400" lon="5.812766">
        <ele>29.649856</ele>
        <time>2023-03-05T08:38:25.000Z</time>
      </trkpt>
      <trkpt lat="51.127464" lon="5.812788">
        <ele>29.635808</ele>
        <time>2023-03-05T08:38:26.000Z</time>
      </trkpt>
      <trkpt lat="51.127529" lon="5.812809">
        <ele>29.621578</ele>
        <time>2023-03-05T08:38:27.000Z</time>
      </trkpt>
      <trkpt lat="51.127595" lon="5.812833">
        <ele>29.607052</ele>
        <time>2023-03-05T08:38:28.000Z</time>
      </trkpt>
      <trkpt lat="51.127659" lon="5.812856">
        <ele>29.592975</ele>
        <time>2023-03-05T08:38:29.000Z</time>
      </trkpt>
      <trkpt lat="51.127723" lon="5.812878">
        <ele>29.578928</ele>
        <time>2023-03-05T08:38:30.000Z</time>
      </trkpt>
      <trkpt lat="51.127788" lon="5.812898">
        <ele>29.564723</ele>
        <time>2023-03-05T08:38:31.000Z</time>
      </trkpt>
      <trkpt lat="51.127854" lon="5.812918">
        <ele>29.571094</ele>
        <time>2023-03-05T08:38:32.000Z</time>
      </trkpt>
      <trkpt lat="51.127922" lon="5.812936">
        <ele>29.600122</ele>
        <time>2023-03-05T08:38:33.000Z</time>
      </trkpt>
      <trkpt lat="51.127988" lon="5.812954">
        <ele>29.628318</ele>
        <time>2023-03-05T08:38:34.000Z</time>
      </trkpt>
      <trkpt lat="51.128052" lon="5.812973">
        <ele>29.655733</ele>
        <time>2023-03-05T08:38:35.000Z</time>
      </trkpt>
      <trkpt lat="51.128120" lon="5.812991">
        <ele>29.684760</ele>
        <time>2023-03-05T08:38:36.000Z</time>
      </trkpt>
      <trkpt lat="51.128187" lon="5.813010">
        <ele>29.713417</ele>
        <time>2023-03-05T08:38:37.000Z</time>
      </trkpt>
      <trkpt lat="51.128251" lon="5.813030">
        <ele>29.740881</ele>
        <time>2023-03-05T08:38:38.000Z</time>
      </trkpt>
      <trkpt lat="51.128318" lon="5.813050">
        <ele>29.769586</ele>
        <time>2023-03-05T08:38:39.000Z</time>
      </trkpt>
      <trkpt lat="51.128384" lon="5.813069">
        <ele>29.797828</ele>
        <time>2023-03-05T08:38:40.000Z</time>
      </trkpt>
      <trkpt lat="51.128449" lon="5.813086">
        <ele>29.825566</ele>
        <time>2023-03-05T08:38:41.000Z</time>
      </trkpt>
      <trkpt lat="51.128515" lon="5.813100">
        <ele>29.853604</ele>
        <time>2023-03-05T08:38:42.000Z</time>
      </trkpt>
      <trkpt lat="51.128583" lon="5.813116">
        <ele>29.882549</ele>
        <time>2023-03-05T08:38:43.000Z</time>
      </trkpt>
      <trkpt lat="51.128648" lon="5.813130">
        <ele>29.910170</ele>
        <time>2023-03-05T08:38:44.000Z</time>
      </trkpt>
      <trkpt lat="51.128712" lon="5.813142">
        <ele>29.937306</ele>
        <time>2023-03-05T08:38:45.000Z</time>
      </trkpt>
      <trkpt lat="51.128778" lon="5.813153">
        <ele>29.965251</ele>
        <time>2023-03-05T08:38:46.000Z</time>
      </trkpt>
      <trkpt lat="51.128840" lon="5.813166">
        <ele>29.991584</ele>
        <time>2023-03-05T08:38:47.000Z</time>
      </trkpt>
      <trkpt lat="51.128901" lon="5.813180">
        <ele>30.017536</ele>
        <time>2023-03-05T08:38:48.000Z</time>
      </trkpt>
      <trkpt lat="51.128964" lon="5.813194">
        <ele>30.044322</ele>
        <time>2023-03-05T08:38:49.000Z</time>
      </trkpt>
      <trkpt lat="51.129026" lon="5.813208">
        <ele>30.070691</ele>
        <time>2023-03-05T08:38:50.000Z</time>
      </trkpt>
      <trkpt lat="51.129089" lon="5.813224">
        <ele>30.097556</ele>
        <time>2023-03-05T08:38:51.000Z</time>
      </trkpt>
      <trkpt lat="51.129153" lon="5.813241">
        <ele>30.124878</ele>
        <time>2023-03-05T08:38:52.000Z</time>
      </trkpt>
      <trkpt lat="51.129216" lon="5.813257">
        <ele>30.151742</ele>
        <time>2023-03-05T08:38:53.000Z</time>
      </trkpt>
      <trkpt lat="51.129281" lon="5.813276">
        <ele>30.179571</ele>
        <time>2023-03-05T08:38:54.000Z</time>
      </trkpt>
      <trkpt lat="51.129342" lon="5.813298">
        <ele>30.205907</ele>
        <time>2023-03-05T08:38:55.000Z</time>
      </trkpt>
      <trkpt lat="51.129406" lon="5.813320">
        <ele>30.233478</ele>
        <time>2023-03-05T08:38:56.000Z</time>
      </trkpt>
      <trkpt lat="51.129470" lon="5.813342">
        <ele>30.261048</ele>
        <time>2023-03-05T08:38:57.000Z</time>
      </trkpt>
      <trkpt lat="51.129532" lon="5.813367">
        <ele>30.287980</ele>
        <time>2023-03-05T08:38:58.000Z</time>
      </trkpt>
      <trkpt lat="51.129597" lon="5.813390">
        <ele>30.314167</ele>
        <time>2023-03-05T08:38:59.000Z</time>
      </trkpt>
      <trkpt lat="51.129662" lon="5.813414">
        <ele>30.301716</ele>
        <time>2023-03-05T08:39:00.000Z</time>
      </trkpt>
      <trkpt lat="51.129726" lon="5.813437">
        <ele>30.289473</ele>
        <time>2023-03-05T08:39:01.000Z</time>
      </trkpt>
      <trkpt lat="51.129791" lon="5.813459">
        <ele>30.277072</ele>
        <time>2023-03-05T08:39:02.000Z</time>
      </trkpt>
      <trkpt lat="51.129853" lon="5.813481">
        <ele>30.265218</ele>
        <time>2023-03-05T08:39:03.000Z</time>
      </trkpt>
      <trkpt lat="51.129915" lon="5.813501">
        <ele>30.253414</ele>
        <time>2023-03-05T08:39:04.000Z</time>
      </trkpt>
      <trkpt lat="51.129977" lon="5.813519">
        <ele>30.241653</ele>
        <time>2023-03-05T08:39:05.000Z</time>
      </trkpt>
      <trkpt lat="51.130035" lon="5.813538">
        <ele>30.230603</ele>
        <time>2023-03-05T08:39:06.000Z</time>
      </trkpt>
      <trkpt lat="51.130095" lon="5.813557">
        <ele>30.219187</ele>
        <time>2023-03-05T08:39:07.000Z</time>
      </trkpt>
      <trkpt lat="51.130156" lon="5.813576">
        <ele>30.207588</ele>
        <time>2023-03-05T08:39:08.000Z</time>
      </trkpt>
      <trkpt lat="51.130217" lon="5.813593">
        <ele>30.196032</ele>
        <time>2023-03-05T08:39:09.000Z</time>
      </trkpt>
      <trkpt lat="51.130277" lon="5.813611">
        <ele>30.184638</ele>
        <time>2023-03-05T08:39:10.000Z</time>
      </trkpt>
      <trkpt lat="51.130340" lon="5.813630">
        <ele>30.172673</ele>
        <time>2023-03-05T08:39:11.000Z</time>
      </trkpt>
      <trkpt lat="51.130403" lon="5.813651">
        <ele>30.160662</ele>
        <time>2023-03-05T08:39:12.000Z</time>
      </trkpt>
      <trkpt lat="51.130465" lon="5.813674">
        <ele>30.148782</ele>
        <time>2023-03-05T08:39:13.000Z</time>
      </trkpt>
      <trkpt lat="51.130527" lon="5.813696">
        <ele>30.136929</ele>
        <time>2023-03-05T08:39:14.000Z</time>
      </trkpt>
      <trkpt lat="51.130592" lon="5.813718">
        <ele>30.124528</ele>
        <time>2023-03-05T08:39:15.000Z</time>
      </trkpt>
      <trkpt lat="51.130658" lon="5.813741">
        <ele>30.111920</ele>
        <time>2023-03-05T08:39:16.000Z</time>
      </trkpt>
      <trkpt lat="51.130722" lon="5.813765">
        <ele>30.099651</ele>
        <time>2023-03-05T08:39:17.000Z</time>
      </trkpt>
      <trkpt lat="51.130787" lon="5.813790">
        <ele>30.087172</ele>
        <time>2023-03-05T08:39:18.000Z</time>
      </trkpt>
      <trkpt lat="51.130847" lon="5.813818">
        <ele>30.075505</ele>
        <time>2023-03-05T08:39:19.000Z</time>
      </trkpt>
      <trkpt lat="51.130909" lon="5.813854">
        <ele>30.063191</ele>
        <time>2023-03-05T08:39:20.000Z</time>
      </trkpt>
      <trkpt lat="51.130969" lon="5.813893">
        <ele>30.051098</ele>
        <time>2023-03-05T08:39:21.000Z</time>
      </trkpt>
      <trkpt lat="51.131024" lon="5.813939">
        <ele>30.039507</ele>
        <time>2023-03-05T08:39:22.000Z</time>
      </trkpt>
      <trkpt lat="51.131080" lon="5.813992">
        <ele>30.027352</ele>
        <time>2023-03-05T08:39:23.000Z</time>
      </trkpt>
      <trkpt lat="51.131132" lon="5.814051">
        <ele>30.015440</ele>
        <time>2023-03-05T08:39:24.000Z</time>
      </trkpt>
      <trkpt lat="51.131187" lon="5.814113">
        <ele>30.002867</ele>
        <time>2023-03-05T08:39:25.000Z</time>
      </trkpt>
      <trkpt lat="51.131244" lon="5.814175">
        <ele>29.989988</ele>
        <time>2023-03-05T08:39:26.000Z</time>
      </trkpt>
      <trkpt lat="51.131299" lon="5.814235">
        <ele>29.977582</ele>
        <time>2023-03-05T08:39:27.000Z</time>
      </trkpt>
      <trkpt lat="51.131353" lon="5.814294">
        <ele>29.965616</ele>
        <time>2023-03-05T08:39:28.000Z</time>
      </trkpt>
      <trkpt lat="51.131408" lon="5.814351">
        <ele>29.953625</ele>
        <time>2023-03-05T08:39:29.000Z</time>
      </trkpt>
      <trkpt lat="51.131463" lon="5.814410">
        <ele>29.941508</ele>
        <time>2023-03-05T08:39:30.000Z</time>
      </trkpt>
      <trkpt lat="51.131521" lon="5.814466">
        <ele>29.929114</ele>
        <time>2023-03-05T08:39:31.000Z</time>
      </trkpt>
      <trkpt lat="51.131579" lon="5.814524">
        <ele>29.916600</ele>
        <time>2023-03-05T08:39:32.000Z</time>
      </trkpt>
      <trkpt lat="51.131637" lon="5.814584">
        <ele>29.903962</ele>
        <time>2023-03-05T08:39:33.000Z</time>
      </trkpt>
      <trkpt lat="51.131694" lon="5.814643">
        <ele>29.891540</ele>
        <time>2023-03-05T08:39:34.000Z</time>
      </trkpt>
      <trkpt lat="51.131752" lon="5.814703">
        <ele>29.878902</ele>
        <time>2023-03-05T08:39:35.000Z</time>
      </trkpt>
      <trkpt lat="51.131806" lon="5.814764">
        <ele>29.866805</ele>
        <time>2023-03-05T08:39:36.000Z</time>
      </trkpt>
      <trkpt lat="51.131862" lon="5.814825">
        <ele>29.854408</ele>
        <time>2023-03-05T08:39:37.000Z</time>
      </trkpt>
      <trkpt lat="51.131919" lon="5.814889">
        <ele>29.841664</ele>
        <time>2023-03-05T08:39:38.000Z</time>
      </trkpt>
      <trkpt lat="51.131976" lon="5.814952">
        <ele>29.828987</ele>
        <time>2023-03-05T08:39:39.000Z</time>
      </trkpt>
      <trkpt lat="51.132032" lon="5.815016">
        <ele>29.816392</ele>
        <time>2023-03-05T08:39:40.000Z</time>
      </trkpt>
      <trkpt lat="51.132085" lon="5.815079">
        <ele>29.804308</ele>
        <time>2023-03-05T08:39:41.000Z</time>
      </trkpt>
      <trkpt lat="51.132141" lon="5.815143">
        <ele>29.791713</ele>
        <time>2023-03-05T08:39:42.000Z</time>
      </trkpt>
      <trkpt lat="51.132193" lon="5.815211">
        <ele>29.779420</ele>
        <time>2023-03-05T08:39:43.000Z</time>
      </trkpt>
      <trkpt lat="51.132245" lon="5.815280">
        <ele>29.767053</ele>
        <time>2023-03-05T08:39:44.000Z</time>
      </trkpt>
      <trkpt lat="51.132298" lon="5.815348">
        <ele>29.754617</ele>
        <time>2023-03-05T08:39:45.000Z</time>
      </trkpt>
      <trkpt lat="51.132352" lon="5.815413">
        <ele>29.742249</ele>
        <time>2023-03-05T08:39:46.000Z</time>
      </trkpt>
      <trkpt lat="51.132407" lon="5.815472">
        <ele>29.730132</ele>
        <time>2023-03-05T08:39:47.000Z</time>
      </trkpt>
      <trkpt lat="51.132464" lon="5.815523">
        <ele>29.718185</ele>
        <time>2023-03-05T08:39:48.000Z</time>
      </trkpt>
      <trkpt lat="51.132526" lon="5.815566">
        <ele>29.705828</ele>
        <time>2023-03-05T08:39:49.000Z</time>
      </trkpt>
      <trkpt lat="51.132589" lon="5.815604">
        <ele>29.693517</ele>
        <time>2023-03-05T08:39:50.000Z</time>
      </trkpt>
      <trkpt lat="51.132650" lon="5.815639">
        <ele>29.681668</ele>
        <time>2023-03-05T08:39:51.000Z</time>
      </trkpt>
      <trkpt lat="51.132713" lon="5.815671">
        <ele>29.669583</ele>
        <time>2023-03-05T08:39:52.000Z</time>
      </trkpt>
      <trkpt lat="51.132776" lon="5.815702">
        <ele>29.657533</ele>
        <time>2023-03-05T08:39:53.000Z</time>
      </trkpt>
      <trkpt lat="51.132837" lon="5.815734">
        <ele>29.646617</ele>
        <time>2023-03-05T08:39:54.000Z</time>
      </trkpt>
      <trkpt lat="51.132900" lon="5.815767">
        <ele>29.636678</ele>
        <time>2023-03-05T08:39:55.000Z</time>
      </trkpt>
      <trkpt lat="51.132967" lon="5.815799">
        <ele>29.626195</ele>
        <time>2023-03-05T08:39:56.000Z</time>
      </trkpt>
      <trkpt lat="51.133034" lon="5.815830">
        <ele>29.615738</ele>
        <time>2023-03-05T08:39:57.000Z</time>
      </trkpt>
      <trkpt lat="51.133098" lon="5.815862">
        <ele>29.605685</ele>
        <time>2023-03-05T08:39:58.000Z</time>
      </trkpt>
      <trkpt lat="51.133163" lon="5.815895">
        <ele>29.595460</ele>
        <time>2023-03-05T08:39:59.000Z</time>
      </trkpt>
      <trkpt lat="51.133231" lon="5.815927">
        <ele>29.584834</ele>
        <time>2023-03-05T08:40:00.000Z</time>
      </trkpt>
      <trkpt lat="51.133297" lon="5.815961">
        <ele>29.574438</ele>
        <time>2023-03-05T08:40:01.000Z</time>
      </trkpt>
      <trkpt lat="51.133360" lon="5.815997">
        <ele>29.564407</ele>
        <time>2023-03-05T08:40:02.000Z</time>
      </trkpt>
      <trkpt lat="51.133426" lon="5.816033">
        <ele>29.553951</ele>
        <time>2023-03-05T08:40:03.000Z</time>
      </trkpt>
      <trkpt lat="51.133491" lon="5.816069">
        <ele>29.543637</ele>
        <time>2023-03-05T08:40:04.000Z</time>
      </trkpt>
      <trkpt lat="51.133554" lon="5.816106">
        <ele>29.533574</ele>
        <time>2023-03-05T08:40:05.000Z</time>
      </trkpt>
      <trkpt lat="51.133617" lon="5.816142">
        <ele>29.523543</ele>
        <time>2023-03-05T08:40:06.000Z</time>
      </trkpt>
      <trkpt lat="51.133680" lon="5.816177">
        <ele>29.513543</ele>
        <time>2023-03-05T08:40:07.000Z</time>
      </trkpt>
      <trkpt lat="51.133740" lon="5.816212">
        <ele>29.503967</ele>
        <time>2023-03-05T08:40:08.000Z</time>
      </trkpt>
      <trkpt lat="51.133800" lon="5.816243">
        <ele>29.494514</ele>
        <time>2023-03-05T08:40:09.000Z</time>
      </trkpt>
      <trkpt lat="51.133865" lon="5.816271">
        <ele>29.484422</ele>
        <time>2023-03-05T08:40:10.000Z</time>
      </trkpt>
      <trkpt lat="51.133933" lon="5.816292">
        <ele>29.474040</ele>
        <time>2023-03-05T08:40:11.000Z</time>
      </trkpt>
      <trkpt lat="51.133998" lon="5.816310">
        <ele>29.464152</ele>
        <time>2023-03-05T08:40:12.000Z</time>
      </trkpt>
      <trkpt lat="51.134064" lon="5.816329">
        <ele>29.454100</ele>
        <time>2023-03-05T08:40:13.000Z</time>
      </trkpt>
      <trkpt lat="51.134131" lon="5.816345">
        <ele>29.443946</ele>
        <time>2023-03-05T08:40:14.000Z</time>
      </trkpt>
      <trkpt lat="51.134197" lon="5.816355">
        <ele>29.434010</ele>
        <time>2023-03-05T08:40:15.000Z</time>
      </trkpt>
      <trkpt lat="51.134260" lon="5.816363">
        <ele>29.424537</ele>
        <time>2023-03-05T08:40:16.000Z</time>
      </trkpt>
      <trkpt lat="51.134323" lon="5.816373">
        <ele>29.415048</ele>
        <time>2023-03-05T08:40:17.000Z</time>
      </trkpt>
      <trkpt lat="51.134390" lon="5.816381">
        <ele>29.404978</ele>
        <time>2023-03-05T08:40:18.000Z</time>
      </trkpt>
      <trkpt lat="51.134456" lon="5.816392">
        <ele>29.395032</ele>
        <time>2023-03-05T08:40:19.000Z</time>
      </trkpt>
      <trkpt lat="51.134522" lon="5.816403">
        <ele>29.385086</ele>
        <time>2023-03-05T08:40:20.000Z</time>
      </trkpt>
      <trkpt lat="51.134587" lon="5.816412">
        <ele>29.380117</ele>
        <time>2023-03-05T08:40:21.000Z</time>
      </trkpt>
      <trkpt lat="51.134651" lon="5.816418">
        <ele>29.378946</ele>
        <time>2023-03-05T08:40:22.000Z</time>
      </trkpt>
      <trkpt lat="51.134716" lon="5.816425">
        <ele>29.377757</ele>
        <time>2023-03-05T08:40:23.000Z</time>
      </trkpt>
      <trkpt lat="51.134780" lon="5.816434">
        <ele>29.376583</ele>
        <time>2023-03-05T08:40:24.000Z</time>
      </trkpt>
      <trkpt lat="51.134844" lon="5.816445">
        <ele>29.375408</ele>
        <time>2023-03-05T08:40:25.000Z</time>
      </trkpt>
      <trkpt lat="51.134907" lon="5.816461">
        <ele>29.374243</ele>
        <time>2023-03-05T08:40:26.000Z</time>
      </trkpt>
      <trkpt lat="51.134970" lon="5.816475">
        <ele>29.373082</ele>
        <time>2023-03-05T08:40:27.000Z</time>
      </trkpt>
      <trkpt lat="51.135033" lon="5.816485">
        <ele>29.371926</ele>
        <time>2023-03-05T08:40:28.000Z</time>
      </trkpt>
      <trkpt lat="51.135092" lon="5.816495">
        <ele>29.370843</ele>
        <time>2023-03-05T08:40:29.000Z</time>
      </trkpt>
      <trkpt lat="51.135154" lon="5.816508">
        <ele>29.369701</ele>
        <time>2023-03-05T08:40:30.000Z</time>
      </trkpt>
      <trkpt lat="51.135214" lon="5.816522">
        <ele>29.368594</ele>
        <time>2023-03-05T08:40:31.000Z</time>
      </trkpt>
      <trkpt lat="51.135273" lon="5.816534">
        <ele>29.367507</ele>
        <time>2023-03-05T08:40:32.000Z</time>
      </trkpt>
      <trkpt lat="51.135334" lon="5.816545">
        <ele>29.366387</ele>
        <time>2023-03-05T08:40:33.000Z</time>
      </trkpt>
      <trkpt lat="51.135392" lon="5.816558">
        <ele>29.365317</ele>
        <time>2023-03-05T08:40:34.000Z</time>
      </trkpt>
      <trkpt lat="51.135454" lon="5.816571">
        <ele>29.364175</ele>
        <time>2023-03-05T08:40:35.000Z</time>
      </trkpt>
      <trkpt lat="51.135516" lon="5.816582">
        <ele>29.363036</ele>
        <time>2023-03-05T08:40:36.000Z</time>
      </trkpt>
      <trkpt lat="51.135578" lon="5.816590">
        <ele>29.361901</ele>
        <time>2023-03-05T08:40:37.000Z</time>
      </trkpt>
      <trkpt lat="51.135637" lon="5.816599">
        <ele>29.360818</ele>
        <time>2023-03-05T08:40:38.000Z</time>
      </trkpt>
      <trkpt lat="51.135696" lon="5.816609">
        <ele>29.359735</ele>
        <time>2023-03-05T08:40:39.000Z</time>
      </trkpt>
      <trkpt lat="51.135753" lon="5.816625">
        <ele>29.358678</ele>
        <time>2023-03-05T08:40:40.000Z</time>
      </trkpt>
      <trkpt lat="51.135806" lon="5.816645">
        <ele>29.357684</ele>
        <time>2023-03-05T08:40:41.000Z</time>
      </trkpt>
      <trkpt lat="51.135860" lon="5.816669">
        <ele>29.356660</ele>
        <time>2023-03-05T08:40:42.000Z</time>
      </trkpt>
      <trkpt lat="51.135908" lon="5.816698">
        <ele>29.355723</ele>
        <time>2023-03-05T08:40:43.000Z</time>
      </trkpt>
      <trkpt lat="51.135954" lon="5.816725">
        <ele>29.354828</ele>
        <time>2023-03-05T08:40:44.000Z</time>
      </trkpt>
      <trkpt lat="51.136000" lon="5.816746">
        <ele>29.353954</ele>
        <time>2023-03-05T08:40:45.000Z</time>
      </trkpt>
      <trkpt lat="51.136041" lon="5.816761">
        <ele>29.353186</ele>
        <time>2023-03-05T08:40:46.000Z</time>
      </trkpt>
      <trkpt lat="51.136076" lon="5.816772">
        <ele>29.352535</ele>
        <time>2023-03-05T08:40:47.000Z</time>
      </trkpt>
      <trkpt lat="51.136109" lon="5.816791">
        <ele>29.351894</ele>
        <time>2023-03-05T08:40:48.000Z</time>
      </trkpt>
      <trkpt lat="51.136137" lon="5.816826">
        <ele>29.351244</ele>
        <time>2023-03-05T08:40:49.000Z</time>
      </trkpt>
      <trkpt lat="51.136161" lon="5.816881">
        <ele>29.350477</ele>
        <time>2023-03-05T08:40:50.000Z</time>
      </trkpt>
      <trkpt lat="51.136182" lon="5.816958">
        <ele>29.349515</ele>
        <time>2023-03-05T08:40:51.000Z</time>
      </trkpt>
      <trkpt lat="51.136198" lon="5.817048">
        <ele>29.348443</ele>
        <time>2023-03-05T08:40:52.000Z</time>
      </trkpt>
      <trkpt lat="51.136218" lon="5.817145">
        <ele>29.344638</ele>
        <time>2023-03-05T08:40:53.000Z</time>
      </trkpt>
      <trkpt lat="51.136241" lon="5.817246">
        <ele>29.338560</ele>
        <time>2023-03-05T08:40:54.000Z</time>
      </trkpt>
      <trkpt lat="51.136262" lon="5.817349">
        <ele>29.332434</ele>
        <time>2023-03-05T08:40:55.000Z</time>
      </trkpt>
      <trkpt lat="51.136283" lon="5.817452">
        <ele>29.326308</ele>
        <time>2023-03-05T08:40:56.000Z</time>
      </trkpt>
      <trkpt lat="51.136308" lon="5.817554">
        <ele>29.320114</ele>
        <time>2023-03-05T08:40:57.000Z</time>
      </trkpt>
      <trkpt lat="51.136330" lon="5.817656">
        <ele>29.314013</ele>
        <time>2023-03-05T08:40:58.000Z</time>
      </trkpt>
      <trkpt lat="51.136352" lon="5.817759">
        <ele>29.307858</ele>
        <time>2023-03-05T08:40:59.000Z</time>
      </trkpt>
      <trkpt lat="51.136372" lon="5.817860">
        <ele>29.301868</ele>
        <time>2023-03-05T08:41:00.000Z</time>
      </trkpt>
      <trkpt lat="51.136391" lon="5.817961">
        <ele>29.295903</ele>
        <time>2023-03-05T08:41:01.000Z</time>
      </trkpt>
      <trkpt lat="51.136408" lon="5.818062">
        <ele>29.289988</ele>
        <time>2023-03-05T08:41:02.000Z</time>
      </trkpt>
      <trkpt lat="51.136423" lon="5.818164">
        <ele>29.284062</ele>
        <time>2023-03-05T08:41:03.000Z</time>
      </trkpt>
      <trkpt lat="51.136436" lon="5.818266">
        <ele>29.278175</ele>
        <time>2023-03-05T08:41:04.000Z</time>
      </trkpt>
      <trkpt lat="51.136447" lon="5.818369">
        <ele>29.272265</ele>
        <time>2023-03-05T08:41:05.000Z</time>
      </trkpt>
      <trkpt lat="51.136457" lon="5.818473">
        <ele>29.266313</ele>
        <time>2023-03-05T08:41:06.000Z</time>
      </trkpt>
      <trkpt lat="51.136464" lon="5.818575">
        <ele>29.260509</ele>
        <time>2023-03-05T08:41:07.000Z</time>
      </trkpt>
      <trkpt lat="51.136472" lon="5.818678">
        <ele>29.254638</ele>
        <time>2023-03-05T08:41:08.000Z</time>
      </trkpt>
      <trkpt lat="51.136477" lon="5.818780">
        <ele>29.248851</ele>
        <time>2023-03-05T08:41:09.000Z</time>
      </trkpt>
      <trkpt lat="51.136481" lon="5.818883">
        <ele>29.243014</ele>
        <time>2023-03-05T08:41:10.000Z</time>
      </trkpt>
      <trkpt lat="51.136485" lon="5.818985">
        <ele>29.237233</ele>
        <time>2023-03-05T08:41:11.000Z</time>
      </trkpt>
      <trkpt lat="51.136486" lon="5.819087">
        <ele>29.231463</ele>
        <time>2023-03-05T08:41:12.000Z</time>
      </trkpt>
      <trkpt lat="51.136486" lon="5.819191">
        <ele>29.225580</ele>
        <time>2023-03-05T08:41:13.000Z</time>
      </trkpt>
      <trkpt lat="51.136484" lon="5.819294">
        <ele>29.219751</ele>
        <time>2023-03-05T08:41:14.000Z</time>
      </trkpt>
      <trkpt lat="51.136482" lon="5.819400">
        <ele>29.213752</ele>
        <time>2023-03-05T08:41:15.000Z</time>
      </trkpt>
      <trkpt lat="51.136480" lon="5.819506">
        <ele>29.207753</ele>
        <time>2023-03-05T08:41:16.000Z</time>
      </trkpt>
      <trkpt lat="51.136478" lon="5.819610">
        <ele>29.201868</ele>
        <time>2023-03-05T08:41:17.000Z</time>
      </trkpt>
      <trkpt lat="51.136483" lon="5.819713">
        <ele>29.196024</ele>
        <time>2023-03-05T08:41:18.000Z</time>
      </trkpt>
      <trkpt lat="51.136496" lon="5.819816">
        <ele>29.190081</ele>
        <time>2023-03-05T08:41:19.000Z</time>
      </trkpt>
      <trkpt lat="51.136516" lon="5.819918">
        <ele>29.187962</ele>
        <time>2023-03-05T08:41:20.000Z</time>
      </trkpt>
      <trkpt lat="51.136548" lon="5.820014">
        <ele>29.195518</ele>
        <time>2023-03-05T08:41:21.000Z</time>
      </trkpt>
      <trkpt lat="51.136591" lon="5.820099">
        <ele>29.203108</ele>
        <time>2023-03-05T08:41:22.000Z</time>
      </trkpt>
      <trkpt lat="51.136642" lon="5.820174">
        <ele>29.210795</ele>
        <time>2023-03-05T08:41:23.000Z</time>
      </trkpt>
      <trkpt lat="51.136700" lon="5.820236">
        <ele>29.218532</ele>
        <time>2023-03-05T08:41:24.000Z</time>
      </trkpt>
      <trkpt lat="51.136763" lon="5.820285">
        <ele>29.226298</ele>
        <time>2023-03-05T08:41:25.000Z</time>
      </trkpt>
      <trkpt lat="51.136831" lon="5.820320">
        <ele>29.234214</ele>
        <time>2023-03-05T08:41:26.000Z</time>
      </trkpt>
      <trkpt lat="51.136897" lon="5.820343">
        <ele>29.241698</ele>
        <time>2023-03-05T08:41:27.000Z</time>
      </trkpt>
      <trkpt lat="51.136964" lon="5.820352">
        <ele>29.249146</ele>
        <time>2023-03-05T08:41:28.000Z</time>
      </trkpt>
      <trkpt lat="51.137032" lon="5.820347">
        <ele>29.256687</ele>
        <time>2023-03-05T08:41:29.000Z</time>
      </trkpt>
      <trkpt lat="51.137099" lon="5.820330">
        <ele>29.264203</ele>
        <time>2023-03-05T08:41:30.000Z</time>
      </trkpt>
      <trkpt lat="51.137162" lon="5.820304">
        <ele>29.271412</ele>
        <time>2023-03-05T08:41:31.000Z</time>
      </trkpt>
      <trkpt lat="51.137222" lon="5.820273">
        <ele>29.278400</ele>
        <time>2023-03-05T08:41:32.000Z</time>
      </trkpt>
      <trkpt lat="51.137281" lon="5.820237">
        <ele>29.285398</ele>
        <time>2023-03-05T08:41:33.000Z</time>
      </trkpt>
      <trkpt lat="51.137340" lon="5.820200">
        <ele>29.292422</ele>
        <time>2023-03-05T08:41:34.000Z</time>
      </trkpt>
      <trkpt lat="51.137402" lon="5.820165">
        <ele>29.299708</ele>
        <time>2023-03-05T08:41:35.000Z</time>
      </trkpt>
      <trkpt lat="51.137463" lon="5.820131">
        <ele>29.306867</ele>
        <time>2023-03-05T08:41:36.000Z</time>
      </trkpt>
      <trkpt lat="51.137524" lon="5.820097">
        <ele>29.314026</ele>
        <time>2023-03-05T08:41:37.000Z</time>
      </trkpt>
      <trkpt lat="51.137587" lon="5.820066">
        <ele>29.321330</ele>
        <time>2023-03-05T08:41:38.000Z</time>
      </trkpt>
      <trkpt lat="51.137650" lon="5.820036">
        <ele>29.328614</ele>
        <time>2023-03-05T08:41:39.000Z</time>
      </trkpt>
      <trkpt lat="51.137711" lon="5.820006">
        <ele>29.335686</ele>
        <time>2023-03-05T08:41:40.000Z</time>
      </trkpt>
      <trkpt lat="51.137771" lon="5.819978">
        <ele>29.342612</ele>
        <time>2023-03-05T08:41:41.000Z</time>
      </trkpt>
      <trkpt lat="51.137832" lon="5.819953">
        <ele>29.349589</ele>
        <time>2023-03-05T08:41:42.000Z</time>
      </trkpt>
      <trkpt lat="51.137895" lon="5.819928">
        <ele>29.356782</ele>
        <time>2023-03-05T08:41:43.000Z</time>
      </trkpt>
      <trkpt lat="51.137958" lon="5.819902">
        <ele>29.363991</ele>
        <time>2023-03-05T08:41:44.000Z</time>
      </trkpt>
      <trkpt lat="51.138022" lon="5.819877">
        <ele>29.371290</ele>
        <time>2023-03-05T08:41:45.000Z</time>
      </trkpt>
      <trkpt lat="51.138085" lon="5.819855">
        <ele>29.378435</ele>
        <time>2023-03-05T08:41:46.000Z</time>
      </trkpt>
      <trkpt lat="51.138148" lon="5.819832">
        <ele>29.384073</ele>
        <time>2023-03-05T08:41:47.000Z</time>
      </trkpt>
      <trkpt lat="51.138210" lon="5.819810">
        <ele>29.371470</ele>
        <time>2023-03-05T08:41:48.000Z</time>
      </trkpt>
      <trkpt lat="51.138274" lon="5.819790">
        <ele>29.358529</ele>
        <time>2023-03-05T08:41:49.000Z</time>
      </trkpt>
      <trkpt lat="51.138338" lon="5.819773">
        <ele>29.345655</ele>
        <time>2023-03-05T08:41:50.000Z</time>
      </trkpt>
      <trkpt lat="51.138401" lon="5.819755">
        <ele>29.332955</ele>
        <time>2023-03-05T08:41:51.000Z</time>
      </trkpt>
      <trkpt lat="51.138464" lon="5.819737">
        <ele>29.320256</ele>
        <time>2023-03-05T08:41:52.000Z</time>
      </trkpt>
      <trkpt lat="51.138529" lon="5.819721">
        <ele>29.307205</ele>
        <time>2023-03-05T08:41:53.000Z</time>
      </trkpt>
      <trkpt lat="51.138594" lon="5.819705">
        <ele>29.294155</ele>
        <time>2023-03-05T08:41:54.000Z</time>
      </trkpt>
      <trkpt lat="51.138659" lon="5.819692">
        <ele>29.281156</ele>
        <time>2023-03-05T08:41:55.000Z</time>
      </trkpt>
      <trkpt lat="51.138723" lon="5.819677">
        <ele>29.268321</ele>
        <time>2023-03-05T08:41:56.000Z</time>
      </trkpt>
      <trkpt lat="51.138788" lon="5.819665">
        <ele>29.255337</ele>
        <time>2023-03-05T08:41:57.000Z</time>
      </trkpt>
      <trkpt lat="51.138852" lon="5.819654">
        <ele>29.242565</ele>
        <time>2023-03-05T08:41:58.000Z</time>
      </trkpt>
      <trkpt lat="51.138918" lon="5.819644">
        <ele>29.229410</ele>
        <time>2023-03-05T08:41:59.000Z</time>
      </trkpt>
      <trkpt lat="51.138981" lon="5.819635">
        <ele>29.216859</ele>
        <time>2023-03-05T08:42:00.000Z</time>
      </trkpt>
      <trkpt lat="51.139045" lon="5.819625">
        <ele>29.204099</ele>
        <time>2023-03-05T08:42:01.000Z</time>
      </trkpt>
      <trkpt lat="51.139112" lon="5.819615">
        <ele>29.190747</ele>
        <time>2023-03-05T08:42:02.000Z</time>
      </trkpt>
      <trkpt lat="51.139175" lon="5.819607">
        <ele>29.178207</ele>
        <time>2023-03-05T08:42:03.000Z</time>
      </trkpt>
      <trkpt lat="51.139238" lon="5.819602">
        <ele>29.165691</ele>
        <time>2023-03-05T08:42:04.000Z</time>
      </trkpt>
      <trkpt lat="51.139301" lon="5.819599">
        <ele>29.153185</ele>
        <time>2023-03-05T08:42:05.000Z</time>
      </trkpt>
      <trkpt lat="51.139365" lon="5.819596">
        <ele>29.140480</ele>
        <time>2023-03-05T08:42:06.000Z</time>
      </trkpt>
      <trkpt lat="51.139427" lon="5.819594">
        <ele>29.128176</ele>
        <time>2023-03-05T08:42:07.000Z</time>
      </trkpt>
      <trkpt lat="51.139489" lon="5.819593">
        <ele>29.115873</ele>
        <time>2023-03-05T08:42:08.000Z</time>
      </trkpt>
      <trkpt lat="51.139555" lon="5.819595">
        <ele>29.102775</ele>
        <time>2023-03-05T08:42:09.000Z</time>
      </trkpt>
      <trkpt lat="51.139621" lon="5.819598">
        <ele>29.089674</ele>
        <time>2023-03-05T08:42:10.000Z</time>
      </trkpt>
      <trkpt lat="51.139685" lon="5.819599">
        <ele>29.076974</ele>
        <time>2023-03-05T08:42:11.000Z</time>
      </trkpt>
      <trkpt lat="51.139750" lon="5.819602">
        <ele>29.064071</ele>
        <time>2023-03-05T08:42:12.000Z</time>
      </trkpt>
      <trkpt lat="51.139815" lon="5.819606">
        <ele>29.051164</ele>
        <time>2023-03-05T08:42:13.000Z</time>
      </trkpt>
      <trkpt lat="51.139877" lon="5.819612">
        <ele>29.038840</ele>
        <time>2023-03-05T08:42:14.000Z</time>
      </trkpt>
      <trkpt lat="51.139941" lon="5.819619">
        <ele>29.030171</ele>
        <time>2023-03-05T08:42:15.000Z</time>
      </trkpt>
      <trkpt lat="51.140006" lon="5.819623">
        <ele>29.042825</ele>
        <time>2023-03-05T08:42:16.000Z</time>
      </trkpt>
      <trkpt lat="51.140068" lon="5.819621">
        <ele>29.054888</ele>
        <time>2023-03-05T08:42:17.000Z</time>
      </trkpt>
      <trkpt lat="51.140131" lon="5.819614">
        <ele>29.067173</ele>
        <time>2023-03-05T08:42:18.000Z</time>
      </trkpt>
      <trkpt lat="51.140194" lon="5.819604">
        <ele>29.079489</ele>
        <time>2023-03-05T08:42:19.000Z</time>
      </trkpt>
      <trkpt lat="51.140255" lon="5.819593">
        <ele>29.091431</ele>
        <time>2023-03-05T08:42:20.000Z</time>
      </trkpt>
      <trkpt lat="51.140314" lon="5.819583">
        <ele>29.102973</ele>
        <time>2023-03-05T08:42:21.000Z</time>
      </trkpt>
      <trkpt lat="51.140373" lon="5.819578">
        <ele>29.114466</ele>
        <time>2023-03-05T08:42:22.000Z</time>
      </trkpt>
      <trkpt lat="51.140432" lon="5.819581">
        <ele>29.125949</ele>
        <time>2023-03-05T08:42:23.000Z</time>
      </trkpt>
      <trkpt lat="51.140486" lon="5.819595">
        <ele>29.136592</ele>
        <time>2023-03-05T08:42:24.000Z</time>
      </trkpt>
      <trkpt lat="51.140541" lon="5.819614">
        <ele>29.147539</ele>
        <time>2023-03-05T08:42:25.000Z</time>
      </trkpt>
      <trkpt lat="51.140601" lon="5.819631">
        <ele>29.159394</ele>
        <time>2023-03-05T08:42:26.000Z</time>
      </trkpt>
      <trkpt lat="51.140665" lon="5.819641">
        <ele>29.171903</ele>
        <time>2023-03-05T08:42:27.000Z</time>
      </trkpt>
      <trkpt lat="51.140728" lon="5.819651">
        <ele>29.184219</ele>
        <time>2023-03-05T08:42:28.000Z</time>
      </trkpt>
      <trkpt lat="51.140789" lon="5.819671">
        <ele>29.196334</ele>
        <time>2023-03-05T08:42:29.000Z</time>
      </trkpt>
      <trkpt lat="51.140853" lon="5.819702">
        <ele>29.209346</ele>
        <time>2023-03-05T08:42:30.000Z</time>
      </trkpt>
      <trkpt lat="51.140913" lon="5.819742">
        <ele>29.221998</ele>
        <time>2023-03-05T08:42:31.000Z</time>
      </trkpt>
      <trkpt lat="51.140972" lon="5.819786">
        <ele>29.234669</ele>
        <time>2023-03-05T08:42:32.000Z</time>
      </trkpt>
      <trkpt lat="51.141031" lon="5.819830">
        <ele>29.247340</ele>
        <time>2023-03-05T08:42:33.000Z</time>
      </trkpt>
      <trkpt lat="51.141090" lon="5.819874">
        <ele>29.260012</ele>
        <time>2023-03-05T08:42:34.000Z</time>
      </trkpt>
      <trkpt lat="51.141151" lon="5.819915">
        <ele>29.272890</ele>
        <time>2023-03-05T08:42:35.000Z</time>
      </trkpt>
      <trkpt lat="51.141211" lon="5.819952">
        <ele>29.285405</ele>
        <time>2023-03-05T08:42:36.000Z</time>
      </trkpt>
      <trkpt lat="51.141276" lon="5.819986">
        <ele>29.298712</ele>
        <time>2023-03-05T08:42:37.000Z</time>
      </trkpt>
      <trkpt lat="51.141341" lon="5.820017">
        <ele>29.311911</ele>
        <time>2023-03-05T08:42:38.000Z</time>
      </trkpt>
      <trkpt lat="51.141403" lon="5.820049">
        <ele>29.324588</ele>
        <time>2023-03-05T08:42:39.000Z</time>
      </trkpt>
      <trkpt lat="51.141467" lon="5.820083">
        <ele>29.337711</ele>
        <time>2023-03-05T08:42:40.000Z</time>
      </trkpt>
      <trkpt lat="51.141529" lon="5.820118">
        <ele>29.350506</ele>
        <time>2023-03-05T08:42:41.000Z</time>
      </trkpt>
      <trkpt lat="51.141590" lon="5.820153">
        <ele>29.363118</ele>
        <time>2023-03-05T08:42:42.000Z</time>
      </trkpt>
      <trkpt lat="51.141651" lon="5.820187">
        <ele>29.375689</ele>
        <time>2023-03-05T08:42:43.000Z</time>
      </trkpt>
      <trkpt lat="51.141712" lon="5.820221">
        <ele>29.372187</ele>
        <time>2023-03-05T08:42:44.000Z</time>
      </trkpt>
      <trkpt lat="51.141774" lon="5.820257">
        <ele>29.364821</ele>
        <time>2023-03-05T08:42:45.000Z</time>
      </trkpt>
      <trkpt lat="51.141835" lon="5.820295">
        <ele>29.357509</ele>
        <time>2023-03-05T08:42:46.000Z</time>
      </trkpt>
      <trkpt lat="51.141894" lon="5.820333">
        <ele>29.350405</ele>
        <time>2023-03-05T08:42:47.000Z</time>
      </trkpt>
      <trkpt lat="51.141955" lon="5.820373">
        <ele>29.343041</ele>
        <time>2023-03-05T08:42:48.000Z</time>
      </trkpt>
      <trkpt lat="51.142015" lon="5.820412">
        <ele>29.335807</ele>
        <time>2023-03-05T08:42:49.000Z</time>
      </trkpt>
      <trkpt lat="51.142076" lon="5.820451">
        <ele>29.328469</ele>
        <time>2023-03-05T08:42:50.000Z</time>
      </trkpt>
      <trkpt lat="51.142137" lon="5.820493">
        <ele>29.321051</ele>
        <time>2023-03-05T08:42:51.000Z</time>
      </trkpt>
      <trkpt lat="51.142194" lon="5.820538">
        <ele>29.313950</ele>
        <time>2023-03-05T08:42:52.000Z</time>
      </trkpt>
      <trkpt lat="51.142254" lon="5.820584">
        <ele>29.306517</ele>
        <time>2023-03-05T08:42:53.000Z</time>
      </trkpt>
      <trkpt lat="51.142310" lon="5.820631">
        <ele>29.299451</ele>
        <time>2023-03-05T08:42:54.000Z</time>
      </trkpt>
      <trkpt lat="51.142368" lon="5.820677">
        <ele>29.292218</ele>
        <time>2023-03-05T08:42:55.000Z</time>
      </trkpt>
      <trkpt lat="51.142429" lon="5.820723">
        <ele>29.284685</ele>
        <time>2023-03-05T08:42:56.000Z</time>
      </trkpt>
      <trkpt lat="51.142491" lon="5.820770">
        <ele>29.277020</ele>
        <time>2023-03-05T08:42:57.000Z</time>
      </trkpt>
      <trkpt lat="51.142549" lon="5.820820">
        <ele>29.269658</ele>
        <time>2023-03-05T08:42:58.000Z</time>
      </trkpt>
      <trkpt lat="51.142606" lon="5.820870">
        <ele>29.262395</ele>
        <time>2023-03-05T08:42:59.000Z</time>
      </trkpt>
      <trkpt lat="51.142664" lon="5.820920">
        <ele>29.255033</ele>
        <time>2023-03-05T08:43:00.000Z</time>
      </trkpt>
      <trkpt lat="51.142721" lon="5.820972">
        <ele>29.247701</ele>
        <time>2023-03-05T08:43:01.000Z</time>
      </trkpt>
      <trkpt lat="51.142778" lon="5.821025">
        <ele>29.240334</ele>
        <time>2023-03-05T08:43:02.000Z</time>
      </trkpt>
      <trkpt lat="51.142833" lon="5.821080">
        <ele>29.233085</ele>
        <time>2023-03-05T08:43:03.000Z</time>
      </trkpt>
      <trkpt lat="51.142887" lon="5.821133">
        <ele>29.226006</ele>
        <time>2023-03-05T08:43:04.000Z</time>
      </trkpt>
      <trkpt lat="51.142943" lon="5.821189">
        <ele>29.218625</ele>
        <time>2023-03-05T08:43:05.000Z</time>
      </trkpt>
      <trkpt lat="51.142999" lon="5.821243">
        <ele>29.211318</ele>
        <time>2023-03-05T08:43:06.000Z</time>
      </trkpt>
      <trkpt lat="51.143054" lon="5.821299">
        <ele>29.204032</ele>
        <time>2023-03-05T08:43:07.000Z</time>
      </trkpt>
      <trkpt lat="51.143110" lon="5.821359">
        <ele>29.196499</ele>
        <time>2023-03-05T08:43:08.000Z</time>
      </trkpt>
      <trkpt lat="51.143165" lon="5.821419">
        <ele>29.189058</ele>
        <time>2023-03-05T08:43:09.000Z</time>
      </trkpt>
      <trkpt lat="51.143218" lon="5.821483">
        <ele>29.181635</ele>
        <time>2023-03-05T08:43:10.000Z</time>
      </trkpt>
      <trkpt lat="51.143272" lon="5.821545">
        <ele>29.177964</ele>
        <time>2023-03-05T08:43:11.000Z</time>
      </trkpt>
      <trkpt lat="51.143325" lon="5.821609">
        <ele>29.179719</ele>
        <time>2023-03-05T08:43:12.000Z</time>
      </trkpt>
      <trkpt lat="51.143378" lon="5.821673">
        <ele>29.181473</ele>
        <time>2023-03-05T08:43:13.000Z</time>
      </trkpt>
      <trkpt lat="51.143431" lon="5.821737">
        <ele>29.183227</ele>
        <time>2023-03-05T08:43:14.000Z</time>
      </trkpt>
      <trkpt lat="51.143483" lon="5.821803">
        <ele>29.184981</ele>
        <time>2023-03-05T08:43:15.000Z</time>
      </trkpt>
      <trkpt lat="51.143535" lon="5.821871">
        <ele>29.186756</ele>
        <time>2023-03-05T08:43:16.000Z</time>
      </trkpt>
      <trkpt lat="51.143586" lon="5.821940">
        <ele>29.188521</ele>
        <time>2023-03-05T08:43:17.000Z</time>
      </trkpt>
      <trkpt lat="51.143635" lon="5.822006">
        <ele>29.190213</ele>
        <time>2023-03-05T08:43:18.000Z</time>
      </trkpt>
      <trkpt lat="51.143685" lon="5.822073">
        <ele>29.191937</ele>
        <time>2023-03-05T08:43:19.000Z</time>
      </trkpt>
      <trkpt lat="51.143734" lon="5.822139">
        <ele>29.193629</ele>
        <time>2023-03-05T08:43:20.000Z</time>
      </trkpt>
      <trkpt lat="51.143782" lon="5.822208">
        <ele>29.195335</ele>
        <time>2023-03-05T08:43:21.000Z</time>
      </trkpt>
      <trkpt lat="51.143828" lon="5.822279">
        <ele>29.197024</ele>
        <time>2023-03-05T08:43:22.000Z</time>
      </trkpt>
      <trkpt lat="51.143873" lon="5.822350">
        <ele>29.198695</ele>
        <time>2023-03-05T08:43:23.000Z</time>
      </trkpt>
      <trkpt lat="51.143919" lon="5.822421">
        <ele>29.200384</ele>
        <time>2023-03-05T08:43:24.000Z</time>
      </trkpt>
      <trkpt lat="51.143967" lon="5.822495">
        <ele>29.202146</ele>
        <time>2023-03-05T08:43:25.000Z</time>
      </trkpt>
      <trkpt lat="51.144017" lon="5.822569">
        <ele>29.203946</ele>
        <time>2023-03-05T08:43:26.000Z</time>
      </trkpt>
      <trkpt lat="51.144064" lon="5.822643">
        <ele>29.205689</ele>
        <time>2023-03-05T08:43:27.000Z</time>
      </trkpt>
      <trkpt lat="51.144110" lon="5.822718">
        <ele>29.207425</ele>
        <time>2023-03-05T08:43:28.000Z</time>
      </trkpt>
      <trkpt lat="51.144158" lon="5.822795">
        <ele>29.209222</ele>
        <time>2023-03-05T08:43:29.000Z</time>
      </trkpt>
      <trkpt lat="51.144203" lon="5.822870">
        <ele>29.210940</ele>
        <time>2023-03-05T08:43:30.000Z</time>
      </trkpt>
      <trkpt lat="51.144247" lon="5.822946">
        <ele>29.212652</ele>
        <time>2023-03-05T08:43:31.000Z</time>
      </trkpt>
      <trkpt lat="51.144293" lon="5.823023">
        <ele>29.214412</ele>
        <time>2023-03-05T08:43:32.000Z</time>
      </trkpt>
      <trkpt lat="51.144339" lon="5.823097">
        <ele>29.216136</ele>
        <time>2023-03-05T08:43:33.000Z</time>
      </trkpt>
      <trkpt lat="51.144384" lon="5.823172">
        <ele>29.217854</ele>
        <time>2023-03-05T08:43:34.000Z</time>
      </trkpt>
      <trkpt lat="51.144429" lon="5.823245">
        <ele>29.219548</ele>
        <time>2023-03-05T08:43:35.000Z</time>
      </trkpt>
      <trkpt lat="51.144476" lon="5.823319">
        <ele>29.221291</ele>
        <time>2023-03-05T08:43:36.000Z</time>
      </trkpt>
      <trkpt lat="51.144525" lon="5.823391">
        <ele>29.223049</ele>
        <time>2023-03-05T08:43:37.000Z</time>
      </trkpt>
      <trkpt lat="51.144574" lon="5.823461">
        <ele>29.224525</ele>
        <time>2023-03-05T08:43:38.000Z</time>
      </trkpt>
      <trkpt lat="51.144623" lon="5.823531">
        <ele>29.220854</ele>
        <time>2023-03-05T08:43:39.000Z</time>
      </trkpt>
      <trkpt lat="51.144673" lon="5.823599">
        <ele>29.217187</ele>
        <time>2023-03-05T08:43:40.000Z</time>
      </trkpt>
      <trkpt lat="51.144725" lon="5.823664">
        <ele>29.213500</ele>
        <time>2023-03-05T08:43:41.000Z</time>
      </trkpt>
      <trkpt lat="51.144778" lon="5.823728">
        <ele>29.209790</ele>
        <time>2023-03-05T08:43:42.000Z</time>
      </trkpt>
      <trkpt lat="51.144829" lon="5.823788">
        <ele>29.206254</ele>
        <time>2023-03-05T08:43:43.000Z</time>
      </trkpt>
      <trkpt lat="51.144880" lon="5.823846">
        <ele>29.202758</ele>
        <time>2023-03-05T08:43:44.000Z</time>
      </trkpt>
      <trkpt lat="51.144934" lon="5.823902">
        <ele>29.199164</ele>
        <time>2023-03-05T08:43:45.000Z</time>
      </trkpt>
      <trkpt lat="51.144988" lon="5.823954">
        <ele>29.195644</ele>
        <time>2023-03-05T08:43:46.000Z</time>
      </trkpt>
      <trkpt lat="51.145041" lon="5.823999">
        <ele>29.192294</ele>
        <time>2023-03-05T08:43:47.000Z</time>
      </trkpt>
      <trkpt lat="51.145095" lon="5.824035">
        <ele>29.189028</ele>
        <time>2023-03-05T08:43:48.000Z</time>
      </trkpt>
      <trkpt lat="51.145153" lon="5.824056">
        <ele>29.185710</ele>
        <time>2023-03-05T08:43:49.000Z</time>
      </trkpt>
      <trkpt lat="51.145211" lon="5.824060">
        <ele>29.182471</ele>
        <time>2023-03-05T08:43:50.000Z</time>
      </trkpt>
      <trkpt lat="51.145271" lon="5.824049">
        <ele>29.179101</ele>
        <time>2023-03-05T08:43:51.000Z</time>
      </trkpt>
      <trkpt lat="51.145330" lon="5.824026">
        <ele>29.175712</ele>
        <time>2023-03-05T08:43:52.000Z</time>
      </trkpt>
      <trkpt lat="51.145385" lon="5.823994">
        <ele>29.172446</ele>
        <time>2023-03-05T08:43:53.000Z</time>
      </trkpt>
      <trkpt lat="51.145440" lon="5.823956">
        <ele>29.169101</ele>
        <time>2023-03-05T08:43:54.000Z</time>
      </trkpt>
      <trkpt lat="51.145492" lon="5.823910">
        <ele>29.165783</ele>
        <time>2023-03-05T08:43:55.000Z</time>
      </trkpt>
      <trkpt lat="51.145545" lon="5.823860">
        <ele>29.162347</ele>
        <time>2023-03-05T08:43:56.000Z</time>
      </trkpt>
      <trkpt lat="51.145596" lon="5.823806">
        <ele>29.158931</ele>
        <time>2023-03-05T08:43:57.000Z</time>
      </trkpt>
      <trkpt lat="51.145645" lon="5.823751">
        <ele>29.155588</ele>
        <time>2023-03-05T08:43:58.000Z</time>
      </trkpt>
      <trkpt lat="51.145695" lon="5.823695">
        <ele>29.152178</ele>
        <time>2023-03-05T08:43:59.000Z</time>
      </trkpt>
      <trkpt lat="51.145745" lon="5.823635">
        <ele>29.148686</ele>
        <time>2023-03-05T08:44:00.000Z</time>
      </trkpt>
      <trkpt lat="51.145792" lon="5.823573">
        <ele>29.145283</ele>
        <time>2023-03-05T08:44:01.000Z</time>
      </trkpt>
      <trkpt lat="51.145837" lon="5.823511">
        <ele>29.141964</ele>
        <time>2023-03-05T08:44:02.000Z</time>
      </trkpt>
      <trkpt lat="51.145888" lon="5.823451">
        <ele>29.138428</ele>
        <time>2023-03-05T08:44:03.000Z</time>
      </trkpt>
      <trkpt lat="51.145939" lon="5.823394">
        <ele>29.134953</ele>
        <time>2023-03-05T08:44:04.000Z</time>
      </trkpt>
      <trkpt lat="51.145990" lon="5.823342">
        <ele>29.131575</ele>
        <time>2023-03-05T08:44:05.000Z</time>
      </trkpt>
      <trkpt lat="51.146046" lon="5.823294">
        <ele>29.128027</ele>
        <time>2023-03-05T08:44:06.000Z</time>
      </trkpt>
      <trkpt lat="51.146101" lon="5.823250">
        <ele>29.124594</ele>
        <time>2023-03-05T08:44:07.000Z</time>
      </trkpt>
      <trkpt lat="51.146157" lon="5.823209">
        <ele>29.118933</ele>
        <time>2023-03-05T08:44:08.000Z</time>
      </trkpt>
      <trkpt lat="51.146218" lon="5.823170">
        <ele>29.112716</ele>
        <time>2023-03-05T08:44:09.000Z</time>
      </trkpt>
      <trkpt lat="51.146279" lon="5.823137">
        <ele>29.106622</ele>
        <time>2023-03-05T08:44:10.000Z</time>
      </trkpt>
      <trkpt lat="51.146342" lon="5.823111">
        <ele>29.100465</ele>
        <time>2023-03-05T08:44:11.000Z</time>
      </trkpt>
      <trkpt lat="51.146407" lon="5.823095">
        <ele>29.094243</ele>
        <time>2023-03-05T08:44:12.000Z</time>
      </trkpt>
      <trkpt lat="51.146474" lon="5.823083">
        <ele>29.087865</ele>
        <time>2023-03-05T08:44:13.000Z</time>
      </trkpt>
      <trkpt lat="51.146540" lon="5.823073">
        <ele>29.081593</ele>
        <time>2023-03-05T08:44:14.000Z</time>
      </trkpt>
      <trkpt lat="51.146608" lon="5.823068">
        <ele>29.075153</ele>
        <time>2023-03-05T08:44:15.000Z</time>
      </trkpt>
      <trkpt lat="51.146674" lon="5.823069">
        <ele>29.068909</ele>
        <time>2023-03-05T08:44:16.000Z</time>
      </trkpt>
      <trkpt lat="51.146739" lon="5.823074">
        <ele>29.062753</ele>
        <time>2023-03-05T08:44:17.000Z</time>
      </trkpt>
      <trkpt lat="51.146804" lon="5.823085">
        <ele>29.056569</ele>
        <time>2023-03-05T08:44:18.000Z</time>
      </trkpt>
      <trkpt lat="51.146868" lon="5.823103">
        <ele>29.050421</ele>
        <time>2023-03-05T08:44:19.000Z</time>
      </trkpt>
      <trkpt lat="51.146928" lon="5.823131">
        <ele>29.044507</ele>
        <time>2023-03-05T08:44:20.000Z</time>
      </trkpt>
      <trkpt lat="51.146986" lon="5.823168">
        <ele>29.038597</ele>
        <time>2023-03-05T08:44:21.000Z</time>
      </trkpt>
      <trkpt lat="51.147048" lon="5.823214">
        <ele>29.032127</ele>
        <time>2023-03-05T08:44:22.000Z</time>
      </trkpt>
      <trkpt lat="51.147108" lon="5.823269">
        <ele>29.025580</ele>
        <time>2023-03-05T08:44:23.000Z</time>
      </trkpt>
      <trkpt lat="51.147163" lon="5.823329">
        <ele>29.019275</ele>
        <time>2023-03-05T08:44:24.000Z</time>
      </trkpt>
      <trkpt lat="51.147216" lon="5.823394">
        <ele>29.012949</ele>
        <time>2023-03-05T08:44:25.000Z</time>
      </trkpt>
      <trkpt lat="51.147264" lon="5.823467">
        <ele>29.006673</ele>
        <time>2023-03-05T08:44:26.000Z</time>
      </trkpt>
      <trkpt lat="51.147310" lon="5.823544">
        <ele>29.000362</ele>
        <time>2023-03-05T08:44:27.000Z</time>
      </trkpt>
      <trkpt lat="51.147354" lon="5.823622">
        <ele>28.994137</ele>
        <time>2023-03-05T08:44:28.000Z</time>
      </trkpt>
      <trkpt lat="51.147393" lon="5.823701">
        <ele>28.988171</ele>
        <time>2023-03-05T08:44:29.000Z</time>
      </trkpt>
      <trkpt lat="51.147434" lon="5.823778">
        <ele>28.982177</ele>
        <time>2023-03-05T08:44:30.000Z</time>
      </trkpt>
      <trkpt lat="51.147478" lon="5.823847">
        <ele>28.976338</ele>
        <time>2023-03-05T08:44:31.000Z</time>
      </trkpt>
      <trkpt lat="51.147527" lon="5.823904">
        <ele>28.970600</ele>
        <time>2023-03-05T08:44:32.000Z</time>
      </trkpt>
      <trkpt lat="51.147583" lon="5.823952">
        <ele>28.964585</ele>
        <time>2023-03-05T08:44:33.000Z</time>
      </trkpt>
      <trkpt lat="51.147642" lon="5.823992">
        <ele>28.958519</ele>
        <time>2023-03-05T08:44:34.000Z</time>
      </trkpt>
      <trkpt lat="51.147701" lon="5.824033">
        <ele>28.945461</ele>
        <time>2023-03-05T08:44:35.000Z</time>
      </trkpt>
      <trkpt lat="51.147757" lon="5.824077">
        <ele>28.916227</ele>
        <time>2023-03-05T08:44:36.000Z</time>
      </trkpt>
      <trkpt lat="51.147811" lon="5.824128">
        <ele>28.886836</ele>
        <time>2023-03-05T08:44:37.000Z</time>
      </trkpt>
      <trkpt lat="51.147860" lon="5.824186">
        <ele>28.858258</ele>
        <time>2023-03-05T08:44:38.000Z</time>
      </trkpt>
      <trkpt lat="51.147903" lon="5.824248">
        <ele>28.831108</ele>
        <time>2023-03-05T08:44:39.000Z</time>
      </trkpt>
      <trkpt lat="51.147940" lon="5.824313">
        <ele>28.805326</ele>
        <time>2023-03-05T08:44:40.000Z</time>
      </trkpt>
      <trkpt lat="51.147972" lon="5.824380">
        <ele>28.780590</ele>
        <time>2023-03-05T08:44:41.000Z</time>
      </trkpt>
      <trkpt lat="51.147998" lon="5.824448">
        <ele>28.757198</ele>
        <time>2023-03-05T08:44:42.000Z</time>
      </trkpt>
      <trkpt lat="51.148020" lon="5.824515">
        <ele>28.734984</ele>
        <time>2023-03-05T08:44:43.000Z</time>
      </trkpt>
      <trkpt lat="51.148041" lon="5.824583">
        <ele>28.712721</ele>
        <time>2023-03-05T08:44:44.000Z</time>
      </trkpt>
      <trkpt lat="51.148055" lon="5.824648">
        <ele>28.692533</ele>
        <time>2023-03-05T08:44:45.000Z</time>
      </trkpt>
      <trkpt lat="51.148069" lon="5.824706">
        <ele>28.674279</ele>
        <time>2023-03-05T08:44:46.000Z</time>
      </trkpt>
      <trkpt lat="51.148089" lon="5.824751">
        <ele>28.658079</ele>
        <time>2023-03-05T08:44:47.000Z</time>
      </trkpt>
      <trkpt lat="51.148117" lon="5.824781">
        <ele>28.642281</ele>
        <time>2023-03-05T08:44:48.000Z</time>
      </trkpt>
      <trkpt lat="51.148152" lon="5.824794">
        <ele>28.625453</ele>
        <time>2023-03-05T08:44:49.000Z</time>
      </trkpt>
      <trkpt lat="51.148195" lon="5.824792">
        <ele>28.605310</ele>
        <time>2023-03-05T08:44:50.000Z</time>
      </trkpt>
      <trkpt lat="51.148246" lon="5.824782">
        <ele>28.581249</ele>
        <time>2023-03-05T08:44:51.000Z</time>
      </trkpt>
      <trkpt lat="51.148304" lon="5.824772">
        <ele>28.553932</ele>
        <time>2023-03-05T08:44:52.000Z</time>
      </trkpt>
      <trkpt lat="51.148365" lon="5.824763">
        <ele>28.525246</ele>
        <time>2023-03-05T08:44:53.000Z</time>
      </trkpt>
      <trkpt lat="51.148429" lon="5.824755">
        <ele>28.495186</ele>
        <time>2023-03-05T08:44:54.000Z</time>
      </trkpt>
      <trkpt lat="51.148491" lon="5.824748">
        <ele>28.466081</ele>
        <time>2023-03-05T08:44:55.000Z</time>
      </trkpt>
      <trkpt lat="51.148556" lon="5.824741">
        <ele>28.435575</ele>
        <time>2023-03-05T08:44:56.000Z</time>
      </trkpt>
      <trkpt lat="51.148623" lon="5.824732">
        <ele>28.404091</ele>
        <time>2023-03-05T08:44:57.000Z</time>
      </trkpt>
      <trkpt lat="51.148690" lon="5.824722">
        <ele>28.372580</ele>
        <time>2023-03-05T08:44:58.000Z</time>
      </trkpt>
      <trkpt lat="51.148756" lon="5.824713">
        <ele>28.341563</ele>
        <time>2023-03-05T08:44:59.000Z</time>
      </trkpt>
      <trkpt lat="51.148822" lon="5.824704">
        <ele>28.310545</ele>
        <time>2023-03-05T08:45:00.000Z</time>
      </trkpt>
      <trkpt lat="51.148892" lon="5.824694">
        <ele>28.277636</ele>
        <time>2023-03-05T08:45:01.000Z</time>
      </trkpt>
      <trkpt lat="51.148962" lon="5.824681">
        <ele>28.244636</ele>
        <time>2023-03-05T08:45:02.000Z</time>
      </trkpt>
      <trkpt lat="51.149029" lon="5.824670">
        <ele>28.213097</ele>
        <time>2023-03-05T08:45:03.000Z</time>
      </trkpt>
      <trkpt lat="51.149100" lon="5.824660">
        <ele>28.179721</ele>
        <time>2023-03-05T08:45:04.000Z</time>
      </trkpt>
      <trkpt lat="51.149173" lon="5.824650">
        <ele>28.145413</ele>
        <time>2023-03-05T08:45:05.000Z</time>
      </trkpt>
      <trkpt lat="51.149244" lon="5.824640">
        <ele>28.112037</ele>
        <time>2023-03-05T08:45:06.000Z</time>
      </trkpt>
      <trkpt lat="51.149310" lon="5.824629">
        <ele>28.227718</ele>
        <time>2023-03-05T08:45:07.000Z</time>
      </trkpt>
      <trkpt lat="51.149377" lon="5.824619">
        <ele>28.345348</ele>
        <time>2023-03-05T08:45:08.000Z</time>
      </trkpt>
      <trkpt lat="51.149443" lon="5.824609">
        <ele>28.461237</ele>
        <time>2023-03-05T08:45:09.000Z</time>
      </trkpt>
      <trkpt lat="51.149511" lon="5.824599">
        <ele>28.580606</ele>
        <time>2023-03-05T08:45:10.000Z</time>
      </trkpt>
      <trkpt lat="51.149579" lon="5.824590">
        <ele>28.699881</ele>
        <time>2023-03-05T08:45:11.000Z</time>
      </trkpt>
      <trkpt lat="51.149646" lon="5.824579">
        <ele>28.817617</ele>
        <time>2023-03-05T08:45:12.000Z</time>
      </trkpt>
      <trkpt lat="51.149708" lon="5.824569">
        <ele>28.926547</ele>
        <time>2023-03-05T08:45:13.000Z</time>
      </trkpt>
      <trkpt lat="51.149769" lon="5.824560">
        <ele>29.033632</ele>
        <time>2023-03-05T08:45:14.000Z</time>
      </trkpt>
      <trkpt lat="51.149825" lon="5.824554">
        <ele>29.131742</ele>
        <time>2023-03-05T08:45:15.000Z</time>
      </trkpt>
      <trkpt lat="51.149879" lon="5.824547">
        <ele>29.226446</ele>
        <time>2023-03-05T08:45:16.000Z</time>
      </trkpt>
      <trkpt lat="51.149930" lon="5.824539">
        <ele>29.316026</ele>
        <time>2023-03-05T08:45:17.000Z</time>
      </trkpt>
      <trkpt lat="51.149979" lon="5.824530">
        <ele>29.402245</ele>
        <time>2023-03-05T08:45:18.000Z</time>
      </trkpt>
      <trkpt lat="51.150026" lon="5.824521">
        <ele>29.484993</ele>
        <time>2023-03-05T08:45:19.000Z</time>
      </trkpt>
      <trkpt lat="51.150072" lon="5.824511">
        <ele>29.566146</ele>
        <time>2023-03-05T08:45:20.000Z</time>
      </trkpt>
      <trkpt lat="51.150118" lon="5.824505">
        <ele>29.646823</ele>
        <time>2023-03-05T08:45:21.000Z</time>
      </trkpt>
      <trkpt lat="51.150161" lon="5.824500">
        <ele>29.722187</ele>
        <time>2023-03-05T08:45:22.000Z</time>
      </trkpt>
      <trkpt lat="51.150196" lon="5.824500">
        <ele>29.783368</ele>
        <time>2023-03-05T08:45:23.000Z</time>
      </trkpt>
      <trkpt lat="51.150219" lon="5.824509">
        <ele>29.824766</ele>
        <time>2023-03-05T08:45:24.000Z</time>
      </trkpt>
      <trkpt lat="51.150236" lon="5.824527">
        <ele>29.860439</ele>
        <time>2023-03-05T08:45:25.000Z</time>
      </trkpt>
      <trkpt lat="51.150249" lon="5.824552">
        <ele>29.896046</ele>
        <time>2023-03-05T08:45:26.000Z</time>
      </trkpt>
      <trkpt lat="51.150262" lon="5.824604">
        <ele>29.957425</ele>
        <time>2023-03-05T08:45:27.000Z</time>
      </trkpt>
      <trkpt lat="51.150276" lon="5.824670">
        <ele>30.033820</ele>
        <time>2023-03-05T08:45:28.000Z</time>
      </trkpt>
      <trkpt lat="51.150290" lon="5.824737">
        <ele>30.111254</ele>
        <time>2023-03-05T08:45:29.000Z</time>
      </trkpt>
      <trkpt lat="51.150321" lon="5.824746">
        <ele>30.166334</ele>
        <time>2023-03-05T08:45:30.000Z</time>
      </trkpt>
      <trkpt lat="51.150373" lon="5.824693">
        <ele>30.274220</ele>
        <time>2023-03-05T08:45:31.000Z</time>
      </trkpt>
      <trkpt lat="51.150405" lon="5.824712">
        <ele>30.333911</ele>
        <time>2023-03-05T08:45:32.000Z</time>
      </trkpt>
      <trkpt lat="51.150439" lon="5.824757">
        <ele>30.411156</ele>
        <time>2023-03-05T08:45:33.000Z</time>
      </trkpt>
      <trkpt lat="51.150469" lon="5.824782">
        <ele>30.470329</ele>
        <time>2023-03-05T08:45:34.000Z</time>
      </trkpt>
      <trkpt lat="51.150498" lon="5.824793">
        <ele>30.522437</ele>
        <time>2023-03-05T08:45:35.000Z</time>
      </trkpt>
      <trkpt lat="51.150526" lon="5.824808">
        <ele>30.574071</ele>
        <time>2023-03-05T08:45:36.000Z</time>
      </trkpt>
      <trkpt lat="51.150555" lon="5.824821">
        <ele>30.626729</ele>
        <time>2023-03-05T08:45:37.000Z</time>
      </trkpt>
      <trkpt lat="51.150581" lon="5.824826">
        <ele>30.672507</ele>
        <time>2023-03-05T08:45:38.000Z</time>
      </trkpt>
      <trkpt lat="51.150603" lon="5.824825">
        <ele>30.710979</ele>
        <time>2023-03-05T08:45:39.000Z</time>
      </trkpt>
      <trkpt lat="51.150631" lon="5.824824">
        <ele>30.759936</ele>
        <time>2023-03-05T08:45:40.000Z</time>
      </trkpt>
      <trkpt lat="51.150662" lon="5.824828">
        <ele>30.814302</ele>
        <time>2023-03-05T08:45:41.000Z</time>
      </trkpt>
      <trkpt lat="51.150695" lon="5.824829">
        <ele>30.871997</ele>
        <time>2023-03-05T08:45:42.000Z</time>
      </trkpt>
      <trkpt lat="51.150729" lon="5.824821">
        <ele>30.932073</ele>
        <time>2023-03-05T08:45:43.000Z</time>
      </trkpt>
      <trkpt lat="51.150766" lon="5.824801">
        <ele>31.000366</ele>
        <time>2023-03-05T08:45:44.000Z</time>
      </trkpt>
      <trkpt lat="51.150804" lon="5.824770">
        <ele>31.074983</ele>
        <time>2023-03-05T08:45:45.000Z</time>
      </trkpt>
      <trkpt lat="51.150840" lon="5.824733">
        <ele>31.149856</ele>
        <time>2023-03-05T08:45:46.000Z</time>
      </trkpt>
      <trkpt lat="51.150872" lon="5.824698">
        <ele>31.217691</ele>
        <time>2023-03-05T08:45:47.000Z</time>
      </trkpt>
      <trkpt lat="51.150900" lon="5.824664">
        <ele>31.255917</ele>
        <time>2023-03-05T08:45:48.000Z</time>
      </trkpt>
      <trkpt lat="51.150924" lon="5.824633">
        <ele>31.255657</ele>
        <time>2023-03-05T08:45:49.000Z</time>
      </trkpt>
      <trkpt lat="51.150946" lon="5.824603">
        <ele>31.255413</ele>
        <time>2023-03-05T08:45:50.000Z</time>
      </trkpt>
      <trkpt lat="51.150970" lon="5.824574">
        <ele>31.255160</ele>
        <time>2023-03-05T08:45:51.000Z</time>
      </trkpt>
      <trkpt lat="51.150995" lon="5.824548">
        <ele>31.254908</ele>
        <time>2023-03-05T08:45:52.000Z</time>
      </trkpt>
      <trkpt lat="51.151022" lon="5.824519">
        <ele>31.254634</ele>
        <time>2023-03-05T08:45:53.000Z</time>
      </trkpt>
      <trkpt lat="51.151056" lon="5.824489">
        <ele>31.254307</ele>
        <time>2023-03-05T08:45:54.000Z</time>
      </trkpt>
      <trkpt lat="51.151094" lon="5.824457">
        <ele>31.253945</ele>
        <time>2023-03-05T08:45:55.000Z</time>
      </trkpt>
      <trkpt lat="51.151132" lon="5.824423">
        <ele>31.253578</ele>
        <time>2023-03-05T08:45:56.000Z</time>
      </trkpt>
      <trkpt lat="51.151175" lon="5.824385">
        <ele>31.253164</ele>
        <time>2023-03-05T08:45:57.000Z</time>
      </trkpt>
      <trkpt lat="51.151230" lon="5.824344">
        <ele>31.252653</ele>
        <time>2023-03-05T08:45:58.000Z</time>
      </trkpt>
      <trkpt lat="51.151291" lon="5.824311">
        <ele>31.252111</ele>
        <time>2023-03-05T08:45:59.000Z</time>
      </trkpt>
      <trkpt lat="51.151352" lon="5.824289">
        <ele>31.251584</ele>
        <time>2023-03-05T08:46:00.000Z</time>
      </trkpt>
      <trkpt lat="51.151416" lon="5.824275">
        <ele>31.251040</ele>
        <time>2023-03-05T08:46:01.000Z</time>
      </trkpt>
      <trkpt lat="51.151480" lon="5.824265">
        <ele>31.250499</ele>
        <time>2023-03-05T08:46:02.000Z</time>
      </trkpt>
      <trkpt lat="51.151545" lon="5.824261">
        <ele>31.249951</ele>
        <time>2023-03-05T08:46:03.000Z</time>
      </trkpt>
      <trkpt lat="51.151608" lon="5.824258">
        <ele>31.249421</ele>
        <time>2023-03-05T08:46:04.000Z</time>
      </trkpt>
      <trkpt lat="51.151671" lon="5.824252">
        <ele>31.248889</ele>
        <time>2023-03-05T08:46:05.000Z</time>
      </trkpt>
      <trkpt lat="51.151736" lon="5.824241">
        <ele>31.248339</ele>
        <time>2023-03-05T08:46:06.000Z</time>
      </trkpt>
      <trkpt lat="51.151801" lon="5.824228">
        <ele>31.247787</ele>
        <time>2023-03-05T08:46:07.000Z</time>
      </trkpt>
      <trkpt lat="51.151864" lon="5.824216">
        <ele>31.247253</ele>
        <time>2023-03-05T08:46:08.000Z</time>
      </trkpt>
      <trkpt lat="51.151925" lon="5.824203">
        <ele>31.246735</ele>
        <time>2023-03-05T08:46:09.000Z</time>
      </trkpt>
      <trkpt lat="51.151985" lon="5.824190">
        <ele>31.246225</ele>
        <time>2023-03-05T08:46:10.000Z</time>
      </trkpt>
      <trkpt lat="51.152041" lon="5.824177">
        <ele>31.245749</ele>
        <time>2023-03-05T08:46:11.000Z</time>
      </trkpt>
      <trkpt lat="51.152095" lon="5.824163">
        <ele>31.245288</ele>
        <time>2023-03-05T08:46:12.000Z</time>
      </trkpt>
      <trkpt lat="51.152141" lon="5.824153">
        <ele>31.244897</ele>
        <time>2023-03-05T08:46:13.000Z</time>
      </trkpt>
      <trkpt lat="51.152181" lon="5.824146">
        <ele>31.244559</ele>
        <time>2023-03-05T08:46:14.000Z</time>
      </trkpt>
      <trkpt lat="51.152207" lon="5.824140">
        <ele>31.244337</ele>
        <time>2023-03-05T08:46:15.000Z</time>
      </trkpt>
      <trkpt lat="51.152221" lon="5.824137">
        <ele>31.244218</ele>
        <time>2023-03-05T08:46:16.000Z</time>
      </trkpt>
      <trkpt lat="51.152235" lon="5.824133">
        <ele>31.244099</ele>
        <time>2023-03-05T08:46:17.000Z</time>
      </trkpt>
      <trkpt lat="51.152253" lon="5.824125">
        <ele>31.243941</ele>
        <time>2023-03-05T08:46:18.000Z</time>
      </trkpt>
      <trkpt lat="51.152269" lon="5.824108">
        <ele>31.243780</ele>
        <time>2023-03-05T08:46:19.000Z</time>
      </trkpt>
      <trkpt lat="51.152282" lon="5.824077">
        <ele>31.243583</ele>
        <time>2023-03-05T08:46:20.000Z</time>
      </trkpt>
      <trkpt lat="51.152287" lon="5.824034">
        <ele>31.243352</ele>
        <time>2023-03-05T08:46:21.000Z</time>
      </trkpt>
      <trkpt lat="51.152287" lon="5.823983">
        <ele>31.243082</ele>
        <time>2023-03-05T08:46:22.000Z</time>
      </trkpt>
      <trkpt lat="51.152282" lon="5.823927">
        <ele>31.242784</ele>
        <time>2023-03-05T08:46:23.000Z</time>
      </trkpt>
      <trkpt lat="51.152277" lon="5.823861">
        <ele>31.242433</ele>
        <time>2023-03-05T08:46:24.000Z</time>
      </trkpt>
      <trkpt lat="51.152275" lon="5.823788">
        <ele>31.242047</ele>
        <time>2023-03-05T08:46:25.000Z</time>
      </trkpt>
      <trkpt lat="51.152275" lon="5.823705">
        <ele>31.241608</ele>
        <time>2023-03-05T08:46:26.000Z</time>
      </trkpt>
      <trkpt lat="51.152278" lon="5.823613">
        <ele>31.241122</ele>
        <time>2023-03-05T08:46:27.000Z</time>
      </trkpt>
      <trkpt lat="51.152279" lon="5.823515">
        <ele>31.230337</ele>
        <time>2023-03-05T08:46:28.000Z</time>
      </trkpt>
      <trkpt lat="51.152279" lon="5.823416">
        <ele>31.210722</ele>
        <time>2023-03-05T08:46:29.000Z</time>
      </trkpt>
      <trkpt lat="51.152277" lon="5.823318">
        <ele>31.191295</ele>
        <time>2023-03-05T08:46:30.000Z</time>
      </trkpt>
      <trkpt lat="51.152275" lon="5.823223">
        <ele>31.172462</ele>
        <time>2023-03-05T08:46:31.000Z</time>
      </trkpt>
      <trkpt lat="51.152275" lon="5.823131">
        <ele>31.154234</ele>
        <time>2023-03-05T08:46:32.000Z</time>
      </trkpt>
      <trkpt lat="51.152273" lon="5.823042">
        <ele>31.136590</ele>
        <time>2023-03-05T08:46:33.000Z</time>
      </trkpt>
      <trkpt lat="51.152271" lon="5.822960">
        <ele>31.120331</ele>
        <time>2023-03-05T08:46:34.000Z</time>
      </trkpt>
      <trkpt lat="51.152266" lon="5.822880">
        <ele>31.104402</ele>
        <time>2023-03-05T08:46:35.000Z</time>
      </trkpt>
      <trkpt lat="51.152266" lon="5.822797">
        <ele>31.087957</ele>
        <time>2023-03-05T08:46:36.000Z</time>
      </trkpt>
      <trkpt lat="51.152272" lon="5.822717">
        <ele>31.071994</ele>
        <time>2023-03-05T08:46:37.000Z</time>
      </trkpt>
      <trkpt lat="51.152287" lon="5.822640">
        <ele>31.056019</ele>
        <time>2023-03-05T08:46:38.000Z</time>
      </trkpt>
      <trkpt lat="51.152309" lon="5.822567">
        <ele>31.039973</ele>
        <time>2023-03-05T08:46:39.000Z</time>
      </trkpt>
      <trkpt lat="51.152334" lon="5.822499">
        <ele>31.024356</ele>
        <time>2023-03-05T08:46:40.000Z</time>
      </trkpt>
      <trkpt lat="51.152361" lon="5.822433">
        <ele>31.008745</ele>
        <time>2023-03-05T08:46:41.000Z</time>
      </trkpt>
      <trkpt lat="51.152392" lon="5.822369">
        <ele>30.992724</ele>
        <time>2023-03-05T08:46:42.000Z</time>
      </trkpt>
      <trkpt lat="51.152431" lon="5.822312">
        <ele>30.976011</ele>
        <time>2023-03-05T08:46:43.000Z</time>
      </trkpt>
      <trkpt lat="51.152478" lon="5.822267">
        <ele>30.958694</ele>
        <time>2023-03-05T08:46:44.000Z</time>
      </trkpt>
      <trkpt lat="51.152533" lon="5.822235">
        <ele>30.940201</ele>
        <time>2023-03-05T08:46:45.000Z</time>
      </trkpt>
      <trkpt lat="51.152587" lon="5.822208">
        <ele>30.922325</ele>
        <time>2023-03-05T08:46:46.000Z</time>
      </trkpt>
      <trkpt lat="51.152643" lon="5.822182">
        <ele>30.903901</ele>
        <time>2023-03-05T08:46:47.000Z</time>
      </trkpt>
      <trkpt lat="51.152699" lon="5.822151">
        <ele>30.885176</ele>
        <time>2023-03-05T08:46:48.000Z</time>
      </trkpt>
      <trkpt lat="51.152755" lon="5.822125">
        <ele>30.866753</ele>
        <time>2023-03-05T08:46:49.000Z</time>
      </trkpt>
      <trkpt lat="51.152813" lon="5.822114">
        <ele>30.848303</ele>
        <time>2023-03-05T08:46:50.000Z</time>
      </trkpt>
      <trkpt lat="51.152874" lon="5.822112">
        <ele>30.829031</ele>
        <time>2023-03-05T08:46:51.000Z</time>
      </trkpt>
      <trkpt lat="51.152936" lon="5.822113">
        <ele>30.809446</ele>
        <time>2023-03-05T08:46:52.000Z</time>
      </trkpt>
      <trkpt lat="51.152996" lon="5.822116">
        <ele>30.790485</ele>
        <time>2023-03-05T08:46:53.000Z</time>
      </trkpt>
      <trkpt lat="51.153057" lon="5.822118">
        <ele>30.771213</ele>
        <time>2023-03-05T08:46:54.000Z</time>
      </trkpt>
      <trkpt lat="51.153119" lon="5.822125">
        <ele>30.751580</ele>
        <time>2023-03-05T08:46:55.000Z</time>
      </trkpt>
      <trkpt lat="51.153177" lon="5.822132">
        <ele>30.733207</ele>
        <time>2023-03-05T08:46:56.000Z</time>
      </trkpt>
      <trkpt lat="51.153239" lon="5.822134">
        <ele>30.713619</ele>
        <time>2023-03-05T08:46:57.000Z</time>
      </trkpt>
      <trkpt lat="51.153299" lon="5.822138">
        <ele>30.694651</ele>
        <time>2023-03-05T08:46:58.000Z</time>
      </trkpt>
      <trkpt lat="51.153359" lon="5.822140">
        <ele>30.675694</ele>
        <time>2023-03-05T08:46:59.000Z</time>
      </trkpt>
      <trkpt lat="51.153418" lon="5.822132">
        <ele>30.614003</ele>
        <time>2023-03-05T08:47:00.000Z</time>
      </trkpt>
      <trkpt lat="51.153475" lon="5.822106">
        <ele>30.544194</ele>
        <time>2023-03-05T08:47:01.000Z</time>
      </trkpt>
      <trkpt lat="51.153532" lon="5.822059">
        <ele>30.468633</ele>
        <time>2023-03-05T08:47:02.000Z</time>
      </trkpt>
      <trkpt lat="51.153589" lon="5.822000">
        <ele>30.388612</ele>
        <time>2023-03-05T08:47:03.000Z</time>
      </trkpt>
      <trkpt lat="51.153646" lon="5.821936">
        <ele>30.306522</ele>
        <time>2023-03-05T08:47:04.000Z</time>
      </trkpt>
      <trkpt lat="51.153703" lon="5.821870">
        <ele>30.223572</ele>
        <time>2023-03-05T08:47:05.000Z</time>
      </trkpt>
      <trkpt lat="51.153760" lon="5.821802">
        <ele>30.139746</ele>
        <time>2023-03-05T08:47:06.000Z</time>
      </trkpt>
      <trkpt lat="51.153815" lon="5.821733">
        <ele>30.057339</ele>
        <time>2023-03-05T08:47:07.000Z</time>
      </trkpt>
      <trkpt lat="51.153869" lon="5.821665">
        <ele>29.976314</ele>
        <time>2023-03-05T08:47:08.000Z</time>
      </trkpt>
      <trkpt lat="51.153920" lon="5.821596">
        <ele>29.897554</ele>
        <time>2023-03-05T08:47:09.000Z</time>
      </trkpt>
      <trkpt lat="51.153972" lon="5.821527">
        <ele>29.817893</ele>
        <time>2023-03-05T08:47:10.000Z</time>
      </trkpt>
      <trkpt lat="51.154025" lon="5.821459">
        <ele>29.737789</ele>
        <time>2023-03-05T08:47:11.000Z</time>
      </trkpt>
      <trkpt lat="51.154079" lon="5.821392">
        <ele>29.657219</ele>
        <time>2023-03-05T08:47:12.000Z</time>
      </trkpt>
      <trkpt lat="51.154134" lon="5.821332">
        <ele>29.578749</ele>
        <time>2023-03-05T08:47:13.000Z</time>
      </trkpt>
      <trkpt lat="51.154194" lon="5.821274">
        <ele>29.496128</ele>
        <time>2023-03-05T08:47:14.000Z</time>
      </trkpt>
      <trkpt lat="51.154257" lon="5.821217">
        <ele>29.410835</ele>
        <time>2023-03-05T08:47:15.000Z</time>
      </trkpt>
      <trkpt lat="51.154320" lon="5.821160">
        <ele>29.325541</ele>
        <time>2023-03-05T08:47:16.000Z</time>
      </trkpt>
      <trkpt lat="51.154380" lon="5.821108">
        <ele>29.245129</ele>
        <time>2023-03-05T08:47:17.000Z</time>
      </trkpt>
      <trkpt lat="51.154444" lon="5.821054">
        <ele>29.159868</ele>
        <time>2023-03-05T08:47:18.000Z</time>
      </trkpt>
      <trkpt lat="51.154507" lon="5.821000">
        <ele>29.075646</ele>
        <time>2023-03-05T08:47:19.000Z</time>
      </trkpt>
      <trkpt lat="51.154565" lon="5.820949">
        <ele>28.997654</ele>
        <time>2023-03-05T08:47:20.000Z</time>
      </trkpt>
      <trkpt lat="51.154623" lon="5.820900">
        <ele>28.920365</ele>
        <time>2023-03-05T08:47:21.000Z</time>
      </trkpt>
      <trkpt lat="51.154680" lon="5.820850">
        <ele>28.843761</ele>
        <time>2023-03-05T08:47:22.000Z</time>
      </trkpt>
      <trkpt lat="51.154738" lon="5.820799">
        <ele>28.765769</ele>
        <time>2023-03-05T08:47:23.000Z</time>
      </trkpt>
      <trkpt lat="51.154797" lon="5.820750">
        <ele>28.687438</ele>
        <time>2023-03-05T08:47:24.000Z</time>
      </trkpt>
      <trkpt lat="51.154858" lon="5.820700">
        <ele>28.606675</ele>
        <time>2023-03-05T08:47:25.000Z</time>
      </trkpt>
      <trkpt lat="51.154918" lon="5.820652">
        <ele>28.563938</ele>
        <time>2023-03-05T08:47:26.000Z</time>
      </trkpt>
      <trkpt lat="51.154977" lon="5.820603">
        <ele>28.589944</ele>
        <time>2023-03-05T08:47:27.000Z</time>
      </trkpt>
      <trkpt lat="51.155035" lon="5.820555">
        <ele>28.615490</ele>
        <time>2023-03-05T08:47:28.000Z</time>
      </trkpt>
      <trkpt lat="51.155087" lon="5.820503">
        <ele>28.639485</ele>
        <time>2023-03-05T08:47:29.000Z</time>
      </trkpt>
      <trkpt lat="51.155134" lon="5.820446">
        <ele>28.662570</ele>
        <time>2023-03-05T08:47:30.000Z</time>
      </trkpt>
      <trkpt lat="51.155180" lon="5.820388">
        <ele>28.685496</ele>
        <time>2023-03-05T08:47:31.000Z</time>
      </trkpt>
      <trkpt lat="51.155223" lon="5.820332">
        <ele>28.707200</ele>
        <time>2023-03-05T08:47:32.000Z</time>
      </trkpt>
      <trkpt lat="51.155267" lon="5.820273">
        <ele>28.729675</ele>
        <time>2023-03-05T08:47:33.000Z</time>
      </trkpt>
      <trkpt lat="51.155313" lon="5.820214">
        <ele>28.752754</ele>
        <time>2023-03-05T08:47:34.000Z</time>
      </trkpt>
      <trkpt lat="51.155357" lon="5.820155">
        <ele>28.775229</ele>
        <time>2023-03-05T08:47:35.000Z</time>
      </trkpt>
      <trkpt lat="51.155397" lon="5.820102">
        <ele>28.795561</ele>
        <time>2023-03-05T08:47:36.000Z</time>
      </trkpt>
      <trkpt lat="51.155432" lon="5.820051">
        <ele>28.814097</ele>
        <time>2023-03-05T08:47:37.000Z</time>
      </trkpt>
      <trkpt lat="51.155466" lon="5.819994">
        <ele>28.833384</ele>
        <time>2023-03-05T08:47:38.000Z</time>
      </trkpt>
      <trkpt lat="51.155503" lon="5.819930">
        <ele>28.854725</ele>
        <time>2023-03-05T08:47:39.000Z</time>
      </trkpt>
      <trkpt lat="51.155541" lon="5.819862">
        <ele>28.877055</ele>
        <time>2023-03-05T08:47:40.000Z</time>
      </trkpt>
      <trkpt lat="51.155581" lon="5.819796">
        <ele>28.899558</ele>
        <time>2023-03-05T08:47:41.000Z</time>
      </trkpt>
      <trkpt lat="51.155621" lon="5.819729">
        <ele>28.922238</ele>
        <time>2023-03-05T08:47:42.000Z</time>
      </trkpt>
      <trkpt lat="51.155662" lon="5.819661">
        <ele>28.945365</ele>
        <time>2023-03-05T08:47:43.000Z</time>
      </trkpt>
      <trkpt lat="51.155704" lon="5.819589">
        <ele>28.969474</ele>
        <time>2023-03-05T08:47:44.000Z</time>
      </trkpt>
      <trkpt lat="51.155746" lon="5.819514">
        <ele>28.994126</ele>
        <time>2023-03-05T08:47:45.000Z</time>
      </trkpt>
      <trkpt lat="51.155788" lon="5.819433">
        <ele>29.019894</ele>
        <time>2023-03-05T08:47:46.000Z</time>
      </trkpt>
      <trkpt lat="51.155827" lon="5.819355">
        <ele>29.044352</ele>
        <time>2023-03-05T08:47:47.000Z</time>
      </trkpt>
      <trkpt lat="51.155865" lon="5.819277">
        <ele>29.068568</ele>
        <time>2023-03-05T08:47:48.000Z</time>
      </trkpt>
      <trkpt lat="51.155904" lon="5.819202">
        <ele>29.092455</ele>
        <time>2023-03-05T08:47:49.000Z</time>
      </trkpt>
      <trkpt lat="51.155942" lon="5.819124">
        <ele>29.116671</ele>
        <time>2023-03-05T08:47:50.000Z</time>
      </trkpt>
      <trkpt lat="51.155980" lon="5.819043">
        <ele>29.141472</ele>
        <time>2023-03-05T08:47:51.000Z</time>
      </trkpt>
      <trkpt lat="51.156014" lon="5.818965">
        <ele>29.164762</ele>
        <time>2023-03-05T08:47:52.000Z</time>
      </trkpt>
      <trkpt lat="51.156042" lon="5.818889">
        <ele>29.186373</ele>
        <time>2023-03-05T08:47:53.000Z</time>
      </trkpt>
      <trkpt lat="51.156068" lon="5.818815">
        <ele>29.207170</ele>
        <time>2023-03-05T08:47:54.000Z</time>
      </trkpt>
      <trkpt lat="51.156095" lon="5.818744">
        <ele>29.227528</ele>
        <time>2023-03-05T08:47:55.000Z</time>
      </trkpt>
      <trkpt lat="51.156119" lon="5.818676">
        <ele>29.246659</ele>
        <time>2023-03-05T08:47:56.000Z</time>
      </trkpt>
      <trkpt lat="51.156145" lon="5.818605">
        <ele>29.274237</ele>
        <time>2023-03-05T08:47:57.000Z</time>
      </trkpt>
      <trkpt lat="51.156171" lon="5.818526">
        <ele>29.314549</ele>
        <time>2023-03-05T08:47:58.000Z</time>
      </trkpt>
      <trkpt lat="51.156200" lon="5.818438">
        <ele>29.359466</ele>
        <time>2023-03-05T08:47:59.000Z</time>
      </trkpt>
      <trkpt lat="51.156234" lon="5.818344">
        <ele>29.408496</ele>
        <time>2023-03-05T08:48:00.000Z</time>
      </trkpt>
      <trkpt lat="51.156270" lon="5.818249">
        <ele>29.458649</ele>
        <time>2023-03-05T08:48:01.000Z</time>
      </trkpt>
      <trkpt lat="51.156303" lon="5.818158">
        <ele>29.506145</ele>
        <time>2023-03-05T08:48:02.000Z</time>
      </trkpt>
      <trkpt lat="51.156336" lon="5.818068">
        <ele>29.553251</ele>
        <time>2023-03-05T08:48:03.000Z</time>
      </trkpt>
      <trkpt lat="51.156370" lon="5.817979">
        <ele>29.600337</ele>
        <time>2023-03-05T08:48:04.000Z</time>
      </trkpt>
      <trkpt lat="51.156405" lon="5.817890">
        <ele>29.647803</ele>
        <time>2023-03-05T08:48:05.000Z</time>
      </trkpt>
      <trkpt lat="51.156442" lon="5.817801">
        <ele>29.696049</ele>
        <time>2023-03-05T08:48:06.000Z</time>
      </trkpt>
      <trkpt lat="51.156480" lon="5.817714">
        <ele>29.743953</ele>
        <time>2023-03-05T08:48:07.000Z</time>
      </trkpt>
      <trkpt lat="51.156518" lon="5.817627">
        <ele>29.791857</ele>
        <time>2023-03-05T08:48:08.000Z</time>
      </trkpt>
      <trkpt lat="51.156554" lon="5.817537">
        <ele>29.840089</ele>
        <time>2023-03-05T08:48:09.000Z</time>
      </trkpt>
      <trkpt lat="51.156588" lon="5.817450">
        <ele>29.886407</ele>
        <time>2023-03-05T08:48:10.000Z</time>
      </trkpt>
      <trkpt lat="51.156625" lon="5.817365">
        <ele>29.933157</ele>
        <time>2023-03-05T08:48:11.000Z</time>
      </trkpt>
      <trkpt lat="51.156665" lon="5.817281">
        <ele>29.980812</ele>
        <time>2023-03-05T08:48:12.000Z</time>
      </trkpt>
      <trkpt lat="51.156702" lon="5.817195">
        <ele>30.027934</ele>
        <time>2023-03-05T08:48:13.000Z</time>
      </trkpt>
      <trkpt lat="51.156737" lon="5.817107">
        <ele>30.075017</ele>
        <time>2023-03-05T08:48:14.000Z</time>
      </trkpt>
      <trkpt lat="51.156769" lon="5.817020">
        <ele>30.120589</ele>
        <time>2023-03-05T08:48:15.000Z</time>
      </trkpt>
      <trkpt lat="51.156799" lon="5.816939">
        <ele>30.163093</ele>
        <time>2023-03-05T08:48:16.000Z</time>
      </trkpt>
      <trkpt lat="51.156823" lon="5.816858">
        <ele>30.203571</ele>
        <time>2023-03-05T08:48:17.000Z</time>
      </trkpt>
      <trkpt lat="51.156844" lon="5.816773">
        <ele>30.244850</ele>
        <time>2023-03-05T08:48:18.000Z</time>
      </trkpt>
      <trkpt lat="51.156865" lon="5.816683">
        <ele>30.288239</ele>
        <time>2023-03-05T08:48:19.000Z</time>
      </trkpt>
      <trkpt lat="51.156879" lon="5.816592">
        <ele>30.330575</ele>
        <time>2023-03-05T08:48:20.000Z</time>
      </trkpt>
      <trkpt lat="51.156895" lon="5.816499">
        <ele>30.374149</ele>
        <time>2023-03-05T08:48:21.000Z</time>
      </trkpt>
      <trkpt lat="51.156910" lon="5.816403">
        <ele>30.418852</ele>
        <time>2023-03-05T08:48:22.000Z</time>
      </trkpt>
      <trkpt lat="51.156919" lon="5.816310">
        <ele>30.461370</ele>
        <time>2023-03-05T08:48:23.000Z</time>
      </trkpt>
      <trkpt lat="51.156926" lon="5.816220">
        <ele>30.502347</ele>
        <time>2023-03-05T08:48:24.000Z</time>
      </trkpt>
      <trkpt lat="51.156934" lon="5.816131">
        <ele>30.542972</ele>
        <time>2023-03-05T08:48:25.000Z</time>
      </trkpt>
      <trkpt lat="51.156941" lon="5.816041">
        <ele>30.609358</ele>
        <time>2023-03-05T08:48:26.000Z</time>
      </trkpt>
      <trkpt lat="51.156949" lon="5.815949">
        <ele>30.686690</ele>
        <time>2023-03-05T08:48:27.000Z</time>
      </trkpt>
      <trkpt lat="51.156957" lon="5.815854">
        <ele>30.766497</ele>
        <time>2023-03-05T08:48:28.000Z</time>
      </trkpt>
      <trkpt lat="51.156962" lon="5.815761">
        <ele>30.844213</ele>
        <time>2023-03-05T08:48:29.000Z</time>
      </trkpt>
      <trkpt lat="51.156968" lon="5.815670">
        <ele>30.920397</ele>
        <time>2023-03-05T08:48:30.000Z</time>
      </trkpt>
      <trkpt lat="51.156973" lon="5.815579">
        <ele>30.996454</ele>
        <time>2023-03-05T08:48:31.000Z</time>
      </trkpt>
      <trkpt lat="51.156980" lon="5.815487">
        <ele>31.073615</ele>
        <time>2023-03-05T08:48:32.000Z</time>
      </trkpt>
      <trkpt lat="51.156985" lon="5.815398">
        <ele>31.148014</ele>
        <time>2023-03-05T08:48:33.000Z</time>
      </trkpt>
      <trkpt lat="51.156986" lon="5.815306">
        <ele>31.224625</ele>
        <time>2023-03-05T08:48:34.000Z</time>
      </trkpt>
      <trkpt lat="51.156989" lon="5.815209">
        <ele>31.305485</ele>
        <time>2023-03-05T08:48:35.000Z</time>
      </trkpt>
      <trkpt lat="51.156990" lon="5.815112">
        <ele>31.386258</ele>
        <time>2023-03-05T08:48:36.000Z</time>
      </trkpt>
      <trkpt lat="51.156990" lon="5.815014">
        <ele>31.467853</ele>
        <time>2023-03-05T08:48:37.000Z</time>
      </trkpt>
      <trkpt lat="51.156992" lon="5.814919">
        <ele>31.546995</ele>
        <time>2023-03-05T08:48:38.000Z</time>
      </trkpt>
      <trkpt lat="51.156994" lon="5.814824">
        <ele>31.626137</ele>
        <time>2023-03-05T08:48:39.000Z</time>
      </trkpt>
      <trkpt lat="51.156999" lon="5.814728">
        <ele>31.706342</ele>
        <time>2023-03-05T08:48:40.000Z</time>
      </trkpt>
      <trkpt lat="51.157004" lon="5.814632">
        <ele>31.786547</ele>
        <time>2023-03-05T08:48:41.000Z</time>
      </trkpt>
      <trkpt lat="51.157008" lon="5.814538">
        <ele>31.864991</ele>
        <time>2023-03-05T08:48:42.000Z</time>
      </trkpt>
      <trkpt lat="51.157014" lon="5.814445">
        <ele>31.942832</ele>
        <time>2023-03-05T08:48:43.000Z</time>
      </trkpt>
      <trkpt lat="51.157019" lon="5.814355">
        <ele>32.018059</ele>
        <time>2023-03-05T08:48:44.000Z</time>
      </trkpt>
      <trkpt lat="51.157025" lon="5.814266">
        <ele>32.092588</ele>
        <time>2023-03-05T08:48:45.000Z</time>
      </trkpt>
      <trkpt lat="51.157031" lon="5.814178">
        <ele>32.166288</ele>
        <time>2023-03-05T08:48:46.000Z</time>
      </trkpt>
      <trkpt lat="51.157032" lon="5.814093">
        <ele>32.237072</ele>
        <time>2023-03-05T08:48:47.000Z</time>
      </trkpt>
      <trkpt lat="51.157034" lon="5.814009">
        <ele>32.307061</ele>
        <time>2023-03-05T08:48:48.000Z</time>
      </trkpt>
      <trkpt lat="51.157038" lon="5.813920">
        <ele>32.381352</ele>
        <time>2023-03-05T08:48:49.000Z</time>
      </trkpt>
      <trkpt lat="51.157044" lon="5.813829">
        <ele>32.457536</ele>
        <time>2023-03-05T08:48:50.000Z</time>
      </trkpt>
      <trkpt lat="51.157050" lon="5.813740">
        <ele>32.532065</ele>
        <time>2023-03-05T08:48:51.000Z</time>
      </trkpt>
      <trkpt lat="51.157056" lon="5.813655">
        <ele>32.603283</ele>
        <time>2023-03-05T08:48:52.000Z</time>
      </trkpt>
      <trkpt lat="51.157064" lon="5.813573">
        <ele>32.672377</ele>
        <time>2023-03-05T08:48:53.000Z</time>
      </trkpt>
      <trkpt lat="51.157073" lon="5.813492">
        <ele>32.740868</ele>
        <time>2023-03-05T08:48:54.000Z</time>
      </trkpt>
      <trkpt lat="51.157083" lon="5.813411">
        <ele>32.809603</ele>
        <time>2023-03-05T08:48:55.000Z</time>
      </trkpt>
      <trkpt lat="51.157090" lon="5.813333">
        <ele>32.875207</ele>
        <time>2023-03-05T08:48:56.000Z</time>
      </trkpt>
      <trkpt lat="51.157095" lon="5.813258">
        <ele>32.938004</ele>
        <time>2023-03-05T08:48:57.000Z</time>
      </trkpt>
      <trkpt lat="51.157102" lon="5.813189">
        <ele>32.948818</ele>
        <time>2023-03-05T08:48:58.000Z</time>
      </trkpt>
      <trkpt lat="51.157107" lon="5.813133">
        <ele>32.955102</ele>
        <time>2023-03-05T08:48:59.000Z</time>
      </trkpt>
      <trkpt lat="51.157113" lon="5.813086">
        <ele>32.960431</ele>
        <time>2023-03-05T08:49:00.000Z</time>
      </trkpt>
      <trkpt lat="51.157121" lon="5.813044">
        <ele>32.965307</ele>
        <time>2023-03-05T08:49:01.000Z</time>
      </trkpt>
      <trkpt lat="51.157126" lon="5.813006">
        <ele>32.969621</ele>
        <time>2023-03-05T08:49:02.000Z</time>
      </trkpt>
      <trkpt lat="51.157132" lon="5.812969">
        <ele>32.973866</ele>
        <time>2023-03-05T08:49:03.000Z</time>
      </trkpt>
      <trkpt lat="51.157140" lon="5.812935">
        <ele>32.977900</ele>
        <time>2023-03-05T08:49:04.000Z</time>
      </trkpt>
      <trkpt lat="51.157147" lon="5.812901">
        <ele>32.981876</ele>
        <time>2023-03-05T08:49:05.000Z</time>
      </trkpt>
      <trkpt lat="51.157155" lon="5.812857">
        <ele>32.986965</ele>
        <time>2023-03-05T08:49:06.000Z</time>
      </trkpt>
      <trkpt lat="51.157165" lon="5.812808">
        <ele>32.992690</ele>
        <time>2023-03-05T08:49:07.000Z</time>
      </trkpt>
      <trkpt lat="51.157177" lon="5.812756">
        <ele>32.998845</ele>
        <time>2023-03-05T08:49:08.000Z</time>
      </trkpt>
      <trkpt lat="51.157190" lon="5.812699">
        <ele>33.005583</ele>
        <time>2023-03-05T08:49:09.000Z</time>
      </trkpt>
      <trkpt lat="51.157203" lon="5.812643">
        <ele>33.012217</ele>
        <time>2023-03-05T08:49:10.000Z</time>
      </trkpt>
      <trkpt lat="51.157217" lon="5.812584">
        <ele>33.019225</ele>
        <time>2023-03-05T08:49:11.000Z</time>
      </trkpt>
      <trkpt lat="51.157232" lon="5.812527">
        <ele>33.026092</ele>
        <time>2023-03-05T08:49:12.000Z</time>
      </trkpt>
      <trkpt lat="51.157247" lon="5.812471">
        <ele>33.032857</ele>
        <time>2023-03-05T08:49:13.000Z</time>
      </trkpt>
      <trkpt lat="51.157260" lon="5.812416">
        <ele>33.039386</ele>
        <time>2023-03-05T08:49:14.000Z</time>
      </trkpt>
      <trkpt lat="51.157274" lon="5.812361">
        <ele>33.045980</ele>
        <time>2023-03-05T08:49:15.000Z</time>
      </trkpt>
      <trkpt lat="51.157290" lon="5.812306">
        <ele>33.052716</ele>
        <time>2023-03-05T08:49:16.000Z</time>
      </trkpt>
      <trkpt lat="51.157305" lon="5.812253">
        <ele>33.059176</ele>
        <time>2023-03-05T08:49:17.000Z</time>
      </trkpt>
      <trkpt lat="51.157323" lon="5.812200">
        <ele>33.065871</ele>
        <time>2023-03-05T08:49:18.000Z</time>
      </trkpt>
      <trkpt lat="51.157339" lon="5.812148">
        <ele>33.072306</ele>
        <time>2023-03-05T08:49:19.000Z</time>
      </trkpt>
      <trkpt lat="51.157354" lon="5.812097">
        <ele>33.078564</ele>
        <time>2023-03-05T08:49:20.000Z</time>
      </trkpt>
      <trkpt lat="51.157372" lon="5.812048">
        <ele>33.084872</ele>
        <time>2023-03-05T08:49:21.000Z</time>
      </trkpt>
      <trkpt lat="51.157389" lon="5.812000">
        <ele>33.090996</ele>
        <time>2023-03-05T08:49:22.000Z</time>
      </trkpt>
      <trkpt lat="51.157404" lon="5.811952">
        <ele>33.096954</ele>
        <time>2023-03-05T08:49:23.000Z</time>
      </trkpt>
      <trkpt lat="51.157422" lon="5.811901">
        <ele>33.103455</ele>
        <time>2023-03-05T08:49:24.000Z</time>
      </trkpt>
      <trkpt lat="51.157441" lon="5.811847">
        <ele>33.110334</ele>
        <time>2023-03-05T08:49:25.000Z</time>
      </trkpt>
      <trkpt lat="51.157460" lon="5.811787">
        <ele>33.117801</ele>
        <time>2023-03-05T08:49:26.000Z</time>
      </trkpt>
      <trkpt lat="51.157481" lon="5.811719">
        <ele>33.126221</ele>
        <time>2023-03-05T08:49:27.000Z</time>
      </trkpt>
      <trkpt lat="51.157506" lon="5.811647">
        <ele>33.135364</ele>
        <time>2023-03-05T08:49:28.000Z</time>
      </trkpt>
      <trkpt lat="51.157533" lon="5.811571">
        <ele>33.145067</ele>
        <time>2023-03-05T08:49:29.000Z</time>
      </trkpt>
      <trkpt lat="51.157560" lon="5.811496">
        <ele>33.154674</ele>
        <time>2023-03-05T08:49:30.000Z</time>
      </trkpt>
      <trkpt lat="51.157587" lon="5.811422">
        <ele>33.164185</ele>
        <time>2023-03-05T08:49:31.000Z</time>
      </trkpt>
      <trkpt lat="51.157613" lon="5.811350">
        <ele>33.173414</ele>
        <time>2023-03-05T08:49:32.000Z</time>
      </trkpt>
      <trkpt lat="51.157642" lon="5.811278">
        <ele>33.182920</ele>
        <time>2023-03-05T08:49:33.000Z</time>
      </trkpt>
      <trkpt lat="51.157672" lon="5.811208">
        <ele>33.192339</ele>
        <time>2023-03-05T08:49:34.000Z</time>
      </trkpt>
      <trkpt lat="51.157703" lon="5.811136">
        <ele>33.202041</ele>
        <time>2023-03-05T08:49:35.000Z</time>
      </trkpt>
      <trkpt lat="51.157736" lon="5.811063">
        <ele>33.212038</ele>
        <time>2023-03-05T08:49:36.000Z</time>
      </trkpt>
      <trkpt lat="51.157768" lon="5.810992">
        <ele>33.221751</ele>
        <time>2023-03-05T08:49:37.000Z</time>
      </trkpt>
      <trkpt lat="51.157799" lon="5.810920">
        <ele>33.231453</ele>
        <time>2023-03-05T08:49:38.000Z</time>
      </trkpt>
      <trkpt lat="51.157827" lon="5.810852">
        <ele>33.240490</ele>
        <time>2023-03-05T08:49:39.000Z</time>
      </trkpt>
      <trkpt lat="51.157858" lon="5.810784">
        <ele>33.249829</ele>
        <time>2023-03-05T08:49:40.000Z</time>
      </trkpt>
      <trkpt lat="51.157891" lon="5.810718">
        <ele>33.259205</ele>
        <time>2023-03-05T08:49:41.000Z</time>
      </trkpt>
      <trkpt lat="51.157921" lon="5.810656">
        <ele>33.233725</ele>
        <time>2023-03-05T08:49:42.000Z</time>
      </trkpt>
      <trkpt lat="51.157951" lon="5.810594">
        <ele>33.204252</ele>
        <time>2023-03-05T08:49:43.000Z</time>
      </trkpt>
      <trkpt lat="51.157982" lon="5.810531">
        <ele>33.174112</ele>
        <time>2023-03-05T08:49:44.000Z</time>
      </trkpt>
      <trkpt lat="51.158013" lon="5.810468">
        <ele>33.143973</ele>
        <time>2023-03-05T08:49:45.000Z</time>
      </trkpt>
      <trkpt lat="51.158043" lon="5.810403">
        <ele>33.113598</ele>
        <time>2023-03-05T08:49:46.000Z</time>
      </trkpt>
      <trkpt lat="51.158073" lon="5.810336">
        <ele>33.082613</ele>
        <time>2023-03-05T08:49:47.000Z</time>
      </trkpt>
      <trkpt lat="51.158101" lon="5.810266">
        <ele>33.051363</ele>
        <time>2023-03-05T08:49:48.000Z</time>
      </trkpt>
      <trkpt lat="51.158131" lon="5.810195">
        <ele>33.019141</ele>
        <time>2023-03-05T08:49:49.000Z</time>
      </trkpt>
      <trkpt lat="51.158157" lon="5.810122">
        <ele>32.987544</ele>
        <time>2023-03-05T08:49:50.000Z</time>
      </trkpt>
      <trkpt lat="51.158182" lon="5.810047">
        <ele>32.955576</ele>
        <time>2023-03-05T08:49:51.000Z</time>
      </trkpt>
      <trkpt lat="51.158204" lon="5.809970">
        <ele>32.923728</ele>
        <time>2023-03-05T08:49:52.000Z</time>
      </trkpt>
      <trkpt lat="51.158223" lon="5.809889">
        <ele>32.891179</ele>
        <time>2023-03-05T08:49:53.000Z</time>
      </trkpt>
      <trkpt lat="51.158239" lon="5.809805">
        <ele>32.858137</ele>
        <time>2023-03-05T08:49:54.000Z</time>
      </trkpt>
      <trkpt lat="51.158252" lon="5.809719">
        <ele>32.824841</ele>
        <time>2023-03-05T08:49:55.000Z</time>
      </trkpt>
      <trkpt lat="51.158264" lon="5.809633">
        <ele>32.791681</ele>
        <time>2023-03-05T08:49:56.000Z</time>
      </trkpt>
      <trkpt lat="51.158268" lon="5.809545">
        <ele>32.758472</ele>
        <time>2023-03-05T08:49:57.000Z</time>
      </trkpt>
      <trkpt lat="51.158266" lon="5.809457">
        <ele>32.725329</ele>
        <time>2023-03-05T08:49:58.000Z</time>
      </trkpt>
      <trkpt lat="51.158259" lon="5.809370">
        <ele>32.692315</ele>
        <time>2023-03-05T08:49:59.000Z</time>
      </trkpt>
      <trkpt lat="51.158249" lon="5.809283">
        <ele>32.659024</ele>
        <time>2023-03-05T08:50:00.000Z</time>
      </trkpt>
      <trkpt lat="51.158236" lon="5.809201">
        <ele>32.627190</ele>
        <time>2023-03-05T08:50:01.000Z</time>
      </trkpt>
      <trkpt lat="51.158220" lon="5.809116">
        <ele>32.593788</ele>
        <time>2023-03-05T08:50:02.000Z</time>
      </trkpt>
      <trkpt lat="51.158203" lon="5.809031">
        <ele>32.560208</ele>
        <time>2023-03-05T08:50:03.000Z</time>
      </trkpt>
      <trkpt lat="51.158186" lon="5.808949">
        <ele>32.527702</ele>
        <time>2023-03-05T08:50:04.000Z</time>
      </trkpt>
      <trkpt lat="51.158171" lon="5.808867">
        <ele>32.495553</ele>
        <time>2023-03-05T08:50:05.000Z</time>
      </trkpt>
      <trkpt lat="51.158153" lon="5.808787">
        <ele>32.463563</ele>
        <time>2023-03-05T08:50:06.000Z</time>
      </trkpt>
      <trkpt lat="51.158136" lon="5.808709">
        <ele>32.432483</ele>
        <time>2023-03-05T08:50:07.000Z</time>
      </trkpt>
      <trkpt lat="51.158121" lon="5.808635">
        <ele>32.403212</ele>
        <time>2023-03-05T08:50:08.000Z</time>
      </trkpt>
      <trkpt lat="51.158106" lon="5.808561">
        <ele>32.373941</ele>
        <time>2023-03-05T08:50:09.000Z</time>
      </trkpt>
      <trkpt lat="51.158090" lon="5.808488">
        <ele>32.344835</ele>
        <time>2023-03-05T08:50:10.000Z</time>
      </trkpt>
      <trkpt lat="51.158075" lon="5.808419">
        <ele>32.317349</ele>
        <time>2023-03-05T08:50:11.000Z</time>
      </trkpt>
      <trkpt lat="51.158065" lon="5.808350">
        <ele>32.290694</ele>
        <time>2023-03-05T08:50:12.000Z</time>
      </trkpt>
      <trkpt lat="51.158064" lon="5.808284">
        <ele>32.265846</ele>
        <time>2023-03-05T08:50:13.000Z</time>
      </trkpt>
      <trkpt lat="51.158080" lon="5.808228">
        <ele>32.242684</ele>
        <time>2023-03-05T08:50:14.000Z</time>
      </trkpt>
      <trkpt lat="51.158115" lon="5.808189">
        <ele>32.217059</ele>
        <time>2023-03-05T08:50:15.000Z</time>
      </trkpt>
      <trkpt lat="51.158162" lon="5.808166">
        <ele>32.187554</ele>
        <time>2023-03-05T08:50:16.000Z</time>
      </trkpt>
      <trkpt lat="51.158216" lon="5.808155">
        <ele>32.185980</ele>
        <time>2023-03-05T08:50:17.000Z</time>
      </trkpt>
      <trkpt lat="51.158273" lon="5.808148">
        <ele>32.192994</ele>
        <time>2023-03-05T08:50:18.000Z</time>
      </trkpt>
      <trkpt lat="51.158330" lon="5.808141">
        <ele>32.200009</ele>
        <time>2023-03-05T08:50:19.000Z</time>
      </trkpt>
      <trkpt lat="51.158392" lon="5.808135">
        <ele>32.207630</ele>
        <time>2023-03-05T08:50:20.000Z</time>
      </trkpt>
      <trkpt lat="51.158458" lon="5.808128">
        <ele>32.215747</ele>
        <time>2023-03-05T08:50:21.000Z</time>
      </trkpt>
      <trkpt lat="51.158520" lon="5.808121">
        <ele>32.223373</ele>
        <time>2023-03-05T08:50:22.000Z</time>
      </trkpt>
      <trkpt lat="51.158581" lon="5.808114">
        <ele>32.230877</ele>
        <time>2023-03-05T08:50:23.000Z</time>
      </trkpt>
      <trkpt lat="51.158644" lon="5.808107">
        <ele>32.238626</ele>
        <time>2023-03-05T08:50:24.000Z</time>
      </trkpt>
      <trkpt lat="51.158709" lon="5.808101">
        <ele>32.246615</ele>
        <time>2023-03-05T08:50:25.000Z</time>
      </trkpt>
      <trkpt lat="51.158772" lon="5.808093">
        <ele>32.254370</ele>
        <time>2023-03-05T08:50:26.000Z</time>
      </trkpt>
      <trkpt lat="51.158833" lon="5.808083">
        <ele>32.261894</ele>
        <time>2023-03-05T08:50:27.000Z</time>
      </trkpt>
      <trkpt lat="51.158894" lon="5.808068">
        <ele>32.269467</ele>
        <time>2023-03-05T08:50:28.000Z</time>
      </trkpt>
      <trkpt lat="51.158955" lon="5.808046">
        <ele>32.277141</ele>
        <time>2023-03-05T08:50:29.000Z</time>
      </trkpt>
      <trkpt lat="51.159011" lon="5.808017">
        <ele>32.284366</ele>
        <time>2023-03-05T08:50:30.000Z</time>
      </trkpt>
      <trkpt lat="51.159067" lon="5.807979">
        <ele>32.291833</ele>
        <time>2023-03-05T08:50:31.000Z</time>
      </trkpt>
      <trkpt lat="51.159124" lon="5.807933">
        <ele>32.299672</ele>
        <time>2023-03-05T08:50:32.000Z</time>
      </trkpt>
      <trkpt lat="51.159181" lon="5.807880">
        <ele>32.307768</ele>
        <time>2023-03-05T08:50:33.000Z</time>
      </trkpt>
      <trkpt lat="51.159239" lon="5.807822">
        <ele>32.316169</ele>
        <time>2023-03-05T08:50:34.000Z</time>
      </trkpt>
      <trkpt lat="51.159293" lon="5.807759">
        <ele>32.324379</ele>
        <time>2023-03-05T08:50:35.000Z</time>
      </trkpt>
      <trkpt lat="51.159344" lon="5.807692">
        <ele>32.332487</ele>
        <time>2023-03-05T08:50:36.000Z</time>
      </trkpt>
      <trkpt lat="51.159394" lon="5.807623">
        <ele>32.340601</ele>
        <time>2023-03-05T08:50:37.000Z</time>
      </trkpt>
      <trkpt lat="51.159443" lon="5.807555">
        <ele>32.348571</ele>
        <time>2023-03-05T08:50:38.000Z</time>
      </trkpt>
      <trkpt lat="51.159492" lon="5.807491">
        <ele>32.356343</ele>
        <time>2023-03-05T08:50:39.000Z</time>
      </trkpt>
      <trkpt lat="51.159542" lon="5.807424">
        <ele>32.364357</ele>
        <time>2023-03-05T08:50:40.000Z</time>
      </trkpt>
      <trkpt lat="51.159590" lon="5.807357">
        <ele>32.372185</ele>
        <time>2023-03-05T08:50:41.000Z</time>
      </trkpt>
      <trkpt lat="51.159638" lon="5.807290">
        <ele>32.380012</ele>
        <time>2023-03-05T08:50:42.000Z</time>
      </trkpt>
      <trkpt lat="51.159690" lon="5.807222">
        <ele>32.388264</ele>
        <time>2023-03-05T08:50:43.000Z</time>
      </trkpt>
      <trkpt lat="51.159739" lon="5.807155">
        <ele>32.396184</ele>
        <time>2023-03-05T08:50:44.000Z</time>
      </trkpt>
      <trkpt lat="51.159787" lon="5.807089">
        <ele>32.407309</ele>
        <time>2023-03-05T08:50:45.000Z</time>
      </trkpt>
      <trkpt lat="51.159837" lon="5.807023">
        <ele>32.425669</ele>
        <time>2023-03-05T08:50:46.000Z</time>
      </trkpt>
      <trkpt lat="51.159884" lon="5.806956">
        <ele>32.443501</ele>
        <time>2023-03-05T08:50:47.000Z</time>
      </trkpt>
      <trkpt lat="51.159932" lon="5.806890">
        <ele>32.461429</ele>
        <time>2023-03-05T08:50:48.000Z</time>
      </trkpt>
      <trkpt lat="51.159979" lon="5.806824">
        <ele>32.479143</ele>
        <time>2023-03-05T08:50:49.000Z</time>
      </trkpt>
      <trkpt lat="51.160025" lon="5.806757">
        <ele>32.496765</ele>
        <time>2023-03-05T08:50:50.000Z</time>
      </trkpt>
      <trkpt lat="51.160073" lon="5.806692">
        <ele>32.514578</ele>
        <time>2023-03-05T08:50:51.000Z</time>
      </trkpt>
      <trkpt lat="51.160118" lon="5.806628">
        <ele>32.531633</ele>
        <time>2023-03-05T08:50:52.000Z</time>
      </trkpt>
      <trkpt lat="51.160164" lon="5.806564">
        <ele>32.548901</ele>
        <time>2023-03-05T08:50:53.000Z</time>
      </trkpt>
      <trkpt lat="51.160209" lon="5.806502">
        <ele>32.565723</ele>
        <time>2023-03-05T08:50:54.000Z</time>
      </trkpt>
      <trkpt lat="51.160255" lon="5.806442">
        <ele>32.582533</ele>
        <time>2023-03-05T08:50:55.000Z</time>
      </trkpt>
      <trkpt lat="51.160300" lon="5.806383">
        <ele>32.599011</ele>
        <time>2023-03-05T08:50:56.000Z</time>
      </trkpt>
      <trkpt lat="51.160342" lon="5.806323">
        <ele>32.614962</ele>
        <time>2023-03-05T08:50:57.000Z</time>
      </trkpt>
      <trkpt lat="51.160384" lon="5.806266">
        <ele>32.630562</ele>
        <time>2023-03-05T08:50:58.000Z</time>
      </trkpt>
      <trkpt lat="51.160426" lon="5.806211">
        <ele>32.645934</ele>
        <time>2023-03-05T08:50:59.000Z</time>
      </trkpt>
      <trkpt lat="51.160466" lon="5.806156">
        <ele>32.660874</ele>
        <time>2023-03-05T08:51:00.000Z</time>
      </trkpt>
      <trkpt lat="51.160505" lon="5.806104">
        <ele>32.675253</ele>
        <time>2023-03-05T08:51:01.000Z</time>
      </trkpt>
      <trkpt lat="51.160543" lon="5.806053">
        <ele>32.689302</ele>
        <time>2023-03-05T08:51:02.000Z</time>
      </trkpt>
      <trkpt lat="51.160580" lon="5.806004">
        <ele>32.702907</ele>
        <time>2023-03-05T08:51:03.000Z</time>
      </trkpt>
      <trkpt lat="51.160614" lon="5.805960">
        <ele>32.715292</ele>
        <time>2023-03-05T08:51:04.000Z</time>
      </trkpt>
      <trkpt lat="51.160644" lon="5.805919">
        <ele>32.726468</ele>
        <time>2023-03-05T08:51:05.000Z</time>
      </trkpt>
      <trkpt lat="51.160675" lon="5.805880">
        <ele>32.737637</ele>
        <time>2023-03-05T08:51:06.000Z</time>
      </trkpt>
      <trkpt lat="51.160703" lon="5.805843">
        <ele>32.747923</ele>
        <time>2023-03-05T08:51:07.000Z</time>
      </trkpt>
      <trkpt lat="51.160730" lon="5.805808">
        <ele>32.757765</ele>
        <time>2023-03-05T08:51:08.000Z</time>
      </trkpt>
      <trkpt lat="51.160757" lon="5.805772">
        <ele>32.767720</ele>
        <time>2023-03-05T08:51:09.000Z</time>
      </trkpt>
      <trkpt lat="51.160776" lon="5.805728">
        <ele>32.777197</ele>
        <time>2023-03-05T08:51:10.000Z</time>
      </trkpt>
      <trkpt lat="51.160784" lon="5.805671">
        <ele>32.787558</ele>
        <time>2023-03-05T08:51:11.000Z</time>
      </trkpt>
      <trkpt lat="51.160781" lon="5.805608">
        <ele>32.798765</ele>
        <time>2023-03-05T08:51:12.000Z</time>
      </trkpt>
      <trkpt lat="51.160764" lon="5.805543">
        <ele>32.811258</ele>
        <time>2023-03-05T08:51:13.000Z</time>
      </trkpt>
      <trkpt lat="51.160736" lon="5.805474">
        <ele>32.825836</ele>
        <time>2023-03-05T08:51:14.000Z</time>
      </trkpt>
      <trkpt lat="51.160703" lon="5.805403">
        <ele>32.841513</ele>
        <time>2023-03-05T08:51:15.000Z</time>
      </trkpt>
      <trkpt lat="51.160669" lon="5.805327">
        <ele>32.858073</ele>
        <time>2023-03-05T08:51:16.000Z</time>
      </trkpt>
      <trkpt lat="51.160635" lon="5.805252">
        <ele>32.874489</ele>
        <time>2023-03-05T08:51:17.000Z</time>
      </trkpt>
      <trkpt lat="51.160605" lon="5.805185">
        <ele>32.889092</ele>
        <time>2023-03-05T08:51:18.000Z</time>
      </trkpt>
      <trkpt lat="51.160576" lon="5.805126">
        <ele>32.902389</ele>
        <time>2023-03-05T08:51:19.000Z</time>
      </trkpt>
      <trkpt lat="51.160546" lon="5.805061">
        <ele>32.903326</ele>
        <time>2023-03-05T08:51:20.000Z</time>
      </trkpt>
      <trkpt lat="51.160515" lon="5.804990">
        <ele>32.887374</ele>
        <time>2023-03-05T08:51:21.000Z</time>
      </trkpt>
      <trkpt lat="51.160482" lon="5.804918">
        <ele>32.870930</ele>
        <time>2023-03-05T08:51:22.000Z</time>
      </trkpt>
      <trkpt lat="51.160448" lon="5.804846">
        <ele>32.854311</ele>
        <time>2023-03-05T08:51:23.000Z</time>
      </trkpt>
      <trkpt lat="51.160413" lon="5.804765">
        <ele>32.836174</ele>
        <time>2023-03-05T08:51:24.000Z</time>
      </trkpt>
      <trkpt lat="51.160381" lon="5.804685">
        <ele>32.818677</ele>
        <time>2023-03-05T08:51:25.000Z</time>
      </trkpt>
      <trkpt lat="51.160344" lon="5.804603">
        <ele>32.800050</ele>
        <time>2023-03-05T08:51:26.000Z</time>
      </trkpt>
      <trkpt lat="51.160307" lon="5.804523">
        <ele>32.781722</ele>
        <time>2023-03-05T08:51:27.000Z</time>
      </trkpt>
      <trkpt lat="51.160268" lon="5.804445">
        <ele>32.763327</ele>
        <time>2023-03-05T08:51:28.000Z</time>
      </trkpt>
      <trkpt lat="51.160229" lon="5.804365">
        <ele>32.744644</ele>
        <time>2023-03-05T08:51:29.000Z</time>
      </trkpt>
      <trkpt lat="51.160188" lon="5.804281">
        <ele>32.725016</ele>
        <time>2023-03-05T08:51:30.000Z</time>
      </trkpt>
      <trkpt lat="51.160147" lon="5.804195">
        <ele>32.705097</ele>
        <time>2023-03-05T08:51:31.000Z</time>
      </trkpt>
      <trkpt lat="51.160107" lon="5.804107">
        <ele>32.685057</ele>
        <time>2023-03-05T08:51:32.000Z</time>
      </trkpt>
      <trkpt lat="51.160068" lon="5.804023">
        <ele>32.665785</ele>
        <time>2023-03-05T08:51:33.000Z</time>
      </trkpt>
      <trkpt lat="51.160030" lon="5.803939">
        <ele>32.646687</ele>
        <time>2023-03-05T08:51:34.000Z</time>
      </trkpt>
      <trkpt lat="51.159991" lon="5.803855">
        <ele>32.627415</ele>
        <time>2023-03-05T08:51:35.000Z</time>
      </trkpt>
      <trkpt lat="51.159956" lon="5.803775">
        <ele>32.609429</ele>
        <time>2023-03-05T08:51:36.000Z</time>
      </trkpt>
      <trkpt lat="51.159919" lon="5.803696">
        <ele>32.591248</ele>
        <time>2023-03-05T08:51:37.000Z</time>
      </trkpt>
      <trkpt lat="51.159881" lon="5.803616">
        <ele>32.572743</ele>
        <time>2023-03-05T08:51:38.000Z</time>
      </trkpt>
      <trkpt lat="51.159843" lon="5.803539">
        <ele>32.554676</ele>
        <time>2023-03-05T08:51:39.000Z</time>
      </trkpt>
      <trkpt lat="51.159804" lon="5.803461">
        <ele>32.536282</ele>
        <time>2023-03-05T08:51:40.000Z</time>
      </trkpt>
      <trkpt lat="51.159766" lon="5.803386">
        <ele>32.518503</ele>
        <time>2023-03-05T08:51:41.000Z</time>
      </trkpt>
      <trkpt lat="51.159728" lon="5.803315">
        <ele>32.501292</ele>
        <time>2023-03-05T08:51:42.000Z</time>
      </trkpt>
      <trkpt lat="51.159692" lon="5.803249">
        <ele>32.485163</ele>
        <time>2023-03-05T08:51:43.000Z</time>
      </trkpt>
      <trkpt lat="51.159654" lon="5.803178">
        <ele>32.467952</ele>
        <time>2023-03-05T08:51:44.000Z</time>
      </trkpt>
      <trkpt lat="51.159609" lon="5.803096">
        <ele>32.447860</ele>
        <time>2023-03-05T08:51:45.000Z</time>
      </trkpt>
      <trkpt lat="51.159563" lon="5.803013">
        <ele>32.427435</ele>
        <time>2023-03-05T08:51:46.000Z</time>
      </trkpt>
      <trkpt lat="51.159517" lon="5.802934">
        <ele>32.407558</ele>
        <time>2023-03-05T08:51:47.000Z</time>
      </trkpt>
      <trkpt lat="51.159467" lon="5.802856">
        <ele>32.386991</ele>
        <time>2023-03-05T08:51:48.000Z</time>
      </trkpt>
      <trkpt lat="51.159416" lon="5.802776">
        <ele>32.363328</ele>
        <time>2023-03-05T08:51:49.000Z</time>
      </trkpt>
      <trkpt lat="51.159364" lon="5.802697">
        <ele>32.338595</ele>
        <time>2023-03-05T08:51:50.000Z</time>
      </trkpt>
      <trkpt lat="51.159310" lon="5.802614">
        <ele>32.312767</ele>
        <time>2023-03-05T08:51:51.000Z</time>
      </trkpt>
      <trkpt lat="51.159257" lon="5.802532">
        <ele>32.287337</ele>
        <time>2023-03-05T08:51:52.000Z</time>
      </trkpt>
      <trkpt lat="51.159204" lon="5.802452">
        <ele>32.262206</ele>
        <time>2023-03-05T08:51:53.000Z</time>
      </trkpt>
      <trkpt lat="51.159150" lon="5.802374">
        <ele>32.237115</ele>
        <time>2023-03-05T08:51:54.000Z</time>
      </trkpt>
      <trkpt lat="51.159097" lon="5.802298">
        <ele>32.212570</ele>
        <time>2023-03-05T08:51:55.000Z</time>
      </trkpt>
      <trkpt lat="51.159046" lon="5.802224">
        <ele>32.188825</ele>
        <time>2023-03-05T08:51:56.000Z</time>
      </trkpt>
      <trkpt lat="51.158998" lon="5.802153">
        <ele>32.166279</ele>
        <time>2023-03-05T08:51:57.000Z</time>
      </trkpt>
      <trkpt lat="51.158950" lon="5.802086">
        <ele>32.144312</ele>
        <time>2023-03-05T08:51:58.000Z</time>
      </trkpt>
      <trkpt lat="51.158903" lon="5.802020">
        <ele>32.122745</ele>
        <time>2023-03-05T08:51:59.000Z</time>
      </trkpt>
      <trkpt lat="51.158857" lon="5.801954">
        <ele>32.101436</ele>
        <time>2023-03-05T08:52:00.000Z</time>
      </trkpt>
      <trkpt lat="51.158811" lon="5.801892">
        <ele>32.080695</ele>
        <time>2023-03-05T08:52:01.000Z</time>
      </trkpt>
      <trkpt lat="51.158763" lon="5.801827">
        <ele>32.059010</ele>
        <time>2023-03-05T08:52:02.000Z</time>
      </trkpt>
      <trkpt lat="51.158714" lon="5.801756">
        <ele>32.036210</ele>
        <time>2023-03-05T08:52:03.000Z</time>
      </trkpt>
      <trkpt lat="51.158662" lon="5.801680">
        <ele>32.011919</ele>
        <time>2023-03-05T08:52:04.000Z</time>
      </trkpt>
      <trkpt lat="51.158608" lon="5.801605">
        <ele>31.987259</ele>
        <time>2023-03-05T08:52:05.000Z</time>
      </trkpt>
      <trkpt lat="51.158558" lon="5.801531">
        <ele>31.963768</ele>
        <time>2023-03-05T08:52:06.000Z</time>
      </trkpt>
      <trkpt lat="51.158508" lon="5.801457">
        <ele>31.940276</ele>
        <time>2023-03-05T08:52:07.000Z</time>
      </trkpt>
      <trkpt lat="51.158456" lon="5.801383">
        <ele>31.916275</ele>
        <time>2023-03-05T08:52:08.000Z</time>
      </trkpt>
      <trkpt lat="51.158405" lon="5.801311">
        <ele>31.892819</ele>
        <time>2023-03-05T08:52:09.000Z</time>
      </trkpt>
      <trkpt lat="51.158355" lon="5.801242">
        <ele>31.870048</ele>
        <time>2023-03-05T08:52:10.000Z</time>
      </trkpt>
      <trkpt lat="51.158306" lon="5.801170">
        <ele>31.847103</ele>
        <time>2023-03-05T08:52:11.000Z</time>
      </trkpt>
      <trkpt lat="51.158259" lon="5.801100">
        <ele>31.824956</ele>
        <time>2023-03-05T08:52:12.000Z</time>
      </trkpt>
      <trkpt lat="51.158210" lon="5.801031">
        <ele>31.802444</ele>
        <time>2023-03-05T08:52:13.000Z</time>
      </trkpt>
      <trkpt lat="51.158163" lon="5.800963">
        <ele>31.780590</ele>
        <time>2023-03-05T08:52:14.000Z</time>
      </trkpt>
      <trkpt lat="51.158115" lon="5.800897">
        <ele>31.764852</ele>
        <time>2023-03-05T08:52:15.000Z</time>
      </trkpt>
      <trkpt lat="51.158068" lon="5.800833">
        <ele>31.784282</ele>
        <time>2023-03-05T08:52:16.000Z</time>
      </trkpt>
      <trkpt lat="51.158022" lon="5.800768">
        <ele>31.803604</ele>
        <time>2023-03-05T08:52:17.000Z</time>
      </trkpt>
      <trkpt lat="51.157976" lon="5.800702">
        <ele>31.823058</ele>
        <time>2023-03-05T08:52:18.000Z</time>
      </trkpt>
      <trkpt lat="51.157931" lon="5.800640">
        <ele>31.841755</ele>
        <time>2023-03-05T08:52:19.000Z</time>
      </trkpt>
      <trkpt lat="51.157885" lon="5.800575">
        <ele>31.861077</ele>
        <time>2023-03-05T08:52:20.000Z</time>
      </trkpt>
      <trkpt lat="51.157839" lon="5.800509">
        <ele>31.880531</ele>
        <time>2023-03-05T08:52:21.000Z</time>
      </trkpt>
      <trkpt lat="51.157791" lon="5.800446">
        <ele>31.900076</ele>
        <time>2023-03-05T08:52:22.000Z</time>
      </trkpt>
      <trkpt lat="51.157746" lon="5.800382">
        <ele>31.919032</ele>
        <time>2023-03-05T08:52:23.000Z</time>
      </trkpt>
      <trkpt lat="51.157699" lon="5.800317">
        <ele>31.938591</ele>
        <time>2023-03-05T08:52:24.000Z</time>
      </trkpt>
      <trkpt lat="51.157655" lon="5.800250">
        <ele>31.957718</ele>
        <time>2023-03-05T08:52:25.000Z</time>
      </trkpt>
      <trkpt lat="51.157610" lon="5.800183">
        <ele>31.977074</ele>
        <time>2023-03-05T08:52:26.000Z</time>
      </trkpt>
      <trkpt lat="51.157564" lon="5.800115">
        <ele>31.996794</ele>
        <time>2023-03-05T08:52:27.000Z</time>
      </trkpt>
      <trkpt lat="51.157520" lon="5.800049">
        <ele>32.015785</ele>
        <time>2023-03-05T08:52:28.000Z</time>
      </trkpt>
      <trkpt lat="51.157476" lon="5.799987">
        <ele>32.034245</ele>
        <time>2023-03-05T08:52:29.000Z</time>
      </trkpt>
      <trkpt lat="51.157431" lon="5.799925">
        <ele>32.052941</ele>
        <time>2023-03-05T08:52:30.000Z</time>
      </trkpt>
      <trkpt lat="51.157383" lon="5.799860">
        <ele>32.072739</ele>
        <time>2023-03-05T08:52:31.000Z</time>
      </trkpt>
      <trkpt lat="51.157336" lon="5.799796">
        <ele>32.092169</ele>
        <time>2023-03-05T08:52:32.000Z</time>
      </trkpt>
      <trkpt lat="51.157290" lon="5.799730">
        <ele>32.111623</ele>
        <time>2023-03-05T08:52:33.000Z</time>
      </trkpt>
      <trkpt lat="51.157245" lon="5.799664">
        <ele>32.130845</ele>
        <time>2023-03-05T08:52:34.000Z</time>
      </trkpt>
      <trkpt lat="51.157199" lon="5.799597">
        <ele>32.150431</ele>
        <time>2023-03-05T08:52:35.000Z</time>
      </trkpt>
      <trkpt lat="51.157150" lon="5.799530">
        <ele>32.170724</ele>
        <time>2023-03-05T08:52:36.000Z</time>
      </trkpt>
      <trkpt lat="51.157100" lon="5.799465">
        <ele>32.191005</ele>
        <time>2023-03-05T08:52:37.000Z</time>
      </trkpt>
      <trkpt lat="51.157053" lon="5.799398">
        <ele>32.210825</ele>
        <time>2023-03-05T08:52:38.000Z</time>
      </trkpt>
      <trkpt lat="51.157007" lon="5.799331">
        <ele>32.230411</ele>
        <time>2023-03-05T08:52:39.000Z</time>
      </trkpt>
      <trkpt lat="51.156959" lon="5.799264">
        <ele>32.250466</ele>
        <time>2023-03-05T08:52:40.000Z</time>
      </trkpt>
      <trkpt lat="51.156909" lon="5.799195">
        <ele>32.271255</ele>
        <time>2023-03-05T08:52:41.000Z</time>
      </trkpt>
      <trkpt lat="51.156862" lon="5.799127">
        <ele>32.291207</ele>
        <time>2023-03-05T08:52:42.000Z</time>
      </trkpt>
      <trkpt lat="51.156814" lon="5.799058">
        <ele>32.311524</ele>
        <time>2023-03-05T08:52:43.000Z</time>
      </trkpt>
      <trkpt lat="51.156764" lon="5.798987">
        <ele>32.329794</ele>
        <time>2023-03-05T08:52:44.000Z</time>
      </trkpt>
      <trkpt lat="51.156717" lon="5.798914">
        <ele>32.339378</ele>
        <time>2023-03-05T08:52:45.000Z</time>
      </trkpt>
      <trkpt lat="51.156669" lon="5.798843">
        <ele>32.348941</ele>
        <time>2023-03-05T08:52:46.000Z</time>
      </trkpt>
      <trkpt lat="51.156622" lon="5.798771">
        <ele>32.358461</ele>
        <time>2023-03-05T08:52:47.000Z</time>
      </trkpt>
      <trkpt lat="51.156576" lon="5.798696">
        <ele>32.368071</ele>
        <time>2023-03-05T08:52:48.000Z</time>
      </trkpt>
      <trkpt lat="51.156533" lon="5.798618">
        <ele>32.377584</ele>
        <time>2023-03-05T08:52:49.000Z</time>
      </trkpt>
      <trkpt lat="51.156491" lon="5.798538">
        <ele>32.387141</ele>
        <time>2023-03-05T08:52:50.000Z</time>
      </trkpt>
      <trkpt lat="51.156454" lon="5.798452">
        <ele>32.396694</ele>
        <time>2023-03-05T08:52:51.000Z</time>
      </trkpt>
      <trkpt lat="51.156419" lon="5.798366">
        <ele>32.406086</ele>
        <time>2023-03-05T08:52:52.000Z</time>
      </trkpt>
      <trkpt lat="51.156385" lon="5.798279">
        <ele>32.415476</ele>
        <time>2023-03-05T08:52:53.000Z</time>
      </trkpt>
      <trkpt lat="51.156353" lon="5.798189">
        <ele>32.424954</ele>
        <time>2023-03-05T08:52:54.000Z</time>
      </trkpt>
      <trkpt lat="51.156325" lon="5.798099">
        <ele>32.434157</ele>
        <time>2023-03-05T08:52:55.000Z</time>
      </trkpt>
      <trkpt lat="51.156301" lon="5.798006">
        <ele>32.443369</ele>
        <time>2023-03-05T08:52:56.000Z</time>
      </trkpt>
      <trkpt lat="51.156280" lon="5.797910">
        <ele>32.452683</ele>
        <time>2023-03-05T08:52:57.000Z</time>
      </trkpt>
      <trkpt lat="51.156263" lon="5.797812">
        <ele>32.461998</ele>
        <time>2023-03-05T08:52:58.000Z</time>
      </trkpt>
      <trkpt lat="51.156246" lon="5.797715">
        <ele>32.471224</ele>
        <time>2023-03-05T08:52:59.000Z</time>
      </trkpt>
      <trkpt lat="51.156229" lon="5.797616">
        <ele>32.480627</ele>
        <time>2023-03-05T08:53:00.000Z</time>
      </trkpt>
      <trkpt lat="51.156211" lon="5.797517">
        <ele>32.490069</ele>
        <time>2023-03-05T08:53:01.000Z</time>
      </trkpt>
      <trkpt lat="51.156197" lon="5.797420">
        <ele>32.499188</ele>
        <time>2023-03-05T08:53:02.000Z</time>
      </trkpt>
      <trkpt lat="51.156184" lon="5.797325">
        <ele>32.508095</ele>
        <time>2023-03-05T08:53:03.000Z</time>
      </trkpt>
      <trkpt lat="51.156168" lon="5.797224">
        <ele>32.517638</ele>
        <time>2023-03-05T08:53:04.000Z</time>
      </trkpt>
      <trkpt lat="51.156155" lon="5.797122">
        <ele>32.527173</ele>
        <time>2023-03-05T08:53:05.000Z</time>
      </trkpt>
      <trkpt lat="51.156141" lon="5.797023">
        <ele>32.536470</ele>
        <time>2023-03-05T08:53:06.000Z</time>
      </trkpt>
      <trkpt lat="51.156126" lon="5.796926">
        <ele>32.545622</ele>
        <time>2023-03-05T08:53:07.000Z</time>
      </trkpt>
      <trkpt lat="51.156111" lon="5.796831">
        <ele>32.554596</ele>
        <time>2023-03-05T08:53:08.000Z</time>
      </trkpt>
      <trkpt lat="51.156093" lon="5.796736">
        <ele>32.563687</ele>
        <time>2023-03-05T08:53:09.000Z</time>
      </trkpt>
      <trkpt lat="51.156074" lon="5.796637">
        <ele>32.573172</ele>
        <time>2023-03-05T08:53:10.000Z</time>
      </trkpt>
      <trkpt lat="51.156057" lon="5.796537">
        <ele>32.582663</ele>
        <time>2023-03-05T08:53:11.000Z</time>
      </trkpt>
      <trkpt lat="51.156044" lon="5.796440">
        <ele>32.587408</ele>
        <time>2023-03-05T08:53:12.000Z</time>
      </trkpt>
      <trkpt lat="51.156031" lon="5.796342">
        <ele>32.572572</ele>
        <time>2023-03-05T08:53:13.000Z</time>
      </trkpt>
      <trkpt lat="51.156015" lon="5.796241">
        <ele>32.557142</ele>
        <time>2023-03-05T08:53:14.000Z</time>
      </trkpt>
      <trkpt lat="51.156000" lon="5.796139">
        <ele>32.541625</ele>
        <time>2023-03-05T08:53:15.000Z</time>
      </trkpt>
      <trkpt lat="51.155987" lon="5.796039">
        <ele>32.526499</ele>
        <time>2023-03-05T08:53:16.000Z</time>
      </trkpt>
      <trkpt lat="51.155973" lon="5.795937">
        <ele>32.511034</ele>
        <time>2023-03-05T08:53:17.000Z</time>
      </trkpt>
      <trkpt lat="51.155963" lon="5.795837">
        <ele>32.496035</ele>
        <time>2023-03-05T08:53:18.000Z</time>
      </trkpt>
      <trkpt lat="51.155953" lon="5.795735">
        <ele>32.480744</ele>
        <time>2023-03-05T08:53:19.000Z</time>
      </trkpt>
      <trkpt lat="51.155946" lon="5.795629">
        <ele>32.464958</ele>
        <time>2023-03-05T08:53:20.000Z</time>
      </trkpt>
      <trkpt lat="51.155943" lon="5.795528">
        <ele>32.449981</ele>
        <time>2023-03-05T08:53:21.000Z</time>
      </trkpt>
      <trkpt lat="51.155939" lon="5.795424">
        <ele>32.434549</ele>
        <time>2023-03-05T08:53:22.000Z</time>
      </trkpt>
      <trkpt lat="51.155935" lon="5.795319">
        <ele>32.418968</ele>
        <time>2023-03-05T08:53:23.000Z</time>
      </trkpt>
      <trkpt lat="51.155933" lon="5.795215">
        <ele>32.403557</ele>
        <time>2023-03-05T08:53:24.000Z</time>
      </trkpt>
      <trkpt lat="51.155933" lon="5.795115">
        <ele>32.388746</ele>
        <time>2023-03-05T08:53:25.000Z</time>
      </trkpt>
      <trkpt lat="51.155933" lon="5.795013">
        <ele>32.373638</ele>
        <time>2023-03-05T08:53:26.000Z</time>
      </trkpt>
      <trkpt lat="51.155933" lon="5.794911">
        <ele>32.358531</ele>
        <time>2023-03-05T08:53:27.000Z</time>
      </trkpt>
      <trkpt lat="51.155933" lon="5.794809">
        <ele>32.343423</ele>
        <time>2023-03-05T08:53:28.000Z</time>
      </trkpt>
      <trkpt lat="51.155933" lon="5.794707">
        <ele>32.328315</ele>
        <time>2023-03-05T08:53:29.000Z</time>
      </trkpt>
      <trkpt lat="51.155933" lon="5.794603">
        <ele>32.312912</ele>
        <time>2023-03-05T08:53:30.000Z</time>
      </trkpt>
      <trkpt lat="51.155931" lon="5.794499">
        <ele>32.297501</ele>
        <time>2023-03-05T08:53:31.000Z</time>
      </trkpt>
      <trkpt lat="51.155930" lon="5.794394">
        <ele>32.281947</ele>
        <time>2023-03-05T08:53:32.000Z</time>
      </trkpt>
      <trkpt lat="51.155927" lon="5.794294">
        <ele>32.267119</ele>
        <time>2023-03-05T08:53:33.000Z</time>
      </trkpt>
      <trkpt lat="51.155926" lon="5.794191">
        <ele>32.251861</ele>
        <time>2023-03-05T08:53:34.000Z</time>
      </trkpt>
      <trkpt lat="51.155923" lon="5.794088">
        <ele>32.236589</ele>
        <time>2023-03-05T08:53:35.000Z</time>
      </trkpt>
      <trkpt lat="51.155922" lon="5.793988">
        <ele>32.221776</ele>
        <time>2023-03-05T08:53:36.000Z</time>
      </trkpt>
      <trkpt lat="51.155920" lon="5.793889">
        <ele>32.207105</ele>
        <time>2023-03-05T08:53:37.000Z</time>
      </trkpt>
      <trkpt lat="51.155918" lon="5.793790">
        <ele>32.192434</ele>
        <time>2023-03-05T08:53:38.000Z</time>
      </trkpt>
      <trkpt lat="51.155916" lon="5.793693">
        <ele>32.178059</ele>
        <time>2023-03-05T08:53:39.000Z</time>
      </trkpt>
      <trkpt lat="51.155914" lon="5.793595">
        <ele>32.165835</ele>
        <time>2023-03-05T08:53:40.000Z</time>
      </trkpt>
      <trkpt lat="51.155912" lon="5.793496">
        <ele>32.169840</ele>
        <time>2023-03-05T08:53:41.000Z</time>
      </trkpt>
      <trkpt lat="51.155908" lon="5.793398">
        <ele>32.173810</ele>
        <time>2023-03-05T08:53:42.000Z</time>
      </trkpt>
      <trkpt lat="51.155900" lon="5.793301">
        <ele>32.177766</ele>
        <time>2023-03-05T08:53:43.000Z</time>
      </trkpt>
      <trkpt lat="51.155890" lon="5.793204">
        <ele>32.181740</ele>
        <time>2023-03-05T08:53:44.000Z</time>
      </trkpt>
      <trkpt lat="51.155878" lon="5.793108">
        <ele>32.185698</ele>
        <time>2023-03-05T08:53:45.000Z</time>
      </trkpt>
      <trkpt lat="51.155861" lon="5.793013">
        <ele>32.189692</ele>
        <time>2023-03-05T08:53:46.000Z</time>
      </trkpt>
      <trkpt lat="51.155837" lon="5.792919">
        <ele>32.193795</ele>
        <time>2023-03-05T08:53:47.000Z</time>
      </trkpt>
      <trkpt lat="51.155810" lon="5.792824">
        <ele>32.198012</ele>
        <time>2023-03-05T08:53:48.000Z</time>
      </trkpt>
      <trkpt lat="51.155783" lon="5.792733">
        <ele>32.202082</ele>
        <time>2023-03-05T08:53:49.000Z</time>
      </trkpt>
      <trkpt lat="51.155752" lon="5.792646">
        <ele>32.206127</ele>
        <time>2023-03-05T08:53:50.000Z</time>
      </trkpt>
      <trkpt lat="51.155717" lon="5.792560">
        <ele>32.210272</ele>
        <time>2023-03-05T08:53:51.000Z</time>
      </trkpt>
      <trkpt lat="51.155683" lon="5.792475">
        <ele>32.214348</ele>
        <time>2023-03-05T08:53:52.000Z</time>
      </trkpt>
      <trkpt lat="51.155647" lon="5.792391">
        <ele>32.218461</ele>
        <time>2023-03-05T08:53:53.000Z</time>
      </trkpt>
      <trkpt lat="51.155608" lon="5.792307">
        <ele>32.222687</ele>
        <time>2023-03-05T08:53:54.000Z</time>
      </trkpt>
      <trkpt lat="51.155571" lon="5.792227">
        <ele>32.226705</ele>
        <time>2023-03-05T08:53:55.000Z</time>
      </trkpt>
      <trkpt lat="51.155535" lon="5.792145">
        <ele>32.230752</ele>
        <time>2023-03-05T08:53:56.000Z</time>
      </trkpt>
      <trkpt lat="51.155497" lon="5.792063">
        <ele>32.234874</ele>
        <time>2023-03-05T08:53:57.000Z</time>
      </trkpt>
      <trkpt lat="51.155459" lon="5.791982">
        <ele>32.238964</ele>
        <time>2023-03-05T08:53:58.000Z</time>
      </trkpt>
      <trkpt lat="51.155422" lon="5.791901">
        <ele>32.243015</ele>
        <time>2023-03-05T08:53:59.000Z</time>
      </trkpt>
      <trkpt lat="51.155383" lon="5.791819">
        <ele>32.247176</ele>
        <time>2023-03-05T08:54:00.000Z</time>
      </trkpt>
      <trkpt lat="51.155346" lon="5.791741">
        <ele>32.251130</ele>
        <time>2023-03-05T08:54:01.000Z</time>
      </trkpt>
      <trkpt lat="51.155305" lon="5.791660">
        <ele>32.255338</ele>
        <time>2023-03-05T08:54:02.000Z</time>
      </trkpt>
      <trkpt lat="51.155264" lon="5.791582">
        <ele>32.259453</ele>
        <time>2023-03-05T08:54:03.000Z</time>
      </trkpt>
      <trkpt lat="51.155224" lon="5.791508">
        <ele>32.263402</ele>
        <time>2023-03-05T08:54:04.000Z</time>
      </trkpt>
      <trkpt lat="51.155183" lon="5.791434">
        <ele>32.267394</ele>
        <time>2023-03-05T08:54:05.000Z</time>
      </trkpt>
      <trkpt lat="51.155141" lon="5.791361">
        <ele>32.271399</ele>
        <time>2023-03-05T08:54:06.000Z</time>
      </trkpt>
      <trkpt lat="51.155096" lon="5.791290">
        <ele>32.275480</ele>
        <time>2023-03-05T08:54:07.000Z</time>
      </trkpt>
      <trkpt lat="51.155050" lon="5.791225">
        <ele>32.279442</ele>
        <time>2023-03-05T08:54:08.000Z</time>
      </trkpt>
      <trkpt lat="51.155002" lon="5.791165">
        <ele>32.288899</ele>
        <time>2023-03-05T08:54:09.000Z</time>
      </trkpt>
      <trkpt lat="51.154950" lon="5.791107">
        <ele>32.303803</ele>
        <time>2023-03-05T08:54:10.000Z</time>
      </trkpt>
      <trkpt lat="51.154899" lon="5.791052">
        <ele>32.318263</ele>
        <time>2023-03-05T08:54:11.000Z</time>
      </trkpt>
      <trkpt lat="51.154847" lon="5.790997">
        <ele>32.332918</ele>
        <time>2023-03-05T08:54:12.000Z</time>
      </trkpt>
      <trkpt lat="51.154796" lon="5.790943">
        <ele>32.347296</ele>
        <time>2023-03-05T08:54:13.000Z</time>
      </trkpt>
      <trkpt lat="51.154744" lon="5.790887">
        <ele>32.362033</ele>
        <time>2023-03-05T08:54:14.000Z</time>
      </trkpt>
      <trkpt lat="51.154693" lon="5.790830">
        <ele>32.376660</ele>
        <time>2023-03-05T08:54:15.000Z</time>
      </trkpt>
      <trkpt lat="51.154642" lon="5.790772">
        <ele>32.391372</ele>
        <time>2023-03-05T08:54:16.000Z</time>
      </trkpt>
      <trkpt lat="51.154591" lon="5.790712">
        <ele>32.406257</ele>
        <time>2023-03-05T08:54:17.000Z</time>
      </trkpt>
      <trkpt lat="51.154541" lon="5.790649">
        <ele>32.421224</ele>
        <time>2023-03-05T08:54:18.000Z</time>
      </trkpt>
      <trkpt lat="51.154491" lon="5.790584">
        <ele>32.436375</ele>
        <time>2023-03-05T08:54:19.000Z</time>
      </trkpt>
      <trkpt lat="51.154444" lon="5.790518">
        <ele>32.451084</ele>
        <time>2023-03-05T08:54:20.000Z</time>
      </trkpt>
      <trkpt lat="51.154395" lon="5.790452">
        <ele>32.466149</ele>
        <time>2023-03-05T08:54:21.000Z</time>
      </trkpt>
      <trkpt lat="51.154348" lon="5.790386">
        <ele>32.480858</ele>
        <time>2023-03-05T08:54:22.000Z</time>
      </trkpt>
      <trkpt lat="51.154303" lon="5.790322">
        <ele>32.495020</ele>
        <time>2023-03-05T08:54:23.000Z</time>
      </trkpt>
      <trkpt lat="51.154257" lon="5.790256">
        <ele>32.509553</ele>
        <time>2023-03-05T08:54:24.000Z</time>
      </trkpt>
      <trkpt lat="51.154210" lon="5.790193">
        <ele>32.523974</ele>
        <time>2023-03-05T08:54:25.000Z</time>
      </trkpt>
      <trkpt lat="51.154162" lon="5.790126">
        <ele>32.538956</ele>
        <time>2023-03-05T08:54:26.000Z</time>
      </trkpt>
      <trkpt lat="51.154116" lon="5.790059">
        <ele>32.553589</ele>
        <time>2023-03-05T08:54:27.000Z</time>
      </trkpt>
      <trkpt lat="51.154068" lon="5.789992">
        <ele>32.568572</ele>
        <time>2023-03-05T08:54:28.000Z</time>
      </trkpt>
      <trkpt lat="51.154015" lon="5.789924">
        <ele>32.584548</ele>
        <time>2023-03-05T08:54:29.000Z</time>
      </trkpt>
      <trkpt lat="51.153965" lon="5.789857">
        <ele>32.599888</ele>
        <time>2023-03-05T08:54:30.000Z</time>
      </trkpt>
      <trkpt lat="51.153918" lon="5.789786">
        <ele>32.615093</ele>
        <time>2023-03-05T08:54:31.000Z</time>
      </trkpt>
      <trkpt lat="51.153866" lon="5.789712">
        <ele>32.631463</ele>
        <time>2023-03-05T08:54:32.000Z</time>
      </trkpt>
      <trkpt lat="51.153816" lon="5.789639">
        <ele>32.647385</ele>
        <time>2023-03-05T08:54:33.000Z</time>
      </trkpt>
      <trkpt lat="51.153766" lon="5.789565">
        <ele>32.663407</ele>
        <time>2023-03-05T08:54:34.000Z</time>
      </trkpt>
      <trkpt lat="51.153714" lon="5.789491">
        <ele>32.679777</ele>
        <time>2023-03-05T08:54:35.000Z</time>
      </trkpt>
      <trkpt lat="51.153664" lon="5.789418">
        <ele>32.695699</ele>
        <time>2023-03-05T08:54:36.000Z</time>
      </trkpt>
      <trkpt lat="51.153614" lon="5.789345">
        <ele>32.703908</ele>
        <time>2023-03-05T08:54:37.000Z</time>
      </trkpt>
      <trkpt lat="51.153564" lon="5.789274">
        <ele>32.704332</ele>
        <time>2023-03-05T08:54:38.000Z</time>
      </trkpt>
      <trkpt lat="51.153517" lon="5.789202">
        <ele>32.704746</ele>
        <time>2023-03-05T08:54:39.000Z</time>
      </trkpt>
      <trkpt lat="51.153468" lon="5.789132">
        <ele>32.705164</ele>
        <time>2023-03-05T08:54:40.000Z</time>
      </trkpt>
      <trkpt lat="51.153419" lon="5.789063">
        <ele>32.705579</ele>
        <time>2023-03-05T08:54:41.000Z</time>
      </trkpt>
      <trkpt lat="51.153373" lon="5.788994">
        <ele>32.705979</ele>
        <time>2023-03-05T08:54:42.000Z</time>
      </trkpt>
      <trkpt lat="51.153324" lon="5.788925">
        <ele>32.706394</ele>
        <time>2023-03-05T08:54:43.000Z</time>
      </trkpt>
      <trkpt lat="51.153272" lon="5.788858">
        <ele>32.706818</ele>
        <time>2023-03-05T08:54:44.000Z</time>
      </trkpt>
      <trkpt lat="51.153223" lon="5.788790">
        <ele>32.707231</ele>
        <time>2023-03-05T08:54:45.000Z</time>
      </trkpt>
      <trkpt lat="51.153177" lon="5.788718">
        <ele>32.707640</ele>
        <time>2023-03-05T08:54:46.000Z</time>
      </trkpt>
      <trkpt lat="51.153129" lon="5.788647">
        <ele>32.708055</ele>
        <time>2023-03-05T08:54:47.000Z</time>
      </trkpt>
      <trkpt lat="51.153082" lon="5.788575">
        <ele>32.708469</ele>
        <time>2023-03-05T08:54:48.000Z</time>
      </trkpt>
      <trkpt lat="51.153038" lon="5.788502">
        <ele>32.708872</ele>
        <time>2023-03-05T08:54:49.000Z</time>
      </trkpt>
      <trkpt lat="51.152992" lon="5.788429">
        <ele>32.709284</ele>
        <time>2023-03-05T08:54:50.000Z</time>
      </trkpt>
      <trkpt lat="51.152947" lon="5.788357">
        <ele>32.709688</ele>
        <time>2023-03-05T08:54:51.000Z</time>
      </trkpt>
      <trkpt lat="51.152903" lon="5.788284">
        <ele>32.710091</ele>
        <time>2023-03-05T08:54:52.000Z</time>
      </trkpt>
      <trkpt lat="51.152859" lon="5.788206">
        <ele>32.710509</ele>
        <time>2023-03-05T08:54:53.000Z</time>
      </trkpt>
      <trkpt lat="51.152817" lon="5.788126">
        <ele>32.710924</ele>
        <time>2023-03-05T08:54:54.000Z</time>
      </trkpt>
      <trkpt lat="51.152778" lon="5.788046">
        <ele>32.711328</ele>
        <time>2023-03-05T08:54:55.000Z</time>
      </trkpt>
      <trkpt lat="51.152737" lon="5.787965">
        <ele>32.711742</ele>
        <time>2023-03-05T08:54:56.000Z</time>
      </trkpt>
      <trkpt lat="51.152698" lon="5.787886">
        <ele>32.712142</ele>
        <time>2023-03-05T08:54:57.000Z</time>
      </trkpt>
      <trkpt lat="51.152660" lon="5.787806">
        <ele>32.712541</ele>
        <time>2023-03-05T08:54:58.000Z</time>
      </trkpt>
      <trkpt lat="51.152619" lon="5.787725">
        <ele>32.712956</ele>
        <time>2023-03-05T08:54:59.000Z</time>
      </trkpt>
      <trkpt lat="51.152579" lon="5.787643">
        <ele>32.713369</ele>
        <time>2023-03-05T08:55:00.000Z</time>
      </trkpt>
      <trkpt lat="51.152543" lon="5.787559">
        <ele>32.713774</ele>
        <time>2023-03-05T08:55:01.000Z</time>
      </trkpt>
      <trkpt lat="51.152507" lon="5.787476">
        <ele>32.714176</ele>
        <time>2023-03-05T08:55:02.000Z</time>
      </trkpt>
      <trkpt lat="51.152471" lon="5.787394">
        <ele>32.714574</ele>
        <time>2023-03-05T08:55:03.000Z</time>
      </trkpt>
      <trkpt lat="51.152434" lon="5.787312">
        <ele>32.714976</ele>
        <time>2023-03-05T08:55:04.000Z</time>
      </trkpt>
      <trkpt lat="51.152398" lon="5.787230">
        <ele>32.731402</ele>
        <time>2023-03-05T08:55:05.000Z</time>
      </trkpt>
      <trkpt lat="51.152364" lon="5.787150">
        <ele>32.754850</ele>
        <time>2023-03-05T08:55:06.000Z</time>
      </trkpt>
      <trkpt lat="51.152325" lon="5.787072">
        <ele>32.779053</ele>
        <time>2023-03-05T08:55:07.000Z</time>
      </trkpt>
      <trkpt lat="51.152281" lon="5.787000">
        <ele>32.803444</ele>
        <time>2023-03-05T08:55:08.000Z</time>
      </trkpt>
      <trkpt lat="51.152235" lon="5.786934">
        <ele>32.827384</ele>
        <time>2023-03-05T08:55:09.000Z</time>
      </trkpt>
      <trkpt lat="51.152189" lon="5.786873">
        <ele>32.850530</ele>
        <time>2023-03-05T08:55:10.000Z</time>
      </trkpt>
      <trkpt lat="51.152141" lon="5.786818">
        <ele>32.873397</ele>
        <time>2023-03-05T08:55:11.000Z</time>
      </trkpt>
      <trkpt lat="51.152091" lon="5.786764">
        <ele>32.896759</ele>
        <time>2023-03-05T08:55:12.000Z</time>
      </trkpt>
      <trkpt lat="51.152040" lon="5.786713">
        <ele>32.920047</ele>
        <time>2023-03-05T08:55:13.000Z</time>
      </trkpt>
      <trkpt lat="51.151986" lon="5.786666">
        <ele>32.943847</ele>
        <time>2023-03-05T08:55:14.000Z</time>
      </trkpt>
      <trkpt lat="51.151933" lon="5.786618">
        <ele>32.967427</ele>
        <time>2023-03-05T08:55:15.000Z</time>
      </trkpt>
      <trkpt lat="51.151879" lon="5.786567">
        <ele>32.991706</ele>
        <time>2023-03-05T08:55:16.000Z</time>
      </trkpt>
      <trkpt lat="51.151826" lon="5.786517">
        <ele>33.015529</ele>
        <time>2023-03-05T08:55:17.000Z</time>
      </trkpt>
      <trkpt lat="51.151772" lon="5.786466">
        <ele>33.039809</ele>
        <time>2023-03-05T08:55:18.000Z</time>
      </trkpt>
      <trkpt lat="51.151719" lon="5.786415">
        <ele>33.063757</ele>
        <time>2023-03-05T08:55:19.000Z</time>
      </trkpt>
      <trkpt lat="51.151666" lon="5.786366">
        <ele>33.087457</ele>
        <time>2023-03-05T08:55:20.000Z</time>
      </trkpt>
      <trkpt lat="51.151610" lon="5.786317">
        <ele>33.112168</ele>
        <time>2023-03-05T08:55:21.000Z</time>
      </trkpt>
      <trkpt lat="51.151556" lon="5.786268">
        <ele>33.136204</ele>
        <time>2023-03-05T08:55:22.000Z</time>
      </trkpt>
      <trkpt lat="51.151502" lon="5.786219">
        <ele>33.160240</ele>
        <time>2023-03-05T08:55:23.000Z</time>
      </trkpt>
      <trkpt lat="51.151448" lon="5.786168">
        <ele>33.184520</ele>
        <time>2023-03-05T08:55:24.000Z</time>
      </trkpt>
      <trkpt lat="51.151395" lon="5.786119">
        <ele>33.208221</ele>
        <time>2023-03-05T08:55:25.000Z</time>
      </trkpt>
      <trkpt lat="51.151344" lon="5.786069">
        <ele>33.231381</ele>
        <time>2023-03-05T08:55:26.000Z</time>
      </trkpt>
      <trkpt lat="51.151292" lon="5.786018">
        <ele>33.254999</ele>
        <time>2023-03-05T08:55:27.000Z</time>
      </trkpt>
      <trkpt lat="51.151243" lon="5.785964">
        <ele>33.278042</ele>
        <time>2023-03-05T08:55:28.000Z</time>
      </trkpt>
      <trkpt lat="51.151195" lon="5.785907">
        <ele>33.301195</ele>
        <time>2023-03-05T08:55:29.000Z</time>
      </trkpt>
      <trkpt lat="51.151145" lon="5.785848">
        <ele>33.325259</ele>
        <time>2023-03-05T08:55:30.000Z</time>
      </trkpt>
      <trkpt lat="51.151096" lon="5.785789">
        <ele>33.349013</ele>
        <time>2023-03-05T08:55:31.000Z</time>
      </trkpt>
      <trkpt lat="51.151049" lon="5.785729">
        <ele>33.372305</ele>
        <time>2023-03-05T08:55:32.000Z</time>
      </trkpt>
      <trkpt lat="51.151000" lon="5.785669">
        <ele>33.396206</ele>
        <time>2023-03-05T08:55:33.000Z</time>
      </trkpt>
      <trkpt lat="51.150954" lon="5.785610">
        <ele>33.414922</ele>
        <time>2023-03-05T08:55:34.000Z</time>
      </trkpt>
      <trkpt lat="51.150908" lon="5.785550">
        <ele>33.426290</ele>
        <time>2023-03-05T08:55:35.000Z</time>
      </trkpt>
      <trkpt lat="51.150862" lon="5.785489">
        <ele>33.437734</ele>
        <time>2023-03-05T08:55:36.000Z</time>
      </trkpt>
      <trkpt lat="51.150814" lon="5.785428">
        <ele>33.449475</ele>
        <time>2023-03-05T08:55:37.000Z</time>
      </trkpt>
      <trkpt lat="51.150766" lon="5.785368">
        <ele>33.461142</ele>
        <time>2023-03-05T08:55:38.000Z</time>
      </trkpt>
      <trkpt lat="51.150721" lon="5.785307">
        <ele>33.472440</ele>
        <time>2023-03-05T08:55:39.000Z</time>
      </trkpt>
      <trkpt lat="51.150674" lon="5.785246">
        <ele>33.484032</ele>
        <time>2023-03-05T08:55:40.000Z</time>
      </trkpt>
      <trkpt lat="51.150626" lon="5.785183">
        <ele>33.495924</ele>
        <time>2023-03-05T08:55:41.000Z</time>
      </trkpt>
      <trkpt lat="51.150577" lon="5.785119">
        <ele>33.508040</ele>
        <time>2023-03-05T08:55:42.000Z</time>
      </trkpt>
      <trkpt lat="51.150528" lon="5.785056">
        <ele>33.520080</ele>
        <time>2023-03-05T08:55:43.000Z</time>
      </trkpt>
      <trkpt lat="51.150478" lon="5.784992">
        <ele>33.532344</ele>
        <time>2023-03-05T08:55:44.000Z</time>
      </trkpt>
      <trkpt lat="51.150429" lon="5.784929">
        <ele>33.544385</ele>
        <time>2023-03-05T08:55:45.000Z</time>
      </trkpt>
      <trkpt lat="51.150379" lon="5.784863">
        <ele>33.556801</ele>
        <time>2023-03-05T08:55:46.000Z</time>
      </trkpt>
      <trkpt lat="51.150329" lon="5.784796">
        <ele>33.569294</ele>
        <time>2023-03-05T08:55:47.000Z</time>
      </trkpt>
      <trkpt lat="51.150282" lon="5.784728">
        <ele>33.581434</ele>
        <time>2023-03-05T08:55:48.000Z</time>
      </trkpt>
      <trkpt lat="51.150234" lon="5.784663">
        <ele>33.593479</ele>
        <time>2023-03-05T08:55:49.000Z</time>
      </trkpt>
      <trkpt lat="51.150183" lon="5.784598">
        <ele>33.605968</ele>
        <time>2023-03-05T08:55:50.000Z</time>
      </trkpt>
      <trkpt lat="51.150131" lon="5.784530">
        <ele>33.618832</ele>
        <time>2023-03-05T08:55:51.000Z</time>
      </trkpt>
      <trkpt lat="51.150081" lon="5.784464">
        <ele>33.631248</ele>
        <time>2023-03-05T08:55:52.000Z</time>
      </trkpt>
      <trkpt lat="51.150032" lon="5.784400">
        <ele>33.643364</ele>
        <time>2023-03-05T08:55:53.000Z</time>
      </trkpt>
      <trkpt lat="51.149980" lon="5.784336">
        <ele>33.655930</ele>
        <time>2023-03-05T08:55:54.000Z</time>
      </trkpt>
      <trkpt lat="51.149928" lon="5.784271">
        <ele>33.668568</ele>
        <time>2023-03-05T08:55:55.000Z</time>
      </trkpt>
      <trkpt lat="51.149877" lon="5.784206">
        <ele>33.681057</ele>
        <time>2023-03-05T08:55:56.000Z</time>
      </trkpt>
      <trkpt lat="51.149826" lon="5.784142">
        <ele>33.693472</ele>
        <time>2023-03-05T08:55:57.000Z</time>
      </trkpt>
      <trkpt lat="51.149778" lon="5.784077">
        <ele>33.705518</ele>
        <time>2023-03-05T08:55:58.000Z</time>
      </trkpt>
      <trkpt lat="51.149730" lon="5.784013">
        <ele>33.717486</ele>
        <time>2023-03-05T08:55:59.000Z</time>
      </trkpt>
      <trkpt lat="51.149680" lon="5.783951">
        <ele>33.729602</ele>
        <time>2023-03-05T08:56:00.000Z</time>
      </trkpt>
      <trkpt lat="51.149636" lon="5.783890">
        <ele>33.740755</ele>
        <time>2023-03-05T08:56:01.000Z</time>
      </trkpt>
      <trkpt lat="51.149592" lon="5.783829">
        <ele>33.751908</ele>
        <time>2023-03-05T08:56:02.000Z</time>
      </trkpt>
      <trkpt lat="51.149546" lon="5.783772">
        <ele>33.759433</ele>
        <time>2023-03-05T08:56:03.000Z</time>
      </trkpt>
      <trkpt lat="51.149505" lon="5.783713">
        <ele>33.765300</ele>
        <time>2023-03-05T08:56:04.000Z</time>
      </trkpt>
      <trkpt lat="51.149474" lon="5.783646">
        <ele>33.770849</ele>
        <time>2023-03-05T08:56:05.000Z</time>
      </trkpt>
      <trkpt lat="51.149456" lon="5.783573">
        <ele>33.776076</ele>
        <time>2023-03-05T08:56:06.000Z</time>
      </trkpt>
      <trkpt lat="51.149459" lon="5.783499">
        <ele>33.781017</ele>
        <time>2023-03-05T08:56:07.000Z</time>
      </trkpt>
      <trkpt lat="51.149487" lon="5.783434">
        <ele>33.786272</ele>
        <time>2023-03-05T08:56:08.000Z</time>
      </trkpt>
      <trkpt lat="51.149535" lon="5.783378">
        <ele>33.792591</ele>
        <time>2023-03-05T08:56:09.000Z</time>
      </trkpt>
      <trkpt lat="51.149588" lon="5.783330">
        <ele>33.799066</ele>
        <time>2023-03-05T08:56:10.000Z</time>
      </trkpt>
      <trkpt lat="51.149644" lon="5.783285">
        <ele>33.805729</ele>
        <time>2023-03-05T08:56:11.000Z</time>
      </trkpt>
      <trkpt lat="51.149701" lon="5.783244">
        <ele>33.812372</ele>
        <time>2023-03-05T08:56:12.000Z</time>
      </trkpt>
      <trkpt lat="51.149756" lon="5.783202">
        <ele>33.818850</ele>
        <time>2023-03-05T08:56:13.000Z</time>
      </trkpt>
      <trkpt lat="51.149810" lon="5.783160">
        <ele>33.825233</ele>
        <time>2023-03-05T08:56:14.000Z</time>
      </trkpt>
      <trkpt lat="51.149866" lon="5.783114">
        <ele>33.831926</ele>
        <time>2023-03-05T08:56:15.000Z</time>
      </trkpt>
      <trkpt lat="51.149923" lon="5.783068">
        <ele>33.838713</ele>
        <time>2023-03-05T08:56:16.000Z</time>
      </trkpt>
      <trkpt lat="51.149979" lon="5.783023">
        <ele>33.845375</ele>
        <time>2023-03-05T08:56:17.000Z</time>
      </trkpt>
      <trkpt lat="51.150037" lon="5.782976">
        <ele>33.852287</ele>
        <time>2023-03-05T08:56:18.000Z</time>
      </trkpt>
      <trkpt lat="51.150097" lon="5.782929">
        <ele>33.859389</ele>
        <time>2023-03-05T08:56:19.000Z</time>
      </trkpt>
      <trkpt lat="51.150155" lon="5.782882">
        <ele>33.866301</ele>
        <time>2023-03-05T08:56:20.000Z</time>
      </trkpt>
      <trkpt lat="51.150214" lon="5.782834">
        <ele>33.873338</ele>
        <time>2023-03-05T08:56:21.000Z</time>
      </trkpt>
      <trkpt lat="51.150274" lon="5.782785">
        <ele>33.880500</ele>
        <time>2023-03-05T08:56:22.000Z</time>
      </trkpt>
      <trkpt lat="51.150334" lon="5.782736">
        <ele>33.887661</ele>
        <time>2023-03-05T08:56:23.000Z</time>
      </trkpt>
      <trkpt lat="51.150392" lon="5.782688">
        <ele>33.894604</ele>
        <time>2023-03-05T08:56:24.000Z</time>
      </trkpt>
      <trkpt lat="51.150449" lon="5.782640">
        <ele>33.901452</ele>
        <time>2023-03-05T08:56:25.000Z</time>
      </trkpt>
      <trkpt lat="51.150507" lon="5.782588">
        <ele>33.908521</ele>
        <time>2023-03-05T08:56:26.000Z</time>
      </trkpt>
      <trkpt lat="51.150556" lon="5.782528">
        <ele>33.915085</ele>
        <time>2023-03-05T08:56:27.000Z</time>
      </trkpt>
      <trkpt lat="51.150595" lon="5.782455">
        <ele>33.921475</ele>
        <time>2023-03-05T08:56:28.000Z</time>
      </trkpt>
      <trkpt lat="51.150620" lon="5.782374">
        <ele>33.927491</ele>
        <time>2023-03-05T08:56:29.000Z</time>
      </trkpt>
      <trkpt lat="51.150630" lon="5.782288">
        <ele>33.933319</ele>
        <time>2023-03-05T08:56:30.000Z</time>
      </trkpt>
      <trkpt lat="51.150626" lon="5.782193">
        <ele>33.939664</ele>
        <time>2023-03-05T08:56:31.000Z</time>
      </trkpt>
      <trkpt lat="51.150616" lon="5.782096">
        <ele>33.945870</ele>
        <time>2023-03-05T08:56:32.000Z</time>
      </trkpt>
      <trkpt lat="51.150602" lon="5.781995">
        <ele>33.942221</ele>
        <time>2023-03-05T08:56:33.000Z</time>
      </trkpt>
      <trkpt lat="51.150587" lon="5.781892">
        <ele>33.938491</ele>
        <time>2023-03-05T08:56:34.000Z</time>
      </trkpt>
      <trkpt lat="51.150572" lon="5.781793">
        <ele>33.934898</ele>
        <time>2023-03-05T08:56:35.000Z</time>
      </trkpt>
      <trkpt lat="51.150557" lon="5.781692">
        <ele>33.931237</ele>
        <time>2023-03-05T08:56:36.000Z</time>
      </trkpt>
      <trkpt lat="51.150541" lon="5.781590">
        <ele>33.927528</ele>
        <time>2023-03-05T08:56:37.000Z</time>
      </trkpt>
      <trkpt lat="51.150526" lon="5.781489">
        <ele>33.923866</ele>
        <time>2023-03-05T08:56:38.000Z</time>
      </trkpt>
      <trkpt lat="51.150511" lon="5.781388">
        <ele>33.920205</ele>
        <time>2023-03-05T08:56:39.000Z</time>
      </trkpt>
      <trkpt lat="51.150496" lon="5.781288">
        <ele>33.916578</ele>
        <time>2023-03-05T08:56:40.000Z</time>
      </trkpt>
      <trkpt lat="51.150483" lon="5.781188">
        <ele>33.912975</ele>
        <time>2023-03-05T08:56:41.000Z</time>
      </trkpt>
      <trkpt lat="51.150466" lon="5.781088">
        <ele>33.909320</ele>
        <time>2023-03-05T08:56:42.000Z</time>
      </trkpt>
      <trkpt lat="51.150450" lon="5.780992">
        <ele>33.905816</ele>
        <time>2023-03-05T08:56:43.000Z</time>
      </trkpt>
      <trkpt lat="51.150437" lon="5.780891">
        <ele>33.902179</ele>
        <time>2023-03-05T08:56:44.000Z</time>
      </trkpt>
      <trkpt lat="51.150425" lon="5.780788">
        <ele>33.898483</ele>
        <time>2023-03-05T08:56:45.000Z</time>
      </trkpt>
      <trkpt lat="51.150419" lon="5.780685">
        <ele>33.894834</ele>
        <time>2023-03-05T08:56:46.000Z</time>
      </trkpt>
      <trkpt lat="51.150420" lon="5.780582">
        <ele>33.891200</ele>
        <time>2023-03-05T08:56:47.000Z</time>
      </trkpt>
      <trkpt lat="51.150428" lon="5.780476">
        <ele>33.887434</ele>
        <time>2023-03-05T08:56:48.000Z</time>
      </trkpt>
      <trkpt lat="51.150444" lon="5.780374">
        <ele>33.883725</ele>
        <time>2023-03-05T08:56:49.000Z</time>
      </trkpt>
      <trkpt lat="51.150464" lon="5.780274">
        <ele>33.880022</ele>
        <time>2023-03-05T08:56:50.000Z</time>
      </trkpt>
      <trkpt lat="51.150492" lon="5.780180">
        <ele>33.876351</ele>
        <time>2023-03-05T08:56:51.000Z</time>
      </trkpt>
      <trkpt lat="51.150529" lon="5.780096">
        <ele>33.872730</ele>
        <time>2023-03-05T08:56:52.000Z</time>
      </trkpt>
      <trkpt lat="51.150567" lon="5.780018">
        <ele>33.869246</ele>
        <time>2023-03-05T08:56:53.000Z</time>
      </trkpt>
      <trkpt lat="51.150607" lon="5.779945">
        <ele>33.865827</ele>
        <time>2023-03-05T08:56:54.000Z</time>
      </trkpt>
      <trkpt lat="51.150647" lon="5.779872">
        <ele>33.862407</ele>
        <time>2023-03-05T08:56:55.000Z</time>
      </trkpt>
      <trkpt lat="51.150685" lon="5.779800">
        <ele>33.859088</ele>
        <time>2023-03-05T08:56:56.000Z</time>
      </trkpt>
      <trkpt lat="51.150726" lon="5.779730">
        <ele>33.855710</ele>
        <time>2023-03-05T08:56:57.000Z</time>
      </trkpt>
      <trkpt lat="51.150765" lon="5.779657">
        <ele>33.852327</ele>
        <time>2023-03-05T08:56:58.000Z</time>
      </trkpt>
      <trkpt lat="51.150796" lon="5.779580">
        <ele>33.849099</ele>
        <time>2023-03-05T08:56:59.000Z</time>
      </trkpt>
      <trkpt lat="51.150818" lon="5.779495">
        <ele>33.845856</ele>
        <time>2023-03-05T08:57:00.000Z</time>
      </trkpt>
      <trkpt lat="51.150828" lon="5.779408">
        <ele>33.821738</ele>
        <time>2023-03-05T08:57:01.000Z</time>
      </trkpt>
      <trkpt lat="51.150825" lon="5.779320">
        <ele>33.787567</ele>
        <time>2023-03-05T08:57:02.000Z</time>
      </trkpt>
      <trkpt lat="51.150812" lon="5.779233">
        <ele>33.752890</ele>
        <time>2023-03-05T08:57:03.000Z</time>
      </trkpt>
      <trkpt lat="51.150795" lon="5.779146">
        <ele>33.717558</ele>
        <time>2023-03-05T08:57:04.000Z</time>
      </trkpt>
      <trkpt lat="51.150775" lon="5.779056">
        <ele>33.680537</ele>
        <time>2023-03-05T08:57:05.000Z</time>
      </trkpt>
      <trkpt lat="51.150756" lon="5.778963">
        <ele>33.642613</ele>
        <time>2023-03-05T08:57:06.000Z</time>
      </trkpt>
      <trkpt lat="51.150735" lon="5.778872">
        <ele>33.605017</ele>
        <time>2023-03-05T08:57:07.000Z</time>
      </trkpt>
      <trkpt lat="51.150712" lon="5.778782">
        <ele>33.567336</ele>
        <time>2023-03-05T08:57:08.000Z</time>
      </trkpt>
      <trkpt lat="51.150689" lon="5.778694">
        <ele>33.530372</ele>
        <time>2023-03-05T08:57:09.000Z</time>
      </trkpt>
      <trkpt lat="51.150664" lon="5.778604">
        <ele>33.492207</ele>
        <time>2023-03-05T08:57:10.000Z</time>
      </trkpt>
      <trkpt lat="51.150639" lon="5.778510">
        <ele>33.452619</ele>
        <time>2023-03-05T08:57:11.000Z</time>
      </trkpt>
      <trkpt lat="51.150617" lon="5.778416">
        <ele>33.413718</ele>
        <time>2023-03-05T08:57:12.000Z</time>
      </trkpt>
      <trkpt lat="51.150591" lon="5.778324">
        <ele>33.374593</ele>
        <time>2023-03-05T08:57:13.000Z</time>
      </trkpt>
      <trkpt lat="51.150567" lon="5.778234">
        <ele>33.336674</ele>
        <time>2023-03-05T08:57:14.000Z</time>
      </trkpt>
      <trkpt lat="51.150542" lon="5.778143">
        <ele>33.298155</ele>
        <time>2023-03-05T08:57:15.000Z</time>
      </trkpt>
      <trkpt lat="51.150518" lon="5.778050">
        <ele>33.259163</ele>
        <time>2023-03-05T08:57:16.000Z</time>
      </trkpt>
      <trkpt lat="51.150492" lon="5.777955">
        <ele>33.218974</ele>
        <time>2023-03-05T08:57:17.000Z</time>
      </trkpt>
      <trkpt lat="51.150468" lon="5.777863">
        <ele>33.180341</ele>
        <time>2023-03-05T08:57:18.000Z</time>
      </trkpt>
      <trkpt lat="51.150448" lon="5.777770">
        <ele>33.142221</ele>
        <time>2023-03-05T08:57:19.000Z</time>
      </trkpt>
      <trkpt lat="51.150424" lon="5.777674">
        <ele>33.102150</ele>
        <time>2023-03-05T08:57:20.000Z</time>
      </trkpt>
      <trkpt lat="51.150399" lon="5.777580">
        <ele>33.062562</ele>
        <time>2023-03-05T08:57:21.000Z</time>
      </trkpt>
      <trkpt lat="51.150376" lon="5.777486">
        <ele>33.023440</ele>
        <time>2023-03-05T08:57:22.000Z</time>
      </trkpt>
      <trkpt lat="51.150353" lon="5.777394">
        <ele>32.985040</ele>
        <time>2023-03-05T08:57:23.000Z</time>
      </trkpt>
      <trkpt lat="51.150328" lon="5.777301">
        <ele>32.945808</ele>
        <time>2023-03-05T08:57:24.000Z</time>
      </trkpt>
      <trkpt lat="51.150302" lon="5.777206">
        <ele>32.905620</ele>
        <time>2023-03-05T08:57:25.000Z</time>
      </trkpt>
      <trkpt lat="51.150278" lon="5.777112">
        <ele>32.866269</ele>
        <time>2023-03-05T08:57:26.000Z</time>
      </trkpt>
      <trkpt lat="51.150255" lon="5.777017">
        <ele>32.826785</ele>
        <time>2023-03-05T08:57:27.000Z</time>
      </trkpt>
      <trkpt lat="51.150232" lon="5.776921">
        <ele>32.786940</ele>
        <time>2023-03-05T08:57:28.000Z</time>
      </trkpt>
      <trkpt lat="51.150209" lon="5.776826">
        <ele>32.747456</ele>
        <time>2023-03-05T08:57:29.000Z</time>
      </trkpt>
      <trkpt lat="51.150183" lon="5.776731">
        <ele>32.730997</ele>
        <time>2023-03-05T08:57:30.000Z</time>
      </trkpt>
      <trkpt lat="51.150159" lon="5.776635">
        <ele>32.727814</ele>
        <time>2023-03-05T08:57:31.000Z</time>
      </trkpt>
      <trkpt lat="51.150134" lon="5.776542">
        <ele>32.724697</ele>
        <time>2023-03-05T08:57:32.000Z</time>
      </trkpt>
      <trkpt lat="51.150109" lon="5.776449">
        <ele>32.721580</ele>
        <time>2023-03-05T08:57:33.000Z</time>
      </trkpt>
      <trkpt lat="51.150086" lon="5.776355">
        <ele>32.718472</ele>
        <time>2023-03-05T08:57:34.000Z</time>
      </trkpt>
      <trkpt lat="51.150064" lon="5.776262">
        <ele>32.715410</ele>
        <time>2023-03-05T08:57:35.000Z</time>
      </trkpt>
      <trkpt lat="51.150038" lon="5.776169">
        <ele>32.712273</ele>
        <time>2023-03-05T08:57:36.000Z</time>
      </trkpt>
      <trkpt lat="51.150014" lon="5.776075">
        <ele>32.709147</ele>
        <time>2023-03-05T08:57:37.000Z</time>
      </trkpt>
      <trkpt lat="51.149989" lon="5.775980">
        <ele>32.705974</ele>
        <time>2023-03-05T08:57:38.000Z</time>
      </trkpt>
      <trkpt lat="51.149964" lon="5.775886">
        <ele>32.702828</ele>
        <time>2023-03-05T08:57:39.000Z</time>
      </trkpt>
      <trkpt lat="51.149939" lon="5.775792">
        <ele>32.699683</ele>
        <time>2023-03-05T08:57:40.000Z</time>
      </trkpt>
      <trkpt lat="51.149915" lon="5.775697">
        <ele>32.696528</ele>
        <time>2023-03-05T08:57:41.000Z</time>
      </trkpt>
      <trkpt lat="51.149892" lon="5.775602">
        <ele>32.693391</ele>
        <time>2023-03-05T08:57:42.000Z</time>
      </trkpt>
      <trkpt lat="51.149867" lon="5.775507">
        <ele>32.690218</ele>
        <time>2023-03-05T08:57:43.000Z</time>
      </trkpt>
      <trkpt lat="51.149843" lon="5.775414">
        <ele>32.687120</ele>
        <time>2023-03-05T08:57:44.000Z</time>
      </trkpt>
      <trkpt lat="51.149817" lon="5.775322">
        <ele>32.684011</ele>
        <time>2023-03-05T08:57:45.000Z</time>
      </trkpt>
      <trkpt lat="51.149795" lon="5.775228">
        <ele>32.680921</ele>
        <time>2023-03-05T08:57:46.000Z</time>
      </trkpt>
      <trkpt lat="51.149774" lon="5.775135">
        <ele>32.677876</ele>
        <time>2023-03-05T08:57:47.000Z</time>
      </trkpt>
      <trkpt lat="51.149751" lon="5.775043">
        <ele>32.674825</ele>
        <time>2023-03-05T08:57:48.000Z</time>
      </trkpt>
      <trkpt lat="51.149728" lon="5.774951">
        <ele>32.671774</ele>
        <time>2023-03-05T08:57:49.000Z</time>
      </trkpt>
      <trkpt lat="51.149707" lon="5.774861">
        <ele>32.668816</ele>
        <time>2023-03-05T08:57:50.000Z</time>
      </trkpt>
      <trkpt lat="51.149686" lon="5.774769">
        <ele>32.665800</ele>
        <time>2023-03-05T08:57:51.000Z</time>
      </trkpt>
      <trkpt lat="51.149663" lon="5.774678">
        <ele>32.662778</ele>
        <time>2023-03-05T08:57:52.000Z</time>
      </trkpt>
      <trkpt lat="51.149640" lon="5.774587">
        <ele>32.659755</ele>
        <time>2023-03-05T08:57:53.000Z</time>
      </trkpt>
      <trkpt lat="51.149617" lon="5.774493">
        <ele>32.656647</ele>
        <time>2023-03-05T08:57:54.000Z</time>
      </trkpt>
      <trkpt lat="51.149594" lon="5.774399">
        <ele>32.653539</ele>
        <time>2023-03-05T08:57:55.000Z</time>
      </trkpt>
      <trkpt lat="51.149574" lon="5.774304">
        <ele>32.650452</ele>
        <time>2023-03-05T08:57:56.000Z</time>
      </trkpt>
      <trkpt lat="51.149552" lon="5.774209">
        <ele>32.647332</ele>
        <time>2023-03-05T08:57:57.000Z</time>
      </trkpt>
      <trkpt lat="51.149529" lon="5.774114">
        <ele>32.653157</ele>
        <time>2023-03-05T08:57:58.000Z</time>
      </trkpt>
      <trkpt lat="51.149507" lon="5.774019">
        <ele>32.703776</ele>
        <time>2023-03-05T08:57:59.000Z</time>
      </trkpt>
      <trkpt lat="51.149484" lon="5.773922">
        <ele>32.755610</ele>
        <time>2023-03-05T08:58:00.000Z</time>
      </trkpt>
      <trkpt lat="51.149461" lon="5.773825">
        <ele>32.807445</ele>
        <time>2023-03-05T08:58:01.000Z</time>
      </trkpt>
      <trkpt lat="51.149438" lon="5.773731">
        <ele>32.857880</ele>
        <time>2023-03-05T08:58:02.000Z</time>
      </trkpt>
      <trkpt lat="51.149415" lon="5.773636">
        <ele>32.908780</ele>
        <time>2023-03-05T08:58:03.000Z</time>
      </trkpt>
      <trkpt lat="51.149394" lon="5.773540">
        <ele>32.959601</ele>
        <time>2023-03-05T08:58:04.000Z</time>
      </trkpt>
      <trkpt lat="51.149373" lon="5.773445">
        <ele>33.009950</ele>
        <time>2023-03-05T08:58:05.000Z</time>
      </trkpt>
      <trkpt lat="51.149350" lon="5.773352">
        <ele>33.059919</ele>
        <time>2023-03-05T08:58:06.000Z</time>
      </trkpt>
      <trkpt lat="51.149327" lon="5.773259">
        <ele>33.109888</ele>
        <time>2023-03-05T08:58:07.000Z</time>
      </trkpt>
      <trkpt lat="51.149307" lon="5.773167">
        <ele>33.158559</ele>
        <time>2023-03-05T08:58:08.000Z</time>
      </trkpt>
      <trkpt lat="51.149285" lon="5.773075">
        <ele>33.207774</ele>
        <time>2023-03-05T08:58:09.000Z</time>
      </trkpt>
      <trkpt lat="51.149267" lon="5.772982">
        <ele>33.256424</ele>
        <time>2023-03-05T08:58:10.000Z</time>
      </trkpt>
      <trkpt lat="51.149247" lon="5.772894">
        <ele>33.303209</ele>
        <time>2023-03-05T08:58:11.000Z</time>
      </trkpt>
      <trkpt lat="51.149229" lon="5.772808">
        <ele>33.348527</ele>
        <time>2023-03-05T08:58:12.000Z</time>
      </trkpt>
      <trkpt lat="51.149214" lon="5.772724">
        <ele>33.392184</ele>
        <time>2023-03-05T08:58:13.000Z</time>
      </trkpt>
      <trkpt lat="51.149199" lon="5.772645">
        <ele>33.433442</ele>
        <time>2023-03-05T08:58:14.000Z</time>
      </trkpt>
      <trkpt lat="51.149186" lon="5.772567">
        <ele>33.473784</ele>
        <time>2023-03-05T08:58:15.000Z</time>
      </trkpt>
      <trkpt lat="51.149186" lon="5.772491">
        <ele>33.511773</ele>
        <time>2023-03-05T08:58:16.000Z</time>
      </trkpt>
      <trkpt lat="51.149210" lon="5.772434">
        <ele>33.546089</ele>
        <time>2023-03-05T08:58:17.000Z</time>
      </trkpt>
      <trkpt lat="51.149249" lon="5.772404">
        <ele>33.580595</ele>
        <time>2023-03-05T08:58:18.000Z</time>
      </trkpt>
      <trkpt lat="51.149296" lon="5.772406">
        <ele>33.618060</ele>
        <time>2023-03-05T08:58:19.000Z</time>
      </trkpt>
      <trkpt lat="51.149348" lon="5.772436">
        <ele>33.662127</ele>
        <time>2023-03-05T08:58:20.000Z</time>
      </trkpt>
      <trkpt lat="51.149402" lon="5.772480">
        <ele>33.710452</ele>
        <time>2023-03-05T08:58:21.000Z</time>
      </trkpt>
      <trkpt lat="51.149455" lon="5.772531">
        <ele>33.759783</ele>
        <time>2023-03-05T08:58:22.000Z</time>
      </trkpt>
      <trkpt lat="51.149506" lon="5.772586">
        <ele>33.808848</ele>
        <time>2023-03-05T08:58:23.000Z</time>
      </trkpt>
      <trkpt lat="51.149556" lon="5.772644">
        <ele>33.858122</ele>
        <time>2023-03-05T08:58:24.000Z</time>
      </trkpt>
      <trkpt lat="51.149603" lon="5.772701">
        <ele>33.905180</ele>
        <time>2023-03-05T08:58:25.000Z</time>
      </trkpt>
      <trkpt lat="51.149651" lon="5.772755">
        <ele>33.951994</ele>
        <time>2023-03-05T08:58:26.000Z</time>
      </trkpt>
      <trkpt lat="51.149701" lon="5.772809">
        <ele>34.000119</ele>
        <time>2023-03-05T08:58:27.000Z</time>
      </trkpt>
      <trkpt lat="51.149750" lon="5.772866">
        <ele>34.048455</ele>
        <time>2023-03-05T08:58:28.000Z</time>
      </trkpt>
      <trkpt lat="51.149802" lon="5.772926">
        <ele>34.072001</ele>
        <time>2023-03-05T08:58:29.000Z</time>
      </trkpt>
      <trkpt lat="51.149858" lon="5.772985">
        <ele>34.057246</ele>
        <time>2023-03-05T08:58:30.000Z</time>
      </trkpt>
      <trkpt lat="51.149915" lon="5.773041">
        <ele>34.042528</ele>
        <time>2023-03-05T08:58:31.000Z</time>
      </trkpt>
      <trkpt lat="51.149972" lon="5.773093">
        <ele>34.028091</ele>
        <time>2023-03-05T08:58:32.000Z</time>
      </trkpt>
      <trkpt lat="51.150032" lon="5.773140">
        <ele>34.013396</ele>
        <time>2023-03-05T08:58:33.000Z</time>
      </trkpt>
      <trkpt lat="51.150093" lon="5.773184">
        <ele>33.998678</ele>
        <time>2023-03-05T08:58:34.000Z</time>
      </trkpt>
      <trkpt lat="51.150151" lon="5.773228">
        <ele>33.984558</ele>
        <time>2023-03-05T08:58:35.000Z</time>
      </trkpt>
      <trkpt lat="51.150207" lon="5.773267">
        <ele>33.971125</ele>
        <time>2023-03-05T08:58:36.000Z</time>
      </trkpt>
      <trkpt lat="51.150267" lon="5.773304">
        <ele>33.956984</ele>
        <time>2023-03-05T08:58:37.000Z</time>
      </trkpt>
      <trkpt lat="51.150329" lon="5.773340">
        <ele>33.942479</ele>
        <time>2023-03-05T08:58:38.000Z</time>
      </trkpt>
      <trkpt lat="51.150390" lon="5.773375">
        <ele>33.928228</ele>
        <time>2023-03-05T08:58:39.000Z</time>
      </trkpt>
      <trkpt lat="51.150454" lon="5.773408">
        <ele>33.913442</ele>
        <time>2023-03-05T08:58:40.000Z</time>
      </trkpt>
      <trkpt lat="51.150519" lon="5.773441">
        <ele>33.898446</ele>
        <time>2023-03-05T08:58:41.000Z</time>
      </trkpt>
      <trkpt lat="51.150584" lon="5.773472">
        <ele>33.883532</ele>
        <time>2023-03-05T08:58:42.000Z</time>
      </trkpt>
      <trkpt lat="51.150647" lon="5.773501">
        <ele>33.869118</ele>
        <time>2023-03-05T08:58:43.000Z</time>
      </trkpt>
      <trkpt lat="51.150715" lon="5.773533">
        <ele>33.853532</ele>
        <time>2023-03-05T08:58:44.000Z</time>
      </trkpt>
      <trkpt lat="51.150782" lon="5.773565">
        <ele>33.838158</ele>
        <time>2023-03-05T08:58:45.000Z</time>
      </trkpt>
      <trkpt lat="51.150847" lon="5.773596">
        <ele>33.823244</ele>
        <time>2023-03-05T08:58:46.000Z</time>
      </trkpt>
      <trkpt lat="51.150914" lon="5.773625">
        <ele>33.807983</ele>
        <time>2023-03-05T08:58:47.000Z</time>
      </trkpt>
      <trkpt lat="51.150983" lon="5.773655">
        <ele>33.792261</ele>
        <time>2023-03-05T08:58:48.000Z</time>
      </trkpt>
      <trkpt lat="51.151049" lon="5.773684">
        <ele>33.777212</ele>
        <time>2023-03-05T08:58:49.000Z</time>
      </trkpt>
      <trkpt lat="51.151114" lon="5.773712">
        <ele>33.762411</ele>
        <time>2023-03-05T08:58:50.000Z</time>
      </trkpt>
      <trkpt lat="51.151179" lon="5.773735">
        <ele>33.747775</ele>
        <time>2023-03-05T08:58:51.000Z</time>
      </trkpt>
      <trkpt lat="51.151241" lon="5.773755">
        <ele>33.733870</ele>
        <time>2023-03-05T08:58:52.000Z</time>
      </trkpt>
      <trkpt lat="51.151300" lon="5.773775">
        <ele>33.720611</ele>
        <time>2023-03-05T08:58:53.000Z</time>
      </trkpt>
      <trkpt lat="51.151356" lon="5.773796">
        <ele>33.707965</ele>
        <time>2023-03-05T08:58:54.000Z</time>
      </trkpt>
      <trkpt lat="51.151415" lon="5.773819">
        <ele>33.694613</ele>
        <time>2023-03-05T08:58:55.000Z</time>
      </trkpt>
      <trkpt lat="51.151475" lon="5.773844">
        <ele>33.685696</ele>
        <time>2023-03-05T08:58:56.000Z</time>
      </trkpt>
      <trkpt lat="51.151535" lon="5.773867">
        <ele>33.711844</ele>
        <time>2023-03-05T08:58:57.000Z</time>
      </trkpt>
      <trkpt lat="51.151598" lon="5.773889">
        <ele>33.739171</ele>
        <time>2023-03-05T08:58:58.000Z</time>
      </trkpt>
      <trkpt lat="51.151663" lon="5.773908">
        <ele>33.767172</ele>
        <time>2023-03-05T08:58:59.000Z</time>
      </trkpt>
      <trkpt lat="51.151728" lon="5.773923">
        <ele>33.795001</ele>
        <time>2023-03-05T08:59:00.000Z</time>
      </trkpt>
      <trkpt lat="51.151791" lon="5.773934">
        <ele>33.821856</ele>
        <time>2023-03-05T08:59:01.000Z</time>
      </trkpt>
      <trkpt lat="51.151854" lon="5.773941">
        <ele>33.848615</ele>
        <time>2023-03-05T08:59:02.000Z</time>
      </trkpt>
      <trkpt lat="51.151916" lon="5.773946">
        <ele>33.874919</ele>
        <time>2023-03-05T08:59:03.000Z</time>
      </trkpt>
      <trkpt lat="51.151977" lon="5.773951">
        <ele>33.900800</ele>
        <time>2023-03-05T08:59:04.000Z</time>
      </trkpt>
      <trkpt lat="51.152039" lon="5.773956">
        <ele>33.927105</ele>
        <time>2023-03-05T08:59:05.000Z</time>
      </trkpt>
      <trkpt lat="51.152097" lon="5.773959">
        <ele>33.951694</ele>
        <time>2023-03-05T08:59:06.000Z</time>
      </trkpt>
      <trkpt lat="51.152154" lon="5.773962">
        <ele>33.975859</ele>
        <time>2023-03-05T08:59:07.000Z</time>
      </trkpt>
      <trkpt lat="51.152214" lon="5.773966">
        <ele>34.001305</ele>
        <time>2023-03-05T08:59:08.000Z</time>
      </trkpt>
      <trkpt lat="51.152275" lon="5.773972">
        <ele>34.027201</ele>
        <time>2023-03-05T08:59:09.000Z</time>
      </trkpt>
      <trkpt lat="51.152335" lon="5.773979">
        <ele>34.052692</ele>
        <time>2023-03-05T08:59:10.000Z</time>
      </trkpt>
      <trkpt lat="51.152396" lon="5.773985">
        <ele>34.078589</ele>
        <time>2023-03-05T08:59:11.000Z</time>
      </trkpt>
      <trkpt lat="51.152458" lon="5.773991">
        <ele>34.104908</ele>
        <time>2023-03-05T08:59:12.000Z</time>
      </trkpt>
      <trkpt lat="51.152519" lon="5.773998">
        <ele>34.130822</ele>
        <time>2023-03-05T08:59:13.000Z</time>
      </trkpt>
      <trkpt lat="51.152580" lon="5.774001">
        <ele>34.156681</ele>
        <time>2023-03-05T08:59:14.000Z</time>
      </trkpt>
      <trkpt lat="51.152641" lon="5.774004">
        <ele>34.182540</ele>
        <time>2023-03-05T08:59:15.000Z</time>
      </trkpt>
      <trkpt lat="51.152699" lon="5.774007">
        <ele>34.207129</ele>
        <time>2023-03-05T08:59:16.000Z</time>
      </trkpt>
      <trkpt lat="51.152759" lon="5.774010">
        <ele>34.232565</ele>
        <time>2023-03-05T08:59:17.000Z</time>
      </trkpt>
      <trkpt lat="51.152821" lon="5.774014">
        <ele>34.258857</ele>
        <time>2023-03-05T08:59:18.000Z</time>
      </trkpt>
      <trkpt lat="51.152881" lon="5.774018">
        <ele>34.284303</ele>
        <time>2023-03-05T08:59:19.000Z</time>
      </trkpt>
      <trkpt lat="51.152940" lon="5.774024">
        <ele>34.309354</ele>
        <time>2023-03-05T08:59:20.000Z</time>
      </trkpt>
      <trkpt lat="51.153002" lon="5.774030">
        <ele>34.335673</ele>
        <time>2023-03-05T08:59:21.000Z</time>
      </trkpt>
      <trkpt lat="51.153061" lon="5.774033">
        <ele>34.360685</ele>
        <time>2023-03-05T08:59:22.000Z</time>
      </trkpt>
      <trkpt lat="51.153121" lon="5.774034">
        <ele>34.386110</ele>
        <time>2023-03-05T08:59:23.000Z</time>
      </trkpt>
      <trkpt lat="51.153185" lon="5.774036">
        <ele>34.413233</ele>
        <time>2023-03-05T08:59:24.000Z</time>
      </trkpt>
      <trkpt lat="51.153248" lon="5.774040">
        <ele>34.439949</ele>
        <time>2023-03-05T08:59:25.000Z</time>
      </trkpt>
      <trkpt lat="51.153308" lon="5.774044">
        <ele>34.436117</ele>
        <time>2023-03-05T08:59:26.000Z</time>
      </trkpt>
      <trkpt lat="51.153370" lon="5.774047">
        <ele>34.425184</ele>
        <time>2023-03-05T08:59:27.000Z</time>
      </trkpt>
      <trkpt lat="51.153428" lon="5.774048">
        <ele>34.414960</ele>
        <time>2023-03-05T08:59:28.000Z</time>
      </trkpt>
      <trkpt lat="51.153488" lon="5.774050">
        <ele>34.404382</ele>
        <time>2023-03-05T08:59:29.000Z</time>
      </trkpt>
      <trkpt lat="51.153546" lon="5.774051">
        <ele>34.394159</ele>
        <time>2023-03-05T08:59:30.000Z</time>
      </trkpt>
      <trkpt lat="51.153606" lon="5.774052">
        <ele>34.383582</ele>
        <time>2023-03-05T08:59:31.000Z</time>
      </trkpt>
      <trkpt lat="51.153670" lon="5.774051">
        <ele>34.372301</ele>
        <time>2023-03-05T08:59:32.000Z</time>
      </trkpt>
      <trkpt lat="51.153732" lon="5.774050">
        <ele>34.361373</ele>
        <time>2023-03-05T08:59:33.000Z</time>
      </trkpt>
      <trkpt lat="51.153793" lon="5.774050">
        <ele>34.350621</ele>
        <time>2023-03-05T08:59:34.000Z</time>
      </trkpt>
      <trkpt lat="51.153854" lon="5.774051">
        <ele>34.339869</ele>
        <time>2023-03-05T08:59:35.000Z</time>
      </trkpt>
      <trkpt lat="51.153915" lon="5.774053">
        <ele>34.329115</ele>
        <time>2023-03-05T08:59:36.000Z</time>
      </trkpt>
      <trkpt lat="51.153976" lon="5.774052">
        <ele>34.318362</ele>
        <time>2023-03-05T08:59:37.000Z</time>
      </trkpt>
      <trkpt lat="51.154039" lon="5.774049">
        <ele>34.307253</ele>
        <time>2023-03-05T08:59:38.000Z</time>
      </trkpt>
      <trkpt lat="51.154102" lon="5.774043">
        <ele>34.296129</ele>
        <time>2023-03-05T08:59:39.000Z</time>
      </trkpt>
      <trkpt lat="51.154165" lon="5.774034">
        <ele>34.284980</ele>
        <time>2023-03-05T08:59:40.000Z</time>
      </trkpt>
      <trkpt lat="51.154227" lon="5.774022">
        <ele>34.273972</ele>
        <time>2023-03-05T08:59:41.000Z</time>
      </trkpt>
      <trkpt lat="51.154288" lon="5.774008">
        <ele>34.263109</ele>
        <time>2023-03-05T08:59:42.000Z</time>
      </trkpt>
      <trkpt lat="51.154347" lon="5.773993">
        <ele>34.252578</ele>
        <time>2023-03-05T08:59:43.000Z</time>
      </trkpt>
      <trkpt lat="51.154404" lon="5.773983">
        <ele>34.242471</ele>
        <time>2023-03-05T08:59:44.000Z</time>
      </trkpt>
      <trkpt lat="51.154457" lon="5.773991">
        <ele>34.233088</ele>
        <time>2023-03-05T08:59:45.000Z</time>
      </trkpt>
      <trkpt lat="51.154498" lon="5.774033">
        <ele>34.224498</ele>
        <time>2023-03-05T08:59:46.000Z</time>
      </trkpt>
      <trkpt lat="51.154524" lon="5.774101">
        <ele>34.215693</ele>
        <time>2023-03-05T08:59:47.000Z</time>
      </trkpt>
      <trkpt lat="51.154545" lon="5.774187">
        <ele>34.205491</ele>
        <time>2023-03-05T08:59:48.000Z</time>
      </trkpt>
      <trkpt lat="51.154564" lon="5.774279">
        <ele>34.194783</ele>
        <time>2023-03-05T08:59:49.000Z</time>
      </trkpt>
      <trkpt lat="51.154583" lon="5.774371">
        <ele>34.184075</ele>
        <time>2023-03-05T08:59:50.000Z</time>
      </trkpt>
      <trkpt lat="51.154603" lon="5.774464">
        <ele>34.173206</ele>
        <time>2023-03-05T08:59:51.000Z</time>
      </trkpt>
      <trkpt lat="51.154629" lon="5.774556">
        <ele>34.162050</ele>
        <time>2023-03-05T08:59:52.000Z</time>
      </trkpt>
      <trkpt lat="51.154664" lon="5.774640">
        <ele>34.150901</ele>
        <time>2023-03-05T08:59:53.000Z</time>
      </trkpt>
      <trkpt lat="51.154707" lon="5.774714">
        <ele>34.139749</ele>
        <time>2023-03-05T08:59:54.000Z</time>
      </trkpt>
      <trkpt lat="51.154756" lon="5.774778">
        <ele>34.128584</ele>
        <time>2023-03-05T08:59:55.000Z</time>
      </trkpt>
      <trkpt lat="51.154813" lon="5.774839">
        <ele>34.131267</ele>
        <time>2023-03-05T08:59:56.000Z</time>
      </trkpt>
      <trkpt lat="51.154868" lon="5.774898">
        <ele>34.134996</ele>
        <time>2023-03-05T08:59:57.000Z</time>
      </trkpt>
      <trkpt lat="51.154921" lon="5.774956">
        <ele>34.138611</ele>
        <time>2023-03-05T08:59:58.000Z</time>
      </trkpt>
      <trkpt lat="51.154977" lon="5.775015">
        <ele>34.142386</ele>
        <time>2023-03-05T08:59:59.000Z</time>
      </trkpt>
      <trkpt lat="51.155032" lon="5.775074">
        <ele>34.146115</ele>
        <time>2023-03-05T09:00:00.000Z</time>
      </trkpt>
      <trkpt lat="51.155085" lon="5.775132">
        <ele>34.149730</ele>
        <time>2023-03-05T09:00:01.000Z</time>
      </trkpt>
      <trkpt lat="51.155139" lon="5.775188">
        <ele>34.153354</ele>
        <time>2023-03-05T09:00:02.000Z</time>
      </trkpt>
      <trkpt lat="51.155192" lon="5.775240">
        <ele>34.156854</ele>
        <time>2023-03-05T09:00:03.000Z</time>
      </trkpt>
      <trkpt lat="51.155248" lon="5.775293">
        <ele>34.160517</ele>
        <time>2023-03-05T09:00:04.000Z</time>
      </trkpt>
      <trkpt lat="51.155303" lon="5.775349">
        <ele>34.164187</ele>
        <time>2023-03-05T09:00:05.000Z</time>
      </trkpt>
      <trkpt lat="51.155356" lon="5.775403">
        <ele>34.167725</ele>
        <time>2023-03-05T09:00:06.000Z</time>
      </trkpt>
      <trkpt lat="51.155407" lon="5.775457">
        <ele>34.171168</ele>
        <time>2023-03-05T09:00:07.000Z</time>
      </trkpt>
      <trkpt lat="51.155459" lon="5.775511">
        <ele>34.174658</ele>
        <time>2023-03-05T09:00:08.000Z</time>
      </trkpt>
      <trkpt lat="51.155512" lon="5.775563">
        <ele>34.178159</ele>
        <time>2023-03-05T09:00:09.000Z</time>
      </trkpt>
      <trkpt lat="51.155564" lon="5.775611">
        <ele>34.181538</ele>
        <time>2023-03-05T09:00:10.000Z</time>
      </trkpt>
      <trkpt lat="51.155614" lon="5.775658">
        <ele>34.184803</ele>
        <time>2023-03-05T09:00:11.000Z</time>
      </trkpt>
      <trkpt lat="51.155663" lon="5.775704">
        <ele>34.188001</ele>
        <time>2023-03-05T09:00:12.000Z</time>
      </trkpt>
      <trkpt lat="51.155714" lon="5.775751">
        <ele>34.191314</ele>
        <time>2023-03-05T09:00:13.000Z</time>
      </trkpt>
      <trkpt lat="51.155768" lon="5.775800">
        <ele>34.194809</ele>
        <time>2023-03-05T09:00:14.000Z</time>
      </trkpt>
      <trkpt lat="51.155822" lon="5.775848">
        <ele>34.198286</ele>
        <time>2023-03-05T09:00:15.000Z</time>
      </trkpt>
      <trkpt lat="51.155875" lon="5.775897">
        <ele>34.201732</ele>
        <time>2023-03-05T09:00:16.000Z</time>
      </trkpt>
      <trkpt lat="51.155926" lon="5.775944">
        <ele>34.205045</ele>
        <time>2023-03-05T09:00:17.000Z</time>
      </trkpt>
      <trkpt lat="51.155978" lon="5.775990">
        <ele>34.208390</ele>
        <time>2023-03-05T09:00:18.000Z</time>
      </trkpt>
      <trkpt lat="51.156034" lon="5.776039">
        <ele>34.211983</ele>
        <time>2023-03-05T09:00:19.000Z</time>
      </trkpt>
      <trkpt lat="51.156089" lon="5.776088">
        <ele>34.215526</ele>
        <time>2023-03-05T09:00:20.000Z</time>
      </trkpt>
      <trkpt lat="51.156147" lon="5.776138">
        <ele>34.219235</ele>
        <time>2023-03-05T09:00:21.000Z</time>
      </trkpt>
      <trkpt lat="51.156205" lon="5.776188">
        <ele>34.222943</ele>
        <time>2023-03-05T09:00:22.000Z</time>
      </trkpt>
      <trkpt lat="51.156260" lon="5.776238">
        <ele>34.226504</ele>
        <time>2023-03-05T09:00:23.000Z</time>
      </trkpt>
      <trkpt lat="51.156316" lon="5.776287">
        <ele>34.237364</ele>
        <time>2023-03-05T09:00:24.000Z</time>
      </trkpt>
      <trkpt lat="51.156373" lon="5.776335">
        <ele>34.262193</ele>
        <time>2023-03-05T09:00:25.000Z</time>
      </trkpt>
      <trkpt lat="51.156430" lon="5.776382">
        <ele>34.286910</ele>
        <time>2023-03-05T09:00:26.000Z</time>
      </trkpt>
      <trkpt lat="51.156487" lon="5.776430">
        <ele>34.311739</ele>
        <time>2023-03-05T09:00:27.000Z</time>
      </trkpt>
      <trkpt lat="51.156545" lon="5.776479">
        <ele>34.337021</ele>
        <time>2023-03-05T09:00:28.000Z</time>
      </trkpt>
      <trkpt lat="51.156602" lon="5.776528">
        <ele>34.361964</ele>
        <time>2023-03-05T09:00:29.000Z</time>
      </trkpt>
      <trkpt lat="51.156658" lon="5.776575">
        <ele>34.386340</ele>
        <time>2023-03-05T09:00:30.000Z</time>
      </trkpt>
      <trkpt lat="51.156715" lon="5.776624">
        <ele>34.411282</ele>
        <time>2023-03-05T09:00:31.000Z</time>
      </trkpt>
      <trkpt lat="51.156771" lon="5.776673">
        <ele>34.435887</ele>
        <time>2023-03-05T09:00:32.000Z</time>
      </trkpt>
      <trkpt lat="51.156827" lon="5.776722">
        <ele>34.460491</ele>
        <time>2023-03-05T09:00:33.000Z</time>
      </trkpt>
      <trkpt lat="51.156882" lon="5.776772">
        <ele>34.484877</ele>
        <time>2023-03-05T09:00:34.000Z</time>
      </trkpt>
      <trkpt lat="51.156938" lon="5.776822">
        <ele>34.509598</ele>
        <time>2023-03-05T09:00:35.000Z</time>
      </trkpt>
      <trkpt lat="51.156994" lon="5.776869">
        <ele>34.533974</ele>
        <time>2023-03-05T09:00:36.000Z</time>
      </trkpt>
      <trkpt lat="51.157049" lon="5.776918">
        <ele>34.558241</ele>
        <time>2023-03-05T09:00:37.000Z</time>
      </trkpt>
      <trkpt lat="51.157105" lon="5.776968">
        <ele>34.582963</ele>
        <time>2023-03-05T09:00:38.000Z</time>
      </trkpt>
      <trkpt lat="51.157162" lon="5.777017">
        <ele>34.607905</ele>
        <time>2023-03-05T09:00:39.000Z</time>
      </trkpt>
      <trkpt lat="51.157219" lon="5.777065">
        <ele>34.632734</ele>
        <time>2023-03-05T09:00:40.000Z</time>
      </trkpt>
      <trkpt lat="51.157278" lon="5.777111">
        <ele>34.658031</ele>
        <time>2023-03-05T09:00:41.000Z</time>
      </trkpt>
      <trkpt lat="51.157337" lon="5.777158">
        <ele>34.683435</ele>
        <time>2023-03-05T09:00:42.000Z</time>
      </trkpt>
      <trkpt lat="51.157395" lon="5.777205">
        <ele>34.708494</ele>
        <time>2023-03-05T09:00:43.000Z</time>
      </trkpt>
      <trkpt lat="51.157455" lon="5.777249">
        <ele>34.733932</ele>
        <time>2023-03-05T09:00:44.000Z</time>
      </trkpt>
      <trkpt lat="51.157516" lon="5.777292">
        <ele>34.759621</ele>
        <time>2023-03-05T09:00:45.000Z</time>
      </trkpt>
      <trkpt lat="51.157577" lon="5.777333">
        <ele>34.785119</ele>
        <time>2023-03-05T09:00:46.000Z</time>
      </trkpt>
      <trkpt lat="51.157638" lon="5.777374">
        <ele>34.810617</ele>
        <time>2023-03-05T09:00:47.000Z</time>
      </trkpt>
      <trkpt lat="51.157699" lon="5.777413">
        <ele>34.835931</ele>
        <time>2023-03-05T09:00:48.000Z</time>
      </trkpt>
      <trkpt lat="51.157760" lon="5.777452">
        <ele>34.861245</ele>
        <time>2023-03-05T09:00:49.000Z</time>
      </trkpt>
      <trkpt lat="51.157818" lon="5.777491">
        <ele>34.885491</ele>
        <time>2023-03-05T09:00:50.000Z</time>
      </trkpt>
      <trkpt lat="51.157877" lon="5.777531">
        <ele>34.910185</ele>
        <time>2023-03-05T09:00:51.000Z</time>
      </trkpt>
      <trkpt lat="51.157939" lon="5.777571">
        <ele>34.922792</ele>
        <time>2023-03-05T09:00:52.000Z</time>
      </trkpt>
      <trkpt lat="51.157998" lon="5.777610">
        <ele>34.924768</ele>
        <time>2023-03-05T09:00:53.000Z</time>
      </trkpt>
      <trkpt lat="51.158055" lon="5.777648">
        <ele>34.926679</ele>
        <time>2023-03-05T09:00:54.000Z</time>
      </trkpt>
      <trkpt lat="51.158113" lon="5.777686">
        <ele>34.928619</ele>
        <time>2023-03-05T09:00:55.000Z</time>
      </trkpt>
      <trkpt lat="51.158172" lon="5.777725">
        <ele>34.930594</ele>
        <time>2023-03-05T09:00:56.000Z</time>
      </trkpt>
      <trkpt lat="51.158231" lon="5.777764">
        <ele>34.932570</ele>
        <time>2023-03-05T09:00:57.000Z</time>
      </trkpt>
      <trkpt lat="51.158288" lon="5.777801">
        <ele>34.934474</ele>
        <time>2023-03-05T09:00:58.000Z</time>
      </trkpt>
      <trkpt lat="51.158345" lon="5.777837">
        <ele>34.936370</ele>
        <time>2023-03-05T09:00:59.000Z</time>
      </trkpt>
      <trkpt lat="51.158402" lon="5.777877">
        <ele>34.938296</ele>
        <time>2023-03-05T09:01:00.000Z</time>
      </trkpt>
      <trkpt lat="51.158455" lon="5.777924">
        <ele>34.940172</ele>
        <time>2023-03-05T09:01:01.000Z</time>
      </trkpt>
      <trkpt lat="51.158502" lon="5.777981">
        <ele>34.941999</ele>
        <time>2023-03-05T09:01:02.000Z</time>
      </trkpt>
      <trkpt lat="51.158543" lon="5.778049">
        <ele>34.943829</ele>
        <time>2023-03-05T09:01:03.000Z</time>
      </trkpt>
      <trkpt lat="51.158581" lon="5.778119">
        <ele>34.945625</ele>
        <time>2023-03-05T09:01:04.000Z</time>
      </trkpt>
      <trkpt lat="51.158619" lon="5.778191">
        <ele>34.947451</ele>
        <time>2023-03-05T09:01:05.000Z</time>
      </trkpt>
      <trkpt lat="51.158656" lon="5.778265">
        <ele>34.949287</ele>
        <time>2023-03-05T09:01:06.000Z</time>
      </trkpt>
      <trkpt lat="51.158695" lon="5.778340">
        <ele>34.951177</ele>
        <time>2023-03-05T09:01:07.000Z</time>
      </trkpt>
      <trkpt lat="51.158734" lon="5.778418">
        <ele>34.953112</ele>
        <time>2023-03-05T09:01:08.000Z</time>
      </trkpt>
      <trkpt lat="51.158772" lon="5.778496">
        <ele>34.955028</ele>
        <time>2023-03-05T09:01:09.000Z</time>
      </trkpt>
      <trkpt lat="51.158810" lon="5.778573">
        <ele>34.956929</ele>
        <time>2023-03-05T09:01:10.000Z</time>
      </trkpt>
      <trkpt lat="51.158850" lon="5.778647">
        <ele>34.958824</ele>
        <time>2023-03-05T09:01:11.000Z</time>
      </trkpt>
      <trkpt lat="51.158892" lon="5.778716">
        <ele>34.960690</ele>
        <time>2023-03-05T09:01:12.000Z</time>
      </trkpt>
      <trkpt lat="51.158934" lon="5.778783">
        <ele>34.962527</ele>
        <time>2023-03-05T09:01:13.000Z</time>
      </trkpt>
      <trkpt lat="51.158976" lon="5.778848">
        <ele>34.964338</ele>
        <time>2023-03-05T09:01:14.000Z</time>
      </trkpt>
      <trkpt lat="51.159020" lon="5.778904">
        <ele>34.966079</ele>
        <time>2023-03-05T09:01:15.000Z</time>
      </trkpt>
      <trkpt lat="51.159069" lon="5.778947">
        <ele>34.967809</ele>
        <time>2023-03-05T09:01:16.000Z</time>
      </trkpt>
      <trkpt lat="51.159121" lon="5.778969">
        <ele>34.969474</ele>
        <time>2023-03-05T09:01:17.000Z</time>
      </trkpt>
      <trkpt lat="51.159174" lon="5.778962">
        <ele>34.971119</ele>
        <time>2023-03-05T09:01:18.000Z</time>
      </trkpt>
      <trkpt lat="51.159227" lon="5.778931">
        <ele>34.972865</ele>
        <time>2023-03-05T09:01:19.000Z</time>
      </trkpt>
      <trkpt lat="51.159278" lon="5.778885">
        <ele>34.974677</ele>
        <time>2023-03-05T09:01:20.000Z</time>
      </trkpt>
      <trkpt lat="51.159328" lon="5.778833">
        <ele>34.976524</ele>
        <time>2023-03-05T09:01:21.000Z</time>
      </trkpt>
      <trkpt lat="51.159377" lon="5.778780">
        <ele>34.965642</ele>
        <time>2023-03-05T09:01:22.000Z</time>
      </trkpt>
      <trkpt lat="51.159428" lon="5.778724">
        <ele>34.944897</ele>
        <time>2023-03-05T09:01:23.000Z</time>
      </trkpt>
      <trkpt lat="51.159477" lon="5.778668">
        <ele>34.924700</ele>
        <time>2023-03-05T09:01:24.000Z</time>
      </trkpt>
      <trkpt lat="51.159524" lon="5.778610">
        <ele>34.904790</ele>
        <time>2023-03-05T09:01:25.000Z</time>
      </trkpt>
      <trkpt lat="51.159572" lon="5.778553">
        <ele>34.884740</ele>
        <time>2023-03-05T09:01:26.000Z</time>
      </trkpt>
      <trkpt lat="51.159621" lon="5.778494">
        <ele>34.864170</ele>
        <time>2023-03-05T09:01:27.000Z</time>
      </trkpt>
      <trkpt lat="51.159669" lon="5.778433">
        <ele>34.843607</ele>
        <time>2023-03-05T09:01:28.000Z</time>
      </trkpt>
      <trkpt lat="51.159717" lon="5.778369">
        <ele>34.822645</ele>
        <time>2023-03-05T09:01:29.000Z</time>
      </trkpt>
      <trkpt lat="51.159762" lon="5.778303">
        <ele>34.802162</ele>
        <time>2023-03-05T09:01:30.000Z</time>
      </trkpt>
      <trkpt lat="51.159806" lon="5.778235">
        <ele>34.781634</ele>
        <time>2023-03-05T09:01:31.000Z</time>
      </trkpt>
      <trkpt lat="51.159850" lon="5.778164">
        <ele>34.760662</ele>
        <time>2023-03-05T09:01:32.000Z</time>
      </trkpt>
      <trkpt lat="51.159894" lon="5.778094">
        <ele>34.739839</ele>
        <time>2023-03-05T09:01:33.000Z</time>
      </trkpt>
      <trkpt lat="51.159941" lon="5.778024">
        <ele>34.718294</ele>
        <time>2023-03-05T09:01:34.000Z</time>
      </trkpt>
      <trkpt lat="51.159986" lon="5.777952">
        <ele>34.696937</ele>
        <time>2023-03-05T09:01:35.000Z</time>
      </trkpt>
      <trkpt lat="51.160030" lon="5.777880">
        <ele>34.675815</ele>
        <time>2023-03-05T09:01:36.000Z</time>
      </trkpt>
      <trkpt lat="51.160077" lon="5.777807">
        <ele>34.653835</ele>
        <time>2023-03-05T09:01:37.000Z</time>
      </trkpt>
      <trkpt lat="51.160123" lon="5.777735">
        <ele>34.632240</ele>
        <time>2023-03-05T09:01:38.000Z</time>
      </trkpt>
      <trkpt lat="51.160169" lon="5.777664">
        <ele>34.610792</ele>
        <time>2023-03-05T09:01:39.000Z</time>
      </trkpt>
      <trkpt lat="51.160215" lon="5.777593">
        <ele>34.589345</ele>
        <time>2023-03-05T09:01:40.000Z</time>
      </trkpt>
      <trkpt lat="51.160260" lon="5.777524">
        <ele>34.568430</ele>
        <time>2023-03-05T09:01:41.000Z</time>
      </trkpt>
      <trkpt lat="51.160308" lon="5.777460">
        <ele>34.547468</ele>
        <time>2023-03-05T09:01:42.000Z</time>
      </trkpt>
      <trkpt lat="51.160358" lon="5.777402">
        <ele>34.526754</ele>
        <time>2023-03-05T09:01:43.000Z</time>
      </trkpt>
      <trkpt lat="51.160410" lon="5.777354">
        <ele>34.506625</ele>
        <time>2023-03-05T09:01:44.000Z</time>
      </trkpt>
      <trkpt lat="51.160465" lon="5.777314">
        <ele>34.486373</ele>
        <time>2023-03-05T09:01:45.000Z</time>
      </trkpt>
      <trkpt lat="51.160523" lon="5.777283">
        <ele>34.465880</ele>
        <time>2023-03-05T09:01:46.000Z</time>
      </trkpt>
      <trkpt lat="51.160578" lon="5.777257">
        <ele>34.446662</ele>
        <time>2023-03-05T09:01:47.000Z</time>
      </trkpt>
      <trkpt lat="51.160636" lon="5.777233">
        <ele>34.426587</ele>
        <time>2023-03-05T09:01:48.000Z</time>
      </trkpt>
      <trkpt lat="51.160694" lon="5.777209">
        <ele>34.406513</ele>
        <time>2023-03-05T09:01:49.000Z</time>
      </trkpt>
      <trkpt lat="51.160752" lon="5.777184">
        <ele>34.386385</ele>
        <time>2023-03-05T09:01:50.000Z</time>
      </trkpt>
      <trkpt lat="51.160809" lon="5.777160">
        <ele>34.385920</ele>
        <time>2023-03-05T09:01:51.000Z</time>
      </trkpt>
      <trkpt lat="51.160868" lon="5.777138">
        <ele>34.414069</ele>
        <time>2023-03-05T09:01:52.000Z</time>
      </trkpt>
      <trkpt lat="51.160930" lon="5.777120">
        <ele>34.443347</ele>
        <time>2023-03-05T09:01:53.000Z</time>
      </trkpt>
      <trkpt lat="51.160988" lon="5.777109">
        <ele>34.470482</ele>
        <time>2023-03-05T09:01:54.000Z</time>
      </trkpt>
      <trkpt lat="51.161047" lon="5.777107">
        <ele>34.497898</ele>
        <time>2023-03-05T09:01:55.000Z</time>
      </trkpt>
      <trkpt lat="51.161106" lon="5.777111">
        <ele>34.525333</ele>
        <time>2023-03-05T09:01:56.000Z</time>
      </trkpt>
      <trkpt lat="51.161165" lon="5.777120">
        <ele>34.552869</ele>
        <time>2023-03-05T09:01:57.000Z</time>
      </trkpt>
      <trkpt lat="51.161229" lon="5.777135">
        <ele>34.582921</ele>
        <time>2023-03-05T09:01:58.000Z</time>
      </trkpt>
      <trkpt lat="51.161294" lon="5.777154">
        <ele>34.613622</ele>
        <time>2023-03-05T09:01:59.000Z</time>
      </trkpt>
      <trkpt lat="51.161357" lon="5.777174">
        <ele>34.643465</ele>
        <time>2023-03-05T09:02:00.000Z</time>
      </trkpt>
      <trkpt lat="51.161418" lon="5.777192">
        <ele>34.672285</ele>
        <time>2023-03-05T09:02:01.000Z</time>
      </trkpt>
      <trkpt lat="51.161480" lon="5.777208">
        <ele>34.701464</ele>
        <time>2023-03-05T09:02:02.000Z</time>
      </trkpt>
      <trkpt lat="51.161543" lon="5.777224">
        <ele>34.731101</ele>
        <time>2023-03-05T09:02:03.000Z</time>
      </trkpt>
      <trkpt lat="51.161606" lon="5.777241">
        <ele>34.760786</ele>
        <time>2023-03-05T09:02:04.000Z</time>
      </trkpt>
      <trkpt lat="51.161669" lon="5.777258">
        <ele>34.790470</ele>
        <time>2023-03-05T09:02:05.000Z</time>
      </trkpt>
      <trkpt lat="51.161732" lon="5.777275">
        <ele>34.820155</ele>
        <time>2023-03-05T09:02:06.000Z</time>
      </trkpt>
      <trkpt lat="51.161793" lon="5.777294">
        <ele>34.849030</ele>
        <time>2023-03-05T09:02:07.000Z</time>
      </trkpt>
      <trkpt lat="51.161852" lon="5.777318">
        <ele>34.877318</ele>
        <time>2023-03-05T09:02:08.000Z</time>
      </trkpt>
      <trkpt lat="51.161911" lon="5.777349">
        <ele>34.906177</ele>
        <time>2023-03-05T09:02:09.000Z</time>
      </trkpt>
      <trkpt lat="51.161969" lon="5.777385">
        <ele>34.935092</ele>
        <time>2023-03-05T09:02:10.000Z</time>
      </trkpt>
      <trkpt lat="51.162025" lon="5.777423">
        <ele>34.963366</ele>
        <time>2023-03-05T09:02:11.000Z</time>
      </trkpt>
      <trkpt lat="51.162080" lon="5.777464">
        <ele>34.991573</ele>
        <time>2023-03-05T09:02:12.000Z</time>
      </trkpt>
      <trkpt lat="51.162136" lon="5.777508">
        <ele>35.020576</ele>
        <time>2023-03-05T09:02:13.000Z</time>
      </trkpt>
      <trkpt lat="51.162193" lon="5.777552">
        <ele>35.049996</ele>
        <time>2023-03-05T09:02:14.000Z</time>
      </trkpt>
      <trkpt lat="51.162250" lon="5.777596">
        <ele>35.079417</ele>
        <time>2023-03-05T09:02:15.000Z</time>
      </trkpt>
      <trkpt lat="51.162306" lon="5.777635">
        <ele>35.107806</ele>
        <time>2023-03-05T09:02:16.000Z</time>
      </trkpt>
      <trkpt lat="51.162363" lon="5.777662">
        <ele>35.135431</ele>
        <time>2023-03-05T09:02:17.000Z</time>
      </trkpt>
      <trkpt lat="51.162422" lon="5.777677">
        <ele>35.163187</ele>
        <time>2023-03-05T09:02:18.000Z</time>
      </trkpt>
      <trkpt lat="51.162479" lon="5.777669">
        <ele>35.189771</ele>
        <time>2023-03-05T09:02:19.000Z</time>
      </trkpt>
      <trkpt lat="51.162534" lon="5.777637">
        <ele>35.211816</ele>
        <time>2023-03-05T09:02:20.000Z</time>
      </trkpt>
      <trkpt lat="51.162582" lon="5.777580">
        <ele>35.218051</ele>
        <time>2023-03-05T09:02:21.000Z</time>
      </trkpt>
      <trkpt lat="51.162627" lon="5.777513">
        <ele>35.224466</ele>
        <time>2023-03-05T09:02:22.000Z</time>
      </trkpt>
      <trkpt lat="51.162664" lon="5.777436">
        <ele>35.230804</ele>
        <time>2023-03-05T09:02:23.000Z</time>
      </trkpt>
      <trkpt lat="51.162696" lon="5.777354">
        <ele>35.237114</ele>
        <time>2023-03-05T09:02:24.000Z</time>
      </trkpt>
      <trkpt lat="51.162725" lon="5.777272">
        <ele>35.243265</ele>
        <time>2023-03-05T09:02:25.000Z</time>
      </trkpt>
      <trkpt lat="51.162753" lon="5.777187">
        <ele>35.249538</ele>
        <time>2023-03-05T09:02:26.000Z</time>
      </trkpt>
      <trkpt lat="51.162782" lon="5.777102">
        <ele>35.255861</ele>
        <time>2023-03-05T09:02:27.000Z</time>
      </trkpt>
      <trkpt lat="51.162806" lon="5.777017">
        <ele>35.261951</ele>
        <time>2023-03-05T09:02:28.000Z</time>
      </trkpt>
      <trkpt lat="51.162826" lon="5.776932">
        <ele>35.267883</ele>
        <time>2023-03-05T09:02:29.000Z</time>
      </trkpt>
      <trkpt lat="51.162847" lon="5.776847">
        <ele>35.273852</ele>
        <time>2023-03-05T09:02:30.000Z</time>
      </trkpt>
      <trkpt lat="51.162868" lon="5.776760">
        <ele>35.279943</ele>
        <time>2023-03-05T09:02:31.000Z</time>
      </trkpt>
      <trkpt lat="51.162888" lon="5.776675">
        <ele>35.285875</ele>
        <time>2023-03-05T09:02:32.000Z</time>
      </trkpt>
      <trkpt lat="51.162907" lon="5.776590">
        <ele>35.291770</ele>
        <time>2023-03-05T09:02:33.000Z</time>
      </trkpt>
      <trkpt lat="51.162926" lon="5.776503">
        <ele>35.297790</ele>
        <time>2023-03-05T09:02:34.000Z</time>
      </trkpt>
      <trkpt lat="51.162947" lon="5.776420">
        <ele>35.303637</ele>
        <time>2023-03-05T09:02:35.000Z</time>
      </trkpt>
      <trkpt lat="51.162968" lon="5.776337">
        <ele>35.309485</ele>
        <time>2023-03-05T09:02:36.000Z</time>
      </trkpt>
      <trkpt lat="51.162987" lon="5.776253">
        <ele>35.315319</ele>
        <time>2023-03-05T09:02:37.000Z</time>
      </trkpt>
      <trkpt lat="51.163004" lon="5.776173">
        <ele>35.320838</ele>
        <time>2023-03-05T09:02:38.000Z</time>
      </trkpt>
      <trkpt lat="51.163022" lon="5.776096">
        <ele>35.326207</ele>
        <time>2023-03-05T09:02:39.000Z</time>
      </trkpt>
      <trkpt lat="51.163041" lon="5.776019">
        <ele>35.331614</ele>
        <time>2023-03-05T09:02:40.000Z</time>
      </trkpt>
      <trkpt lat="51.163062" lon="5.775953">
        <ele>35.336449</ele>
        <time>2023-03-05T09:02:41.000Z</time>
      </trkpt>
      <trkpt lat="51.163085" lon="5.775898">
        <ele>35.340769</ele>
        <time>2023-03-05T09:02:42.000Z</time>
      </trkpt>
      <trkpt lat="51.163105" lon="5.775856">
        <ele>35.344214</ele>
        <time>2023-03-05T09:02:43.000Z</time>
      </trkpt>
      <trkpt lat="51.163124" lon="5.775818">
        <ele>35.347390</ele>
        <time>2023-03-05T09:02:44.000Z</time>
      </trkpt>
      <trkpt lat="51.163141" lon="5.775774">
        <ele>35.350766</ele>
        <time>2023-03-05T09:02:45.000Z</time>
      </trkpt>
      <trkpt lat="51.163159" lon="5.775720">
        <ele>35.354762</ele>
        <time>2023-03-05T09:02:46.000Z</time>
      </trkpt>
      <trkpt lat="51.163176" lon="5.775653">
        <ele>35.359484</ele>
        <time>2023-03-05T09:02:47.000Z</time>
      </trkpt>
      <trkpt lat="51.163189" lon="5.775575">
        <ele>35.364757</ele>
        <time>2023-03-05T09:02:48.000Z</time>
      </trkpt>
      <trkpt lat="51.163195" lon="5.775488">
        <ele>35.370476</ele>
        <time>2023-03-05T09:02:49.000Z</time>
      </trkpt>
      <trkpt lat="51.163198" lon="5.775395">
        <ele>35.376560</ele>
        <time>2023-03-05T09:02:50.000Z</time>
      </trkpt>
      <trkpt lat="51.163200" lon="5.775301">
        <ele>35.382705</ele>
        <time>2023-03-05T09:02:51.000Z</time>
      </trkpt>
      <trkpt lat="51.163200" lon="5.775209">
        <ele>35.388716</ele>
        <time>2023-03-05T09:02:52.000Z</time>
      </trkpt>
      <trkpt lat="51.163198" lon="5.775119">
        <ele>35.394600</ele>
        <time>2023-03-05T09:02:53.000Z</time>
      </trkpt>
      <trkpt lat="51.163197" lon="5.775030">
        <ele>35.395854</ele>
        <time>2023-03-05T09:02:54.000Z</time>
      </trkpt>
      <trkpt lat="51.163197" lon="5.774940">
        <ele>35.391775</ele>
        <time>2023-03-05T09:02:55.000Z</time>
      </trkpt>
      <trkpt lat="51.163197" lon="5.774851">
        <ele>35.387742</ele>
        <time>2023-03-05T09:02:56.000Z</time>
      </trkpt>
      <trkpt lat="51.163194" lon="5.774759">
        <ele>35.383567</ele>
        <time>2023-03-05T09:02:57.000Z</time>
      </trkpt>
      <trkpt lat="51.163190" lon="5.774668">
        <ele>35.379434</ele>
        <time>2023-03-05T09:02:58.000Z</time>
      </trkpt>
      <trkpt lat="51.163187" lon="5.774580">
        <ele>35.375440</ele>
        <time>2023-03-05T09:02:59.000Z</time>
      </trkpt>
      <trkpt lat="51.163185" lon="5.774489">
        <ele>35.371314</ele>
        <time>2023-03-05T09:03:00.000Z</time>
      </trkpt>
      <trkpt lat="51.163185" lon="5.774398">
        <ele>35.367190</ele>
        <time>2023-03-05T09:03:01.000Z</time>
      </trkpt>
      <trkpt lat="51.163185" lon="5.774306">
        <ele>35.363021</ele>
        <time>2023-03-05T09:03:02.000Z</time>
      </trkpt>
      <trkpt lat="51.163185" lon="5.774213">
        <ele>35.358806</ele>
        <time>2023-03-05T09:03:03.000Z</time>
      </trkpt>
      <trkpt lat="51.163185" lon="5.774121">
        <ele>35.354637</ele>
        <time>2023-03-05T09:03:04.000Z</time>
      </trkpt>
      <trkpt lat="51.163185" lon="5.774025">
        <ele>35.350287</ele>
        <time>2023-03-05T09:03:05.000Z</time>
      </trkpt>
      <trkpt lat="51.163185" lon="5.773929">
        <ele>35.345937</ele>
        <time>2023-03-05T09:03:06.000Z</time>
      </trkpt>
      <trkpt lat="51.163185" lon="5.773835">
        <ele>35.341677</ele>
        <time>2023-03-05T09:03:07.000Z</time>
      </trkpt>
      <trkpt lat="51.163185" lon="5.773742">
        <ele>35.337462</ele>
        <time>2023-03-05T09:03:08.000Z</time>
      </trkpt>
      <trkpt lat="51.163185" lon="5.773650">
        <ele>35.333293</ele>
        <time>2023-03-05T09:03:09.000Z</time>
      </trkpt>
      <trkpt lat="51.163188" lon="5.773556">
        <ele>35.329028</ele>
        <time>2023-03-05T09:03:10.000Z</time>
      </trkpt>
      <trkpt lat="51.163191" lon="5.773459">
        <ele>35.324627</ele>
        <time>2023-03-05T09:03:11.000Z</time>
      </trkpt>
      <trkpt lat="51.163193" lon="5.773362">
        <ele>35.320229</ele>
        <time>2023-03-05T09:03:12.000Z</time>
      </trkpt>
      <trkpt lat="51.163195" lon="5.773263">
        <ele>35.315740</ele>
        <time>2023-03-05T09:03:13.000Z</time>
      </trkpt>
      <trkpt lat="51.163201" lon="5.773167">
        <ele>35.311369</ele>
        <time>2023-03-05T09:03:14.000Z</time>
      </trkpt>
      <trkpt lat="51.163209" lon="5.773071">
        <ele>35.306980</ele>
        <time>2023-03-05T09:03:15.000Z</time>
      </trkpt>
      <trkpt lat="51.163217" lon="5.772973">
        <ele>35.302502</ele>
        <time>2023-03-05T09:03:16.000Z</time>
      </trkpt>
      <trkpt lat="51.163224" lon="5.772878">
        <ele>35.298167</ele>
        <time>2023-03-05T09:03:17.000Z</time>
      </trkpt>
      <trkpt lat="51.163234" lon="5.772783">
        <ele>35.293802</ele>
        <time>2023-03-05T09:03:18.000Z</time>
      </trkpt>
      <trkpt lat="51.163246" lon="5.772687">
        <ele>35.289366</ele>
        <time>2023-03-05T09:03:19.000Z</time>
      </trkpt>
      <trkpt lat="51.163260" lon="5.772593">
        <ele>35.284988</ele>
        <time>2023-03-05T09:03:20.000Z</time>
      </trkpt>
      <trkpt lat="51.163272" lon="5.772498">
        <ele>35.280596</ele>
        <time>2023-03-05T09:03:21.000Z</time>
      </trkpt>
      <trkpt lat="51.163284" lon="5.772402">
        <ele>35.276160</ele>
        <time>2023-03-05T09:03:22.000Z</time>
      </trkpt>
      <trkpt lat="51.163298" lon="5.772306">
        <ele>35.271694</ele>
        <time>2023-03-05T09:03:23.000Z</time>
      </trkpt>
      <trkpt lat="51.163313" lon="5.772211">
        <ele>35.268392</ele>
        <time>2023-03-05T09:03:24.000Z</time>
      </trkpt>
      <trkpt lat="51.163328" lon="5.772113">
        <ele>35.274364</ele>
        <time>2023-03-05T09:03:25.000Z</time>
      </trkpt>
      <trkpt lat="51.163344" lon="5.772015">
        <ele>35.280358</ele>
        <time>2023-03-05T09:03:26.000Z</time>
      </trkpt>
      <trkpt lat="51.163359" lon="5.771919">
        <ele>35.286215</ele>
        <time>2023-03-05T09:03:27.000Z</time>
      </trkpt>
      <trkpt lat="51.163374" lon="5.771822">
        <ele>35.292129</ele>
        <time>2023-03-05T09:03:28.000Z</time>
      </trkpt>
      <trkpt lat="51.163389" lon="5.771724">
        <ele>35.298100</ele>
        <time>2023-03-05T09:03:29.000Z</time>
      </trkpt>
      <trkpt lat="51.163404" lon="5.771629">
        <ele>35.303899</ele>
        <time>2023-03-05T09:03:30.000Z</time>
      </trkpt>
      <trkpt lat="51.163417" lon="5.771533">
        <ele>35.309713</ele>
        <time>2023-03-05T09:03:31.000Z</time>
      </trkpt>
      <trkpt lat="51.163431" lon="5.771439">
        <ele>35.315432</ele>
        <time>2023-03-05T09:03:32.000Z</time>
      </trkpt>
      <trkpt lat="51.163446" lon="5.771345">
        <ele>35.321174</ele>
        <time>2023-03-05T09:03:33.000Z</time>
      </trkpt>
      <trkpt lat="51.163464" lon="5.771250">
        <ele>35.327048</ele>
        <time>2023-03-05T09:03:34.000Z</time>
      </trkpt>
      <trkpt lat="51.163481" lon="5.771155">
        <ele>35.332896</ele>
        <time>2023-03-05T09:03:35.000Z</time>
      </trkpt>
      <trkpt lat="51.163496" lon="5.771062">
        <ele>35.338581</ele>
        <time>2023-03-05T09:03:36.000Z</time>
      </trkpt>
      <trkpt lat="51.163511" lon="5.770968">
        <ele>35.344322</ele>
        <time>2023-03-05T09:03:37.000Z</time>
      </trkpt>
      <trkpt lat="51.163529" lon="5.770876">
        <ele>35.350027</ele>
        <time>2023-03-05T09:03:38.000Z</time>
      </trkpt>
      <trkpt lat="51.163546" lon="5.770785">
        <ele>35.355648</ele>
        <time>2023-03-05T09:03:39.000Z</time>
      </trkpt>
      <trkpt lat="51.163559" lon="5.770695">
        <ele>35.361115</ele>
        <time>2023-03-05T09:03:40.000Z</time>
      </trkpt>
      <trkpt lat="51.163572" lon="5.770607">
        <ele>35.366467</ele>
        <time>2023-03-05T09:03:41.000Z</time>
      </trkpt>
      <trkpt lat="51.163588" lon="5.770525">
        <ele>35.371550</ele>
        <time>2023-03-05T09:03:42.000Z</time>
      </trkpt>
      <trkpt lat="51.163600" lon="5.770447">
        <ele>35.376304</ele>
        <time>2023-03-05T09:03:43.000Z</time>
      </trkpt>
      <trkpt lat="51.163612" lon="5.770370">
        <ele>35.381001</ele>
        <time>2023-03-05T09:03:44.000Z</time>
      </trkpt>
      <trkpt lat="51.163626" lon="5.770299">
        <ele>35.385407</ele>
        <time>2023-03-05T09:03:45.000Z</time>
      </trkpt>
      <trkpt lat="51.163636" lon="5.770238">
        <ele>35.389139</ele>
        <time>2023-03-05T09:03:46.000Z</time>
      </trkpt>
      <trkpt lat="51.163644" lon="5.770186">
        <ele>35.392308</ele>
        <time>2023-03-05T09:03:47.000Z</time>
      </trkpt>
      <trkpt lat="51.163654" lon="5.770139">
        <ele>35.395246</ele>
        <time>2023-03-05T09:03:48.000Z</time>
      </trkpt>
      <trkpt lat="51.163668" lon="5.770097">
        <ele>35.398062</ele>
        <time>2023-03-05T09:03:49.000Z</time>
      </trkpt>
      <trkpt lat="51.163692" lon="5.770066">
        <ele>35.400977</ele>
        <time>2023-03-05T09:03:50.000Z</time>
      </trkpt>
      <trkpt lat="51.163728" lon="5.770053">
        <ele>35.404462</ele>
        <time>2023-03-05T09:03:51.000Z</time>
      </trkpt>
      <trkpt lat="51.163770" lon="5.770061">
        <ele>35.408454</ele>
        <time>2023-03-05T09:03:52.000Z</time>
      </trkpt>
      <trkpt lat="51.163821" lon="5.770080">
        <ele>35.413398</ele>
        <time>2023-03-05T09:03:53.000Z</time>
      </trkpt>
      <trkpt lat="51.163875" lon="5.770102">
        <ele>35.418659</ele>
        <time>2023-03-05T09:03:54.000Z</time>
      </trkpt>
      <trkpt lat="51.163928" lon="5.770123">
        <ele>35.423814</ele>
        <time>2023-03-05T09:03:55.000Z</time>
      </trkpt>
      <trkpt lat="51.163981" lon="5.770144">
        <ele>35.428969</ele>
        <time>2023-03-05T09:03:56.000Z</time>
      </trkpt>
      <trkpt lat="51.164038" lon="5.770164">
        <ele>35.434479</ele>
        <time>2023-03-05T09:03:57.000Z</time>
      </trkpt>
      <trkpt lat="51.164092" lon="5.770183">
        <ele>35.432880</ele>
        <time>2023-03-05T09:03:58.000Z</time>
      </trkpt>
      <trkpt lat="51.164150" lon="5.770199">
        <ele>35.420959</ele>
        <time>2023-03-05T09:03:59.000Z</time>
      </trkpt>
      <trkpt lat="51.164210" lon="5.770212">
        <ele>35.408697</ele>
        <time>2023-03-05T09:04:00.000Z</time>
      </trkpt>
      <trkpt lat="51.164269" lon="5.770220">
        <ele>35.396705</ele>
        <time>2023-03-05T09:04:01.000Z</time>
      </trkpt>
      <trkpt lat="51.164330" lon="5.770220">
        <ele>35.384352</ele>
        <time>2023-03-05T09:04:02.000Z</time>
      </trkpt>
      <trkpt lat="51.164391" lon="5.770219">
        <ele>35.371998</ele>
        <time>2023-03-05T09:04:03.000Z</time>
      </trkpt>
      <trkpt lat="51.164452" lon="5.770214">
        <ele>35.359628</ele>
        <time>2023-03-05T09:04:04.000Z</time>
      </trkpt>
      <trkpt lat="51.164512" lon="5.770208">
        <ele>35.347453</ele>
        <time>2023-03-05T09:04:05.000Z</time>
      </trkpt>
      <trkpt lat="51.164573" lon="5.770200">
        <ele>35.335058</ele>
        <time>2023-03-05T09:04:06.000Z</time>
      </trkpt>
      <trkpt lat="51.164635" lon="5.770191">
        <ele>35.322450</ele>
        <time>2023-03-05T09:04:07.000Z</time>
      </trkpt>
      <trkpt lat="51.164693" lon="5.770183">
        <ele>35.310660</ele>
        <time>2023-03-05T09:04:08.000Z</time>
      </trkpt>
      <trkpt lat="51.164753" lon="5.770174">
        <ele>35.298456</ele>
        <time>2023-03-05T09:04:09.000Z</time>
      </trkpt>
      <trkpt lat="51.164814" lon="5.770164">
        <ele>35.286037</ele>
        <time>2023-03-05T09:04:10.000Z</time>
      </trkpt>
      <trkpt lat="51.164872" lon="5.770156">
        <ele>35.274248</ele>
        <time>2023-03-05T09:04:11.000Z</time>
      </trkpt>
      <trkpt lat="51.164932" lon="5.770148">
        <ele>35.262054</ele>
        <time>2023-03-05T09:04:12.000Z</time>
      </trkpt>
      <trkpt lat="51.164993" lon="5.770140">
        <ele>35.249659</ele>
        <time>2023-03-05T09:04:13.000Z</time>
      </trkpt>
      <trkpt lat="51.165051" lon="5.770129">
        <ele>35.237830</ele>
        <time>2023-03-05T09:04:14.000Z</time>
      </trkpt>
      <trkpt lat="51.165113" lon="5.770120">
        <ele>35.225223</ele>
        <time>2023-03-05T09:04:15.000Z</time>
      </trkpt>
      <trkpt lat="51.165173" lon="5.770111">
        <ele>35.213018</ele>
        <time>2023-03-05T09:04:16.000Z</time>
      </trkpt>
      <trkpt lat="51.165233" lon="5.770101">
        <ele>35.200801</ele>
        <time>2023-03-05T09:04:17.000Z</time>
      </trkpt>
      <trkpt lat="51.165295" lon="5.770089">
        <ele>35.188153</ele>
        <time>2023-03-05T09:04:18.000Z</time>
      </trkpt>
      <trkpt lat="51.165357" lon="5.770080">
        <ele>35.175545</ele>
        <time>2023-03-05T09:04:19.000Z</time>
      </trkpt>
      <trkpt lat="51.165422" lon="5.770071">
        <ele>35.162332</ele>
        <time>2023-03-05T09:04:20.000Z</time>
      </trkpt>
      <trkpt lat="51.165491" lon="5.770060">
        <ele>35.148289</ele>
        <time>2023-03-05T09:04:21.000Z</time>
      </trkpt>
      <trkpt lat="51.165559" lon="5.770049">
        <ele>35.134447</ele>
        <time>2023-03-05T09:04:22.000Z</time>
      </trkpt>
      <trkpt lat="51.165628" lon="5.770039">
        <ele>35.120416</ele>
        <time>2023-03-05T09:04:23.000Z</time>
      </trkpt>
      <trkpt lat="51.165696" lon="5.770028">
        <ele>35.106574</ele>
        <time>2023-03-05T09:04:24.000Z</time>
      </trkpt>
      <trkpt lat="51.165762" lon="5.770017">
        <ele>35.093135</ele>
        <time>2023-03-05T09:04:25.000Z</time>
      </trkpt>
      <trkpt lat="51.165825" lon="5.770008">
        <ele>35.080326</ele>
        <time>2023-03-05T09:04:26.000Z</time>
      </trkpt>
      <trkpt lat="51.165888" lon="5.769999">
        <ele>35.064830</ele>
        <time>2023-03-05T09:04:27.000Z</time>
      </trkpt>
      <trkpt lat="51.165951" lon="5.769990">
        <ele>35.046050</ele>
        <time>2023-03-05T09:04:28.000Z</time>
      </trkpt>
      <trkpt lat="51.166014" lon="5.769982">
        <ele>35.027285</ele>
        <time>2023-03-05T09:04:29.000Z</time>
      </trkpt>
      <trkpt lat="51.166079" lon="5.769973">
        <ele>35.007913</ele>
        <time>2023-03-05T09:04:30.000Z</time>
      </trkpt>
      <trkpt lat="51.166142" lon="5.769966">
        <ele>34.989162</ele>
        <time>2023-03-05T09:04:31.000Z</time>
      </trkpt>
      <trkpt lat="51.166205" lon="5.769959">
        <ele>34.970411</ele>
        <time>2023-03-05T09:04:32.000Z</time>
      </trkpt>
      <trkpt lat="51.166266" lon="5.769953">
        <ele>34.952265</ele>
        <time>2023-03-05T09:04:33.000Z</time>
      </trkpt>
      <trkpt lat="51.166328" lon="5.769945">
        <ele>34.933796</ele>
        <time>2023-03-05T09:04:34.000Z</time>
      </trkpt>
      <trkpt lat="51.166389" lon="5.769937">
        <ele>34.915623</ele>
        <time>2023-03-05T09:04:35.000Z</time>
      </trkpt>
      <trkpt lat="51.166450" lon="5.769926">
        <ele>34.897395</ele>
        <time>2023-03-05T09:04:36.000Z</time>
      </trkpt>
      <trkpt lat="51.166511" lon="5.769916">
        <ele>34.879188</ele>
        <time>2023-03-05T09:04:37.000Z</time>
      </trkpt>
      <trkpt lat="51.166572" lon="5.769906">
        <ele>34.860981</ele>
        <time>2023-03-05T09:04:38.000Z</time>
      </trkpt>
      <trkpt lat="51.166634" lon="5.769896">
        <ele>34.842478</ele>
        <time>2023-03-05T09:04:39.000Z</time>
      </trkpt>
      <trkpt lat="51.166697" lon="5.769889">
        <ele>34.823727</ele>
        <time>2023-03-05T09:04:40.000Z</time>
      </trkpt>
      <trkpt lat="51.166760" lon="5.769884">
        <ele>34.804998</ele>
        <time>2023-03-05T09:04:41.000Z</time>
      </trkpt>
      <trkpt lat="51.166821" lon="5.769876">
        <ele>34.786825</ele>
        <time>2023-03-05T09:04:42.000Z</time>
      </trkpt>
      <trkpt lat="51.166884" lon="5.769869">
        <ele>34.768074</ele>
        <time>2023-03-05T09:04:43.000Z</time>
      </trkpt>
      <trkpt lat="51.166946" lon="5.769861">
        <ele>34.749605</ele>
        <time>2023-03-05T09:04:44.000Z</time>
      </trkpt>
      <trkpt lat="51.167007" lon="5.769855">
        <ele>34.731459</ele>
        <time>2023-03-05T09:04:45.000Z</time>
      </trkpt>
      <trkpt lat="51.167069" lon="5.769849">
        <ele>34.713016</ele>
        <time>2023-03-05T09:04:46.000Z</time>
      </trkpt>
      <trkpt lat="51.167131" lon="5.769841">
        <ele>34.694547</ele>
        <time>2023-03-05T09:04:47.000Z</time>
      </trkpt>
      <trkpt lat="51.167194" lon="5.769833">
        <ele>34.675783</ele>
        <time>2023-03-05T09:04:48.000Z</time>
      </trkpt>
      <trkpt lat="51.167256" lon="5.769825">
        <ele>34.657314</ele>
        <time>2023-03-05T09:04:49.000Z</time>
      </trkpt>
      <trkpt lat="51.167317" lon="5.769817">
        <ele>34.639141</ele>
        <time>2023-03-05T09:04:50.000Z</time>
      </trkpt>
      <trkpt lat="51.167380" lon="5.769809">
        <ele>34.620376</ele>
        <time>2023-03-05T09:04:51.000Z</time>
      </trkpt>
      <trkpt lat="51.167443" lon="5.769801">
        <ele>34.601611</ele>
        <time>2023-03-05T09:04:52.000Z</time>
      </trkpt>
      <trkpt lat="51.167504" lon="5.769791">
        <ele>34.583404</ele>
        <time>2023-03-05T09:04:53.000Z</time>
      </trkpt>
      <trkpt lat="51.167564" lon="5.769781">
        <ele>34.565492</ele>
        <time>2023-03-05T09:04:54.000Z</time>
      </trkpt>
      <trkpt lat="51.167625" lon="5.769773">
        <ele>34.547319</ele>
        <time>2023-03-05T09:04:55.000Z</time>
      </trkpt>
      <trkpt lat="51.167686" lon="5.769766">
        <ele>34.537293</ele>
        <time>2023-03-05T09:04:56.000Z</time>
      </trkpt>
      <trkpt lat="51.167750" lon="5.769757">
        <ele>34.533618</ele>
        <time>2023-03-05T09:04:57.000Z</time>
      </trkpt>
      <trkpt lat="51.167812" lon="5.769749">
        <ele>34.530061</ele>
        <time>2023-03-05T09:04:58.000Z</time>
      </trkpt>
      <trkpt lat="51.167876" lon="5.769739">
        <ele>34.526384</ele>
        <time>2023-03-05T09:04:59.000Z</time>
      </trkpt>
      <trkpt lat="51.167940" lon="5.769728">
        <ele>34.522703</ele>
        <time>2023-03-05T09:05:00.000Z</time>
      </trkpt>
      <trkpt lat="51.168003" lon="5.769717">
        <ele>34.519078</ele>
        <time>2023-03-05T09:05:01.000Z</time>
      </trkpt>
      <trkpt lat="51.168065" lon="5.769707">
        <ele>34.515515</ele>
        <time>2023-03-05T09:05:02.000Z</time>
      </trkpt>
      <trkpt lat="51.168128" lon="5.769695">
        <ele>34.511886</ele>
        <time>2023-03-05T09:05:03.000Z</time>
      </trkpt>
      <trkpt lat="51.168195" lon="5.769684">
        <ele>34.508035</ele>
        <time>2023-03-05T09:05:04.000Z</time>
      </trkpt>
      <trkpt lat="51.168261" lon="5.769675">
        <ele>34.504246</ele>
        <time>2023-03-05T09:05:05.000Z</time>
      </trkpt>
      <trkpt lat="51.168327" lon="5.769666">
        <ele>34.500458</ele>
        <time>2023-03-05T09:05:06.000Z</time>
      </trkpt>
      <trkpt lat="51.168394" lon="5.769657">
        <ele>34.496613</ele>
        <time>2023-03-05T09:05:07.000Z</time>
      </trkpt>
      <trkpt lat="51.168459" lon="5.769648">
        <ele>34.492882</ele>
        <time>2023-03-05T09:05:08.000Z</time>
      </trkpt>
      <trkpt lat="51.168524" lon="5.769644">
        <ele>34.489162</ele>
        <time>2023-03-05T09:05:09.000Z</time>
      </trkpt>
      <trkpt lat="51.168591" lon="5.769642">
        <ele>34.485330</ele>
        <time>2023-03-05T09:05:10.000Z</time>
      </trkpt>
      <trkpt lat="51.168655" lon="5.769638">
        <ele>34.481667</ele>
        <time>2023-03-05T09:05:11.000Z</time>
      </trkpt>
      <trkpt lat="51.168719" lon="5.769631">
        <ele>34.477999</ele>
        <time>2023-03-05T09:05:12.000Z</time>
      </trkpt>
      <trkpt lat="51.168781" lon="5.769624">
        <ele>34.474444</ele>
        <time>2023-03-05T09:05:13.000Z</time>
      </trkpt>
      <trkpt lat="51.168841" lon="5.769619">
        <ele>34.471009</ele>
        <time>2023-03-05T09:05:14.000Z</time>
      </trkpt>
      <trkpt lat="51.168901" lon="5.769614">
        <ele>34.467573</ele>
        <time>2023-03-05T09:05:15.000Z</time>
      </trkpt>
      <trkpt lat="51.168958" lon="5.769608">
        <ele>34.464306</ele>
        <time>2023-03-05T09:05:16.000Z</time>
      </trkpt>
      <trkpt lat="51.169020" lon="5.769602">
        <ele>34.460754</ele>
        <time>2023-03-05T09:05:17.000Z</time>
      </trkpt>
      <trkpt lat="51.169085" lon="5.769603">
        <ele>34.457037</ele>
        <time>2023-03-05T09:05:18.000Z</time>
      </trkpt>
      <trkpt lat="51.169150" lon="5.769614">
        <ele>34.453299</ele>
        <time>2023-03-05T09:05:19.000Z</time>
      </trkpt>
      <trkpt lat="51.169215" lon="5.769631">
        <ele>34.449532</ele>
        <time>2023-03-05T09:05:20.000Z</time>
      </trkpt>
      <trkpt lat="51.169277" lon="5.769656">
        <ele>34.445875</ele>
        <time>2023-03-05T09:05:21.000Z</time>
      </trkpt>
      <trkpt lat="51.169340" lon="5.769687">
        <ele>34.442104</ele>
        <time>2023-03-05T09:05:22.000Z</time>
      </trkpt>
      <trkpt lat="51.169400" lon="5.769724">
        <ele>34.438426</ele>
        <time>2023-03-05T09:05:23.000Z</time>
      </trkpt>
      <trkpt lat="51.169458" lon="5.769762">
        <ele>34.437326</ele>
        <time>2023-03-05T09:05:24.000Z</time>
      </trkpt>
      <trkpt lat="51.169515" lon="5.769802">
        <ele>34.439535</ele>
        <time>2023-03-05T09:05:25.000Z</time>
      </trkpt>
      <trkpt lat="51.169575" lon="5.769844">
        <ele>34.441859</ele>
        <time>2023-03-05T09:05:26.000Z</time>
      </trkpt>
      <trkpt lat="51.169636" lon="5.769884">
        <ele>34.444199</ele>
        <time>2023-03-05T09:05:27.000Z</time>
      </trkpt>
      <trkpt lat="51.169695" lon="5.769924">
        <ele>34.446473</ele>
        <time>2023-03-05T09:05:28.000Z</time>
      </trkpt>
      <trkpt lat="51.169752" lon="5.769966">
        <ele>34.448700</ele>
        <time>2023-03-05T09:05:29.000Z</time>
      </trkpt>
      <trkpt lat="51.169809" lon="5.770010">
        <ele>34.450946</ele>
        <time>2023-03-05T09:05:30.000Z</time>
      </trkpt>
      <trkpt lat="51.169868" lon="5.770054">
        <ele>34.453256</ele>
        <time>2023-03-05T09:05:31.000Z</time>
      </trkpt>
      <trkpt lat="51.169927" lon="5.770098">
        <ele>34.455567</ele>
        <time>2023-03-05T09:05:32.000Z</time>
      </trkpt>
      <trkpt lat="51.169984" lon="5.770141">
        <ele>34.457803</ele>
        <time>2023-03-05T09:05:33.000Z</time>
      </trkpt>
      <trkpt lat="51.170044" lon="5.770177">
        <ele>34.460077</ele>
        <time>2023-03-05T09:05:34.000Z</time>
      </trkpt>
      <trkpt lat="51.170102" lon="5.770199">
        <ele>34.462192</ele>
        <time>2023-03-05T09:05:35.000Z</time>
      </trkpt>
      <trkpt lat="51.170165" lon="5.770206">
        <ele>34.464432</ele>
        <time>2023-03-05T09:05:36.000Z</time>
      </trkpt>
      <trkpt lat="51.170224" lon="5.770192">
        <ele>34.466548</ele>
        <time>2023-03-05T09:05:37.000Z</time>
      </trkpt>
      <trkpt lat="51.170279" lon="5.770153">
        <ele>34.468683</ele>
        <time>2023-03-05T09:05:38.000Z</time>
      </trkpt>
      <trkpt lat="51.170332" lon="5.770097">
        <ele>34.470938</ele>
        <time>2023-03-05T09:05:39.000Z</time>
      </trkpt>
      <trkpt lat="51.170381" lon="5.770034">
        <ele>34.473170</ele>
        <time>2023-03-05T09:05:40.000Z</time>
      </trkpt>
      <trkpt lat="51.170427" lon="5.769968">
        <ele>34.475365</ele>
        <time>2023-03-05T09:05:41.000Z</time>
      </trkpt>
      <trkpt lat="51.170475" lon="5.769901">
        <ele>34.477628</ele>
        <time>2023-03-05T09:05:42.000Z</time>
      </trkpt>
      <trkpt lat="51.170523" lon="5.769830">
        <ele>34.479950</ele>
        <time>2023-03-05T09:05:43.000Z</time>
      </trkpt>
      <trkpt lat="51.170568" lon="5.769761">
        <ele>34.482164</ele>
        <time>2023-03-05T09:05:44.000Z</time>
      </trkpt>
      <trkpt lat="51.170611" lon="5.769689">
        <ele>34.484376</ele>
        <time>2023-03-05T09:05:45.000Z</time>
      </trkpt>
      <trkpt lat="51.170657" lon="5.769616">
        <ele>34.486677</ele>
        <time>2023-03-05T09:05:46.000Z</time>
      </trkpt>
      <trkpt lat="51.170700" lon="5.769546">
        <ele>34.488857</ele>
        <time>2023-03-05T09:05:47.000Z</time>
      </trkpt>
      <trkpt lat="51.170744" lon="5.769477">
        <ele>34.491046</ele>
        <time>2023-03-05T09:05:48.000Z</time>
      </trkpt>
      <trkpt lat="51.170787" lon="5.769405">
        <ele>34.493257</ele>
        <time>2023-03-05T09:05:49.000Z</time>
      </trkpt>
      <trkpt lat="51.170829" lon="5.769332">
        <ele>34.495461</ele>
        <time>2023-03-05T09:05:50.000Z</time>
      </trkpt>
      <trkpt lat="51.170874" lon="5.769261">
        <ele>34.497706</ele>
        <time>2023-03-05T09:05:51.000Z</time>
      </trkpt>
      <trkpt lat="51.170917" lon="5.769191">
        <ele>34.499885</ele>
        <time>2023-03-05T09:05:52.000Z</time>
      </trkpt>
      <trkpt lat="51.170959" lon="5.769125">
        <ele>34.513736</ele>
        <time>2023-03-05T09:05:53.000Z</time>
      </trkpt>
      <trkpt lat="51.171001" lon="5.769059">
        <ele>34.529467</ele>
        <time>2023-03-05T09:05:54.000Z</time>
      </trkpt>
      <trkpt lat="51.171041" lon="5.768996">
        <ele>34.544467</ele>
        <time>2023-03-05T09:05:55.000Z</time>
      </trkpt>
      <trkpt lat="51.171079" lon="5.768938">
        <ele>34.558500</ele>
        <time>2023-03-05T09:05:56.000Z</time>
      </trkpt>
      <trkpt lat="51.171114" lon="5.768876">
        <ele>34.572457</ele>
        <time>2023-03-05T09:05:57.000Z</time>
      </trkpt>
      <trkpt lat="51.171144" lon="5.768804">
        <ele>34.586919</ele>
        <time>2023-03-05T09:05:58.000Z</time>
      </trkpt>
      <trkpt lat="51.171164" lon="5.768720">
        <ele>34.601951</ele>
        <time>2023-03-05T09:05:59.000Z</time>
      </trkpt>
      <trkpt lat="51.171169" lon="5.768627">
        <ele>34.617566</ele>
        <time>2023-03-05T09:06:00.000Z</time>
      </trkpt>
      <trkpt lat="51.171164" lon="5.768525">
        <ele>34.634681</ele>
        <time>2023-03-05T09:06:01.000Z</time>
      </trkpt>
      <trkpt lat="51.171157" lon="5.768421">
        <ele>34.652180</ele>
        <time>2023-03-05T09:06:02.000Z</time>
      </trkpt>
      <trkpt lat="51.171152" lon="5.768317">
        <ele>34.669629</ele>
        <time>2023-03-05T09:06:03.000Z</time>
      </trkpt>
      <trkpt lat="51.171148" lon="5.768214">
        <ele>34.686893</ele>
        <time>2023-03-05T09:06:04.000Z</time>
      </trkpt>
      <trkpt lat="51.171144" lon="5.768108">
        <ele>34.704658</ele>
        <time>2023-03-05T09:06:05.000Z</time>
      </trkpt>
      <trkpt lat="51.171143" lon="5.768002">
        <ele>34.722393</ele>
        <time>2023-03-05T09:06:06.000Z</time>
      </trkpt>
      <trkpt lat="51.171145" lon="5.767902">
        <ele>34.739130</ele>
        <time>2023-03-05T09:06:07.000Z</time>
      </trkpt>
      <trkpt lat="51.171149" lon="5.767807">
        <ele>34.755059</ele>
        <time>2023-03-05T09:06:08.000Z</time>
      </trkpt>
      <trkpt lat="51.171155" lon="5.767713">
        <ele>34.770865</ele>
        <time>2023-03-05T09:06:09.000Z</time>
      </trkpt>
      <trkpt lat="51.171160" lon="5.767618">
        <ele>34.786814</ele>
        <time>2023-03-05T09:06:10.000Z</time>
      </trkpt>
      <trkpt lat="51.171166" lon="5.767521">
        <ele>34.803120</ele>
        <time>2023-03-05T09:06:11.000Z</time>
      </trkpt>
      <trkpt lat="51.171174" lon="5.767425">
        <ele>34.819321</ele>
        <time>2023-03-05T09:06:12.000Z</time>
      </trkpt>
      <trkpt lat="51.171182" lon="5.767330">
        <ele>34.835356</ele>
        <time>2023-03-05T09:06:13.000Z</time>
      </trkpt>
      <trkpt lat="51.171187" lon="5.767238">
        <ele>34.850805</ele>
        <time>2023-03-05T09:06:14.000Z</time>
      </trkpt>
      <trkpt lat="51.171193" lon="5.767143">
        <ele>34.866778</ele>
        <time>2023-03-05T09:06:15.000Z</time>
      </trkpt>
      <trkpt lat="51.171201" lon="5.767048">
        <ele>34.882813</ele>
        <time>2023-03-05T09:06:16.000Z</time>
      </trkpt>
      <trkpt lat="51.171208" lon="5.766954">
        <ele>34.898649</ele>
        <time>2023-03-05T09:06:17.000Z</time>
      </trkpt>
      <trkpt lat="51.171216" lon="5.766859">
        <ele>34.914684</ele>
        <time>2023-03-05T09:06:18.000Z</time>
      </trkpt>
      <trkpt lat="51.171221" lon="5.766764">
        <ele>34.930633</ele>
        <time>2023-03-05T09:06:19.000Z</time>
      </trkpt>
      <trkpt lat="51.171227" lon="5.766670">
        <ele>34.946439</ele>
        <time>2023-03-05T09:06:20.000Z</time>
      </trkpt>
      <trkpt lat="51.171235" lon="5.766576">
        <ele>34.962309</ele>
        <time>2023-03-05T09:06:21.000Z</time>
      </trkpt>
      <trkpt lat="51.171240" lon="5.766483">
        <ele>34.977924</ele>
        <time>2023-03-05T09:06:22.000Z</time>
      </trkpt>
      <trkpt lat="51.171249" lon="5.766390">
        <ele>35.012490</ele>
        <time>2023-03-05T09:06:23.000Z</time>
      </trkpt>
      <trkpt lat="51.171256" lon="5.766296">
        <ele>35.050259</ele>
        <time>2023-03-05T09:06:24.000Z</time>
      </trkpt>
      <trkpt lat="51.171262" lon="5.766200">
        <ele>35.088752</ele>
        <time>2023-03-05T09:06:25.000Z</time>
      </trkpt>
      <trkpt lat="51.171270" lon="5.766103">
        <ele>35.127788</ele>
        <time>2023-03-05T09:06:26.000Z</time>
      </trkpt>
      <trkpt lat="51.171277" lon="5.766009">
        <ele>35.165557</ele>
        <time>2023-03-05T09:06:27.000Z</time>
      </trkpt>
      <trkpt lat="51.171282" lon="5.765913">
        <ele>35.203992</ele>
        <time>2023-03-05T09:06:28.000Z</time>
      </trkpt>
      <trkpt lat="51.171286" lon="5.765817">
        <ele>35.242380</ele>
        <time>2023-03-05T09:06:29.000Z</time>
      </trkpt>
      <trkpt lat="51.171292" lon="5.765722">
        <ele>35.280476</ele>
        <time>2023-03-05T09:06:30.000Z</time>
      </trkpt>
      <trkpt lat="51.171300" lon="5.765628">
        <ele>35.318326</ele>
        <time>2023-03-05T09:06:31.000Z</time>
      </trkpt>
      <trkpt lat="51.171308" lon="5.765532">
        <ele>35.356966</ele>
        <time>2023-03-05T09:06:32.000Z</time>
      </trkpt>
      <trkpt lat="51.171315" lon="5.765436">
        <ele>35.395528</ele>
        <time>2023-03-05T09:06:33.000Z</time>
      </trkpt>
      <trkpt lat="51.171323" lon="5.765339">
        <ele>35.434563</ele>
        <time>2023-03-05T09:06:34.000Z</time>
      </trkpt>
      <trkpt lat="51.171330" lon="5.765240">
        <ele>35.474314</ele>
        <time>2023-03-05T09:06:35.000Z</time>
      </trkpt>
      <trkpt lat="51.171338" lon="5.765143">
        <ele>35.513350</ele>
        <time>2023-03-05T09:06:36.000Z</time>
      </trkpt>
      <trkpt lat="51.171343" lon="5.765049">
        <ele>35.550990</ele>
        <time>2023-03-05T09:06:37.000Z</time>
      </trkpt>
      <trkpt lat="51.171349" lon="5.764954">
        <ele>35.589086</ele>
        <time>2023-03-05T09:06:38.000Z</time>
      </trkpt>
      <trkpt lat="51.171357" lon="5.764855">
        <ele>35.628913</ele>
        <time>2023-03-05T09:06:39.000Z</time>
      </trkpt>
      <trkpt lat="51.171362" lon="5.764757">
        <ele>35.668144</ele>
        <time>2023-03-05T09:06:40.000Z</time>
      </trkpt>
      <trkpt lat="51.171368" lon="5.764660">
        <ele>35.707034</ele>
        <time>2023-03-05T09:06:41.000Z</time>
      </trkpt>
      <trkpt lat="51.171374" lon="5.764562">
        <ele>35.746321</ele>
        <time>2023-03-05T09:06:42.000Z</time>
      </trkpt>
      <trkpt lat="51.171378" lon="5.764466">
        <ele>35.784709</ele>
        <time>2023-03-05T09:06:43.000Z</time>
      </trkpt>
      <trkpt lat="51.171379" lon="5.764372">
        <ele>35.822220</ele>
        <time>2023-03-05T09:06:44.000Z</time>
      </trkpt>
      <trkpt lat="51.171379" lon="5.764275">
        <ele>35.860922</ele>
        <time>2023-03-05T09:06:45.000Z</time>
      </trkpt>
      <trkpt lat="51.171379" lon="5.764179">
        <ele>35.899226</ele>
        <time>2023-03-05T09:06:46.000Z</time>
      </trkpt>
      <trkpt lat="51.171379" lon="5.764084">
        <ele>35.937130</ele>
        <time>2023-03-05T09:06:47.000Z</time>
      </trkpt>
      <trkpt lat="51.171374" lon="5.763989">
        <ele>35.975168</ele>
        <time>2023-03-05T09:06:48.000Z</time>
      </trkpt>
      <trkpt lat="51.171369" lon="5.763893">
        <ele>36.013603</ele>
        <time>2023-03-05T09:06:49.000Z</time>
      </trkpt>
      <trkpt lat="51.171363" lon="5.763798">
        <ele>36.051699</ele>
        <time>2023-03-05T09:06:50.000Z</time>
      </trkpt>
      <trkpt lat="51.171355" lon="5.763703">
        <ele>36.089944</ele>
        <time>2023-03-05T09:06:51.000Z</time>
      </trkpt>
      <trkpt lat="51.171345" lon="5.763610">
        <ele>36.125160</ele>
        <time>2023-03-05T09:06:52.000Z</time>
      </trkpt>
      <trkpt lat="51.171334" lon="5.763520">
        <ele>36.131399</ele>
        <time>2023-03-05T09:06:53.000Z</time>
      </trkpt>
      <trkpt lat="51.171323" lon="5.763429">
        <ele>36.137706</ele>
        <time>2023-03-05T09:06:54.000Z</time>
      </trkpt>
      <trkpt lat="51.171311" lon="5.763335">
        <ele>36.144234</ele>
        <time>2023-03-05T09:06:55.000Z</time>
      </trkpt>
      <trkpt lat="51.171297" lon="5.763243">
        <ele>36.150676</ele>
        <time>2023-03-05T09:06:56.000Z</time>
      </trkpt>
      <trkpt lat="51.171284" lon="5.763152">
        <ele>36.157027</ele>
        <time>2023-03-05T09:06:57.000Z</time>
      </trkpt>
      <trkpt lat="51.171270" lon="5.763061">
        <ele>36.163403</ele>
        <time>2023-03-05T09:06:58.000Z</time>
      </trkpt>
      <trkpt lat="51.171257" lon="5.762968">
        <ele>36.169887</ele>
        <time>2023-03-05T09:06:59.000Z</time>
      </trkpt>
      <trkpt lat="51.171246" lon="5.762874">
        <ele>36.176394</ele>
        <time>2023-03-05T09:07:00.000Z</time>
      </trkpt>
      <trkpt lat="51.171232" lon="5.762782">
        <ele>36.182836</ele>
        <time>2023-03-05T09:07:01.000Z</time>
      </trkpt>
      <trkpt lat="51.171220" lon="5.762691">
        <ele>36.189164</ele>
        <time>2023-03-05T09:07:02.000Z</time>
      </trkpt>
      <trkpt lat="51.171208" lon="5.762598">
        <ele>36.195625</ele>
        <time>2023-03-05T09:07:03.000Z</time>
      </trkpt>
      <trkpt lat="51.171194" lon="5.762505">
        <ele>36.202133</ele>
        <time>2023-03-05T09:07:04.000Z</time>
      </trkpt>
      <trkpt lat="51.171181" lon="5.762409">
        <ele>36.208816</ele>
        <time>2023-03-05T09:07:05.000Z</time>
      </trkpt>
      <trkpt lat="51.171167" lon="5.762315">
        <ele>36.215391</ele>
        <time>2023-03-05T09:07:06.000Z</time>
      </trkpt>
      <trkpt lat="51.171155" lon="5.762220">
        <ele>36.221985</ele>
        <time>2023-03-05T09:07:07.000Z</time>
      </trkpt>
      <trkpt lat="51.171143" lon="5.762123">
        <ele>36.228713</ele>
        <time>2023-03-05T09:07:08.000Z</time>
      </trkpt>
      <trkpt lat="51.171132" lon="5.762027">
        <ele>36.235354</ele>
        <time>2023-03-05T09:07:09.000Z</time>
      </trkpt>
      <trkpt lat="51.171120" lon="5.761931">
        <ele>36.242015</ele>
        <time>2023-03-05T09:07:10.000Z</time>
      </trkpt>
      <trkpt lat="51.171109" lon="5.761833">
        <ele>36.248790</ele>
        <time>2023-03-05T09:07:11.000Z</time>
      </trkpt>
      <trkpt lat="51.171097" lon="5.761734">
        <ele>36.255652</ele>
        <time>2023-03-05T09:07:12.000Z</time>
      </trkpt>
      <trkpt lat="51.171086" lon="5.761636">
        <ele>36.262426</ele>
        <time>2023-03-05T09:07:13.000Z</time>
      </trkpt>
      <trkpt lat="51.171077" lon="5.761539">
        <ele>36.269099</ele>
        <time>2023-03-05T09:07:14.000Z</time>
      </trkpt>
      <trkpt lat="51.171069" lon="5.761440">
        <ele>36.275891</ele>
        <time>2023-03-05T09:07:15.000Z</time>
      </trkpt>
      <trkpt lat="51.171059" lon="5.761343">
        <ele>36.282581</ele>
        <time>2023-03-05T09:07:16.000Z</time>
      </trkpt>
      <trkpt lat="51.171050" lon="5.761248">
        <ele>36.289119</ele>
        <time>2023-03-05T09:07:17.000Z</time>
      </trkpt>
      <trkpt lat="51.171043" lon="5.761154">
        <ele>36.295560</ele>
        <time>2023-03-05T09:07:18.000Z</time>
      </trkpt>
      <trkpt lat="51.171032" lon="5.761060">
        <ele>36.302067</ele>
        <time>2023-03-05T09:07:19.000Z</time>
      </trkpt>
      <trkpt lat="51.171026" lon="5.760966">
        <ele>36.308497</ele>
        <time>2023-03-05T09:07:20.000Z</time>
      </trkpt>
      <trkpt lat="51.171020" lon="5.760872">
        <ele>36.314926</ele>
        <time>2023-03-05T09:07:21.000Z</time>
      </trkpt>
      <trkpt lat="51.171014" lon="5.760777">
        <ele>36.321441</ele>
        <time>2023-03-05T09:07:22.000Z</time>
      </trkpt>
      <trkpt lat="51.171008" lon="5.760680">
        <ele>36.328146</ele>
        <time>2023-03-05T09:07:23.000Z</time>
      </trkpt>
      <trkpt lat="51.171003" lon="5.760589">
        <ele>36.334429</ele>
        <time>2023-03-05T09:07:24.000Z</time>
      </trkpt>
      <trkpt lat="51.170999" lon="5.760498">
        <ele>36.340705</ele>
        <time>2023-03-05T09:07:25.000Z</time>
      </trkpt>
      <trkpt lat="51.170995" lon="5.760406">
        <ele>36.347048</ele>
        <time>2023-03-05T09:07:26.000Z</time>
      </trkpt>
      <trkpt lat="51.170991" lon="5.760314">
        <ele>36.353392</ele>
        <time>2023-03-05T09:07:27.000Z</time>
      </trkpt>
      <trkpt lat="51.170990" lon="5.760221">
        <ele>36.359791</ele>
        <time>2023-03-05T09:07:28.000Z</time>
      </trkpt>
      <trkpt lat="51.170988" lon="5.760128">
        <ele>36.366192</ele>
        <time>2023-03-05T09:07:29.000Z</time>
      </trkpt>
      <trkpt lat="51.170986" lon="5.760031">
        <ele>36.372868</ele>
        <time>2023-03-05T09:07:30.000Z</time>
      </trkpt>
      <trkpt lat="51.170984" lon="5.759934">
        <ele>36.379544</ele>
        <time>2023-03-05T09:07:31.000Z</time>
      </trkpt>
      <trkpt lat="51.170980" lon="5.759839">
        <ele>36.386094</ele>
        <time>2023-03-05T09:07:32.000Z</time>
      </trkpt>
      <trkpt lat="51.170979" lon="5.759743">
        <ele>36.392699</ele>
        <time>2023-03-05T09:07:33.000Z</time>
      </trkpt>
      <trkpt lat="51.170976" lon="5.759647">
        <ele>36.399311</ele>
        <time>2023-03-05T09:07:34.000Z</time>
      </trkpt>
      <trkpt lat="51.170972" lon="5.759554">
        <ele>36.405723</ele>
        <time>2023-03-05T09:07:35.000Z</time>
      </trkpt>
      <trkpt lat="51.170969" lon="5.759457">
        <ele>36.412404</ele>
        <time>2023-03-05T09:07:36.000Z</time>
      </trkpt>
      <trkpt lat="51.170965" lon="5.759356">
        <ele>36.419365</ele>
        <time>2023-03-05T09:07:37.000Z</time>
      </trkpt>
      <trkpt lat="51.170963" lon="5.759258">
        <ele>36.426110</ele>
        <time>2023-03-05T09:07:38.000Z</time>
      </trkpt>
      <trkpt lat="51.170963" lon="5.759159">
        <ele>36.432920</ele>
        <time>2023-03-05T09:07:39.000Z</time>
      </trkpt>
      <trkpt lat="51.170963" lon="5.759060">
        <ele>36.439730</ele>
        <time>2023-03-05T09:07:40.000Z</time>
      </trkpt>
      <trkpt lat="51.170963" lon="5.758963">
        <ele>36.446403</ele>
        <time>2023-03-05T09:07:41.000Z</time>
      </trkpt>
      <trkpt lat="51.170961" lon="5.758867">
        <ele>36.453010</ele>
        <time>2023-03-05T09:07:42.000Z</time>
      </trkpt>
      <trkpt lat="51.170957" lon="5.758770">
        <ele>36.459697</ele>
        <time>2023-03-05T09:07:43.000Z</time>
      </trkpt>
      <trkpt lat="51.170953" lon="5.758676">
        <ele>36.466178</ele>
        <time>2023-03-05T09:07:44.000Z</time>
      </trkpt>
      <trkpt lat="51.170952" lon="5.758581">
        <ele>36.472714</ele>
        <time>2023-03-05T09:07:45.000Z</time>
      </trkpt>
      <trkpt lat="51.170949" lon="5.758484">
        <ele>36.479395</ele>
        <time>2023-03-05T09:07:46.000Z</time>
      </trkpt>
      <trkpt lat="51.170948" lon="5.758387">
        <ele>36.486069</ele>
        <time>2023-03-05T09:07:47.000Z</time>
      </trkpt>
      <trkpt lat="51.170946" lon="5.758291">
        <ele>36.492676</ele>
        <time>2023-03-05T09:07:48.000Z</time>
      </trkpt>
      <trkpt lat="51.170942" lon="5.758195">
        <ele>36.499294</ele>
        <time>2023-03-05T09:07:49.000Z</time>
      </trkpt>
      <trkpt lat="51.170940" lon="5.758102">
        <ele>36.505695</ele>
        <time>2023-03-05T09:07:50.000Z</time>
      </trkpt>
      <trkpt lat="51.170940" lon="5.758007">
        <ele>36.512230</ele>
        <time>2023-03-05T09:07:51.000Z</time>
      </trkpt>
      <trkpt lat="51.170940" lon="5.757911">
        <ele>36.509884</ele>
        <time>2023-03-05T09:07:52.000Z</time>
      </trkpt>
      <trkpt lat="51.170938" lon="5.757811">
        <ele>36.479066</ele>
        <time>2023-03-05T09:07:53.000Z</time>
      </trkpt>
      <trkpt lat="51.170937" lon="5.757710">
        <ele>36.447951</ele>
        <time>2023-03-05T09:07:54.000Z</time>
      </trkpt>
      <trkpt lat="51.170934" lon="5.757608">
        <ele>36.416497</ele>
        <time>2023-03-05T09:07:55.000Z</time>
      </trkpt>
      <trkpt lat="51.170930" lon="5.757509">
        <ele>36.385938</ele>
        <time>2023-03-05T09:07:56.000Z</time>
      </trkpt>
      <trkpt lat="51.170927" lon="5.757412">
        <ele>36.356023</ele>
        <time>2023-03-05T09:07:57.000Z</time>
      </trkpt>
      <trkpt lat="51.170925" lon="5.757314">
        <ele>36.325820</ele>
        <time>2023-03-05T09:07:58.000Z</time>
      </trkpt>
      <trkpt lat="51.170925" lon="5.757216">
        <ele>36.295633</ele>
        <time>2023-03-05T09:07:59.000Z</time>
      </trkpt>
      <trkpt lat="51.170923" lon="5.757117">
        <ele>36.265122</ele>
        <time>2023-03-05T09:08:00.000Z</time>
      </trkpt>
      <trkpt lat="51.170919" lon="5.757019">
        <ele>36.234871</ele>
        <time>2023-03-05T09:08:01.000Z</time>
      </trkpt>
      <trkpt lat="51.170918" lon="5.756920">
        <ele>36.204372</ele>
        <time>2023-03-05T09:08:02.000Z</time>
      </trkpt>
      <trkpt lat="51.170918" lon="5.756820">
        <ele>36.173569</ele>
        <time>2023-03-05T09:08:03.000Z</time>
      </trkpt>
      <trkpt lat="51.170915" lon="5.756720">
        <ele>36.142730</ele>
        <time>2023-03-05T09:08:04.000Z</time>
      </trkpt>
      <trkpt lat="51.170914" lon="5.756622">
        <ele>36.112539</ele>
        <time>2023-03-05T09:08:05.000Z</time>
      </trkpt>
      <trkpt lat="51.170914" lon="5.756525">
        <ele>36.082660</ele>
        <time>2023-03-05T09:08:06.000Z</time>
      </trkpt>
      <trkpt lat="51.170911" lon="5.756430">
        <ele>36.053360</ele>
        <time>2023-03-05T09:08:07.000Z</time>
      </trkpt>
      <trkpt lat="51.170908" lon="5.756337">
        <ele>36.024675</ele>
        <time>2023-03-05T09:08:08.000Z</time>
      </trkpt>
      <trkpt lat="51.170904" lon="5.756238">
        <ele>35.994117</ele>
        <time>2023-03-05T09:08:09.000Z</time>
      </trkpt>
      <trkpt lat="51.170902" lon="5.756139">
        <ele>35.963606</ele>
        <time>2023-03-05T09:08:10.000Z</time>
      </trkpt>
      <trkpt lat="51.170900" lon="5.756044">
        <ele>35.934326</ele>
        <time>2023-03-05T09:08:11.000Z</time>
      </trkpt>
      <trkpt lat="51.170896" lon="5.755946">
        <ele>35.904075</ele>
        <time>2023-03-05T09:08:12.000Z</time>
      </trkpt>
      <trkpt lat="51.170892" lon="5.755847">
        <ele>35.873517</ele>
        <time>2023-03-05T09:08:13.000Z</time>
      </trkpt>
      <trkpt lat="51.170891" lon="5.755748">
        <ele>35.843018</ele>
        <time>2023-03-05T09:08:14.000Z</time>
      </trkpt>
      <trkpt lat="51.170888" lon="5.755649">
        <ele>35.812487</ele>
        <time>2023-03-05T09:08:15.000Z</time>
      </trkpt>
      <trkpt lat="51.170887" lon="5.755551">
        <ele>35.782296</ele>
        <time>2023-03-05T09:08:16.000Z</time>
      </trkpt>
      <trkpt lat="51.170887" lon="5.755455">
        <ele>35.752725</ele>
        <time>2023-03-05T09:08:17.000Z</time>
      </trkpt>
      <trkpt lat="51.170887" lon="5.755359">
        <ele>35.723154</ele>
        <time>2023-03-05T09:08:18.000Z</time>
      </trkpt>
      <trkpt lat="51.170885" lon="5.755263">
        <ele>35.693566</ele>
        <time>2023-03-05T09:08:19.000Z</time>
      </trkpt>
      <trkpt lat="51.170883" lon="5.755164">
        <ele>35.663055</ele>
        <time>2023-03-05T09:08:20.000Z</time>
      </trkpt>
      <trkpt lat="51.170881" lon="5.755066">
        <ele>35.633445</ele>
        <time>2023-03-05T09:08:21.000Z</time>
      </trkpt>
      <trkpt lat="51.170877" lon="5.754973">
        <ele>35.628635</ele>
        <time>2023-03-05T09:08:22.000Z</time>
      </trkpt>
      <trkpt lat="51.170873" lon="5.754880">
        <ele>35.623824</ele>
        <time>2023-03-05T09:08:23.000Z</time>
      </trkpt>
      <trkpt lat="51.170872" lon="5.754785">
        <ele>35.618921</ele>
        <time>2023-03-05T09:08:24.000Z</time>
      </trkpt>
      <trkpt lat="51.170872" lon="5.754690">
        <ele>35.614019</ele>
        <time>2023-03-05T09:08:25.000Z</time>
      </trkpt>
      <trkpt lat="51.170869" lon="5.754593">
        <ele>35.609007</ele>
        <time>2023-03-05T09:08:26.000Z</time>
      </trkpt>
      <trkpt lat="51.170866" lon="5.754496">
        <ele>35.603995</ele>
        <time>2023-03-05T09:08:27.000Z</time>
      </trkpt>
      <trkpt lat="51.170864" lon="5.754402">
        <ele>35.599142</ele>
        <time>2023-03-05T09:08:28.000Z</time>
      </trkpt>
      <trkpt lat="51.170862" lon="5.754306">
        <ele>35.594185</ele>
        <time>2023-03-05T09:08:29.000Z</time>
      </trkpt>
      <trkpt lat="51.170860" lon="5.754211">
        <ele>35.589280</ele>
        <time>2023-03-05T09:08:30.000Z</time>
      </trkpt>
      <trkpt lat="51.170858" lon="5.754114">
        <ele>35.584272</ele>
        <time>2023-03-05T09:08:31.000Z</time>
      </trkpt>
      <trkpt lat="51.170854" lon="5.754016">
        <ele>35.579204</ele>
        <time>2023-03-05T09:08:32.000Z</time>
      </trkpt>
      <trkpt lat="51.170850" lon="5.753919">
        <ele>35.574187</ele>
        <time>2023-03-05T09:08:33.000Z</time>
      </trkpt>
      <trkpt lat="51.170849" lon="5.753824">
        <ele>35.569284</ele>
        <time>2023-03-05T09:08:34.000Z</time>
      </trkpt>
      <trkpt lat="51.170846" lon="5.753743">
        <ele>35.565097</ele>
        <time>2023-03-05T09:08:35.000Z</time>
      </trkpt>
      <trkpt lat="51.170845" lon="5.753679">
        <ele>35.561793</ele>
        <time>2023-03-05T09:08:36.000Z</time>
      </trkpt>
      <trkpt lat="51.170855" lon="5.753635">
        <ele>35.559378</ele>
        <time>2023-03-05T09:08:37.000Z</time>
      </trkpt>
      <trkpt lat="51.170877" lon="5.753612">
        <ele>35.557213</ele>
        <time>2023-03-05T09:08:38.000Z</time>
      </trkpt>
      <trkpt lat="51.170908" lon="5.753611">
        <ele>35.554661</ele>
        <time>2023-03-05T09:08:39.000Z</time>
      </trkpt>
      <trkpt lat="51.170945" lon="5.753626">
        <ele>35.551519</ele>
        <time>2023-03-05T09:08:40.000Z</time>
      </trkpt>
      <trkpt lat="51.170986" lon="5.753650">
        <ele>35.547925</ele>
        <time>2023-03-05T09:08:41.000Z</time>
      </trkpt>
      <trkpt lat="51.171030" lon="5.753678">
        <ele>35.544026</ele>
        <time>2023-03-05T09:08:42.000Z</time>
      </trkpt>
      <trkpt lat="51.171078" lon="5.753706">
        <ele>35.539819</ele>
        <time>2023-03-05T09:08:43.000Z</time>
      </trkpt>
      <trkpt lat="51.171130" lon="5.753736">
        <ele>35.535268</ele>
        <time>2023-03-05T09:08:44.000Z</time>
      </trkpt>
      <trkpt lat="51.171183" lon="5.753768">
        <ele>35.530604</ele>
        <time>2023-03-05T09:08:45.000Z</time>
      </trkpt>
      <trkpt lat="51.171235" lon="5.753799">
        <ele>35.526035</ele>
        <time>2023-03-05T09:08:46.000Z</time>
      </trkpt>
      <trkpt lat="51.171287" lon="5.753829">
        <ele>35.521484</ele>
        <time>2023-03-05T09:08:47.000Z</time>
      </trkpt>
      <trkpt lat="51.171337" lon="5.753860">
        <ele>35.517069</ele>
        <time>2023-03-05T09:08:48.000Z</time>
      </trkpt>
      <trkpt lat="51.171387" lon="5.753891">
        <ele>35.512654</ele>
        <time>2023-03-05T09:08:49.000Z</time>
      </trkpt>
      <trkpt lat="51.171436" lon="5.753923">
        <ele>35.508296</ele>
        <time>2023-03-05T09:08:50.000Z</time>
      </trkpt>
      <trkpt lat="51.171486" lon="5.753956">
        <ele>35.503842</ele>
        <time>2023-03-05T09:08:51.000Z</time>
      </trkpt>
      <trkpt lat="51.171538" lon="5.753989">
        <ele>35.499236</ele>
        <time>2023-03-05T09:08:52.000Z</time>
      </trkpt>
      <trkpt lat="51.171592" lon="5.754022">
        <ele>35.494477</ele>
        <time>2023-03-05T09:08:53.000Z</time>
      </trkpt>
      <trkpt lat="51.171646" lon="5.754054">
        <ele>35.489735</ele>
        <time>2023-03-05T09:08:54.000Z</time>
      </trkpt>
      <trkpt lat="51.171699" lon="5.754087">
        <ele>35.486443</ele>
        <time>2023-03-05T09:08:55.000Z</time>
      </trkpt>
      <trkpt lat="51.171750" lon="5.754121">
        <ele>35.495127</ele>
        <time>2023-03-05T09:08:56.000Z</time>
      </trkpt>
      <trkpt lat="51.171801" lon="5.754153">
        <ele>35.503736</ele>
        <time>2023-03-05T09:08:57.000Z</time>
      </trkpt>
      <trkpt lat="51.171855" lon="5.754184">
        <ele>35.512752</ele>
        <time>2023-03-05T09:08:58.000Z</time>
      </trkpt>
      <trkpt lat="51.171906" lon="5.754213">
        <ele>35.521258</ele>
        <time>2023-03-05T09:08:59.000Z</time>
      </trkpt>
      <trkpt lat="51.171955" lon="5.754242">
        <ele>35.529469</ele>
        <time>2023-03-05T09:09:00.000Z</time>
      </trkpt>
      <trkpt lat="51.172005" lon="5.754271">
        <ele>35.537827</ele>
        <time>2023-03-05T09:09:01.000Z</time>
      </trkpt>
      <trkpt lat="51.172055" lon="5.754297">
        <ele>35.546088</ele>
        <time>2023-03-05T09:09:02.000Z</time>
      </trkpt>
      <trkpt lat="51.172103" lon="5.754321">
        <ele>35.553991</ele>
        <time>2023-03-05T09:09:03.000Z</time>
      </trkpt>
      <trkpt lat="51.172154" lon="5.754343">
        <ele>35.562291</ele>
        <time>2023-03-05T09:09:04.000Z</time>
      </trkpt>
      <trkpt lat="51.172206" lon="5.754362">
        <ele>35.570671</ele>
        <time>2023-03-05T09:09:05.000Z</time>
      </trkpt>
      <trkpt lat="51.172262" lon="5.754377">
        <ele>35.579592</ele>
        <time>2023-03-05T09:09:06.000Z</time>
      </trkpt>
      <trkpt lat="51.172316" lon="5.754388">
        <ele>35.588144</ele>
        <time>2023-03-05T09:09:07.000Z</time>
      </trkpt>
      <trkpt lat="51.172375" lon="5.754395">
        <ele>35.597438</ele>
        <time>2023-03-05T09:09:08.000Z</time>
      </trkpt>
      <trkpt lat="51.172434" lon="5.754396">
        <ele>35.606708</ele>
        <time>2023-03-05T09:09:09.000Z</time>
      </trkpt>
      <trkpt lat="51.172496" lon="5.754396">
        <ele>35.616448</ele>
        <time>2023-03-05T09:09:10.000Z</time>
      </trkpt>
      <trkpt lat="51.172555" lon="5.754392">
        <ele>35.625725</ele>
        <time>2023-03-05T09:09:11.000Z</time>
      </trkpt>
      <trkpt lat="51.172614" lon="5.754388">
        <ele>35.635002</ele>
        <time>2023-03-05T09:09:12.000Z</time>
      </trkpt>
      <trkpt lat="51.172676" lon="5.754388">
        <ele>35.644742</ele>
        <time>2023-03-05T09:09:13.000Z</time>
      </trkpt>
      <trkpt lat="51.172733" lon="5.754394">
        <ele>35.653716</ele>
        <time>2023-03-05T09:09:14.000Z</time>
      </trkpt>
      <trkpt lat="51.172791" lon="5.754407">
        <ele>35.662917</ele>
        <time>2023-03-05T09:09:15.000Z</time>
      </trkpt>
      <trkpt lat="51.172852" lon="5.754424">
        <ele>35.672645</ele>
        <time>2023-03-05T09:09:16.000Z</time>
      </trkpt>
      <trkpt lat="51.172910" lon="5.754443">
        <ele>35.681947</ele>
        <time>2023-03-05T09:09:17.000Z</time>
      </trkpt>
      <trkpt lat="51.172967" lon="5.754465">
        <ele>35.691160</ele>
        <time>2023-03-05T09:09:18.000Z</time>
      </trkpt>
      <trkpt lat="51.173025" lon="5.754489">
        <ele>35.700573</ele>
        <time>2023-03-05T09:09:19.000Z</time>
      </trkpt>
      <trkpt lat="51.173082" lon="5.754513">
        <ele>35.709834</ele>
        <time>2023-03-05T09:09:20.000Z</time>
      </trkpt>
      <trkpt lat="51.173137" lon="5.754533">
        <ele>35.718696</ele>
        <time>2023-03-05T09:09:21.000Z</time>
      </trkpt>
      <trkpt lat="51.173192" lon="5.754550">
        <ele>35.727497</ele>
        <time>2023-03-05T09:09:22.000Z</time>
      </trkpt>
      <trkpt lat="51.173249" lon="5.754562">
        <ele>35.736529</ele>
        <time>2023-03-05T09:09:23.000Z</time>
      </trkpt>
      <trkpt lat="51.173309" lon="5.754574">
        <ele>35.746029</ele>
        <time>2023-03-05T09:09:24.000Z</time>
      </trkpt>
      <trkpt lat="51.173371" lon="5.754586">
        <ele>35.755841</ele>
        <time>2023-03-05T09:09:25.000Z</time>
      </trkpt>
      <trkpt lat="51.173429" lon="5.754598">
        <ele>35.765028</ele>
        <time>2023-03-05T09:09:26.000Z</time>
      </trkpt>
      <trkpt lat="51.173489" lon="5.754612">
        <ele>35.764190</ele>
        <time>2023-03-05T09:09:27.000Z</time>
      </trkpt>
      <trkpt lat="51.173551" lon="5.754625">
        <ele>35.758259</ele>
        <time>2023-03-05T09:09:28.000Z</time>
      </trkpt>
      <trkpt lat="51.173614" lon="5.754636">
        <ele>35.752249</ele>
        <time>2023-03-05T09:09:29.000Z</time>
      </trkpt>
      <trkpt lat="51.173675" lon="5.754645">
        <ele>35.746439</ele>
        <time>2023-03-05T09:09:30.000Z</time>
      </trkpt>
      <trkpt lat="51.173739" lon="5.754654">
        <ele>35.740346</ele>
        <time>2023-03-05T09:09:31.000Z</time>
      </trkpt>
      <trkpt lat="51.173804" lon="5.754666">
        <ele>35.734141</ele>
        <time>2023-03-05T09:09:32.000Z</time>
      </trkpt>
      <trkpt lat="51.173869" lon="5.754677">
        <ele>35.727942</ele>
        <time>2023-03-05T09:09:33.000Z</time>
      </trkpt>
      <trkpt lat="51.173932" lon="5.754689">
        <ele>35.721925</ele>
        <time>2023-03-05T09:09:34.000Z</time>
      </trkpt>
      <trkpt lat="51.173997" lon="5.754700">
        <ele>35.715726</ele>
        <time>2023-03-05T09:09:35.000Z</time>
      </trkpt>
      <trkpt lat="51.174064" lon="5.754711">
        <ele>35.709339</ele>
        <time>2023-03-05T09:09:36.000Z</time>
      </trkpt>
      <trkpt lat="51.174126" lon="5.754721">
        <ele>35.703429</ele>
        <time>2023-03-05T09:09:37.000Z</time>
      </trkpt>
      <trkpt lat="51.174189" lon="5.754730">
        <ele>35.697430</ele>
        <time>2023-03-05T09:09:38.000Z</time>
      </trkpt>
      <trkpt lat="51.174248" lon="5.754739">
        <ele>35.691810</ele>
        <time>2023-03-05T09:09:39.000Z</time>
      </trkpt>
      <trkpt lat="51.174308" lon="5.754750">
        <ele>35.686082</ele>
        <time>2023-03-05T09:09:40.000Z</time>
      </trkpt>
      <trkpt lat="51.174370" lon="5.754768">
        <ele>35.680106</ele>
        <time>2023-03-05T09:09:41.000Z</time>
      </trkpt>
      <trkpt lat="51.174430" lon="5.754787">
        <ele>35.674305</ele>
        <time>2023-03-05T09:09:42.000Z</time>
      </trkpt>
      <trkpt lat="51.174491" lon="5.754810">
        <ele>35.668360</ele>
        <time>2023-03-05T09:09:43.000Z</time>
      </trkpt>
      <trkpt lat="51.174551" lon="5.754835">
        <ele>35.662479</ele>
        <time>2023-03-05T09:09:44.000Z</time>
      </trkpt>
      <trkpt lat="51.174610" lon="5.754859">
        <ele>35.656705</ele>
        <time>2023-03-05T09:09:45.000Z</time>
      </trkpt>
      <trkpt lat="51.174669" lon="5.754884">
        <ele>35.650916</ele>
        <time>2023-03-05T09:09:46.000Z</time>
      </trkpt>
      <trkpt lat="51.174723" lon="5.754908">
        <ele>35.645599</ele>
        <time>2023-03-05T09:09:47.000Z</time>
      </trkpt>
      <trkpt lat="51.174777" lon="5.754932">
        <ele>35.640283</ele>
        <time>2023-03-05T09:09:48.000Z</time>
      </trkpt>
      <trkpt lat="51.174828" lon="5.754954">
        <ele>35.635273</ele>
        <time>2023-03-05T09:09:49.000Z</time>
      </trkpt>
      <trkpt lat="51.174875" lon="5.754972">
        <ele>35.630689</ele>
        <time>2023-03-05T09:09:50.000Z</time>
      </trkpt>
      <trkpt lat="51.174923" lon="5.754988">
        <ele>35.626039</ele>
        <time>2023-03-05T09:09:51.000Z</time>
      </trkpt>
      <trkpt lat="51.174968" lon="5.755003">
        <ele>35.621679</ele>
        <time>2023-03-05T09:09:52.000Z</time>
      </trkpt>
      <trkpt lat="51.175008" lon="5.755018">
        <ele>35.617782</ele>
        <time>2023-03-05T09:09:53.000Z</time>
      </trkpt>
      <trkpt lat="51.175043" lon="5.755033">
        <ele>35.614345</ele>
        <time>2023-03-05T09:09:54.000Z</time>
      </trkpt>
      <trkpt lat="51.175078" lon="5.755047">
        <ele>35.610923</ele>
        <time>2023-03-05T09:09:55.000Z</time>
      </trkpt>
      <trkpt lat="51.175107" lon="5.755058">
        <ele>35.608096</ele>
        <time>2023-03-05T09:09:56.000Z</time>
      </trkpt>
      <trkpt lat="51.175136" lon="5.755059">
        <ele>35.605345</ele>
        <time>2023-03-05T09:09:57.000Z</time>
      </trkpt>
      <trkpt lat="51.175162" lon="5.755038">
        <ele>35.602581</ele>
        <time>2023-03-05T09:09:58.000Z</time>
      </trkpt>
      <trkpt lat="51.175183" lon="5.754996">
        <ele>35.599387</ele>
        <time>2023-03-05T09:09:59.000Z</time>
      </trkpt>
      <trkpt lat="51.175195" lon="5.754935">
        <ele>35.604443</ele>
        <time>2023-03-05T09:10:00.000Z</time>
      </trkpt>
      <trkpt lat="51.175200" lon="5.754863">
        <ele>35.619891</ele>
        <time>2023-03-05T09:10:01.000Z</time>
      </trkpt>
      <trkpt lat="51.175204" lon="5.754782">
        <ele>35.637218</ele>
        <time>2023-03-05T09:10:02.000Z</time>
      </trkpt>
      <trkpt lat="51.175205" lon="5.754693">
        <ele>35.656200</ele>
        <time>2023-03-05T09:10:03.000Z</time>
      </trkpt>
      <trkpt lat="51.175203" lon="5.754602">
        <ele>35.675617</ele>
        <time>2023-03-05T09:10:04.000Z</time>
      </trkpt>
      <trkpt lat="51.175197" lon="5.754510">
        <ele>35.695342</ele>
        <time>2023-03-05T09:10:05.000Z</time>
      </trkpt>
      <trkpt lat="51.175187" lon="5.754417">
        <ele>35.715464</ele>
        <time>2023-03-05T09:10:06.000Z</time>
      </trkpt>
      <trkpt lat="51.175173" lon="5.754324">
        <ele>35.735860</ele>
        <time>2023-03-05T09:10:07.000Z</time>
      </trkpt>
      <trkpt lat="51.175155" lon="5.754230">
        <ele>35.756819</ele>
        <time>2023-03-05T09:10:08.000Z</time>
      </trkpt>
      <trkpt lat="51.175134" lon="5.754137">
        <ele>35.777898</ele>
        <time>2023-03-05T09:10:09.000Z</time>
      </trkpt>
      <trkpt lat="51.175108" lon="5.754043">
        <ele>35.799808</ele>
        <time>2023-03-05T09:10:10.000Z</time>
      </trkpt>
      <trkpt lat="51.175082" lon="5.753951">
        <ele>35.821328</ele>
        <time>2023-03-05T09:10:11.000Z</time>
      </trkpt>
      <trkpt lat="51.175053" lon="5.753858">
        <ele>35.843478</ele>
        <time>2023-03-05T09:10:12.000Z</time>
      </trkpt>
      <trkpt lat="51.175025" lon="5.753764">
        <ele>35.865671</ele>
        <time>2023-03-05T09:10:13.000Z</time>
      </trkpt>
      <trkpt lat="51.174996" lon="5.753670">
        <ele>35.888012</ele>
        <time>2023-03-05T09:10:14.000Z</time>
      </trkpt>
      <trkpt lat="51.174968" lon="5.753577">
        <ele>35.910012</ele>
        <time>2023-03-05T09:10:15.000Z</time>
      </trkpt>
      <trkpt lat="51.174941" lon="5.753483">
        <ele>35.932061</ele>
        <time>2023-03-05T09:10:16.000Z</time>
      </trkpt>
      <trkpt lat="51.174914" lon="5.753391">
        <ele>35.953723</ele>
        <time>2023-03-05T09:10:17.000Z</time>
      </trkpt>
      <trkpt lat="51.174887" lon="5.753300">
        <ele>35.975192</ele>
        <time>2023-03-05T09:10:18.000Z</time>
      </trkpt>
      <trkpt lat="51.174863" lon="5.753211">
        <ele>35.995853</ele>
        <time>2023-03-05T09:10:19.000Z</time>
      </trkpt>
      <trkpt lat="51.174842" lon="5.753119">
        <ele>36.016732</ele>
        <time>2023-03-05T09:10:20.000Z</time>
      </trkpt>
      <trkpt lat="51.174826" lon="5.753026">
        <ele>36.037297</ele>
        <time>2023-03-05T09:10:21.000Z</time>
      </trkpt>
      <trkpt lat="51.174813" lon="5.752932">
        <ele>36.057824</ele>
        <time>2023-03-05T09:10:22.000Z</time>
      </trkpt>
      <trkpt lat="51.174806" lon="5.752838">
        <ele>36.078011</ele>
        <time>2023-03-05T09:10:23.000Z</time>
      </trkpt>
      <trkpt lat="51.174805" lon="5.752744">
        <ele>36.098059</ele>
        <time>2023-03-05T09:10:24.000Z</time>
      </trkpt>
      <trkpt lat="51.174807" lon="5.752651">
        <ele>36.117903</ele>
        <time>2023-03-05T09:10:25.000Z</time>
      </trkpt>
      <trkpt lat="51.174811" lon="5.752555">
        <ele>36.138420</ele>
        <time>2023-03-05T09:10:26.000Z</time>
      </trkpt>
      <trkpt lat="51.174817" lon="5.752459">
        <ele>36.158994</ele>
        <time>2023-03-05T09:10:27.000Z</time>
      </trkpt>
      <trkpt lat="51.174822" lon="5.752363">
        <ele>36.179536</ele>
        <time>2023-03-05T09:10:28.000Z</time>
      </trkpt>
      <trkpt lat="51.174829" lon="5.752266">
        <ele>36.200358</ele>
        <time>2023-03-05T09:10:29.000Z</time>
      </trkpt>
      <trkpt lat="51.174834" lon="5.752170">
        <ele>36.221945</ele>
        <time>2023-03-05T09:10:30.000Z</time>
      </trkpt>
      <trkpt lat="51.174838" lon="5.752075">
        <ele>36.244080</ele>
        <time>2023-03-05T09:10:31.000Z</time>
      </trkpt>
      <trkpt lat="51.174841" lon="5.751981">
        <ele>36.265961</ele>
        <time>2023-03-05T09:10:32.000Z</time>
      </trkpt>
      <trkpt lat="51.174845" lon="5.751887">
        <ele>36.287863</ele>
        <time>2023-03-05T09:10:33.000Z</time>
      </trkpt>
      <trkpt lat="51.174851" lon="5.751796">
        <ele>36.309135</ele>
        <time>2023-03-05T09:10:34.000Z</time>
      </trkpt>
      <trkpt lat="51.174854" lon="5.751705">
        <ele>36.330319</ele>
        <time>2023-03-05T09:10:35.000Z</time>
      </trkpt>
      <trkpt lat="51.174857" lon="5.751615">
        <ele>36.351271</ele>
        <time>2023-03-05T09:10:36.000Z</time>
      </trkpt>
      <trkpt lat="51.174858" lon="5.751529">
        <ele>36.371267</ele>
        <time>2023-03-05T09:10:37.000Z</time>
      </trkpt>
      <trkpt lat="51.174858" lon="5.751442">
        <ele>36.391492</ele>
        <time>2023-03-05T09:10:38.000Z</time>
      </trkpt>
      <trkpt lat="51.174858" lon="5.751357">
        <ele>36.411252</ele>
        <time>2023-03-05T09:10:39.000Z</time>
      </trkpt>
      <trkpt lat="51.174860" lon="5.751272">
        <ele>36.431026</ele>
        <time>2023-03-05T09:10:40.000Z</time>
      </trkpt>
      <trkpt lat="51.174867" lon="5.751184">
        <ele>36.451648</ele>
        <time>2023-03-05T09:10:41.000Z</time>
      </trkpt>
      <trkpt lat="51.174877" lon="5.751094">
        <ele>36.472896</ele>
        <time>2023-03-05T09:10:42.000Z</time>
      </trkpt>
      <trkpt lat="51.174890" lon="5.751003">
        <ele>36.494594</ele>
        <time>2023-03-05T09:10:43.000Z</time>
      </trkpt>
      <trkpt lat="51.174910" lon="5.750912">
        <ele>36.517011</ele>
        <time>2023-03-05T09:10:44.000Z</time>
      </trkpt>
      <trkpt lat="51.174938" lon="5.750818">
        <ele>36.541204</ele>
        <time>2023-03-05T09:10:45.000Z</time>
      </trkpt>
      <trkpt lat="51.174967" lon="5.750724">
        <ele>36.565559</ele>
        <time>2023-03-05T09:10:46.000Z</time>
      </trkpt>
      <trkpt lat="51.174996" lon="5.750632">
        <ele>36.589497</ele>
        <time>2023-03-05T09:10:47.000Z</time>
      </trkpt>
      <trkpt lat="51.175026" lon="5.750544">
        <ele>36.612784</ele>
        <time>2023-03-05T09:10:48.000Z</time>
      </trkpt>
      <trkpt lat="51.175059" lon="5.750459">
        <ele>36.636026</ele>
        <time>2023-03-05T09:10:49.000Z</time>
      </trkpt>
      <trkpt lat="51.175093" lon="5.750377">
        <ele>36.658880</ele>
        <time>2023-03-05T09:10:50.000Z</time>
      </trkpt>
      <trkpt lat="51.175128" lon="5.750297">
        <ele>36.681558</ele>
        <time>2023-03-05T09:10:51.000Z</time>
      </trkpt>
      <trkpt lat="51.175164" lon="5.750220">
        <ele>36.703888</ele>
        <time>2023-03-05T09:10:52.000Z</time>
      </trkpt>
      <trkpt lat="51.175204" lon="5.750145">
        <ele>36.726778</ele>
        <time>2023-03-05T09:10:53.000Z</time>
      </trkpt>
      <trkpt lat="51.175244" lon="5.750071">
        <ele>36.749492</ele>
        <time>2023-03-05T09:10:54.000Z</time>
      </trkpt>
      <trkpt lat="51.175285" lon="5.749998">
        <ele>36.772277</ele>
        <time>2023-03-05T09:10:55.000Z</time>
      </trkpt>
      <trkpt lat="51.175324" lon="5.749924">
        <ele>36.794750</ele>
        <time>2023-03-05T09:10:56.000Z</time>
      </trkpt>
      <trkpt lat="51.175363" lon="5.749850">
        <ele>36.817224</ele>
        <time>2023-03-05T09:10:57.000Z</time>
      </trkpt>
      <trkpt lat="51.175401" lon="5.749775">
        <ele>36.839641</ele>
        <time>2023-03-05T09:10:58.000Z</time>
      </trkpt>
      <trkpt lat="51.175438" lon="5.749698">
        <ele>36.862194</ele>
        <time>2023-03-05T09:10:59.000Z</time>
      </trkpt>
      <trkpt lat="51.175472" lon="5.749617">
        <ele>36.875715</ele>
        <time>2023-03-05T09:11:00.000Z</time>
      </trkpt>
      <trkpt lat="51.175503" lon="5.749533">
        <ele>36.874313</ele>
        <time>2023-03-05T09:11:01.000Z</time>
      </trkpt>
      <trkpt lat="51.175529" lon="5.749445">
        <ele>36.872914</ele>
        <time>2023-03-05T09:11:02.000Z</time>
      </trkpt>
      <trkpt lat="51.175551" lon="5.749355">
        <ele>36.871525</ele>
        <time>2023-03-05T09:11:03.000Z</time>
      </trkpt>
      <trkpt lat="51.175567" lon="5.749264">
        <ele>36.870166</ele>
        <time>2023-03-05T09:11:04.000Z</time>
      </trkpt>
      <trkpt lat="51.175576" lon="5.749171">
        <ele>36.868812</ele>
        <time>2023-03-05T09:11:05.000Z</time>
      </trkpt>
      <trkpt lat="51.175581" lon="5.749078">
        <ele>36.867470</ele>
        <time>2023-03-05T09:11:06.000Z</time>
      </trkpt>
      <trkpt lat="51.175583" lon="5.748984">
        <ele>36.866117</ele>
        <time>2023-03-05T09:11:07.000Z</time>
      </trkpt>
      <trkpt lat="51.175580" lon="5.748889">
        <ele>36.864749</ele>
        <time>2023-03-05T09:11:08.000Z</time>
      </trkpt>
      <trkpt lat="51.175574" lon="5.748792">
        <ele>36.863347</ele>
        <time>2023-03-05T09:11:09.000Z</time>
      </trkpt>
      <trkpt lat="51.175567" lon="5.748697">
        <ele>36.861972</ele>
        <time>2023-03-05T09:11:10.000Z</time>
      </trkpt>
      <trkpt lat="51.175559" lon="5.748601">
        <ele>36.860579</ele>
        <time>2023-03-05T09:11:11.000Z</time>
      </trkpt>
      <trkpt lat="51.175551" lon="5.748503">
        <ele>36.859158</ele>
        <time>2023-03-05T09:11:12.000Z</time>
      </trkpt>
      <trkpt lat="51.175541" lon="5.748407">
        <ele>36.857758</ele>
        <time>2023-03-05T09:11:13.000Z</time>
      </trkpt>
      <trkpt lat="51.175530" lon="5.748309">
        <ele>36.856326</ele>
        <time>2023-03-05T09:11:14.000Z</time>
      </trkpt>
      <trkpt lat="51.175519" lon="5.748212">
        <ele>36.854909</ele>
        <time>2023-03-05T09:11:15.000Z</time>
      </trkpt>
      <trkpt lat="51.175507" lon="5.748113">
        <ele>36.853459</ele>
        <time>2023-03-05T09:11:16.000Z</time>
      </trkpt>
      <trkpt lat="51.175498" lon="5.748015">
        <ele>36.852034</ele>
        <time>2023-03-05T09:11:17.000Z</time>
      </trkpt>
      <trkpt lat="51.175495" lon="5.747916">
        <ele>36.850609</ele>
        <time>2023-03-05T09:11:18.000Z</time>
      </trkpt>
      <trkpt lat="51.175498" lon="5.747817">
        <ele>36.849183</ele>
        <time>2023-03-05T09:11:19.000Z</time>
      </trkpt>
      <trkpt lat="51.175508" lon="5.747721">
        <ele>36.847784</ele>
        <time>2023-03-05T09:11:20.000Z</time>
      </trkpt>
      <trkpt lat="51.175526" lon="5.747628">
        <ele>36.846384</ele>
        <time>2023-03-05T09:11:21.000Z</time>
      </trkpt>
      <trkpt lat="51.175550" lon="5.747536">
        <ele>36.844951</ele>
        <time>2023-03-05T09:11:22.000Z</time>
      </trkpt>
      <trkpt lat="51.175577" lon="5.747447">
        <ele>36.843529</ele>
        <time>2023-03-05T09:11:23.000Z</time>
      </trkpt>
      <trkpt lat="51.175603" lon="5.747361">
        <ele>36.842156</ele>
        <time>2023-03-05T09:11:24.000Z</time>
      </trkpt>
      <trkpt lat="51.175635" lon="5.747275">
        <ele>36.840718</ele>
        <time>2023-03-05T09:11:25.000Z</time>
      </trkpt>
      <trkpt lat="51.175667" lon="5.747191">
        <ele>36.839304</ele>
        <time>2023-03-05T09:11:26.000Z</time>
      </trkpt>
      <trkpt lat="51.175697" lon="5.747108">
        <ele>36.837926</ele>
        <time>2023-03-05T09:11:27.000Z</time>
      </trkpt>
      <trkpt lat="51.175728" lon="5.747022">
        <ele>36.836499</ele>
        <time>2023-03-05T09:11:28.000Z</time>
      </trkpt>
      <trkpt lat="51.175756" lon="5.746935">
        <ele>36.835093</ele>
        <time>2023-03-05T09:11:29.000Z</time>
      </trkpt>
      <trkpt lat="51.175780" lon="5.746846">
        <ele>36.830186</ele>
        <time>2023-03-05T09:11:30.000Z</time>
      </trkpt>
      <trkpt lat="51.175803" lon="5.746756">
        <ele>36.824975</ele>
        <time>2023-03-05T09:11:31.000Z</time>
      </trkpt>
      <trkpt lat="51.175826" lon="5.746663">
        <ele>36.819614</ele>
        <time>2023-03-05T09:11:32.000Z</time>
      </trkpt>
      <trkpt lat="51.175846" lon="5.746572">
        <ele>36.814444</ele>
        <time>2023-03-05T09:11:33.000Z</time>
      </trkpt>
      <trkpt lat="51.175866" lon="5.746474">
        <ele>36.808918</ele>
        <time>2023-03-05T09:11:34.000Z</time>
      </trkpt>
      <trkpt lat="51.175885" lon="5.746375">
        <ele>36.803366</ele>
        <time>2023-03-05T09:11:35.000Z</time>
      </trkpt>
      <trkpt lat="51.175899" lon="5.746277">
        <ele>36.797977</ele>
        <time>2023-03-05T09:11:36.000Z</time>
      </trkpt>
      <trkpt lat="51.175910" lon="5.746179">
        <ele>36.792639</ele>
        <time>2023-03-05T09:11:37.000Z</time>
      </trkpt>
      <trkpt lat="51.175922" lon="5.746081">
        <ele>36.787285</ele>
        <time>2023-03-05T09:11:38.000Z</time>
      </trkpt>
      <trkpt lat="51.175933" lon="5.745983">
        <ele>36.781947</ele>
        <time>2023-03-05T09:11:39.000Z</time>
      </trkpt>
      <trkpt lat="51.175947" lon="5.745889">
        <ele>36.776766</ele>
        <time>2023-03-05T09:11:40.000Z</time>
      </trkpt>
      <trkpt lat="51.175960" lon="5.745798">
        <ele>36.771762</ele>
        <time>2023-03-05T09:11:41.000Z</time>
      </trkpt>
      <trkpt lat="51.175974" lon="5.745706">
        <ele>36.766686</ele>
        <time>2023-03-05T09:11:42.000Z</time>
      </trkpt>
      <trkpt lat="51.175989" lon="5.745615">
        <ele>36.761641</ele>
        <time>2023-03-05T09:11:43.000Z</time>
      </trkpt>
      <trkpt lat="51.176004" lon="5.745526">
        <ele>36.756699</ele>
        <time>2023-03-05T09:11:44.000Z</time>
      </trkpt>
      <trkpt lat="51.176017" lon="5.745435">
        <ele>36.751695</ele>
        <time>2023-03-05T09:11:45.000Z</time>
      </trkpt>
      <trkpt lat="51.176029" lon="5.745342">
        <ele>36.746604</ele>
        <time>2023-03-05T09:11:46.000Z</time>
      </trkpt>
      <trkpt lat="51.176035" lon="5.745252">
        <ele>36.741751</ele>
        <time>2023-03-05T09:11:47.000Z</time>
      </trkpt>
      <trkpt lat="51.176037" lon="5.745162">
        <ele>36.736922</ele>
        <time>2023-03-05T09:11:48.000Z</time>
      </trkpt>
      <trkpt lat="51.176037" lon="5.745073">
        <ele>36.732150</ele>
        <time>2023-03-05T09:11:49.000Z</time>
      </trkpt>
      <trkpt lat="51.176027" lon="5.744987">
        <ele>36.727460</ele>
        <time>2023-03-05T09:11:50.000Z</time>
      </trkpt>
      <trkpt lat="51.176012" lon="5.744904">
        <ele>36.722829</ele>
        <time>2023-03-05T09:11:51.000Z</time>
      </trkpt>
      <trkpt lat="51.175992" lon="5.744825">
        <ele>36.718261</ele>
        <time>2023-03-05T09:11:52.000Z</time>
      </trkpt>
      <trkpt lat="51.175969" lon="5.744750">
        <ele>36.713784</ele>
        <time>2023-03-05T09:11:53.000Z</time>
      </trkpt>
      <trkpt lat="51.175944" lon="5.744677">
        <ele>36.709324</ele>
        <time>2023-03-05T09:11:54.000Z</time>
      </trkpt>
      <trkpt lat="51.175920" lon="5.744605">
        <ele>36.704951</ele>
        <time>2023-03-05T09:11:55.000Z</time>
      </trkpt>
      <trkpt lat="51.175894" lon="5.744535">
        <ele>36.700589</ele>
        <time>2023-03-05T09:11:56.000Z</time>
      </trkpt>
      <trkpt lat="51.175870" lon="5.744471">
        <ele>36.696590</ele>
        <time>2023-03-05T09:11:57.000Z</time>
      </trkpt>
      <trkpt lat="51.175847" lon="5.744412">
        <ele>36.692865</ele>
        <time>2023-03-05T09:11:58.000Z</time>
      </trkpt>
      <trkpt lat="51.175829" lon="5.744354">
        <ele>36.689395</ele>
        <time>2023-03-05T09:11:59.000Z</time>
      </trkpt>
      <trkpt lat="51.175816" lon="5.744296">
        <ele>36.686092</ele>
        <time>2023-03-05T09:12:00.000Z</time>
      </trkpt>
      <trkpt lat="51.175814" lon="5.744239">
        <ele>36.683031</ele>
        <time>2023-03-05T09:12:01.000Z</time>
      </trkpt>
      <trkpt lat="51.175837" lon="5.744204">
        <ele>36.682023</ele>
        <time>2023-03-05T09:12:02.000Z</time>
      </trkpt>
      <trkpt lat="51.175878" lon="5.744189">
        <ele>36.685709</ele>
        <time>2023-03-05T09:12:03.000Z</time>
      </trkpt>
      <trkpt lat="51.175926" lon="5.744183">
        <ele>36.689928</ele>
        <time>2023-03-05T09:12:04.000Z</time>
      </trkpt>
      <trkpt lat="51.175980" lon="5.744184">
        <ele>36.694661</ele>
        <time>2023-03-05T09:12:05.000Z</time>
      </trkpt>
      <trkpt lat="51.176040" lon="5.744189">
        <ele>36.699926</ele>
        <time>2023-03-05T09:12:06.000Z</time>
      </trkpt>
      <trkpt lat="51.176104" lon="5.744197">
        <ele>36.705551</ele>
        <time>2023-03-05T09:12:07.000Z</time>
      </trkpt>
      <trkpt lat="51.176171" lon="5.744205">
        <ele>36.711439</ele>
        <time>2023-03-05T09:12:08.000Z</time>
      </trkpt>
      <trkpt lat="51.176238" lon="5.744215">
        <ele>36.717336</ele>
        <time>2023-03-05T09:12:09.000Z</time>
      </trkpt>
      <trkpt lat="51.176305" lon="5.744220">
        <ele>36.723214</ele>
        <time>2023-03-05T09:12:10.000Z</time>
      </trkpt>
      <trkpt lat="51.176369" lon="5.744225">
        <ele>36.728829</ele>
        <time>2023-03-05T09:12:11.000Z</time>
      </trkpt>
      <trkpt lat="51.176432" lon="5.744231">
        <ele>36.734359</ele>
        <time>2023-03-05T09:12:12.000Z</time>
      </trkpt>
      <trkpt lat="51.176499" lon="5.744235">
        <ele>36.740235</ele>
        <time>2023-03-05T09:12:13.000Z</time>
      </trkpt>
      <trkpt lat="51.176563" lon="5.744241">
        <ele>36.745853</ele>
        <time>2023-03-05T09:12:14.000Z</time>
      </trkpt>
      <trkpt lat="51.176627" lon="5.744246">
        <ele>36.751468</ele>
        <time>2023-03-05T09:12:15.000Z</time>
      </trkpt>
      <trkpt lat="51.176695" lon="5.744251">
        <ele>36.757433</ele>
        <time>2023-03-05T09:12:16.000Z</time>
      </trkpt>
      <trkpt lat="51.176761" lon="5.744257">
        <ele>36.763226</ele>
        <time>2023-03-05T09:12:17.000Z</time>
      </trkpt>
      <trkpt lat="51.176825" lon="5.744260">
        <ele>36.768837</ele>
        <time>2023-03-05T09:12:18.000Z</time>
      </trkpt>
      <trkpt lat="51.176888" lon="5.744264">
        <ele>36.774362</ele>
        <time>2023-03-05T09:12:19.000Z</time>
      </trkpt>
      <trkpt lat="51.176951" lon="5.744266">
        <ele>36.779884</ele>
        <time>2023-03-05T09:12:20.000Z</time>
      </trkpt>
      <trkpt lat="51.177015" lon="5.744267">
        <ele>36.785492</ele>
        <time>2023-03-05T09:12:21.000Z</time>
      </trkpt>
      <trkpt lat="51.177077" lon="5.744265">
        <ele>36.790926</ele>
        <time>2023-03-05T09:12:22.000Z</time>
      </trkpt>
      <trkpt lat="51.177141" lon="5.744257">
        <ele>36.796552</ele>
        <time>2023-03-05T09:12:23.000Z</time>
      </trkpt>
      <trkpt lat="51.177206" lon="5.744240">
        <ele>36.802324</ele>
        <time>2023-03-05T09:12:24.000Z</time>
      </trkpt>
      <trkpt lat="51.177271" lon="5.744215">
        <ele>36.808183</ele>
        <time>2023-03-05T09:12:25.000Z</time>
      </trkpt>
      <trkpt lat="51.177336" lon="5.744188">
        <ele>36.814069</ele>
        <time>2023-03-05T09:12:26.000Z</time>
      </trkpt>
      <trkpt lat="51.177401" lon="5.744165">
        <ele>36.819904</ele>
        <time>2023-03-05T09:12:27.000Z</time>
      </trkpt>
      <trkpt lat="51.177468" lon="5.744142">
        <ele>36.825909</ele>
        <time>2023-03-05T09:12:28.000Z</time>
      </trkpt>
      <trkpt lat="51.177534" lon="5.744121">
        <ele>36.831807</ele>
        <time>2023-03-05T09:12:29.000Z</time>
      </trkpt>
      <trkpt lat="51.177602" lon="5.744103">
        <ele>36.837847</ele>
        <time>2023-03-05T09:12:30.000Z</time>
      </trkpt>
      <trkpt lat="51.177670" lon="5.744088">
        <ele>36.841875</ele>
        <time>2023-03-05T09:12:31.000Z</time>
      </trkpt>
      <trkpt lat="51.177739" lon="5.744077">
        <ele>36.845578</ele>
        <time>2023-03-05T09:12:32.000Z</time>
      </trkpt>
      <trkpt lat="51.177808" lon="5.744069">
        <ele>36.849272</ele>
        <time>2023-03-05T09:12:33.000Z</time>
      </trkpt>
      <trkpt lat="51.177877" lon="5.744063">
        <ele>36.852962</ele>
        <time>2023-03-05T09:12:34.000Z</time>
      </trkpt>
      <trkpt lat="51.177946" lon="5.744059">
        <ele>36.856649</ele>
        <time>2023-03-05T09:12:35.000Z</time>
      </trkpt>
      <trkpt lat="51.178014" lon="5.744057">
        <ele>36.860280</ele>
        <time>2023-03-05T09:12:36.000Z</time>
      </trkpt>
      <trkpt lat="51.178080" lon="5.744055">
        <ele>36.863805</ele>
        <time>2023-03-05T09:12:37.000Z</time>
      </trkpt>
      <trkpt lat="51.178148" lon="5.744055">
        <ele>36.867436</ele>
        <time>2023-03-05T09:12:38.000Z</time>
      </trkpt>
      <trkpt lat="51.178214" lon="5.744056">
        <ele>36.870961</ele>
        <time>2023-03-05T09:12:39.000Z</time>
      </trkpt>
      <trkpt lat="51.178279" lon="5.744059">
        <ele>36.874433</ele>
        <time>2023-03-05T09:12:40.000Z</time>
      </trkpt>
      <trkpt lat="51.178346" lon="5.744061">
        <ele>36.878011</ele>
        <time>2023-03-05T09:12:41.000Z</time>
      </trkpt>
      <trkpt lat="51.178411" lon="5.744063">
        <ele>36.881483</ele>
        <time>2023-03-05T09:12:42.000Z</time>
      </trkpt>
      <trkpt lat="51.178477" lon="5.744066">
        <ele>36.885008</ele>
        <time>2023-03-05T09:12:43.000Z</time>
      </trkpt>
      <trkpt lat="51.178540" lon="5.744071">
        <ele>36.888376</ele>
        <time>2023-03-05T09:12:44.000Z</time>
      </trkpt>
      <trkpt lat="51.178606" lon="5.744078">
        <ele>36.891908</ele>
        <time>2023-03-05T09:12:45.000Z</time>
      </trkpt>
      <trkpt lat="51.178672" lon="5.744084">
        <ele>36.895438</ele>
        <time>2023-03-05T09:12:46.000Z</time>
      </trkpt>
      <trkpt lat="51.178736" lon="5.744091">
        <ele>36.898864</ele>
        <time>2023-03-05T09:12:47.000Z</time>
      </trkpt>
      <trkpt lat="51.178801" lon="5.744096">
        <ele>36.902339</ele>
        <time>2023-03-05T09:12:48.000Z</time>
      </trkpt>
      <trkpt lat="51.178868" lon="5.744102">
        <ele>36.905922</ele>
        <time>2023-03-05T09:12:49.000Z</time>
      </trkpt>
      <trkpt lat="51.178935" lon="5.744108">
        <ele>36.909505</ele>
        <time>2023-03-05T09:12:50.000Z</time>
      </trkpt>
      <trkpt lat="51.178997" lon="5.744114">
        <ele>36.912822</ele>
        <time>2023-03-05T09:12:51.000Z</time>
      </trkpt>
      <trkpt lat="51.179060" lon="5.744120">
        <ele>36.916192</ele>
        <time>2023-03-05T09:12:52.000Z</time>
      </trkpt>
      <trkpt lat="51.179127" lon="5.744124">
        <ele>36.919772</ele>
        <time>2023-03-05T09:12:53.000Z</time>
      </trkpt>
      <trkpt lat="51.179193" lon="5.744123">
        <ele>36.923297</ele>
        <time>2023-03-05T09:12:54.000Z</time>
      </trkpt>
      <trkpt lat="51.179259" lon="5.744117">
        <ele>36.926827</ele>
        <time>2023-03-05T09:12:55.000Z</time>
      </trkpt>
      <trkpt lat="51.179321" lon="5.744109">
        <ele>36.930148</ele>
        <time>2023-03-05T09:12:56.000Z</time>
      </trkpt>
      <trkpt lat="51.179385" lon="5.744096">
        <ele>36.933593</ele>
        <time>2023-03-05T09:12:57.000Z</time>
      </trkpt>
      <trkpt lat="51.179449" lon="5.744077">
        <ele>36.935615</ele>
        <time>2023-03-05T09:12:58.000Z</time>
      </trkpt>
      <trkpt lat="51.179517" lon="5.744054">
        <ele>36.936931</ele>
        <time>2023-03-05T09:12:59.000Z</time>
      </trkpt>
      <trkpt lat="51.179584" lon="5.744030">
        <ele>36.938230</ele>
        <time>2023-03-05T09:13:00.000Z</time>
      </trkpt>
      <trkpt lat="51.179651" lon="5.744003">
        <ele>36.939538</ele>
        <time>2023-03-05T09:13:01.000Z</time>
      </trkpt>
      <trkpt lat="51.179717" lon="5.743971">
        <ele>36.940844</ele>
        <time>2023-03-05T09:13:02.000Z</time>
      </trkpt>
      <trkpt lat="51.179781" lon="5.743934">
        <ele>36.942132</ele>
        <time>2023-03-05T09:13:03.000Z</time>
      </trkpt>
      <trkpt lat="51.179844" lon="5.743889">
        <ele>36.943439</ele>
        <time>2023-03-05T09:13:04.000Z</time>
      </trkpt>
      <trkpt lat="51.179905" lon="5.743840">
        <ele>36.944731</ele>
        <time>2023-03-05T09:13:05.000Z</time>
      </trkpt>
      <trkpt lat="51.179964" lon="5.743790">
        <ele>36.945996</ele>
        <time>2023-03-05T09:13:06.000Z</time>
      </trkpt>
      <trkpt lat="51.180019" lon="5.743738">
        <ele>36.947206</ele>
        <time>2023-03-05T09:13:07.000Z</time>
      </trkpt>
      <trkpt lat="51.180074" lon="5.743682">
        <ele>36.948441</ele>
        <time>2023-03-05T09:13:08.000Z</time>
      </trkpt>
      <trkpt lat="51.180129" lon="5.743622">
        <ele>36.949702</ele>
        <time>2023-03-05T09:13:09.000Z</time>
      </trkpt>
      <trkpt lat="51.180185" lon="5.743561">
        <ele>36.950985</ele>
        <time>2023-03-05T09:13:10.000Z</time>
      </trkpt>
      <trkpt lat="51.180240" lon="5.743498">
        <ele>36.952267</ele>
        <time>2023-03-05T09:13:11.000Z</time>
      </trkpt>
      <trkpt lat="51.180293" lon="5.743435">
        <ele>36.953517</ele>
        <time>2023-03-05T09:13:12.000Z</time>
      </trkpt>
      <trkpt lat="51.180344" lon="5.743370">
        <ele>36.954753</ele>
        <time>2023-03-05T09:13:13.000Z</time>
      </trkpt>
      <trkpt lat="51.180395" lon="5.743305">
        <ele>36.955988</ele>
        <time>2023-03-05T09:13:14.000Z</time>
      </trkpt>
      <trkpt lat="51.180449" lon="5.743238">
        <ele>36.957283</ele>
        <time>2023-03-05T09:13:15.000Z</time>
      </trkpt>
      <trkpt lat="51.180503" lon="5.743173">
        <ele>36.958563</ele>
        <time>2023-03-05T09:13:16.000Z</time>
      </trkpt>
      <trkpt lat="51.180556" lon="5.743110">
        <ele>36.959814</ele>
        <time>2023-03-05T09:13:17.000Z</time>
      </trkpt>
      <trkpt lat="51.180609" lon="5.743048">
        <ele>36.961058</ele>
        <time>2023-03-05T09:13:18.000Z</time>
      </trkpt>
      <trkpt lat="51.180660" lon="5.742989">
        <ele>36.962251</ele>
        <time>2023-03-05T09:13:19.000Z</time>
      </trkpt>
      <trkpt lat="51.180713" lon="5.742933">
        <ele>36.963454</ele>
        <time>2023-03-05T09:13:20.000Z</time>
      </trkpt>
      <trkpt lat="51.180764" lon="5.742884">
        <ele>36.964581</ele>
        <time>2023-03-05T09:13:21.000Z</time>
      </trkpt>
      <trkpt lat="51.180816" lon="5.742838">
        <ele>36.965706</ele>
        <time>2023-03-05T09:13:22.000Z</time>
      </trkpt>
      <trkpt lat="51.180867" lon="5.742793">
        <ele>36.966809</ele>
        <time>2023-03-05T09:13:23.000Z</time>
      </trkpt>
      <trkpt lat="51.180916" lon="5.742746">
        <ele>36.967891</ele>
        <time>2023-03-05T09:13:24.000Z</time>
      </trkpt>
      <trkpt lat="51.180963" lon="5.742689">
        <ele>36.967527</ele>
        <time>2023-03-05T09:13:25.000Z</time>
      </trkpt>
      <trkpt lat="51.181005" lon="5.742620">
        <ele>36.957415</ele>
        <time>2023-03-05T09:13:26.000Z</time>
      </trkpt>
      <trkpt lat="51.181038" lon="5.742537">
        <ele>36.947082</ele>
        <time>2023-03-05T09:13:27.000Z</time>
      </trkpt>
      <trkpt lat="51.181066" lon="5.742444">
        <ele>36.936236</ele>
        <time>2023-03-05T09:13:28.000Z</time>
      </trkpt>
      <trkpt lat="51.181088" lon="5.742343">
        <ele>36.924995</ele>
        <time>2023-03-05T09:13:29.000Z</time>
      </trkpt>
      <trkpt lat="51.181105" lon="5.742237">
        <ele>36.913492</ele>
        <time>2023-03-05T09:13:30.000Z</time>
      </trkpt>
      <trkpt lat="51.181117" lon="5.742130">
        <ele>36.902065</ele>
        <time>2023-03-05T09:13:31.000Z</time>
      </trkpt>
      <trkpt lat="51.181131" lon="5.742024">
        <ele>36.890676</ele>
        <time>2023-03-05T09:13:32.000Z</time>
      </trkpt>
      <trkpt lat="51.181144" lon="5.741920">
        <ele>36.879527</ele>
        <time>2023-03-05T09:13:33.000Z</time>
      </trkpt>
      <trkpt lat="51.181156" lon="5.741819">
        <ele>36.868720</ele>
        <time>2023-03-05T09:13:34.000Z</time>
      </trkpt>
      <trkpt lat="51.181167" lon="5.741718">
        <ele>36.857943</ele>
        <time>2023-03-05T09:13:35.000Z</time>
      </trkpt>
      <trkpt lat="51.181178" lon="5.741619">
        <ele>36.847373</ele>
        <time>2023-03-05T09:13:36.000Z</time>
      </trkpt>
      <trkpt lat="51.181188" lon="5.741516">
        <ele>36.836415</ele>
        <time>2023-03-05T09:13:37.000Z</time>
      </trkpt>
      <trkpt lat="51.181195" lon="5.741412">
        <ele>36.825419</ele>
        <time>2023-03-05T09:13:38.000Z</time>
      </trkpt>
      <trkpt lat="51.181205" lon="5.741310">
        <ele>36.814565</ele>
        <time>2023-03-05T09:13:39.000Z</time>
      </trkpt>
      <trkpt lat="51.181214" lon="5.741210">
        <ele>36.803944</ele>
        <time>2023-03-05T09:13:40.000Z</time>
      </trkpt>
      <trkpt lat="51.181220" lon="5.741113">
        <ele>36.793697</ele>
        <time>2023-03-05T09:13:41.000Z</time>
      </trkpt>
      <trkpt lat="51.181221" lon="5.741014">
        <ele>36.783288</ele>
        <time>2023-03-05T09:13:42.000Z</time>
      </trkpt>
      <trkpt lat="51.181221" lon="5.740914">
        <ele>36.772775</ele>
        <time>2023-03-05T09:13:43.000Z</time>
      </trkpt>
      <trkpt lat="51.181219" lon="5.740814">
        <ele>36.762256</ele>
        <time>2023-03-05T09:13:44.000Z</time>
      </trkpt>
      <trkpt lat="51.181215" lon="5.740711">
        <ele>36.751407</ele>
        <time>2023-03-05T09:13:45.000Z</time>
      </trkpt>
      <trkpt lat="51.181211" lon="5.740606">
        <ele>36.740348</ele>
        <time>2023-03-05T09:13:46.000Z</time>
      </trkpt>
      <trkpt lat="51.181202" lon="5.740504">
        <ele>36.729519</ele>
        <time>2023-03-05T09:13:47.000Z</time>
      </trkpt>
      <trkpt lat="51.181193" lon="5.740401">
        <ele>36.718586</ele>
        <time>2023-03-05T09:13:48.000Z</time>
      </trkpt>
      <trkpt lat="51.181186" lon="5.740300">
        <ele>36.707903</ele>
        <time>2023-03-05T09:13:49.000Z</time>
      </trkpt>
      <trkpt lat="51.181176" lon="5.740197">
        <ele>36.696945</ele>
        <time>2023-03-05T09:13:50.000Z</time>
      </trkpt>
      <trkpt lat="51.181164" lon="5.740094">
        <ele>36.685932</ele>
        <time>2023-03-05T09:13:51.000Z</time>
      </trkpt>
      <trkpt lat="51.181155" lon="5.739993">
        <ele>36.675207</ele>
        <time>2023-03-05T09:13:52.000Z</time>
      </trkpt>
      <trkpt lat="51.181145" lon="5.739890">
        <ele>36.662415</ele>
        <time>2023-03-05T09:13:53.000Z</time>
      </trkpt>
      <trkpt lat="51.181136" lon="5.739788">
        <ele>36.644876</ele>
        <time>2023-03-05T09:13:54.000Z</time>
      </trkpt>
      <trkpt lat="51.181126" lon="5.739686">
        <ele>36.627296</ele>
        <time>2023-03-05T09:13:55.000Z</time>
      </trkpt>
      <trkpt lat="51.181115" lon="5.739583">
        <ele>36.609505</ele>
        <time>2023-03-05T09:13:56.000Z</time>
      </trkpt>
      <trkpt lat="51.181101" lon="5.739481">
        <ele>36.591725</ele>
        <time>2023-03-05T09:13:57.000Z</time>
      </trkpt>
      <trkpt lat="51.181088" lon="5.739379">
        <ele>36.574001</ele>
        <time>2023-03-05T09:13:58.000Z</time>
      </trkpt>
      <trkpt lat="51.181077" lon="5.739278">
        <ele>36.556545</ele>
        <time>2023-03-05T09:13:59.000Z</time>
      </trkpt>
      <trkpt lat="51.181065" lon="5.739178">
        <ele>36.539208</ele>
        <time>2023-03-05T09:14:00.000Z</time>
      </trkpt>
      <trkpt lat="51.181054" lon="5.739078">
        <ele>36.521920</ele>
        <time>2023-03-05T09:14:01.000Z</time>
      </trkpt>
      <trkpt lat="51.181042" lon="5.738979">
        <ele>36.504750</ele>
        <time>2023-03-05T09:14:02.000Z</time>
      </trkpt>
      <trkpt lat="51.181031" lon="5.738881">
        <ele>36.487797</ele>
        <time>2023-03-05T09:14:03.000Z</time>
      </trkpt>
      <trkpt lat="51.181019" lon="5.738782">
        <ele>36.470627</ele>
        <time>2023-03-05T09:14:04.000Z</time>
      </trkpt>
      <trkpt lat="51.181008" lon="5.738681">
        <ele>36.453171</ele>
        <time>2023-03-05T09:14:05.000Z</time>
      </trkpt>
      <trkpt lat="51.180996" lon="5.738577">
        <ele>36.435164</ele>
        <time>2023-03-05T09:14:06.000Z</time>
      </trkpt>
      <trkpt lat="51.180987" lon="5.738471">
        <ele>36.416950</ele>
        <time>2023-03-05T09:14:07.000Z</time>
      </trkpt>
      <trkpt lat="51.180980" lon="5.738365">
        <ele>36.398800</ele>
        <time>2023-03-05T09:14:08.000Z</time>
      </trkpt>
      <trkpt lat="51.180967" lon="5.738260">
        <ele>36.380576</ele>
        <time>2023-03-05T09:14:09.000Z</time>
      </trkpt>
      <trkpt lat="51.180954" lon="5.738155">
        <ele>36.362351</ele>
        <time>2023-03-05T09:14:10.000Z</time>
      </trkpt>
      <trkpt lat="51.180943" lon="5.738052">
        <ele>36.344559</ele>
        <time>2023-03-05T09:14:11.000Z</time>
      </trkpt>
      <trkpt lat="51.180931" lon="5.737950">
        <ele>36.326887</ele>
        <time>2023-03-05T09:14:12.000Z</time>
      </trkpt>
      <trkpt lat="51.180922" lon="5.737848">
        <ele>36.309348</ele>
        <time>2023-03-05T09:14:13.000Z</time>
      </trkpt>
      <trkpt lat="51.180913" lon="5.737746">
        <ele>36.291808</ele>
        <time>2023-03-05T09:14:14.000Z</time>
      </trkpt>
      <trkpt lat="51.180903" lon="5.737641">
        <ele>36.273723</ele>
        <time>2023-03-05T09:14:15.000Z</time>
      </trkpt>
      <trkpt lat="51.180896" lon="5.737534">
        <ele>36.255404</ele>
        <time>2023-03-05T09:14:16.000Z</time>
      </trkpt>
      <trkpt lat="51.180888" lon="5.737428">
        <ele>36.237224</ele>
        <time>2023-03-05T09:14:17.000Z</time>
      </trkpt>
      <trkpt lat="51.180883" lon="5.737323">
        <ele>36.219293</ele>
        <time>2023-03-05T09:14:18.000Z</time>
      </trkpt>
      <trkpt lat="51.180882" lon="5.737219">
        <ele>36.201582</ele>
        <time>2023-03-05T09:14:19.000Z</time>
      </trkpt>
      <trkpt lat="51.180889" lon="5.737117">
        <ele>36.184110</ele>
        <time>2023-03-05T09:14:20.000Z</time>
      </trkpt>
      <trkpt lat="51.180900" lon="5.737017">
        <ele>36.183435</ele>
        <time>2023-03-05T09:14:21.000Z</time>
      </trkpt>
      <trkpt lat="51.180914" lon="5.736918">
        <ele>36.190471</ele>
        <time>2023-03-05T09:14:22.000Z</time>
      </trkpt>
      <trkpt lat="51.180929" lon="5.736817">
        <ele>36.197668</ele>
        <time>2023-03-05T09:14:23.000Z</time>
      </trkpt>
      <trkpt lat="51.180947" lon="5.736716">
        <ele>36.204949</ele>
        <time>2023-03-05T09:14:24.000Z</time>
      </trkpt>
      <trkpt lat="51.180963" lon="5.736619">
        <ele>36.211903</ele>
        <time>2023-03-05T09:14:25.000Z</time>
      </trkpt>
      <trkpt lat="51.180976" lon="5.736519">
        <ele>36.218984</ele>
        <time>2023-03-05T09:14:26.000Z</time>
      </trkpt>
      <trkpt lat="51.180990" lon="5.736421">
        <ele>36.225953</ele>
        <time>2023-03-05T09:14:27.000Z</time>
      </trkpt>
      <trkpt lat="51.181006" lon="5.736323">
        <ele>36.232975</ele>
        <time>2023-03-05T09:14:28.000Z</time>
      </trkpt>
      <trkpt lat="51.181018" lon="5.736221">
        <ele>36.240171</ele>
        <time>2023-03-05T09:14:29.000Z</time>
      </trkpt>
      <trkpt lat="51.181032" lon="5.736120">
        <ele>36.247343</ele>
        <time>2023-03-05T09:14:30.000Z</time>
      </trkpt>
      <trkpt lat="51.181047" lon="5.736018">
        <ele>36.254607</ele>
        <time>2023-03-05T09:14:31.000Z</time>
      </trkpt>
      <trkpt lat="51.181060" lon="5.735921">
        <ele>36.261484</ele>
        <time>2023-03-05T09:14:32.000Z</time>
      </trkpt>
      <trkpt lat="51.181074" lon="5.735827">
        <ele>36.268183</ele>
        <time>2023-03-05T09:14:33.000Z</time>
      </trkpt>
      <trkpt lat="51.181087" lon="5.735733">
        <ele>36.274858</ele>
        <time>2023-03-05T09:14:34.000Z</time>
      </trkpt>
      <trkpt lat="51.181101" lon="5.735641">
        <ele>36.281422</ele>
        <time>2023-03-05T09:14:35.000Z</time>
      </trkpt>
      <trkpt lat="51.181114" lon="5.735550">
        <ele>36.287893</ele>
        <time>2023-03-05T09:14:36.000Z</time>
      </trkpt>
      <trkpt lat="51.181125" lon="5.735460">
        <ele>36.294251</ele>
        <time>2023-03-05T09:14:37.000Z</time>
      </trkpt>
      <trkpt lat="51.181136" lon="5.735365">
        <ele>36.300949</ele>
        <time>2023-03-05T09:14:38.000Z</time>
      </trkpt>
      <trkpt lat="51.181148" lon="5.735267">
        <ele>36.307872</ele>
        <time>2023-03-05T09:14:39.000Z</time>
      </trkpt>
      <trkpt lat="51.181160" lon="5.735169">
        <ele>36.314796</ele>
        <time>2023-03-05T09:14:40.000Z</time>
      </trkpt>
      <trkpt lat="51.181171" lon="5.735074">
        <ele>36.321494</ele>
        <time>2023-03-05T09:14:41.000Z</time>
      </trkpt>
      <trkpt lat="51.181185" lon="5.734974">
        <ele>36.328598</ele>
        <time>2023-03-05T09:14:42.000Z</time>
      </trkpt>
      <trkpt lat="51.181200" lon="5.734876">
        <ele>36.335593</ele>
        <time>2023-03-05T09:14:43.000Z</time>
      </trkpt>
      <trkpt lat="51.181215" lon="5.734778">
        <ele>36.342587</ele>
        <time>2023-03-05T09:14:44.000Z</time>
      </trkpt>
      <trkpt lat="51.181228" lon="5.734681">
        <ele>36.349465</ele>
        <time>2023-03-05T09:14:45.000Z</time>
      </trkpt>
      <trkpt lat="51.181242" lon="5.734586">
        <ele>36.356231</ele>
        <time>2023-03-05T09:14:46.000Z</time>
      </trkpt>
      <trkpt lat="51.181255" lon="5.734491">
        <ele>36.362973</ele>
        <time>2023-03-05T09:14:47.000Z</time>
      </trkpt>
      <trkpt lat="51.181266" lon="5.734396">
        <ele>36.369672</ele>
        <time>2023-03-05T09:14:48.000Z</time>
      </trkpt>
      <trkpt lat="51.181278" lon="5.734299">
        <ele>36.376527</ele>
        <time>2023-03-05T09:14:49.000Z</time>
      </trkpt>
      <trkpt lat="51.181292" lon="5.734201">
        <ele>36.386244</ele>
        <time>2023-03-05T09:14:50.000Z</time>
      </trkpt>
      <trkpt lat="51.181309" lon="5.734107">
        <ele>36.396173</ele>
        <time>2023-03-05T09:14:51.000Z</time>
      </trkpt>
      <trkpt lat="51.181338" lon="5.734020">
        <ele>36.406174</ele>
        <time>2023-03-05T09:14:52.000Z</time>
      </trkpt>
      <trkpt lat="51.181374" lon="5.733943">
        <ele>36.415923</ele>
        <time>2023-03-05T09:14:53.000Z</time>
      </trkpt>
      <trkpt lat="51.181420" lon="5.733875">
        <ele>36.426077</ele>
        <time>2023-03-05T09:14:54.000Z</time>
      </trkpt>
      <trkpt lat="51.181469" lon="5.733813">
        <ele>36.436203</ele>
        <time>2023-03-05T09:14:55.000Z</time>
      </trkpt>
      <trkpt lat="51.181517" lon="5.733748">
        <ele>36.446396</ele>
        <time>2023-03-05T09:14:56.000Z</time>
      </trkpt>
      <trkpt lat="51.181560" lon="5.733677">
        <ele>36.456416</ele>
        <time>2023-03-05T09:14:57.000Z</time>
      </trkpt>
      <trkpt lat="51.181597" lon="5.733592">
        <ele>36.466919</ele>
        <time>2023-03-05T09:14:58.000Z</time>
      </trkpt>
      <trkpt lat="51.181624" lon="5.733500">
        <ele>36.477229</ele>
        <time>2023-03-05T09:14:59.000Z</time>
      </trkpt>
      <trkpt lat="51.181647" lon="5.733406">
        <ele>36.487470</ele>
        <time>2023-03-05T09:15:00.000Z</time>
      </trkpt>
      <trkpt lat="51.181670" lon="5.733311">
        <ele>36.497806</ele>
        <time>2023-03-05T09:15:01.000Z</time>
      </trkpt>
      <trkpt lat="51.181695" lon="5.733218">
        <ele>36.508076</ele>
        <time>2023-03-05T09:15:02.000Z</time>
      </trkpt>
      <trkpt lat="51.181720" lon="5.733125">
        <ele>36.518346</ele>
        <time>2023-03-05T09:15:03.000Z</time>
      </trkpt>
      <trkpt lat="51.181745" lon="5.733032">
        <ele>36.528616</ele>
        <time>2023-03-05T09:15:04.000Z</time>
      </trkpt>
      <trkpt lat="51.181769" lon="5.732940">
        <ele>36.538729</ele>
        <time>2023-03-05T09:15:05.000Z</time>
      </trkpt>
      <trkpt lat="51.181788" lon="5.732849">
        <ele>36.548464</ele>
        <time>2023-03-05T09:15:06.000Z</time>
      </trkpt>
      <trkpt lat="51.181807" lon="5.732760">
        <ele>36.558006</ele>
        <time>2023-03-05T09:15:07.000Z</time>
      </trkpt>
      <trkpt lat="51.181826" lon="5.732667">
        <ele>36.567933</ele>
        <time>2023-03-05T09:15:08.000Z</time>
      </trkpt>
      <trkpt lat="51.181843" lon="5.732573">
        <ele>36.577862</ele>
        <time>2023-03-05T09:15:09.000Z</time>
      </trkpt>
      <trkpt lat="51.181862" lon="5.732479">
        <ele>36.587886</ele>
        <time>2023-03-05T09:15:10.000Z</time>
      </trkpt>
      <trkpt lat="51.181879" lon="5.732384">
        <ele>36.597913</ele>
        <time>2023-03-05T09:15:11.000Z</time>
      </trkpt>
      <trkpt lat="51.181890" lon="5.732285">
        <ele>36.608117</ele>
        <time>2023-03-05T09:15:12.000Z</time>
      </trkpt>
      <trkpt lat="51.181895" lon="5.732183">
        <ele>36.618501</ele>
        <time>2023-03-05T09:15:13.000Z</time>
      </trkpt>
      <trkpt lat="51.181894" lon="5.732080">
        <ele>36.628956</ele>
        <time>2023-03-05T09:15:14.000Z</time>
      </trkpt>
      <trkpt lat="51.181883" lon="5.731978">
        <ele>36.639460</ele>
        <time>2023-03-05T09:15:15.000Z</time>
      </trkpt>
      <trkpt lat="51.181868" lon="5.731879">
        <ele>36.649797</ele>
        <time>2023-03-05T09:15:16.000Z</time>
      </trkpt>
      <trkpt lat="51.181847" lon="5.731784">
        <ele>36.660020</ele>
        <time>2023-03-05T09:15:17.000Z</time>
      </trkpt>
      <trkpt lat="51.181820" lon="5.731693">
        <ele>36.668284</ele>
        <time>2023-03-05T09:15:18.000Z</time>
      </trkpt>
      <trkpt lat="51.181787" lon="5.731606">
        <ele>36.664750</ele>
        <time>2023-03-05T09:15:19.000Z</time>
      </trkpt>
      <trkpt lat="51.181753" lon="5.731524">
        <ele>36.661333</ele>
        <time>2023-03-05T09:15:20.000Z</time>
      </trkpt>
      <trkpt lat="51.181714" lon="5.731442">
        <ele>36.657755</ele>
        <time>2023-03-05T09:15:21.000Z</time>
      </trkpt>
      <trkpt lat="51.181674" lon="5.731362">
        <ele>36.654199</ele>
        <time>2023-03-05T09:15:22.000Z</time>
      </trkpt>
      <trkpt lat="51.181633" lon="5.731283">
        <ele>36.650635</ele>
        <time>2023-03-05T09:15:23.000Z</time>
      </trkpt>
      <trkpt lat="51.181594" lon="5.731202">
        <ele>36.647085</ele>
        <time>2023-03-05T09:15:24.000Z</time>
      </trkpt>
      <trkpt lat="51.181556" lon="5.731121">
        <ele>36.643569</ele>
        <time>2023-03-05T09:15:25.000Z</time>
      </trkpt>
      <trkpt lat="51.181517" lon="5.731041">
        <ele>36.640047</ele>
        <time>2023-03-05T09:15:26.000Z</time>
      </trkpt>
      <trkpt lat="51.181480" lon="5.730963">
        <ele>36.636647</ele>
        <time>2023-03-05T09:15:27.000Z</time>
      </trkpt>
      <trkpt lat="51.181442" lon="5.730883">
        <ele>36.633159</ele>
        <time>2023-03-05T09:15:28.000Z</time>
      </trkpt>
      <trkpt lat="51.181408" lon="5.730801">
        <ele>36.629742</ele>
        <time>2023-03-05T09:15:29.000Z</time>
      </trkpt>
      <trkpt lat="51.181375" lon="5.730716">
        <ele>36.626267</ele>
        <time>2023-03-05T09:15:30.000Z</time>
      </trkpt>
      <trkpt lat="51.181345" lon="5.730626">
        <ele>36.622724</ele>
        <time>2023-03-05T09:15:31.000Z</time>
      </trkpt>
      <trkpt lat="51.181319" lon="5.730536">
        <ele>36.619280</ele>
        <time>2023-03-05T09:15:32.000Z</time>
      </trkpt>
      <trkpt lat="51.181295" lon="5.730444">
        <ele>36.615817</ele>
        <time>2023-03-05T09:15:33.000Z</time>
      </trkpt>
      <trkpt lat="51.181272" lon="5.730348">
        <ele>36.612245</ele>
        <time>2023-03-05T09:15:34.000Z</time>
      </trkpt>
      <trkpt lat="51.181251" lon="5.730252">
        <ele>36.608712</ele>
        <time>2023-03-05T09:15:35.000Z</time>
      </trkpt>
      <trkpt lat="51.181232" lon="5.730156">
        <ele>36.605213</ele>
        <time>2023-03-05T09:15:36.000Z</time>
      </trkpt>
      <trkpt lat="51.181215" lon="5.730059">
        <ele>36.601712</ele>
        <time>2023-03-05T09:15:37.000Z</time>
      </trkpt>
      <trkpt lat="51.181198" lon="5.729962">
        <ele>36.598212</ele>
        <time>2023-03-05T09:15:38.000Z</time>
      </trkpt>
      <trkpt lat="51.181181" lon="5.729863">
        <ele>36.594645</ele>
        <time>2023-03-05T09:15:39.000Z</time>
      </trkpt>
      <trkpt lat="51.181163" lon="5.729765">
        <ele>36.591095</ele>
        <time>2023-03-05T09:15:40.000Z</time>
      </trkpt>
      <trkpt lat="51.181144" lon="5.729667">
        <ele>36.587530</ele>
        <time>2023-03-05T09:15:41.000Z</time>
      </trkpt>
      <trkpt lat="51.181125" lon="5.729569">
        <ele>36.583965</ele>
        <time>2023-03-05T09:15:42.000Z</time>
      </trkpt>
      <trkpt lat="51.181109" lon="5.729471">
        <ele>36.580446</ele>
        <time>2023-03-05T09:15:43.000Z</time>
      </trkpt>
      <trkpt lat="51.181091" lon="5.729375">
        <ele>36.576963</ele>
        <time>2023-03-05T09:15:44.000Z</time>
      </trkpt>
      <trkpt lat="51.181074" lon="5.729280">
        <ele>36.573530</ele>
        <time>2023-03-05T09:15:45.000Z</time>
      </trkpt>
      <trkpt lat="51.181059" lon="5.729182">
        <ele>36.570024</ele>
        <time>2023-03-05T09:15:46.000Z</time>
      </trkpt>
      <trkpt lat="51.181041" lon="5.729084">
        <ele>36.583447</ele>
        <time>2023-03-05T09:15:47.000Z</time>
      </trkpt>
      <trkpt lat="51.181023" lon="5.728991">
        <ele>36.602256</ele>
        <time>2023-03-05T09:15:48.000Z</time>
      </trkpt>
      <trkpt lat="51.181006" lon="5.728895">
        <ele>36.621533</ele>
        <time>2023-03-05T09:15:49.000Z</time>
      </trkpt>
      <trkpt lat="51.180988" lon="5.728796">
        <ele>36.641452</ele>
        <time>2023-03-05T09:15:50.000Z</time>
      </trkpt>
      <trkpt lat="51.180972" lon="5.728703">
        <ele>36.660088</ele>
        <time>2023-03-05T09:15:51.000Z</time>
      </trkpt>
      <trkpt lat="51.180956" lon="5.728607">
        <ele>36.679284</ele>
        <time>2023-03-05T09:15:52.000Z</time>
      </trkpt>
      <trkpt lat="51.180938" lon="5.728511">
        <ele>36.698647</ele>
        <time>2023-03-05T09:15:53.000Z</time>
      </trkpt>
      <trkpt lat="51.180922" lon="5.728417">
        <ele>36.717470</ele>
        <time>2023-03-05T09:15:54.000Z</time>
      </trkpt>
      <trkpt lat="51.180906" lon="5.728321">
        <ele>36.736665</ele>
        <time>2023-03-05T09:15:55.000Z</time>
      </trkpt>
      <trkpt lat="51.180891" lon="5.728226">
        <ele>36.755597</ele>
        <time>2023-03-05T09:15:56.000Z</time>
      </trkpt>
      <trkpt lat="51.180876" lon="5.728132">
        <ele>36.774341</ele>
        <time>2023-03-05T09:15:57.000Z</time>
      </trkpt>
      <trkpt lat="51.180860" lon="5.728038">
        <ele>36.793163</ele>
        <time>2023-03-05T09:15:58.000Z</time>
      </trkpt>
      <trkpt lat="51.180848" lon="5.727947">
        <ele>36.811133</ele>
        <time>2023-03-05T09:15:59.000Z</time>
      </trkpt>
      <trkpt lat="51.180834" lon="5.727857">
        <ele>36.829052</ele>
        <time>2023-03-05T09:16:00.000Z</time>
      </trkpt>
      <trkpt lat="51.180819" lon="5.727767">
        <ele>36.847048</ele>
        <time>2023-03-05T09:16:01.000Z</time>
      </trkpt>
      <trkpt lat="51.180806" lon="5.727678">
        <ele>36.864708</ele>
        <time>2023-03-05T09:16:02.000Z</time>
      </trkpt>
      <trkpt lat="51.180792" lon="5.727593">
        <ele>36.881691</ele>
        <time>2023-03-05T09:16:03.000Z</time>
      </trkpt>
      <trkpt lat="51.180777" lon="5.727510">
        <ele>36.898383</ele>
        <time>2023-03-05T09:16:04.000Z</time>
      </trkpt>
      <trkpt lat="51.180764" lon="5.727431">
        <ele>36.914167</ele>
        <time>2023-03-05T09:16:05.000Z</time>
      </trkpt>
      <trkpt lat="51.180750" lon="5.727351">
        <ele>36.930217</ele>
        <time>2023-03-05T09:16:06.000Z</time>
      </trkpt>
      <trkpt lat="51.180737" lon="5.727271">
        <ele>36.946187</ele>
        <time>2023-03-05T09:16:07.000Z</time>
      </trkpt>
      <trkpt lat="51.180726" lon="5.727196">
        <ele>36.961072</ele>
        <time>2023-03-05T09:16:08.000Z</time>
      </trkpt>
      <trkpt lat="51.180714" lon="5.727125">
        <ele>36.975282</ele>
        <time>2023-03-05T09:16:09.000Z</time>
      </trkpt>
      <trkpt lat="51.180703" lon="5.727061">
        <ele>36.988106</ele>
        <time>2023-03-05T09:16:10.000Z</time>
      </trkpt>
      <trkpt lat="51.180694" lon="5.727010">
        <ele>36.998345</ele>
        <time>2023-03-05T09:16:11.000Z</time>
      </trkpt>
      <trkpt lat="51.180686" lon="5.726971">
        <ele>37.006274</ele>
        <time>2023-03-05T09:16:12.000Z</time>
      </trkpt>
      <trkpt lat="51.180683" lon="5.726936">
        <ele>37.013101</ele>
        <time>2023-03-05T09:16:13.000Z</time>
      </trkpt>
      <trkpt lat="51.180681" lon="5.726900">
        <ele>37.020085</ele>
        <time>2023-03-05T09:16:14.000Z</time>
      </trkpt>
      <trkpt lat="51.180675" lon="5.726855">
        <ele>37.028975</ele>
        <time>2023-03-05T09:16:15.000Z</time>
      </trkpt>
      <trkpt lat="51.180665" lon="5.726801">
        <ele>37.039856</ele>
        <time>2023-03-05T09:16:16.000Z</time>
      </trkpt>
      <trkpt lat="51.180651" lon="5.726738">
        <ele>37.052773</ele>
        <time>2023-03-05T09:16:17.000Z</time>
      </trkpt>
      <trkpt lat="51.180635" lon="5.726670">
        <ele>37.066808</ele>
        <time>2023-03-05T09:16:18.000Z</time>
      </trkpt>
      <trkpt lat="51.180616" lon="5.726594">
        <ele>37.082620</ele>
        <time>2023-03-05T09:16:19.000Z</time>
      </trkpt>
      <trkpt lat="51.180595" lon="5.726508">
        <ele>37.100455</ele>
        <time>2023-03-05T09:16:20.000Z</time>
      </trkpt>
      <trkpt lat="51.180578" lon="5.726417">
        <ele>37.118804</ele>
        <time>2023-03-05T09:16:21.000Z</time>
      </trkpt>
      <trkpt lat="51.180565" lon="5.726325">
        <ele>37.131815</ele>
        <time>2023-03-05T09:16:22.000Z</time>
      </trkpt>
      <trkpt lat="51.180552" lon="5.726235">
        <ele>37.142772</ele>
        <time>2023-03-05T09:16:23.000Z</time>
      </trkpt>
      <trkpt lat="51.180536" lon="5.726148">
        <ele>37.153528</ele>
        <time>2023-03-05T09:16:24.000Z</time>
      </trkpt>
      <trkpt lat="51.180523" lon="5.726062">
        <ele>37.164023</ele>
        <time>2023-03-05T09:16:25.000Z</time>
      </trkpt>
      <trkpt lat="51.180512" lon="5.725978">
        <ele>37.174204</ele>
        <time>2023-03-05T09:16:26.000Z</time>
      </trkpt>
      <trkpt lat="51.180500" lon="5.725894">
        <ele>37.184425</ele>
        <time>2023-03-05T09:16:27.000Z</time>
      </trkpt>
      <trkpt lat="51.180489" lon="5.725806">
        <ele>37.195070</ele>
        <time>2023-03-05T09:16:28.000Z</time>
      </trkpt>
      <trkpt lat="51.180473" lon="5.725714">
        <ele>37.206397</ele>
        <time>2023-03-05T09:16:29.000Z</time>
      </trkpt>
      <trkpt lat="51.180454" lon="5.725620">
        <ele>37.218114</ele>
        <time>2023-03-05T09:16:30.000Z</time>
      </trkpt>
      <trkpt lat="51.180437" lon="5.725523">
        <ele>37.230063</ele>
        <time>2023-03-05T09:16:31.000Z</time>
      </trkpt>
      <trkpt lat="51.180422" lon="5.725426">
        <ele>37.241916</ele>
        <time>2023-03-05T09:16:32.000Z</time>
      </trkpt>
      <trkpt lat="51.180407" lon="5.725329">
        <ele>37.253768</ele>
        <time>2023-03-05T09:16:33.000Z</time>
      </trkpt>
      <trkpt lat="51.180389" lon="5.725235">
        <ele>37.265429</ele>
        <time>2023-03-05T09:16:34.000Z</time>
      </trkpt>
      <trkpt lat="51.180373" lon="5.725139">
        <ele>37.277213</ele>
        <time>2023-03-05T09:16:35.000Z</time>
      </trkpt>
      <trkpt lat="51.180357" lon="5.725043">
        <ele>37.288998</ele>
        <time>2023-03-05T09:16:36.000Z</time>
      </trkpt>
      <trkpt lat="51.180342" lon="5.724948">
        <ele>37.300620</ele>
        <time>2023-03-05T09:16:37.000Z</time>
      </trkpt>
      <trkpt lat="51.180327" lon="5.724852">
        <ele>37.312358</ele>
        <time>2023-03-05T09:16:38.000Z</time>
      </trkpt>
      <trkpt lat="51.180309" lon="5.724755">
        <ele>37.324359</ele>
        <time>2023-03-05T09:16:39.000Z</time>
      </trkpt>
      <trkpt lat="51.180292" lon="5.724660">
        <ele>37.336080</ele>
        <time>2023-03-05T09:16:40.000Z</time>
      </trkpt>
      <trkpt lat="51.180277" lon="5.724566">
        <ele>37.347587</ele>
        <time>2023-03-05T09:16:41.000Z</time>
      </trkpt>
      <trkpt lat="51.180260" lon="5.724469">
        <ele>37.359536</ele>
        <time>2023-03-05T09:16:42.000Z</time>
      </trkpt>
      <trkpt lat="51.180240" lon="5.724370">
        <ele>37.371876</ele>
        <time>2023-03-05T09:16:43.000Z</time>
      </trkpt>
      <trkpt lat="51.180223" lon="5.724273">
        <ele>37.383825</ele>
        <time>2023-03-05T09:16:44.000Z</time>
      </trkpt>
      <trkpt lat="51.180206" lon="5.724177">
        <ele>37.395660</ele>
        <time>2023-03-05T09:16:45.000Z</time>
      </trkpt>
      <trkpt lat="51.180187" lon="5.724079">
        <ele>37.407829</ele>
        <time>2023-03-05T09:16:46.000Z</time>
      </trkpt>
      <trkpt lat="51.180168" lon="5.723982">
        <ele>37.419886</ele>
        <time>2023-03-05T09:16:47.000Z</time>
      </trkpt>
      <trkpt lat="51.180151" lon="5.723884">
        <ele>37.431949</ele>
        <time>2023-03-05T09:16:48.000Z</time>
      </trkpt>
      <trkpt lat="51.180136" lon="5.723786">
        <ele>37.443917</ele>
        <time>2023-03-05T09:16:49.000Z</time>
      </trkpt>
      <trkpt lat="51.180118" lon="5.723689">
        <ele>37.455918</ele>
        <time>2023-03-05T09:16:50.000Z</time>
      </trkpt>
      <trkpt lat="51.180101" lon="5.723590">
        <ele>37.462242</ele>
        <time>2023-03-05T09:16:51.000Z</time>
      </trkpt>
      <trkpt lat="51.180086" lon="5.723493">
        <ele>37.457484</ele>
        <time>2023-03-05T09:16:52.000Z</time>
      </trkpt>
      <trkpt lat="51.180071" lon="5.723397">
        <ele>37.452771</ele>
        <time>2023-03-05T09:16:53.000Z</time>
      </trkpt>
      <trkpt lat="51.180056" lon="5.723301">
        <ele>37.448059</ele>
        <time>2023-03-05T09:16:54.000Z</time>
      </trkpt>
      <trkpt lat="51.180038" lon="5.723205">
        <ele>37.443286</ele>
        <time>2023-03-05T09:16:55.000Z</time>
      </trkpt>
      <trkpt lat="51.180021" lon="5.723108">
        <ele>37.438489</ele>
        <time>2023-03-05T09:16:56.000Z</time>
      </trkpt>
      <trkpt lat="51.180006" lon="5.723011">
        <ele>37.433730</ele>
        <time>2023-03-05T09:16:57.000Z</time>
      </trkpt>
      <trkpt lat="51.179991" lon="5.722916">
        <ele>37.429064</ele>
        <time>2023-03-05T09:16:58.000Z</time>
      </trkpt>
      <trkpt lat="51.179974" lon="5.722823">
        <ele>37.424450</ele>
        <time>2023-03-05T09:16:59.000Z</time>
      </trkpt>
      <trkpt lat="51.179954" lon="5.722725">
        <ele>37.419541</ele>
        <time>2023-03-05T09:17:00.000Z</time>
      </trkpt>
      <trkpt lat="51.179937" lon="5.722628">
        <ele>37.414743</ele>
        <time>2023-03-05T09:17:01.000Z</time>
      </trkpt>
      <trkpt lat="51.179920" lon="5.722531">
        <ele>37.409946</ele>
        <time>2023-03-05T09:17:02.000Z</time>
      </trkpt>
      <trkpt lat="51.179903" lon="5.722434">
        <ele>37.405149</ele>
        <time>2023-03-05T09:17:03.000Z</time>
      </trkpt>
      <trkpt lat="51.179885" lon="5.722337">
        <ele>37.400330</ele>
        <time>2023-03-05T09:17:04.000Z</time>
      </trkpt>
      <trkpt lat="51.179869" lon="5.722242">
        <ele>37.395645</ele>
        <time>2023-03-05T09:17:05.000Z</time>
      </trkpt>
      <trkpt lat="51.179851" lon="5.722150">
        <ele>37.391055</ele>
        <time>2023-03-05T09:17:06.000Z</time>
      </trkpt>
      <trkpt lat="51.179832" lon="5.722056">
        <ele>37.386350</ele>
        <time>2023-03-05T09:17:07.000Z</time>
      </trkpt>
      <trkpt lat="51.179815" lon="5.721962">
        <ele>37.381690</ele>
        <time>2023-03-05T09:17:08.000Z</time>
      </trkpt>
      <trkpt lat="51.179800" lon="5.721867">
        <ele>37.377024</ele>
        <time>2023-03-05T09:17:09.000Z</time>
      </trkpt>
      <trkpt lat="51.179782" lon="5.721773">
        <ele>37.372343</ele>
        <time>2023-03-05T09:17:10.000Z</time>
      </trkpt>
      <trkpt lat="51.179766" lon="5.721678">
        <ele>37.367657</ele>
        <time>2023-03-05T09:17:11.000Z</time>
      </trkpt>
      <trkpt lat="51.179748" lon="5.721583">
        <ele>37.362930</ele>
        <time>2023-03-05T09:17:12.000Z</time>
      </trkpt>
      <trkpt lat="51.179729" lon="5.721490">
        <ele>37.358271</ele>
        <time>2023-03-05T09:17:13.000Z</time>
      </trkpt>
      <trkpt lat="51.179712" lon="5.721395">
        <ele>37.353565</ele>
        <time>2023-03-05T09:17:14.000Z</time>
      </trkpt>
      <trkpt lat="51.179697" lon="5.721300">
        <ele>37.348899</ele>
        <time>2023-03-05T09:17:15.000Z</time>
      </trkpt>
      <trkpt lat="51.179682" lon="5.721207">
        <ele>37.344325</ele>
        <time>2023-03-05T09:17:16.000Z</time>
      </trkpt>
      <trkpt lat="51.179664" lon="5.721113">
        <ele>37.339644</ele>
        <time>2023-03-05T09:17:17.000Z</time>
      </trkpt>
      <trkpt lat="51.179648" lon="5.721019">
        <ele>37.335004</ele>
        <time>2023-03-05T09:17:18.000Z</time>
      </trkpt>
      <trkpt lat="51.179630" lon="5.720926">
        <ele>37.330368</ele>
        <time>2023-03-05T09:17:19.000Z</time>
      </trkpt>
      <trkpt lat="51.179613" lon="5.720833">
        <ele>37.318243</ele>
        <time>2023-03-05T09:17:20.000Z</time>
      </trkpt>
      <trkpt lat="51.179598" lon="5.720740">
        <ele>37.290802</ele>
        <time>2023-03-05T09:17:21.000Z</time>
      </trkpt>
      <trkpt lat="51.179583" lon="5.720645">
        <ele>37.262808</ele>
        <time>2023-03-05T09:17:22.000Z</time>
      </trkpt>
      <trkpt lat="51.179567" lon="5.720550">
        <ele>37.234698</ele>
        <time>2023-03-05T09:17:23.000Z</time>
      </trkpt>
      <trkpt lat="51.179550" lon="5.720456">
        <ele>37.206742</ele>
        <time>2023-03-05T09:17:24.000Z</time>
      </trkpt>
      <trkpt lat="51.179533" lon="5.720361">
        <ele>37.178511</ele>
        <time>2023-03-05T09:17:25.000Z</time>
      </trkpt>
      <trkpt lat="51.179518" lon="5.720265">
        <ele>37.150239</ele>
        <time>2023-03-05T09:17:26.000Z</time>
      </trkpt>
      <trkpt lat="51.179503" lon="5.720167">
        <ele>37.121413</ele>
        <time>2023-03-05T09:17:27.000Z</time>
      </trkpt>
      <trkpt lat="51.179487" lon="5.720069">
        <ele>37.092475</ele>
        <time>2023-03-05T09:17:28.000Z</time>
      </trkpt>
      <trkpt lat="51.179472" lon="5.719967">
        <ele>37.062536</ele>
        <time>2023-03-05T09:17:29.000Z</time>
      </trkpt>
      <trkpt lat="51.179457" lon="5.719864">
        <ele>37.032320</ele>
        <time>2023-03-05T09:17:30.000Z</time>
      </trkpt>
      <trkpt lat="51.179439" lon="5.719761">
        <ele>37.001765</ele>
        <time>2023-03-05T09:17:31.000Z</time>
      </trkpt>
      <trkpt lat="51.179420" lon="5.719659">
        <ele>36.971358</ele>
        <time>2023-03-05T09:17:32.000Z</time>
      </trkpt>
      <trkpt lat="51.179401" lon="5.719559">
        <ele>36.941499</ele>
        <time>2023-03-05T09:17:33.000Z</time>
      </trkpt>
      <trkpt lat="51.179384" lon="5.719460">
        <ele>36.912167</ele>
        <time>2023-03-05T09:17:34.000Z</time>
      </trkpt>
      <trkpt lat="51.179369" lon="5.719364">
        <ele>36.883896</ele>
        <time>2023-03-05T09:17:35.000Z</time>
      </trkpt>
      <trkpt lat="51.179351" lon="5.719269">
        <ele>36.855536</ele>
        <time>2023-03-05T09:17:36.000Z</time>
      </trkpt>
      <trkpt lat="51.179335" lon="5.719175">
        <ele>36.827702</ele>
        <time>2023-03-05T09:17:37.000Z</time>
      </trkpt>
      <trkpt lat="51.179319" lon="5.719083">
        <ele>36.800420</ele>
        <time>2023-03-05T09:17:38.000Z</time>
      </trkpt>
      <trkpt lat="51.179304" lon="5.718993">
        <ele>36.773808</ele>
        <time>2023-03-05T09:17:39.000Z</time>
      </trkpt>
      <trkpt lat="51.179289" lon="5.718901">
        <ele>36.746644</ele>
        <time>2023-03-05T09:17:40.000Z</time>
      </trkpt>
      <trkpt lat="51.179274" lon="5.718810">
        <ele>36.719757</ele>
        <time>2023-03-05T09:17:41.000Z</time>
      </trkpt>
      <trkpt lat="51.179256" lon="5.718721">
        <ele>36.693034</ele>
        <time>2023-03-05T09:17:42.000Z</time>
      </trkpt>
      <trkpt lat="51.179239" lon="5.718634">
        <ele>36.666993</ele>
        <time>2023-03-05T09:17:43.000Z</time>
      </trkpt>
      <trkpt lat="51.179219" lon="5.718551">
        <ele>36.641583</ele>
        <time>2023-03-05T09:17:44.000Z</time>
      </trkpt>
      <trkpt lat="51.179192" lon="5.718481">
        <ele>36.618097</ele>
        <time>2023-03-05T09:17:45.000Z</time>
      </trkpt>
      <trkpt lat="51.179149" lon="5.718426">
        <ele>36.592974</ele>
        <time>2023-03-05T09:17:46.000Z</time>
      </trkpt>
      <trkpt lat="51.179095" lon="5.718388">
        <ele>36.566070</ele>
        <time>2023-03-05T09:17:47.000Z</time>
      </trkpt>
      <trkpt lat="51.179038" lon="5.718357">
        <ele>36.538619</ele>
        <time>2023-03-05T09:17:48.000Z</time>
      </trkpt>
      <trkpt lat="51.178978" lon="5.718325">
        <ele>36.509780</ele>
        <time>2023-03-05T09:17:49.000Z</time>
      </trkpt>
      <trkpt lat="51.178918" lon="5.718296">
        <ele>36.499782</ele>
        <time>2023-03-05T09:17:50.000Z</time>
      </trkpt>
      <trkpt lat="51.178857" lon="5.718267">
        <ele>36.491366</ele>
        <time>2023-03-05T09:17:51.000Z</time>
      </trkpt>
      <trkpt lat="51.178793" lon="5.718235">
        <ele>36.482498</ele>
        <time>2023-03-05T09:17:52.000Z</time>
      </trkpt>
      <trkpt lat="51.178728" lon="5.718203">
        <ele>36.473504</ele>
        <time>2023-03-05T09:17:53.000Z</time>
      </trkpt>
      <trkpt lat="51.178666" lon="5.718170">
        <ele>36.464862</ele>
        <time>2023-03-05T09:17:54.000Z</time>
      </trkpt>
      <trkpt lat="51.178605" lon="5.718137">
        <ele>36.456345</ele>
        <time>2023-03-05T09:17:55.000Z</time>
      </trkpt>
      <trkpt lat="51.178541" lon="5.718105">
        <ele>36.447477</ele>
        <time>2023-03-05T09:17:56.000Z</time>
      </trkpt>
      <trkpt lat="51.178478" lon="5.718073">
        <ele>36.438735</ele>
        <time>2023-03-05T09:17:57.000Z</time>
      </trkpt>
      <trkpt lat="51.178417" lon="5.718041">
        <ele>36.430244</ele>
        <time>2023-03-05T09:17:58.000Z</time>
      </trkpt>
      <trkpt lat="51.178356" lon="5.718010">
        <ele>36.421779</ele>
        <time>2023-03-05T09:17:59.000Z</time>
      </trkpt>
      <trkpt lat="51.178293" lon="5.717978">
        <ele>36.413037</ele>
        <time>2023-03-05T09:18:00.000Z</time>
      </trkpt>
      <trkpt lat="51.178228" lon="5.717945">
        <ele>36.404018</ele>
        <time>2023-03-05T09:18:01.000Z</time>
      </trkpt>
      <trkpt lat="51.178165" lon="5.717913">
        <ele>36.395276</ele>
        <time>2023-03-05T09:18:02.000Z</time>
      </trkpt>
      <trkpt lat="51.178105" lon="5.717883">
        <ele>36.386962</ele>
        <time>2023-03-05T09:18:03.000Z</time>
      </trkpt>
      <trkpt lat="51.178044" lon="5.717853">
        <ele>36.378522</ele>
        <time>2023-03-05T09:18:04.000Z</time>
      </trkpt>
      <trkpt lat="51.177982" lon="5.717824">
        <ele>36.369979</ele>
        <time>2023-03-05T09:18:05.000Z</time>
      </trkpt>
      <trkpt lat="51.177921" lon="5.717795">
        <ele>36.361563</ele>
        <time>2023-03-05T09:18:06.000Z</time>
      </trkpt>
      <trkpt lat="51.177861" lon="5.717763">
        <ele>36.353198</ele>
        <time>2023-03-05T09:18:07.000Z</time>
      </trkpt>
      <trkpt lat="51.177802" lon="5.717728">
        <ele>36.344875</ele>
        <time>2023-03-05T09:18:08.000Z</time>
      </trkpt>
      <trkpt lat="51.177740" lon="5.717693">
        <ele>36.336179</ele>
        <time>2023-03-05T09:18:09.000Z</time>
      </trkpt>
      <trkpt lat="51.177679" lon="5.717659">
        <ele>36.327636</ele>
        <time>2023-03-05T09:18:10.000Z</time>
      </trkpt>
      <trkpt lat="51.177617" lon="5.717625">
        <ele>36.318967</ele>
        <time>2023-03-05T09:18:11.000Z</time>
      </trkpt>
      <trkpt lat="51.177557" lon="5.717592">
        <ele>36.310576</ele>
        <time>2023-03-05T09:18:12.000Z</time>
      </trkpt>
      <trkpt lat="51.177499" lon="5.717561">
        <ele>36.302488</ele>
        <time>2023-03-05T09:18:13.000Z</time>
      </trkpt>
      <trkpt lat="51.177437" lon="5.717527">
        <ele>36.293819</ele>
        <time>2023-03-05T09:18:14.000Z</time>
      </trkpt>
      <trkpt lat="51.177379" lon="5.717491">
        <ele>36.285590</ele>
        <time>2023-03-05T09:18:15.000Z</time>
      </trkpt>
      <trkpt lat="51.177322" lon="5.717455">
        <ele>36.277484</ele>
        <time>2023-03-05T09:18:16.000Z</time>
      </trkpt>
      <trkpt lat="51.177263" lon="5.717419">
        <ele>36.271380</ele>
        <time>2023-03-05T09:18:17.000Z</time>
      </trkpt>
      <trkpt lat="51.177204" lon="5.717381">
        <ele>36.307681</ele>
        <time>2023-03-05T09:18:18.000Z</time>
      </trkpt>
      <trkpt lat="51.177146" lon="5.717334">
        <ele>36.344797</ele>
        <time>2023-03-05T09:18:19.000Z</time>
      </trkpt>
      <trkpt lat="51.177091" lon="5.717279">
        <ele>36.381832</ele>
        <time>2023-03-05T09:18:20.000Z</time>
      </trkpt>
      <trkpt lat="51.177040" lon="5.717215">
        <ele>36.418854</ele>
        <time>2023-03-05T09:18:21.000Z</time>
      </trkpt>
      <trkpt lat="51.176990" lon="5.717147">
        <ele>36.456341</ele>
        <time>2023-03-05T09:18:22.000Z</time>
      </trkpt>
      <trkpt lat="51.176945" lon="5.717077">
        <ele>36.492202</ele>
        <time>2023-03-05T09:18:23.000Z</time>
      </trkpt>
      <trkpt lat="51.176902" lon="5.717008">
        <ele>36.527000</ele>
        <time>2023-03-05T09:18:24.000Z</time>
      </trkpt>
      <trkpt lat="51.176858" lon="5.716937">
        <ele>36.562708</ele>
        <time>2023-03-05T09:18:25.000Z</time>
      </trkpt>
      <trkpt lat="51.176815" lon="5.716863">
        <ele>36.598797</ele>
        <time>2023-03-05T09:18:26.000Z</time>
      </trkpt>
      <trkpt lat="51.176774" lon="5.716789">
        <ele>36.634119</ele>
        <time>2023-03-05T09:18:27.000Z</time>
      </trkpt>
      <trkpt lat="51.176730" lon="5.716716">
        <ele>36.670340</ele>
        <time>2023-03-05T09:18:28.000Z</time>
      </trkpt>
      <trkpt lat="51.176686" lon="5.716646">
        <ele>36.705794</ele>
        <time>2023-03-05T09:18:29.000Z</time>
      </trkpt>
      <trkpt lat="51.176644" lon="5.716579">
        <ele>36.739683</ele>
        <time>2023-03-05T09:18:30.000Z</time>
      </trkpt>
      <trkpt lat="51.176604" lon="5.716515">
        <ele>36.772006</ele>
        <time>2023-03-05T09:18:31.000Z</time>
      </trkpt>
      <trkpt lat="51.176566" lon="5.716453">
        <ele>36.803019</ele>
        <time>2023-03-05T09:18:32.000Z</time>
      </trkpt>
      <trkpt lat="51.176528" lon="5.716394">
        <ele>36.833274</ele>
        <time>2023-03-05T09:18:33.000Z</time>
      </trkpt>
      <trkpt lat="51.176490" lon="5.716337">
        <ele>36.863034</ele>
        <time>2023-03-05T09:18:34.000Z</time>
      </trkpt>
      <trkpt lat="51.176452" lon="5.716281">
        <ele>36.892550</ele>
        <time>2023-03-05T09:18:35.000Z</time>
      </trkpt>
      <trkpt lat="51.176416" lon="5.716223">
        <ele>36.921743</ele>
        <time>2023-03-05T09:18:36.000Z</time>
      </trkpt>
      <trkpt lat="51.176382" lon="5.716156">
        <ele>36.952574</ele>
        <time>2023-03-05T09:18:37.000Z</time>
      </trkpt>
      <trkpt lat="51.176359" lon="5.716083">
        <ele>36.981796</ele>
        <time>2023-03-05T09:18:38.000Z</time>
      </trkpt>
      <trkpt lat="51.176356" lon="5.716004">
        <ele>37.010104</ele>
        <time>2023-03-05T09:18:39.000Z</time>
      </trkpt>
      <trkpt lat="51.176374" lon="5.715927">
        <ele>37.039498</ele>
        <time>2023-03-05T09:18:40.000Z</time>
      </trkpt>
      <trkpt lat="51.176412" lon="5.715858">
        <ele>37.072348</ele>
        <time>2023-03-05T09:18:41.000Z</time>
      </trkpt>
      <trkpt lat="51.176460" lon="5.715796">
        <ele>37.107585</ele>
        <time>2023-03-05T09:18:42.000Z</time>
      </trkpt>
      <trkpt lat="51.176508" lon="5.715730">
        <ele>37.143741</ele>
        <time>2023-03-05T09:18:43.000Z</time>
      </trkpt>
      <trkpt lat="51.176556" lon="5.715660">
        <ele>37.180846</ele>
        <time>2023-03-05T09:18:44.000Z</time>
      </trkpt>
      <trkpt lat="51.176599" lon="5.715584">
        <ele>37.217463</ele>
        <time>2023-03-05T09:18:45.000Z</time>
      </trkpt>
      <trkpt lat="51.176632" lon="5.715499">
        <ele>37.253223</ele>
        <time>2023-03-05T09:18:46.000Z</time>
      </trkpt>
      <trkpt lat="51.176660" lon="5.715407">
        <ele>37.289801</ele>
        <time>2023-03-05T09:18:47.000Z</time>
      </trkpt>
      <trkpt lat="51.176677" lon="5.715311">
        <ele>37.291908</ele>
        <time>2023-03-05T09:18:48.000Z</time>
      </trkpt>
      <trkpt lat="51.176689" lon="5.715211">
        <ele>37.287238</ele>
        <time>2023-03-05T09:18:49.000Z</time>
      </trkpt>
      <trkpt lat="51.176695" lon="5.715111">
        <ele>37.282631</ele>
        <time>2023-03-05T09:18:50.000Z</time>
      </trkpt>
      <trkpt lat="51.176699" lon="5.715008">
        <ele>37.277897</ele>
        <time>2023-03-05T09:18:51.000Z</time>
      </trkpt>
      <trkpt lat="51.176701" lon="5.714903">
        <ele>37.273079</ele>
        <time>2023-03-05T09:18:52.000Z</time>
      </trkpt>
      <trkpt lat="51.176701" lon="5.714800">
        <ele>37.268354</ele>
        <time>2023-03-05T09:18:53.000Z</time>
      </trkpt>
      <trkpt lat="51.176701" lon="5.714699">
        <ele>37.263722</ele>
        <time>2023-03-05T09:18:54.000Z</time>
      </trkpt>
      <trkpt lat="51.176703" lon="5.714596">
        <ele>37.258995</ele>
        <time>2023-03-05T09:18:55.000Z</time>
      </trkpt>
      <trkpt lat="51.176707" lon="5.714493">
        <ele>37.254262</ele>
        <time>2023-03-05T09:18:56.000Z</time>
      </trkpt>
      <trkpt lat="51.176708" lon="5.714389">
        <ele>37.249491</ele>
        <time>2023-03-05T09:18:57.000Z</time>
      </trkpt>
      <trkpt lat="51.176713" lon="5.714284">
        <ele>37.244661</ele>
        <time>2023-03-05T09:18:58.000Z</time>
      </trkpt>
      <trkpt lat="51.176718" lon="5.714181">
        <ele>37.239923</ele>
        <time>2023-03-05T09:18:59.000Z</time>
      </trkpt>
      <trkpt lat="51.176722" lon="5.714080">
        <ele>37.235281</ele>
        <time>2023-03-05T09:19:00.000Z</time>
      </trkpt>
      <trkpt lat="51.176726" lon="5.713979">
        <ele>37.230639</ele>
        <time>2023-03-05T09:19:01.000Z</time>
      </trkpt>
      <trkpt lat="51.176732" lon="5.713876">
        <ele>37.225894</ele>
        <time>2023-03-05T09:19:02.000Z</time>
      </trkpt>
      <trkpt lat="51.176740" lon="5.713775">
        <ele>37.221225</ele>
        <time>2023-03-05T09:19:03.000Z</time>
      </trkpt>
      <trkpt lat="51.176750" lon="5.713673">
        <ele>37.216489</ele>
        <time>2023-03-05T09:19:04.000Z</time>
      </trkpt>
      <trkpt lat="51.176759" lon="5.713571">
        <ele>37.211765</ele>
        <time>2023-03-05T09:19:05.000Z</time>
      </trkpt>
      <trkpt lat="51.176769" lon="5.713470">
        <ele>37.207075</ele>
        <time>2023-03-05T09:19:06.000Z</time>
      </trkpt>
      <trkpt lat="51.176780" lon="5.713368">
        <ele>37.202328</ele>
        <time>2023-03-05T09:19:07.000Z</time>
      </trkpt>
      <trkpt lat="51.176792" lon="5.713266">
        <ele>37.197568</ele>
        <time>2023-03-05T09:19:08.000Z</time>
      </trkpt>
      <trkpt lat="51.176803" lon="5.713164">
        <ele>37.192820</ele>
        <time>2023-03-05T09:19:09.000Z</time>
      </trkpt>
      <trkpt lat="51.176814" lon="5.713063">
        <ele>37.188118</ele>
        <time>2023-03-05T09:19:10.000Z</time>
      </trkpt>
      <trkpt lat="51.176826" lon="5.712960">
        <ele>37.183313</ele>
        <time>2023-03-05T09:19:11.000Z</time>
      </trkpt>
      <trkpt lat="51.176840" lon="5.712856">
        <ele>37.178434</ele>
        <time>2023-03-05T09:19:12.000Z</time>
      </trkpt>
      <trkpt lat="51.176855" lon="5.712753">
        <ele>37.173584</ele>
        <time>2023-03-05T09:19:13.000Z</time>
      </trkpt>
      <trkpt lat="51.176868" lon="5.712651">
        <ele>37.168810</ele>
        <time>2023-03-05T09:19:14.000Z</time>
      </trkpt>
      <trkpt lat="51.176884" lon="5.712549">
        <ele>37.163903</ele>
        <time>2023-03-05T09:19:15.000Z</time>
      </trkpt>
      <trkpt lat="51.176901" lon="5.712447">
        <ele>37.156195</ele>
        <time>2023-03-05T09:19:16.000Z</time>
      </trkpt>
      <trkpt lat="51.176921" lon="5.712349">
        <ele>37.148669</ele>
        <time>2023-03-05T09:19:17.000Z</time>
      </trkpt>
      <trkpt lat="51.176941" lon="5.712254">
        <ele>37.141350</ele>
        <time>2023-03-05T09:19:18.000Z</time>
      </trkpt>
      <trkpt lat="51.176963" lon="5.712160">
        <ele>37.134023</ele>
        <time>2023-03-05T09:19:19.000Z</time>
      </trkpt>
      <trkpt lat="51.176986" lon="5.712066">
        <ele>37.126654</ele>
        <time>2023-03-05T09:19:20.000Z</time>
      </trkpt>
      <trkpt lat="51.177006" lon="5.711968">
        <ele>37.119128</ele>
        <time>2023-03-05T09:19:21.000Z</time>
      </trkpt>
      <trkpt lat="51.177025" lon="5.711872">
        <ele>37.111776</ele>
        <time>2023-03-05T09:19:22.000Z</time>
      </trkpt>
      <trkpt lat="51.177046" lon="5.711777">
        <ele>37.104419</ele>
        <time>2023-03-05T09:19:23.000Z</time>
      </trkpt>
      <trkpt lat="51.177067" lon="5.711679">
        <ele>37.096856</ele>
        <time>2023-03-05T09:19:24.000Z</time>
      </trkpt>
      <trkpt lat="51.177089" lon="5.711581">
        <ele>37.089254</ele>
        <time>2023-03-05T09:19:25.000Z</time>
      </trkpt>
      <trkpt lat="51.177109" lon="5.711484">
        <ele>37.081797</ele>
        <time>2023-03-05T09:19:26.000Z</time>
      </trkpt>
      <trkpt lat="51.177128" lon="5.711389">
        <ele>37.074515</ele>
        <time>2023-03-05T09:19:27.000Z</time>
      </trkpt>
      <trkpt lat="51.177147" lon="5.711292">
        <ele>37.067094</ele>
        <time>2023-03-05T09:19:28.000Z</time>
      </trkpt>
      <trkpt lat="51.177167" lon="5.711195">
        <ele>37.059637</ele>
        <time>2023-03-05T09:19:29.000Z</time>
      </trkpt>
      <trkpt lat="51.177185" lon="5.711097">
        <ele>37.052179</ele>
        <time>2023-03-05T09:19:30.000Z</time>
      </trkpt>
      <trkpt lat="51.177205" lon="5.710999">
        <ele>37.044653</ele>
        <time>2023-03-05T09:19:31.000Z</time>
      </trkpt>
      <trkpt lat="51.177224" lon="5.710902">
        <ele>37.037232</ele>
        <time>2023-03-05T09:19:32.000Z</time>
      </trkpt>
      <trkpt lat="51.177243" lon="5.710805">
        <ele>37.029810</ele>
        <time>2023-03-05T09:19:33.000Z</time>
      </trkpt>
      <trkpt lat="51.177262" lon="5.710708">
        <ele>37.022389</ele>
        <time>2023-03-05T09:19:34.000Z</time>
      </trkpt>
      <trkpt lat="51.177281" lon="5.710609">
        <ele>37.014828</ele>
        <time>2023-03-05T09:19:35.000Z</time>
      </trkpt>
      <trkpt lat="51.177298" lon="5.710508">
        <ele>37.007191</ele>
        <time>2023-03-05T09:19:36.000Z</time>
      </trkpt>
      <trkpt lat="51.177317" lon="5.710409">
        <ele>36.999630</ele>
        <time>2023-03-05T09:19:37.000Z</time>
      </trkpt>
      <trkpt lat="51.177338" lon="5.710308">
        <ele>36.991859</ele>
        <time>2023-03-05T09:19:38.000Z</time>
      </trkpt>
      <trkpt lat="51.177359" lon="5.710209">
        <ele>36.984227</ele>
        <time>2023-03-05T09:19:39.000Z</time>
      </trkpt>
      <trkpt lat="51.177378" lon="5.710111">
        <ele>36.976736</ele>
        <time>2023-03-05T09:19:40.000Z</time>
      </trkpt>
      <trkpt lat="51.177395" lon="5.710016">
        <ele>36.969521</ele>
        <time>2023-03-05T09:19:41.000Z</time>
      </trkpt>
      <trkpt lat="51.177414" lon="5.709924">
        <ele>36.962447</ele>
        <time>2023-03-05T09:19:42.000Z</time>
      </trkpt>
      <trkpt lat="51.177433" lon="5.709830">
        <ele>36.955235</ele>
        <time>2023-03-05T09:19:43.000Z</time>
      </trkpt>
      <trkpt lat="51.177452" lon="5.709737">
        <ele>36.939757</ele>
        <time>2023-03-05T09:19:44.000Z</time>
      </trkpt>
      <trkpt lat="51.177471" lon="5.709642">
        <ele>36.923165</ele>
        <time>2023-03-05T09:19:45.000Z</time>
      </trkpt>
      <trkpt lat="51.177491" lon="5.709543">
        <ele>36.905857</ele>
        <time>2023-03-05T09:19:46.000Z</time>
      </trkpt>
      <trkpt lat="51.177508" lon="5.709445">
        <ele>36.888937</ele>
        <time>2023-03-05T09:19:47.000Z</time>
      </trkpt>
      <trkpt lat="51.177525" lon="5.709349">
        <ele>36.872338</ele>
        <time>2023-03-05T09:19:48.000Z</time>
      </trkpt>
      <trkpt lat="51.177542" lon="5.709254">
        <ele>36.855899</ele>
        <time>2023-03-05T09:19:49.000Z</time>
      </trkpt>
      <trkpt lat="51.177557" lon="5.709160">
        <ele>36.839759</ele>
        <time>2023-03-05T09:19:50.000Z</time>
      </trkpt>
      <trkpt lat="51.177575" lon="5.709066">
        <ele>36.823405</ele>
        <time>2023-03-05T09:19:51.000Z</time>
      </trkpt>
      <trkpt lat="51.177591" lon="5.708976">
        <ele>36.807838</ele>
        <time>2023-03-05T09:19:52.000Z</time>
      </trkpt>
      <trkpt lat="51.177609" lon="5.708884">
        <ele>36.791802</ele>
        <time>2023-03-05T09:19:53.000Z</time>
      </trkpt>
      <trkpt lat="51.177626" lon="5.708796">
        <ele>36.776479</ele>
        <time>2023-03-05T09:19:54.000Z</time>
      </trkpt>
      <trkpt lat="51.177641" lon="5.708712">
        <ele>36.761946</ele>
        <time>2023-03-05T09:19:55.000Z</time>
      </trkpt>
      <trkpt lat="51.177656" lon="5.708633">
        <ele>36.748211</ele>
        <time>2023-03-05T09:19:56.000Z</time>
      </trkpt>
      <trkpt lat="51.177671" lon="5.708562">
        <ele>36.735744</ele>
        <time>2023-03-05T09:19:57.000Z</time>
      </trkpt>
      <trkpt lat="51.177677" lon="5.708500">
        <ele>36.725305</ele>
        <time>2023-03-05T09:19:58.000Z</time>
      </trkpt>
      <trkpt lat="51.177670" lon="5.708449">
        <ele>36.716618</ele>
        <time>2023-03-05T09:19:59.000Z</time>
      </trkpt>
      <trkpt lat="51.177649" lon="5.708411">
        <ele>36.708189</ele>
        <time>2023-03-05T09:20:00.000Z</time>
      </trkpt>
      <trkpt lat="51.177613" lon="5.708392">
        <ele>36.698124</ele>
        <time>2023-03-05T09:20:01.000Z</time>
      </trkpt>
      <trkpt lat="51.177569" lon="5.708393">
        <ele>36.686445</ele>
        <time>2023-03-05T09:20:02.000Z</time>
      </trkpt>
      <trkpt lat="51.177520" lon="5.708403">
        <ele>36.673333</ele>
        <time>2023-03-05T09:20:03.000Z</time>
      </trkpt>
      <trkpt lat="51.177468" lon="5.708414">
        <ele>36.659410</ele>
        <time>2023-03-05T09:20:04.000Z</time>
      </trkpt>
      <trkpt lat="51.177413" lon="5.708422">
        <ele>36.644751</ele>
        <time>2023-03-05T09:20:05.000Z</time>
      </trkpt>
      <trkpt lat="51.177356" lon="5.708429">
        <ele>36.629577</ele>
        <time>2023-03-05T09:20:06.000Z</time>
      </trkpt>
      <trkpt lat="51.177296" lon="5.708437">
        <ele>36.613596</ele>
        <time>2023-03-05T09:20:07.000Z</time>
      </trkpt>
      <trkpt lat="51.177235" lon="5.708442">
        <ele>36.597384</ele>
        <time>2023-03-05T09:20:08.000Z</time>
      </trkpt>
      <trkpt lat="51.177174" lon="5.708446">
        <ele>36.581179</ele>
        <time>2023-03-05T09:20:09.000Z</time>
      </trkpt>
      <trkpt lat="51.177115" lon="5.708451">
        <ele>36.565497</ele>
        <time>2023-03-05T09:20:10.000Z</time>
      </trkpt>
      <trkpt lat="51.177053" lon="5.708455">
        <ele>36.549028</ele>
        <time>2023-03-05T09:20:11.000Z</time>
      </trkpt>
      <trkpt lat="51.176991" lon="5.708460">
        <ele>36.532550</ele>
        <time>2023-03-05T09:20:12.000Z</time>
      </trkpt>
      <trkpt lat="51.176930" lon="5.708465">
        <ele>36.516338</ele>
        <time>2023-03-05T09:20:13.000Z</time>
      </trkpt>
      <trkpt lat="51.176870" lon="5.708471">
        <ele>36.500381</ele>
        <time>2023-03-05T09:20:14.000Z</time>
      </trkpt>
      <trkpt lat="51.176809" lon="5.708476">
        <ele>36.484169</ele>
        <time>2023-03-05T09:20:15.000Z</time>
      </trkpt>
      <trkpt lat="51.176744" lon="5.708481">
        <ele>36.485419</ele>
        <time>2023-03-05T09:20:16.000Z</time>
      </trkpt>
      <trkpt lat="51.176679" lon="5.708487">
        <ele>36.499181</ele>
        <time>2023-03-05T09:20:17.000Z</time>
      </trkpt>
      <trkpt lat="51.176617" lon="5.708493">
        <ele>36.512310</ele>
        <time>2023-03-05T09:20:18.000Z</time>
      </trkpt>
      <trkpt lat="51.176556" lon="5.708497">
        <ele>36.525214</ele>
        <time>2023-03-05T09:20:19.000Z</time>
      </trkpt>
      <trkpt lat="51.176493" lon="5.708499">
        <ele>36.538533</ele>
        <time>2023-03-05T09:20:20.000Z</time>
      </trkpt>
      <trkpt lat="51.176427" lon="5.708502">
        <ele>36.552489</ele>
        <time>2023-03-05T09:20:21.000Z</time>
      </trkpt>
      <trkpt lat="51.176363" lon="5.708505">
        <ele>36.566022</ele>
        <time>2023-03-05T09:20:22.000Z</time>
      </trkpt>
      <trkpt lat="51.176296" lon="5.708510">
        <ele>36.580200</ele>
        <time>2023-03-05T09:20:23.000Z</time>
      </trkpt>
      <trkpt lat="51.176229" lon="5.708514">
        <ele>36.594371</ele>
        <time>2023-03-05T09:20:24.000Z</time>
      </trkpt>
      <trkpt lat="51.176165" lon="5.708517">
        <ele>36.607905</ele>
        <time>2023-03-05T09:20:25.000Z</time>
      </trkpt>
      <trkpt lat="51.176102" lon="5.708521">
        <ele>36.621231</ele>
        <time>2023-03-05T09:20:26.000Z</time>
      </trkpt>
      <trkpt lat="51.176041" lon="5.708527">
        <ele>36.634149</ele>
        <time>2023-03-05T09:20:27.000Z</time>
      </trkpt>
      <trkpt lat="51.175980" lon="5.708533">
        <ele>36.647067</ele>
        <time>2023-03-05T09:20:28.000Z</time>
      </trkpt>
      <trkpt lat="51.175919" lon="5.708538">
        <ele>36.659978</ele>
        <time>2023-03-05T09:20:29.000Z</time>
      </trkpt>
      <trkpt lat="51.175857" lon="5.708543">
        <ele>36.673099</ele>
        <time>2023-03-05T09:20:30.000Z</time>
      </trkpt>
      <trkpt lat="51.175795" lon="5.708548">
        <ele>36.686221</ele>
        <time>2023-03-05T09:20:31.000Z</time>
      </trkpt>
      <trkpt lat="51.175730" lon="5.708554">
        <ele>36.699983</ele>
        <time>2023-03-05T09:20:32.000Z</time>
      </trkpt>
      <trkpt lat="51.175665" lon="5.708561">
        <ele>36.713753</ele>
        <time>2023-03-05T09:20:33.000Z</time>
      </trkpt>
      <trkpt lat="51.175600" lon="5.708568">
        <ele>36.727523</ele>
        <time>2023-03-05T09:20:34.000Z</time>
      </trkpt>
      <trkpt lat="51.175535" lon="5.708576">
        <ele>36.741303</ele>
        <time>2023-03-05T09:20:35.000Z</time>
      </trkpt>
      <trkpt lat="51.175473" lon="5.708583">
        <ele>36.754441</ele>
        <time>2023-03-05T09:20:36.000Z</time>
      </trkpt>
      <trkpt lat="51.175409" lon="5.708592">
        <ele>36.768021</ele>
        <time>2023-03-05T09:20:37.000Z</time>
      </trkpt>
      <trkpt lat="51.175344" lon="5.708599">
        <ele>36.781791</ele>
        <time>2023-03-05T09:20:38.000Z</time>
      </trkpt>
      <trkpt lat="51.175279" lon="5.708608">
        <ele>36.795581</ele>
        <time>2023-03-05T09:20:39.000Z</time>
      </trkpt>
      <trkpt lat="51.175214" lon="5.708618">
        <ele>36.809384</ele>
        <time>2023-03-05T09:20:40.000Z</time>
      </trkpt>
      <trkpt lat="51.175149" lon="5.708629">
        <ele>36.823200</ele>
        <time>2023-03-05T09:20:41.000Z</time>
      </trkpt>
      <trkpt lat="51.175087" lon="5.708641">
        <ele>36.836401</ele>
        <time>2023-03-05T09:20:42.000Z</time>
      </trkpt>
      <trkpt lat="51.175025" lon="5.708652">
        <ele>36.849587</ele>
        <time>2023-03-05T09:20:43.000Z</time>
      </trkpt>
      <trkpt lat="51.174957" lon="5.708664">
        <ele>36.864690</ele>
        <time>2023-03-05T09:20:44.000Z</time>
      </trkpt>
      <trkpt lat="51.174886" lon="5.708674">
        <ele>36.881209</ele>
        <time>2023-03-05T09:20:45.000Z</time>
      </trkpt>
      <trkpt lat="51.174815" lon="5.708681">
        <ele>36.897695</ele>
        <time>2023-03-05T09:20:46.000Z</time>
      </trkpt>
      <trkpt lat="51.174746" lon="5.708688">
        <ele>36.913718</ele>
        <time>2023-03-05T09:20:47.000Z</time>
      </trkpt>
      <trkpt lat="51.174680" lon="5.708695">
        <ele>36.929048</ele>
        <time>2023-03-05T09:20:48.000Z</time>
      </trkpt>
      <trkpt lat="51.174616" lon="5.708704">
        <ele>36.943937</ele>
        <time>2023-03-05T09:20:49.000Z</time>
      </trkpt>
      <trkpt lat="51.174551" lon="5.708713">
        <ele>36.959058</ele>
        <time>2023-03-05T09:20:50.000Z</time>
      </trkpt>
      <trkpt lat="51.174488" lon="5.708723">
        <ele>36.973731</ele>
        <time>2023-03-05T09:20:51.000Z</time>
      </trkpt>
      <trkpt lat="51.174422" lon="5.708732">
        <ele>36.989082</ele>
        <time>2023-03-05T09:20:52.000Z</time>
      </trkpt>
      <trkpt lat="51.174358" lon="5.708741">
        <ele>37.003972</ele>
        <time>2023-03-05T09:20:53.000Z</time>
      </trkpt>
      <trkpt lat="51.174295" lon="5.708749">
        <ele>37.018619</ele>
        <time>2023-03-05T09:20:54.000Z</time>
      </trkpt>
      <trkpt lat="51.174235" lon="5.708753">
        <ele>37.032536</ele>
        <time>2023-03-05T09:20:55.000Z</time>
      </trkpt>
      <trkpt lat="51.174174" lon="5.708756">
        <ele>37.046680</ele>
        <time>2023-03-05T09:20:56.000Z</time>
      </trkpt>
      <trkpt lat="51.174111" lon="5.708759">
        <ele>37.061287</ele>
        <time>2023-03-05T09:20:57.000Z</time>
      </trkpt>
      <trkpt lat="51.174047" lon="5.708762">
        <ele>37.076126</ele>
        <time>2023-03-05T09:20:58.000Z</time>
      </trkpt>
      <trkpt lat="51.173990" lon="5.708763">
        <ele>37.089337</ele>
        <time>2023-03-05T09:20:59.000Z</time>
      </trkpt>
      <trkpt lat="51.173932" lon="5.708764">
        <ele>37.102779</ele>
        <time>2023-03-05T09:21:00.000Z</time>
      </trkpt>
      <trkpt lat="51.173873" lon="5.708764">
        <ele>37.116453</ele>
        <time>2023-03-05T09:21:01.000Z</time>
      </trkpt>
      <trkpt lat="51.173811" lon="5.708763">
        <ele>37.130822</ele>
        <time>2023-03-05T09:21:02.000Z</time>
      </trkpt>
      <trkpt lat="51.173748" lon="5.708765">
        <ele>37.145426</ele>
        <time>2023-03-05T09:21:03.000Z</time>
      </trkpt>
      <trkpt lat="51.173683" lon="5.708768">
        <ele>37.160496</ele>
        <time>2023-03-05T09:21:04.000Z</time>
      </trkpt>
      <trkpt lat="51.173616" lon="5.708772">
        <ele>37.176034</ele>
        <time>2023-03-05T09:21:05.000Z</time>
      </trkpt>
      <trkpt lat="51.173546" lon="5.708775">
        <ele>37.192263</ele>
        <time>2023-03-05T09:21:06.000Z</time>
      </trkpt>
      <trkpt lat="51.173479" lon="5.708776">
        <ele>37.207791</ele>
        <time>2023-03-05T09:21:07.000Z</time>
      </trkpt>
      <trkpt lat="51.173416" lon="5.708778">
        <ele>37.222395</ele>
        <time>2023-03-05T09:21:08.000Z</time>
      </trkpt>
      <trkpt lat="51.173358" lon="5.708778">
        <ele>37.235836</ele>
        <time>2023-03-05T09:21:09.000Z</time>
      </trkpt>
      <trkpt lat="51.173295" lon="5.708776">
        <ele>37.250440</ele>
        <time>2023-03-05T09:21:10.000Z</time>
      </trkpt>
      <trkpt lat="51.173230" lon="5.708773">
        <ele>37.265510</ele>
        <time>2023-03-05T09:21:11.000Z</time>
      </trkpt>
      <trkpt lat="51.173166" lon="5.708772">
        <ele>37.258432</ele>
        <time>2023-03-05T09:21:12.000Z</time>
      </trkpt>
      <trkpt lat="51.173108" lon="5.708773">
        <ele>37.223713</ele>
        <time>2023-03-05T09:21:13.000Z</time>
      </trkpt>
      <trkpt lat="51.173051" lon="5.708777">
        <ele>37.189563</ele>
        <time>2023-03-05T09:21:14.000Z</time>
      </trkpt>
      <trkpt lat="51.172990" lon="5.708782">
        <ele>37.153002</ele>
        <time>2023-03-05T09:21:15.000Z</time>
      </trkpt>
      <trkpt lat="51.172926" lon="5.708784">
        <ele>37.114688</ele>
        <time>2023-03-05T09:21:16.000Z</time>
      </trkpt>
      <trkpt lat="51.172858" lon="5.708785">
        <ele>37.073984</ele>
        <time>2023-03-05T09:21:17.000Z</time>
      </trkpt>
      <trkpt lat="51.172792" lon="5.708784">
        <ele>37.034477</ele>
        <time>2023-03-05T09:21:18.000Z</time>
      </trkpt>
      <trkpt lat="51.172727" lon="5.708783">
        <ele>36.995569</ele>
        <time>2023-03-05T09:21:19.000Z</time>
      </trkpt>
      <trkpt lat="51.172665" lon="5.708784">
        <ele>36.958457</ele>
        <time>2023-03-05T09:21:20.000Z</time>
      </trkpt>
      <trkpt lat="51.172606" lon="5.708783">
        <ele>36.923140</ele>
        <time>2023-03-05T09:21:21.000Z</time>
      </trkpt>
      <trkpt lat="51.172547" lon="5.708781">
        <ele>36.887817</ele>
        <time>2023-03-05T09:21:22.000Z</time>
      </trkpt>
      <trkpt lat="51.172484" lon="5.708780">
        <ele>36.850106</ele>
        <time>2023-03-05T09:21:23.000Z</time>
      </trkpt>
      <trkpt lat="51.172423" lon="5.708781">
        <ele>36.813592</ele>
        <time>2023-03-05T09:21:24.000Z</time>
      </trkpt>
      <trkpt lat="51.172361" lon="5.708781">
        <ele>36.776482</ele>
        <time>2023-03-05T09:21:25.000Z</time>
      </trkpt>
      <trkpt lat="51.172293" lon="5.708779">
        <ele>36.735773</ele>
        <time>2023-03-05T09:21:26.000Z</time>
      </trkpt>
      <trkpt lat="51.172225" lon="5.708780">
        <ele>36.695070</ele>
        <time>2023-03-05T09:21:27.000Z</time>
      </trkpt>
      <trkpt lat="51.172157" lon="5.708782">
        <ele>36.654361</ele>
        <time>2023-03-05T09:21:28.000Z</time>
      </trkpt>
      <trkpt lat="51.172086" lon="5.708785">
        <ele>36.611848</ele>
        <time>2023-03-05T09:21:29.000Z</time>
      </trkpt>
      <trkpt lat="51.172015" lon="5.708790">
        <ele>36.569309</ele>
        <time>2023-03-05T09:21:30.000Z</time>
      </trkpt>
      <trkpt lat="51.171942" lon="5.708795">
        <ele>36.525575</ele>
        <time>2023-03-05T09:21:31.000Z</time>
      </trkpt>
      <trkpt lat="51.171866" lon="5.708798">
        <ele>36.480070</ele>
        <time>2023-03-05T09:21:32.000Z</time>
      </trkpt>
      <trkpt lat="51.171792" lon="5.708799">
        <ele>36.435775</ele>
        <time>2023-03-05T09:21:33.000Z</time>
      </trkpt>
      <trkpt lat="51.171719" lon="5.708800">
        <ele>36.392079</ele>
        <time>2023-03-05T09:21:34.000Z</time>
      </trkpt>
      <trkpt lat="51.171646" lon="5.708798">
        <ele>36.348378</ele>
        <time>2023-03-05T09:21:35.000Z</time>
      </trkpt>
      <trkpt lat="51.171574" lon="5.708796">
        <ele>36.305276</ele>
        <time>2023-03-05T09:21:36.000Z</time>
      </trkpt>
      <trkpt lat="51.171499" lon="5.708793">
        <ele>36.260370</ele>
        <time>2023-03-05T09:21:37.000Z</time>
      </trkpt>
      <trkpt lat="51.171426" lon="5.708793">
        <ele>36.216675</ele>
        <time>2023-03-05T09:21:38.000Z</time>
      </trkpt>
      <trkpt lat="51.171353" lon="5.708793">
        <ele>36.194303</ele>
        <time>2023-03-05T09:21:39.000Z</time>
      </trkpt>
      <trkpt lat="51.171280" lon="5.708792">
        <ele>36.188395</ele>
        <time>2023-03-05T09:21:40.000Z</time>
      </trkpt>
      <trkpt lat="51.171213" lon="5.708791">
        <ele>36.182972</ele>
        <time>2023-03-05T09:21:41.000Z</time>
      </trkpt>
      <trkpt lat="51.171143" lon="5.708789">
        <ele>36.177306</ele>
        <time>2023-03-05T09:21:42.000Z</time>
      </trkpt>
      <trkpt lat="51.171073" lon="5.708788">
        <ele>36.171640</ele>
        <time>2023-03-05T09:21:43.000Z</time>
      </trkpt>
      <trkpt lat="51.171005" lon="5.708788">
        <ele>36.166137</ele>
        <time>2023-03-05T09:21:44.000Z</time>
      </trkpt>
      <trkpt lat="51.170936" lon="5.708786">
        <ele>36.160551</ele>
        <time>2023-03-05T09:21:45.000Z</time>
      </trkpt>
      <trkpt lat="51.170867" lon="5.708781">
        <ele>36.154961</ele>
        <time>2023-03-05T09:21:46.000Z</time>
      </trkpt>
      <trkpt lat="51.170800" lon="5.708771">
        <ele>36.149515</ele>
        <time>2023-03-05T09:21:47.000Z</time>
      </trkpt>
      <trkpt lat="51.170733" lon="5.708754">
        <ele>36.144024</ele>
        <time>2023-03-05T09:21:48.000Z</time>
      </trkpt>
      <trkpt lat="51.170668" lon="5.708731">
        <ele>36.138635</ele>
        <time>2023-03-05T09:21:49.000Z</time>
      </trkpt>
      <trkpt lat="51.170603" lon="5.708706">
        <ele>36.133224</ele>
        <time>2023-03-05T09:21:50.000Z</time>
      </trkpt>
      <trkpt lat="51.170538" lon="5.708679">
        <ele>36.127787</ele>
        <time>2023-03-05T09:21:51.000Z</time>
      </trkpt>
      <trkpt lat="51.170473" lon="5.708652">
        <ele>36.122351</ele>
        <time>2023-03-05T09:21:52.000Z</time>
      </trkpt>
      <trkpt lat="51.170408" lon="5.708624">
        <ele>36.116902</ele>
        <time>2023-03-05T09:21:53.000Z</time>
      </trkpt>
      <trkpt lat="51.170340" lon="5.708595">
        <ele>36.111205</ele>
        <time>2023-03-05T09:21:54.000Z</time>
      </trkpt>
      <trkpt lat="51.170276" lon="5.708567">
        <ele>36.105834</ele>
        <time>2023-03-05T09:21:55.000Z</time>
      </trkpt>
      <trkpt lat="51.170213" lon="5.708538">
        <ele>36.100527</ele>
        <time>2023-03-05T09:21:56.000Z</time>
      </trkpt>
      <trkpt lat="51.170149" lon="5.708507">
        <ele>36.095114</ele>
        <time>2023-03-05T09:21:57.000Z</time>
      </trkpt>
      <trkpt lat="51.170085" lon="5.708476">
        <ele>36.089700</ele>
        <time>2023-03-05T09:21:58.000Z</time>
      </trkpt>
      <trkpt lat="51.170022" lon="5.708442">
        <ele>36.084317</ele>
        <time>2023-03-05T09:21:59.000Z</time>
      </trkpt>
      <trkpt lat="51.169958" lon="5.708405">
        <ele>36.078808</ele>
        <time>2023-03-05T09:22:00.000Z</time>
      </trkpt>
      <trkpt lat="51.169893" lon="5.708369">
        <ele>36.073239</ele>
        <time>2023-03-05T09:22:01.000Z</time>
      </trkpt>
      <trkpt lat="51.169833" lon="5.708330">
        <ele>36.067995</ele>
        <time>2023-03-05T09:22:02.000Z</time>
      </trkpt>
      <trkpt lat="51.169773" lon="5.708290">
        <ele>36.062732</ele>
        <time>2023-03-05T09:22:03.000Z</time>
      </trkpt>
      <trkpt lat="51.169716" lon="5.708253">
        <ele>36.057751</ele>
        <time>2023-03-05T09:22:04.000Z</time>
      </trkpt>
      <trkpt lat="51.169655" lon="5.708215">
        <ele>36.052451</ele>
        <time>2023-03-05T09:22:05.000Z</time>
      </trkpt>
      <trkpt lat="51.169596" lon="5.708176">
        <ele>36.059383</ele>
        <time>2023-03-05T09:22:06.000Z</time>
      </trkpt>
      <trkpt lat="51.169534" lon="5.708135">
        <ele>36.067693</ele>
        <time>2023-03-05T09:22:07.000Z</time>
      </trkpt>
      <trkpt lat="51.169472" lon="5.708094">
        <ele>36.076002</ele>
        <time>2023-03-05T09:22:08.000Z</time>
      </trkpt>
      <trkpt lat="51.169411" lon="5.708052">
        <ele>36.084228</ele>
        <time>2023-03-05T09:22:09.000Z</time>
      </trkpt>
      <trkpt lat="51.169349" lon="5.708013">
        <ele>36.092480</ele>
        <time>2023-03-05T09:22:10.000Z</time>
      </trkpt>
      <trkpt lat="51.169286" lon="5.707975">
        <ele>36.100819</ele>
        <time>2023-03-05T09:22:11.000Z</time>
      </trkpt>
      <trkpt lat="51.169224" lon="5.707938">
        <ele>36.109014</ele>
        <time>2023-03-05T09:22:12.000Z</time>
      </trkpt>
      <trkpt lat="51.169163" lon="5.707899">
        <ele>36.117151</ele>
        <time>2023-03-05T09:22:13.000Z</time>
      </trkpt>
      <trkpt lat="51.169100" lon="5.707860">
        <ele>36.125518</ele>
        <time>2023-03-05T09:22:14.000Z</time>
      </trkpt>
      <trkpt lat="51.169036" lon="5.707825">
        <ele>36.133894</ele>
        <time>2023-03-05T09:22:15.000Z</time>
      </trkpt>
      <trkpt lat="51.168969" lon="5.707801">
        <ele>36.142396</ele>
        <time>2023-03-05T09:22:16.000Z</time>
      </trkpt>
      <trkpt lat="51.168901" lon="5.707793">
        <ele>36.150837</ele>
        <time>2023-03-05T09:22:17.000Z</time>
      </trkpt>
      <trkpt lat="51.168839" lon="5.707808">
        <ele>36.158601</ele>
        <time>2023-03-05T09:22:18.000Z</time>
      </trkpt>
      <trkpt lat="51.168780" lon="5.707842">
        <ele>36.166368</ele>
        <time>2023-03-05T09:22:19.000Z</time>
      </trkpt>
      <trkpt lat="51.168726" lon="5.707891">
        <ele>36.174060</ele>
        <time>2023-03-05T09:22:20.000Z</time>
      </trkpt>
      <trkpt lat="51.168674" lon="5.707950">
        <ele>36.181961</ele>
        <time>2023-03-05T09:22:21.000Z</time>
      </trkpt>
      <trkpt lat="51.168624" lon="5.708015">
        <ele>36.189947</ele>
        <time>2023-03-05T09:22:22.000Z</time>
      </trkpt>
      <trkpt lat="51.168573" lon="5.708083">
        <ele>36.198177</ele>
        <time>2023-03-05T09:22:23.000Z</time>
      </trkpt>
      <trkpt lat="51.168522" lon="5.708152">
        <ele>36.206457</ele>
        <time>2023-03-05T09:22:24.000Z</time>
      </trkpt>
      <trkpt lat="51.168472" lon="5.708224">
        <ele>36.214797</ele>
        <time>2023-03-05T09:22:25.000Z</time>
      </trkpt>
      <trkpt lat="51.168420" lon="5.708298">
        <ele>36.223426</ele>
        <time>2023-03-05T09:22:26.000Z</time>
      </trkpt>
      <trkpt lat="51.168369" lon="5.708369">
        <ele>36.231807</ele>
        <time>2023-03-05T09:22:27.000Z</time>
      </trkpt>
      <trkpt lat="51.168317" lon="5.708438">
        <ele>36.240182</ele>
        <time>2023-03-05T09:22:28.000Z</time>
      </trkpt>
      <trkpt lat="51.168258" lon="5.708500">
        <ele>36.248930</ele>
        <time>2023-03-05T09:22:29.000Z</time>
      </trkpt>
      <trkpt lat="51.168200" lon="5.708555">
        <ele>36.257284</ele>
        <time>2023-03-05T09:22:30.000Z</time>
      </trkpt>
      <trkpt lat="51.168138" lon="5.708604">
        <ele>36.265851</ele>
        <time>2023-03-05T09:22:31.000Z</time>
      </trkpt>
      <trkpt lat="51.168074" lon="5.708645">
        <ele>36.274390</ele>
        <time>2023-03-05T09:22:32.000Z</time>
      </trkpt>
      <trkpt lat="51.168012" lon="5.708681">
        <ele>36.313788</ele>
        <time>2023-03-05T09:22:33.000Z</time>
      </trkpt>
      <trkpt lat="51.167950" lon="5.708717">
        <ele>36.354619</ele>
        <time>2023-03-05T09:22:34.000Z</time>
      </trkpt>
      <trkpt lat="51.167887" lon="5.708753">
        <ele>36.396031</ele>
        <time>2023-03-05T09:22:35.000Z</time>
      </trkpt>
      <trkpt lat="51.167824" lon="5.708788">
        <ele>36.437314</ele>
        <time>2023-03-05T09:22:36.000Z</time>
      </trkpt>
      <trkpt lat="51.167763" lon="5.708824">
        <ele>36.477564</ele>
        <time>2023-03-05T09:22:37.000Z</time>
      </trkpt>
      <trkpt lat="51.167702" lon="5.708862">
        <ele>36.518089</ele>
        <time>2023-03-05T09:22:38.000Z</time>
      </trkpt>
      <trkpt lat="51.167639" lon="5.708897">
        <ele>36.559373</ele>
        <time>2023-03-05T09:22:39.000Z</time>
      </trkpt>
      <trkpt lat="51.167576" lon="5.708931">
        <ele>36.600530</ele>
        <time>2023-03-05T09:22:40.000Z</time>
      </trkpt>
      <trkpt lat="51.167515" lon="5.708964">
        <ele>36.640390</ele>
        <time>2023-03-05T09:22:41.000Z</time>
      </trkpt>
      <trkpt lat="51.167454" lon="5.708998">
        <ele>36.680377</ele>
        <time>2023-03-05T09:22:42.000Z</time>
      </trkpt>
      <trkpt lat="51.167390" lon="5.709030">
        <ele>36.721882</ele>
        <time>2023-03-05T09:22:43.000Z</time>
      </trkpt>
      <trkpt lat="51.167328" lon="5.709060">
        <ele>36.761976</ele>
        <time>2023-03-05T09:22:44.000Z</time>
      </trkpt>
      <trkpt lat="51.167267" lon="5.709092">
        <ele>36.801714</ele>
        <time>2023-03-05T09:22:45.000Z</time>
      </trkpt>
      <trkpt lat="51.167208" lon="5.709129">
        <ele>36.840945</ele>
        <time>2023-03-05T09:22:46.000Z</time>
      </trkpt>
      <trkpt lat="51.167149" lon="5.709170">
        <ele>36.880771</ele>
        <time>2023-03-05T09:22:47.000Z</time>
      </trkpt>
      <trkpt lat="51.167093" lon="5.709221">
        <ele>36.920677</ele>
        <time>2023-03-05T09:22:48.000Z</time>
      </trkpt>
      <trkpt lat="51.167045" lon="5.709283">
        <ele>36.958901</ele>
        <time>2023-03-05T09:22:49.000Z</time>
      </trkpt>
      <trkpt lat="51.167003" lon="5.709358">
        <ele>36.997919</ele>
        <time>2023-03-05T09:22:50.000Z</time>
      </trkpt>
      <trkpt lat="51.166967" lon="5.709445">
        <ele>37.038366</ele>
        <time>2023-03-05T09:22:51.000Z</time>
      </trkpt>
      <trkpt lat="51.166937" lon="5.709538">
        <ele>37.078948</ele>
        <time>2023-03-05T09:22:52.000Z</time>
      </trkpt>
      <trkpt lat="51.166913" lon="5.709636">
        <ele>37.119772</ele>
        <time>2023-03-05T09:22:53.000Z</time>
      </trkpt>
      <trkpt lat="51.166888" lon="5.709738">
        <ele>37.162268</ele>
        <time>2023-03-05T09:22:54.000Z</time>
      </trkpt>
      <trkpt lat="51.166859" lon="5.709837">
        <ele>37.204668</ele>
        <time>2023-03-05T09:22:55.000Z</time>
      </trkpt>
      <trkpt lat="51.166828" lon="5.709933">
        <ele>37.246568</ele>
        <time>2023-03-05T09:22:56.000Z</time>
      </trkpt>
      <trkpt lat="51.166795" lon="5.710026">
        <ele>37.288032</ele>
        <time>2023-03-05T09:22:57.000Z</time>
      </trkpt>
      <trkpt lat="51.166761" lon="5.710119">
        <ele>37.329805</ele>
        <time>2023-03-05T09:22:58.000Z</time>
      </trkpt>
      <trkpt lat="51.166728" lon="5.710210">
        <ele>37.370595</ele>
        <time>2023-03-05T09:22:59.000Z</time>
      </trkpt>
      <trkpt lat="51.166693" lon="5.710304">
        <ele>37.375404</ele>
        <time>2023-03-05T09:23:00.000Z</time>
      </trkpt>
      <trkpt lat="51.166660" lon="5.710399">
        <ele>37.354743</ele>
        <time>2023-03-05T09:23:01.000Z</time>
      </trkpt>
      <trkpt lat="51.166630" lon="5.710491">
        <ele>37.335015</ele>
        <time>2023-03-05T09:23:02.000Z</time>
      </trkpt>
      <trkpt lat="51.166604" lon="5.710589">
        <ele>37.314772</ele>
        <time>2023-03-05T09:23:03.000Z</time>
      </trkpt>
      <trkpt lat="51.166581" lon="5.710689">
        <ele>37.294508</ele>
        <time>2023-03-05T09:23:04.000Z</time>
      </trkpt>
      <trkpt lat="51.166561" lon="5.710788">
        <ele>37.274721</ele>
        <time>2023-03-05T09:23:05.000Z</time>
      </trkpt>
      <trkpt lat="51.166544" lon="5.710891">
        <ele>37.254459</ele>
        <time>2023-03-05T09:23:06.000Z</time>
      </trkpt>
      <trkpt lat="51.166531" lon="5.710996">
        <ele>37.234097</ele>
        <time>2023-03-05T09:23:07.000Z</time>
      </trkpt>
      <trkpt lat="51.166517" lon="5.711105">
        <ele>37.212930</ele>
        <time>2023-03-05T09:23:08.000Z</time>
      </trkpt>
      <trkpt lat="51.166504" lon="5.711214">
        <ele>37.191822</ele>
        <time>2023-03-05T09:23:09.000Z</time>
      </trkpt>
      <trkpt lat="51.166491" lon="5.711322">
        <ele>37.170901</ele>
        <time>2023-03-05T09:23:10.000Z</time>
      </trkpt>
      <trkpt lat="51.166478" lon="5.711430">
        <ele>37.149980</ele>
        <time>2023-03-05T09:23:11.000Z</time>
      </trkpt>
      <trkpt lat="51.166466" lon="5.711537">
        <ele>37.129301</ele>
        <time>2023-03-05T09:23:12.000Z</time>
      </trkpt>
      <trkpt lat="51.166455" lon="5.711642">
        <ele>37.109048</ele>
        <time>2023-03-05T09:23:13.000Z</time>
      </trkpt>
      <trkpt lat="51.166443" lon="5.711745">
        <ele>37.089118</ele>
        <time>2023-03-05T09:23:14.000Z</time>
      </trkpt>
      <trkpt lat="51.166434" lon="5.711846">
        <ele>37.069711</ele>
        <time>2023-03-05T09:23:15.000Z</time>
      </trkpt>
      <trkpt lat="51.166429" lon="5.711946">
        <ele>37.050626</ele>
        <time>2023-03-05T09:23:16.000Z</time>
      </trkpt>
      <trkpt lat="51.166425" lon="5.712045">
        <ele>37.031753</ele>
        <time>2023-03-05T09:23:17.000Z</time>
      </trkpt>
      <trkpt lat="51.166426" lon="5.712142">
        <ele>37.013297</ele>
        <time>2023-03-05T09:23:18.000Z</time>
      </trkpt>
      <trkpt lat="51.166432" lon="5.712240">
        <ele>36.994564</ele>
        <time>2023-03-05T09:23:19.000Z</time>
      </trkpt>
      <trkpt lat="51.166440" lon="5.712336">
        <ele>36.976140</ele>
        <time>2023-03-05T09:23:20.000Z</time>
      </trkpt>
      <trkpt lat="51.166450" lon="5.712429">
        <ele>36.958190</ele>
        <time>2023-03-05T09:23:21.000Z</time>
      </trkpt>
      <trkpt lat="51.166461" lon="5.712524">
        <ele>36.939811</ele>
        <time>2023-03-05T09:23:22.000Z</time>
      </trkpt>
      <trkpt lat="51.166466" lon="5.712618">
        <ele>36.921864</ele>
        <time>2023-03-05T09:23:23.000Z</time>
      </trkpt>
      <trkpt lat="51.166461" lon="5.712707">
        <ele>36.904865</ele>
        <time>2023-03-05T09:23:24.000Z</time>
      </trkpt>
      <trkpt lat="51.166444" lon="5.712785">
        <ele>36.889155</ele>
        <time>2023-03-05T09:23:25.000Z</time>
      </trkpt>
      <trkpt lat="51.166411" lon="5.712842">
        <ele>36.874396</ele>
        <time>2023-03-05T09:23:26.000Z</time>
      </trkpt>
      <trkpt lat="51.166366" lon="5.712873">
        <ele>36.859524</ele>
        <time>2023-03-05T09:23:27.000Z</time>
      </trkpt>
      <trkpt lat="51.166314" lon="5.712886">
        <ele>36.843555</ele>
        <time>2023-03-05T09:23:28.000Z</time>
      </trkpt>
      <trkpt lat="51.166256" lon="5.712886">
        <ele>36.837347</ele>
        <time>2023-03-05T09:23:29.000Z</time>
      </trkpt>
      <trkpt lat="51.166194" lon="5.712880">
        <ele>36.831805</ele>
        <time>2023-03-05T09:23:30.000Z</time>
      </trkpt>
      <trkpt lat="51.166129" lon="5.712871">
        <ele>36.825985</ele>
        <time>2023-03-05T09:23:31.000Z</time>
      </trkpt>
      <trkpt lat="51.166063" lon="5.712856">
        <ele>36.820037</ele>
        <time>2023-03-05T09:23:32.000Z</time>
      </trkpt>
      <trkpt lat="51.165996" lon="5.712838">
        <ele>36.813975</ele>
        <time>2023-03-05T09:23:33.000Z</time>
      </trkpt>
      <trkpt lat="51.165932" lon="5.712821">
        <ele>36.808187</ele>
        <time>2023-03-05T09:23:34.000Z</time>
      </trkpt>
      <trkpt lat="51.165868" lon="5.712808">
        <ele>36.802431</ele>
        <time>2023-03-05T09:23:35.000Z</time>
      </trkpt>
      <trkpt lat="51.165805" lon="5.712795">
        <ele>36.796764</ele>
        <time>2023-03-05T09:23:36.000Z</time>
      </trkpt>
      <trkpt lat="51.165737" lon="5.712783">
        <ele>36.790660</ele>
        <time>2023-03-05T09:23:37.000Z</time>
      </trkpt>
      <trkpt lat="51.165671" lon="5.712771">
        <ele>36.784734</ele>
        <time>2023-03-05T09:23:38.000Z</time>
      </trkpt>
      <trkpt lat="51.165603" lon="5.712760">
        <ele>36.778636</ele>
        <time>2023-03-05T09:23:39.000Z</time>
      </trkpt>
      <trkpt lat="51.165537" lon="5.712747">
        <ele>36.772703</ele>
        <time>2023-03-05T09:23:40.000Z</time>
      </trkpt>
      <trkpt lat="51.165474" lon="5.712734">
        <ele>36.767036</ele>
        <time>2023-03-05T09:23:41.000Z</time>
      </trkpt>
      <trkpt lat="51.165413" lon="5.712722">
        <ele>36.761553</ele>
        <time>2023-03-05T09:23:42.000Z</time>
      </trkpt>
      <trkpt lat="51.165350" lon="5.712707">
        <ele>36.755870</ele>
        <time>2023-03-05T09:23:43.000Z</time>
      </trkpt>
      <trkpt lat="51.165285" lon="5.712694">
        <ele>36.750025</ele>
        <time>2023-03-05T09:23:44.000Z</time>
      </trkpt>
      <trkpt lat="51.165222" lon="5.712681">
        <ele>36.744358</ele>
        <time>2023-03-05T09:23:45.000Z</time>
      </trkpt>
      <trkpt lat="51.165158" lon="5.712669">
        <ele>36.738609</ele>
        <time>2023-03-05T09:23:46.000Z</time>
      </trkpt>
      <trkpt lat="51.165094" lon="5.712659">
        <ele>36.732872</ele>
        <time>2023-03-05T09:23:47.000Z</time>
      </trkpt>
      <trkpt lat="51.165029" lon="5.712649">
        <ele>36.727046</ele>
        <time>2023-03-05T09:23:48.000Z</time>
      </trkpt>
      <trkpt lat="51.164962" lon="5.712640">
        <ele>36.721048</ele>
        <time>2023-03-05T09:23:49.000Z</time>
      </trkpt>
      <trkpt lat="51.164895" lon="5.712632">
        <ele>36.715054</ele>
        <time>2023-03-05T09:23:50.000Z</time>
      </trkpt>
      <trkpt lat="51.164831" lon="5.712624">
        <ele>36.709326</ele>
        <time>2023-03-05T09:23:51.000Z</time>
      </trkpt>
      <trkpt lat="51.164766" lon="5.712614">
        <ele>36.703500</ele>
        <time>2023-03-05T09:23:52.000Z</time>
      </trkpt>
      <trkpt lat="51.164701" lon="5.712603">
        <ele>36.697669</ele>
        <time>2023-03-05T09:23:53.000Z</time>
      </trkpt>
      <trkpt lat="51.164634" lon="5.712592">
        <ele>36.691660</ele>
        <time>2023-03-05T09:23:54.000Z</time>
      </trkpt>
      <trkpt lat="51.164567" lon="5.712583">
        <ele>36.685661</ele>
        <time>2023-03-05T09:23:55.000Z</time>
      </trkpt>
      <trkpt lat="51.164503" lon="5.712574">
        <ele>36.682976</ele>
        <time>2023-03-05T09:23:56.000Z</time>
      </trkpt>
      <trkpt lat="51.164438" lon="5.712564">
        <ele>36.687614</ele>
        <time>2023-03-05T09:23:57.000Z</time>
      </trkpt>
      <trkpt lat="51.164373" lon="5.712555">
        <ele>36.692249</ele>
        <time>2023-03-05T09:23:58.000Z</time>
      </trkpt>
      <trkpt lat="51.164308" lon="5.712546">
        <ele>36.696883</ele>
        <time>2023-03-05T09:23:59.000Z</time>
      </trkpt>
      <trkpt lat="51.164243" lon="5.712540">
        <ele>36.701508</ele>
        <time>2023-03-05T09:24:00.000Z</time>
      </trkpt>
      <trkpt lat="51.164179" lon="5.712534">
        <ele>36.706062</ele>
        <time>2023-03-05T09:24:01.000Z</time>
      </trkpt>
      <trkpt lat="51.164113" lon="5.712527">
        <ele>36.710760</ele>
        <time>2023-03-05T09:24:02.000Z</time>
      </trkpt>
      <trkpt lat="51.164048" lon="5.712517">
        <ele>36.715398</ele>
        <time>2023-03-05T09:24:03.000Z</time>
      </trkpt>
      <trkpt lat="51.163984" lon="5.712507">
        <ele>36.719966</ele>
        <time>2023-03-05T09:24:04.000Z</time>
      </trkpt>
      <trkpt lat="51.163920" lon="5.712497">
        <ele>36.724534</ele>
        <time>2023-03-05T09:24:05.000Z</time>
      </trkpt>
      <trkpt lat="51.163855" lon="5.712489">
        <ele>36.729164</ele>
        <time>2023-03-05T09:24:06.000Z</time>
      </trkpt>
      <trkpt lat="51.163787" lon="5.712483">
        <ele>36.734002</ele>
        <time>2023-03-05T09:24:07.000Z</time>
      </trkpt>
      <trkpt lat="51.163721" lon="5.712477">
        <ele>36.738697</ele>
        <time>2023-03-05T09:24:08.000Z</time>
      </trkpt>
      <trkpt lat="51.163656" lon="5.712474">
        <ele>36.743316</ele>
        <time>2023-03-05T09:24:09.000Z</time>
      </trkpt>
      <trkpt lat="51.163588" lon="5.712475">
        <ele>36.748146</ele>
        <time>2023-03-05T09:24:10.000Z</time>
      </trkpt>
      <trkpt lat="51.163523" lon="5.712482">
        <ele>36.752774</ele>
        <time>2023-03-05T09:24:11.000Z</time>
      </trkpt>
      <trkpt lat="51.163458" lon="5.712493">
        <ele>36.757417</ele>
        <time>2023-03-05T09:24:12.000Z</time>
      </trkpt>
      <trkpt lat="51.163393" lon="5.712508">
        <ele>36.762082</ele>
        <time>2023-03-05T09:24:13.000Z</time>
      </trkpt>
      <trkpt lat="51.163328" lon="5.712524">
        <ele>36.766753</ele>
        <time>2023-03-05T09:24:14.000Z</time>
      </trkpt>
      <trkpt lat="51.163263" lon="5.712541">
        <ele>36.771432</ele>
        <time>2023-03-05T09:24:15.000Z</time>
      </trkpt>
      <trkpt lat="51.163198" lon="5.712555">
        <ele>36.776091</ele>
        <time>2023-03-05T09:24:16.000Z</time>
      </trkpt>
      <trkpt lat="51.163135" lon="5.712565">
        <ele>36.780588</ele>
        <time>2023-03-05T09:24:17.000Z</time>
      </trkpt>
      <trkpt lat="51.163075" lon="5.712570">
        <ele>36.784855</ele>
        <time>2023-03-05T09:24:18.000Z</time>
      </trkpt>
      <trkpt lat="51.163012" lon="5.712572">
        <ele>36.789331</ele>
        <time>2023-03-05T09:24:19.000Z</time>
      </trkpt>
      <trkpt lat="51.162947" lon="5.712570">
        <ele>36.793949</ele>
        <time>2023-03-05T09:24:20.000Z</time>
      </trkpt>
      <trkpt lat="51.162882" lon="5.712563">
        <ele>36.798576</ele>
        <time>2023-03-05T09:24:21.000Z</time>
      </trkpt>
      <trkpt lat="51.162819" lon="5.712555">
        <ele>36.803065</ele>
        <time>2023-03-05T09:24:22.000Z</time>
      </trkpt>
      <trkpt lat="51.162758" lon="5.712544">
        <ele>36.807426</ele>
        <time>2023-03-05T09:24:23.000Z</time>
      </trkpt>
      <trkpt lat="51.162695" lon="5.712531">
        <ele>36.807069</ele>
        <time>2023-03-05T09:24:24.000Z</time>
      </trkpt>
      <trkpt lat="51.162633" lon="5.712516">
        <ele>36.803036</ele>
        <time>2023-03-05T09:24:25.000Z</time>
      </trkpt>
      <trkpt lat="51.162572" lon="5.712498">
        <ele>36.799047</ele>
        <time>2023-03-05T09:24:26.000Z</time>
      </trkpt>
      <trkpt lat="51.162510" lon="5.712476">
        <ele>36.794962</ele>
        <time>2023-03-05T09:24:27.000Z</time>
      </trkpt>
      <trkpt lat="51.162449" lon="5.712453">
        <ele>36.790930</ele>
        <time>2023-03-05T09:24:28.000Z</time>
      </trkpt>
      <trkpt lat="51.162388" lon="5.712427">
        <ele>36.786869</ele>
        <time>2023-03-05T09:24:29.000Z</time>
      </trkpt>
      <trkpt lat="51.162327" lon="5.712398">
        <ele>36.782776</ele>
        <time>2023-03-05T09:24:30.000Z</time>
      </trkpt>
      <trkpt lat="51.162269" lon="5.712369">
        <ele>36.778866</ele>
        <time>2023-03-05T09:24:31.000Z</time>
      </trkpt>
      <trkpt lat="51.162211" lon="5.712341">
        <ele>36.774969</ele>
        <time>2023-03-05T09:24:32.000Z</time>
      </trkpt>
      <trkpt lat="51.162152" lon="5.712310">
        <ele>36.770974</ele>
        <time>2023-03-05T09:24:33.000Z</time>
      </trkpt>
      <trkpt lat="51.162091" lon="5.712278">
        <ele>36.766844</ele>
        <time>2023-03-05T09:24:34.000Z</time>
      </trkpt>
      <trkpt lat="51.162030" lon="5.712243">
        <ele>36.762674</ele>
        <time>2023-03-05T09:24:35.000Z</time>
      </trkpt>
      <trkpt lat="51.161969" lon="5.712203">
        <ele>36.758432</ele>
        <time>2023-03-05T09:24:36.000Z</time>
      </trkpt>
      <trkpt lat="51.161910" lon="5.712162">
        <ele>36.754293</ele>
        <time>2023-03-05T09:24:37.000Z</time>
      </trkpt>
      <trkpt lat="51.161850" lon="5.712121">
        <ele>36.750095</ele>
        <time>2023-03-05T09:24:38.000Z</time>
      </trkpt>
      <trkpt lat="51.161791" lon="5.712078">
        <ele>36.745923</ele>
        <time>2023-03-05T09:24:39.000Z</time>
      </trkpt>
      <trkpt lat="51.161734" lon="5.712035">
        <ele>36.741867</ele>
        <time>2023-03-05T09:24:40.000Z</time>
      </trkpt>
      <trkpt lat="51.161674" lon="5.711988">
        <ele>36.737568</ele>
        <time>2023-03-05T09:24:41.000Z</time>
      </trkpt>
      <trkpt lat="51.161616" lon="5.711942">
        <ele>36.733402</ele>
        <time>2023-03-05T09:24:42.000Z</time>
      </trkpt>
      <trkpt lat="51.161557" lon="5.711896">
        <ele>36.729178</ele>
        <time>2023-03-05T09:24:43.000Z</time>
      </trkpt>
      <trkpt lat="51.161495" lon="5.711850">
        <ele>36.724780</ele>
        <time>2023-03-05T09:24:44.000Z</time>
      </trkpt>
      <trkpt lat="51.161437" lon="5.711805">
        <ele>36.720632</ele>
        <time>2023-03-05T09:24:45.000Z</time>
      </trkpt>
      <trkpt lat="51.161374" lon="5.711758">
        <ele>36.716159</ele>
        <time>2023-03-05T09:24:46.000Z</time>
      </trkpt>
      <trkpt lat="51.161315" lon="5.711711">
        <ele>36.711917</ele>
        <time>2023-03-05T09:24:47.000Z</time>
      </trkpt>
      <trkpt lat="51.161257" lon="5.711666">
        <ele>36.707769</ele>
        <time>2023-03-05T09:24:48.000Z</time>
      </trkpt>
      <trkpt lat="51.161200" lon="5.711623">
        <ele>36.703713</ele>
        <time>2023-03-05T09:24:49.000Z</time>
      </trkpt>
      <trkpt lat="51.161143" lon="5.711579">
        <ele>36.699640</ele>
        <time>2023-03-05T09:24:50.000Z</time>
      </trkpt>
      <trkpt lat="51.161086" lon="5.711535">
        <ele>36.695567</ele>
        <time>2023-03-05T09:24:51.000Z</time>
      </trkpt>
      <trkpt lat="51.161029" lon="5.711491">
        <ele>36.687838</ele>
        <time>2023-03-05T09:24:52.000Z</time>
      </trkpt>
      <trkpt lat="51.160971" lon="5.711447">
        <ele>36.676874</ele>
        <time>2023-03-05T09:24:53.000Z</time>
      </trkpt>
      <trkpt lat="51.160914" lon="5.711404">
        <ele>36.666110</ele>
        <time>2023-03-05T09:24:54.000Z</time>
      </trkpt>
      <trkpt lat="51.160854" lon="5.711363">
        <ele>36.654967</ele>
        <time>2023-03-05T09:24:55.000Z</time>
      </trkpt>
      <trkpt lat="51.160796" lon="5.711323">
        <ele>36.644180</ele>
        <time>2023-03-05T09:24:56.000Z</time>
      </trkpt>
      <trkpt lat="51.160741" lon="5.711284">
        <ele>36.633905</ele>
        <time>2023-03-05T09:24:57.000Z</time>
      </trkpt>
      <trkpt lat="51.160687" lon="5.711244">
        <ele>36.623741</ele>
        <time>2023-03-05T09:24:58.000Z</time>
      </trkpt>
      <trkpt lat="51.160634" lon="5.711205">
        <ele>36.613777</ele>
        <time>2023-03-05T09:24:59.000Z</time>
      </trkpt>
      <trkpt lat="51.160581" lon="5.711168">
        <ele>36.603900</ele>
        <time>2023-03-05T09:25:00.000Z</time>
      </trkpt>
      <trkpt lat="51.160527" lon="5.711130">
        <ele>36.593825</ele>
        <time>2023-03-05T09:25:01.000Z</time>
      </trkpt>
      <trkpt lat="51.160474" lon="5.711090">
        <ele>36.583815</ele>
        <time>2023-03-05T09:25:02.000Z</time>
      </trkpt>
      <trkpt lat="51.160418" lon="5.711049">
        <ele>36.573296</ele>
        <time>2023-03-05T09:25:03.000Z</time>
      </trkpt>
      <trkpt lat="51.160364" lon="5.711006">
        <ele>36.562993</ele>
        <time>2023-03-05T09:25:04.000Z</time>
      </trkpt>
      <trkpt lat="51.160310" lon="5.710961">
        <ele>36.552592</ele>
        <time>2023-03-05T09:25:05.000Z</time>
      </trkpt>
      <trkpt lat="51.160259" lon="5.710915">
        <ele>36.542590</ele>
        <time>2023-03-05T09:25:06.000Z</time>
      </trkpt>
      <trkpt lat="51.160209" lon="5.710872">
        <ele>36.532893</ele>
        <time>2023-03-05T09:25:07.000Z</time>
      </trkpt>
      <trkpt lat="51.160157" lon="5.710831">
        <ele>36.522990</ele>
        <time>2023-03-05T09:25:08.000Z</time>
      </trkpt>
      <trkpt lat="51.160104" lon="5.710793">
        <ele>36.513070</ele>
        <time>2023-03-05T09:25:09.000Z</time>
      </trkpt>
      <trkpt lat="51.160048" lon="5.710763">
        <ele>36.502986</ele>
        <time>2023-03-05T09:25:10.000Z</time>
      </trkpt>
      <trkpt lat="51.159993" lon="5.710732">
        <ele>36.493028</ele>
        <time>2023-03-05T09:25:11.000Z</time>
      </trkpt>
      <trkpt lat="51.159942" lon="5.710688">
        <ele>36.483130</ele>
        <time>2023-03-05T09:25:12.000Z</time>
      </trkpt>
      <trkpt lat="51.159902" lon="5.710623">
        <ele>36.473381</ele>
        <time>2023-03-05T09:25:13.000Z</time>
      </trkpt>
      <trkpt lat="51.159873" lon="5.710544">
        <ele>36.463581</ele>
        <time>2023-03-05T09:25:14.000Z</time>
      </trkpt>
      <trkpt lat="51.159849" lon="5.710456">
        <ele>36.453308</ele>
        <time>2023-03-05T09:25:15.000Z</time>
      </trkpt>
      <trkpt lat="51.159828" lon="5.710360">
        <ele>36.442423</ele>
        <time>2023-03-05T09:25:16.000Z</time>
      </trkpt>
      <trkpt lat="51.159809" lon="5.710259">
        <ele>36.431135</ele>
        <time>2023-03-05T09:25:17.000Z</time>
      </trkpt>
      <trkpt lat="51.159790" lon="5.710163">
        <ele>36.420358</ele>
        <time>2023-03-05T09:25:18.000Z</time>
      </trkpt>
      <trkpt lat="51.159771" lon="5.710068">
        <ele>36.409683</ele>
        <time>2023-03-05T09:25:19.000Z</time>
      </trkpt>
      <trkpt lat="51.159749" lon="5.709973">
        <ele>36.398841</ele>
        <time>2023-03-05T09:25:20.000Z</time>
      </trkpt>
      <trkpt lat="51.159729" lon="5.709878">
        <ele>36.388113</ele>
        <time>2023-03-05T09:25:21.000Z</time>
      </trkpt>
      <trkpt lat="51.159708" lon="5.709785">
        <ele>36.397725</ele>
        <time>2023-03-05T09:25:22.000Z</time>
      </trkpt>
      <trkpt lat="51.159689" lon="5.709688">
        <ele>36.410877</ele>
        <time>2023-03-05T09:25:23.000Z</time>
      </trkpt>
      <trkpt lat="51.159667" lon="5.709594">
        <ele>36.423863</ele>
        <time>2023-03-05T09:25:24.000Z</time>
      </trkpt>
      <trkpt lat="51.159642" lon="5.709502">
        <ele>36.436839</ele>
        <time>2023-03-05T09:25:25.000Z</time>
      </trkpt>
      <trkpt lat="51.159622" lon="5.709412">
        <ele>36.449197</ele>
        <time>2023-03-05T09:25:26.000Z</time>
      </trkpt>
      <trkpt lat="51.159603" lon="5.709319">
        <ele>36.461856</ele>
        <time>2023-03-05T09:25:27.000Z</time>
      </trkpt>
      <trkpt lat="51.159582" lon="5.709226">
        <ele>36.474649</ele>
        <time>2023-03-05T09:25:28.000Z</time>
      </trkpt>
      <trkpt lat="51.159561" lon="5.709135">
        <ele>36.487198</ele>
        <time>2023-03-05T09:25:29.000Z</time>
      </trkpt>
      <trkpt lat="51.159544" lon="5.709051">
        <ele>36.498622</ele>
        <time>2023-03-05T09:25:30.000Z</time>
      </trkpt>
      <trkpt lat="51.159524" lon="5.708968">
        <ele>36.510129</ele>
        <time>2023-03-05T09:25:31.000Z</time>
      </trkpt>
      <trkpt lat="51.159506" lon="5.708881">
        <ele>36.521986</ele>
        <time>2023-03-05T09:25:32.000Z</time>
      </trkpt>
      <trkpt lat="51.159488" lon="5.708789">
        <ele>36.534459</ele>
        <time>2023-03-05T09:25:33.000Z</time>
      </trkpt>
      <trkpt lat="51.159474" lon="5.708694">
        <ele>36.547089</ele>
        <time>2023-03-05T09:25:34.000Z</time>
      </trkpt>
      <trkpt lat="51.159465" lon="5.708590">
        <ele>36.560677</ele>
        <time>2023-03-05T09:25:35.000Z</time>
      </trkpt>
      <trkpt lat="51.159460" lon="5.708476">
        <ele>36.575467</ele>
        <time>2023-03-05T09:25:36.000Z</time>
      </trkpt>
      <trkpt lat="51.159456" lon="5.708360">
        <ele>36.590503</ele>
        <time>2023-03-05T09:25:37.000Z</time>
      </trkpt>
      <trkpt lat="51.159450" lon="5.708242">
        <ele>36.605825</ele>
        <time>2023-03-05T09:25:38.000Z</time>
      </trkpt>
      <trkpt lat="51.159444" lon="5.708125">
        <ele>36.621018</ele>
        <time>2023-03-05T09:25:39.000Z</time>
      </trkpt>
      <trkpt lat="51.159440" lon="5.708015">
        <ele>36.635279</ele>
        <time>2023-03-05T09:25:40.000Z</time>
      </trkpt>
      <trkpt lat="51.159439" lon="5.707909">
        <ele>36.648999</ele>
        <time>2023-03-05T09:25:41.000Z</time>
      </trkpt>
      <trkpt lat="51.159437" lon="5.707808">
        <ele>36.662078</ele>
        <time>2023-03-05T09:25:42.000Z</time>
      </trkpt>
      <trkpt lat="51.159433" lon="5.707710">
        <ele>36.674788</ele>
        <time>2023-03-05T09:25:43.000Z</time>
      </trkpt>
      <trkpt lat="51.159431" lon="5.707614">
        <ele>36.687219</ele>
        <time>2023-03-05T09:25:44.000Z</time>
      </trkpt>
      <trkpt lat="51.159429" lon="5.707519">
        <ele>36.699522</ele>
        <time>2023-03-05T09:25:45.000Z</time>
      </trkpt>
      <trkpt lat="51.159425" lon="5.707428">
        <ele>36.711328</ele>
        <time>2023-03-05T09:25:46.000Z</time>
      </trkpt>
      <trkpt lat="51.159422" lon="5.707333">
        <ele>36.723639</ele>
        <time>2023-03-05T09:25:47.000Z</time>
      </trkpt>
      <trkpt lat="51.159418" lon="5.707239">
        <ele>36.735833</ele>
        <time>2023-03-05T09:25:48.000Z</time>
      </trkpt>
      <trkpt lat="51.159414" lon="5.707142">
        <ele>36.748414</ele>
        <time>2023-03-05T09:25:49.000Z</time>
      </trkpt>
      <trkpt lat="51.159412" lon="5.707044">
        <ele>36.761220</ele>
        <time>2023-03-05T09:25:50.000Z</time>
      </trkpt>
      <trkpt lat="51.159412" lon="5.706947">
        <ele>36.774221</ele>
        <time>2023-03-05T09:25:51.000Z</time>
      </trkpt>
      <trkpt lat="51.159412" lon="5.706855">
        <ele>36.786551</ele>
        <time>2023-03-05T09:25:52.000Z</time>
      </trkpt>
      <trkpt lat="51.159412" lon="5.706766">
        <ele>36.798480</ele>
        <time>2023-03-05T09:25:53.000Z</time>
      </trkpt>
      <trkpt lat="51.159412" lon="5.706674">
        <ele>36.810810</ele>
        <time>2023-03-05T09:25:54.000Z</time>
      </trkpt>
      <trkpt lat="51.159415" lon="5.706578">
        <ele>36.823693</ele>
        <time>2023-03-05T09:25:55.000Z</time>
      </trkpt>
      <trkpt lat="51.159416" lon="5.706481">
        <ele>36.836695</ele>
        <time>2023-03-05T09:25:56.000Z</time>
      </trkpt>
      <trkpt lat="51.159418" lon="5.706381">
        <ele>36.850105</ele>
        <time>2023-03-05T09:25:57.000Z</time>
      </trkpt>
      <trkpt lat="51.159420" lon="5.706276">
        <ele>36.864184</ele>
        <time>2023-03-05T09:25:58.000Z</time>
      </trkpt>
      <trkpt lat="51.159422" lon="5.706171">
        <ele>36.878264</ele>
        <time>2023-03-05T09:25:59.000Z</time>
      </trkpt>
      <trkpt lat="51.159426" lon="5.706068">
        <ele>36.892095</ele>
        <time>2023-03-05T09:26:00.000Z</time>
      </trkpt>
      <trkpt lat="51.159428" lon="5.705966">
        <ele>36.905772</ele>
        <time>2023-03-05T09:26:01.000Z</time>
      </trkpt>
      <trkpt lat="51.159430" lon="5.705865">
        <ele>36.919316</ele>
        <time>2023-03-05T09:26:02.000Z</time>
      </trkpt>
      <trkpt lat="51.159431" lon="5.705764">
        <ele>36.932854</ele>
        <time>2023-03-05T09:26:03.000Z</time>
      </trkpt>
      <trkpt lat="51.159434" lon="5.705659">
        <ele>36.946942</ele>
        <time>2023-03-05T09:26:04.000Z</time>
      </trkpt>
      <trkpt lat="51.159438" lon="5.705550">
        <ele>36.961576</ele>
        <time>2023-03-05T09:26:05.000Z</time>
      </trkpt>
      <trkpt lat="51.159441" lon="5.705439">
        <ele>36.976467</ele>
        <time>2023-03-05T09:26:06.000Z</time>
      </trkpt>
      <trkpt lat="51.159441" lon="5.705328">
        <ele>36.991344</ele>
        <time>2023-03-05T09:26:07.000Z</time>
      </trkpt>
      <trkpt lat="51.159437" lon="5.705221">
        <ele>37.005710</ele>
        <time>2023-03-05T09:26:08.000Z</time>
      </trkpt>
      <trkpt lat="51.159426" lon="5.705118">
        <ele>37.019714</ele>
        <time>2023-03-05T09:26:09.000Z</time>
      </trkpt>
      <trkpt lat="51.159408" lon="5.705021">
        <ele>37.033272</ele>
        <time>2023-03-05T09:26:10.000Z</time>
      </trkpt>
      <trkpt lat="51.159387" lon="5.704929">
        <ele>37.046394</ele>
        <time>2023-03-05T09:26:11.000Z</time>
      </trkpt>
      <trkpt lat="51.159364" lon="5.704846">
        <ele>37.058555</ele>
        <time>2023-03-05T09:26:12.000Z</time>
      </trkpt>
      <trkpt lat="51.159341" lon="5.704766">
        <ele>37.070351</ele>
        <time>2023-03-05T09:26:13.000Z</time>
      </trkpt>
      <trkpt lat="51.159320" lon="5.704691">
        <ele>37.081359</ele>
        <time>2023-03-05T09:26:14.000Z</time>
      </trkpt>
      <trkpt lat="51.159301" lon="5.704622">
        <ele>37.091459</ele>
        <time>2023-03-05T09:26:15.000Z</time>
      </trkpt>
      <trkpt lat="51.159282" lon="5.704556">
        <ele>37.101192</ele>
        <time>2023-03-05T09:26:16.000Z</time>
      </trkpt>
      <trkpt lat="51.159266" lon="5.704494">
        <ele>37.110178</ele>
        <time>2023-03-05T09:26:17.000Z</time>
      </trkpt>
      <trkpt lat="51.159250" lon="5.704430">
        <ele>37.119412</ele>
        <time>2023-03-05T09:26:18.000Z</time>
      </trkpt>
      <trkpt lat="51.159233" lon="5.704362">
        <ele>37.129224</ele>
        <time>2023-03-05T09:26:19.000Z</time>
      </trkpt>
      <trkpt lat="51.159218" lon="5.704289">
        <ele>37.139519</ele>
        <time>2023-03-05T09:26:20.000Z</time>
      </trkpt>
      <trkpt lat="51.159209" lon="5.704210">
        <ele>37.146495</ele>
        <time>2023-03-05T09:26:21.000Z</time>
      </trkpt>
      <trkpt lat="51.159202" lon="5.704128">
        <ele>37.152367</ele>
        <time>2023-03-05T09:26:22.000Z</time>
      </trkpt>
      <trkpt lat="51.159194" lon="5.704049">
        <ele>37.158044</ele>
        <time>2023-03-05T09:26:23.000Z</time>
      </trkpt>
      <trkpt lat="51.159186" lon="5.703973">
        <ele>37.163512</ele>
        <time>2023-03-05T09:26:24.000Z</time>
      </trkpt>
      <trkpt lat="51.159179" lon="5.703897">
        <ele>37.168963</ele>
        <time>2023-03-05T09:26:25.000Z</time>
      </trkpt>
      <trkpt lat="51.159171" lon="5.703816">
        <ele>37.174781</ele>
        <time>2023-03-05T09:26:26.000Z</time>
      </trkpt>
      <trkpt lat="51.159166" lon="5.703728">
        <ele>37.181050</ele>
        <time>2023-03-05T09:26:27.000Z</time>
      </trkpt>
      <trkpt lat="51.159162" lon="5.703632">
        <ele>37.187877</ele>
        <time>2023-03-05T09:26:28.000Z</time>
      </trkpt>
      <trkpt lat="51.159156" lon="5.703536">
        <ele>37.194722</ele>
        <time>2023-03-05T09:26:29.000Z</time>
      </trkpt>
      <trkpt lat="51.159151" lon="5.703436">
        <ele>37.201840</ele>
        <time>2023-03-05T09:26:30.000Z</time>
      </trkpt>
      <trkpt lat="51.159147" lon="5.703321">
        <ele>37.210012</ele>
        <time>2023-03-05T09:26:31.000Z</time>
      </trkpt>
      <trkpt lat="51.159143" lon="5.703204">
        <ele>37.218326</ele>
        <time>2023-03-05T09:26:32.000Z</time>
      </trkpt>
      <trkpt lat="51.159139" lon="5.703095">
        <ele>37.226073</ele>
        <time>2023-03-05T09:26:33.000Z</time>
      </trkpt>
      <trkpt lat="51.159138" lon="5.702985">
        <ele>37.233879</ele>
        <time>2023-03-05T09:26:34.000Z</time>
      </trkpt>
      <trkpt lat="51.159140" lon="5.702871">
        <ele>37.241970</ele>
        <time>2023-03-05T09:26:35.000Z</time>
      </trkpt>
      <trkpt lat="51.159142" lon="5.702763">
        <ele>37.249637</ele>
        <time>2023-03-05T09:26:36.000Z</time>
      </trkpt>
      <trkpt lat="51.159142" lon="5.702653">
        <ele>37.257441</ele>
        <time>2023-03-05T09:26:37.000Z</time>
      </trkpt>
      <trkpt lat="51.159146" lon="5.702538">
        <ele>37.265614</ele>
        <time>2023-03-05T09:26:38.000Z</time>
      </trkpt>
      <trkpt lat="51.159152" lon="5.702431">
        <ele>37.273236</ele>
        <time>2023-03-05T09:26:39.000Z</time>
      </trkpt>
      <trkpt lat="51.159155" lon="5.702331">
        <ele>37.280339</ele>
        <time>2023-03-05T09:26:40.000Z</time>
      </trkpt>
      <trkpt lat="51.159164" lon="5.702230">
        <ele>37.287578</ele>
        <time>2023-03-05T09:26:41.000Z</time>
      </trkpt>
      <trkpt lat="51.159173" lon="5.702136">
        <ele>37.294324</ele>
        <time>2023-03-05T09:26:42.000Z</time>
      </trkpt>
      <trkpt lat="51.159183" lon="5.702044">
        <ele>37.300949</ele>
        <time>2023-03-05T09:26:43.000Z</time>
      </trkpt>
      <trkpt lat="51.159197" lon="5.701951">
        <ele>37.307736</ele>
        <time>2023-03-05T09:26:44.000Z</time>
      </trkpt>
      <trkpt lat="51.159214" lon="5.701863">
        <ele>37.314269</ele>
        <time>2023-03-05T09:26:45.000Z</time>
      </trkpt>
      <trkpt lat="51.159231" lon="5.701767">
        <ele>37.321347</ele>
        <time>2023-03-05T09:26:46.000Z</time>
      </trkpt>
      <trkpt lat="51.159246" lon="5.701668">
        <ele>37.328573</ele>
        <time>2023-03-05T09:26:47.000Z</time>
      </trkpt>
      <trkpt lat="51.159259" lon="5.701577">
        <ele>37.335195</ele>
        <time>2023-03-05T09:26:48.000Z</time>
      </trkpt>
      <trkpt lat="51.159271" lon="5.701494">
        <ele>37.341239</ele>
        <time>2023-03-05T09:26:49.000Z</time>
      </trkpt>
      <trkpt lat="51.159282" lon="5.701409">
        <ele>37.346607</ele>
        <time>2023-03-05T09:26:50.000Z</time>
      </trkpt>
      <trkpt lat="51.159296" lon="5.701312">
        <ele>37.350336</ele>
        <time>2023-03-05T09:26:51.000Z</time>
      </trkpt>
      <trkpt lat="51.159311" lon="5.701204">
        <ele>37.354480</ele>
        <time>2023-03-05T09:26:52.000Z</time>
      </trkpt>
      <trkpt lat="51.159329" lon="5.701093">
        <ele>37.358774</ele>
        <time>2023-03-05T09:26:53.000Z</time>
      </trkpt>
      <trkpt lat="51.159343" lon="5.700990">
        <ele>37.362722</ele>
        <time>2023-03-05T09:26:54.000Z</time>
      </trkpt>
      <trkpt lat="51.159357" lon="5.700893">
        <ele>37.366451</ele>
        <time>2023-03-05T09:26:55.000Z</time>
      </trkpt>
      <trkpt lat="51.159375" lon="5.700798">
        <ele>37.370169</ele>
        <time>2023-03-05T09:26:56.000Z</time>
      </trkpt>
      <trkpt lat="51.159393" lon="5.700709">
        <ele>37.373672</ele>
        <time>2023-03-05T09:26:57.000Z</time>
      </trkpt>
      <trkpt lat="51.159413" lon="5.700610">
        <ele>37.377568</ele>
        <time>2023-03-05T09:26:58.000Z</time>
      </trkpt>
      <trkpt lat="51.159432" lon="5.700505">
        <ele>37.381662</ele>
        <time>2023-03-05T09:26:59.000Z</time>
      </trkpt>
      <trkpt lat="51.159451" lon="5.700408">
        <ele>37.385468</ele>
        <time>2023-03-05T09:27:00.000Z</time>
      </trkpt>
      <trkpt lat="51.159470" lon="5.700313">
        <ele>37.389204</ele>
        <time>2023-03-05T09:27:01.000Z</time>
      </trkpt>
      <trkpt lat="51.159484" lon="5.700212">
        <ele>37.393079</ele>
        <time>2023-03-05T09:27:02.000Z</time>
      </trkpt>
      <trkpt lat="51.159498" lon="5.700116">
        <ele>37.396771</ele>
        <time>2023-03-05T09:27:03.000Z</time>
      </trkpt>
      <trkpt lat="51.159516" lon="5.700023">
        <ele>37.400417</ele>
        <time>2023-03-05T09:27:04.000Z</time>
      </trkpt>
      <trkpt lat="51.159535" lon="5.699933">
        <ele>37.403974</ele>
        <time>2023-03-05T09:27:05.000Z</time>
      </trkpt>
      <trkpt lat="51.159556" lon="5.699849">
        <ele>37.407361</ele>
        <time>2023-03-05T09:27:06.000Z</time>
      </trkpt>
      <trkpt lat="51.159574" lon="5.699767">
        <ele>37.410616</ele>
        <time>2023-03-05T09:27:07.000Z</time>
      </trkpt>
      <trkpt lat="51.159583" lon="5.699689">
        <ele>37.413587</ele>
        <time>2023-03-05T09:27:08.000Z</time>
      </trkpt>
      <trkpt lat="51.159582" lon="5.699614">
        <ele>37.416397</ele>
        <time>2023-03-05T09:27:09.000Z</time>
      </trkpt>
      <trkpt lat="51.159573" lon="5.699541">
        <ele>37.419184</ele>
        <time>2023-03-05T09:27:10.000Z</time>
      </trkpt>
      <trkpt lat="51.159545" lon="5.699471">
        <ele>37.422294</ele>
        <time>2023-03-05T09:27:11.000Z</time>
      </trkpt>
      <trkpt lat="51.159507" lon="5.699400">
        <ele>37.425791</ele>
        <time>2023-03-05T09:27:12.000Z</time>
      </trkpt>
      <trkpt lat="51.159464" lon="5.699325">
        <ele>37.429597</ele>
        <time>2023-03-05T09:27:13.000Z</time>
      </trkpt>
      <trkpt lat="51.159422" lon="5.699254">
        <ele>37.433253</ele>
        <time>2023-03-05T09:27:14.000Z</time>
      </trkpt>
      <trkpt lat="51.159374" lon="5.699178">
        <ele>37.437294</ele>
        <time>2023-03-05T09:27:15.000Z</time>
      </trkpt>
      <trkpt lat="51.159324" lon="5.699104">
        <ele>37.441369</ele>
        <time>2023-03-05T09:27:16.000Z</time>
      </trkpt>
      <trkpt lat="51.159279" lon="5.699033">
        <ele>37.445150</ele>
        <time>2023-03-05T09:27:17.000Z</time>
      </trkpt>
      <trkpt lat="51.159235" lon="5.698963">
        <ele>37.448863</ele>
        <time>2023-03-05T09:27:18.000Z</time>
      </trkpt>
      <trkpt lat="51.159190" lon="5.698892">
        <ele>37.452644</ele>
        <time>2023-03-05T09:27:19.000Z</time>
      </trkpt>
      <trkpt lat="51.159142" lon="5.698821">
        <ele>37.442048</ele>
        <time>2023-03-05T09:27:20.000Z</time>
      </trkpt>
      <trkpt lat="51.159092" lon="5.698748">
        <ele>37.428805</ele>
        <time>2023-03-05T09:27:21.000Z</time>
      </trkpt>
      <trkpt lat="51.159039" lon="5.698677">
        <ele>37.415282</ele>
        <time>2023-03-05T09:27:22.000Z</time>
      </trkpt>
      <trkpt lat="51.158989" lon="5.698608">
        <ele>37.402364</ele>
        <time>2023-03-05T09:27:23.000Z</time>
      </trkpt>
      <trkpt lat="51.158937" lon="5.698540">
        <ele>37.389226</ele>
        <time>2023-03-05T09:27:24.000Z</time>
      </trkpt>
      <trkpt lat="51.158886" lon="5.698469">
        <ele>37.376000</ele>
        <time>2023-03-05T09:27:25.000Z</time>
      </trkpt>
      <trkpt lat="51.158833" lon="5.698396">
        <ele>37.362319</ele>
        <time>2023-03-05T09:27:26.000Z</time>
      </trkpt>
      <trkpt lat="51.158783" lon="5.698326">
        <ele>37.349320</ele>
        <time>2023-03-05T09:27:27.000Z</time>
      </trkpt>
      <trkpt lat="51.158734" lon="5.698259">
        <ele>37.336711</ele>
        <time>2023-03-05T09:27:28.000Z</time>
      </trkpt>
      <trkpt lat="51.158684" lon="5.698193">
        <ele>37.324030</ele>
        <time>2023-03-05T09:27:29.000Z</time>
      </trkpt>
      <trkpt lat="51.158631" lon="5.698128">
        <ele>37.310968</ele>
        <time>2023-03-05T09:27:30.000Z</time>
      </trkpt>
      <trkpt lat="51.158580" lon="5.698061">
        <ele>37.298059</ele>
        <time>2023-03-05T09:27:31.000Z</time>
      </trkpt>
      <trkpt lat="51.158531" lon="5.697996">
        <ele>37.285607</ele>
        <time>2023-03-05T09:27:32.000Z</time>
      </trkpt>
      <trkpt lat="51.158481" lon="5.697935">
        <ele>37.273309</ele>
        <time>2023-03-05T09:27:33.000Z</time>
      </trkpt>
      <trkpt lat="51.158431" lon="5.697874">
        <ele>37.261010</ele>
        <time>2023-03-05T09:27:34.000Z</time>
      </trkpt>
      <trkpt lat="51.158379" lon="5.697812">
        <ele>37.248325</ele>
        <time>2023-03-05T09:27:35.000Z</time>
      </trkpt>
      <trkpt lat="51.158328" lon="5.697748">
        <ele>37.235647</ele>
        <time>2023-03-05T09:27:36.000Z</time>
      </trkpt>
      <trkpt lat="51.158276" lon="5.697684">
        <ele>37.222814</ele>
        <time>2023-03-05T09:27:37.000Z</time>
      </trkpt>
      <trkpt lat="51.158226" lon="5.697619">
        <ele>37.210212</ele>
        <time>2023-03-05T09:27:38.000Z</time>
      </trkpt>
      <trkpt lat="51.158176" lon="5.697553">
        <ele>37.197531</ele>
        <time>2023-03-05T09:27:39.000Z</time>
      </trkpt>
      <trkpt lat="51.158129" lon="5.697488">
        <ele>37.185377</ele>
        <time>2023-03-05T09:27:40.000Z</time>
      </trkpt>
      <trkpt lat="51.158081" lon="5.697425">
        <ele>37.173232</ele>
        <time>2023-03-05T09:27:41.000Z</time>
      </trkpt>
      <trkpt lat="51.158031" lon="5.697363">
        <ele>37.160858</ele>
        <time>2023-03-05T09:27:42.000Z</time>
      </trkpt>
      <trkpt lat="51.157982" lon="5.697302">
        <ele>37.148714</ele>
        <time>2023-03-05T09:27:43.000Z</time>
      </trkpt>
      <trkpt lat="51.157933" lon="5.697241">
        <ele>37.136570</ele>
        <time>2023-03-05T09:27:44.000Z</time>
      </trkpt>
      <trkpt lat="51.157883" lon="5.697179">
        <ele>37.124196</ele>
        <time>2023-03-05T09:27:45.000Z</time>
      </trkpt>
      <trkpt lat="51.157832" lon="5.697121">
        <ele>37.111959</ele>
        <time>2023-03-05T09:27:46.000Z</time>
      </trkpt>
      <trkpt lat="51.157783" lon="5.697066">
        <ele>37.101586</ele>
        <time>2023-03-05T09:27:47.000Z</time>
      </trkpt>
      <trkpt lat="51.157736" lon="5.697012">
        <ele>37.100082</ele>
        <time>2023-03-05T09:27:48.000Z</time>
      </trkpt>
      <trkpt lat="51.157692" lon="5.696957">
        <ele>37.098630</ele>
        <time>2023-03-05T09:27:49.000Z</time>
      </trkpt>
      <trkpt lat="51.157646" lon="5.696906">
        <ele>37.097176</ele>
        <time>2023-03-05T09:27:50.000Z</time>
      </trkpt>
      <trkpt lat="51.157599" lon="5.696853">
        <ele>37.095681</ele>
        <time>2023-03-05T09:27:51.000Z</time>
      </trkpt>
      <trkpt lat="51.157551" lon="5.696800">
        <ele>37.094165</ele>
        <time>2023-03-05T09:27:52.000Z</time>
      </trkpt>
      <trkpt lat="51.157503" lon="5.696747">
        <ele>37.092649</ele>
        <time>2023-03-05T09:27:53.000Z</time>
      </trkpt>
      <trkpt lat="51.157458" lon="5.696693">
        <ele>37.091187</ele>
        <time>2023-03-05T09:27:54.000Z</time>
      </trkpt>
      <trkpt lat="51.157410" lon="5.696632">
        <ele>37.089593</ele>
        <time>2023-03-05T09:27:55.000Z</time>
      </trkpt>
      <trkpt lat="51.157362" lon="5.696567">
        <ele>37.087958</ele>
        <time>2023-03-05T09:27:56.000Z</time>
      </trkpt>
      <trkpt lat="51.157319" lon="5.696497">
        <ele>37.086363</ele>
        <time>2023-03-05T09:27:57.000Z</time>
      </trkpt>
      <trkpt lat="51.157274" lon="5.696420">
        <ele>37.084649</ele>
        <time>2023-03-05T09:27:58.000Z</time>
      </trkpt>
      <trkpt lat="51.157231" lon="5.696339">
        <ele>37.082921</ele>
        <time>2023-03-05T09:27:59.000Z</time>
      </trkpt>
      <trkpt lat="51.157192" lon="5.696255">
        <ele>37.081219</ele>
        <time>2023-03-05T09:28:00.000Z</time>
      </trkpt>
      <trkpt lat="51.157156" lon="5.696160">
        <ele>37.079411</ele>
        <time>2023-03-05T09:28:01.000Z</time>
      </trkpt>
      <trkpt lat="51.157124" lon="5.696064">
        <ele>37.077641</ele>
        <time>2023-03-05T09:28:02.000Z</time>
      </trkpt>
      <trkpt lat="51.157091" lon="5.695975">
        <ele>37.075957</ele>
        <time>2023-03-05T09:28:03.000Z</time>
      </trkpt>
      <trkpt lat="51.157059" lon="5.695882">
        <ele>37.074230</ele>
        <time>2023-03-05T09:28:04.000Z</time>
      </trkpt>
      <trkpt lat="51.157028" lon="5.695789">
        <ele>37.072515</ele>
        <time>2023-03-05T09:28:05.000Z</time>
      </trkpt>
      <trkpt lat="51.157000" lon="5.695700">
        <ele>37.070893</ele>
        <time>2023-03-05T09:28:06.000Z</time>
      </trkpt>
      <trkpt lat="51.156973" lon="5.695616">
        <ele>37.069356</ele>
        <time>2023-03-05T09:28:07.000Z</time>
      </trkpt>
      <trkpt lat="51.156947" lon="5.695533">
        <ele>37.067846</ele>
        <time>2023-03-05T09:28:08.000Z</time>
      </trkpt>
      <trkpt lat="51.156925" lon="5.695443">
        <ele>37.066273</ele>
        <time>2023-03-05T09:28:09.000Z</time>
      </trkpt>
      <trkpt lat="51.156901" lon="5.695345">
        <ele>37.064559</ele>
        <time>2023-03-05T09:28:10.000Z</time>
      </trkpt>
      <trkpt lat="51.156875" lon="5.695242">
        <ele>37.062751</ele>
        <time>2023-03-05T09:28:11.000Z</time>
      </trkpt>
      <trkpt lat="51.156848" lon="5.695142">
        <ele>37.060979</ele>
        <time>2023-03-05T09:28:12.000Z</time>
      </trkpt>
      <trkpt lat="51.156821" lon="5.695045">
        <ele>37.059250</ele>
        <time>2023-03-05T09:28:13.000Z</time>
      </trkpt>
      <trkpt lat="51.156794" lon="5.694953">
        <ele>37.057596</ele>
        <time>2023-03-05T09:28:14.000Z</time>
      </trkpt>
      <trkpt lat="51.156770" lon="5.694861">
        <ele>37.055974</ele>
        <time>2023-03-05T09:28:15.000Z</time>
      </trkpt>
      <trkpt lat="51.156747" lon="5.694766">
        <ele>37.062682</ele>
        <time>2023-03-05T09:28:16.000Z</time>
      </trkpt>
      <trkpt lat="51.156724" lon="5.694676">
        <ele>37.078178</ele>
        <time>2023-03-05T09:28:17.000Z</time>
      </trkpt>
      <trkpt lat="51.156704" lon="5.694588">
        <ele>37.093101</ele>
        <time>2023-03-05T09:28:18.000Z</time>
      </trkpt>
      <trkpt lat="51.156680" lon="5.694504">
        <ele>37.107818</ele>
        <time>2023-03-05T09:28:19.000Z</time>
      </trkpt>
      <trkpt lat="51.156655" lon="5.694412">
        <ele>37.123804</ele>
        <time>2023-03-05T09:28:20.000Z</time>
      </trkpt>
      <trkpt lat="51.156635" lon="5.694317">
        <ele>37.139782</ele>
        <time>2023-03-05T09:28:21.000Z</time>
      </trkpt>
      <trkpt lat="51.156616" lon="5.694223">
        <ele>37.155528</ele>
        <time>2023-03-05T09:28:22.000Z</time>
      </trkpt>
      <trkpt lat="51.156599" lon="5.694129">
        <ele>37.171126</ele>
        <time>2023-03-05T09:28:23.000Z</time>
      </trkpt>
      <trkpt lat="51.156584" lon="5.694036">
        <ele>37.186437</ele>
        <time>2023-03-05T09:28:24.000Z</time>
      </trkpt>
      <trkpt lat="51.156571" lon="5.693943">
        <ele>37.201629</ele>
        <time>2023-03-05T09:28:25.000Z</time>
      </trkpt>
      <trkpt lat="51.156552" lon="5.693846">
        <ele>37.217831</ele>
        <time>2023-03-05T09:28:26.000Z</time>
      </trkpt>
      <trkpt lat="51.156532" lon="5.693744">
        <ele>37.234870</ele>
        <time>2023-03-05T09:28:27.000Z</time>
      </trkpt>
      <trkpt lat="51.156510" lon="5.693647">
        <ele>37.251316</ele>
        <time>2023-03-05T09:28:28.000Z</time>
      </trkpt>
      <trkpt lat="51.156492" lon="5.693558">
        <ele>37.266226</ele>
        <time>2023-03-05T09:28:29.000Z</time>
      </trkpt>
      <trkpt lat="51.156472" lon="5.693475">
        <ele>37.280403</ele>
        <time>2023-03-05T09:28:30.000Z</time>
      </trkpt>
      <trkpt lat="51.156452" lon="5.693394">
        <ele>37.294282</ele>
        <time>2023-03-05T09:28:31.000Z</time>
      </trkpt>
      <trkpt lat="51.156430" lon="5.693311">
        <ele>37.308649</ele>
        <time>2023-03-05T09:28:32.000Z</time>
      </trkpt>
      <trkpt lat="51.156407" lon="5.693228">
        <ele>37.323117</ele>
        <time>2023-03-05T09:28:33.000Z</time>
      </trkpt>
      <trkpt lat="51.156384" lon="5.693142">
        <ele>37.338023</ele>
        <time>2023-03-05T09:28:34.000Z</time>
      </trkpt>
      <trkpt lat="51.156362" lon="5.693052">
        <ele>37.353425</ele>
        <time>2023-03-05T09:28:35.000Z</time>
      </trkpt>
      <trkpt lat="51.156336" lon="5.692961">
        <ele>37.369368</ele>
        <time>2023-03-05T09:28:36.000Z</time>
      </trkpt>
      <trkpt lat="51.156312" lon="5.692873">
        <ele>37.384668</ele>
        <time>2023-03-05T09:28:37.000Z</time>
      </trkpt>
      <trkpt lat="51.156289" lon="5.692782">
        <ele>37.400311</ele>
        <time>2023-03-05T09:28:38.000Z</time>
      </trkpt>
      <trkpt lat="51.156266" lon="5.692689">
        <ele>37.416250</ele>
        <time>2023-03-05T09:28:39.000Z</time>
      </trkpt>
      <trkpt lat="51.156239" lon="5.692593">
        <ele>37.433025</ele>
        <time>2023-03-05T09:28:40.000Z</time>
      </trkpt>
      <trkpt lat="51.156213" lon="5.692494">
        <ele>37.450138</ele>
        <time>2023-03-05T09:28:41.000Z</time>
      </trkpt>
      <trkpt lat="51.156188" lon="5.692396">
        <ele>37.467006</ele>
        <time>2023-03-05T09:28:42.000Z</time>
      </trkpt>
      <trkpt lat="51.156163" lon="5.692299">
        <ele>37.483727</ele>
        <time>2023-03-05T09:28:43.000Z</time>
      </trkpt>
      <trkpt lat="51.156138" lon="5.692207">
        <ele>37.499714</ele>
        <time>2023-03-05T09:28:44.000Z</time>
      </trkpt>
      <trkpt lat="51.156114" lon="5.692116">
        <ele>37.508872</ele>
        <time>2023-03-05T09:28:45.000Z</time>
      </trkpt>
      <trkpt lat="51.156091" lon="5.692020">
        <ele>37.490741</ele>
        <time>2023-03-05T09:28:46.000Z</time>
      </trkpt>
      <trkpt lat="51.156070" lon="5.691922">
        <ele>37.472468</ele>
        <time>2023-03-05T09:28:47.000Z</time>
      </trkpt>
      <trkpt lat="51.156049" lon="5.691829">
        <ele>37.455028</ele>
        <time>2023-03-05T09:28:48.000Z</time>
      </trkpt>
      <trkpt lat="51.156026" lon="5.691740">
        <ele>37.438044</ele>
        <time>2023-03-05T09:28:49.000Z</time>
      </trkpt>
      <trkpt lat="51.156003" lon="5.691639">
        <ele>37.419085</ele>
        <time>2023-03-05T09:28:50.000Z</time>
      </trkpt>
      <trkpt lat="51.155980" lon="5.691538">
        <ele>37.400127</ele>
        <time>2023-03-05T09:28:51.000Z</time>
      </trkpt>
      <trkpt lat="51.155959" lon="5.691442">
        <ele>37.382188</ele>
        <time>2023-03-05T09:28:52.000Z</time>
      </trkpt>
      <trkpt lat="51.155940" lon="5.691346">
        <ele>37.364426</ele>
        <time>2023-03-05T09:28:53.000Z</time>
      </trkpt>
      <trkpt lat="51.155919" lon="5.691247">
        <ele>37.345987</ele>
        <time>2023-03-05T09:28:54.000Z</time>
      </trkpt>
      <trkpt lat="51.155899" lon="5.691148">
        <ele>37.327635</ele>
        <time>2023-03-05T09:28:55.000Z</time>
      </trkpt>
      <trkpt lat="51.155877" lon="5.691056">
        <ele>37.310263</ele>
        <time>2023-03-05T09:28:56.000Z</time>
      </trkpt>
      <trkpt lat="51.155854" lon="5.690971">
        <ele>37.293929</ele>
        <time>2023-03-05T09:28:57.000Z</time>
      </trkpt>
      <trkpt lat="51.155829" lon="5.690879">
        <ele>37.276239</ele>
        <time>2023-03-05T09:28:58.000Z</time>
      </trkpt>
      <trkpt lat="51.155802" lon="5.690779">
        <ele>37.257029</ele>
        <time>2023-03-05T09:28:59.000Z</time>
      </trkpt>
      <trkpt lat="51.155773" lon="5.690670">
        <ele>37.236138</ele>
        <time>2023-03-05T09:29:00.000Z</time>
      </trkpt>
      <trkpt lat="51.155745" lon="5.690558">
        <ele>37.214865</ele>
        <time>2023-03-05T09:29:01.000Z</time>
      </trkpt>
      <trkpt lat="51.155718" lon="5.690443">
        <ele>37.193199</ele>
        <time>2023-03-05T09:29:02.000Z</time>
      </trkpt>
      <trkpt lat="51.155692" lon="5.690331">
        <ele>37.172127</ele>
        <time>2023-03-05T09:29:03.000Z</time>
      </trkpt>
      <trkpt lat="51.155665" lon="5.690224">
        <ele>37.151777</ele>
        <time>2023-03-05T09:29:04.000Z</time>
      </trkpt>
      <trkpt lat="51.155638" lon="5.690123">
        <ele>37.132406</ele>
        <time>2023-03-05T09:29:05.000Z</time>
      </trkpt>
      <trkpt lat="51.155612" lon="5.690025">
        <ele>37.113631</ele>
        <time>2023-03-05T09:29:06.000Z</time>
      </trkpt>
      <trkpt lat="51.155585" lon="5.689926">
        <ele>37.094583</ele>
        <time>2023-03-05T09:29:07.000Z</time>
      </trkpt>
      <trkpt lat="51.155556" lon="5.689829">
        <ele>37.075624</ele>
        <time>2023-03-05T09:29:08.000Z</time>
      </trkpt>
      <trkpt lat="51.155523" lon="5.689735">
        <ele>37.056617</ele>
        <time>2023-03-05T09:29:09.000Z</time>
      </trkpt>
      <trkpt lat="51.155493" lon="5.689642">
        <ele>37.038164</ele>
        <time>2023-03-05T09:29:10.000Z</time>
      </trkpt>
      <trkpt lat="51.155467" lon="5.689546">
        <ele>37.019714</ele>
        <time>2023-03-05T09:29:11.000Z</time>
      </trkpt>
      <trkpt lat="51.155442" lon="5.689445">
        <ele>37.013463</ele>
        <time>2023-03-05T09:29:12.000Z</time>
      </trkpt>
      <trkpt lat="51.155419" lon="5.689345">
        <ele>37.036558</ele>
        <time>2023-03-05T09:29:13.000Z</time>
      </trkpt>
      <trkpt lat="51.155399" lon="5.689244">
        <ele>37.059524</ele>
        <time>2023-03-05T09:29:14.000Z</time>
      </trkpt>
      <trkpt lat="51.155377" lon="5.689144">
        <ele>37.082503</ele>
        <time>2023-03-05T09:29:15.000Z</time>
      </trkpt>
      <trkpt lat="51.155352" lon="5.689047">
        <ele>37.105242</ele>
        <time>2023-03-05T09:29:16.000Z</time>
      </trkpt>
      <trkpt lat="51.155328" lon="5.688955">
        <ele>37.126848</ele>
        <time>2023-03-05T09:29:17.000Z</time>
      </trkpt>
      <trkpt lat="51.155305" lon="5.688858">
        <ele>37.149334</ele>
        <time>2023-03-05T09:29:18.000Z</time>
      </trkpt>
      <trkpt lat="51.155280" lon="5.688755">
        <ele>37.173282</ele>
        <time>2023-03-05T09:29:19.000Z</time>
      </trkpt>
      <trkpt lat="51.155253" lon="5.688652">
        <ele>37.197488</ele>
        <time>2023-03-05T09:29:20.000Z</time>
      </trkpt>
      <trkpt lat="51.155229" lon="5.688549">
        <ele>37.221313</ele>
        <time>2023-03-05T09:29:21.000Z</time>
      </trkpt>
      <trkpt lat="51.155206" lon="5.688450">
        <ele>37.244205</ele>
        <time>2023-03-05T09:29:22.000Z</time>
      </trkpt>
      <trkpt lat="51.155183" lon="5.688350">
        <ele>37.267301</ele>
        <time>2023-03-05T09:29:23.000Z</time>
      </trkpt>
      <trkpt lat="51.155160" lon="5.688250">
        <ele>37.290397</ele>
        <time>2023-03-05T09:29:24.000Z</time>
      </trkpt>
      <trkpt lat="51.155135" lon="5.688147">
        <ele>37.314345</ele>
        <time>2023-03-05T09:29:25.000Z</time>
      </trkpt>
      <trkpt lat="51.155110" lon="5.688044">
        <ele>37.338293</ele>
        <time>2023-03-05T09:29:26.000Z</time>
      </trkpt>
      <trkpt lat="51.155085" lon="5.687942">
        <ele>37.362039</ele>
        <time>2023-03-05T09:29:27.000Z</time>
      </trkpt>
      <trkpt lat="51.155058" lon="5.687839">
        <ele>37.386245</ele>
        <time>2023-03-05T09:29:28.000Z</time>
      </trkpt>
      <trkpt lat="51.155034" lon="5.687737">
        <ele>37.409868</ele>
        <time>2023-03-05T09:29:29.000Z</time>
      </trkpt>
      <trkpt lat="51.155009" lon="5.687639">
        <ele>37.432808</ele>
        <time>2023-03-05T09:29:30.000Z</time>
      </trkpt>
      <trkpt lat="51.154984" lon="5.687541">
        <ele>37.455748</ele>
        <time>2023-03-05T09:29:31.000Z</time>
      </trkpt>
      <trkpt lat="51.154962" lon="5.687444">
        <ele>37.478114</ele>
        <time>2023-03-05T09:29:32.000Z</time>
      </trkpt>
      <trkpt lat="51.154939" lon="5.687347">
        <ele>37.500601</ele>
        <time>2023-03-05T09:29:33.000Z</time>
      </trkpt>
      <trkpt lat="51.154914" lon="5.687250">
        <ele>37.523340</ele>
        <time>2023-03-05T09:29:34.000Z</time>
      </trkpt>
      <trkpt lat="51.154892" lon="5.687154">
        <ele>37.545503</ele>
        <time>2023-03-05T09:29:35.000Z</time>
      </trkpt>
      <trkpt lat="51.154868" lon="5.687057">
        <ele>37.568113</ele>
        <time>2023-03-05T09:29:36.000Z</time>
      </trkpt>
      <trkpt lat="51.154843" lon="5.686961">
        <ele>37.590653</ele>
        <time>2023-03-05T09:29:37.000Z</time>
      </trkpt>
      <trkpt lat="51.154821" lon="5.686866">
        <ele>37.612611</ele>
        <time>2023-03-05T09:29:38.000Z</time>
      </trkpt>
      <trkpt lat="51.154798" lon="5.686768">
        <ele>37.628695</ele>
        <time>2023-03-05T09:29:39.000Z</time>
      </trkpt>
      <trkpt lat="51.154775" lon="5.686668">
        <ele>37.630420</ele>
        <time>2023-03-05T09:29:40.000Z</time>
      </trkpt>
      <trkpt lat="51.154752" lon="5.686570">
        <ele>37.632114</ele>
        <time>2023-03-05T09:29:41.000Z</time>
      </trkpt>
      <trkpt lat="51.154729" lon="5.686474">
        <ele>37.633779</ele>
        <time>2023-03-05T09:29:42.000Z</time>
      </trkpt>
      <trkpt lat="51.154708" lon="5.686379">
        <ele>37.635410</ele>
        <time>2023-03-05T09:29:43.000Z</time>
      </trkpt>
      <trkpt lat="51.154687" lon="5.686286">
        <ele>37.637010</ele>
        <time>2023-03-05T09:29:44.000Z</time>
      </trkpt>
      <trkpt lat="51.154662" lon="5.686199">
        <ele>37.638560</ele>
        <time>2023-03-05T09:29:45.000Z</time>
      </trkpt>
      <trkpt lat="51.154635" lon="5.686113">
        <ele>37.640117</ele>
        <time>2023-03-05T09:29:46.000Z</time>
      </trkpt>
      <trkpt lat="51.154610" lon="5.686022">
        <ele>37.641726</ele>
        <time>2023-03-05T09:29:47.000Z</time>
      </trkpt>
      <trkpt lat="51.154588" lon="5.685927">
        <ele>37.643366</ele>
        <time>2023-03-05T09:29:48.000Z</time>
      </trkpt>
      <trkpt lat="51.154567" lon="5.685833">
        <ele>37.644982</ele>
        <time>2023-03-05T09:29:49.000Z</time>
      </trkpt>
      <trkpt lat="51.154546" lon="5.685738">
        <ele>37.646613</ele>
        <time>2023-03-05T09:29:50.000Z</time>
      </trkpt>
      <trkpt lat="51.154523" lon="5.685643">
        <ele>37.648262</ele>
        <time>2023-03-05T09:29:51.000Z</time>
      </trkpt>
      <trkpt lat="51.154500" lon="5.685550">
        <ele>37.649881</ele>
        <time>2023-03-05T09:29:52.000Z</time>
      </trkpt>
      <trkpt lat="51.154477" lon="5.685458">
        <ele>37.651485</ele>
        <time>2023-03-05T09:29:53.000Z</time>
      </trkpt>
      <trkpt lat="51.154454" lon="5.685365">
        <ele>37.653104</ele>
        <time>2023-03-05T09:29:54.000Z</time>
      </trkpt>
      <trkpt lat="51.154431" lon="5.685269">
        <ele>37.654768</ele>
        <time>2023-03-05T09:29:55.000Z</time>
      </trkpt>
      <trkpt lat="51.154409" lon="5.685174">
        <ele>37.656408</ele>
        <time>2023-03-05T09:29:56.000Z</time>
      </trkpt>
      <trkpt lat="51.154383" lon="5.685075">
        <ele>37.658146</ele>
        <time>2023-03-05T09:29:57.000Z</time>
      </trkpt>
      <trkpt lat="51.154359" lon="5.684975">
        <ele>37.659880</ele>
        <time>2023-03-05T09:29:58.000Z</time>
      </trkpt>
      <trkpt lat="51.154334" lon="5.684878">
        <ele>37.661578</ele>
        <time>2023-03-05T09:29:59.000Z</time>
      </trkpt>
      <trkpt lat="51.154312" lon="5.684780">
        <ele>37.663264</ele>
        <time>2023-03-05T09:30:00.000Z</time>
      </trkpt>
      <trkpt lat="51.154290" lon="5.684684">
        <ele>37.664919</ele>
        <time>2023-03-05T09:30:01.000Z</time>
      </trkpt>
      <trkpt lat="51.154267" lon="5.684589">
        <ele>37.666568</ele>
        <time>2023-03-05T09:30:02.000Z</time>
      </trkpt>
      <trkpt lat="51.154245" lon="5.684494">
        <ele>37.668208</ele>
        <time>2023-03-05T09:30:03.000Z</time>
      </trkpt>
      <trkpt lat="51.154222" lon="5.684401">
        <ele>37.669827</ele>
        <time>2023-03-05T09:30:04.000Z</time>
      </trkpt>
      <trkpt lat="51.154199" lon="5.684308">
        <ele>37.671446</ele>
        <time>2023-03-05T09:30:05.000Z</time>
      </trkpt>
      <trkpt lat="51.154174" lon="5.684214">
        <ele>37.673099</ele>
        <time>2023-03-05T09:30:06.000Z</time>
      </trkpt>
      <trkpt lat="51.154150" lon="5.684117">
        <ele>37.674460</ele>
        <time>2023-03-05T09:30:07.000Z</time>
      </trkpt>
      <trkpt lat="51.154126" lon="5.684016">
        <ele>37.673150</ele>
        <time>2023-03-05T09:30:08.000Z</time>
      </trkpt>
      <trkpt lat="51.154106" lon="5.683920">
        <ele>37.671923</ele>
        <time>2023-03-05T09:30:09.000Z</time>
      </trkpt>
      <trkpt lat="51.154082" lon="5.683827">
        <ele>37.670704</ele>
        <time>2023-03-05T09:30:10.000Z</time>
      </trkpt>
      <trkpt lat="51.154060" lon="5.683733">
        <ele>37.669487</ele>
        <time>2023-03-05T09:30:11.000Z</time>
      </trkpt>
      <trkpt lat="51.154038" lon="5.683641">
        <ele>37.668293</ele>
        <time>2023-03-05T09:30:12.000Z</time>
      </trkpt>
      <trkpt lat="51.154013" lon="5.683549">
        <ele>37.667077</ele>
        <time>2023-03-05T09:30:13.000Z</time>
      </trkpt>
      <trkpt lat="51.153989" lon="5.683460">
        <ele>37.665902</ele>
        <time>2023-03-05T09:30:14.000Z</time>
      </trkpt>
      <trkpt lat="51.153968" lon="5.683368">
        <ele>37.664715</ele>
        <time>2023-03-05T09:30:15.000Z</time>
      </trkpt>
      <trkpt lat="51.153947" lon="5.683276">
        <ele>37.663528</ele>
        <time>2023-03-05T09:30:16.000Z</time>
      </trkpt>
      <trkpt lat="51.153922" lon="5.683187">
        <ele>37.662345</ele>
        <time>2023-03-05T09:30:17.000Z</time>
      </trkpt>
      <trkpt lat="51.153900" lon="5.683096">
        <ele>37.661162</ele>
        <time>2023-03-05T09:30:18.000Z</time>
      </trkpt>
      <trkpt lat="51.153878" lon="5.683003">
        <ele>37.659957</ele>
        <time>2023-03-05T09:30:19.000Z</time>
      </trkpt>
      <trkpt lat="51.153855" lon="5.682906">
        <ele>37.658699</ele>
        <time>2023-03-05T09:30:20.000Z</time>
      </trkpt>
      <trkpt lat="51.153833" lon="5.682812">
        <ele>37.657483</ele>
        <time>2023-03-05T09:30:21.000Z</time>
      </trkpt>
      <trkpt lat="51.153809" lon="5.682719">
        <ele>37.656263</ele>
        <time>2023-03-05T09:30:22.000Z</time>
      </trkpt>
      <trkpt lat="51.153789" lon="5.682626">
        <ele>37.655071</ele>
        <time>2023-03-05T09:30:23.000Z</time>
      </trkpt>
      <trkpt lat="51.153765" lon="5.682533">
        <ele>37.653851</ele>
        <time>2023-03-05T09:30:24.000Z</time>
      </trkpt>
      <trkpt lat="51.153741" lon="5.682442">
        <ele>37.652654</ele>
        <time>2023-03-05T09:30:25.000Z</time>
      </trkpt>
      <trkpt lat="51.153720" lon="5.682354">
        <ele>37.651512</ele>
        <time>2023-03-05T09:30:26.000Z</time>
      </trkpt>
      <trkpt lat="51.153699" lon="5.682267">
        <ele>37.650382</ele>
        <time>2023-03-05T09:30:27.000Z</time>
      </trkpt>
      <trkpt lat="51.153676" lon="5.682182">
        <ele>37.649259</ele>
        <time>2023-03-05T09:30:28.000Z</time>
      </trkpt>
      <trkpt lat="51.153653" lon="5.682097">
        <ele>37.648136</ele>
        <time>2023-03-05T09:30:29.000Z</time>
      </trkpt>
      <trkpt lat="51.153630" lon="5.682009">
        <ele>37.646980</ele>
        <time>2023-03-05T09:30:30.000Z</time>
      </trkpt>
      <trkpt lat="51.153610" lon="5.681920">
        <ele>37.645834</ele>
        <time>2023-03-05T09:30:31.000Z</time>
      </trkpt>
      <trkpt lat="51.153588" lon="5.681828">
        <ele>37.644640</ele>
        <time>2023-03-05T09:30:32.000Z</time>
      </trkpt>
      <trkpt lat="51.153565" lon="5.681736">
        <ele>37.643439</ele>
        <time>2023-03-05T09:30:33.000Z</time>
      </trkpt>
      <trkpt lat="51.153543" lon="5.681645">
        <ele>37.642256</ele>
        <time>2023-03-05T09:30:34.000Z</time>
      </trkpt>
      <trkpt lat="51.153520" lon="5.681553">
        <ele>37.641055</ele>
        <time>2023-03-05T09:30:35.000Z</time>
      </trkpt>
      <trkpt lat="51.153497" lon="5.681458">
        <ele>37.639846</ele>
        <time>2023-03-05T09:30:36.000Z</time>
      </trkpt>
      <trkpt lat="51.153474" lon="5.681366">
        <ele>37.645679</ele>
        <time>2023-03-05T09:30:37.000Z</time>
      </trkpt>
      <trkpt lat="51.153451" lon="5.681275">
        <ele>37.651457</ele>
        <time>2023-03-05T09:30:38.000Z</time>
      </trkpt>
      <trkpt lat="51.153430" lon="5.681183">
        <ele>37.657223</ele>
        <time>2023-03-05T09:30:39.000Z</time>
      </trkpt>
      <trkpt lat="51.153407" lon="5.681090">
        <ele>37.663110</ele>
        <time>2023-03-05T09:30:40.000Z</time>
      </trkpt>
      <trkpt lat="51.153385" lon="5.680996">
        <ele>37.669019</ele>
        <time>2023-03-05T09:30:41.000Z</time>
      </trkpt>
      <trkpt lat="51.153363" lon="5.680903">
        <ele>37.674873</ele>
        <time>2023-03-05T09:30:42.000Z</time>
      </trkpt>
      <trkpt lat="51.153340" lon="5.680806">
        <ele>37.680980</ele>
        <time>2023-03-05T09:30:43.000Z</time>
      </trkpt>
      <trkpt lat="51.153315" lon="5.680710">
        <ele>37.687102</ele>
        <time>2023-03-05T09:30:44.000Z</time>
      </trkpt>
      <trkpt lat="51.153291" lon="5.680620">
        <ele>37.692861</ele>
        <time>2023-03-05T09:30:45.000Z</time>
      </trkpt>
      <trkpt lat="51.153268" lon="5.680525">
        <ele>37.698859</ele>
        <time>2023-03-05T09:30:46.000Z</time>
      </trkpt>
      <trkpt lat="51.153245" lon="5.680430">
        <ele>37.704856</ele>
        <time>2023-03-05T09:30:47.000Z</time>
      </trkpt>
      <trkpt lat="51.153222" lon="5.680335">
        <ele>37.710853</ele>
        <time>2023-03-05T09:30:48.000Z</time>
      </trkpt>
      <trkpt lat="51.153199" lon="5.680240">
        <ele>37.716851</ele>
        <time>2023-03-05T09:30:49.000Z</time>
      </trkpt>
      <trkpt lat="51.153176" lon="5.680146">
        <ele>37.722793</ele>
        <time>2023-03-05T09:30:50.000Z</time>
      </trkpt>
      <trkpt lat="51.153153" lon="5.680049">
        <ele>37.728900</ele>
        <time>2023-03-05T09:30:51.000Z</time>
      </trkpt>
      <trkpt lat="51.153131" lon="5.679953">
        <ele>37.734920</ele>
        <time>2023-03-05T09:30:52.000Z</time>
      </trkpt>
      <trkpt lat="51.153110" lon="5.679859">
        <ele>37.740796</ele>
        <time>2023-03-05T09:30:53.000Z</time>
      </trkpt>
      <trkpt lat="51.153089" lon="5.679765">
        <ele>37.746673</ele>
        <time>2023-03-05T09:30:54.000Z</time>
      </trkpt>
      <trkpt lat="51.153066" lon="5.679670">
        <ele>37.752670</ele>
        <time>2023-03-05T09:30:55.000Z</time>
      </trkpt>
      <trkpt lat="51.153043" lon="5.679576">
        <ele>37.758613</ele>
        <time>2023-03-05T09:30:56.000Z</time>
      </trkpt>
      <trkpt lat="51.153022" lon="5.679483">
        <ele>37.764434</ele>
        <time>2023-03-05T09:30:57.000Z</time>
      </trkpt>
      <trkpt lat="51.152998" lon="5.679391">
        <ele>37.770302</ele>
        <time>2023-03-05T09:30:58.000Z</time>
      </trkpt>
      <trkpt lat="51.152974" lon="5.679300">
        <ele>37.776116</ele>
        <time>2023-03-05T09:30:59.000Z</time>
      </trkpt>
      <trkpt lat="51.152954" lon="5.679210">
        <ele>37.781740</ele>
        <time>2023-03-05T09:31:00.000Z</time>
      </trkpt>
      <trkpt lat="51.152932" lon="5.679121">
        <ele>37.787374</ele>
        <time>2023-03-05T09:31:01.000Z</time>
      </trkpt>
      <trkpt lat="51.152910" lon="5.679036">
        <ele>37.792789</ele>
        <time>2023-03-05T09:31:02.000Z</time>
      </trkpt>
      <trkpt lat="51.152887" lon="5.678948">
        <ele>37.798404</ele>
        <time>2023-03-05T09:31:03.000Z</time>
      </trkpt>
      <trkpt lat="51.152864" lon="5.678856">
        <ele>37.804237</ele>
        <time>2023-03-05T09:31:04.000Z</time>
      </trkpt>
      <trkpt lat="51.152841" lon="5.678760">
        <ele>37.812352</ele>
        <time>2023-03-05T09:31:05.000Z</time>
      </trkpt>
      <trkpt lat="51.152821" lon="5.678664">
        <ele>37.826077</ele>
        <time>2023-03-05T09:31:06.000Z</time>
      </trkpt>
      <trkpt lat="51.152799" lon="5.678566">
        <ele>37.840200</ele>
        <time>2023-03-05T09:31:07.000Z</time>
      </trkpt>
      <trkpt lat="51.152776" lon="5.678472">
        <ele>37.853890</ele>
        <time>2023-03-05T09:31:08.000Z</time>
      </trkpt>
      <trkpt lat="51.152753" lon="5.678380">
        <ele>37.867328</ele>
        <time>2023-03-05T09:31:09.000Z</time>
      </trkpt>
      <trkpt lat="51.152730" lon="5.678285">
        <ele>37.881145</ele>
        <time>2023-03-05T09:31:10.000Z</time>
      </trkpt>
      <trkpt lat="51.152707" lon="5.678190">
        <ele>37.894962</ele>
        <time>2023-03-05T09:31:11.000Z</time>
      </trkpt>
      <trkpt lat="51.152684" lon="5.678096">
        <ele>37.908652</ele>
        <time>2023-03-05T09:31:12.000Z</time>
      </trkpt>
      <trkpt lat="51.152662" lon="5.678006">
        <ele>37.921759</ele>
        <time>2023-03-05T09:31:13.000Z</time>
      </trkpt>
      <trkpt lat="51.152641" lon="5.677912">
        <ele>37.935298</ele>
        <time>2023-03-05T09:31:14.000Z</time>
      </trkpt>
      <trkpt lat="51.152619" lon="5.677815">
        <ele>37.949293</ele>
        <time>2023-03-05T09:31:15.000Z</time>
      </trkpt>
      <trkpt lat="51.152597" lon="5.677720">
        <ele>37.963034</ele>
        <time>2023-03-05T09:31:16.000Z</time>
      </trkpt>
      <trkpt lat="51.152573" lon="5.677626">
        <ele>37.976804</ele>
        <time>2023-03-05T09:31:17.000Z</time>
      </trkpt>
      <trkpt lat="51.152551" lon="5.677534">
        <ele>37.990164</ele>
        <time>2023-03-05T09:31:18.000Z</time>
      </trkpt>
      <trkpt lat="51.152530" lon="5.677441">
        <ele>38.003575</ele>
        <time>2023-03-05T09:31:19.000Z</time>
      </trkpt>
      <trkpt lat="51.152509" lon="5.677351">
        <ele>38.016604</ele>
        <time>2023-03-05T09:31:20.000Z</time>
      </trkpt>
      <trkpt lat="51.152484" lon="5.677259">
        <ele>38.030208</ele>
        <time>2023-03-05T09:31:21.000Z</time>
      </trkpt>
      <trkpt lat="51.152462" lon="5.677165">
        <ele>38.043822</ele>
        <time>2023-03-05T09:31:22.000Z</time>
      </trkpt>
      <trkpt lat="51.152440" lon="5.677072">
        <ele>38.057308</ele>
        <time>2023-03-05T09:31:23.000Z</time>
      </trkpt>
      <trkpt lat="51.152415" lon="5.676982">
        <ele>38.070664</ele>
        <time>2023-03-05T09:31:24.000Z</time>
      </trkpt>
      <trkpt lat="51.152391" lon="5.676889">
        <ele>38.084309</ele>
        <time>2023-03-05T09:31:25.000Z</time>
      </trkpt>
      <trkpt lat="51.152370" lon="5.676796">
        <ele>38.097720</ele>
        <time>2023-03-05T09:31:26.000Z</time>
      </trkpt>
      <trkpt lat="51.152348" lon="5.676705">
        <ele>38.110953</ele>
        <time>2023-03-05T09:31:27.000Z</time>
      </trkpt>
      <trkpt lat="51.152325" lon="5.676615">
        <ele>38.124139</ele>
        <time>2023-03-05T09:31:28.000Z</time>
      </trkpt>
      <trkpt lat="51.152303" lon="5.676525">
        <ele>38.137246</ele>
        <time>2023-03-05T09:31:29.000Z</time>
      </trkpt>
      <trkpt lat="51.152280" lon="5.676434">
        <ele>38.150558</ele>
        <time>2023-03-05T09:31:30.000Z</time>
      </trkpt>
      <trkpt lat="51.152257" lon="5.676343">
        <ele>38.163870</ele>
        <time>2023-03-05T09:31:31.000Z</time>
      </trkpt>
      <trkpt lat="51.152234" lon="5.676252">
        <ele>38.177182</ele>
        <time>2023-03-05T09:31:32.000Z</time>
      </trkpt>
      <trkpt lat="51.152211" lon="5.676163">
        <ele>38.190243</ele>
        <time>2023-03-05T09:31:33.000Z</time>
      </trkpt>
      <trkpt lat="51.152188" lon="5.676074">
        <ele>38.198417</ele>
        <time>2023-03-05T09:31:34.000Z</time>
      </trkpt>
      <trkpt lat="51.152166" lon="5.675984">
        <ele>38.199919</ele>
        <time>2023-03-05T09:31:35.000Z</time>
      </trkpt>
      <trkpt lat="51.152145" lon="5.675889">
        <ele>38.201484</ele>
        <time>2023-03-05T09:31:36.000Z</time>
      </trkpt>
      <trkpt lat="51.152124" lon="5.675795">
        <ele>38.203035</ele>
        <time>2023-03-05T09:31:37.000Z</time>
      </trkpt>
      <trkpt lat="51.152098" lon="5.675701">
        <ele>38.204631</ele>
        <time>2023-03-05T09:31:38.000Z</time>
      </trkpt>
      <trkpt lat="51.152074" lon="5.675607">
        <ele>38.206208</ele>
        <time>2023-03-05T09:31:39.000Z</time>
      </trkpt>
      <trkpt lat="51.152051" lon="5.675516">
        <ele>38.207733</ele>
        <time>2023-03-05T09:31:40.000Z</time>
      </trkpt>
      <trkpt lat="51.152030" lon="5.675426">
        <ele>38.209225</ele>
        <time>2023-03-05T09:31:41.000Z</time>
      </trkpt>
      <trkpt lat="51.152009" lon="5.675335">
        <ele>38.210732</ele>
        <time>2023-03-05T09:31:42.000Z</time>
      </trkpt>
      <trkpt lat="51.151989" lon="5.675243">
        <ele>38.212245</ele>
        <time>2023-03-05T09:31:43.000Z</time>
      </trkpt>
      <trkpt lat="51.151967" lon="5.675147">
        <ele>38.213834</ele>
        <time>2023-03-05T09:31:44.000Z</time>
      </trkpt>
      <trkpt lat="51.151944" lon="5.675055">
        <ele>38.215373</ele>
        <time>2023-03-05T09:31:45.000Z</time>
      </trkpt>
      <trkpt lat="51.151921" lon="5.674963">
        <ele>38.216912</ele>
        <time>2023-03-05T09:31:46.000Z</time>
      </trkpt>
      <trkpt lat="51.151898" lon="5.674870">
        <ele>38.218466</ele>
        <time>2023-03-05T09:31:47.000Z</time>
      </trkpt>
      <trkpt lat="51.151876" lon="5.674776">
        <ele>38.220025</ele>
        <time>2023-03-05T09:31:48.000Z</time>
      </trkpt>
      <trkpt lat="51.151853" lon="5.674681">
        <ele>38.221607</ele>
        <time>2023-03-05T09:31:49.000Z</time>
      </trkpt>
      <trkpt lat="51.151830" lon="5.674584">
        <ele>38.223219</ele>
        <time>2023-03-05T09:31:50.000Z</time>
      </trkpt>
      <trkpt lat="51.151807" lon="5.674489">
        <ele>38.224801</ele>
        <time>2023-03-05T09:31:51.000Z</time>
      </trkpt>
      <trkpt lat="51.151784" lon="5.674393">
        <ele>38.226398</ele>
        <time>2023-03-05T09:31:52.000Z</time>
      </trkpt>
      <trkpt lat="51.151763" lon="5.674296">
        <ele>38.227993</ele>
        <time>2023-03-05T09:31:53.000Z</time>
      </trkpt>
      <trkpt lat="51.151742" lon="5.674201">
        <ele>38.229558</ele>
        <time>2023-03-05T09:31:54.000Z</time>
      </trkpt>
      <trkpt lat="51.151719" lon="5.674106">
        <ele>38.231141</ele>
        <time>2023-03-05T09:31:55.000Z</time>
      </trkpt>
      <trkpt lat="51.151699" lon="5.674014">
        <ele>38.232654</ele>
        <time>2023-03-05T09:31:56.000Z</time>
      </trkpt>
      <trkpt lat="51.151677" lon="5.673923">
        <ele>38.234170</ele>
        <time>2023-03-05T09:31:57.000Z</time>
      </trkpt>
      <trkpt lat="51.151657" lon="5.673831">
        <ele>38.235683</ele>
        <time>2023-03-05T09:31:58.000Z</time>
      </trkpt>
      <trkpt lat="51.151635" lon="5.673741">
        <ele>38.237184</ele>
        <time>2023-03-05T09:31:59.000Z</time>
      </trkpt>
      <trkpt lat="51.151613" lon="5.673650">
        <ele>38.238700</ele>
        <time>2023-03-05T09:32:00.000Z</time>
      </trkpt>
      <trkpt lat="51.151592" lon="5.673557">
        <ele>38.240236</ele>
        <time>2023-03-05T09:32:01.000Z</time>
      </trkpt>
      <trkpt lat="51.151571" lon="5.673464">
        <ele>38.241772</ele>
        <time>2023-03-05T09:32:02.000Z</time>
      </trkpt>
      <trkpt lat="51.151550" lon="5.673371">
        <ele>38.245929</ele>
        <time>2023-03-05T09:32:03.000Z</time>
      </trkpt>
      <trkpt lat="51.151528" lon="5.673280">
        <ele>38.251582</ele>
        <time>2023-03-05T09:32:04.000Z</time>
      </trkpt>
      <trkpt lat="51.151508" lon="5.673193">
        <ele>38.256953</ele>
        <time>2023-03-05T09:32:05.000Z</time>
      </trkpt>
      <trkpt lat="51.151489" lon="5.673107">
        <ele>38.262238</ele>
        <time>2023-03-05T09:32:06.000Z</time>
      </trkpt>
      <trkpt lat="51.151467" lon="5.673021">
        <ele>38.267622</ele>
        <time>2023-03-05T09:32:07.000Z</time>
      </trkpt>
      <trkpt lat="51.151445" lon="5.672934">
        <ele>38.273059</ele>
        <time>2023-03-05T09:32:08.000Z</time>
      </trkpt>
      <trkpt lat="51.151422" lon="5.672851">
        <ele>38.278319</ele>
        <time>2023-03-05T09:32:09.000Z</time>
      </trkpt>
      <trkpt lat="51.151394" lon="5.672773">
        <ele>38.283528</ele>
        <time>2023-03-05T09:32:10.000Z</time>
      </trkpt>
      <trkpt lat="51.151361" lon="5.672698">
        <ele>38.288839</ele>
        <time>2023-03-05T09:32:11.000Z</time>
      </trkpt>
      <trkpt lat="51.151324" lon="5.672621">
        <ele>38.294461</ele>
        <time>2023-03-05T09:32:12.000Z</time>
      </trkpt>
      <trkpt lat="51.151289" lon="5.672545">
        <ele>38.299927</ele>
        <time>2023-03-05T09:32:13.000Z</time>
      </trkpt>
      <trkpt lat="51.151255" lon="5.672467">
        <ele>38.305432</ele>
        <time>2023-03-05T09:32:14.000Z</time>
      </trkpt>
      <trkpt lat="51.151218" lon="5.672385">
        <ele>38.311288</ele>
        <time>2023-03-05T09:32:15.000Z</time>
      </trkpt>
      <trkpt lat="51.151182" lon="5.672300">
        <ele>38.317233</ele>
        <time>2023-03-05T09:32:16.000Z</time>
      </trkpt>
      <trkpt lat="51.151145" lon="5.672215">
        <ele>38.323230</ele>
        <time>2023-03-05T09:32:17.000Z</time>
      </trkpt>
      <trkpt lat="51.151107" lon="5.672131">
        <ele>38.329233</ele>
        <time>2023-03-05T09:32:18.000Z</time>
      </trkpt>
      <trkpt lat="51.151071" lon="5.672048">
        <ele>38.335083</ele>
        <time>2023-03-05T09:32:19.000Z</time>
      </trkpt>
      <trkpt lat="51.151034" lon="5.671966">
        <ele>38.340938</ele>
        <time>2023-03-05T09:32:20.000Z</time>
      </trkpt>
      <trkpt lat="51.150999" lon="5.671886">
        <ele>38.346592</ele>
        <time>2023-03-05T09:32:21.000Z</time>
      </trkpt>
      <trkpt lat="51.150964" lon="5.671808">
        <ele>38.352151</ele>
        <time>2023-03-05T09:32:22.000Z</time>
      </trkpt>
      <trkpt lat="51.150930" lon="5.671728">
        <ele>38.357752</ele>
        <time>2023-03-05T09:32:23.000Z</time>
      </trkpt>
      <trkpt lat="51.150893" lon="5.671647">
        <ele>38.363561</ele>
        <time>2023-03-05T09:32:24.000Z</time>
      </trkpt>
      <trkpt lat="51.150858" lon="5.671566">
        <ele>38.369262</ele>
        <time>2023-03-05T09:32:25.000Z</time>
      </trkpt>
      <trkpt lat="51.150821" lon="5.671484">
        <ele>38.375118</ele>
        <time>2023-03-05T09:32:26.000Z</time>
      </trkpt>
      <trkpt lat="51.150783" lon="5.671402">
        <ele>38.381027</ele>
        <time>2023-03-05T09:32:27.000Z</time>
      </trkpt>
      <trkpt lat="51.150747" lon="5.671318">
        <ele>38.386924</ele>
        <time>2023-03-05T09:32:28.000Z</time>
      </trkpt>
      <trkpt lat="51.150710" lon="5.671234">
        <ele>38.392874</ele>
        <time>2023-03-05T09:32:29.000Z</time>
      </trkpt>
      <trkpt lat="51.150674" lon="5.671152">
        <ele>38.398676</ele>
        <time>2023-03-05T09:32:30.000Z</time>
      </trkpt>
      <trkpt lat="51.150640" lon="5.671073">
        <ele>38.404230</ele>
        <time>2023-03-05T09:32:31.000Z</time>
      </trkpt>
      <trkpt lat="51.150606" lon="5.670991">
        <ele>38.416973</ele>
        <time>2023-03-05T09:32:32.000Z</time>
      </trkpt>
      <trkpt lat="51.150571" lon="5.670912">
        <ele>38.451500</ele>
        <time>2023-03-05T09:32:33.000Z</time>
      </trkpt>
      <trkpt lat="51.150537" lon="5.670835">
        <ele>38.485115</ele>
        <time>2023-03-05T09:32:34.000Z</time>
      </trkpt>
      <trkpt lat="51.150503" lon="5.670759">
        <ele>38.518439</ele>
        <time>2023-03-05T09:32:35.000Z</time>
      </trkpt>
      <trkpt lat="51.150466" lon="5.670681">
        <ele>38.553350</ele>
        <time>2023-03-05T09:32:36.000Z</time>
      </trkpt>
      <trkpt lat="51.150430" lon="5.670602">
        <ele>38.588208</ele>
        <time>2023-03-05T09:32:37.000Z</time>
      </trkpt>
      <trkpt lat="51.150396" lon="5.670524">
        <ele>38.622116</ele>
        <time>2023-03-05T09:32:38.000Z</time>
      </trkpt>
      <trkpt lat="51.150362" lon="5.670446">
        <ele>38.656024</ele>
        <time>2023-03-05T09:32:39.000Z</time>
      </trkpt>
      <trkpt lat="51.150330" lon="5.670367">
        <ele>38.689595</ele>
        <time>2023-03-05T09:32:40.000Z</time>
      </trkpt>
      <trkpt lat="51.150294" lon="5.670290">
        <ele>38.723878</ele>
        <time>2023-03-05T09:32:41.000Z</time>
      </trkpt>
      <trkpt lat="51.150259" lon="5.670213">
        <ele>38.757824</ele>
        <time>2023-03-05T09:32:42.000Z</time>
      </trkpt>
      <trkpt lat="51.150225" lon="5.670134">
        <ele>38.792026</ele>
        <time>2023-03-05T09:32:43.000Z</time>
      </trkpt>
      <trkpt lat="51.150188" lon="5.670055">
        <ele>38.827222</ele>
        <time>2023-03-05T09:32:44.000Z</time>
      </trkpt>
      <trkpt lat="51.150152" lon="5.669974">
        <ele>38.862660</ele>
        <time>2023-03-05T09:32:45.000Z</time>
      </trkpt>
      <trkpt lat="51.150118" lon="5.669895">
        <ele>38.896862</ele>
        <time>2023-03-05T09:32:46.000Z</time>
      </trkpt>
      <trkpt lat="51.150083" lon="5.669812">
        <ele>38.932565</ele>
        <time>2023-03-05T09:32:47.000Z</time>
      </trkpt>
      <trkpt lat="51.150049" lon="5.669730">
        <ele>38.967655</ele>
        <time>2023-03-05T09:32:48.000Z</time>
      </trkpt>
      <trkpt lat="51.150014" lon="5.669651">
        <ele>39.002182</ele>
        <time>2023-03-05T09:32:49.000Z</time>
      </trkpt>
      <trkpt lat="51.149980" lon="5.669574">
        <ele>39.035798</ele>
        <time>2023-03-05T09:32:50.000Z</time>
      </trkpt>
      <trkpt lat="51.149946" lon="5.669496">
        <ele>39.069706</ele>
        <time>2023-03-05T09:32:51.000Z</time>
      </trkpt>
      <trkpt lat="51.149911" lon="5.669416">
        <ele>39.104525</ele>
        <time>2023-03-05T09:32:52.000Z</time>
      </trkpt>
      <trkpt lat="51.149874" lon="5.669336">
        <ele>39.140008</ele>
        <time>2023-03-05T09:32:53.000Z</time>
      </trkpt>
      <trkpt lat="51.149839" lon="5.669257">
        <ele>39.174535</ele>
        <time>2023-03-05T09:32:54.000Z</time>
      </trkpt>
      <trkpt lat="51.149802" lon="5.669177">
        <ele>39.210018</ele>
        <time>2023-03-05T09:32:55.000Z</time>
      </trkpt>
      <trkpt lat="51.149767" lon="5.669097">
        <ele>39.244837</ele>
        <time>2023-03-05T09:32:56.000Z</time>
      </trkpt>
      <trkpt lat="51.149733" lon="5.669017">
        <ele>39.279334</ele>
        <time>2023-03-05T09:32:57.000Z</time>
      </trkpt>
      <trkpt lat="51.149698" lon="5.668937">
        <ele>39.314154</ele>
        <time>2023-03-05T09:32:58.000Z</time>
      </trkpt>
      <trkpt lat="51.149661" lon="5.668857">
        <ele>39.349636</ele>
        <time>2023-03-05T09:32:59.000Z</time>
      </trkpt>
      <trkpt lat="51.149625" lon="5.668779">
        <ele>39.384207</ele>
        <time>2023-03-05T09:33:00.000Z</time>
      </trkpt>
      <trkpt lat="51.149591" lon="5.668700">
        <ele>39.418409</ele>
        <time>2023-03-05T09:33:01.000Z</time>
      </trkpt>
      <trkpt lat="51.149557" lon="5.668620">
        <ele>39.447431</ele>
        <time>2023-03-05T09:33:02.000Z</time>
      </trkpt>
      <trkpt lat="51.149522" lon="5.668540">
        <ele>39.473054</ele>
        <time>2023-03-05T09:33:03.000Z</time>
      </trkpt>
      <trkpt lat="51.149488" lon="5.668460">
        <ele>39.498439</ele>
        <time>2023-03-05T09:33:04.000Z</time>
      </trkpt>
      <trkpt lat="51.149454" lon="5.668379">
        <ele>39.524043</ele>
        <time>2023-03-05T09:33:05.000Z</time>
      </trkpt>
      <trkpt lat="51.149417" lon="5.668298">
        <ele>39.550366</ele>
        <time>2023-03-05T09:33:06.000Z</time>
      </trkpt>
      <trkpt lat="51.149381" lon="5.668217">
        <ele>39.576444</ele>
        <time>2023-03-05T09:33:07.000Z</time>
      </trkpt>
      <trkpt lat="51.149345" lon="5.668135">
        <ele>39.602737</ele>
        <time>2023-03-05T09:33:08.000Z</time>
      </trkpt>
      <trkpt lat="51.149309" lon="5.668050">
        <ele>39.629680</ele>
        <time>2023-03-05T09:33:09.000Z</time>
      </trkpt>
      <trkpt lat="51.149275" lon="5.667968">
        <ele>39.655502</ele>
        <time>2023-03-05T09:33:10.000Z</time>
      </trkpt>
      <trkpt lat="51.149240" lon="5.667887">
        <ele>39.681341</ele>
        <time>2023-03-05T09:33:11.000Z</time>
      </trkpt>
      <trkpt lat="51.149208" lon="5.667809">
        <ele>39.705825</ele>
        <time>2023-03-05T09:33:12.000Z</time>
      </trkpt>
      <trkpt lat="51.149175" lon="5.667732">
        <ele>39.730324</ele>
        <time>2023-03-05T09:33:13.000Z</time>
      </trkpt>
      <trkpt lat="51.149141" lon="5.667654">
        <ele>39.755276</ele>
        <time>2023-03-05T09:33:14.000Z</time>
      </trkpt>
      <trkpt lat="51.149107" lon="5.667575">
        <ele>39.780445</ele>
        <time>2023-03-05T09:33:15.000Z</time>
      </trkpt>
      <trkpt lat="51.149072" lon="5.667497">
        <ele>39.805638</ele>
        <time>2023-03-05T09:33:16.000Z</time>
      </trkpt>
      <trkpt lat="51.149038" lon="5.667419">
        <ele>39.830591</ele>
        <time>2023-03-05T09:33:17.000Z</time>
      </trkpt>
      <trkpt lat="51.149004" lon="5.667342">
        <ele>39.855328</ele>
        <time>2023-03-05T09:33:18.000Z</time>
      </trkpt>
      <trkpt lat="51.148969" lon="5.667263">
        <ele>39.880736</ele>
        <time>2023-03-05T09:33:19.000Z</time>
      </trkpt>
      <trkpt lat="51.148932" lon="5.667184">
        <ele>39.906636</ele>
        <time>2023-03-05T09:33:20.000Z</time>
      </trkpt>
      <trkpt lat="51.148894" lon="5.667105">
        <ele>39.932789</ele>
        <time>2023-03-05T09:33:21.000Z</time>
      </trkpt>
      <trkpt lat="51.148856" lon="5.667024">
        <ele>39.959360</ele>
        <time>2023-03-05T09:33:22.000Z</time>
      </trkpt>
      <trkpt lat="51.148818" lon="5.666941">
        <ele>39.986355</ele>
        <time>2023-03-05T09:33:23.000Z</time>
      </trkpt>
      <trkpt lat="51.148780" lon="5.666857">
        <ele>40.013562</ele>
        <time>2023-03-05T09:33:24.000Z</time>
      </trkpt>
      <trkpt lat="51.148742" lon="5.666775">
        <ele>40.040344</ele>
        <time>2023-03-05T09:33:25.000Z</time>
      </trkpt>
      <trkpt lat="51.148707" lon="5.666695">
        <ele>40.065967</ele>
        <time>2023-03-05T09:33:26.000Z</time>
      </trkpt>
      <trkpt lat="51.148670" lon="5.666616">
        <ele>40.091868</ele>
        <time>2023-03-05T09:33:27.000Z</time>
      </trkpt>
      <trkpt lat="51.148634" lon="5.666536">
        <ele>40.117733</ele>
        <time>2023-03-05T09:33:28.000Z</time>
      </trkpt>
      <trkpt lat="51.148602" lon="5.666455">
        <ele>40.142880</ele>
        <time>2023-03-05T09:33:29.000Z</time>
      </trkpt>
      <trkpt lat="51.148569" lon="5.666372">
        <ele>40.168696</ele>
        <time>2023-03-05T09:33:30.000Z</time>
      </trkpt>
      <trkpt lat="51.148534" lon="5.666289">
        <ele>40.194026</ele>
        <time>2023-03-05T09:33:31.000Z</time>
      </trkpt>
      <trkpt lat="51.148498" lon="5.666208">
        <ele>40.217526</ele>
        <time>2023-03-05T09:33:32.000Z</time>
      </trkpt>
      <trkpt lat="51.148459" lon="5.666125">
        <ele>40.242075</ele>
        <time>2023-03-05T09:33:33.000Z</time>
      </trkpt>
      <trkpt lat="51.148423" lon="5.666042">
        <ele>40.265963</ele>
        <time>2023-03-05T09:33:34.000Z</time>
      </trkpt>
      <trkpt lat="51.148389" lon="5.665962">
        <ele>40.288839</ele>
        <time>2023-03-05T09:33:35.000Z</time>
      </trkpt>
      <trkpt lat="51.148355" lon="5.665883">
        <ele>40.311519</ele>
        <time>2023-03-05T09:33:36.000Z</time>
      </trkpt>
      <trkpt lat="51.148321" lon="5.665804">
        <ele>40.334199</ele>
        <time>2023-03-05T09:33:37.000Z</time>
      </trkpt>
      <trkpt lat="51.148286" lon="5.665724">
        <ele>40.357288</ele>
        <time>2023-03-05T09:33:38.000Z</time>
      </trkpt>
      <trkpt lat="51.148252" lon="5.665641">
        <ele>40.380755</ele>
        <time>2023-03-05T09:33:39.000Z</time>
      </trkpt>
      <trkpt lat="51.148215" lon="5.665558">
        <ele>40.404860</ele>
        <time>2023-03-05T09:33:40.000Z</time>
      </trkpt>
      <trkpt lat="51.148180" lon="5.665476">
        <ele>40.428339</ele>
        <time>2023-03-05T09:33:41.000Z</time>
      </trkpt>
      <trkpt lat="51.148143" lon="5.665396">
        <ele>40.451868</ele>
        <time>2023-03-05T09:33:42.000Z</time>
      </trkpt>
      <trkpt lat="51.148107" lon="5.665316">
        <ele>40.475176</ele>
        <time>2023-03-05T09:33:43.000Z</time>
      </trkpt>
      <trkpt lat="51.148070" lon="5.665236">
        <ele>40.498705</ele>
        <time>2023-03-05T09:33:44.000Z</time>
      </trkpt>
      <trkpt lat="51.148035" lon="5.665155">
        <ele>40.521989</ele>
        <time>2023-03-05T09:33:45.000Z</time>
      </trkpt>
      <trkpt lat="51.147998" lon="5.665073">
        <ele>40.545901</ele>
        <time>2023-03-05T09:33:46.000Z</time>
      </trkpt>
      <trkpt lat="51.147960" lon="5.664991">
        <ele>40.570036</ele>
        <time>2023-03-05T09:33:47.000Z</time>
      </trkpt>
      <trkpt lat="51.147924" lon="5.664909">
        <ele>40.593729</ele>
        <time>2023-03-05T09:33:48.000Z</time>
      </trkpt>
      <trkpt lat="51.147887" lon="5.664827">
        <ele>40.617642</ele>
        <time>2023-03-05T09:33:49.000Z</time>
      </trkpt>
      <trkpt lat="51.147849" lon="5.664747">
        <ele>40.641397</ele>
        <time>2023-03-05T09:33:50.000Z</time>
      </trkpt>
      <trkpt lat="51.147813" lon="5.664666">
        <ele>40.664897</ele>
        <time>2023-03-05T09:33:51.000Z</time>
      </trkpt>
      <trkpt lat="51.147779" lon="5.664584">
        <ele>40.688166</ele>
        <time>2023-03-05T09:33:52.000Z</time>
      </trkpt>
      <trkpt lat="51.147745" lon="5.664503">
        <ele>40.711239</ele>
        <time>2023-03-05T09:33:53.000Z</time>
      </trkpt>
      <trkpt lat="51.147708" lon="5.664420">
        <ele>40.735343</ele>
        <time>2023-03-05T09:33:54.000Z</time>
      </trkpt>
      <trkpt lat="51.147673" lon="5.664339">
        <ele>40.758628</ele>
        <time>2023-03-05T09:33:55.000Z</time>
      </trkpt>
      <trkpt lat="51.147638" lon="5.664257">
        <ele>40.782107</ele>
        <time>2023-03-05T09:33:56.000Z</time>
      </trkpt>
      <trkpt lat="51.147601" lon="5.664174">
        <ele>40.806212</ele>
        <time>2023-03-05T09:33:57.000Z</time>
      </trkpt>
      <trkpt lat="51.147563" lon="5.664093">
        <ele>40.830156</ele>
        <time>2023-03-05T09:33:58.000Z</time>
      </trkpt>
      <trkpt lat="51.147527" lon="5.664012">
        <ele>40.853657</ele>
        <time>2023-03-05T09:33:59.000Z</time>
      </trkpt>
      <trkpt lat="51.147493" lon="5.663928">
        <ele>40.871231</ele>
        <time>2023-03-05T09:34:00.000Z</time>
      </trkpt>
      <trkpt lat="51.147456" lon="5.663844">
        <ele>40.884254</ele>
        <time>2023-03-05T09:34:01.000Z</time>
      </trkpt>
      <trkpt lat="51.147418" lon="5.663759">
        <ele>40.897498</ele>
        <time>2023-03-05T09:34:02.000Z</time>
      </trkpt>
      <trkpt lat="51.147382" lon="5.663675">
        <ele>40.910406</ele>
        <time>2023-03-05T09:34:03.000Z</time>
      </trkpt>
      <trkpt lat="51.147346" lon="5.663592">
        <ele>40.923210</ele>
        <time>2023-03-05T09:34:04.000Z</time>
      </trkpt>
      <trkpt lat="51.147310" lon="5.663508">
        <ele>40.936118</ele>
        <time>2023-03-05T09:34:05.000Z</time>
      </trkpt>
      <trkpt lat="51.147273" lon="5.663423">
        <ele>40.949245</ele>
        <time>2023-03-05T09:34:06.000Z</time>
      </trkpt>
      <trkpt lat="51.147237" lon="5.663339">
        <ele>40.962153</ele>
        <time>2023-03-05T09:34:07.000Z</time>
      </trkpt>
      <trkpt lat="51.147201" lon="5.663255">
        <ele>40.975062</ele>
        <time>2023-03-05T09:34:08.000Z</time>
      </trkpt>
      <trkpt lat="51.147162" lon="5.663170">
        <ele>40.988424</ele>
        <time>2023-03-05T09:34:09.000Z</time>
      </trkpt>
      <trkpt lat="51.147124" lon="5.663084">
        <ele>41.001771</ele>
        <time>2023-03-05T09:34:10.000Z</time>
      </trkpt>
      <trkpt lat="51.147089" lon="5.662999">
        <ele>41.014672</ele>
        <time>2023-03-05T09:34:11.000Z</time>
      </trkpt>
      <trkpt lat="51.147052" lon="5.662914">
        <ele>41.027800</ele>
        <time>2023-03-05T09:34:12.000Z</time>
      </trkpt>
      <trkpt lat="51.147016" lon="5.662831">
        <ele>41.040604</ele>
        <time>2023-03-05T09:34:13.000Z</time>
      </trkpt>
      <trkpt lat="51.146979" lon="5.662748">
        <ele>41.053523</ele>
        <time>2023-03-05T09:34:14.000Z</time>
      </trkpt>
      <trkpt lat="51.146942" lon="5.662666">
        <ele>41.066340</ele>
        <time>2023-03-05T09:34:15.000Z</time>
      </trkpt>
      <trkpt lat="51.146906" lon="5.662584">
        <ele>41.079040</ele>
        <time>2023-03-05T09:34:16.000Z</time>
      </trkpt>
      <trkpt lat="51.146871" lon="5.662501">
        <ele>41.091729</ele>
        <time>2023-03-05T09:34:17.000Z</time>
      </trkpt>
      <trkpt lat="51.146835" lon="5.662419">
        <ele>41.104429</ele>
        <time>2023-03-05T09:34:18.000Z</time>
      </trkpt>
      <trkpt lat="51.146799" lon="5.662335">
        <ele>41.117337</ele>
        <time>2023-03-05T09:34:19.000Z</time>
      </trkpt>
      <trkpt lat="51.146762" lon="5.662250">
        <ele>41.130465</ele>
        <time>2023-03-05T09:34:20.000Z</time>
      </trkpt>
      <trkpt lat="51.146726" lon="5.662166">
        <ele>41.143373</ele>
        <time>2023-03-05T09:34:21.000Z</time>
      </trkpt>
      <trkpt lat="51.146689" lon="5.662081">
        <ele>41.156501</ele>
        <time>2023-03-05T09:34:22.000Z</time>
      </trkpt>
      <trkpt lat="51.146654" lon="5.661996">
        <ele>41.169402</ele>
        <time>2023-03-05T09:34:23.000Z</time>
      </trkpt>
      <trkpt lat="51.146618" lon="5.661911">
        <ele>41.182415</ele>
        <time>2023-03-05T09:34:24.000Z</time>
      </trkpt>
      <trkpt lat="51.146579" lon="5.661826">
        <ele>41.195778</ele>
        <time>2023-03-05T09:34:25.000Z</time>
      </trkpt>
      <trkpt lat="51.146541" lon="5.661743">
        <ele>41.208816</ele>
        <time>2023-03-05T09:34:26.000Z</time>
      </trkpt>
      <trkpt lat="51.146503" lon="5.661657">
        <ele>41.222163</ele>
        <time>2023-03-05T09:34:27.000Z</time>
      </trkpt>
      <trkpt lat="51.146464" lon="5.661572">
        <ele>41.238458</ele>
        <time>2023-03-05T09:34:28.000Z</time>
      </trkpt>
      <trkpt lat="51.146427" lon="5.661491">
        <ele>41.256126</ele>
        <time>2023-03-05T09:34:29.000Z</time>
      </trkpt>
      <trkpt lat="51.146391" lon="5.661406">
        <ele>41.274209</ele>
        <time>2023-03-05T09:34:30.000Z</time>
      </trkpt>
      <trkpt lat="51.146351" lon="5.661322">
        <ele>41.292804</ele>
        <time>2023-03-05T09:34:31.000Z</time>
      </trkpt>
      <trkpt lat="51.146314" lon="5.661241">
        <ele>41.310471</ele>
        <time>2023-03-05T09:34:32.000Z</time>
      </trkpt>
      <trkpt lat="51.146278" lon="5.661158">
        <ele>41.328263</ele>
        <time>2023-03-05T09:34:33.000Z</time>
      </trkpt>
      <trkpt lat="51.146240" lon="5.661076">
        <ele>41.346239</ele>
        <time>2023-03-05T09:34:34.000Z</time>
      </trkpt>
      <trkpt lat="51.146201" lon="5.660995">
        <ele>41.364243</ele>
        <time>2023-03-05T09:34:35.000Z</time>
      </trkpt>
      <trkpt lat="51.146165" lon="5.660910">
        <ele>41.382326</ele>
        <time>2023-03-05T09:34:36.000Z</time>
      </trkpt>
      <trkpt lat="51.146129" lon="5.660827">
        <ele>41.400119</ele>
        <time>2023-03-05T09:34:37.000Z</time>
      </trkpt>
      <trkpt lat="51.146091" lon="5.660740">
        <ele>41.418811</ele>
        <time>2023-03-05T09:34:38.000Z</time>
      </trkpt>
      <trkpt lat="51.146055" lon="5.660652">
        <ele>41.437335</ele>
        <time>2023-03-05T09:34:39.000Z</time>
      </trkpt>
      <trkpt lat="51.146018" lon="5.660566">
        <ele>41.455723</ele>
        <time>2023-03-05T09:34:40.000Z</time>
      </trkpt>
      <trkpt lat="51.145982" lon="5.660483">
        <ele>41.473515</ele>
        <time>2023-03-05T09:34:41.000Z</time>
      </trkpt>
      <trkpt lat="51.145946" lon="5.660402">
        <ele>41.491018</ele>
        <time>2023-03-05T09:34:42.000Z</time>
      </trkpt>
      <trkpt lat="51.145908" lon="5.660322">
        <ele>41.508712</ele>
        <time>2023-03-05T09:34:43.000Z</time>
      </trkpt>
      <trkpt lat="51.145870" lon="5.660241">
        <ele>41.526546</ele>
        <time>2023-03-05T09:34:44.000Z</time>
      </trkpt>
      <trkpt lat="51.145831" lon="5.660157">
        <ele>41.544972</ele>
        <time>2023-03-05T09:34:45.000Z</time>
      </trkpt>
      <trkpt lat="51.145795" lon="5.660071">
        <ele>41.563202</ele>
        <time>2023-03-05T09:34:46.000Z</time>
      </trkpt>
      <trkpt lat="51.145761" lon="5.659985">
        <ele>41.581126</ele>
        <time>2023-03-05T09:34:47.000Z</time>
      </trkpt>
      <trkpt lat="51.145724" lon="5.659900">
        <ele>41.599369</ele>
        <time>2023-03-05T09:34:48.000Z</time>
      </trkpt>
      <trkpt lat="51.145686" lon="5.659817">
        <ele>41.617487</ele>
        <time>2023-03-05T09:34:49.000Z</time>
      </trkpt>
      <trkpt lat="51.145648" lon="5.659736">
        <ele>41.635321</ele>
        <time>2023-03-05T09:34:50.000Z</time>
      </trkpt>
      <trkpt lat="51.145615" lon="5.659656">
        <ele>41.652203</ele>
        <time>2023-03-05T09:34:51.000Z</time>
      </trkpt>
      <trkpt lat="51.145581" lon="5.659576">
        <ele>41.669242</ele>
        <time>2023-03-05T09:34:52.000Z</time>
      </trkpt>
      <trkpt lat="51.145548" lon="5.659501">
        <ele>41.685395</ele>
        <time>2023-03-05T09:34:53.000Z</time>
      </trkpt>
      <trkpt lat="51.145513" lon="5.659426">
        <ele>41.701877</ele>
        <time>2023-03-05T09:34:54.000Z</time>
      </trkpt>
      <trkpt lat="51.145479" lon="5.659353">
        <ele>41.717908</ele>
        <time>2023-03-05T09:34:55.000Z</time>
      </trkpt>
      <trkpt lat="51.145445" lon="5.659283">
        <ele>41.733518</ele>
        <time>2023-03-05T09:34:56.000Z</time>
      </trkpt>
      <trkpt lat="51.145415" lon="5.659214">
        <ele>41.727460</ele>
        <time>2023-03-05T09:34:57.000Z</time>
      </trkpt>
      <trkpt lat="51.145384" lon="5.659146">
        <ele>41.721362</ele>
        <time>2023-03-05T09:34:58.000Z</time>
      </trkpt>
      <trkpt lat="51.145352" lon="5.659077">
        <ele>41.715138</ele>
        <time>2023-03-05T09:34:59.000Z</time>
      </trkpt>
      <trkpt lat="51.145321" lon="5.659008">
        <ele>41.708982</ele>
        <time>2023-03-05T09:35:00.000Z</time>
      </trkpt>
      <trkpt lat="51.145291" lon="5.658938">
        <ele>41.702833</ele>
        <time>2023-03-05T09:35:01.000Z</time>
      </trkpt>
      <trkpt lat="51.145260" lon="5.658868">
        <ele>41.696618</ele>
        <time>2023-03-05T09:35:02.000Z</time>
      </trkpt>
      <trkpt lat="51.145229" lon="5.658797">
        <ele>41.690343</ele>
        <time>2023-03-05T09:35:03.000Z</time>
      </trkpt>
      <trkpt lat="51.145199" lon="5.658728">
        <ele>41.684254</ele>
        <time>2023-03-05T09:35:04.000Z</time>
      </trkpt>
      <trkpt lat="51.145169" lon="5.658662">
        <ele>41.678342</ele>
        <time>2023-03-05T09:35:05.000Z</time>
      </trkpt>
      <trkpt lat="51.145140" lon="5.658599">
        <ele>41.672674</ele>
        <time>2023-03-05T09:35:06.000Z</time>
      </trkpt>
      <trkpt lat="51.145111" lon="5.658536">
        <ele>41.667006</ele>
        <time>2023-03-05T09:35:07.000Z</time>
      </trkpt>
      <trkpt lat="51.145083" lon="5.658474">
        <ele>41.661465</ele>
        <time>2023-03-05T09:35:08.000Z</time>
      </trkpt>
      <trkpt lat="51.145056" lon="5.658416">
        <ele>41.656226</ele>
        <time>2023-03-05T09:35:09.000Z</time>
      </trkpt>
      <trkpt lat="51.145025" lon="5.658367">
        <ele>41.651178</ele>
        <time>2023-03-05T09:35:10.000Z</time>
      </trkpt>
      <trkpt lat="51.144984" lon="5.658339">
        <ele>41.646021</ele>
        <time>2023-03-05T09:35:11.000Z</time>
      </trkpt>
      <trkpt lat="51.144936" lon="5.658342">
        <ele>41.640467</ele>
        <time>2023-03-05T09:35:12.000Z</time>
      </trkpt>
      <trkpt lat="51.144883" lon="5.658372">
        <ele>41.633964</ele>
        <time>2023-03-05T09:35:13.000Z</time>
      </trkpt>
      <trkpt lat="51.144832" lon="5.658418">
        <ele>41.627189</ele>
        <time>2023-03-05T09:35:14.000Z</time>
      </trkpt>
      <trkpt lat="51.144780" lon="5.658472">
        <ele>41.620013</ele>
        <time>2023-03-05T09:35:15.000Z</time>
      </trkpt>
      <trkpt lat="51.144726" lon="5.658530">
        <ele>41.612484</ele>
        <time>2023-03-05T09:35:16.000Z</time>
      </trkpt>
      <trkpt lat="51.144671" lon="5.658588">
        <ele>41.604859</ele>
        <time>2023-03-05T09:35:17.000Z</time>
      </trkpt>
      <trkpt lat="51.144616" lon="5.658646">
        <ele>41.597234</ele>
        <time>2023-03-05T09:35:18.000Z</time>
      </trkpt>
      <trkpt lat="51.144560" lon="5.658705">
        <ele>41.589473</ele>
        <time>2023-03-05T09:35:19.000Z</time>
      </trkpt>
      <trkpt lat="51.144503" lon="5.658762">
        <ele>41.581693</ele>
        <time>2023-03-05T09:35:20.000Z</time>
      </trkpt>
      <trkpt lat="51.144449" lon="5.658818">
        <ele>41.574244</ele>
        <time>2023-03-05T09:35:21.000Z</time>
      </trkpt>
      <trkpt lat="51.144396" lon="5.658875">
        <ele>41.566852</ele>
        <time>2023-03-05T09:35:22.000Z</time>
      </trkpt>
      <trkpt lat="51.144342" lon="5.658935">
        <ele>41.559241</ele>
        <time>2023-03-05T09:35:23.000Z</time>
      </trkpt>
      <trkpt lat="51.144288" lon="5.658993">
        <ele>41.551712</ele>
        <time>2023-03-05T09:35:24.000Z</time>
      </trkpt>
      <trkpt lat="51.144232" lon="5.659047">
        <ele>41.544145</ele>
        <time>2023-03-05T09:35:25.000Z</time>
      </trkpt>
      <trkpt lat="51.144180" lon="5.659102">
        <ele>41.536929</ele>
        <time>2023-03-05T09:35:26.000Z</time>
      </trkpt>
      <trkpt lat="51.144128" lon="5.659155">
        <ele>41.529792</ele>
        <time>2023-03-05T09:35:27.000Z</time>
      </trkpt>
      <trkpt lat="51.144077" lon="5.659207">
        <ele>41.533779</ele>
        <time>2023-03-05T09:35:28.000Z</time>
      </trkpt>
      <trkpt lat="51.144025" lon="5.659259">
        <ele>41.554693</ele>
        <time>2023-03-05T09:35:29.000Z</time>
      </trkpt>
      <trkpt lat="51.143976" lon="5.659311">
        <ele>41.574748</ele>
        <time>2023-03-05T09:35:30.000Z</time>
      </trkpt>
      <trkpt lat="51.143928" lon="5.659361">
        <ele>41.594284</ele>
        <time>2023-03-05T09:35:31.000Z</time>
      </trkpt>
      <trkpt lat="51.143879" lon="5.659409">
        <ele>41.613879</ele>
        <time>2023-03-05T09:35:32.000Z</time>
      </trkpt>
      <trkpt lat="51.143829" lon="5.659447">
        <ele>41.632751</ele>
        <time>2023-03-05T09:35:33.000Z</time>
      </trkpt>
      <trkpt lat="51.143780" lon="5.659462">
        <ele>41.649750</ele>
        <time>2023-03-05T09:35:34.000Z</time>
      </trkpt>
      <trkpt lat="51.143732" lon="5.659449">
        <ele>41.666338</ele>
        <time>2023-03-05T09:35:35.000Z</time>
      </trkpt>
      <trkpt lat="51.143681" lon="5.659416">
        <ele>41.685090</ele>
        <time>2023-03-05T09:35:36.000Z</time>
      </trkpt>
      <trkpt lat="51.143626" lon="5.659377">
        <ele>41.705599</ele>
        <time>2023-03-05T09:35:37.000Z</time>
      </trkpt>
      <trkpt lat="51.143566" lon="5.659340">
        <ele>41.727517</ele>
        <time>2023-03-05T09:35:38.000Z</time>
      </trkpt>
      <trkpt lat="51.143508" lon="5.659307">
        <ele>41.748499</ele>
        <time>2023-03-05T09:35:39.000Z</time>
      </trkpt>
      <trkpt lat="51.143450" lon="5.659277">
        <ele>41.769273</ele>
        <time>2023-03-05T09:35:40.000Z</time>
      </trkpt>
      <trkpt lat="51.143390" lon="5.659250">
        <ele>41.790514</ele>
        <time>2023-03-05T09:35:41.000Z</time>
      </trkpt>
      <trkpt lat="51.143332" lon="5.659222">
        <ele>41.811161</ele>
        <time>2023-03-05T09:35:42.000Z</time>
      </trkpt>
      <trkpt lat="51.143275" lon="5.659196">
        <ele>41.831360</ele>
        <time>2023-03-05T09:35:43.000Z</time>
      </trkpt>
      <trkpt lat="51.143220" lon="5.659174">
        <ele>41.850679</ele>
        <time>2023-03-05T09:35:44.000Z</time>
      </trkpt>
      <trkpt lat="51.143167" lon="5.659154">
        <ele>41.869235</ele>
        <time>2023-03-05T09:35:45.000Z</time>
      </trkpt>
      <trkpt lat="51.143118" lon="5.659133">
        <ele>41.886522</ele>
        <time>2023-03-05T09:35:46.000Z</time>
      </trkpt>
      <trkpt lat="51.143072" lon="5.659112">
        <ele>41.902825</ele>
        <time>2023-03-05T09:35:47.000Z</time>
      </trkpt>
      <trkpt lat="51.143031" lon="5.659093">
        <ele>41.917371</ele>
        <time>2023-03-05T09:35:48.000Z</time>
      </trkpt>
      <trkpt lat="51.142990" lon="5.659078">
        <ele>41.931703</ele>
        <time>2023-03-05T09:35:49.000Z</time>
      </trkpt>
      <trkpt lat="51.142953" lon="5.659064">
        <ele>41.944659</ele>
        <time>2023-03-05T09:35:50.000Z</time>
      </trkpt>
      <trkpt lat="51.142917" lon="5.659049">
        <ele>41.957336</ele>
        <time>2023-03-05T09:35:51.000Z</time>
      </trkpt>
      <trkpt lat="51.142881" lon="5.659036">
        <ele>41.969912</ele>
        <time>2023-03-05T09:35:52.000Z</time>
      </trkpt>
      <trkpt lat="51.142849" lon="5.659027">
        <ele>41.980983</ele>
        <time>2023-03-05T09:35:53.000Z</time>
      </trkpt>
      <trkpt lat="51.142821" lon="5.659019">
        <ele>41.990674</ele>
        <time>2023-03-05T09:35:54.000Z</time>
      </trkpt>
      <trkpt lat="51.142797" lon="5.659021">
        <ele>41.998862</ele>
        <time>2023-03-05T09:35:55.000Z</time>
      </trkpt>
      <trkpt lat="51.142776" lon="5.659035">
        <ele>42.006618</ele>
        <time>2023-03-05T09:35:56.000Z</time>
      </trkpt>
      <trkpt lat="51.142762" lon="5.659062">
        <ele>42.014105</ele>
        <time>2023-03-05T09:35:57.000Z</time>
      </trkpt>
      <trkpt lat="51.142753" lon="5.659101">
        <ele>42.022987</ele>
        <time>2023-03-05T09:35:58.000Z</time>
      </trkpt>
      <trkpt lat="51.142745" lon="5.659151">
        <ele>42.034016</ele>
        <time>2023-03-05T09:35:59.000Z</time>
      </trkpt>
      <trkpt lat="51.142740" lon="5.659203">
        <ele>42.045261</ele>
        <time>2023-03-05T09:36:00.000Z</time>
      </trkpt>
      <trkpt lat="51.142738" lon="5.659253">
        <ele>42.055970</ele>
        <time>2023-03-05T09:36:01.000Z</time>
      </trkpt>
      <trkpt lat="51.142738" lon="5.659306">
        <ele>42.067298</ele>
        <time>2023-03-05T09:36:02.000Z</time>
      </trkpt>
      <trkpt lat="51.142738" lon="5.659360">
        <ele>42.078841</ele>
        <time>2023-03-05T09:36:03.000Z</time>
      </trkpt>
      <trkpt lat="51.142734" lon="5.659411">
        <ele>42.089827</ele>
        <time>2023-03-05T09:36:04.000Z</time>
      </trkpt>
      <trkpt lat="51.142721" lon="5.659452">
        <ele>42.099646</ele>
        <time>2023-03-05T09:36:05.000Z</time>
      </trkpt>
      <trkpt lat="51.142699" lon="5.659471">
        <ele>42.108171</ele>
        <time>2023-03-05T09:36:06.000Z</time>
      </trkpt>
      <trkpt lat="51.142670" lon="5.659470">
        <ele>42.118053</ele>
        <time>2023-03-05T09:36:07.000Z</time>
      </trkpt>
      <trkpt lat="51.142642" lon="5.659450">
        <ele>42.128507</ele>
        <time>2023-03-05T09:36:08.000Z</time>
      </trkpt>
      <trkpt lat="51.142613" lon="5.659421">
        <ele>42.138019</ele>
        <time>2023-03-05T09:36:09.000Z</time>
      </trkpt>
      <trkpt lat="51.142577" lon="5.659399">
        <ele>42.135494</ele>
        <time>2023-03-05T09:36:10.000Z</time>
      </trkpt>
      <trkpt lat="51.142541" lon="5.659380">
        <ele>42.133011</ele>
        <time>2023-03-05T09:36:11.000Z</time>
      </trkpt>
      <trkpt lat="51.142514" lon="5.659350">
        <ele>42.130855</ele>
        <time>2023-03-05T09:36:12.000Z</time>
      </trkpt>
      <trkpt lat="51.142501" lon="5.659299">
        <ele>42.128593</ele>
        <time>2023-03-05T09:36:13.000Z</time>
      </trkpt>
      <trkpt lat="51.142496" lon="5.659234">
        <ele>42.125903</ele>
        <time>2023-03-05T09:36:14.000Z</time>
      </trkpt>
      <trkpt lat="51.142494" lon="5.659162">
        <ele>42.122942</ele>
        <time>2023-03-05T09:36:15.000Z</time>
      </trkpt>
      <trkpt lat="51.142492" lon="5.659086">
        <ele>42.119816</ele>
        <time>2023-03-05T09:36:16.000Z</time>
      </trkpt>
      <trkpt lat="51.142488" lon="5.659008">
        <ele>42.116601</ele>
        <time>2023-03-05T09:36:17.000Z</time>
      </trkpt>
      <trkpt lat="51.142482" lon="5.658933">
        <ele>42.113494</ele>
        <time>2023-03-05T09:36:18.000Z</time>
      </trkpt>
      <trkpt lat="51.142460" lon="5.658869">
        <ele>42.110496</ele>
        <time>2023-03-05T09:36:19.000Z</time>
      </trkpt>
      <trkpt lat="51.142418" lon="5.658828">
        <ele>42.107270</ele>
        <time>2023-03-05T09:36:20.000Z</time>
      </trkpt>
      <trkpt lat="51.142363" lon="5.658808">
        <ele>42.103576</ele>
        <time>2023-03-05T09:36:21.000Z</time>
      </trkpt>
      <trkpt lat="51.142303" lon="5.658800">
        <ele>42.099633</ele>
        <time>2023-03-05T09:36:22.000Z</time>
      </trkpt>
      <trkpt lat="51.142244" lon="5.658794">
        <ele>42.095761</ele>
        <time>2023-03-05T09:36:23.000Z</time>
      </trkpt>
      <trkpt lat="51.142188" lon="5.658785">
        <ele>42.092075</ele>
        <time>2023-03-05T09:36:24.000Z</time>
      </trkpt>
      <trkpt lat="51.142131" lon="5.658773">
        <ele>42.088310</ele>
        <time>2023-03-05T09:36:25.000Z</time>
      </trkpt>
      <trkpt lat="51.142073" lon="5.658761">
        <ele>42.084480</ele>
        <time>2023-03-05T09:36:26.000Z</time>
      </trkpt>
      <trkpt lat="51.142019" lon="5.658751">
        <ele>42.080919</ele>
        <time>2023-03-05T09:36:27.000Z</time>
      </trkpt>
      <trkpt lat="51.141965" lon="5.658747">
        <ele>42.077379</ele>
        <time>2023-03-05T09:36:28.000Z</time>
      </trkpt>
      <trkpt lat="51.141912" lon="5.658748">
        <ele>42.073908</ele>
        <time>2023-03-05T09:36:29.000Z</time>
      </trkpt>
      <trkpt lat="51.141863" lon="5.658759">
        <ele>42.070667</ele>
        <time>2023-03-05T09:36:30.000Z</time>
      </trkpt>
      <trkpt lat="51.141820" lon="5.658785">
        <ele>42.067656</ele>
        <time>2023-03-05T09:36:31.000Z</time>
      </trkpt>
      <trkpt lat="51.141782" lon="5.658827">
        <ele>42.064627</ele>
        <time>2023-03-05T09:36:32.000Z</time>
      </trkpt>
      <trkpt lat="51.141751" lon="5.658884">
        <ele>42.061528</ele>
        <time>2023-03-05T09:36:33.000Z</time>
      </trkpt>
      <trkpt lat="51.141722" lon="5.658955">
        <ele>42.058047</ele>
        <time>2023-03-05T09:36:34.000Z</time>
      </trkpt>
      <trkpt lat="51.141696" lon="5.659032">
        <ele>42.054454</ele>
        <time>2023-03-05T09:36:35.000Z</time>
      </trkpt>
      <trkpt lat="51.141669" lon="5.659109">
        <ele>42.050830</ele>
        <time>2023-03-05T09:36:36.000Z</time>
      </trkpt>
      <trkpt lat="51.141645" lon="5.659187">
        <ele>42.047260</ele>
        <time>2023-03-05T09:36:37.000Z</time>
      </trkpt>
      <trkpt lat="51.141619" lon="5.659268">
        <ele>42.043522</ele>
        <time>2023-03-05T09:36:38.000Z</time>
      </trkpt>
      <trkpt lat="51.141595" lon="5.659348">
        <ele>42.039878</ele>
        <time>2023-03-05T09:36:39.000Z</time>
      </trkpt>
      <trkpt lat="51.141572" lon="5.659428">
        <ele>42.036263</ele>
        <time>2023-03-05T09:36:40.000Z</time>
      </trkpt>
      <trkpt lat="51.141549" lon="5.659510">
        <ele>42.032572</ele>
        <time>2023-03-05T09:36:41.000Z</time>
      </trkpt>
      <trkpt lat="51.141529" lon="5.659593">
        <ele>42.028919</ele>
        <time>2023-03-05T09:36:42.000Z</time>
      </trkpt>
      <trkpt lat="51.141512" lon="5.659679">
        <ele>42.025214</ele>
        <time>2023-03-05T09:36:43.000Z</time>
      </trkpt>
      <trkpt lat="51.141497" lon="5.659767">
        <ele>42.021467</ele>
        <time>2023-03-05T09:36:44.000Z</time>
      </trkpt>
      <trkpt lat="51.141481" lon="5.659854">
        <ele>42.036586</ele>
        <time>2023-03-05T09:36:45.000Z</time>
      </trkpt>
      <trkpt lat="51.141468" lon="5.659942">
        <ele>42.057588</ele>
        <time>2023-03-05T09:36:46.000Z</time>
      </trkpt>
      <trkpt lat="51.141457" lon="5.660030">
        <ele>42.078433</ele>
        <time>2023-03-05T09:36:47.000Z</time>
      </trkpt>
      <trkpt lat="51.141443" lon="5.660124">
        <ele>42.100876</ele>
        <time>2023-03-05T09:36:48.000Z</time>
      </trkpt>
      <trkpt lat="51.141431" lon="5.660218">
        <ele>42.123160</ele>
        <time>2023-03-05T09:36:49.000Z</time>
      </trkpt>
      <trkpt lat="51.141414" lon="5.660319">
        <ele>42.147453</ele>
        <time>2023-03-05T09:36:50.000Z</time>
      </trkpt>
      <trkpt lat="51.141398" lon="5.660420">
        <ele>42.171652</ele>
        <time>2023-03-05T09:36:51.000Z</time>
      </trkpt>
      <trkpt lat="51.141382" lon="5.660524">
        <ele>42.196528</ele>
        <time>2023-03-05T09:36:52.000Z</time>
      </trkpt>
      <trkpt lat="51.141369" lon="5.660628">
        <ele>42.221162</ele>
        <time>2023-03-05T09:36:53.000Z</time>
      </trkpt>
      <trkpt lat="51.141356" lon="5.660730">
        <ele>42.245341</ele>
        <time>2023-03-05T09:36:54.000Z</time>
      </trkpt>
      <trkpt lat="51.141343" lon="5.660830">
        <ele>42.269065</ele>
        <time>2023-03-05T09:36:55.000Z</time>
      </trkpt>
      <trkpt lat="51.141329" lon="5.660933">
        <ele>42.293548</ele>
        <time>2023-03-05T09:36:56.000Z</time>
      </trkpt>
      <trkpt lat="51.141314" lon="5.661035">
        <ele>42.317885</ele>
        <time>2023-03-05T09:36:57.000Z</time>
      </trkpt>
      <trkpt lat="51.141301" lon="5.661139">
        <ele>42.342520</ele>
        <time>2023-03-05T09:36:58.000Z</time>
      </trkpt>
      <trkpt lat="51.141289" lon="5.661241">
        <ele>42.366628</ele>
        <time>2023-03-05T09:36:59.000Z</time>
      </trkpt>
      <trkpt lat="51.141278" lon="5.661342">
        <ele>42.390442</ele>
        <time>2023-03-05T09:37:00.000Z</time>
      </trkpt>
      <trkpt lat="51.141266" lon="5.661445">
        <ele>42.414778</ele>
        <time>2023-03-05T09:37:01.000Z</time>
      </trkpt>
      <trkpt lat="51.141262" lon="5.661547">
        <ele>42.438520</ele>
        <time>2023-03-05T09:37:02.000Z</time>
      </trkpt>
      <trkpt lat="51.141264" lon="5.661648">
        <ele>42.461994</ele>
        <time>2023-03-05T09:37:03.000Z</time>
      </trkpt>
      <trkpt lat="51.141273" lon="5.661747">
        <ele>42.485233</ele>
        <time>2023-03-05T09:37:04.000Z</time>
      </trkpt>
      <trkpt lat="51.141292" lon="5.661844">
        <ele>42.508839</ele>
        <time>2023-03-05T09:37:05.000Z</time>
      </trkpt>
      <trkpt lat="51.141317" lon="5.661939">
        <ele>42.532771</ele>
        <time>2023-03-05T09:37:06.000Z</time>
      </trkpt>
      <trkpt lat="51.141344" lon="5.662032">
        <ele>42.556576</ele>
        <time>2023-03-05T09:37:07.000Z</time>
      </trkpt>
      <trkpt lat="51.141370" lon="5.662125">
        <ele>42.580228</ele>
        <time>2023-03-05T09:37:08.000Z</time>
      </trkpt>
      <trkpt lat="51.141392" lon="5.662221">
        <ele>42.603971</ele>
        <time>2023-03-05T09:37:09.000Z</time>
      </trkpt>
      <trkpt lat="51.141402" lon="5.662318">
        <ele>42.626807</ele>
        <time>2023-03-05T09:37:10.000Z</time>
      </trkpt>
      <trkpt lat="51.141396" lon="5.662412">
        <ele>42.648756</ele>
        <time>2023-03-05T09:37:11.000Z</time>
      </trkpt>
      <trkpt lat="51.141377" lon="5.662507">
        <ele>42.671919</ele>
        <time>2023-03-05T09:37:12.000Z</time>
      </trkpt>
      <trkpt lat="51.141352" lon="5.662606">
        <ele>42.686164</ele>
        <time>2023-03-05T09:37:13.000Z</time>
      </trkpt>
      <trkpt lat="51.141326" lon="5.662707">
        <ele>42.685199</ele>
        <time>2023-03-05T09:37:14.000Z</time>
      </trkpt>
      <trkpt lat="51.141300" lon="5.662810">
        <ele>42.684217</ele>
        <time>2023-03-05T09:37:15.000Z</time>
      </trkpt>
      <trkpt lat="51.141273" lon="5.662922">
        <ele>42.683156</ele>
        <time>2023-03-05T09:37:16.000Z</time>
      </trkpt>
      <trkpt lat="51.141245" lon="5.663033">
        <ele>42.682098</ele>
        <time>2023-03-05T09:37:17.000Z</time>
      </trkpt>
      <trkpt lat="51.141219" lon="5.663138">
        <ele>42.681100</ele>
        <time>2023-03-05T09:37:18.000Z</time>
      </trkpt>
      <trkpt lat="51.141194" lon="5.663241">
        <ele>42.680123</ele>
        <time>2023-03-05T09:37:19.000Z</time>
      </trkpt>
      <trkpt lat="51.141169" lon="5.663344">
        <ele>42.679147</ele>
        <time>2023-03-05T09:37:20.000Z</time>
      </trkpt>
      <trkpt lat="51.141145" lon="5.663447">
        <ele>42.678175</ele>
        <time>2023-03-05T09:37:21.000Z</time>
      </trkpt>
      <trkpt lat="51.141119" lon="5.663551">
        <ele>42.677185</ele>
        <time>2023-03-05T09:37:22.000Z</time>
      </trkpt>
      <trkpt lat="51.141095" lon="5.663653">
        <ele>42.676222</ele>
        <time>2023-03-05T09:37:23.000Z</time>
      </trkpt>
      <trkpt lat="51.141070" lon="5.663753">
        <ele>42.675270</ele>
        <time>2023-03-05T09:37:24.000Z</time>
      </trkpt>
      <trkpt lat="51.141043" lon="5.663852">
        <ele>42.674316</ele>
        <time>2023-03-05T09:37:25.000Z</time>
      </trkpt>
      <trkpt lat="51.141017" lon="5.663953">
        <ele>42.673350</ele>
        <time>2023-03-05T09:37:26.000Z</time>
      </trkpt>
      <trkpt lat="51.140992" lon="5.664055">
        <ele>42.672382</ele>
        <time>2023-03-05T09:37:27.000Z</time>
      </trkpt>
      <trkpt lat="51.140969" lon="5.664156">
        <ele>42.671432</ele>
        <time>2023-03-05T09:37:28.000Z</time>
      </trkpt>
      <trkpt lat="51.140946" lon="5.664258">
        <ele>42.670473</ele>
        <time>2023-03-05T09:37:29.000Z</time>
      </trkpt>
      <trkpt lat="51.140921" lon="5.664361">
        <ele>42.669497</ele>
        <time>2023-03-05T09:37:30.000Z</time>
      </trkpt>
      <trkpt lat="51.140895" lon="5.664464">
        <ele>42.668515</ele>
        <time>2023-03-05T09:37:31.000Z</time>
      </trkpt>
      <trkpt lat="51.140870" lon="5.664566">
        <ele>42.667547</ele>
        <time>2023-03-05T09:37:32.000Z</time>
      </trkpt>
      <trkpt lat="51.140845" lon="5.664667">
        <ele>42.666587</ele>
        <time>2023-03-05T09:37:33.000Z</time>
      </trkpt>
      <trkpt lat="51.140821" lon="5.664767">
        <ele>42.665640</ele>
        <time>2023-03-05T09:37:34.000Z</time>
      </trkpt>
      <trkpt lat="51.140798" lon="5.664867">
        <ele>42.664698</ele>
        <time>2023-03-05T09:37:35.000Z</time>
      </trkpt>
      <trkpt lat="51.140775" lon="5.664968">
        <ele>42.663748</ele>
        <time>2023-03-05T09:37:36.000Z</time>
      </trkpt>
      <trkpt lat="51.140750" lon="5.665066">
        <ele>42.662812</ele>
        <time>2023-03-05T09:37:37.000Z</time>
      </trkpt>
      <trkpt lat="51.140725" lon="5.665166">
        <ele>42.661861</ele>
        <time>2023-03-05T09:37:38.000Z</time>
      </trkpt>
      <trkpt lat="51.140702" lon="5.665268">
        <ele>42.649903</ele>
        <time>2023-03-05T09:37:39.000Z</time>
      </trkpt>
      <trkpt lat="51.140679" lon="5.665369">
        <ele>42.613963</ele>
        <time>2023-03-05T09:37:40.000Z</time>
      </trkpt>
      <trkpt lat="51.140654" lon="5.665468">
        <ele>42.578266</ele>
        <time>2023-03-05T09:37:41.000Z</time>
      </trkpt>
      <trkpt lat="51.140625" lon="5.665567">
        <ele>42.541720</ele>
        <time>2023-03-05T09:37:42.000Z</time>
      </trkpt>
      <trkpt lat="51.140595" lon="5.665663">
        <ele>42.505846</ele>
        <time>2023-03-05T09:37:43.000Z</time>
      </trkpt>
      <trkpt lat="51.140564" lon="5.665759">
        <ele>42.469731</ele>
        <time>2023-03-05T09:37:44.000Z</time>
      </trkpt>
      <trkpt lat="51.140533" lon="5.665855">
        <ele>42.433615</ele>
        <time>2023-03-05T09:37:45.000Z</time>
      </trkpt>
      <trkpt lat="51.140508" lon="5.665951">
        <ele>42.398848</ele>
        <time>2023-03-05T09:37:46.000Z</time>
      </trkpt>
      <trkpt lat="51.140487" lon="5.666049">
        <ele>42.364208</ele>
        <time>2023-03-05T09:37:47.000Z</time>
      </trkpt>
      <trkpt lat="51.140468" lon="5.666153">
        <ele>42.327976</ele>
        <time>2023-03-05T09:37:48.000Z</time>
      </trkpt>
      <trkpt lat="51.140452" lon="5.666260">
        <ele>42.291182</ele>
        <time>2023-03-05T09:37:49.000Z</time>
      </trkpt>
      <trkpt lat="51.140439" lon="5.666368">
        <ele>42.254398</ele>
        <time>2023-03-05T09:37:50.000Z</time>
      </trkpt>
      <trkpt lat="51.140429" lon="5.666475">
        <ele>42.218212</ele>
        <time>2023-03-05T09:37:51.000Z</time>
      </trkpt>
      <trkpt lat="51.140427" lon="5.666581">
        <ele>42.182739</ele>
        <time>2023-03-05T09:37:52.000Z</time>
      </trkpt>
      <trkpt lat="51.140427" lon="5.666687">
        <ele>42.147282</ele>
        <time>2023-03-05T09:37:53.000Z</time>
      </trkpt>
      <trkpt lat="51.140429" lon="5.666793">
        <ele>42.111810</ele>
        <time>2023-03-05T09:37:54.000Z</time>
      </trkpt>
      <trkpt lat="51.140438" lon="5.666899">
        <ele>42.076030</ele>
        <time>2023-03-05T09:37:55.000Z</time>
      </trkpt>
      <trkpt lat="51.140447" lon="5.667004">
        <ele>42.040581</ele>
        <time>2023-03-05T09:37:56.000Z</time>
      </trkpt>
      <trkpt lat="51.140457" lon="5.667110">
        <ele>42.004726</ele>
        <time>2023-03-05T09:37:57.000Z</time>
      </trkpt>
      <trkpt lat="51.140468" lon="5.667219">
        <ele>41.967798</ele>
        <time>2023-03-05T09:37:58.000Z</time>
      </trkpt>
      <trkpt lat="51.140482" lon="5.667328">
        <ele>41.930581</ele>
        <time>2023-03-05T09:37:59.000Z</time>
      </trkpt>
      <trkpt lat="51.140497" lon="5.667436">
        <ele>41.893581</ele>
        <time>2023-03-05T09:38:00.000Z</time>
      </trkpt>
      <trkpt lat="51.140512" lon="5.667541">
        <ele>41.857560</ele>
        <time>2023-03-05T09:38:01.000Z</time>
      </trkpt>
      <trkpt lat="51.140530" lon="5.667646">
        <ele>41.821151</ele>
        <time>2023-03-05T09:38:02.000Z</time>
      </trkpt>
      <trkpt lat="51.140551" lon="5.667746">
        <ele>41.785877</ele>
        <time>2023-03-05T09:38:03.000Z</time>
      </trkpt>
      <trkpt lat="51.140572" lon="5.667846">
        <ele>41.750604</ele>
        <time>2023-03-05T09:38:04.000Z</time>
      </trkpt>
      <trkpt lat="51.140591" lon="5.667945">
        <ele>41.715974</ele>
        <time>2023-03-05T09:38:05.000Z</time>
      </trkpt>
      <trkpt lat="51.140610" lon="5.668040">
        <ele>41.694728</ele>
        <time>2023-03-05T09:38:06.000Z</time>
      </trkpt>
      <trkpt lat="51.140629" lon="5.668135">
        <ele>41.681913</ele>
        <time>2023-03-05T09:38:07.000Z</time>
      </trkpt>
      <trkpt lat="51.140648" lon="5.668229">
        <ele>41.669221</ele>
        <time>2023-03-05T09:38:08.000Z</time>
      </trkpt>
      <trkpt lat="51.140670" lon="5.668320">
        <ele>41.656688</ele>
        <time>2023-03-05T09:38:09.000Z</time>
      </trkpt>
      <trkpt lat="51.140688" lon="5.668414">
        <ele>41.644057</ele>
        <time>2023-03-05T09:38:10.000Z</time>
      </trkpt>
      <trkpt lat="51.140706" lon="5.668510">
        <ele>41.631181</ele>
        <time>2023-03-05T09:38:11.000Z</time>
      </trkpt>
      <trkpt lat="51.140720" lon="5.668607">
        <ele>41.618389</ele>
        <time>2023-03-05T09:38:12.000Z</time>
      </trkpt>
      <trkpt lat="51.140722" lon="5.668711">
        <ele>41.605017</ele>
        <time>2023-03-05T09:38:13.000Z</time>
      </trkpt>
      <trkpt lat="51.140711" lon="5.668820">
        <ele>41.590829</ele>
        <time>2023-03-05T09:38:14.000Z</time>
      </trkpt>
      <trkpt lat="51.140693" lon="5.668929">
        <ele>41.576343</ele>
        <time>2023-03-05T09:38:15.000Z</time>
      </trkpt>
      <trkpt lat="51.140672" lon="5.669034">
        <ele>41.562180</ele>
        <time>2023-03-05T09:38:16.000Z</time>
      </trkpt>
      <trkpt lat="51.140649" lon="5.669139">
        <ele>41.547887</ele>
        <time>2023-03-05T09:38:17.000Z</time>
      </trkpt>
      <trkpt lat="51.140626" lon="5.669243">
        <ele>41.533715</ele>
        <time>2023-03-05T09:38:18.000Z</time>
      </trkpt>
      <trkpt lat="51.140603" lon="5.669348">
        <ele>41.519422</ele>
        <time>2023-03-05T09:38:19.000Z</time>
      </trkpt>
      <trkpt lat="51.140581" lon="5.669453">
        <ele>41.505196</ele>
        <time>2023-03-05T09:38:20.000Z</time>
      </trkpt>
      <trkpt lat="51.140558" lon="5.669559">
        <ele>41.490781</ele>
        <time>2023-03-05T09:38:21.000Z</time>
      </trkpt>
      <trkpt lat="51.140537" lon="5.669663">
        <ele>41.476740</ele>
        <time>2023-03-05T09:38:22.000Z</time>
      </trkpt>
      <trkpt lat="51.140515" lon="5.669766">
        <ele>41.462757</ele>
        <time>2023-03-05T09:38:23.000Z</time>
      </trkpt>
      <trkpt lat="51.140493" lon="5.669866">
        <ele>41.449138</ele>
        <time>2023-03-05T09:38:24.000Z</time>
      </trkpt>
      <trkpt lat="51.140472" lon="5.669968">
        <ele>41.435342</ele>
        <time>2023-03-05T09:38:25.000Z</time>
      </trkpt>
      <trkpt lat="51.140453" lon="5.670067">
        <ele>41.422037</ele>
        <time>2023-03-05T09:38:26.000Z</time>
      </trkpt>
      <trkpt lat="51.140432" lon="5.670165">
        <ele>41.408728</ele>
        <time>2023-03-05T09:38:27.000Z</time>
      </trkpt>
      <trkpt lat="51.140409" lon="5.670264">
        <ele>41.395160</ele>
        <time>2023-03-05T09:38:28.000Z</time>
      </trkpt>
      <trkpt lat="51.140390" lon="5.670361">
        <ele>41.382101</ele>
        <time>2023-03-05T09:38:29.000Z</time>
      </trkpt>
      <trkpt lat="51.140373" lon="5.670457">
        <ele>41.369281</ele>
        <time>2023-03-05T09:38:30.000Z</time>
      </trkpt>
      <trkpt lat="51.140354" lon="5.670549">
        <ele>41.356833</ele>
        <time>2023-03-05T09:38:31.000Z</time>
      </trkpt>
      <trkpt lat="51.140335" lon="5.670638">
        <ele>41.344751</ele>
        <time>2023-03-05T09:38:32.000Z</time>
      </trkpt>
      <trkpt lat="51.140316" lon="5.670726">
        <ele>41.333152</ele>
        <time>2023-03-05T09:38:33.000Z</time>
      </trkpt>
      <trkpt lat="51.140297" lon="5.670812">
        <ele>41.325412</ele>
        <time>2023-03-05T09:38:34.000Z</time>
      </trkpt>
      <trkpt lat="51.140273" lon="5.670891">
        <ele>41.317962</ele>
        <time>2023-03-05T09:38:35.000Z</time>
      </trkpt>
      <trkpt lat="51.140235" lon="5.670959">
        <ele>41.310232</ele>
        <time>2023-03-05T09:38:36.000Z</time>
      </trkpt>
      <trkpt lat="51.140184" lon="5.671000">
        <ele>41.302505</ele>
        <time>2023-03-05T09:38:37.000Z</time>
      </trkpt>
      <trkpt lat="51.140130" lon="5.671004">
        <ele>41.295191</ele>
        <time>2023-03-05T09:38:38.000Z</time>
      </trkpt>
      <trkpt lat="51.140074" lon="5.670988">
        <ele>41.287494</ele>
        <time>2023-03-05T09:38:39.000Z</time>
      </trkpt>
      <trkpt lat="51.140017" lon="5.670973">
        <ele>41.279678</ele>
        <time>2023-03-05T09:38:40.000Z</time>
      </trkpt>
      <trkpt lat="51.139960" lon="5.670976">
        <ele>41.271963</ele>
        <time>2023-03-05T09:38:41.000Z</time>
      </trkpt>
      <trkpt lat="51.139905" lon="5.670994">
        <ele>41.264367</ele>
        <time>2023-03-05T09:38:42.000Z</time>
      </trkpt>
      <trkpt lat="51.139845" lon="5.671024">
        <ele>41.255859</ele>
        <time>2023-03-05T09:38:43.000Z</time>
      </trkpt>
      <trkpt lat="51.139782" lon="5.671058">
        <ele>41.246861</ele>
        <time>2023-03-05T09:38:44.000Z</time>
      </trkpt>
      <trkpt lat="51.139721" lon="5.671094">
        <ele>41.238060</ele>
        <time>2023-03-05T09:38:45.000Z</time>
      </trkpt>
      <trkpt lat="51.139658" lon="5.671131">
        <ele>41.228977</ele>
        <time>2023-03-05T09:38:46.000Z</time>
      </trkpt>
      <trkpt lat="51.139593" lon="5.671170">
        <ele>41.219581</ele>
        <time>2023-03-05T09:38:47.000Z</time>
      </trkpt>
      <trkpt lat="51.139528" lon="5.671208">
        <ele>41.210214</ele>
        <time>2023-03-05T09:38:48.000Z</time>
      </trkpt>
      <trkpt lat="51.139461" lon="5.671244">
        <ele>41.200648</ele>
        <time>2023-03-05T09:38:49.000Z</time>
      </trkpt>
      <trkpt lat="51.139397" lon="5.671281">
        <ele>41.191438</ele>
        <time>2023-03-05T09:38:50.000Z</time>
      </trkpt>
      <trkpt lat="51.139333" lon="5.671319">
        <ele>41.182198</ele>
        <time>2023-03-05T09:38:51.000Z</time>
      </trkpt>
      <trkpt lat="51.139269" lon="5.671356">
        <ele>41.172987</ele>
        <time>2023-03-05T09:38:52.000Z</time>
      </trkpt>
      <trkpt lat="51.139204" lon="5.671393">
        <ele>41.163650</ele>
        <time>2023-03-05T09:38:53.000Z</time>
      </trkpt>
      <trkpt lat="51.139140" lon="5.671432">
        <ele>41.154380</ele>
        <time>2023-03-05T09:38:54.000Z</time>
      </trkpt>
      <trkpt lat="51.139074" lon="5.671469">
        <ele>41.144915</ele>
        <time>2023-03-05T09:38:55.000Z</time>
      </trkpt>
      <trkpt lat="51.139009" lon="5.671506">
        <ele>41.135577</ele>
        <time>2023-03-05T09:38:56.000Z</time>
      </trkpt>
      <trkpt lat="51.138942" lon="5.671542">
        <ele>41.126011</ele>
        <time>2023-03-05T09:38:57.000Z</time>
      </trkpt>
      <trkpt lat="51.138873" lon="5.671575">
        <ele>41.116265</ele>
        <time>2023-03-05T09:38:58.000Z</time>
      </trkpt>
      <trkpt lat="51.138804" lon="5.671603">
        <ele>41.106632</ele>
        <time>2023-03-05T09:38:59.000Z</time>
      </trkpt>
      <trkpt lat="51.138738" lon="5.671627">
        <ele>41.097474</ele>
        <time>2023-03-05T09:39:00.000Z</time>
      </trkpt>
      <trkpt lat="51.138671" lon="5.671646">
        <ele>41.091252</ele>
        <time>2023-03-05T09:39:01.000Z</time>
      </trkpt>
      <trkpt lat="51.138602" lon="5.671662">
        <ele>41.094335</ele>
        <time>2023-03-05T09:39:02.000Z</time>
      </trkpt>
      <trkpt lat="51.138533" lon="5.671677">
        <ele>41.097413</ele>
        <time>2023-03-05T09:39:03.000Z</time>
      </trkpt>
      <trkpt lat="51.138463" lon="5.671690">
        <ele>41.100529</ele>
        <time>2023-03-05T09:39:04.000Z</time>
      </trkpt>
      <trkpt lat="51.138393" lon="5.671702">
        <ele>41.103642</ele>
        <time>2023-03-05T09:39:05.000Z</time>
      </trkpt>
      <trkpt lat="51.138327" lon="5.671713">
        <ele>41.106575</ele>
        <time>2023-03-05T09:39:06.000Z</time>
      </trkpt>
      <trkpt lat="51.138259" lon="5.671723">
        <ele>41.109594</ele>
        <time>2023-03-05T09:39:07.000Z</time>
      </trkpt>
      <trkpt lat="51.138190" lon="5.671733">
        <ele>41.112657</ele>
        <time>2023-03-05T09:39:08.000Z</time>
      </trkpt>
      <trkpt lat="51.138125" lon="5.671743">
        <ele>41.115544</ele>
        <time>2023-03-05T09:39:09.000Z</time>
      </trkpt>
      <trkpt lat="51.138058" lon="5.671753">
        <ele>41.118519</ele>
        <time>2023-03-05T09:39:10.000Z</time>
      </trkpt>
      <trkpt lat="51.137988" lon="5.671763">
        <ele>41.121626</ele>
        <time>2023-03-05T09:39:11.000Z</time>
      </trkpt>
      <trkpt lat="51.137920" lon="5.671773">
        <ele>41.124645</ele>
        <time>2023-03-05T09:39:12.000Z</time>
      </trkpt>
      <trkpt lat="51.137851" lon="5.671784">
        <ele>41.127711</ele>
        <time>2023-03-05T09:39:13.000Z</time>
      </trkpt>
      <trkpt lat="51.137784" lon="5.671794">
        <ele>41.130686</ele>
        <time>2023-03-05T09:39:14.000Z</time>
      </trkpt>
      <trkpt lat="51.137717" lon="5.671805">
        <ele>41.133664</ele>
        <time>2023-03-05T09:39:15.000Z</time>
      </trkpt>
      <trkpt lat="51.137651" lon="5.671815">
        <ele>41.136595</ele>
        <time>2023-03-05T09:39:16.000Z</time>
      </trkpt>
      <trkpt lat="51.137583" lon="5.671826">
        <ele>41.139616</ele>
        <time>2023-03-05T09:39:17.000Z</time>
      </trkpt>
      <trkpt lat="51.137518" lon="5.671838">
        <ele>41.142509</ele>
        <time>2023-03-05T09:39:18.000Z</time>
      </trkpt>
      <trkpt lat="51.137450" lon="5.671851">
        <ele>41.145537</ele>
        <time>2023-03-05T09:39:19.000Z</time>
      </trkpt>
      <trkpt lat="51.137384" lon="5.671861">
        <ele>41.148468</ele>
        <time>2023-03-05T09:39:20.000Z</time>
      </trkpt>
      <trkpt lat="51.137320" lon="5.671871">
        <ele>41.151311</ele>
        <time>2023-03-05T09:39:21.000Z</time>
      </trkpt>
      <trkpt lat="51.137252" lon="5.671882">
        <ele>41.154333</ele>
        <time>2023-03-05T09:39:22.000Z</time>
      </trkpt>
      <trkpt lat="51.137186" lon="5.671893">
        <ele>41.157266</ele>
        <time>2023-03-05T09:39:23.000Z</time>
      </trkpt>
      <trkpt lat="51.137121" lon="5.671903">
        <ele>41.160153</ele>
        <time>2023-03-05T09:39:24.000Z</time>
      </trkpt>
      <trkpt lat="51.137056" lon="5.671913">
        <ele>41.163040</ele>
        <time>2023-03-05T09:39:25.000Z</time>
      </trkpt>
      <trkpt lat="51.136991" lon="5.671923">
        <ele>41.165927</ele>
        <time>2023-03-05T09:39:26.000Z</time>
      </trkpt>
      <trkpt lat="51.136926" lon="5.671931">
        <ele>41.168809</ele>
        <time>2023-03-05T09:39:27.000Z</time>
      </trkpt>
      <trkpt lat="51.136864" lon="5.671937">
        <ele>41.181564</ele>
        <time>2023-03-05T09:39:28.000Z</time>
      </trkpt>
      <trkpt lat="51.136803" lon="5.671945">
        <ele>41.202069</ele>
        <time>2023-03-05T09:39:29.000Z</time>
      </trkpt>
      <trkpt lat="51.136742" lon="5.671955">
        <ele>41.222613</ele>
        <time>2023-03-05T09:39:30.000Z</time>
      </trkpt>
      <trkpt lat="51.136681" lon="5.671966">
        <ele>41.243180</ele>
        <time>2023-03-05T09:39:31.000Z</time>
      </trkpt>
      <trkpt lat="51.136617" lon="5.671977">
        <ele>41.264745</ele>
        <time>2023-03-05T09:39:32.000Z</time>
      </trkpt>
      <trkpt lat="51.136555" lon="5.671988">
        <ele>41.285644</ele>
        <time>2023-03-05T09:39:33.000Z</time>
      </trkpt>
      <trkpt lat="51.136494" lon="5.671997">
        <ele>41.306167</ele>
        <time>2023-03-05T09:39:34.000Z</time>
      </trkpt>
      <trkpt lat="51.136433" lon="5.672007">
        <ele>41.326711</ele>
        <time>2023-03-05T09:39:35.000Z</time>
      </trkpt>
      <trkpt lat="51.136372" lon="5.672017">
        <ele>41.347255</ele>
        <time>2023-03-05T09:39:36.000Z</time>
      </trkpt>
      <trkpt lat="51.136313" lon="5.672025">
        <ele>41.367092</ele>
        <time>2023-03-05T09:39:37.000Z</time>
      </trkpt>
      <trkpt lat="51.136256" lon="5.672034">
        <ele>41.386282</ele>
        <time>2023-03-05T09:39:38.000Z</time>
      </trkpt>
      <trkpt lat="51.136199" lon="5.672043">
        <ele>41.405471</ele>
        <time>2023-03-05T09:39:39.000Z</time>
      </trkpt>
      <trkpt lat="51.136144" lon="5.672055">
        <ele>41.424069</ele>
        <time>2023-03-05T09:39:40.000Z</time>
      </trkpt>
      <trkpt lat="51.136095" lon="5.672067">
        <ele>41.440677</ele>
        <time>2023-03-05T09:39:41.000Z</time>
      </trkpt>
      <trkpt lat="51.136047" lon="5.672080">
        <ele>41.456988</ele>
        <time>2023-03-05T09:39:42.000Z</time>
      </trkpt>
      <trkpt lat="51.136000" lon="5.672094">
        <ele>41.473007</ele>
        <time>2023-03-05T09:39:43.000Z</time>
      </trkpt>
      <trkpt lat="51.135954" lon="5.672112">
        <ele>41.488875</ele>
        <time>2023-03-05T09:39:44.000Z</time>
      </trkpt>
      <trkpt lat="51.135911" lon="5.672137">
        <ele>41.504210</ele>
        <time>2023-03-05T09:39:45.000Z</time>
      </trkpt>
      <trkpt lat="51.135869" lon="5.672174">
        <ele>41.520287</ele>
        <time>2023-03-05T09:39:46.000Z</time>
      </trkpt>
      <trkpt lat="51.135827" lon="5.672223">
        <ele>41.537725</ele>
        <time>2023-03-05T09:39:47.000Z</time>
      </trkpt>
      <trkpt lat="51.135785" lon="5.672282">
        <ele>41.556481</ele>
        <time>2023-03-05T09:39:48.000Z</time>
      </trkpt>
      <trkpt lat="51.135745" lon="5.672351">
        <ele>41.576229</ele>
        <time>2023-03-05T09:39:49.000Z</time>
      </trkpt>
      <trkpt lat="51.135707" lon="5.672429">
        <ele>41.596988</ele>
        <time>2023-03-05T09:39:50.000Z</time>
      </trkpt>
      <trkpt lat="51.135667" lon="5.672512">
        <ele>41.618988</ele>
        <time>2023-03-05T09:39:51.000Z</time>
      </trkpt>
      <trkpt lat="51.135622" lon="5.672599">
        <ele>41.642689</ele>
        <time>2023-03-05T09:39:52.000Z</time>
      </trkpt>
      <trkpt lat="51.135581" lon="5.672686">
        <ele>41.665561</ele>
        <time>2023-03-05T09:39:53.000Z</time>
      </trkpt>
      <trkpt lat="51.135541" lon="5.672773">
        <ele>41.688234</ele>
        <time>2023-03-05T09:39:54.000Z</time>
      </trkpt>
      <trkpt lat="51.135499" lon="5.672862">
        <ele>41.711644</ele>
        <time>2023-03-05T09:39:55.000Z</time>
      </trkpt>
      <trkpt lat="51.135457" lon="5.672952">
        <ele>41.735222</ele>
        <time>2023-03-05T09:39:56.000Z</time>
      </trkpt>
      <trkpt lat="51.135415" lon="5.673041">
        <ele>41.758632</ele>
        <time>2023-03-05T09:39:57.000Z</time>
      </trkpt>
      <trkpt lat="51.135373" lon="5.673134">
        <ele>41.772290</ele>
        <time>2023-03-05T09:39:58.000Z</time>
      </trkpt>
      <trkpt lat="51.135331" lon="5.673227">
        <ele>41.771534</ele>
        <time>2023-03-05T09:39:59.000Z</time>
      </trkpt>
      <trkpt lat="51.135287" lon="5.673318">
        <ele>41.770777</ele>
        <time>2023-03-05T09:40:00.000Z</time>
      </trkpt>
      <trkpt lat="51.135241" lon="5.673409">
        <ele>41.770006</ele>
        <time>2023-03-05T09:40:01.000Z</time>
      </trkpt>
      <trkpt lat="51.135195" lon="5.673500">
        <ele>41.769236</ele>
        <time>2023-03-05T09:40:02.000Z</time>
      </trkpt>
      <trkpt lat="51.135147" lon="5.673589">
        <ele>41.768462</ele>
        <time>2023-03-05T09:40:03.000Z</time>
      </trkpt>
      <trkpt lat="51.135097" lon="5.673677">
        <ele>41.767679</ele>
        <time>2023-03-05T09:40:04.000Z</time>
      </trkpt>
      <trkpt lat="51.135047" lon="5.673764">
        <ele>41.766902</ele>
        <time>2023-03-05T09:40:05.000Z</time>
      </trkpt>
      <trkpt lat="51.134999" lon="5.673847">
        <ele>41.766157</ele>
        <time>2023-03-05T09:40:06.000Z</time>
      </trkpt>
      <trkpt lat="51.134949" lon="5.673929">
        <ele>41.765404</ele>
        <time>2023-03-05T09:40:07.000Z</time>
      </trkpt>
      <trkpt lat="51.134899" lon="5.674008">
        <ele>41.764664</ele>
        <time>2023-03-05T09:40:08.000Z</time>
      </trkpt>
      <trkpt lat="51.134847" lon="5.674087">
        <ele>41.763909</ele>
        <time>2023-03-05T09:40:09.000Z</time>
      </trkpt>
      <trkpt lat="51.134796" lon="5.674166">
        <ele>41.763162</ele>
        <time>2023-03-05T09:40:10.000Z</time>
      </trkpt>
      <trkpt lat="51.134744" lon="5.674245">
        <ele>41.762407</ele>
        <time>2023-03-05T09:40:11.000Z</time>
      </trkpt>
      <trkpt lat="51.134693" lon="5.674322">
        <ele>41.761669</ele>
        <time>2023-03-05T09:40:12.000Z</time>
      </trkpt>
      <trkpt lat="51.134641" lon="5.674399">
        <ele>41.760923</ele>
        <time>2023-03-05T09:40:13.000Z</time>
      </trkpt>
      <trkpt lat="51.134590" lon="5.674474">
        <ele>41.760194</ele>
        <time>2023-03-05T09:40:14.000Z</time>
      </trkpt>
      <trkpt lat="51.134541" lon="5.674545">
        <ele>41.759498</ele>
        <time>2023-03-05T09:40:15.000Z</time>
      </trkpt>
      <trkpt lat="51.134491" lon="5.674618">
        <ele>41.758785</ele>
        <time>2023-03-05T09:40:16.000Z</time>
      </trkpt>
      <trkpt lat="51.134444" lon="5.674693">
        <ele>41.758087</ele>
        <time>2023-03-05T09:40:17.000Z</time>
      </trkpt>
      <trkpt lat="51.134398" lon="5.674768">
        <ele>41.757395</ele>
        <time>2023-03-05T09:40:18.000Z</time>
      </trkpt>
      <trkpt lat="51.134350" lon="5.674843">
        <ele>41.756689</ele>
        <time>2023-03-05T09:40:19.000Z</time>
      </trkpt>
      <trkpt lat="51.134300" lon="5.674919">
        <ele>41.755963</ele>
        <time>2023-03-05T09:40:20.000Z</time>
      </trkpt>
      <trkpt lat="51.134248" lon="5.674996">
        <ele>41.755217</ele>
        <time>2023-03-05T09:40:21.000Z</time>
      </trkpt>
      <trkpt lat="51.134197" lon="5.675072">
        <ele>41.754483</ele>
        <time>2023-03-05T09:40:22.000Z</time>
      </trkpt>
      <trkpt lat="51.134147" lon="5.675148">
        <ele>41.753757</ele>
        <time>2023-03-05T09:40:23.000Z</time>
      </trkpt>
      <trkpt lat="51.134096" lon="5.675222">
        <ele>41.747058</ele>
        <time>2023-03-05T09:40:24.000Z</time>
      </trkpt>
      <trkpt lat="51.134042" lon="5.675296">
        <ele>41.739694</ele>
        <time>2023-03-05T09:40:25.000Z</time>
      </trkpt>
      <trkpt lat="51.133991" lon="5.675371">
        <ele>41.732518</ele>
        <time>2023-03-05T09:40:26.000Z</time>
      </trkpt>
      <trkpt lat="51.133942" lon="5.675445">
        <ele>41.725537</ele>
        <time>2023-03-05T09:40:27.000Z</time>
      </trkpt>
      <trkpt lat="51.133892" lon="5.675521">
        <ele>41.718392</ele>
        <time>2023-03-05T09:40:28.000Z</time>
      </trkpt>
      <trkpt lat="51.133842" lon="5.675597">
        <ele>41.711247</ele>
        <time>2023-03-05T09:40:29.000Z</time>
      </trkpt>
      <trkpt lat="51.133793" lon="5.675671">
        <ele>41.704266</ele>
        <time>2023-03-05T09:40:30.000Z</time>
      </trkpt>
      <trkpt lat="51.133745" lon="5.675745">
        <ele>41.697360</ele>
        <time>2023-03-05T09:40:31.000Z</time>
      </trkpt>
      <trkpt lat="51.133697" lon="5.675821">
        <ele>41.690363</ele>
        <time>2023-03-05T09:40:32.000Z</time>
      </trkpt>
      <trkpt lat="51.133645" lon="5.675896">
        <ele>41.683111</ele>
        <time>2023-03-05T09:40:33.000Z</time>
      </trkpt>
      <trkpt lat="51.133594" lon="5.675972">
        <ele>41.675891</ele>
        <time>2023-03-05T09:40:34.000Z</time>
      </trkpt>
      <trkpt lat="51.133544" lon="5.676046">
        <ele>41.668835</ele>
        <time>2023-03-05T09:40:35.000Z</time>
      </trkpt>
      <trkpt lat="51.133495" lon="5.676119">
        <ele>41.661898</ele>
        <time>2023-03-05T09:40:36.000Z</time>
      </trkpt>
      <trkpt lat="51.133445" lon="5.676192">
        <ele>41.654886</ele>
        <time>2023-03-05T09:40:37.000Z</time>
      </trkpt>
      <trkpt lat="51.133394" lon="5.676264">
        <ele>41.647841</ele>
        <time>2023-03-05T09:40:38.000Z</time>
      </trkpt>
      <trkpt lat="51.133340" lon="5.676336">
        <ele>41.640560</ele>
        <time>2023-03-05T09:40:39.000Z</time>
      </trkpt>
      <trkpt lat="51.133287" lon="5.676404">
        <ele>41.633524</ele>
        <time>2023-03-05T09:40:40.000Z</time>
      </trkpt>
      <trkpt lat="51.133234" lon="5.676470">
        <ele>41.626569</ele>
        <time>2023-03-05T09:40:41.000Z</time>
      </trkpt>
      <trkpt lat="51.133178" lon="5.676533">
        <ele>41.619480</ele>
        <time>2023-03-05T09:40:42.000Z</time>
      </trkpt>
      <trkpt lat="51.133120" lon="5.676594">
        <ele>41.612294</ele>
        <time>2023-03-05T09:40:43.000Z</time>
      </trkpt>
      <trkpt lat="51.133063" lon="5.676654">
        <ele>41.605230</ele>
        <time>2023-03-05T09:40:44.000Z</time>
      </trkpt>
      <trkpt lat="51.133006" lon="5.676714">
        <ele>41.598166</ele>
        <time>2023-03-05T09:40:45.000Z</time>
      </trkpt>
      <trkpt lat="51.132946" lon="5.676773">
        <ele>41.590876</ele>
        <time>2023-03-05T09:40:46.000Z</time>
      </trkpt>
      <trkpt lat="51.132890" lon="5.676829">
        <ele>41.584039</ele>
        <time>2023-03-05T09:40:47.000Z</time>
      </trkpt>
      <trkpt lat="51.132834" lon="5.676885">
        <ele>41.577203</ele>
        <time>2023-03-05T09:40:48.000Z</time>
      </trkpt>
      <trkpt lat="51.132777" lon="5.676939">
        <ele>41.570346</ele>
        <time>2023-03-05T09:40:49.000Z</time>
      </trkpt>
      <trkpt lat="51.132720" lon="5.676994">
        <ele>41.568114</ele>
        <time>2023-03-05T09:40:50.000Z</time>
      </trkpt>
      <trkpt lat="51.132662" lon="5.677048">
        <ele>41.568761</ele>
        <time>2023-03-05T09:40:51.000Z</time>
      </trkpt>
      <trkpt lat="51.132608" lon="5.677102">
        <ele>41.569375</ele>
        <time>2023-03-05T09:40:52.000Z</time>
      </trkpt>
      <trkpt lat="51.132554" lon="5.677154">
        <ele>41.569983</ele>
        <time>2023-03-05T09:40:53.000Z</time>
      </trkpt>
      <trkpt lat="51.132503" lon="5.677203">
        <ele>41.570557</ele>
        <time>2023-03-05T09:40:54.000Z</time>
      </trkpt>
      <trkpt lat="51.132454" lon="5.677253">
        <ele>41.571117</ele>
        <time>2023-03-05T09:40:55.000Z</time>
      </trkpt>
      <trkpt lat="51.132407" lon="5.677300">
        <ele>41.571652</ele>
        <time>2023-03-05T09:40:56.000Z</time>
      </trkpt>
      <trkpt lat="51.132361" lon="5.677344">
        <ele>41.572168</ele>
        <time>2023-03-05T09:40:57.000Z</time>
      </trkpt>
      <trkpt lat="51.132319" lon="5.677386">
        <ele>41.572646</ele>
        <time>2023-03-05T09:40:58.000Z</time>
      </trkpt>
      <trkpt lat="51.132287" lon="5.677431">
        <ele>41.573057</ele>
        <time>2023-03-05T09:40:59.000Z</time>
      </trkpt>
      <trkpt lat="51.132268" lon="5.677486">
        <ele>41.573437</ele>
        <time>2023-03-05T09:41:00.000Z</time>
      </trkpt>
      <trkpt lat="51.132266" lon="5.677554">
        <ele>41.573848</ele>
        <time>2023-03-05T09:41:01.000Z</time>
      </trkpt>
      <trkpt lat="51.132279" lon="5.677633">
        <ele>41.574342</ele>
        <time>2023-03-05T09:41:02.000Z</time>
      </trkpt>
      <trkpt lat="51.132300" lon="5.677719">
        <ele>41.574900</ele>
        <time>2023-03-05T09:41:03.000Z</time>
      </trkpt>
      <trkpt lat="51.132328" lon="5.677810">
        <ele>41.575513</ele>
        <time>2023-03-05T09:41:04.000Z</time>
      </trkpt>
      <trkpt lat="51.132358" lon="5.677905">
        <ele>41.576155</ele>
        <time>2023-03-05T09:41:05.000Z</time>
      </trkpt>
      <trkpt lat="51.132386" lon="5.678000">
        <ele>41.576790</ele>
        <time>2023-03-05T09:41:06.000Z</time>
      </trkpt>
      <trkpt lat="51.132415" lon="5.678101">
        <ele>41.577461</ele>
        <time>2023-03-05T09:41:07.000Z</time>
      </trkpt>
      <trkpt lat="51.132446" lon="5.678204">
        <ele>41.578152</ele>
        <time>2023-03-05T09:41:08.000Z</time>
      </trkpt>
      <trkpt lat="51.132476" lon="5.678309">
        <ele>41.578849</ele>
        <time>2023-03-05T09:41:09.000Z</time>
      </trkpt>
      <trkpt lat="51.132507" lon="5.678418">
        <ele>41.579573</ele>
        <time>2023-03-05T09:41:10.000Z</time>
      </trkpt>
      <trkpt lat="51.132536" lon="5.678526">
        <ele>41.580283</ele>
        <time>2023-03-05T09:41:11.000Z</time>
      </trkpt>
      <trkpt lat="51.132564" lon="5.678634">
        <ele>41.580989</ele>
        <time>2023-03-05T09:41:12.000Z</time>
      </trkpt>
      <trkpt lat="51.132593" lon="5.678743">
        <ele>41.581705</ele>
        <time>2023-03-05T09:41:13.000Z</time>
      </trkpt>
      <trkpt lat="51.132619" lon="5.678852">
        <ele>41.582410</ele>
        <time>2023-03-05T09:41:14.000Z</time>
      </trkpt>
      <trkpt lat="51.132646" lon="5.678967">
        <ele>41.583152</ele>
        <time>2023-03-05T09:41:15.000Z</time>
      </trkpt>
      <trkpt lat="51.132672" lon="5.679082">
        <ele>41.583891</ele>
        <time>2023-03-05T09:41:16.000Z</time>
      </trkpt>
      <trkpt lat="51.132699" lon="5.679197">
        <ele>41.584633</ele>
        <time>2023-03-05T09:41:17.000Z</time>
      </trkpt>
      <trkpt lat="51.132726" lon="5.679309">
        <ele>41.582339</ele>
        <time>2023-03-05T09:41:18.000Z</time>
      </trkpt>
      <trkpt lat="51.132753" lon="5.679422">
        <ele>41.576061</ele>
        <time>2023-03-05T09:41:19.000Z</time>
      </trkpt>
      <trkpt lat="51.132777" lon="5.679535">
        <ele>41.569866</ele>
        <time>2023-03-05T09:41:20.000Z</time>
      </trkpt>
      <trkpt lat="51.132800" lon="5.679649">
        <ele>41.563649</ele>
        <time>2023-03-05T09:41:21.000Z</time>
      </trkpt>
      <trkpt lat="51.132823" lon="5.679760">
        <ele>41.557579</ele>
        <time>2023-03-05T09:41:22.000Z</time>
      </trkpt>
      <trkpt lat="51.132846" lon="5.679869">
        <ele>41.551608</ele>
        <time>2023-03-05T09:41:23.000Z</time>
      </trkpt>
      <trkpt lat="51.132866" lon="5.679979">
        <ele>41.545661</ele>
        <time>2023-03-05T09:41:24.000Z</time>
      </trkpt>
      <trkpt lat="51.132888" lon="5.680088">
        <ele>41.539716</ele>
        <time>2023-03-05T09:41:25.000Z</time>
      </trkpt>
      <trkpt lat="51.132911" lon="5.680193">
        <ele>41.533942</ele>
        <time>2023-03-05T09:41:26.000Z</time>
      </trkpt>
      <trkpt lat="51.132931" lon="5.680297">
        <ele>41.528294</ele>
        <time>2023-03-05T09:41:27.000Z</time>
      </trkpt>
      <trkpt lat="51.132952" lon="5.680401">
        <ele>41.522621</ele>
        <time>2023-03-05T09:41:28.000Z</time>
      </trkpt>
      <trkpt lat="51.132975" lon="5.680506">
        <ele>41.516846</ele>
        <time>2023-03-05T09:41:29.000Z</time>
      </trkpt>
      <trkpt lat="51.132998" lon="5.680611">
        <ele>41.511072</ele>
        <time>2023-03-05T09:41:30.000Z</time>
      </trkpt>
      <trkpt lat="51.133021" lon="5.680719">
        <ele>41.505150</ele>
        <time>2023-03-05T09:41:31.000Z</time>
      </trkpt>
      <trkpt lat="51.133042" lon="5.680826">
        <ele>41.499329</ele>
        <time>2023-03-05T09:41:32.000Z</time>
      </trkpt>
      <trkpt lat="51.133063" lon="5.680931">
        <ele>41.493606</ele>
        <time>2023-03-05T09:41:33.000Z</time>
      </trkpt>
      <trkpt lat="51.133086" lon="5.681036">
        <ele>41.487832</ele>
        <time>2023-03-05T09:41:34.000Z</time>
      </trkpt>
      <trkpt lat="51.133109" lon="5.681141">
        <ele>41.482057</ele>
        <time>2023-03-05T09:41:35.000Z</time>
      </trkpt>
      <trkpt lat="51.133129" lon="5.681245">
        <ele>41.476409</ele>
        <time>2023-03-05T09:41:36.000Z</time>
      </trkpt>
      <trkpt lat="51.133151" lon="5.681349">
        <ele>41.470711</ele>
        <time>2023-03-05T09:41:37.000Z</time>
      </trkpt>
      <trkpt lat="51.133174" lon="5.681455">
        <ele>41.464887</ele>
        <time>2023-03-05T09:41:38.000Z</time>
      </trkpt>
      <trkpt lat="51.133194" lon="5.681560">
        <ele>41.459190</ele>
        <time>2023-03-05T09:41:39.000Z</time>
      </trkpt>
      <trkpt lat="51.133216" lon="5.681666">
        <ele>41.453393</ele>
        <time>2023-03-05T09:41:40.000Z</time>
      </trkpt>
      <trkpt lat="51.133239" lon="5.681771">
        <ele>41.447618</ele>
        <time>2023-03-05T09:41:41.000Z</time>
      </trkpt>
      <trkpt lat="51.133259" lon="5.681876">
        <ele>41.441920</ele>
        <time>2023-03-05T09:41:42.000Z</time>
      </trkpt>
      <trkpt lat="51.133280" lon="5.681981">
        <ele>41.436173</ele>
        <time>2023-03-05T09:41:43.000Z</time>
      </trkpt>
      <trkpt lat="51.133303" lon="5.682090">
        <ele>41.421482</ele>
        <time>2023-03-05T09:41:44.000Z</time>
      </trkpt>
      <trkpt lat="51.133326" lon="5.682197">
        <ele>41.407033</ele>
        <time>2023-03-05T09:41:45.000Z</time>
      </trkpt>
      <trkpt lat="51.133347" lon="5.682303">
        <ele>41.392833</ele>
        <time>2023-03-05T09:41:46.000Z</time>
      </trkpt>
      <trkpt lat="51.133366" lon="5.682410">
        <ele>41.378627</ele>
        <time>2023-03-05T09:41:47.000Z</time>
      </trkpt>
      <trkpt lat="51.133390" lon="5.682515">
        <ele>41.364352</ele>
        <time>2023-03-05T09:41:48.000Z</time>
      </trkpt>
      <trkpt lat="51.133414" lon="5.682620">
        <ele>41.350076</ele>
        <time>2023-03-05T09:41:49.000Z</time>
      </trkpt>
      <trkpt lat="51.133435" lon="5.682723">
        <ele>41.336241</ele>
        <time>2023-03-05T09:41:50.000Z</time>
      </trkpt>
      <trkpt lat="51.133456" lon="5.682826">
        <ele>41.322406</ele>
        <time>2023-03-05T09:41:51.000Z</time>
      </trkpt>
      <trkpt lat="51.133479" lon="5.682928">
        <ele>41.308560</ele>
        <time>2023-03-05T09:41:52.000Z</time>
      </trkpt>
      <trkpt lat="51.133504" lon="5.683031">
        <ele>41.294452</ele>
        <time>2023-03-05T09:41:53.000Z</time>
      </trkpt>
      <trkpt lat="51.133533" lon="5.683132">
        <ele>41.280262</ele>
        <time>2023-03-05T09:41:54.000Z</time>
      </trkpt>
      <trkpt lat="51.133566" lon="5.683229">
        <ele>41.266167</ele>
        <time>2023-03-05T09:41:55.000Z</time>
      </trkpt>
      <trkpt lat="51.133603" lon="5.683322">
        <ele>41.252100</ele>
        <time>2023-03-05T09:41:56.000Z</time>
      </trkpt>
      <trkpt lat="51.133645" lon="5.683411">
        <ele>41.237874</ele>
        <time>2023-03-05T09:41:57.000Z</time>
      </trkpt>
      <trkpt lat="51.133689" lon="5.683499">
        <ele>41.223500</ele>
        <time>2023-03-05T09:41:58.000Z</time>
      </trkpt>
      <trkpt lat="51.133736" lon="5.683586">
        <ele>41.208835</ele>
        <time>2023-03-05T09:41:59.000Z</time>
      </trkpt>
      <trkpt lat="51.133783" lon="5.683670">
        <ele>41.194457</ele>
        <time>2023-03-05T09:42:00.000Z</time>
      </trkpt>
      <trkpt lat="51.133828" lon="5.683753">
        <ele>41.180445</ele>
        <time>2023-03-05T09:42:01.000Z</time>
      </trkpt>
      <trkpt lat="51.133874" lon="5.683836">
        <ele>41.166299</ele>
        <time>2023-03-05T09:42:02.000Z</time>
      </trkpt>
      <trkpt lat="51.133920" lon="5.683918">
        <ele>41.152248</ele>
        <time>2023-03-05T09:42:03.000Z</time>
      </trkpt>
      <trkpt lat="51.133966" lon="5.684002">
        <ele>41.138005</ele>
        <time>2023-03-05T09:42:04.000Z</time>
      </trkpt>
      <trkpt lat="51.134011" lon="5.684086">
        <ele>41.123896</ele>
        <time>2023-03-05T09:42:05.000Z</time>
      </trkpt>
      <trkpt lat="51.134056" lon="5.684170">
        <ele>41.109787</ele>
        <time>2023-03-05T09:42:06.000Z</time>
      </trkpt>
      <trkpt lat="51.134104" lon="5.684256">
        <ele>41.095083</ele>
        <time>2023-03-05T09:42:07.000Z</time>
      </trkpt>
      <trkpt lat="51.134153" lon="5.684344">
        <ele>41.080054</ele>
        <time>2023-03-05T09:42:08.000Z</time>
      </trkpt>
      <trkpt lat="51.134198" lon="5.684429">
        <ele>41.070783</ele>
        <time>2023-03-05T09:42:09.000Z</time>
      </trkpt>
      <trkpt lat="51.134244" lon="5.684515">
        <ele>41.073308</ele>
        <time>2023-03-05T09:42:10.000Z</time>
      </trkpt>
      <trkpt lat="51.134293" lon="5.684600">
        <ele>41.075887</ele>
        <time>2023-03-05T09:42:11.000Z</time>
      </trkpt>
      <trkpt lat="51.134340" lon="5.684683">
        <ele>41.078385</ele>
        <time>2023-03-05T09:42:12.000Z</time>
      </trkpt>
      <trkpt lat="51.134386" lon="5.684768">
        <ele>41.080892</ele>
        <time>2023-03-05T09:42:13.000Z</time>
      </trkpt>
      <trkpt lat="51.134431" lon="5.684851">
        <ele>41.083343</ele>
        <time>2023-03-05T09:42:14.000Z</time>
      </trkpt>
      <trkpt lat="51.134477" lon="5.684936">
        <ele>41.085851</ele>
        <time>2023-03-05T09:42:15.000Z</time>
      </trkpt>
      <trkpt lat="51.134523" lon="5.685020">
        <ele>41.088342</ele>
        <time>2023-03-05T09:42:16.000Z</time>
      </trkpt>
      <trkpt lat="51.134568" lon="5.685105">
        <ele>41.090826</ele>
        <time>2023-03-05T09:42:17.000Z</time>
      </trkpt>
      <trkpt lat="51.134612" lon="5.685192">
        <ele>41.093323</ele>
        <time>2023-03-05T09:42:18.000Z</time>
      </trkpt>
      <trkpt lat="51.134659" lon="5.685278">
        <ele>41.095871</ele>
        <time>2023-03-05T09:42:19.000Z</time>
      </trkpt>
      <trkpt lat="51.134706" lon="5.685365">
        <ele>41.098436</ele>
        <time>2023-03-05T09:42:20.000Z</time>
      </trkpt>
      <trkpt lat="51.134752" lon="5.685454">
        <ele>41.101012</ele>
        <time>2023-03-05T09:42:21.000Z</time>
      </trkpt>
      <trkpt lat="51.134798" lon="5.685539">
        <ele>41.103519</ele>
        <time>2023-03-05T09:42:22.000Z</time>
      </trkpt>
      <trkpt lat="51.134846" lon="5.685624">
        <ele>41.106074</ele>
        <time>2023-03-05T09:42:23.000Z</time>
      </trkpt>
      <trkpt lat="51.134893" lon="5.685709">
        <ele>41.108605</ele>
        <time>2023-03-05T09:42:24.000Z</time>
      </trkpt>
      <trkpt lat="51.134941" lon="5.685796">
        <ele>41.111194</ele>
        <time>2023-03-05T09:42:25.000Z</time>
      </trkpt>
      <trkpt lat="51.134985" lon="5.685883">
        <ele>41.113690</ele>
        <time>2023-03-05T09:42:26.000Z</time>
      </trkpt>
      <trkpt lat="51.135029" lon="5.685968">
        <ele>41.116152</ele>
        <time>2023-03-05T09:42:27.000Z</time>
      </trkpt>
      <trkpt lat="51.135073" lon="5.686055">
        <ele>41.118648</ele>
        <time>2023-03-05T09:42:28.000Z</time>
      </trkpt>
      <trkpt lat="51.135120" lon="5.686143">
        <ele>41.121230</ele>
        <time>2023-03-05T09:42:29.000Z</time>
      </trkpt>
      <trkpt lat="51.135165" lon="5.686230">
        <ele>41.123749</ele>
        <time>2023-03-05T09:42:30.000Z</time>
      </trkpt>
      <trkpt lat="51.135209" lon="5.686317">
        <ele>41.126246</ele>
        <time>2023-03-05T09:42:31.000Z</time>
      </trkpt>
      <trkpt lat="51.135255" lon="5.686400">
        <ele>41.128720</ele>
        <time>2023-03-05T09:42:32.000Z</time>
      </trkpt>
      <trkpt lat="51.135301" lon="5.686483">
        <ele>41.131194</ele>
        <time>2023-03-05T09:42:33.000Z</time>
      </trkpt>
      <trkpt lat="51.135345" lon="5.686564">
        <ele>41.133587</ele>
        <time>2023-03-05T09:42:34.000Z</time>
      </trkpt>
      <trkpt lat="51.135391" lon="5.686647">
        <ele>41.125055</ele>
        <time>2023-03-05T09:42:35.000Z</time>
      </trkpt>
      <trkpt lat="51.135437" lon="5.686732">
        <ele>41.113570</ele>
        <time>2023-03-05T09:42:36.000Z</time>
      </trkpt>
      <trkpt lat="51.135484" lon="5.686818">
        <ele>41.101902</ele>
        <time>2023-03-05T09:42:37.000Z</time>
      </trkpt>
      <trkpt lat="51.135532" lon="5.686904">
        <ele>41.090125</ele>
        <time>2023-03-05T09:42:38.000Z</time>
      </trkpt>
      <trkpt lat="51.135579" lon="5.686991">
        <ele>41.078379</ele>
        <time>2023-03-05T09:42:39.000Z</time>
      </trkpt>
      <trkpt lat="51.135627" lon="5.687080">
        <ele>41.066372</ele>
        <time>2023-03-05T09:42:40.000Z</time>
      </trkpt>
      <trkpt lat="51.135674" lon="5.687169">
        <ele>41.054470</ele>
        <time>2023-03-05T09:42:41.000Z</time>
      </trkpt>
      <trkpt lat="51.135721" lon="5.687259">
        <ele>41.042489</ele>
        <time>2023-03-05T09:42:42.000Z</time>
      </trkpt>
      <trkpt lat="51.135766" lon="5.687348">
        <ele>41.030795</ele>
        <time>2023-03-05T09:42:43.000Z</time>
      </trkpt>
      <trkpt lat="51.135811" lon="5.687440">
        <ele>41.018860</ele>
        <time>2023-03-05T09:42:44.000Z</time>
      </trkpt>
      <trkpt lat="51.135855" lon="5.687538">
        <ele>41.006530</ele>
        <time>2023-03-05T09:42:45.000Z</time>
      </trkpt>
      <trkpt lat="51.135899" lon="5.687639">
        <ele>40.993950</ele>
        <time>2023-03-05T09:42:46.000Z</time>
      </trkpt>
      <trkpt lat="51.135943" lon="5.687742">
        <ele>40.981201</ele>
        <time>2023-03-05T09:42:47.000Z</time>
      </trkpt>
      <trkpt lat="51.135987" lon="5.687842">
        <ele>40.968705</ele>
        <time>2023-03-05T09:42:48.000Z</time>
      </trkpt>
      <trkpt lat="51.136031" lon="5.687942">
        <ele>40.956208</ele>
        <time>2023-03-05T09:42:49.000Z</time>
      </trkpt>
      <trkpt lat="51.136073" lon="5.688040">
        <ele>40.944066</ele>
        <time>2023-03-05T09:42:50.000Z</time>
      </trkpt>
      <trkpt lat="51.136115" lon="5.688137">
        <ele>40.932008</ele>
        <time>2023-03-05T09:42:51.000Z</time>
      </trkpt>
      <trkpt lat="51.136154" lon="5.688235">
        <ele>40.920134</ele>
        <time>2023-03-05T09:42:52.000Z</time>
      </trkpt>
      <trkpt lat="51.136195" lon="5.688331">
        <ele>40.908253</ele>
        <time>2023-03-05T09:42:53.000Z</time>
      </trkpt>
      <trkpt lat="51.136235" lon="5.688426">
        <ele>40.896547</ele>
        <time>2023-03-05T09:42:54.000Z</time>
      </trkpt>
      <trkpt lat="51.136271" lon="5.688516">
        <ele>40.885627</ele>
        <time>2023-03-05T09:42:55.000Z</time>
      </trkpt>
      <trkpt lat="51.136308" lon="5.688608">
        <ele>40.874447</ele>
        <time>2023-03-05T09:42:56.000Z</time>
      </trkpt>
      <trkpt lat="51.136345" lon="5.688701">
        <ele>40.863180</ele>
        <time>2023-03-05T09:42:57.000Z</time>
      </trkpt>
      <trkpt lat="51.136384" lon="5.688793">
        <ele>40.851820</ele>
        <time>2023-03-05T09:42:58.000Z</time>
      </trkpt>
      <trkpt lat="51.136422" lon="5.688885">
        <ele>40.840229</ele>
        <time>2023-03-05T09:42:59.000Z</time>
      </trkpt>
      <trkpt lat="51.136457" lon="5.688977">
        <ele>40.815216</ele>
        <time>2023-03-05T09:43:00.000Z</time>
      </trkpt>
      <trkpt lat="51.136494" lon="5.689072">
        <ele>40.789221</ele>
        <time>2023-03-05T09:43:01.000Z</time>
      </trkpt>
      <trkpt lat="51.136532" lon="5.689168">
        <ele>40.762833</ele>
        <time>2023-03-05T09:43:02.000Z</time>
      </trkpt>
      <trkpt lat="51.136570" lon="5.689262">
        <ele>40.736836</ele>
        <time>2023-03-05T09:43:03.000Z</time>
      </trkpt>
      <trkpt lat="51.136608" lon="5.689355">
        <ele>40.711035</ele>
        <time>2023-03-05T09:43:04.000Z</time>
      </trkpt>
      <trkpt lat="51.136646" lon="5.689454">
        <ele>40.684054</ele>
        <time>2023-03-05T09:43:05.000Z</time>
      </trkpt>
      <trkpt lat="51.136687" lon="5.689551">
        <ele>40.656863</ele>
        <time>2023-03-05T09:43:06.000Z</time>
      </trkpt>
      <trkpt lat="51.136727" lon="5.689647">
        <ele>40.630072</ele>
        <time>2023-03-05T09:43:07.000Z</time>
      </trkpt>
      <trkpt lat="51.136765" lon="5.689739">
        <ele>40.604465</ele>
        <time>2023-03-05T09:43:08.000Z</time>
      </trkpt>
      <trkpt lat="51.136805" lon="5.689832">
        <ele>40.578252</ele>
        <time>2023-03-05T09:43:09.000Z</time>
      </trkpt>
      <trkpt lat="51.136845" lon="5.689929">
        <ele>40.551267</ele>
        <time>2023-03-05T09:43:10.000Z</time>
      </trkpt>
      <trkpt lat="51.136883" lon="5.690025">
        <ele>40.524878</ele>
        <time>2023-03-05T09:43:11.000Z</time>
      </trkpt>
      <trkpt lat="51.136921" lon="5.690124">
        <ele>40.497897</ele>
        <time>2023-03-05T09:43:12.000Z</time>
      </trkpt>
      <trkpt lat="51.136954" lon="5.690223">
        <ele>40.471835</ele>
        <time>2023-03-05T09:43:13.000Z</time>
      </trkpt>
      <trkpt lat="51.136983" lon="5.690325">
        <ele>40.445801</ele>
        <time>2023-03-05T09:43:14.000Z</time>
      </trkpt>
      <trkpt lat="51.137005" lon="5.690432">
        <ele>40.419624</ele>
        <time>2023-03-05T09:43:15.000Z</time>
      </trkpt>
      <trkpt lat="51.137019" lon="5.690546">
        <ele>40.392618</ele>
        <time>2023-03-05T09:43:16.000Z</time>
      </trkpt>
      <trkpt lat="51.137031" lon="5.690661">
        <ele>40.365515</ele>
        <time>2023-03-05T09:43:17.000Z</time>
      </trkpt>
      <trkpt lat="51.137040" lon="5.690776">
        <ele>40.338572</ele>
        <time>2023-03-05T09:43:18.000Z</time>
      </trkpt>
      <trkpt lat="51.137048" lon="5.690892">
        <ele>40.311442</ele>
        <time>2023-03-05T09:43:19.000Z</time>
      </trkpt>
      <trkpt lat="51.137053" lon="5.691004">
        <ele>40.285338</ele>
        <time>2023-03-05T09:43:20.000Z</time>
      </trkpt>
      <trkpt lat="51.137057" lon="5.691116">
        <ele>40.259257</ele>
        <time>2023-03-05T09:43:21.000Z</time>
      </trkpt>
      <trkpt lat="51.137063" lon="5.691230">
        <ele>40.232661</ele>
        <time>2023-03-05T09:43:22.000Z</time>
      </trkpt>
      <trkpt lat="51.137070" lon="5.691345">
        <ele>40.205800</ele>
        <time>2023-03-05T09:43:23.000Z</time>
      </trkpt>
      <trkpt lat="51.137076" lon="5.691459">
        <ele>40.179204</ele>
        <time>2023-03-05T09:43:24.000Z</time>
      </trkpt>
      <trkpt lat="51.137082" lon="5.691573">
        <ele>40.178637</ele>
        <time>2023-03-05T09:43:25.000Z</time>
      </trkpt>
      <trkpt lat="51.137087" lon="5.691687">
        <ele>40.183834</ele>
        <time>2023-03-05T09:43:26.000Z</time>
      </trkpt>
      <trkpt lat="51.137091" lon="5.691800">
        <ele>40.188982</ele>
        <time>2023-03-05T09:43:27.000Z</time>
      </trkpt>
      <trkpt lat="51.137095" lon="5.691910">
        <ele>40.193993</ele>
        <time>2023-03-05T09:43:28.000Z</time>
      </trkpt>
      <trkpt lat="51.137099" lon="5.692020">
        <ele>40.199005</ele>
        <time>2023-03-05T09:43:29.000Z</time>
      </trkpt>
      <trkpt lat="51.137105" lon="5.692132">
        <ele>40.204117</ele>
        <time>2023-03-05T09:43:30.000Z</time>
      </trkpt>
      <trkpt lat="51.137110" lon="5.692244">
        <ele>40.209224</ele>
        <time>2023-03-05T09:43:31.000Z</time>
      </trkpt>
      <trkpt lat="51.137109" lon="5.692358">
        <ele>40.214409</ele>
        <time>2023-03-05T09:43:32.000Z</time>
      </trkpt>
      <trkpt lat="51.137108" lon="5.692474">
        <ele>40.219685</ele>
        <time>2023-03-05T09:43:33.000Z</time>
      </trkpt>
      <trkpt lat="51.137108" lon="5.692588">
        <ele>40.224870</ele>
        <time>2023-03-05T09:43:34.000Z</time>
      </trkpt>
      <trkpt lat="51.137106" lon="5.692700">
        <ele>40.229966</ele>
        <time>2023-03-05T09:43:35.000Z</time>
      </trkpt>
      <trkpt lat="51.137104" lon="5.692813">
        <ele>40.235107</ele>
        <time>2023-03-05T09:43:36.000Z</time>
      </trkpt>
      <trkpt lat="51.137102" lon="5.692926">
        <ele>40.240249</ele>
        <time>2023-03-05T09:43:37.000Z</time>
      </trkpt>
      <trkpt lat="51.137100" lon="5.693039">
        <ele>40.245390</ele>
        <time>2023-03-05T09:43:38.000Z</time>
      </trkpt>
      <trkpt lat="51.137100" lon="5.693151">
        <ele>40.250484</ele>
        <time>2023-03-05T09:43:39.000Z</time>
      </trkpt>
      <trkpt lat="51.137100" lon="5.693267">
        <ele>40.255760</ele>
        <time>2023-03-05T09:43:40.000Z</time>
      </trkpt>
      <trkpt lat="51.137100" lon="5.693384">
        <ele>40.261081</ele>
        <time>2023-03-05T09:43:41.000Z</time>
      </trkpt>
      <trkpt lat="51.137100" lon="5.693497">
        <ele>40.266220</ele>
        <time>2023-03-05T09:43:42.000Z</time>
      </trkpt>
      <trkpt lat="51.137100" lon="5.693611">
        <ele>40.271405</ele>
        <time>2023-03-05T09:43:43.000Z</time>
      </trkpt>
      <trkpt lat="51.137100" lon="5.693726">
        <ele>40.276636</ele>
        <time>2023-03-05T09:43:44.000Z</time>
      </trkpt>
      <trkpt lat="51.137100" lon="5.693839">
        <ele>40.281775</ele>
        <time>2023-03-05T09:43:45.000Z</time>
      </trkpt>
      <trkpt lat="51.137100" lon="5.693953">
        <ele>40.286960</ele>
        <time>2023-03-05T09:43:46.000Z</time>
      </trkpt>
      <trkpt lat="51.137105" lon="5.694066">
        <ele>40.292112</ele>
        <time>2023-03-05T09:43:47.000Z</time>
      </trkpt>
      <trkpt lat="51.137110" lon="5.694179">
        <ele>40.297264</ele>
        <time>2023-03-05T09:43:48.000Z</time>
      </trkpt>
      <trkpt lat="51.137114" lon="5.694296">
        <ele>40.302593</ele>
        <time>2023-03-05T09:43:49.000Z</time>
      </trkpt>
      <trkpt lat="51.137118" lon="5.694412">
        <ele>40.299740</ele>
        <time>2023-03-05T09:43:50.000Z</time>
      </trkpt>
      <trkpt lat="51.137124" lon="5.694527">
        <ele>40.291326</ele>
        <time>2023-03-05T09:43:51.000Z</time>
      </trkpt>
      <trkpt lat="51.137132" lon="5.694643">
        <ele>40.282817</ele>
        <time>2023-03-05T09:43:52.000Z</time>
      </trkpt>
      <trkpt lat="51.137139" lon="5.694756">
        <ele>40.274537</ele>
        <time>2023-03-05T09:43:53.000Z</time>
      </trkpt>
      <trkpt lat="51.137149" lon="5.694869">
        <ele>40.266216</ele>
        <time>2023-03-05T09:43:54.000Z</time>
      </trkpt>
      <trkpt lat="51.137160" lon="5.694986">
        <ele>40.257589</ele>
        <time>2023-03-05T09:43:55.000Z</time>
      </trkpt>
      <trkpt lat="51.137172" lon="5.695103">
        <ele>40.248945</ele>
        <time>2023-03-05T09:43:56.000Z</time>
      </trkpt>
      <trkpt lat="51.137186" lon="5.695219">
        <ele>40.240331</ele>
        <time>2023-03-05T09:43:57.000Z</time>
      </trkpt>
      <trkpt lat="51.137201" lon="5.695333">
        <ele>40.231838</ele>
        <time>2023-03-05T09:43:58.000Z</time>
      </trkpt>
      <trkpt lat="51.137216" lon="5.695446">
        <ele>40.223416</ele>
        <time>2023-03-05T09:43:59.000Z</time>
      </trkpt>
      <trkpt lat="51.137231" lon="5.695558">
        <ele>40.215065</ele>
        <time>2023-03-05T09:44:00.000Z</time>
      </trkpt>
      <trkpt lat="51.137249" lon="5.695676">
        <ele>40.206211</ele>
        <time>2023-03-05T09:44:01.000Z</time>
      </trkpt>
      <trkpt lat="51.137266" lon="5.695792">
        <ele>40.197525</ele>
        <time>2023-03-05T09:44:02.000Z</time>
      </trkpt>
      <trkpt lat="51.137281" lon="5.695902">
        <ele>40.189317</ele>
        <time>2023-03-05T09:44:03.000Z</time>
      </trkpt>
      <trkpt lat="51.137299" lon="5.696015">
        <ele>40.180816</ele>
        <time>2023-03-05T09:44:04.000Z</time>
      </trkpt>
      <trkpt lat="51.137315" lon="5.696124">
        <ele>40.172653</ele>
        <time>2023-03-05T09:44:05.000Z</time>
      </trkpt>
      <trkpt lat="51.137328" lon="5.696233">
        <ele>40.164563</ele>
        <time>2023-03-05T09:44:06.000Z</time>
      </trkpt>
      <trkpt lat="51.137342" lon="5.696344">
        <ele>40.156307</ele>
        <time>2023-03-05T09:44:07.000Z</time>
      </trkpt>
      <trkpt lat="51.137357" lon="5.696457">
        <ele>40.147885</ele>
        <time>2023-03-05T09:44:08.000Z</time>
      </trkpt>
      <trkpt lat="51.137375" lon="5.696569">
        <ele>40.139455</ele>
        <time>2023-03-05T09:44:09.000Z</time>
      </trkpt>
      <trkpt lat="51.137392" lon="5.696683">
        <ele>40.130911</ele>
        <time>2023-03-05T09:44:10.000Z</time>
      </trkpt>
      <trkpt lat="51.137407" lon="5.696795">
        <ele>40.122560</ele>
        <time>2023-03-05T09:44:11.000Z</time>
      </trkpt>
      <trkpt lat="51.137424" lon="5.696907">
        <ele>40.114158</ele>
        <time>2023-03-05T09:44:12.000Z</time>
      </trkpt>
      <trkpt lat="51.137441" lon="5.697025">
        <ele>40.105330</ele>
        <time>2023-03-05T09:44:13.000Z</time>
      </trkpt>
      <trkpt lat="51.137454" lon="5.697143">
        <ele>40.096594</ele>
        <time>2023-03-05T09:44:14.000Z</time>
      </trkpt>
      <trkpt lat="51.137468" lon="5.697257">
        <ele>40.077486</ele>
        <time>2023-03-05T09:44:15.000Z</time>
      </trkpt>
      <trkpt lat="51.137483" lon="5.697369">
        <ele>40.057457</ele>
        <time>2023-03-05T09:44:16.000Z</time>
      </trkpt>
      <trkpt lat="51.137501" lon="5.697479">
        <ele>40.037576</ele>
        <time>2023-03-05T09:44:17.000Z</time>
      </trkpt>
      <trkpt lat="51.137515" lon="5.697587">
        <ele>40.018289</ele>
        <time>2023-03-05T09:44:18.000Z</time>
      </trkpt>
      <trkpt lat="51.137529" lon="5.697700">
        <ele>39.998144</ele>
        <time>2023-03-05T09:44:19.000Z</time>
      </trkpt>
      <trkpt lat="51.137542" lon="5.697820">
        <ele>39.976847</ele>
        <time>2023-03-05T09:44:20.000Z</time>
      </trkpt>
      <trkpt lat="51.137558" lon="5.697939">
        <ele>39.955563</ele>
        <time>2023-03-05T09:44:21.000Z</time>
      </trkpt>
      <trkpt lat="51.137575" lon="5.698054">
        <ele>39.934900</ele>
        <time>2023-03-05T09:44:22.000Z</time>
      </trkpt>
      <trkpt lat="51.137592" lon="5.698169">
        <ele>39.914237</ele>
        <time>2023-03-05T09:44:23.000Z</time>
      </trkpt>
      <trkpt lat="51.137609" lon="5.698286">
        <ele>39.893233</ele>
        <time>2023-03-05T09:44:24.000Z</time>
      </trkpt>
      <trkpt lat="51.137624" lon="5.698404">
        <ele>39.872177</ele>
        <time>2023-03-05T09:44:25.000Z</time>
      </trkpt>
      <trkpt lat="51.137640" lon="5.698521">
        <ele>39.851234</ele>
        <time>2023-03-05T09:44:26.000Z</time>
      </trkpt>
      <trkpt lat="51.137655" lon="5.698638">
        <ele>39.830349</ele>
        <time>2023-03-05T09:44:27.000Z</time>
      </trkpt>
      <trkpt lat="51.137670" lon="5.698756">
        <ele>39.809293</ele>
        <time>2023-03-05T09:44:28.000Z</time>
      </trkpt>
      <trkpt lat="51.137685" lon="5.698869">
        <ele>39.789093</ele>
        <time>2023-03-05T09:44:29.000Z</time>
      </trkpt>
      <trkpt lat="51.137700" lon="5.698986">
        <ele>39.768208</ele>
        <time>2023-03-05T09:44:30.000Z</time>
      </trkpt>
      <trkpt lat="51.137716" lon="5.699103">
        <ele>39.747266</ele>
        <time>2023-03-05T09:44:31.000Z</time>
      </trkpt>
      <trkpt lat="51.137733" lon="5.699217">
        <ele>39.726773</ele>
        <time>2023-03-05T09:44:32.000Z</time>
      </trkpt>
      <trkpt lat="51.137750" lon="5.699332">
        <ele>39.706110</ele>
        <time>2023-03-05T09:44:33.000Z</time>
      </trkpt>
      <trkpt lat="51.137766" lon="5.699452">
        <ele>39.684655</ele>
        <time>2023-03-05T09:44:34.000Z</time>
      </trkpt>
      <trkpt lat="51.137780" lon="5.699568">
        <ele>39.663996</ele>
        <time>2023-03-05T09:44:35.000Z</time>
      </trkpt>
      <trkpt lat="51.137796" lon="5.699685">
        <ele>39.643053</ele>
        <time>2023-03-05T09:44:36.000Z</time>
      </trkpt>
      <trkpt lat="51.137813" lon="5.699803">
        <ele>39.621879</ele>
        <time>2023-03-05T09:44:37.000Z</time>
      </trkpt>
      <trkpt lat="51.137830" lon="5.699921">
        <ele>39.600705</ele>
        <time>2023-03-05T09:44:38.000Z</time>
      </trkpt>
      <trkpt lat="51.137848" lon="5.700038">
        <ele>39.584798</ele>
        <time>2023-03-05T09:44:39.000Z</time>
      </trkpt>
      <trkpt lat="51.137865" lon="5.700155">
        <ele>39.571140</ele>
        <time>2023-03-05T09:44:40.000Z</time>
      </trkpt>
      <trkpt lat="51.137880" lon="5.700271">
        <ele>39.557670</ele>
        <time>2023-03-05T09:44:41.000Z</time>
      </trkpt>
      <trkpt lat="51.137895" lon="5.700383">
        <ele>39.544646</ele>
        <time>2023-03-05T09:44:42.000Z</time>
      </trkpt>
      <trkpt lat="51.137910" lon="5.700495">
        <ele>39.531622</ele>
        <time>2023-03-05T09:44:43.000Z</time>
      </trkpt>
      <trkpt lat="51.137923" lon="5.700608">
        <ele>39.518557</ele>
        <time>2023-03-05T09:44:44.000Z</time>
      </trkpt>
      <trkpt lat="51.137937" lon="5.700721">
        <ele>39.505458</ele>
        <time>2023-03-05T09:44:45.000Z</time>
      </trkpt>
      <trkpt lat="51.137952" lon="5.700833">
        <ele>39.492433</ele>
        <time>2023-03-05T09:44:46.000Z</time>
      </trkpt>
      <trkpt lat="51.137967" lon="5.700944">
        <ele>39.479520</ele>
        <time>2023-03-05T09:44:47.000Z</time>
      </trkpt>
      <trkpt lat="51.137983" lon="5.701055">
        <ele>39.466568</ele>
        <time>2023-03-05T09:44:48.000Z</time>
      </trkpt>
      <trkpt lat="51.137998" lon="5.701165">
        <ele>39.453766</ele>
        <time>2023-03-05T09:44:49.000Z</time>
      </trkpt>
      <trkpt lat="51.138016" lon="5.701278">
        <ele>39.440507</ele>
        <time>2023-03-05T09:44:50.000Z</time>
      </trkpt>
      <trkpt lat="51.138032" lon="5.701389">
        <ele>39.427555</ele>
        <time>2023-03-05T09:44:51.000Z</time>
      </trkpt>
      <trkpt lat="51.138048" lon="5.701502">
        <ele>39.414381</ele>
        <time>2023-03-05T09:44:52.000Z</time>
      </trkpt>
      <trkpt lat="51.138065" lon="5.701614">
        <ele>39.401276</ele>
        <time>2023-03-05T09:44:53.000Z</time>
      </trkpt>
      <trkpt lat="51.138082" lon="5.701726">
        <ele>39.388171</ele>
        <time>2023-03-05T09:44:54.000Z</time>
      </trkpt>
      <trkpt lat="51.138097" lon="5.701843">
        <ele>39.374591</ele>
        <time>2023-03-05T09:44:55.000Z</time>
      </trkpt>
      <trkpt lat="51.138115" lon="5.701959">
        <ele>39.361001</ele>
        <time>2023-03-05T09:44:56.000Z</time>
      </trkpt>
      <trkpt lat="51.138131" lon="5.702075">
        <ele>39.347494</ele>
        <time>2023-03-05T09:44:57.000Z</time>
      </trkpt>
      <trkpt lat="51.138149" lon="5.702194">
        <ele>39.333573</ele>
        <time>2023-03-05T09:44:58.000Z</time>
      </trkpt>
      <trkpt lat="51.138164" lon="5.702311">
        <ele>39.319992</ele>
        <time>2023-03-05T09:44:59.000Z</time>
      </trkpt>
      <trkpt lat="51.138177" lon="5.702426">
        <ele>39.306703</ele>
        <time>2023-03-05T09:45:00.000Z</time>
      </trkpt>
      <trkpt lat="51.138195" lon="5.702540">
        <ele>39.293334</ele>
        <time>2023-03-05T09:45:01.000Z</time>
      </trkpt>
      <trkpt lat="51.138211" lon="5.702649">
        <ele>39.280603</ele>
        <time>2023-03-05T09:45:02.000Z</time>
      </trkpt>
      <trkpt lat="51.138229" lon="5.702765">
        <ele>39.266654</ele>
        <time>2023-03-05T09:45:03.000Z</time>
      </trkpt>
      <trkpt lat="51.138246" lon="5.702887">
        <ele>39.248719</ele>
        <time>2023-03-05T09:45:04.000Z</time>
      </trkpt>
      <trkpt lat="51.138261" lon="5.703003">
        <ele>39.231721</ele>
        <time>2023-03-05T09:45:05.000Z</time>
      </trkpt>
      <trkpt lat="51.138276" lon="5.703113">
        <ele>39.215566</ele>
        <time>2023-03-05T09:45:06.000Z</time>
      </trkpt>
      <trkpt lat="51.138291" lon="5.703227">
        <ele>39.198849</ele>
        <time>2023-03-05T09:45:07.000Z</time>
      </trkpt>
      <trkpt lat="51.138307" lon="5.703342">
        <ele>39.181944</ele>
        <time>2023-03-05T09:45:08.000Z</time>
      </trkpt>
      <trkpt lat="51.138322" lon="5.703455">
        <ele>39.165368</ele>
        <time>2023-03-05T09:45:09.000Z</time>
      </trkpt>
      <trkpt lat="51.138335" lon="5.703567">
        <ele>39.149022</ele>
        <time>2023-03-05T09:45:10.000Z</time>
      </trkpt>
      <trkpt lat="51.138347" lon="5.703677">
        <ele>39.132998</ele>
        <time>2023-03-05T09:45:11.000Z</time>
      </trkpt>
      <trkpt lat="51.138360" lon="5.703789">
        <ele>39.116652</ele>
        <time>2023-03-05T09:45:12.000Z</time>
      </trkpt>
      <trkpt lat="51.138373" lon="5.703901">
        <ele>39.100305</ele>
        <time>2023-03-05T09:45:13.000Z</time>
      </trkpt>
      <trkpt lat="51.138387" lon="5.704012">
        <ele>39.084057</ele>
        <time>2023-03-05T09:45:14.000Z</time>
      </trkpt>
      <trkpt lat="51.138402" lon="5.704120">
        <ele>39.068182</ele>
        <time>2023-03-05T09:45:15.000Z</time>
      </trkpt>
      <trkpt lat="51.138418" lon="5.704225">
        <ele>39.052675</ele>
        <time>2023-03-05T09:45:16.000Z</time>
      </trkpt>
      <trkpt lat="51.138433" lon="5.704331">
        <ele>39.037080</ele>
        <time>2023-03-05T09:45:17.000Z</time>
      </trkpt>
      <trkpt lat="51.138448" lon="5.704442">
        <ele>39.020785</ele>
        <time>2023-03-05T09:45:18.000Z</time>
      </trkpt>
      <trkpt lat="51.138463" lon="5.704555">
        <ele>39.004209</ele>
        <time>2023-03-05T09:45:19.000Z</time>
      </trkpt>
      <trkpt lat="51.138476" lon="5.704668">
        <ele>38.987721</ele>
        <time>2023-03-05T09:45:20.000Z</time>
      </trkpt>
      <trkpt lat="51.138490" lon="5.704781">
        <ele>38.971191</ele>
        <time>2023-03-05T09:45:21.000Z</time>
      </trkpt>
      <trkpt lat="51.138505" lon="5.704894">
        <ele>38.954615</ele>
        <time>2023-03-05T09:45:22.000Z</time>
      </trkpt>
      <trkpt lat="51.138518" lon="5.705004">
        <ele>38.938551</ele>
        <time>2023-03-05T09:45:23.000Z</time>
      </trkpt>
      <trkpt lat="51.138530" lon="5.705117">
        <ele>38.922103</ele>
        <time>2023-03-05T09:45:24.000Z</time>
      </trkpt>
      <trkpt lat="51.138537" lon="5.705230">
        <ele>38.905807</ele>
        <time>2023-03-05T09:45:25.000Z</time>
      </trkpt>
      <trkpt lat="51.138541" lon="5.705339">
        <ele>38.890137</ele>
        <time>2023-03-05T09:45:26.000Z</time>
      </trkpt>
      <trkpt lat="51.138544" lon="5.705451">
        <ele>38.874049</ele>
        <time>2023-03-05T09:45:27.000Z</time>
      </trkpt>
      <trkpt lat="51.138545" lon="5.705585">
        <ele>38.856564</ele>
        <time>2023-03-05T09:45:28.000Z</time>
      </trkpt>
      <trkpt lat="51.138542" lon="5.705731">
        <ele>38.852506</ele>
        <time>2023-03-05T09:45:29.000Z</time>
      </trkpt>
      <trkpt lat="51.138540" lon="5.705878">
        <ele>38.848421</ele>
        <time>2023-03-05T09:45:30.000Z</time>
      </trkpt>
      <trkpt lat="51.138518" lon="5.705990">
        <ele>38.845160</ele>
        <time>2023-03-05T09:45:31.000Z</time>
      </trkpt>
      <trkpt lat="51.138504" lon="5.706069">
        <ele>38.842880</ele>
        <time>2023-03-05T09:45:32.000Z</time>
      </trkpt>
      <trkpt lat="51.138512" lon="5.706146">
        <ele>38.840712</ele>
        <time>2023-03-05T09:45:33.000Z</time>
      </trkpt>
      <trkpt lat="51.138518" lon="5.706249">
        <ele>38.837838</ele>
        <time>2023-03-05T09:45:34.000Z</time>
      </trkpt>
      <trkpt lat="51.138522" lon="5.706349">
        <ele>38.835054</ele>
        <time>2023-03-05T09:45:35.000Z</time>
      </trkpt>
      <trkpt lat="51.138523" lon="5.706450">
        <ele>38.832248</ele>
        <time>2023-03-05T09:45:36.000Z</time>
      </trkpt>
      <trkpt lat="51.138523" lon="5.706548">
        <ele>38.829525</ele>
        <time>2023-03-05T09:45:37.000Z</time>
      </trkpt>
      <trkpt lat="51.138523" lon="5.706631">
        <ele>38.827219</ele>
        <time>2023-03-05T09:45:38.000Z</time>
      </trkpt>
      <trkpt lat="51.138521" lon="5.706705">
        <ele>38.825162</ele>
        <time>2023-03-05T09:45:39.000Z</time>
      </trkpt>
      <trkpt lat="51.138515" lon="5.706771">
        <ele>38.823309</ele>
        <time>2023-03-05T09:45:40.000Z</time>
      </trkpt>
      <trkpt lat="51.138498" lon="5.706828">
        <ele>38.821556</ele>
        <time>2023-03-05T09:45:41.000Z</time>
      </trkpt>
      <trkpt lat="51.138476" lon="5.706882">
        <ele>38.819767</ele>
        <time>2023-03-05T09:45:42.000Z</time>
      </trkpt>
      <trkpt lat="51.138446" lon="5.706922">
        <ele>38.818035</ele>
        <time>2023-03-05T09:45:43.000Z</time>
      </trkpt>
      <trkpt lat="51.138402" lon="5.706938">
        <ele>38.816037</ele>
        <time>2023-03-05T09:45:44.000Z</time>
      </trkpt>
      <trkpt lat="51.138350" lon="5.706947">
        <ele>38.813721</ele>
        <time>2023-03-05T09:45:45.000Z</time>
      </trkpt>
      <trkpt lat="51.138292" lon="5.706953">
        <ele>38.811147</ele>
        <time>2023-03-05T09:45:46.000Z</time>
      </trkpt>
      <trkpt lat="51.138229" lon="5.706962">
        <ele>38.808347</ele>
        <time>2023-03-05T09:45:47.000Z</time>
      </trkpt>
      <trkpt lat="51.138167" lon="5.706980">
        <ele>38.805556</ele>
        <time>2023-03-05T09:45:48.000Z</time>
      </trkpt>
      <trkpt lat="51.138110" lon="5.707015">
        <ele>38.802852</ele>
        <time>2023-03-05T09:45:49.000Z</time>
      </trkpt>
      <trkpt lat="51.138059" lon="5.707074">
        <ele>38.800061</ele>
        <time>2023-03-05T09:45:50.000Z</time>
      </trkpt>
      <trkpt lat="51.138014" lon="5.707151">
        <ele>38.797138</ele>
        <time>2023-03-05T09:45:51.000Z</time>
      </trkpt>
      <trkpt lat="51.137980" lon="5.707238">
        <ele>38.794290</ele>
        <time>2023-03-05T09:45:52.000Z</time>
      </trkpt>
      <trkpt lat="51.137947" lon="5.707333">
        <ele>38.791274</ele>
        <time>2023-03-05T09:45:53.000Z</time>
      </trkpt>
      <trkpt lat="51.137912" lon="5.707436">
        <ele>38.788019</ele>
        <time>2023-03-05T09:45:54.000Z</time>
      </trkpt>
      <trkpt lat="51.137879" lon="5.707543">
        <ele>38.784707</ele>
        <time>2023-03-05T09:45:55.000Z</time>
      </trkpt>
      <trkpt lat="51.137847" lon="5.707649">
        <ele>38.781439</ele>
        <time>2023-03-05T09:45:56.000Z</time>
      </trkpt>
      <trkpt lat="51.137812" lon="5.707756">
        <ele>38.778087</ele>
        <time>2023-03-05T09:45:57.000Z</time>
      </trkpt>
      <trkpt lat="51.137777" lon="5.707864">
        <ele>38.774605</ele>
        <time>2023-03-05T09:45:58.000Z</time>
      </trkpt>
      <trkpt lat="51.137743" lon="5.707967">
        <ele>38.771244</ele>
        <time>2023-03-05T09:45:59.000Z</time>
      </trkpt>
      <trkpt lat="51.137712" lon="5.708066">
        <ele>38.768049</ele>
        <time>2023-03-05T09:46:00.000Z</time>
      </trkpt>
      <trkpt lat="51.137678" lon="5.708166">
        <ele>38.764764</ele>
        <time>2023-03-05T09:46:01.000Z</time>
      </trkpt>
      <trkpt lat="51.137648" lon="5.708265">
        <ele>38.761588</ele>
        <time>2023-03-05T09:46:02.000Z</time>
      </trkpt>
      <trkpt lat="51.137620" lon="5.708356">
        <ele>38.758661</ele>
        <time>2023-03-05T09:46:03.000Z</time>
      </trkpt>
      <trkpt lat="51.137589" lon="5.708448">
        <ele>38.755645</ele>
        <time>2023-03-05T09:46:04.000Z</time>
      </trkpt>
      <trkpt lat="51.137560" lon="5.708538">
        <ele>38.752723</ele>
        <time>2023-03-05T09:46:05.000Z</time>
      </trkpt>
      <trkpt lat="51.137531" lon="5.708622">
        <ele>38.749954</ele>
        <time>2023-03-05T09:46:06.000Z</time>
      </trkpt>
      <trkpt lat="51.137503" lon="5.708706">
        <ele>38.747207</ele>
        <time>2023-03-05T09:46:07.000Z</time>
      </trkpt>
      <trkpt lat="51.137476" lon="5.708788">
        <ele>38.744532</ele>
        <time>2023-03-05T09:46:08.000Z</time>
      </trkpt>
      <trkpt lat="51.137454" lon="5.708869">
        <ele>38.741983</ele>
        <time>2023-03-05T09:46:09.000Z</time>
      </trkpt>
      <trkpt lat="51.137442" lon="5.708949">
        <ele>38.739608</ele>
        <time>2023-03-05T09:46:10.000Z</time>
      </trkpt>
      <trkpt lat="51.137449" lon="5.709025">
        <ele>38.737389</ele>
        <time>2023-03-05T09:46:11.000Z</time>
      </trkpt>
      <trkpt lat="51.137477" lon="5.709094">
        <ele>38.735016</ele>
        <time>2023-03-05T09:46:12.000Z</time>
      </trkpt>
      <trkpt lat="51.137521" lon="5.709155">
        <ele>38.732331</ele>
        <time>2023-03-05T09:46:13.000Z</time>
      </trkpt>
      <trkpt lat="51.137573" lon="5.709212">
        <ele>38.729426</ele>
        <time>2023-03-05T09:46:14.000Z</time>
      </trkpt>
      <trkpt lat="51.137628" lon="5.709270">
        <ele>38.726391</ele>
        <time>2023-03-05T09:46:15.000Z</time>
      </trkpt>
      <trkpt lat="51.137686" lon="5.709329">
        <ele>38.723224</ele>
        <time>2023-03-05T09:46:16.000Z</time>
      </trkpt>
      <trkpt lat="51.137745" lon="5.709392">
        <ele>38.719955</ele>
        <time>2023-03-05T09:46:17.000Z</time>
      </trkpt>
      <trkpt lat="51.137806" lon="5.709454">
        <ele>38.716624</ele>
        <time>2023-03-05T09:46:18.000Z</time>
      </trkpt>
      <trkpt lat="51.137867" lon="5.709512">
        <ele>38.713355</ele>
        <time>2023-03-05T09:46:19.000Z</time>
      </trkpt>
      <trkpt lat="51.137926" lon="5.709570">
        <ele>38.710164</ele>
        <time>2023-03-05T09:46:20.000Z</time>
      </trkpt>
      <trkpt lat="51.137978" lon="5.709635">
        <ele>38.707122</ele>
        <time>2023-03-05T09:46:21.000Z</time>
      </trkpt>
      <trkpt lat="51.138026" lon="5.709710">
        <ele>38.704028</ele>
        <time>2023-03-05T09:46:22.000Z</time>
      </trkpt>
      <trkpt lat="51.138067" lon="5.709796">
        <ele>38.700909</ele>
        <time>2023-03-05T09:46:23.000Z</time>
      </trkpt>
      <trkpt lat="51.138098" lon="5.709893">
        <ele>38.697765</ele>
        <time>2023-03-05T09:46:24.000Z</time>
      </trkpt>
      <trkpt lat="51.138124" lon="5.709991">
        <ele>38.694692</ele>
        <time>2023-03-05T09:46:25.000Z</time>
      </trkpt>
      <trkpt lat="51.138151" lon="5.710092">
        <ele>38.683264</ele>
        <time>2023-03-05T09:46:26.000Z</time>
      </trkpt>
      <trkpt lat="51.138178" lon="5.710191">
        <ele>38.671656</ele>
        <time>2023-03-05T09:46:27.000Z</time>
      </trkpt>
      <trkpt lat="51.138204" lon="5.710285">
        <ele>38.660610</ele>
        <time>2023-03-05T09:46:28.000Z</time>
      </trkpt>
      <trkpt lat="51.138231" lon="5.710379">
        <ele>38.649493</ele>
        <time>2023-03-05T09:46:29.000Z</time>
      </trkpt>
      <trkpt lat="51.138258" lon="5.710473">
        <ele>38.638376</ele>
        <time>2023-03-05T09:46:30.000Z</time>
      </trkpt>
      <trkpt lat="51.138284" lon="5.710568">
        <ele>38.627231</ele>
        <time>2023-03-05T09:46:31.000Z</time>
      </trkpt>
      <trkpt lat="51.138311" lon="5.710663">
        <ele>38.616016</ele>
        <time>2023-03-05T09:46:32.000Z</time>
      </trkpt>
      <trkpt lat="51.138335" lon="5.710758">
        <ele>38.605004</ele>
        <time>2023-03-05T09:46:33.000Z</time>
      </trkpt>
      <trkpt lat="51.138361" lon="5.710854">
        <ele>38.593760</ele>
        <time>2023-03-05T09:46:34.000Z</time>
      </trkpt>
      <trkpt lat="51.138387" lon="5.710951">
        <ele>38.582418</ele>
        <time>2023-03-05T09:46:35.000Z</time>
      </trkpt>
      <trkpt lat="51.138413" lon="5.711042">
        <ele>38.571666</ele>
        <time>2023-03-05T09:46:36.000Z</time>
      </trkpt>
      <trkpt lat="51.138442" lon="5.711138">
        <ele>38.560209</ele>
        <time>2023-03-05T09:46:37.000Z</time>
      </trkpt>
      <trkpt lat="51.138471" lon="5.711238">
        <ele>38.548363</ele>
        <time>2023-03-05T09:46:38.000Z</time>
      </trkpt>
      <trkpt lat="51.138498" lon="5.711334">
        <ele>38.537050</ele>
        <time>2023-03-05T09:46:39.000Z</time>
      </trkpt>
      <trkpt lat="51.138525" lon="5.711429">
        <ele>38.525835</ele>
        <time>2023-03-05T09:46:40.000Z</time>
      </trkpt>
      <trkpt lat="51.138551" lon="5.711521">
        <ele>38.514985</ele>
        <time>2023-03-05T09:46:41.000Z</time>
      </trkpt>
      <trkpt lat="51.138578" lon="5.711617">
        <ele>38.503673</ele>
        <time>2023-03-05T09:46:42.000Z</time>
      </trkpt>
      <trkpt lat="51.138602" lon="5.711717">
        <ele>38.492160</ele>
        <time>2023-03-05T09:46:43.000Z</time>
      </trkpt>
      <trkpt lat="51.138628" lon="5.711816">
        <ele>38.480619</ele>
        <time>2023-03-05T09:46:44.000Z</time>
      </trkpt>
      <trkpt lat="51.138652" lon="5.711912">
        <ele>38.469507</ele>
        <time>2023-03-05T09:46:45.000Z</time>
      </trkpt>
      <trkpt lat="51.138675" lon="5.712004">
        <ele>38.458858</ele>
        <time>2023-03-05T09:46:46.000Z</time>
      </trkpt>
      <trkpt lat="51.138698" lon="5.712093">
        <ele>38.448508</ele>
        <time>2023-03-05T09:46:47.000Z</time>
      </trkpt>
      <trkpt lat="51.138720" lon="5.712188">
        <ele>38.437619</ele>
        <time>2023-03-05T09:46:48.000Z</time>
      </trkpt>
      <trkpt lat="51.138746" lon="5.712287">
        <ele>38.426078</ele>
        <time>2023-03-05T09:46:49.000Z</time>
      </trkpt>
      <trkpt lat="51.138773" lon="5.712386">
        <ele>38.414471</ele>
        <time>2023-03-05T09:46:50.000Z</time>
      </trkpt>
      <trkpt lat="51.138799" lon="5.712489">
        <ele>38.402532</ele>
        <time>2023-03-05T09:46:51.000Z</time>
      </trkpt>
      <trkpt lat="51.138826" lon="5.712597">
        <ele>38.390031</ele>
        <time>2023-03-05T09:46:52.000Z</time>
      </trkpt>
      <trkpt lat="51.138850" lon="5.712707">
        <ele>38.390116</ele>
        <time>2023-03-05T09:46:53.000Z</time>
      </trkpt>
      <trkpt lat="51.138878" lon="5.712815">
        <ele>38.395567</ele>
        <time>2023-03-05T09:46:54.000Z</time>
      </trkpt>
      <trkpt lat="51.138909" lon="5.712929">
        <ele>38.401364</ele>
        <time>2023-03-05T09:46:55.000Z</time>
      </trkpt>
      <trkpt lat="51.138939" lon="5.713044">
        <ele>38.407174</ele>
        <time>2023-03-05T09:46:56.000Z</time>
      </trkpt>
      <trkpt lat="51.138969" lon="5.713157">
        <ele>38.412898</ele>
        <time>2023-03-05T09:46:57.000Z</time>
      </trkpt>
      <trkpt lat="51.138998" lon="5.713273">
        <ele>38.418724</ele>
        <time>2023-03-05T09:46:58.000Z</time>
      </trkpt>
      <trkpt lat="51.139024" lon="5.713387">
        <ele>38.424383</ele>
        <time>2023-03-05T09:46:59.000Z</time>
      </trkpt>
      <trkpt lat="51.139049" lon="5.713496">
        <ele>38.429797</ele>
        <time>2023-03-05T09:47:00.000Z</time>
      </trkpt>
      <trkpt lat="51.139072" lon="5.713597">
        <ele>38.434809</ele>
        <time>2023-03-05T09:47:01.000Z</time>
      </trkpt>
      <trkpt lat="51.139097" lon="5.713694">
        <ele>38.439702</ele>
        <time>2023-03-05T09:47:02.000Z</time>
      </trkpt>
      <trkpt lat="51.139124" lon="5.713784">
        <ele>38.444356</ele>
        <time>2023-03-05T09:47:03.000Z</time>
      </trkpt>
      <trkpt lat="51.139147" lon="5.713870">
        <ele>38.448717</ele>
        <time>2023-03-05T09:47:04.000Z</time>
      </trkpt>
      <trkpt lat="51.139168" lon="5.713956">
        <ele>38.453022</ele>
        <time>2023-03-05T09:47:05.000Z</time>
      </trkpt>
      <trkpt lat="51.139190" lon="5.714041">
        <ele>38.457312</ele>
        <time>2023-03-05T09:47:06.000Z</time>
      </trkpt>
      <trkpt lat="51.139210" lon="5.714129">
        <ele>38.461678</ele>
        <time>2023-03-05T09:47:07.000Z</time>
      </trkpt>
      <trkpt lat="51.139232" lon="5.714224">
        <ele>38.466402</ele>
        <time>2023-03-05T09:47:08.000Z</time>
      </trkpt>
      <trkpt lat="51.139257" lon="5.714323">
        <ele>38.471381</ele>
        <time>2023-03-05T09:47:09.000Z</time>
      </trkpt>
      <trkpt lat="51.139284" lon="5.714429">
        <ele>38.476718</ele>
        <time>2023-03-05T09:47:10.000Z</time>
      </trkpt>
      <trkpt lat="51.139310" lon="5.714533">
        <ele>38.481941</ele>
        <time>2023-03-05T09:47:11.000Z</time>
      </trkpt>
      <trkpt lat="51.139337" lon="5.714635">
        <ele>38.487105</ele>
        <time>2023-03-05T09:47:12.000Z</time>
      </trkpt>
      <trkpt lat="51.139364" lon="5.714739">
        <ele>38.492356</ele>
        <time>2023-03-05T09:47:13.000Z</time>
      </trkpt>
      <trkpt lat="51.139390" lon="5.714843">
        <ele>38.497579</ele>
        <time>2023-03-05T09:47:14.000Z</time>
      </trkpt>
      <trkpt lat="51.139417" lon="5.714945">
        <ele>38.502744</ele>
        <time>2023-03-05T09:47:15.000Z</time>
      </trkpt>
      <trkpt lat="51.139444" lon="5.715050">
        <ele>38.508037</ele>
        <time>2023-03-05T09:47:16.000Z</time>
      </trkpt>
      <trkpt lat="51.139470" lon="5.715156">
        <ele>38.513347</ele>
        <time>2023-03-05T09:47:17.000Z</time>
      </trkpt>
      <trkpt lat="51.139497" lon="5.715263">
        <ele>38.518727</ele>
        <time>2023-03-05T09:47:18.000Z</time>
      </trkpt>
      <trkpt lat="51.139524" lon="5.715371">
        <ele>38.508672</ele>
        <time>2023-03-05T09:47:19.000Z</time>
      </trkpt>
      <trkpt lat="51.139553" lon="5.715480">
        <ele>38.493409</ele>
        <time>2023-03-05T09:47:20.000Z</time>
      </trkpt>
      <trkpt lat="51.139581" lon="5.715590">
        <ele>38.478105</ele>
        <time>2023-03-05T09:47:21.000Z</time>
      </trkpt>
      <trkpt lat="51.139608" lon="5.715701">
        <ele>38.462758</ele>
        <time>2023-03-05T09:47:22.000Z</time>
      </trkpt>
      <trkpt lat="51.139637" lon="5.715811">
        <ele>38.447376</ele>
        <time>2023-03-05T09:47:23.000Z</time>
      </trkpt>
      <trkpt lat="51.139668" lon="5.715922">
        <ele>38.431713</ele>
        <time>2023-03-05T09:47:24.000Z</time>
      </trkpt>
      <trkpt lat="51.139698" lon="5.716033">
        <ele>38.416132</ele>
        <time>2023-03-05T09:47:25.000Z</time>
      </trkpt>
      <trkpt lat="51.139729" lon="5.716142">
        <ele>38.400704</ele>
        <time>2023-03-05T09:47:26.000Z</time>
      </trkpt>
      <trkpt lat="51.139757" lon="5.716249">
        <ele>38.385758</ele>
        <time>2023-03-05T09:47:27.000Z</time>
      </trkpt>
      <trkpt lat="51.139784" lon="5.716357">
        <ele>38.370770</ele>
        <time>2023-03-05T09:47:28.000Z</time>
      </trkpt>
      <trkpt lat="51.139813" lon="5.716464">
        <ele>38.355744</ele>
        <time>2023-03-05T09:47:29.000Z</time>
      </trkpt>
      <trkpt lat="51.139843" lon="5.716571">
        <ele>38.340636</ele>
        <time>2023-03-05T09:47:30.000Z</time>
      </trkpt>
      <trkpt lat="51.139871" lon="5.716682">
        <ele>38.325213</ele>
        <time>2023-03-05T09:47:31.000Z</time>
      </trkpt>
      <trkpt lat="51.139900" lon="5.716792">
        <ele>38.309831</ele>
        <time>2023-03-05T09:47:32.000Z</time>
      </trkpt>
      <trkpt lat="51.139928" lon="5.716898">
        <ele>38.295005</ele>
        <time>2023-03-05T09:47:33.000Z</time>
      </trkpt>
      <trkpt lat="51.139955" lon="5.717005">
        <ele>38.280137</ele>
        <time>2023-03-05T09:47:34.000Z</time>
      </trkpt>
      <trkpt lat="51.139982" lon="5.717113">
        <ele>38.265149</ele>
        <time>2023-03-05T09:47:35.000Z</time>
      </trkpt>
      <trkpt lat="51.140011" lon="5.717220">
        <ele>38.250123</ele>
        <time>2023-03-05T09:47:36.000Z</time>
      </trkpt>
      <trkpt lat="51.140039" lon="5.717323">
        <ele>38.235652</ele>
        <time>2023-03-05T09:47:37.000Z</time>
      </trkpt>
      <trkpt lat="51.140066" lon="5.717429">
        <ele>38.220904</ele>
        <time>2023-03-05T09:47:38.000Z</time>
      </trkpt>
      <trkpt lat="51.140092" lon="5.717534">
        <ele>38.206352</ele>
        <time>2023-03-05T09:47:39.000Z</time>
      </trkpt>
      <trkpt lat="51.140119" lon="5.717638">
        <ele>38.191842</ele>
        <time>2023-03-05T09:47:40.000Z</time>
      </trkpt>
      <trkpt lat="51.140146" lon="5.717740">
        <ele>38.177571</ele>
        <time>2023-03-05T09:47:41.000Z</time>
      </trkpt>
      <trkpt lat="51.140172" lon="5.717843">
        <ele>38.163258</ele>
        <time>2023-03-05T09:47:42.000Z</time>
      </trkpt>
      <trkpt lat="51.140197" lon="5.717946">
        <ele>38.150513</ele>
        <time>2023-03-05T09:47:43.000Z</time>
      </trkpt>
      <trkpt lat="51.140222" lon="5.718051">
        <ele>38.150921</ele>
        <time>2023-03-05T09:47:44.000Z</time>
      </trkpt>
      <trkpt lat="51.140249" lon="5.718153">
        <ele>38.151323</ele>
        <time>2023-03-05T09:47:45.000Z</time>
      </trkpt>
      <trkpt lat="51.140275" lon="5.718252">
        <ele>38.151712</ele>
        <time>2023-03-05T09:47:46.000Z</time>
      </trkpt>
      <trkpt lat="51.140304" lon="5.718348">
        <ele>38.152099</ele>
        <time>2023-03-05T09:47:47.000Z</time>
      </trkpt>
      <trkpt lat="51.140344" lon="5.718436">
        <ele>38.152493</ele>
        <time>2023-03-05T09:47:48.000Z</time>
      </trkpt>
      <trkpt lat="51.140390" lon="5.718504">
        <ele>38.152856</ele>
        <time>2023-03-05T09:47:49.000Z</time>
      </trkpt>
      <trkpt lat="51.140441" lon="5.718542">
        <ele>38.153182</ele>
        <time>2023-03-05T09:47:50.000Z</time>
      </trkpt>
      <trkpt lat="51.140502" lon="5.718551">
        <ele>38.153536</ele>
        <time>2023-03-05T09:47:51.000Z</time>
      </trkpt>
      <trkpt lat="51.140569" lon="5.718549">
        <ele>38.153924</ele>
        <time>2023-03-05T09:47:52.000Z</time>
      </trkpt>
      <trkpt lat="51.140634" lon="5.718546">
        <ele>38.154300</ele>
        <time>2023-03-05T09:47:53.000Z</time>
      </trkpt>
      <trkpt lat="51.140702" lon="5.718544">
        <ele>38.154693</ele>
        <time>2023-03-05T09:47:54.000Z</time>
      </trkpt>
      <trkpt lat="51.140768" lon="5.718541">
        <ele>38.155075</ele>
        <time>2023-03-05T09:47:55.000Z</time>
      </trkpt>
      <trkpt lat="51.140836" lon="5.718539">
        <ele>38.155469</ele>
        <time>2023-03-05T09:47:56.000Z</time>
      </trkpt>
      <trkpt lat="51.140904" lon="5.718536">
        <ele>38.155862</ele>
        <time>2023-03-05T09:47:57.000Z</time>
      </trkpt>
      <trkpt lat="51.140973" lon="5.718533">
        <ele>38.156261</ele>
        <time>2023-03-05T09:47:58.000Z</time>
      </trkpt>
      <trkpt lat="51.141042" lon="5.718531">
        <ele>38.156661</ele>
        <time>2023-03-05T09:47:59.000Z</time>
      </trkpt>
      <trkpt lat="51.141106" lon="5.718528">
        <ele>38.157031</ele>
        <time>2023-03-05T09:48:00.000Z</time>
      </trkpt>
      <trkpt lat="51.141168" lon="5.718523">
        <ele>38.157390</ele>
        <time>2023-03-05T09:48:01.000Z</time>
      </trkpt>
      <trkpt lat="51.141236" lon="5.718517">
        <ele>38.157784</ele>
        <time>2023-03-05T09:48:02.000Z</time>
      </trkpt>
      <trkpt lat="51.141303" lon="5.718512">
        <ele>38.158172</ele>
        <time>2023-03-05T09:48:03.000Z</time>
      </trkpt>
      <trkpt lat="51.141370" lon="5.718509">
        <ele>38.158560</ele>
        <time>2023-03-05T09:48:04.000Z</time>
      </trkpt>
      <trkpt lat="51.141437" lon="5.718510">
        <ele>38.158947</ele>
        <time>2023-03-05T09:48:05.000Z</time>
      </trkpt>
      <trkpt lat="51.141499" lon="5.718513">
        <ele>38.159306</ele>
        <time>2023-03-05T09:48:06.000Z</time>
      </trkpt>
      <trkpt lat="51.141560" lon="5.718513">
        <ele>38.159659</ele>
        <time>2023-03-05T09:48:07.000Z</time>
      </trkpt>
      <trkpt lat="51.141618" lon="5.718511">
        <ele>38.159995</ele>
        <time>2023-03-05T09:48:08.000Z</time>
      </trkpt>
      <trkpt lat="51.141678" lon="5.718509">
        <ele>38.160342</ele>
        <time>2023-03-05T09:48:09.000Z</time>
      </trkpt>
      <trkpt lat="51.141738" lon="5.718508">
        <ele>38.160689</ele>
        <time>2023-03-05T09:48:10.000Z</time>
      </trkpt>
      <trkpt lat="51.141795" lon="5.718507">
        <ele>38.167706</ele>
        <time>2023-03-05T09:48:11.000Z</time>
      </trkpt>
      <trkpt lat="51.141851" lon="5.718506">
        <ele>38.183296</ele>
        <time>2023-03-05T09:48:12.000Z</time>
      </trkpt>
      <trkpt lat="51.141906" lon="5.718504">
        <ele>38.198610</ele>
        <time>2023-03-05T09:48:13.000Z</time>
      </trkpt>
      <trkpt lat="51.141957" lon="5.718502">
        <ele>38.212811</ele>
        <time>2023-03-05T09:48:14.000Z</time>
      </trkpt>
      <trkpt lat="51.142006" lon="5.718502">
        <ele>38.226451</ele>
        <time>2023-03-05T09:48:15.000Z</time>
      </trkpt>
      <trkpt lat="51.142050" lon="5.718502">
        <ele>38.238699</ele>
        <time>2023-03-05T09:48:16.000Z</time>
      </trkpt>
      <trkpt lat="51.142091" lon="5.718501">
        <ele>38.250114</ele>
        <time>2023-03-05T09:48:17.000Z</time>
      </trkpt>
      <trkpt lat="51.142127" lon="5.718498">
        <ele>38.260148</ele>
        <time>2023-03-05T09:48:18.000Z</time>
      </trkpt>
      <trkpt lat="51.142156" lon="5.718499">
        <ele>38.268223</ele>
        <time>2023-03-05T09:48:19.000Z</time>
      </trkpt>
      <trkpt lat="51.142181" lon="5.718507">
        <ele>38.275321</ele>
        <time>2023-03-05T09:48:20.000Z</time>
      </trkpt>
      <trkpt lat="51.142201" lon="5.718523">
        <ele>38.281550</ele>
        <time>2023-03-05T09:48:21.000Z</time>
      </trkpt>
      <trkpt lat="51.142215" lon="5.718547">
        <ele>38.287274</ele>
        <time>2023-03-05T09:48:22.000Z</time>
      </trkpt>
      <trkpt lat="51.142227" lon="5.718576">
        <ele>38.293341</ele>
        <time>2023-03-05T09:48:23.000Z</time>
      </trkpt>
      <trkpt lat="51.142238" lon="5.718616">
        <ele>38.300968</ele>
        <time>2023-03-05T09:48:24.000Z</time>
      </trkpt>
      <trkpt lat="51.142247" lon="5.718670">
        <ele>38.310726</ele>
        <time>2023-03-05T09:48:25.000Z</time>
      </trkpt>
      <trkpt lat="51.142257" lon="5.718735">
        <ele>38.322414</ele>
        <time>2023-03-05T09:48:26.000Z</time>
      </trkpt>
      <trkpt lat="51.142266" lon="5.718810">
        <ele>38.335750</ele>
        <time>2023-03-05T09:48:27.000Z</time>
      </trkpt>
      <trkpt lat="51.142274" lon="5.718898">
        <ele>38.351280</ele>
        <time>2023-03-05T09:48:28.000Z</time>
      </trkpt>
      <trkpt lat="51.142282" lon="5.718993">
        <ele>38.368020</ele>
        <time>2023-03-05T09:48:29.000Z</time>
      </trkpt>
      <trkpt lat="51.142289" lon="5.719090">
        <ele>38.385072</ele>
        <time>2023-03-05T09:48:30.000Z</time>
      </trkpt>
      <trkpt lat="51.142299" lon="5.719192">
        <ele>38.403102</ele>
        <time>2023-03-05T09:48:31.000Z</time>
      </trkpt>
      <trkpt lat="51.142311" lon="5.719292">
        <ele>38.420883</ele>
        <time>2023-03-05T09:48:32.000Z</time>
      </trkpt>
      <trkpt lat="51.142322" lon="5.719387">
        <ele>38.437754</ele>
        <time>2023-03-05T09:48:33.000Z</time>
      </trkpt>
      <trkpt lat="51.142333" lon="5.719484">
        <ele>38.454970</ele>
        <time>2023-03-05T09:48:34.000Z</time>
      </trkpt>
      <trkpt lat="51.142347" lon="5.719584">
        <ele>38.472864</ele>
        <time>2023-03-05T09:48:35.000Z</time>
      </trkpt>
      <trkpt lat="51.142363" lon="5.719685">
        <ele>38.491056</ele>
        <time>2023-03-05T09:48:36.000Z</time>
      </trkpt>
      <trkpt lat="51.142378" lon="5.719789">
        <ele>38.509693</ele>
        <time>2023-03-05T09:48:37.000Z</time>
      </trkpt>
      <trkpt lat="51.142396" lon="5.719890">
        <ele>38.528030</ele>
        <time>2023-03-05T09:48:38.000Z</time>
      </trkpt>
      <trkpt lat="51.142414" lon="5.719990">
        <ele>38.546199</ele>
        <time>2023-03-05T09:48:39.000Z</time>
      </trkpt>
      <trkpt lat="51.142434" lon="5.720089">
        <ele>38.564363</ele>
        <time>2023-03-05T09:48:40.000Z</time>
      </trkpt>
      <trkpt lat="51.142453" lon="5.720188">
        <ele>38.582444</ele>
        <time>2023-03-05T09:48:41.000Z</time>
      </trkpt>
      <trkpt lat="51.142469" lon="5.720286">
        <ele>38.600129</ele>
        <time>2023-03-05T09:48:42.000Z</time>
      </trkpt>
      <trkpt lat="51.142487" lon="5.720387">
        <ele>38.618466</ele>
        <time>2023-03-05T09:48:43.000Z</time>
      </trkpt>
      <trkpt lat="51.142506" lon="5.720490">
        <ele>38.637216</ele>
        <time>2023-03-05T09:48:44.000Z</time>
      </trkpt>
      <trkpt lat="51.142523" lon="5.720594">
        <ele>38.655985</ele>
        <time>2023-03-05T09:48:45.000Z</time>
      </trkpt>
      <trkpt lat="51.142541" lon="5.720697">
        <ele>38.666483</ele>
        <time>2023-03-05T09:48:46.000Z</time>
      </trkpt>
      <trkpt lat="51.142559" lon="5.720800">
        <ele>38.673499</ele>
        <time>2023-03-05T09:48:47.000Z</time>
      </trkpt>
      <trkpt lat="51.142576" lon="5.720905">
        <ele>38.680615</ele>
        <time>2023-03-05T09:48:48.000Z</time>
      </trkpt>
      <trkpt lat="51.142594" lon="5.721010">
        <ele>38.687758</ele>
        <time>2023-03-05T09:48:49.000Z</time>
      </trkpt>
      <trkpt lat="51.142613" lon="5.721114">
        <ele>38.694866</ele>
        <time>2023-03-05T09:48:50.000Z</time>
      </trkpt>
      <trkpt lat="51.142632" lon="5.721218">
        <ele>38.701974</ele>
        <time>2023-03-05T09:48:51.000Z</time>
      </trkpt>
      <trkpt lat="51.142649" lon="5.721322">
        <ele>38.709026</ele>
        <time>2023-03-05T09:48:52.000Z</time>
      </trkpt>
      <trkpt lat="51.142666" lon="5.721423">
        <ele>38.715888</ele>
        <time>2023-03-05T09:48:53.000Z</time>
      </trkpt>
      <trkpt lat="51.142683" lon="5.721526">
        <ele>38.722877</ele>
        <time>2023-03-05T09:48:54.000Z</time>
      </trkpt>
      <trkpt lat="51.142700" lon="5.721629">
        <ele>38.729866</ele>
        <time>2023-03-05T09:48:55.000Z</time>
      </trkpt>
      <trkpt lat="51.142720" lon="5.721730">
        <ele>38.736816</ele>
        <time>2023-03-05T09:48:56.000Z</time>
      </trkpt>
      <trkpt lat="51.142736" lon="5.721831">
        <ele>38.743651</ele>
        <time>2023-03-05T09:48:57.000Z</time>
      </trkpt>
      <trkpt lat="51.142754" lon="5.721931">
        <ele>38.750478</ele>
        <time>2023-03-05T09:48:58.000Z</time>
      </trkpt>
      <trkpt lat="51.142771" lon="5.722032">
        <ele>38.757340</ele>
        <time>2023-03-05T09:48:59.000Z</time>
      </trkpt>
      <trkpt lat="51.142786" lon="5.722133">
        <ele>38.764151</ele>
        <time>2023-03-05T09:49:00.000Z</time>
      </trkpt>
      <trkpt lat="51.142803" lon="5.722231">
        <ele>38.770823</ele>
        <time>2023-03-05T09:49:01.000Z</time>
      </trkpt>
      <trkpt lat="51.142820" lon="5.722332">
        <ele>38.777685</ele>
        <time>2023-03-05T09:49:02.000Z</time>
      </trkpt>
      <trkpt lat="51.142836" lon="5.722434">
        <ele>38.784584</ele>
        <time>2023-03-05T09:49:03.000Z</time>
      </trkpt>
      <trkpt lat="51.142851" lon="5.722535">
        <ele>38.791395</ele>
        <time>2023-03-05T09:49:04.000Z</time>
      </trkpt>
      <trkpt lat="51.142869" lon="5.722638">
        <ele>38.798411</ele>
        <time>2023-03-05T09:49:05.000Z</time>
      </trkpt>
      <trkpt lat="51.142885" lon="5.722739">
        <ele>38.805247</ele>
        <time>2023-03-05T09:49:06.000Z</time>
      </trkpt>
      <trkpt lat="51.142900" lon="5.722835">
        <ele>38.811739</ele>
        <time>2023-03-05T09:49:07.000Z</time>
      </trkpt>
      <trkpt lat="51.142916" lon="5.722933">
        <ele>38.818383</ele>
        <time>2023-03-05T09:49:08.000Z</time>
      </trkpt>
      <trkpt lat="51.142933" lon="5.723033">
        <ele>38.825182</ele>
        <time>2023-03-05T09:49:09.000Z</time>
      </trkpt>
      <trkpt lat="51.142952" lon="5.723131">
        <ele>38.831913</ele>
        <time>2023-03-05T09:49:10.000Z</time>
      </trkpt>
      <trkpt lat="51.142972" lon="5.723230">
        <ele>38.838738</ele>
        <time>2023-03-05T09:49:11.000Z</time>
      </trkpt>
      <trkpt lat="51.142993" lon="5.723326">
        <ele>38.845409</ele>
        <time>2023-03-05T09:49:12.000Z</time>
      </trkpt>
      <trkpt lat="51.143018" lon="5.723417">
        <ele>38.847538</ele>
        <time>2023-03-05T09:49:13.000Z</time>
      </trkpt>
      <trkpt lat="51.143045" lon="5.723508">
        <ele>38.841195</ele>
        <time>2023-03-05T09:49:14.000Z</time>
      </trkpt>
      <trkpt lat="51.143074" lon="5.723595">
        <ele>38.834987</ele>
        <time>2023-03-05T09:49:15.000Z</time>
      </trkpt>
      <trkpt lat="51.143107" lon="5.723685">
        <ele>38.828418</ele>
        <time>2023-03-05T09:49:16.000Z</time>
      </trkpt>
      <trkpt lat="51.143144" lon="5.723778">
        <ele>38.821479</ele>
        <time>2023-03-05T09:49:17.000Z</time>
      </trkpt>
      <trkpt lat="51.143177" lon="5.723871">
        <ele>38.814746</ele>
        <time>2023-03-05T09:49:18.000Z</time>
      </trkpt>
      <trkpt lat="51.143205" lon="5.723966">
        <ele>38.808132</ele>
        <time>2023-03-05T09:49:19.000Z</time>
      </trkpt>
      <trkpt lat="51.143232" lon="5.724061">
        <ele>38.801561</ele>
        <time>2023-03-05T09:49:20.000Z</time>
      </trkpt>
      <trkpt lat="51.143261" lon="5.724156">
        <ele>38.794903</ele>
        <time>2023-03-05T09:49:21.000Z</time>
      </trkpt>
      <trkpt lat="51.143289" lon="5.724251">
        <ele>38.788289</ele>
        <time>2023-03-05T09:49:22.000Z</time>
      </trkpt>
      <trkpt lat="51.143313" lon="5.724346">
        <ele>38.781836</ele>
        <time>2023-03-05T09:49:23.000Z</time>
      </trkpt>
      <trkpt lat="51.143336" lon="5.724445">
        <ele>38.775184</ele>
        <time>2023-03-05T09:49:24.000Z</time>
      </trkpt>
      <trkpt lat="51.143359" lon="5.724543">
        <ele>38.768591</ele>
        <time>2023-03-05T09:49:25.000Z</time>
      </trkpt>
      <trkpt lat="51.143380" lon="5.724640">
        <ele>38.762125</ele>
        <time>2023-03-05T09:49:26.000Z</time>
      </trkpt>
      <trkpt lat="51.143401" lon="5.724737">
        <ele>38.755659</ele>
        <time>2023-03-05T09:49:27.000Z</time>
      </trkpt>
      <trkpt lat="51.143422" lon="5.724836">
        <ele>38.749074</ele>
        <time>2023-03-05T09:49:28.000Z</time>
      </trkpt>
      <trkpt lat="51.143441" lon="5.724935">
        <ele>38.742550</ele>
        <time>2023-03-05T09:49:29.000Z</time>
      </trkpt>
      <trkpt lat="51.143460" lon="5.725033">
        <ele>38.736087</ele>
        <time>2023-03-05T09:49:30.000Z</time>
      </trkpt>
      <trkpt lat="51.143479" lon="5.725131">
        <ele>38.729623</ele>
        <time>2023-03-05T09:49:31.000Z</time>
      </trkpt>
      <trkpt lat="51.143500" lon="5.725225">
        <ele>38.723336</ele>
        <time>2023-03-05T09:49:32.000Z</time>
      </trkpt>
      <trkpt lat="51.143523" lon="5.725319">
        <ele>38.716978</ele>
        <time>2023-03-05T09:49:33.000Z</time>
      </trkpt>
      <trkpt lat="51.143544" lon="5.725414">
        <ele>38.710631</ele>
        <time>2023-03-05T09:49:34.000Z</time>
      </trkpt>
      <trkpt lat="51.143558" lon="5.725512">
        <ele>38.704298</ele>
        <time>2023-03-05T09:49:35.000Z</time>
      </trkpt>
      <trkpt lat="51.143567" lon="5.725612">
        <ele>38.697932</ele>
        <time>2023-03-05T09:49:36.000Z</time>
      </trkpt>
      <trkpt lat="51.143570" lon="5.725716">
        <ele>38.691372</ele>
        <time>2023-03-05T09:49:37.000Z</time>
      </trkpt>
      <trkpt lat="51.143568" lon="5.725823">
        <ele>38.684627</ele>
        <time>2023-03-05T09:49:38.000Z</time>
      </trkpt>
      <trkpt lat="51.143564" lon="5.725932">
        <ele>38.677747</ele>
        <time>2023-03-05T09:49:39.000Z</time>
      </trkpt>
      <trkpt lat="51.143560" lon="5.726044">
        <ele>38.670678</ele>
        <time>2023-03-05T09:49:40.000Z</time>
      </trkpt>
      <trkpt lat="51.143556" lon="5.726157">
        <ele>38.644798</ele>
        <time>2023-03-05T09:49:41.000Z</time>
      </trkpt>
      <trkpt lat="51.143552" lon="5.726268">
        <ele>38.613862</ele>
        <time>2023-03-05T09:49:42.000Z</time>
      </trkpt>
      <trkpt lat="51.143551" lon="5.726379">
        <ele>38.582974</ele>
        <time>2023-03-05T09:49:43.000Z</time>
      </trkpt>
      <trkpt lat="51.143548" lon="5.726488">
        <ele>38.552617</ele>
        <time>2023-03-05T09:49:44.000Z</time>
      </trkpt>
      <trkpt lat="51.143547" lon="5.726595">
        <ele>38.522842</ele>
        <time>2023-03-05T09:49:45.000Z</time>
      </trkpt>
      <trkpt lat="51.143547" lon="5.726701">
        <ele>38.493348</ele>
        <time>2023-03-05T09:49:46.000Z</time>
      </trkpt>
      <trkpt lat="51.143545" lon="5.726806">
        <ele>38.464119</ele>
        <time>2023-03-05T09:49:47.000Z</time>
      </trkpt>
      <trkpt lat="51.143543" lon="5.726913">
        <ele>38.434334</ele>
        <time>2023-03-05T09:49:48.000Z</time>
      </trkpt>
      <trkpt lat="51.143541" lon="5.727021">
        <ele>38.404271</ele>
        <time>2023-03-05T09:49:49.000Z</time>
      </trkpt>
      <trkpt lat="51.143537" lon="5.727130">
        <ele>38.373891</ele>
        <time>2023-03-05T09:49:50.000Z</time>
      </trkpt>
      <trkpt lat="51.143536" lon="5.727240">
        <ele>38.343281</ele>
        <time>2023-03-05T09:49:51.000Z</time>
      </trkpt>
      <trkpt lat="51.143536" lon="5.727348">
        <ele>38.313231</ele>
        <time>2023-03-05T09:49:52.000Z</time>
      </trkpt>
      <trkpt lat="51.143536" lon="5.727457">
        <ele>38.282903</ele>
        <time>2023-03-05T09:49:53.000Z</time>
      </trkpt>
      <trkpt lat="51.143536" lon="5.727568">
        <ele>38.252018</ele>
        <time>2023-03-05T09:49:54.000Z</time>
      </trkpt>
      <trkpt lat="51.143533" lon="5.727679">
        <ele>38.221105</ele>
        <time>2023-03-05T09:49:55.000Z</time>
      </trkpt>
      <trkpt lat="51.143532" lon="5.727791">
        <ele>38.189939</ele>
        <time>2023-03-05T09:49:56.000Z</time>
      </trkpt>
      <trkpt lat="51.143532" lon="5.727902">
        <ele>38.159054</ele>
        <time>2023-03-05T09:49:57.000Z</time>
      </trkpt>
      <trkpt lat="51.143532" lon="5.728010">
        <ele>38.129004</ele>
        <time>2023-03-05T09:49:58.000Z</time>
      </trkpt>
      <trkpt lat="51.143532" lon="5.728116">
        <ele>38.099511</ele>
        <time>2023-03-05T09:49:59.000Z</time>
      </trkpt>
      <trkpt lat="51.143529" lon="5.728224">
        <ele>38.069431</ele>
        <time>2023-03-05T09:50:00.000Z</time>
      </trkpt>
      <trkpt lat="51.143526" lon="5.728337">
        <ele>38.037962</ele>
        <time>2023-03-05T09:50:01.000Z</time>
      </trkpt>
      <trkpt lat="51.143522" lon="5.728448">
        <ele>38.007026</ele>
        <time>2023-03-05T09:50:02.000Z</time>
      </trkpt>
      <trkpt lat="51.143518" lon="5.728559">
        <ele>37.976090</ele>
        <time>2023-03-05T09:50:03.000Z</time>
      </trkpt>
      <trkpt lat="51.143514" lon="5.728671">
        <ele>37.944877</ele>
        <time>2023-03-05T09:50:04.000Z</time>
      </trkpt>
      <trkpt lat="51.143510" lon="5.728784">
        <ele>37.913386</ele>
        <time>2023-03-05T09:50:05.000Z</time>
      </trkpt>
      <trkpt lat="51.143507" lon="5.728896">
        <ele>37.882194</ele>
        <time>2023-03-05T09:50:06.000Z</time>
      </trkpt>
      <trkpt lat="51.143503" lon="5.729009">
        <ele>37.857308</ele>
        <time>2023-03-05T09:50:07.000Z</time>
      </trkpt>
      <trkpt lat="51.143499" lon="5.729123">
        <ele>37.835710</ele>
        <time>2023-03-05T09:50:08.000Z</time>
      </trkpt>
      <trkpt lat="51.143495" lon="5.729237">
        <ele>37.814113</ele>
        <time>2023-03-05T09:50:09.000Z</time>
      </trkpt>
      <trkpt lat="51.143494" lon="5.729351">
        <ele>37.792547</ele>
        <time>2023-03-05T09:50:10.000Z</time>
      </trkpt>
      <trkpt lat="51.143494" lon="5.729462">
        <ele>37.771551</ele>
        <time>2023-03-05T09:50:11.000Z</time>
      </trkpt>
      <trkpt lat="51.143491" lon="5.729572">
        <ele>37.750724</ele>
        <time>2023-03-05T09:50:12.000Z</time>
      </trkpt>
      <trkpt lat="51.143487" lon="5.729682">
        <ele>37.729882</ele>
        <time>2023-03-05T09:50:13.000Z</time>
      </trkpt>
      <trkpt lat="51.143481" lon="5.729787">
        <ele>37.709938</ele>
        <time>2023-03-05T09:50:14.000Z</time>
      </trkpt>
      <trkpt lat="51.143474" lon="5.729893">
        <ele>37.689777</ele>
        <time>2023-03-05T09:50:15.000Z</time>
      </trkpt>
      <trkpt lat="51.143466" lon="5.729998">
        <ele>37.669770</ele>
        <time>2023-03-05T09:50:16.000Z</time>
      </trkpt>
      <trkpt lat="51.143456" lon="5.730104">
        <ele>37.649494</ele>
        <time>2023-03-05T09:50:17.000Z</time>
      </trkpt>
      <trkpt lat="51.143442" lon="5.730209">
        <ele>37.629189</ele>
        <time>2023-03-05T09:50:18.000Z</time>
      </trkpt>
      <trkpt lat="51.143424" lon="5.730313">
        <ele>37.608782</ele>
        <time>2023-03-05T09:50:19.000Z</time>
      </trkpt>
      <trkpt lat="51.143405" lon="5.730419">
        <ele>37.587929</ele>
        <time>2023-03-05T09:50:20.000Z</time>
      </trkpt>
      <trkpt lat="51.143384" lon="5.730524">
        <ele>37.567083</ele>
        <time>2023-03-05T09:50:21.000Z</time>
      </trkpt>
      <trkpt lat="51.143359" lon="5.730628">
        <ele>37.546016</ele>
        <time>2023-03-05T09:50:22.000Z</time>
      </trkpt>
      <trkpt lat="51.143332" lon="5.730730">
        <ele>37.525075</ele>
        <time>2023-03-05T09:50:23.000Z</time>
      </trkpt>
      <trkpt lat="51.143303" lon="5.730828">
        <ele>37.504579</ele>
        <time>2023-03-05T09:50:24.000Z</time>
      </trkpt>
      <trkpt lat="51.143270" lon="5.730923">
        <ele>37.484039</ele>
        <time>2023-03-05T09:50:25.000Z</time>
      </trkpt>
      <trkpt lat="51.143238" lon="5.731016">
        <ele>37.463975</ele>
        <time>2023-03-05T09:50:26.000Z</time>
      </trkpt>
      <trkpt lat="51.143207" lon="5.731109">
        <ele>37.444054</ele>
        <time>2023-03-05T09:50:27.000Z</time>
      </trkpt>
      <trkpt lat="51.143177" lon="5.731200">
        <ele>37.424609</ele>
        <time>2023-03-05T09:50:28.000Z</time>
      </trkpt>
      <trkpt lat="51.143144" lon="5.731289">
        <ele>37.405054</ele>
        <time>2023-03-05T09:50:29.000Z</time>
      </trkpt>
      <trkpt lat="51.143112" lon="5.731375">
        <ele>37.386141</ele>
        <time>2023-03-05T09:50:30.000Z</time>
      </trkpt>
      <trkpt lat="51.143082" lon="5.731460">
        <ele>37.367693</ele>
        <time>2023-03-05T09:50:31.000Z</time>
      </trkpt>
      <trkpt lat="51.143054" lon="5.731544">
        <ele>37.349700</ele>
        <time>2023-03-05T09:50:32.000Z</time>
      </trkpt>
      <trkpt lat="51.143027" lon="5.731630">
        <ele>37.331509</ele>
        <time>2023-03-05T09:50:33.000Z</time>
      </trkpt>
      <trkpt lat="51.143000" lon="5.731713">
        <ele>37.338218</ele>
        <time>2023-03-05T09:50:34.000Z</time>
      </trkpt>
      <trkpt lat="51.142978" lon="5.731795">
        <ele>37.348408</ele>
        <time>2023-03-05T09:50:35.000Z</time>
      </trkpt>
      <trkpt lat="51.142957" lon="5.731877">
        <ele>37.358527</ele>
        <time>2023-03-05T09:50:36.000Z</time>
      </trkpt>
      <trkpt lat="51.142941" lon="5.731963">
        <ele>37.368775</ele>
        <time>2023-03-05T09:50:37.000Z</time>
      </trkpt>
      <trkpt lat="51.142937" lon="5.732057">
        <ele>37.379540</ele>
        <time>2023-03-05T09:50:38.000Z</time>
      </trkpt>
      <trkpt lat="51.142942" lon="5.732152">
        <ele>37.390432</ele>
        <time>2023-03-05T09:50:39.000Z</time>
      </trkpt>
      <trkpt lat="51.142954" lon="5.732249">
        <ele>37.401728</ele>
        <time>2023-03-05T09:50:40.000Z</time>
      </trkpt>
      <trkpt lat="51.142969" lon="5.732348">
        <ele>37.413364</ele>
        <time>2023-03-05T09:50:41.000Z</time>
      </trkpt>
      <trkpt lat="51.142984" lon="5.732449">
        <ele>37.425222</ele>
        <time>2023-03-05T09:50:42.000Z</time>
      </trkpt>
      <trkpt lat="51.143002" lon="5.732550">
        <ele>37.437219</ele>
        <time>2023-03-05T09:50:43.000Z</time>
      </trkpt>
      <trkpt lat="51.143021" lon="5.732650">
        <ele>37.449156</ele>
        <time>2023-03-05T09:50:44.000Z</time>
      </trkpt>
      <trkpt lat="51.143040" lon="5.732746">
        <ele>37.460657</ele>
        <time>2023-03-05T09:50:45.000Z</time>
      </trkpt>
      <trkpt lat="51.143061" lon="5.732844">
        <ele>37.472489</ele>
        <time>2023-03-05T09:50:46.000Z</time>
      </trkpt>
      <trkpt lat="51.143082" lon="5.732945">
        <ele>37.484646</ele>
        <time>2023-03-05T09:50:47.000Z</time>
      </trkpt>
      <trkpt lat="51.143101" lon="5.733045">
        <ele>37.496583</ele>
        <time>2023-03-05T09:50:48.000Z</time>
      </trkpt>
      <trkpt lat="51.143120" lon="5.733147">
        <ele>37.508740</ele>
        <time>2023-03-05T09:50:49.000Z</time>
      </trkpt>
      <trkpt lat="51.143139" lon="5.733250">
        <ele>37.521006</ele>
        <time>2023-03-05T09:50:50.000Z</time>
      </trkpt>
      <trkpt lat="51.143156" lon="5.733353">
        <ele>37.533174</ele>
        <time>2023-03-05T09:50:51.000Z</time>
      </trkpt>
      <trkpt lat="51.143176" lon="5.733459">
        <ele>37.545821</ele>
        <time>2023-03-05T09:50:52.000Z</time>
      </trkpt>
      <trkpt lat="51.143199" lon="5.733562">
        <ele>37.558312</ele>
        <time>2023-03-05T09:50:53.000Z</time>
      </trkpt>
      <trkpt lat="51.143222" lon="5.733666">
        <ele>37.570911</ele>
        <time>2023-03-05T09:50:54.000Z</time>
      </trkpt>
      <trkpt lat="51.143250" lon="5.733769">
        <ele>37.583736</ele>
        <time>2023-03-05T09:50:55.000Z</time>
      </trkpt>
      <trkpt lat="51.143280" lon="5.733871">
        <ele>37.596607</ele>
        <time>2023-03-05T09:50:56.000Z</time>
      </trkpt>
      <trkpt lat="51.143311" lon="5.733970">
        <ele>37.609248</ele>
        <time>2023-03-05T09:50:57.000Z</time>
      </trkpt>
      <trkpt lat="51.143346" lon="5.734066">
        <ele>37.621934</ele>
        <time>2023-03-05T09:50:58.000Z</time>
      </trkpt>
      <trkpt lat="51.143384" lon="5.734159">
        <ele>37.634614</ele>
        <time>2023-03-05T09:50:59.000Z</time>
      </trkpt>
      <trkpt lat="51.143425" lon="5.734250">
        <ele>37.647414</ele>
        <time>2023-03-05T09:51:00.000Z</time>
      </trkpt>
      <trkpt lat="51.143466" lon="5.734339">
        <ele>37.663889</ele>
        <time>2023-03-05T09:51:01.000Z</time>
      </trkpt>
      <trkpt lat="51.143508" lon="5.734428">
        <ele>37.690864</ele>
        <time>2023-03-05T09:51:02.000Z</time>
      </trkpt>
      <trkpt lat="51.143550" lon="5.734518">
        <ele>37.718034</ele>
        <time>2023-03-05T09:51:03.000Z</time>
      </trkpt>
      <trkpt lat="51.143592" lon="5.734606">
        <ele>37.744816</ele>
        <time>2023-03-05T09:51:04.000Z</time>
      </trkpt>
      <trkpt lat="51.143634" lon="5.734694">
        <ele>37.771599</ele>
        <time>2023-03-05T09:51:05.000Z</time>
      </trkpt>
      <trkpt lat="51.143677" lon="5.734781">
        <ele>37.798426</ele>
        <time>2023-03-05T09:51:06.000Z</time>
      </trkpt>
      <trkpt lat="51.143721" lon="5.734866">
        <ele>37.825118</ele>
        <time>2023-03-05T09:51:07.000Z</time>
      </trkpt>
      <trkpt lat="51.143766" lon="5.734946">
        <ele>37.851144</ele>
        <time>2023-03-05T09:51:08.000Z</time>
      </trkpt>
      <trkpt lat="51.143812" lon="5.735023">
        <ele>37.876899</ele>
        <time>2023-03-05T09:51:09.000Z</time>
      </trkpt>
      <trkpt lat="51.143858" lon="5.735099">
        <ele>37.902478</ele>
        <time>2023-03-05T09:51:10.000Z</time>
      </trkpt>
      <trkpt lat="51.143904" lon="5.735177">
        <ele>37.928408</ele>
        <time>2023-03-05T09:51:11.000Z</time>
      </trkpt>
      <trkpt lat="51.143952" lon="5.735255">
        <ele>37.954873</ele>
        <time>2023-03-05T09:51:12.000Z</time>
      </trkpt>
      <trkpt lat="51.144001" lon="5.735331">
        <ele>37.981270</ele>
        <time>2023-03-05T09:51:13.000Z</time>
      </trkpt>
      <trkpt lat="51.144053" lon="5.735407">
        <ele>38.008508</ele>
        <time>2023-03-05T09:51:14.000Z</time>
      </trkpt>
      <trkpt lat="51.144102" lon="5.735482">
        <ele>38.034737</ele>
        <time>2023-03-05T09:51:15.000Z</time>
      </trkpt>
      <trkpt lat="51.144148" lon="5.735557">
        <ele>38.060142</ele>
        <time>2023-03-05T09:51:16.000Z</time>
      </trkpt>
      <trkpt lat="51.144194" lon="5.735635">
        <ele>38.086072</ele>
        <time>2023-03-05T09:51:17.000Z</time>
      </trkpt>
      <trkpt lat="51.144235" lon="5.735717">
        <ele>38.111471</ele>
        <time>2023-03-05T09:51:18.000Z</time>
      </trkpt>
      <trkpt lat="51.144268" lon="5.735805">
        <ele>38.136303</ele>
        <time>2023-03-05T09:51:19.000Z</time>
      </trkpt>
      <trkpt lat="51.144299" lon="5.735895">
        <ele>38.161172</ele>
        <time>2023-03-05T09:51:20.000Z</time>
      </trkpt>
      <trkpt lat="51.144326" lon="5.735986">
        <ele>38.185555</ele>
        <time>2023-03-05T09:51:21.000Z</time>
      </trkpt>
      <trkpt lat="51.144351" lon="5.736084">
        <ele>38.211180</ele>
        <time>2023-03-05T09:51:22.000Z</time>
      </trkpt>
      <trkpt lat="51.144372" lon="5.736180">
        <ele>38.235806</ele>
        <time>2023-03-05T09:51:23.000Z</time>
      </trkpt>
      <trkpt lat="51.144393" lon="5.736277">
        <ele>38.260660</ele>
        <time>2023-03-05T09:51:24.000Z</time>
      </trkpt>
      <trkpt lat="51.144414" lon="5.736372">
        <ele>38.285057</ele>
        <time>2023-03-05T09:51:25.000Z</time>
      </trkpt>
      <trkpt lat="51.144433" lon="5.736467">
        <ele>38.309209</ele>
        <time>2023-03-05T09:51:26.000Z</time>
      </trkpt>
      <trkpt lat="51.144452" lon="5.736559">
        <ele>38.332669</ele>
        <time>2023-03-05T09:51:27.000Z</time>
      </trkpt>
      <trkpt lat="51.144473" lon="5.736649">
        <ele>38.354500</ele>
        <time>2023-03-05T09:51:28.000Z</time>
      </trkpt>
      <trkpt lat="51.144494" lon="5.736733">
        <ele>38.370029</ele>
        <time>2023-03-05T09:51:29.000Z</time>
      </trkpt>
      <trkpt lat="51.144513" lon="5.736817">
        <ele>38.385364</ele>
        <time>2023-03-05T09:51:30.000Z</time>
      </trkpt>
      <trkpt lat="51.144529" lon="5.736896">
        <ele>38.399621</ele>
        <time>2023-03-05T09:51:31.000Z</time>
      </trkpt>
      <trkpt lat="51.144551" lon="5.736968">
        <ele>38.413375</ele>
        <time>2023-03-05T09:51:32.000Z</time>
      </trkpt>
      <trkpt lat="51.144583" lon="5.737036">
        <ele>38.427973</ele>
        <time>2023-03-05T09:51:33.000Z</time>
      </trkpt>
      <trkpt lat="51.144622" lon="5.737096">
        <ele>38.442811</ele>
        <time>2023-03-05T09:51:34.000Z</time>
      </trkpt>
      <trkpt lat="51.144667" lon="5.737150">
        <ele>38.458230</ele>
        <time>2023-03-05T09:51:35.000Z</time>
      </trkpt>
      <trkpt lat="51.144715" lon="5.737200">
        <ele>38.473927</ele>
        <time>2023-03-05T09:51:36.000Z</time>
      </trkpt>
      <trkpt lat="51.144767" lon="5.737245">
        <ele>38.490124</ele>
        <time>2023-03-05T09:51:37.000Z</time>
      </trkpt>
      <trkpt lat="51.144813" lon="5.737286">
        <ele>38.504552</ele>
        <time>2023-03-05T09:51:38.000Z</time>
      </trkpt>
      <trkpt lat="51.144853" lon="5.737339">
        <ele>38.518791</ele>
        <time>2023-03-05T09:51:39.000Z</time>
      </trkpt>
      <trkpt lat="51.144881" lon="5.737409">
        <ele>38.533048</ele>
        <time>2023-03-05T09:51:40.000Z</time>
      </trkpt>
      <trkpt lat="51.144897" lon="5.737495">
        <ele>38.548453</ele>
        <time>2023-03-05T09:51:41.000Z</time>
      </trkpt>
      <trkpt lat="51.144911" lon="5.737583">
        <ele>38.564044</ele>
        <time>2023-03-05T09:51:42.000Z</time>
      </trkpt>
      <trkpt lat="51.144933" lon="5.737671">
        <ele>38.580313</ele>
        <time>2023-03-05T09:51:43.000Z</time>
      </trkpt>
      <trkpt lat="51.144960" lon="5.737758">
        <ele>38.596982</ele>
        <time>2023-03-05T09:51:44.000Z</time>
      </trkpt>
      <trkpt lat="51.144989" lon="5.737845">
        <ele>38.613901</ele>
        <time>2023-03-05T09:51:45.000Z</time>
      </trkpt>
      <trkpt lat="51.145017" lon="5.737937">
        <ele>38.631462</ele>
        <time>2023-03-05T09:51:46.000Z</time>
      </trkpt>
      <trkpt lat="51.145044" lon="5.738031">
        <ele>38.649217</ele>
        <time>2023-03-05T09:51:47.000Z</time>
      </trkpt>
      <trkpt lat="51.145068" lon="5.738125">
        <ele>38.666645</ele>
        <time>2023-03-05T09:51:48.000Z</time>
      </trkpt>
      <trkpt lat="51.145093" lon="5.738217">
        <ele>38.683864</ele>
        <time>2023-03-05T09:51:49.000Z</time>
      </trkpt>
      <trkpt lat="51.145120" lon="5.738308">
        <ele>38.701151</ele>
        <time>2023-03-05T09:51:50.000Z</time>
      </trkpt>
      <trkpt lat="51.145145" lon="5.738400">
        <ele>38.718369</ele>
        <time>2023-03-05T09:51:51.000Z</time>
      </trkpt>
      <trkpt lat="51.145170" lon="5.738493">
        <ele>38.735745</ele>
        <time>2023-03-05T09:51:52.000Z</time>
      </trkpt>
      <trkpt lat="51.145194" lon="5.738589">
        <ele>38.753493</ele>
        <time>2023-03-05T09:51:53.000Z</time>
      </trkpt>
      <trkpt lat="51.145219" lon="5.738688">
        <ele>38.771820</ele>
        <time>2023-03-05T09:51:54.000Z</time>
      </trkpt>
      <trkpt lat="51.145244" lon="5.738788">
        <ele>38.790307</ele>
        <time>2023-03-05T09:51:55.000Z</time>
      </trkpt>
      <trkpt lat="51.145267" lon="5.738886">
        <ele>38.808276</ele>
        <time>2023-03-05T09:51:56.000Z</time>
      </trkpt>
      <trkpt lat="51.145287" lon="5.738982">
        <ele>38.825648</ele>
        <time>2023-03-05T09:51:57.000Z</time>
      </trkpt>
      <trkpt lat="51.145306" lon="5.739077">
        <ele>38.842772</ele>
        <time>2023-03-05T09:51:58.000Z</time>
      </trkpt>
      <trkpt lat="51.145330" lon="5.739168">
        <ele>38.843395</ele>
        <time>2023-03-05T09:51:59.000Z</time>
      </trkpt>
      <trkpt lat="51.145352" lon="5.739255">
        <ele>38.843395</ele>
        <time>2023-03-05T09:52:00.000Z</time>
      </trkpt>
      <trkpt lat="51.145371" lon="5.739340">
        <ele>38.843395</ele>
        <time>2023-03-05T09:52:01.000Z</time>
      </trkpt>
      <trkpt lat="51.145392" lon="5.739422">
        <ele>38.843395</ele>
        <time>2023-03-05T09:52:02.000Z</time>
      </trkpt>
      <trkpt lat="51.145415" lon="5.739501">
        <ele>38.843395</ele>
        <time>2023-03-05T09:52:03.000Z</time>
      </trkpt>
      <trkpt lat="51.145440" lon="5.739576">
        <ele>38.843395</ele>
        <time>2023-03-05T09:52:04.000Z</time>
      </trkpt>
      <trkpt lat="51.145470" lon="5.739649">
        <ele>38.843395</ele>
        <time>2023-03-05T09:52:05.000Z</time>
      </trkpt>
      <trkpt lat="51.145498" lon="5.739725">
        <ele>38.843395</ele>
        <time>2023-03-05T09:52:06.000Z</time>
      </trkpt>
      <trkpt lat="51.145527" lon="5.739798">
        <ele>38.843395</ele>
        <time>2023-03-05T09:52:07.000Z</time>
      </trkpt>
      <trkpt lat="51.145550" lon="5.739873">
        <ele>38.843395</ele>
        <time>2023-03-05T09:52:08.000Z</time>
      </trkpt>
      <trkpt lat="51.145565" lon="5.739959">
        <ele>38.843395</ele>
        <time>2023-03-05T09:52:09.000Z</time>
      </trkpt>
      <trkpt lat="51.145574" lon="5.740049">
        <ele>38.843395</ele>
        <time>2023-03-05T09:52:10.000Z</time>
      </trkpt>
      <trkpt lat="51.145574" lon="5.740139">
        <ele>38.843395</ele>
        <time>2023-03-05T09:52:11.000Z</time>
      </trkpt>
      <trkpt lat="51.145573" lon="5.740232">
        <ele>38.843395</ele>
        <time>2023-03-05T09:52:12.000Z</time>
      </trkpt>
      <trkpt lat="51.145573" lon="5.740327">
        <ele>38.843395</ele>
        <time>2023-03-05T09:52:13.000Z</time>
      </trkpt>
      <trkpt lat="51.145573" lon="5.740425">
        <ele>38.843395</ele>
        <time>2023-03-05T09:52:14.000Z</time>
      </trkpt>
      <trkpt lat="51.145570" lon="5.740522">
        <ele>38.843395</ele>
        <time>2023-03-05T09:52:15.000Z</time>
      </trkpt>
      <trkpt lat="51.145566" lon="5.740618">
        <ele>38.843395</ele>
        <time>2023-03-05T09:52:16.000Z</time>
      </trkpt>
      <trkpt lat="51.145565" lon="5.740710">
        <ele>38.843395</ele>
        <time>2023-03-05T09:52:17.000Z</time>
      </trkpt>
      <trkpt lat="51.145563" lon="5.740805">
        <ele>38.843395</ele>
        <time>2023-03-05T09:52:18.000Z</time>
      </trkpt>
      <trkpt lat="51.145559" lon="5.740901">
        <ele>38.843395</ele>
        <time>2023-03-05T09:52:19.000Z</time>
      </trkpt>
      <trkpt lat="51.145555" lon="5.740996">
        <ele>38.843395</ele>
        <time>2023-03-05T09:52:20.000Z</time>
      </trkpt>
      <trkpt lat="51.145551" lon="5.741089">
        <ele>38.843395</ele>
        <time>2023-03-05T09:52:21.000Z</time>
      </trkpt>
      <trkpt lat="51.145550" lon="5.741182">
        <ele>38.843395</ele>
        <time>2023-03-05T09:52:22.000Z</time>
      </trkpt>
      <trkpt lat="51.145547" lon="5.741270">
        <ele>38.843395</ele>
        <time>2023-03-05T09:52:23.000Z</time>
      </trkpt>
      <trkpt lat="51.145541" lon="5.741358">
        <ele>38.843395</ele>
        <time>2023-03-05T09:52:24.000Z</time>
      </trkpt>
      <trkpt lat="51.145529" lon="5.741442">
        <ele>38.843395</ele>
        <time>2023-03-05T09:52:25.000Z</time>
      </trkpt>
      <trkpt lat="51.145507" lon="5.741518">
        <ele>38.843395</ele>
        <time>2023-03-05T09:52:26.000Z</time>
      </trkpt>
      <trkpt lat="51.145477" lon="5.741583">
        <ele>38.843395</ele>
        <time>2023-03-05T09:52:27.000Z</time>
      </trkpt>
      <trkpt lat="51.145449" lon="5.741645">
        <ele>38.843395</ele>
        <time>2023-03-05T09:52:28.000Z</time>
      </trkpt>
      <trkpt lat="51.145434" lon="5.741712">
        <ele>38.843395</ele>
        <time>2023-03-05T09:52:29.000Z</time>
      </trkpt>
      <trkpt lat="51.145424" lon="5.741779">
        <ele>38.843395</ele>
        <time>2023-03-05T09:52:30.000Z</time>
      </trkpt>
      <trkpt lat="51.145418" lon="5.741836">
        <ele>38.843395</ele>
        <time>2023-03-05T09:52:31.000Z</time>
      </trkpt>
      <trkpt lat="51.145414" lon="5.741874">
        <ele>38.843395</ele>
        <time>2023-03-05T09:52:32.000Z</time>
      </trkpt>
      <trkpt lat="51.145408" lon="5.741898">
        <ele>38.843395</ele>
        <time>2023-03-05T09:52:33.000Z</time>
      </trkpt>
      <trkpt lat="51.145402" lon="5.741919">
        <ele>38.843395</ele>
        <time>2023-03-05T09:52:34.000Z</time>
      </trkpt>
      <trkpt lat="51.145399" lon="5.741940">
        <ele>38.843395</ele>
        <time>2023-03-05T09:52:35.000Z</time>
      </trkpt>
      <trkpt lat="51.145395" lon="5.741962">
        <ele>38.843395</ele>
        <time>2023-03-05T09:52:36.000Z</time>
      </trkpt>
      <trkpt lat="51.145398" lon="5.741982">
        <ele>38.843395</ele>
        <time>2023-03-05T09:52:37.000Z</time>
      </trkpt>
      <trkpt lat="51.145410" lon="5.742005">
        <ele>38.843395</ele>
        <time>2023-03-05T09:52:38.000Z</time>
      </trkpt>
      <trkpt lat="51.145426" lon="5.742029">
        <ele>38.843395</ele>
        <time>2023-03-05T09:52:39.000Z</time>
      </trkpt>
      <trkpt lat="51.145448" lon="5.742052">
        <ele>38.843395</ele>
        <time>2023-03-05T09:52:40.000Z</time>
      </trkpt>
      <trkpt lat="51.145475" lon="5.742071">
        <ele>38.843395</ele>
        <time>2023-03-05T09:52:41.000Z</time>
      </trkpt>
      <trkpt lat="51.145504" lon="5.742094">
        <ele>38.843395</ele>
        <time>2023-03-05T09:52:42.000Z</time>
      </trkpt>
      <trkpt lat="51.145534" lon="5.742127">
        <ele>38.843395</ele>
        <time>2023-03-05T09:52:43.000Z</time>
      </trkpt>
      <trkpt lat="51.145560" lon="5.742178">
        <ele>38.843395</ele>
        <time>2023-03-05T09:52:44.000Z</time>
      </trkpt>
      <trkpt lat="51.145581" lon="5.742244">
        <ele>38.843395</ele>
        <time>2023-03-05T09:52:45.000Z</time>
      </trkpt>
      <trkpt lat="51.145593" lon="5.742321">
        <ele>38.843395</ele>
        <time>2023-03-05T09:52:46.000Z</time>
      </trkpt>
      <trkpt lat="51.145600" lon="5.742403">
        <ele>38.843395</ele>
        <time>2023-03-05T09:52:47.000Z</time>
      </trkpt>
      <trkpt lat="51.145613" lon="5.742486">
        <ele>38.843395</ele>
        <time>2023-03-05T09:52:48.000Z</time>
      </trkpt>
      <trkpt lat="51.145626" lon="5.742566">
        <ele>38.843395</ele>
        <time>2023-03-05T09:52:49.000Z</time>
      </trkpt>
      <trkpt lat="51.145637" lon="5.742644">
        <ele>38.843395</ele>
        <time>2023-03-05T09:52:50.000Z</time>
      </trkpt>
      <trkpt lat="51.145649" lon="5.742720">
        <ele>38.843395</ele>
        <time>2023-03-05T09:52:51.000Z</time>
      </trkpt>
      <trkpt lat="51.145660" lon="5.742792">
        <ele>38.843395</ele>
        <time>2023-03-05T09:52:52.000Z</time>
      </trkpt>
      <trkpt lat="51.145669" lon="5.742860">
        <ele>38.843395</ele>
        <time>2023-03-05T09:52:53.000Z</time>
      </trkpt>
      <trkpt lat="51.145681" lon="5.742927">
        <ele>38.843395</ele>
        <time>2023-03-05T09:52:54.000Z</time>
      </trkpt>
      <trkpt lat="51.145699" lon="5.742994">
        <ele>38.843395</ele>
        <time>2023-03-05T09:52:55.000Z</time>
      </trkpt>
    </trkseg>
  </trk>
</gpx>